<?xml version="1.0" encoding="UTF-8" standalone="no" ?>
<gpx xmlns="http://www.topografix.com/GPX/1/1" xmlns:xsi="http://www.w3.org/2001/XMLSchema-instance" xsi:schemaLocation="http://www.topografix.com/GPX/1/1 http://www.topografix.com/GPX/1/1/gpx.xsd" version="1.1" creator="VisuGPX - https://www.visugpx.com">
  <metadata>
    <name>Montenois Tavey etc</name>
    <desc><![CDATA[Montenois Tavey etc]]></desc>
  </metadata>
  <wpt lat="47.50792" lon="6.7658">
    <ele>392</ele>
    <name><![CDATA[Point de cheminement 1]]></name>
    <desc><![CDATA[]]></desc>
  </wpt>
  <wpt lat="47.4916" lon="6.75813">
    <ele>334</ele>
    <name><![CDATA[Point de cheminement 2]]></name>
    <desc><![CDATA[]]></desc>
  </wpt>
  <wpt lat="47.4925" lon="6.72846">
    <ele>398</ele>
    <name><![CDATA[Point de cheminement 3]]></name>
    <desc><![CDATA[]]></desc>
  </wpt>
  <wpt lat="47.48231" lon="6.69036">
    <ele>355</ele>
    <name><![CDATA[Point de cheminement 4]]></name>
    <desc><![CDATA[]]></desc>
  </wpt>
  <wpt lat="47.48258" lon="6.68022">
    <ele>417</ele>
    <name><![CDATA[Point de cheminement 5]]></name>
    <desc><![CDATA[]]></desc>
  </wpt>
  <wpt lat="47.47802" lon="6.67716">
    <ele>444</ele>
    <name><![CDATA[Point de cheminement 6]]></name>
    <desc><![CDATA[]]></desc>
  </wpt>
  <wpt lat="47.48195" lon="6.65455">
    <ele>459</ele>
    <name><![CDATA[Point de cheminement 7]]></name>
    <desc><![CDATA[]]></desc>
  </wpt>
  <wpt lat="47.48073" lon="6.6477">
    <ele>443</ele>
    <name><![CDATA[Point de cheminement 8]]></name>
    <desc><![CDATA[]]></desc>
  </wpt>
  <wpt lat="47.47935" lon="6.68396">
    <ele>365</ele>
    <name><![CDATA[Point de cheminement 9]]></name>
    <desc><![CDATA[]]></desc>
  </wpt>
  <wpt lat="47.49288" lon="6.69894">
    <ele>387</ele>
    <name><![CDATA[Point de cheminement 10]]></name>
    <desc><![CDATA[]]></desc>
  </wpt>
  <wpt lat="47.49524" lon="6.72787">
    <ele>371</ele>
    <name><![CDATA[Point de cheminement 11]]></name>
    <desc><![CDATA[]]></desc>
  </wpt>
  <wpt lat="47.49772" lon="6.75733">
    <ele>351</ele>
    <name><![CDATA[Point de cheminement 12]]></name>
    <desc><![CDATA[]]></desc>
  </wpt>
  <wpt lat="47.51724" lon="6.77508">
    <ele>390</ele>
    <name><![CDATA[Point de cheminement 13]]></name>
    <desc><![CDATA[]]></desc>
  </wpt>
  <trk>
    <name><![CDATA[Rue Antoine Coysevox]]></name>
    <desc><![CDATA[]]></desc>
    <trkseg>
      <trkpt lat="47.518" lon="6.77467">
        <ele>388</ele>
        <time>2016-05-08T07:08:04.000Z</time>
      </trkpt>
      <trkpt lat="47.51799" lon="6.77468">
        <ele>388</ele>
        <time>2016-05-08T07:08:05.000Z</time>
      </trkpt>
      <trkpt lat="47.51795" lon="6.77469">
        <ele>388</ele>
        <time>2016-05-08T07:08:06.000Z</time>
      </trkpt>
      <trkpt lat="47.51797" lon="6.77474">
        <ele>388</ele>
        <time>2016-05-08T07:08:09.000Z</time>
      </trkpt>
      <trkpt lat="47.51799" lon="6.77476">
        <ele>388</ele>
        <time>2016-05-08T07:08:10.000Z</time>
      </trkpt>
      <trkpt lat="47.51801" lon="6.77479">
        <ele>388</ele>
        <time>2016-05-08T07:08:13.000Z</time>
      </trkpt>
      <trkpt lat="47.51804" lon="6.77481">
        <ele>388</ele>
        <time>2016-05-08T07:08:14.000Z</time>
      </trkpt>
      <trkpt lat="47.51803" lon="6.7748">
        <ele>388</ele>
        <time>2016-05-08T07:16:35.000Z</time>
      </trkpt>
      <trkpt lat="47.51801" lon="6.77467">
        <ele>388</ele>
        <time>2016-05-08T07:16:36.000Z</time>
      </trkpt>
      <trkpt lat="47.51803" lon="6.77471">
        <ele>388</ele>
        <time>2016-05-08T07:16:48.000Z</time>
      </trkpt>
      <trkpt lat="47.51803" lon="6.77474">
        <ele>388</ele>
        <time>2016-05-08T07:16:49.000Z</time>
      </trkpt>
      <trkpt lat="47.51805" lon="6.77477">
        <ele>388</ele>
        <time>2016-05-08T07:16:50.000Z</time>
      </trkpt>
      <trkpt lat="47.51807" lon="6.77479">
        <ele>388</ele>
        <time>2016-05-08T07:16:51.000Z</time>
      </trkpt>
      <trkpt lat="47.51808" lon="6.77482">
        <ele>388</ele>
        <time>2016-05-08T07:16:52.000Z</time>
      </trkpt>
      <trkpt lat="47.51808" lon="6.77486">
        <ele>388</ele>
        <time>2016-05-08T07:16:53.000Z</time>
      </trkpt>
      <trkpt lat="47.51807" lon="6.7749">
        <ele>388</ele>
        <time>2016-05-08T07:16:55.000Z</time>
      </trkpt>
      <trkpt lat="47.51805" lon="6.77492">
        <ele>388</ele>
        <time>2016-05-08T07:16:56.000Z</time>
      </trkpt>
      <trkpt lat="47.51802" lon="6.77493">
        <ele>388</ele>
        <time>2016-05-08T07:16:57.000Z</time>
      </trkpt>
      <trkpt lat="47.51799" lon="6.77493">
        <ele>388</ele>
        <time>2016-05-08T07:16:58.000Z</time>
      </trkpt>
      <trkpt lat="47.51795" lon="6.77493">
        <ele>388</ele>
        <time>2016-05-08T07:16:59.000Z</time>
      </trkpt>
      <trkpt lat="47.51792" lon="6.77493">
        <ele>388</ele>
        <time>2016-05-08T07:17:00.000Z</time>
      </trkpt>
      <trkpt lat="47.51789" lon="6.77491">
        <ele>388</ele>
        <time>2016-05-08T07:17:01.000Z</time>
      </trkpt>
      <trkpt lat="47.51786" lon="6.7749">
        <ele>388</ele>
        <time>2016-05-08T07:17:02.000Z</time>
      </trkpt>
      <trkpt lat="47.51783" lon="6.77488">
        <ele>388</ele>
        <time>2016-05-08T07:17:03.000Z</time>
      </trkpt>
      <trkpt lat="47.5178" lon="6.77486">
        <ele>388</ele>
        <time>2016-05-08T07:17:04.000Z</time>
      </trkpt>
      <trkpt lat="47.51777" lon="6.77484">
        <ele>388</ele>
        <time>2016-05-08T07:17:05.000Z</time>
      </trkpt>
      <trkpt lat="47.51774" lon="6.77482">
        <ele>388</ele>
        <time>2016-05-08T07:17:06.000Z</time>
      </trkpt>
      <trkpt lat="47.5177" lon="6.77481">
        <ele>388</ele>
        <time>2016-05-08T07:17:07.000Z</time>
      </trkpt>
      <trkpt lat="47.51766" lon="6.7748">
        <ele>389</ele>
        <time>2016-05-08T07:17:08.000Z</time>
      </trkpt>
      <trkpt lat="47.51763" lon="6.77478">
        <ele>389</ele>
        <time>2016-05-08T07:17:09.000Z</time>
      </trkpt>
      <trkpt lat="47.51759" lon="6.77477">
        <ele>389</ele>
        <time>2016-05-08T07:17:10.000Z</time>
      </trkpt>
      <trkpt lat="47.51755" lon="6.77476">
        <ele>389</ele>
        <time>2016-05-08T07:17:11.000Z</time>
      </trkpt>
      <trkpt lat="47.51752" lon="6.77475">
        <ele>389</ele>
        <time>2016-05-08T07:17:12.000Z</time>
      </trkpt>
      <trkpt lat="47.51748" lon="6.77474">
        <ele>389</ele>
        <time>2016-05-08T07:17:13.000Z</time>
      </trkpt>
      <trkpt lat="47.51745" lon="6.77474">
        <ele>389</ele>
        <time>2016-05-08T07:17:14.000Z</time>
      </trkpt>
      <trkpt lat="47.51741" lon="6.77473">
        <ele>389</ele>
        <time>2016-05-08T07:17:15.000Z</time>
      </trkpt>
      <trkpt lat="47.51737" lon="6.77473">
        <ele>389</ele>
        <time>2016-05-08T07:17:16.000Z</time>
      </trkpt>
      <trkpt lat="47.51734" lon="6.77473">
        <ele>389</ele>
        <time>2016-05-08T07:17:17.000Z</time>
      </trkpt>
      <trkpt lat="47.5173" lon="6.77474">
        <ele>389</ele>
        <time>2016-05-08T07:17:18.000Z</time>
      </trkpt>
      <trkpt lat="47.51727" lon="6.77476">
        <ele>389</ele>
        <time>2016-05-08T07:17:19.000Z</time>
      </trkpt>
      <trkpt lat="47.51724" lon="6.77481">
        <ele>389</ele>
        <time>2016-05-08T07:17:20.000Z</time>
      </trkpt>
      <trkpt lat="47.51722" lon="6.77486">
        <ele>389</ele>
        <time>2016-05-08T07:17:21.000Z</time>
      </trkpt>
      <trkpt lat="47.5172" lon="6.77493">
        <ele>389</ele>
        <time>2016-05-08T07:17:22.000Z</time>
      </trkpt>
      <trkpt lat="47.51721" lon="6.77504">
        <ele>390</ele>
        <time>2016-05-08T07:17:23.000Z</time>
      </trkpt>
      <trkpt lat="47.5172" lon="6.77511">
        <ele>390</ele>
        <time>2016-05-08T07:17:24.000Z</time>
      </trkpt>
      <trkpt lat="47.5172" lon="6.77517">
        <ele>390</ele>
        <time>2016-05-08T07:17:25.000Z</time>
      </trkpt>
      <trkpt lat="47.51719" lon="6.77523">
        <ele>390</ele>
        <time>2016-05-08T07:17:26.000Z</time>
      </trkpt>
      <trkpt lat="47.51718" lon="6.77529">
        <ele>390</ele>
        <time>2016-05-08T07:17:27.000Z</time>
      </trkpt>
      <trkpt lat="47.51717" lon="6.77535">
        <ele>390</ele>
        <time>2016-05-08T07:17:28.000Z</time>
      </trkpt>
      <trkpt lat="47.51715" lon="6.77541">
        <ele>390</ele>
        <time>2016-05-08T07:17:29.000Z</time>
      </trkpt>
      <trkpt lat="47.51712" lon="6.77545">
        <ele>390</ele>
        <time>2016-05-08T07:17:30.000Z</time>
      </trkpt>
      <trkpt lat="47.51708" lon="6.77546">
        <ele>390</ele>
        <time>2016-05-08T07:17:31.000Z</time>
      </trkpt>
      <trkpt lat="47.51703" lon="6.77544">
        <ele>390</ele>
        <time>2016-05-08T07:17:32.000Z</time>
      </trkpt>
      <trkpt lat="47.51699" lon="6.7754">
        <ele>390</ele>
        <time>2016-05-08T07:17:33.000Z</time>
      </trkpt>
      <trkpt lat="47.51694" lon="6.77536">
        <ele>390</ele>
        <time>2016-05-08T07:17:34.000Z</time>
      </trkpt>
      <trkpt lat="47.5169" lon="6.77531">
        <ele>390</ele>
        <time>2016-05-08T07:17:35.000Z</time>
      </trkpt>
      <trkpt lat="47.51685" lon="6.77526">
        <ele>390</ele>
        <time>2016-05-08T07:17:36.000Z</time>
      </trkpt>
      <trkpt lat="47.51681" lon="6.7752">
        <ele>390</ele>
        <time>2016-05-08T07:17:37.000Z</time>
      </trkpt>
      <trkpt lat="47.51677" lon="6.77517">
        <ele>389</ele>
        <time>2016-05-08T07:17:38.000Z</time>
      </trkpt>
      <trkpt lat="47.51672" lon="6.77511">
        <ele>389</ele>
        <time>2016-05-08T07:17:39.000Z</time>
      </trkpt>
      <trkpt lat="47.51668" lon="6.77506">
        <ele>389</ele>
        <time>2016-05-08T07:17:40.000Z</time>
      </trkpt>
      <trkpt lat="47.51664" lon="6.77502">
        <ele>389</ele>
        <time>2016-05-08T07:17:41.000Z</time>
      </trkpt>
      <trkpt lat="47.51659" lon="6.77496">
        <ele>388</ele>
        <time>2016-05-08T07:17:42.000Z</time>
      </trkpt>
      <trkpt lat="47.51654" lon="6.77489">
        <ele>387</ele>
        <time>2016-05-08T07:17:43.000Z</time>
      </trkpt>
      <trkpt lat="47.51649" lon="6.77484">
        <ele>387</ele>
        <time>2016-05-08T07:17:44.000Z</time>
      </trkpt>
      <trkpt lat="47.51644" lon="6.77478">
        <ele>387</ele>
        <time>2016-05-08T07:17:45.000Z</time>
      </trkpt>
      <trkpt lat="47.51638" lon="6.77472">
        <ele>386</ele>
        <time>2016-05-08T07:17:46.000Z</time>
      </trkpt>
      <trkpt lat="47.51634" lon="6.77465">
        <ele>386</ele>
        <time>2016-05-08T07:17:47.000Z</time>
      </trkpt>
      <trkpt lat="47.51628" lon="6.77458">
        <ele>386</ele>
        <time>2016-05-08T07:17:48.000Z</time>
      </trkpt>
      <trkpt lat="47.51622" lon="6.77451">
        <ele>386</ele>
        <time>2016-05-08T07:17:49.000Z</time>
      </trkpt>
      <trkpt lat="47.51615" lon="6.77444">
        <ele>385</ele>
        <time>2016-05-08T07:17:50.000Z</time>
      </trkpt>
      <trkpt lat="47.5161" lon="6.77437">
        <ele>385</ele>
        <time>2016-05-08T07:17:51.000Z</time>
      </trkpt>
      <trkpt lat="47.51604" lon="6.7743">
        <ele>385</ele>
        <time>2016-05-08T07:17:52.000Z</time>
      </trkpt>
      <trkpt lat="47.51597" lon="6.77422">
        <ele>384</ele>
        <time>2016-05-08T07:17:53.000Z</time>
      </trkpt>
      <trkpt lat="47.51591" lon="6.77415">
        <ele>383</ele>
        <time>2016-05-08T07:17:54.000Z</time>
      </trkpt>
      <trkpt lat="47.51585" lon="6.77409">
        <ele>383</ele>
        <time>2016-05-08T07:17:55.000Z</time>
      </trkpt>
      <trkpt lat="47.51578" lon="6.77401">
        <ele>382</ele>
        <time>2016-05-08T07:17:56.000Z</time>
      </trkpt>
      <trkpt lat="47.51572" lon="6.77393">
        <ele>381</ele>
        <time>2016-05-08T07:17:57.000Z</time>
      </trkpt>
      <trkpt lat="47.51565" lon="6.77387">
        <ele>381</ele>
        <time>2016-05-08T07:17:58.000Z</time>
      </trkpt>
      <trkpt lat="47.51559" lon="6.77378">
        <ele>381</ele>
        <time>2016-05-08T07:17:59.000Z</time>
      </trkpt>
      <trkpt lat="47.51552" lon="6.77371">
        <ele>381</ele>
        <time>2016-05-08T07:18:00.000Z</time>
      </trkpt>
      <trkpt lat="47.51545" lon="6.77363">
        <ele>380</ele>
        <time>2016-05-08T07:18:01.000Z</time>
      </trkpt>
      <trkpt lat="47.51538" lon="6.77356">
        <ele>380</ele>
        <time>2016-05-08T07:18:02.000Z</time>
      </trkpt>
      <trkpt lat="47.51531" lon="6.77349">
        <ele>380</ele>
        <time>2016-05-08T07:18:03.000Z</time>
      </trkpt>
      <trkpt lat="47.51524" lon="6.77341">
        <ele>380</ele>
        <time>2016-05-08T07:18:04.000Z</time>
      </trkpt>
      <trkpt lat="47.51516" lon="6.77333">
        <ele>378</ele>
        <time>2016-05-08T07:18:05.000Z</time>
      </trkpt>
      <trkpt lat="47.51509" lon="6.77325">
        <ele>378</ele>
        <time>2016-05-08T07:18:06.000Z</time>
      </trkpt>
      <trkpt lat="47.51501" lon="6.77318">
        <ele>378</ele>
        <time>2016-05-08T07:18:07.000Z</time>
      </trkpt>
      <trkpt lat="47.51494" lon="6.77306">
        <ele>377</ele>
        <time>2016-05-08T07:18:08.000Z</time>
      </trkpt>
      <trkpt lat="47.5149" lon="6.77294">
        <ele>377</ele>
        <time>2016-05-08T07:18:09.000Z</time>
      </trkpt>
      <trkpt lat="47.51486" lon="6.77282">
        <ele>377</ele>
        <time>2016-05-08T07:18:10.000Z</time>
      </trkpt>
      <trkpt lat="47.51485" lon="6.77269">
        <ele>376</ele>
        <time>2016-05-08T07:18:11.000Z</time>
      </trkpt>
      <trkpt lat="47.51486" lon="6.77254">
        <ele>376</ele>
        <time>2016-05-08T07:18:12.000Z</time>
      </trkpt>
      <trkpt lat="47.51486" lon="6.77242">
        <ele>376</ele>
        <time>2016-05-08T07:18:13.000Z</time>
      </trkpt>
      <trkpt lat="47.51484" lon="6.77231">
        <ele>375</ele>
        <time>2016-05-08T07:18:14.000Z</time>
      </trkpt>
      <trkpt lat="47.51482" lon="6.7722">
        <ele>375</ele>
        <time>2016-05-08T07:18:15.000Z</time>
      </trkpt>
      <trkpt lat="47.51477" lon="6.77211">
        <ele>375</ele>
        <time>2016-05-08T07:18:16.000Z</time>
      </trkpt>
      <trkpt lat="47.51471" lon="6.77206">
        <ele>375</ele>
        <time>2016-05-08T07:18:17.000Z</time>
      </trkpt>
      <trkpt lat="47.51465" lon="6.77201">
        <ele>375</ele>
        <time>2016-05-08T07:18:18.000Z</time>
      </trkpt>
      <trkpt lat="47.51457" lon="6.77208">
        <ele>375</ele>
        <time>2016-05-08T07:18:19.000Z</time>
      </trkpt>
      <trkpt lat="47.5145" lon="6.77211">
        <ele>375</ele>
        <time>2016-05-08T07:18:20.000Z</time>
      </trkpt>
      <trkpt lat="47.51443" lon="6.77213">
        <ele>375</ele>
        <time>2016-05-08T07:18:21.000Z</time>
      </trkpt>
      <trkpt lat="47.51436" lon="6.77217">
        <ele>375</ele>
        <time>2016-05-08T07:18:22.000Z</time>
      </trkpt>
      <trkpt lat="47.5143" lon="6.77221">
        <ele>375</ele>
        <time>2016-05-08T07:18:23.000Z</time>
      </trkpt>
      <trkpt lat="47.51424" lon="6.77224">
        <ele>375</ele>
        <time>2016-05-08T07:18:24.000Z</time>
      </trkpt>
      <trkpt lat="47.51418" lon="6.77227">
        <ele>375</ele>
        <time>2016-05-08T07:18:25.000Z</time>
      </trkpt>
      <trkpt lat="47.51413" lon="6.7723">
        <ele>376</ele>
        <time>2016-05-08T07:18:26.000Z</time>
      </trkpt>
      <trkpt lat="47.51407" lon="6.77232">
        <ele>376</ele>
        <time>2016-05-08T07:18:27.000Z</time>
      </trkpt>
      <trkpt lat="47.51403" lon="6.77235">
        <ele>376</ele>
        <time>2016-05-08T07:18:28.000Z</time>
      </trkpt>
      <trkpt lat="47.51398" lon="6.77238">
        <ele>376</ele>
        <time>2016-05-08T07:18:29.000Z</time>
      </trkpt>
      <trkpt lat="47.51394" lon="6.77241">
        <ele>376</ele>
        <time>2016-05-08T07:18:30.000Z</time>
      </trkpt>
      <trkpt lat="47.51389" lon="6.77243">
        <ele>376</ele>
        <time>2016-05-08T07:18:31.000Z</time>
      </trkpt>
      <trkpt lat="47.51384" lon="6.77246">
        <ele>376</ele>
        <time>2016-05-08T07:18:32.000Z</time>
      </trkpt>
      <trkpt lat="47.5138" lon="6.77249">
        <ele>376</ele>
        <time>2016-05-08T07:18:33.000Z</time>
      </trkpt>
      <trkpt lat="47.51376" lon="6.77251">
        <ele>377</ele>
        <time>2016-05-08T07:18:34.000Z</time>
      </trkpt>
      <trkpt lat="47.51373" lon="6.77254">
        <ele>377</ele>
        <time>2016-05-08T07:18:35.000Z</time>
      </trkpt>
      <trkpt lat="47.5137" lon="6.77256">
        <ele>378</ele>
        <time>2016-05-08T07:18:36.000Z</time>
      </trkpt>
      <trkpt lat="47.51366" lon="6.77259">
        <ele>378</ele>
        <time>2016-05-08T07:18:37.000Z</time>
      </trkpt>
      <trkpt lat="47.51364" lon="6.77261">
        <ele>378</ele>
        <time>2016-05-08T07:18:38.000Z</time>
      </trkpt>
      <trkpt lat="47.51361" lon="6.77263">
        <ele>378</ele>
        <time>2016-05-08T07:18:39.000Z</time>
      </trkpt>
      <trkpt lat="47.51359" lon="6.77265">
        <ele>378</ele>
        <time>2016-05-08T07:18:40.000Z</time>
      </trkpt>
      <trkpt lat="47.51356" lon="6.77267">
        <ele>378</ele>
        <time>2016-05-08T07:18:41.000Z</time>
      </trkpt>
      <trkpt lat="47.51352" lon="6.77269">
        <ele>378</ele>
        <time>2016-05-08T07:18:42.000Z</time>
      </trkpt>
      <trkpt lat="47.5135" lon="6.77271">
        <ele>378</ele>
        <time>2016-05-08T07:18:43.000Z</time>
      </trkpt>
      <trkpt lat="47.51347" lon="6.77273">
        <ele>378</ele>
        <time>2016-05-08T07:18:44.000Z</time>
      </trkpt>
      <trkpt lat="47.51344" lon="6.77275">
        <ele>378</ele>
        <time>2016-05-08T07:18:45.000Z</time>
      </trkpt>
      <trkpt lat="47.51341" lon="6.77277">
        <ele>378</ele>
        <time>2016-05-08T07:18:46.000Z</time>
      </trkpt>
      <trkpt lat="47.51338" lon="6.77278">
        <ele>378</ele>
        <time>2016-05-08T07:18:47.000Z</time>
      </trkpt>
      <trkpt lat="47.51335" lon="6.77279">
        <ele>378</ele>
        <time>2016-05-08T07:18:48.000Z</time>
      </trkpt>
      <trkpt lat="47.51331" lon="6.77279">
        <ele>377</ele>
        <time>2016-05-08T07:18:49.000Z</time>
      </trkpt>
      <trkpt lat="47.51328" lon="6.7728">
        <ele>377</ele>
        <time>2016-05-08T07:18:50.000Z</time>
      </trkpt>
      <trkpt lat="47.51324" lon="6.7728">
        <ele>377</ele>
        <time>2016-05-08T07:18:51.000Z</time>
      </trkpt>
      <trkpt lat="47.5132" lon="6.7728">
        <ele>377</ele>
        <time>2016-05-08T07:18:52.000Z</time>
      </trkpt>
      <trkpt lat="47.51316" lon="6.77279">
        <ele>377</ele>
        <time>2016-05-08T07:18:53.000Z</time>
      </trkpt>
      <trkpt lat="47.51313" lon="6.77277">
        <ele>377</ele>
        <time>2016-05-08T07:18:54.000Z</time>
      </trkpt>
      <trkpt lat="47.51309" lon="6.77275">
        <ele>377</ele>
        <time>2016-05-08T07:18:55.000Z</time>
      </trkpt>
      <trkpt lat="47.51305" lon="6.77273">
        <ele>377</ele>
        <time>2016-05-08T07:18:56.000Z</time>
      </trkpt>
      <trkpt lat="47.51301" lon="6.77271">
        <ele>377</ele>
        <time>2016-05-08T07:18:57.000Z</time>
      </trkpt>
      <trkpt lat="47.51297" lon="6.77269">
        <ele>377</ele>
        <time>2016-05-08T07:18:58.000Z</time>
      </trkpt>
      <trkpt lat="47.51293" lon="6.77268">
        <ele>377</ele>
        <time>2016-05-08T07:18:59.000Z</time>
      </trkpt>
      <trkpt lat="47.51289" lon="6.77267">
        <ele>377</ele>
        <time>2016-05-08T07:19:00.000Z</time>
      </trkpt>
      <trkpt lat="47.51285" lon="6.77265">
        <ele>377</ele>
        <time>2016-05-08T07:19:01.000Z</time>
      </trkpt>
      <trkpt lat="47.51281" lon="6.77262">
        <ele>377</ele>
        <time>2016-05-08T07:19:02.000Z</time>
      </trkpt>
      <trkpt lat="47.51277" lon="6.7726">
        <ele>377</ele>
        <time>2016-05-08T07:19:03.000Z</time>
      </trkpt>
      <trkpt lat="47.51273" lon="6.77258">
        <ele>377</ele>
        <time>2016-05-08T07:19:04.000Z</time>
      </trkpt>
      <trkpt lat="47.51269" lon="6.77256">
        <ele>378</ele>
        <time>2016-05-08T07:19:05.000Z</time>
      </trkpt>
      <trkpt lat="47.51265" lon="6.77253">
        <ele>378</ele>
        <time>2016-05-08T07:19:06.000Z</time>
      </trkpt>
      <trkpt lat="47.51261" lon="6.7725">
        <ele>378</ele>
        <time>2016-05-08T07:19:07.000Z</time>
      </trkpt>
      <trkpt lat="47.51257" lon="6.77246">
        <ele>379</ele>
        <time>2016-05-08T07:19:08.000Z</time>
      </trkpt>
      <trkpt lat="47.51253" lon="6.77239">
        <ele>379</ele>
        <time>2016-05-08T07:19:09.000Z</time>
      </trkpt>
      <trkpt lat="47.51249" lon="6.77234">
        <ele>377</ele>
        <time>2016-05-08T07:19:10.000Z</time>
      </trkpt>
      <trkpt lat="47.51246" lon="6.77229">
        <ele>377</ele>
        <time>2016-05-08T07:19:11.000Z</time>
      </trkpt>
      <trkpt lat="47.51242" lon="6.77224">
        <ele>376</ele>
        <time>2016-05-08T07:19:12.000Z</time>
      </trkpt>
      <trkpt lat="47.51239" lon="6.77218">
        <ele>376</ele>
        <time>2016-05-08T07:19:13.000Z</time>
      </trkpt>
      <trkpt lat="47.51236" lon="6.7721">
        <ele>376</ele>
        <time>2016-05-08T07:19:14.000Z</time>
      </trkpt>
      <trkpt lat="47.51233" lon="6.77205">
        <ele>376</ele>
        <time>2016-05-08T07:19:15.000Z</time>
      </trkpt>
      <trkpt lat="47.5123" lon="6.77198">
        <ele>376</ele>
        <time>2016-05-08T07:19:16.000Z</time>
      </trkpt>
      <trkpt lat="47.51226" lon="6.77191">
        <ele>376</ele>
        <time>2016-05-08T07:19:17.000Z</time>
      </trkpt>
      <trkpt lat="47.51223" lon="6.77185">
        <ele>376</ele>
        <time>2016-05-08T07:19:18.000Z</time>
      </trkpt>
      <trkpt lat="47.51219" lon="6.77178">
        <ele>376</ele>
        <time>2016-05-08T07:19:19.000Z</time>
      </trkpt>
      <trkpt lat="47.51215" lon="6.77171">
        <ele>376</ele>
        <time>2016-05-08T07:19:20.000Z</time>
      </trkpt>
      <trkpt lat="47.51212" lon="6.77165">
        <ele>378</ele>
        <time>2016-05-08T07:19:21.000Z</time>
      </trkpt>
      <trkpt lat="47.51208" lon="6.77159">
        <ele>378</ele>
        <time>2016-05-08T07:19:22.000Z</time>
      </trkpt>
      <trkpt lat="47.51204" lon="6.77152">
        <ele>378</ele>
        <time>2016-05-08T07:19:23.000Z</time>
      </trkpt>
      <trkpt lat="47.512" lon="6.77144">
        <ele>378</ele>
        <time>2016-05-08T07:19:24.000Z</time>
      </trkpt>
      <trkpt lat="47.51196" lon="6.77137">
        <ele>378</ele>
        <time>2016-05-08T07:19:25.000Z</time>
      </trkpt>
      <trkpt lat="47.51191" lon="6.77129">
        <ele>378</ele>
        <time>2016-05-08T07:19:26.000Z</time>
      </trkpt>
      <trkpt lat="47.51187" lon="6.77121">
        <ele>378</ele>
        <time>2016-05-08T07:19:27.000Z</time>
      </trkpt>
      <trkpt lat="47.51182" lon="6.77113">
        <ele>378</ele>
        <time>2016-05-08T07:19:28.000Z</time>
      </trkpt>
      <trkpt lat="47.51177" lon="6.77105">
        <ele>378</ele>
        <time>2016-05-08T07:19:29.000Z</time>
      </trkpt>
      <trkpt lat="47.51173" lon="6.77096">
        <ele>378</ele>
        <time>2016-05-08T07:19:30.000Z</time>
      </trkpt>
      <trkpt lat="47.51168" lon="6.77089">
        <ele>378</ele>
        <time>2016-05-08T07:19:31.000Z</time>
      </trkpt>
      <trkpt lat="47.51163" lon="6.77081">
        <ele>378</ele>
        <time>2016-05-08T07:19:32.000Z</time>
      </trkpt>
      <trkpt lat="47.51158" lon="6.77074">
        <ele>377</ele>
        <time>2016-05-08T07:19:33.000Z</time>
      </trkpt>
      <trkpt lat="47.51153" lon="6.77067">
        <ele>376</ele>
        <time>2016-05-08T07:19:34.000Z</time>
      </trkpt>
      <trkpt lat="47.51147" lon="6.7706">
        <ele>376</ele>
        <time>2016-05-08T07:19:35.000Z</time>
      </trkpt>
      <trkpt lat="47.51141" lon="6.77055">
        <ele>376</ele>
        <time>2016-05-08T07:19:36.000Z</time>
      </trkpt>
      <trkpt lat="47.51135" lon="6.77049">
        <ele>375</ele>
        <time>2016-05-08T07:19:37.000Z</time>
      </trkpt>
      <trkpt lat="47.51128" lon="6.77043">
        <ele>375</ele>
        <time>2016-05-08T07:19:38.000Z</time>
      </trkpt>
      <trkpt lat="47.51122" lon="6.77037">
        <ele>375</ele>
        <time>2016-05-08T07:19:39.000Z</time>
      </trkpt>
      <trkpt lat="47.51116" lon="6.77032">
        <ele>375</ele>
        <time>2016-05-08T07:19:40.000Z</time>
      </trkpt>
      <trkpt lat="47.5111" lon="6.77023">
        <ele>375</ele>
        <time>2016-05-08T07:19:41.000Z</time>
      </trkpt>
      <trkpt lat="47.51104" lon="6.77018">
        <ele>375</ele>
        <time>2016-05-08T07:19:42.000Z</time>
      </trkpt>
      <trkpt lat="47.51098" lon="6.77014">
        <ele>375</ele>
        <time>2016-05-08T07:19:43.000Z</time>
      </trkpt>
      <trkpt lat="47.51092" lon="6.7701">
        <ele>375</ele>
        <time>2016-05-08T07:19:44.000Z</time>
      </trkpt>
      <trkpt lat="47.51086" lon="6.77006">
        <ele>375</ele>
        <time>2016-05-08T07:19:45.000Z</time>
      </trkpt>
      <trkpt lat="47.5108" lon="6.77002">
        <ele>374</ele>
        <time>2016-05-08T07:19:46.000Z</time>
      </trkpt>
      <trkpt lat="47.51074" lon="6.76997">
        <ele>375</ele>
        <time>2016-05-08T07:19:47.000Z</time>
      </trkpt>
      <trkpt lat="47.51068" lon="6.76992">
        <ele>375</ele>
        <time>2016-05-08T07:19:48.000Z</time>
      </trkpt>
      <trkpt lat="47.51063" lon="6.76986">
        <ele>375</ele>
        <time>2016-05-08T07:19:49.000Z</time>
      </trkpt>
      <trkpt lat="47.51057" lon="6.76983">
        <ele>375</ele>
        <time>2016-05-08T07:19:50.000Z</time>
      </trkpt>
      <trkpt lat="47.51051" lon="6.76977">
        <ele>375</ele>
        <time>2016-05-08T07:19:51.000Z</time>
      </trkpt>
      <trkpt lat="47.51045" lon="6.76973">
        <ele>375</ele>
        <time>2016-05-08T07:19:52.000Z</time>
      </trkpt>
      <trkpt lat="47.5104" lon="6.76969">
        <ele>375</ele>
        <time>2016-05-08T07:19:53.000Z</time>
      </trkpt>
      <trkpt lat="47.51035" lon="6.76964">
        <ele>375</ele>
        <time>2016-05-08T07:19:54.000Z</time>
      </trkpt>
      <trkpt lat="47.5103" lon="6.76958">
        <ele>375</ele>
        <time>2016-05-08T07:19:55.000Z</time>
      </trkpt>
      <trkpt lat="47.51026" lon="6.76953">
        <ele>375</ele>
        <time>2016-05-08T07:19:56.000Z</time>
      </trkpt>
      <trkpt lat="47.51022" lon="6.76947">
        <ele>375</ele>
        <time>2016-05-08T07:19:57.000Z</time>
      </trkpt>
      <trkpt lat="47.51017" lon="6.76943">
        <ele>375</ele>
        <time>2016-05-08T07:19:58.000Z</time>
      </trkpt>
      <trkpt lat="47.51012" lon="6.7694">
        <ele>375</ele>
        <time>2016-05-08T07:19:59.000Z</time>
      </trkpt>
      <trkpt lat="47.51007" lon="6.76937">
        <ele>375</ele>
        <time>2016-05-08T07:20:00.000Z</time>
      </trkpt>
      <trkpt lat="47.51002" lon="6.76934">
        <ele>375</ele>
        <time>2016-05-08T07:20:01.000Z</time>
      </trkpt>
      <trkpt lat="47.50998" lon="6.7693">
        <ele>375</ele>
        <time>2016-05-08T07:20:02.000Z</time>
      </trkpt>
      <trkpt lat="47.50994" lon="6.76925">
        <ele>375</ele>
        <time>2016-05-08T07:20:03.000Z</time>
      </trkpt>
      <trkpt lat="47.50993" lon="6.76916">
        <ele>376</ele>
        <time>2016-05-08T07:20:04.000Z</time>
      </trkpt>
      <trkpt lat="47.5099" lon="6.7691">
        <ele>377</ele>
        <time>2016-05-08T07:20:05.000Z</time>
      </trkpt>
      <trkpt lat="47.50986" lon="6.76905">
        <ele>377</ele>
        <time>2016-05-08T07:20:06.000Z</time>
      </trkpt>
      <trkpt lat="47.50981" lon="6.76903">
        <ele>377</ele>
        <time>2016-05-08T07:20:07.000Z</time>
      </trkpt>
      <trkpt lat="47.50976" lon="6.76901">
        <ele>377</ele>
        <time>2016-05-08T07:20:08.000Z</time>
      </trkpt>
      <trkpt lat="47.50971" lon="6.769">
        <ele>377</ele>
        <time>2016-05-08T07:20:09.000Z</time>
      </trkpt>
      <trkpt lat="47.50967" lon="6.76899">
        <ele>377</ele>
        <time>2016-05-08T07:20:10.000Z</time>
      </trkpt>
      <trkpt lat="47.50963" lon="6.76898">
        <ele>377</ele>
        <time>2016-05-08T07:20:11.000Z</time>
      </trkpt>
      <trkpt lat="47.50959" lon="6.76895">
        <ele>377</ele>
        <time>2016-05-08T07:20:12.000Z</time>
      </trkpt>
      <trkpt lat="47.50956" lon="6.76892">
        <ele>377</ele>
        <time>2016-05-08T07:20:13.000Z</time>
      </trkpt>
      <trkpt lat="47.50952" lon="6.7689">
        <ele>378</ele>
        <time>2016-05-08T07:20:14.000Z</time>
      </trkpt>
      <trkpt lat="47.50948" lon="6.76887">
        <ele>378</ele>
        <time>2016-05-08T07:20:15.000Z</time>
      </trkpt>
      <trkpt lat="47.50945" lon="6.76883">
        <ele>378</ele>
        <time>2016-05-08T07:20:16.000Z</time>
      </trkpt>
      <trkpt lat="47.50941" lon="6.76879">
        <ele>378</ele>
        <time>2016-05-08T07:20:17.000Z</time>
      </trkpt>
      <trkpt lat="47.50938" lon="6.76876">
        <ele>378</ele>
        <time>2016-05-08T07:20:18.000Z</time>
      </trkpt>
      <trkpt lat="47.50935" lon="6.76872">
        <ele>378</ele>
        <time>2016-05-08T07:20:19.000Z</time>
      </trkpt>
      <trkpt lat="47.50932" lon="6.76868">
        <ele>378</ele>
        <time>2016-05-08T07:20:20.000Z</time>
      </trkpt>
      <trkpt lat="47.50929" lon="6.76864">
        <ele>378</ele>
        <time>2016-05-08T07:20:21.000Z</time>
      </trkpt>
      <trkpt lat="47.50926" lon="6.7686">
        <ele>378</ele>
        <time>2016-05-08T07:20:22.000Z</time>
      </trkpt>
      <trkpt lat="47.50923" lon="6.76856">
        <ele>378</ele>
        <time>2016-05-08T07:20:23.000Z</time>
      </trkpt>
      <trkpt lat="47.50921" lon="6.76852">
        <ele>379</ele>
        <time>2016-05-08T07:20:24.000Z</time>
      </trkpt>
      <trkpt lat="47.50918" lon="6.76847">
        <ele>379</ele>
        <time>2016-05-08T07:20:25.000Z</time>
      </trkpt>
      <trkpt lat="47.50916" lon="6.76843">
        <ele>380</ele>
        <time>2016-05-08T07:20:26.000Z</time>
      </trkpt>
      <trkpt lat="47.50914" lon="6.76838">
        <ele>380</ele>
        <time>2016-05-08T07:20:27.000Z</time>
      </trkpt>
      <trkpt lat="47.50911" lon="6.76833">
        <ele>380</ele>
        <time>2016-05-08T07:20:28.000Z</time>
      </trkpt>
      <trkpt lat="47.50909" lon="6.76827">
        <ele>381</ele>
        <time>2016-05-08T07:20:29.000Z</time>
      </trkpt>
      <trkpt lat="47.50907" lon="6.76822">
        <ele>381</ele>
        <time>2016-05-08T07:20:30.000Z</time>
      </trkpt>
      <trkpt lat="47.50904" lon="6.76816">
        <ele>381</ele>
        <time>2016-05-08T07:20:31.000Z</time>
      </trkpt>
      <trkpt lat="47.50902" lon="6.7681">
        <ele>381</ele>
        <time>2016-05-08T07:20:32.000Z</time>
      </trkpt>
      <trkpt lat="47.509" lon="6.76804">
        <ele>381</ele>
        <time>2016-05-08T07:20:33.000Z</time>
      </trkpt>
      <trkpt lat="47.50898" lon="6.76799">
        <ele>381</ele>
        <time>2016-05-08T07:20:34.000Z</time>
      </trkpt>
      <trkpt lat="47.50896" lon="6.76794">
        <ele>381</ele>
        <time>2016-05-08T07:20:35.000Z</time>
      </trkpt>
      <trkpt lat="47.50894" lon="6.76788">
        <ele>381</ele>
        <time>2016-05-08T07:20:36.000Z</time>
      </trkpt>
      <trkpt lat="47.50892" lon="6.76783">
        <ele>381</ele>
        <time>2016-05-08T07:20:37.000Z</time>
      </trkpt>
      <trkpt lat="47.5089" lon="6.76779">
        <ele>381</ele>
        <time>2016-05-08T07:20:38.000Z</time>
      </trkpt>
      <trkpt lat="47.50888" lon="6.76774">
        <ele>381</ele>
        <time>2016-05-08T07:20:39.000Z</time>
      </trkpt>
      <trkpt lat="47.50886" lon="6.7677">
        <ele>381</ele>
        <time>2016-05-08T07:20:40.000Z</time>
      </trkpt>
      <trkpt lat="47.50885" lon="6.76765">
        <ele>381</ele>
        <time>2016-05-08T07:20:41.000Z</time>
      </trkpt>
      <trkpt lat="47.50883" lon="6.7676">
        <ele>381</ele>
        <time>2016-05-08T07:20:42.000Z</time>
      </trkpt>
      <trkpt lat="47.50881" lon="6.76756">
        <ele>381</ele>
        <time>2016-05-08T07:20:43.000Z</time>
      </trkpt>
      <trkpt lat="47.5088" lon="6.76751">
        <ele>382</ele>
        <time>2016-05-08T07:20:44.000Z</time>
      </trkpt>
      <trkpt lat="47.50879" lon="6.76747">
        <ele>383</ele>
        <time>2016-05-08T07:20:45.000Z</time>
      </trkpt>
      <trkpt lat="47.50877" lon="6.76742">
        <ele>383</ele>
        <time>2016-05-08T07:20:46.000Z</time>
      </trkpt>
      <trkpt lat="47.50876" lon="6.76738">
        <ele>383</ele>
        <time>2016-05-08T07:20:47.000Z</time>
      </trkpt>
      <trkpt lat="47.50874" lon="6.76733">
        <ele>383</ele>
        <time>2016-05-08T07:20:48.000Z</time>
      </trkpt>
      <trkpt lat="47.50873" lon="6.76729">
        <ele>383</ele>
        <time>2016-05-08T07:20:49.000Z</time>
      </trkpt>
      <trkpt lat="47.50871" lon="6.76724">
        <ele>383</ele>
        <time>2016-05-08T07:20:50.000Z</time>
      </trkpt>
      <trkpt lat="47.5087" lon="6.76719">
        <ele>383</ele>
        <time>2016-05-08T07:20:51.000Z</time>
      </trkpt>
      <trkpt lat="47.50868" lon="6.76715">
        <ele>383</ele>
        <time>2016-05-08T07:20:52.000Z</time>
      </trkpt>
      <trkpt lat="47.50867" lon="6.7671">
        <ele>384</ele>
        <time>2016-05-08T07:20:53.000Z</time>
      </trkpt>
      <trkpt lat="47.50865" lon="6.76705">
        <ele>384</ele>
        <time>2016-05-08T07:20:54.000Z</time>
      </trkpt>
      <trkpt lat="47.50863" lon="6.76701">
        <ele>384</ele>
        <time>2016-05-08T07:20:55.000Z</time>
      </trkpt>
      <trkpt lat="47.50861" lon="6.76696">
        <ele>384</ele>
        <time>2016-05-08T07:20:56.000Z</time>
      </trkpt>
      <trkpt lat="47.50859" lon="6.76692">
        <ele>384</ele>
        <time>2016-05-08T07:20:57.000Z</time>
      </trkpt>
      <trkpt lat="47.50857" lon="6.76688">
        <ele>385</ele>
        <time>2016-05-08T07:20:58.000Z</time>
      </trkpt>
      <trkpt lat="47.50855" lon="6.76684">
        <ele>385</ele>
        <time>2016-05-08T07:20:59.000Z</time>
      </trkpt>
      <trkpt lat="47.50854" lon="6.76679">
        <ele>385</ele>
        <time>2016-05-08T07:21:00.000Z</time>
      </trkpt>
      <trkpt lat="47.50852" lon="6.76675">
        <ele>386</ele>
        <time>2016-05-08T07:21:01.000Z</time>
      </trkpt>
      <trkpt lat="47.50851" lon="6.76671">
        <ele>386</ele>
        <time>2016-05-08T07:21:02.000Z</time>
      </trkpt>
      <trkpt lat="47.50849" lon="6.76667">
        <ele>386</ele>
        <time>2016-05-08T07:21:03.000Z</time>
      </trkpt>
      <trkpt lat="47.50847" lon="6.76663">
        <ele>388</ele>
        <time>2016-05-08T07:21:04.000Z</time>
      </trkpt>
      <trkpt lat="47.50846" lon="6.76659">
        <ele>388</ele>
        <time>2016-05-08T07:21:05.000Z</time>
      </trkpt>
      <trkpt lat="47.50844" lon="6.76655">
        <ele>387</ele>
        <time>2016-05-08T07:21:06.000Z</time>
      </trkpt>
      <trkpt lat="47.50842" lon="6.76651">
        <ele>387</ele>
        <time>2016-05-08T07:21:07.000Z</time>
      </trkpt>
      <trkpt lat="47.50841" lon="6.76648">
        <ele>387</ele>
        <time>2016-05-08T07:21:08.000Z</time>
      </trkpt>
      <trkpt lat="47.50839" lon="6.76644">
        <ele>387</ele>
        <time>2016-05-08T07:21:09.000Z</time>
      </trkpt>
      <trkpt lat="47.50837" lon="6.76641">
        <ele>387</ele>
        <time>2016-05-08T07:21:10.000Z</time>
      </trkpt>
      <trkpt lat="47.50835" lon="6.76637">
        <ele>387</ele>
        <time>2016-05-08T07:21:11.000Z</time>
      </trkpt>
      <trkpt lat="47.50833" lon="6.76632">
        <ele>390</ele>
        <time>2016-05-08T07:21:12.000Z</time>
      </trkpt>
      <trkpt lat="47.50831" lon="6.76628">
        <ele>390</ele>
        <time>2016-05-08T07:21:13.000Z</time>
      </trkpt>
      <trkpt lat="47.5083" lon="6.76624">
        <ele>390</ele>
        <time>2016-05-08T07:21:14.000Z</time>
      </trkpt>
      <trkpt lat="47.50828" lon="6.76621">
        <ele>390</ele>
        <time>2016-05-08T07:21:15.000Z</time>
      </trkpt>
      <trkpt lat="47.50826" lon="6.76617">
        <ele>390</ele>
        <time>2016-05-08T07:21:16.000Z</time>
      </trkpt>
      <trkpt lat="47.50825" lon="6.76613">
        <ele>390</ele>
        <time>2016-05-08T07:21:17.000Z</time>
      </trkpt>
      <trkpt lat="47.50823" lon="6.76609">
        <ele>390</ele>
        <time>2016-05-08T07:21:18.000Z</time>
      </trkpt>
      <trkpt lat="47.50822" lon="6.76605">
        <ele>390</ele>
        <time>2016-05-08T07:21:19.000Z</time>
      </trkpt>
      <trkpt lat="47.50821" lon="6.76602">
        <ele>390</ele>
        <time>2016-05-08T07:21:20.000Z</time>
      </trkpt>
      <trkpt lat="47.5082" lon="6.76598">
        <ele>390</ele>
        <time>2016-05-08T07:21:21.000Z</time>
      </trkpt>
      <trkpt lat="47.50818" lon="6.76594">
        <ele>390</ele>
        <time>2016-05-08T07:21:22.000Z</time>
      </trkpt>
      <trkpt lat="47.50817" lon="6.7659">
        <ele>390</ele>
        <time>2016-05-08T07:21:23.000Z</time>
      </trkpt>
      <trkpt lat="47.50813" lon="6.76586">
        <ele>390</ele>
        <time>2016-05-08T07:21:25.000Z</time>
      </trkpt>
      <trkpt lat="47.50811" lon="6.76587">
        <ele>390</ele>
        <time>2016-05-08T07:21:26.000Z</time>
      </trkpt>
      <trkpt lat="47.50809" lon="6.76589">
        <ele>390</ele>
        <time>2016-05-08T07:21:27.000Z</time>
      </trkpt>
      <trkpt lat="47.50806" lon="6.76591">
        <ele>390</ele>
        <time>2016-05-08T07:21:28.000Z</time>
      </trkpt>
      <trkpt lat="47.50803" lon="6.76587">
        <ele>391</ele>
        <time>2016-05-08T07:21:30.000Z</time>
      </trkpt>
      <trkpt lat="47.50802" lon="6.76584">
        <ele>391</ele>
        <time>2016-05-08T07:21:31.000Z</time>
      </trkpt>
      <trkpt lat="47.508" lon="6.76581">
        <ele>391</ele>
        <time>2016-05-08T07:21:32.000Z</time>
      </trkpt>
      <trkpt lat="47.50798" lon="6.76579">
        <ele>392</ele>
        <time>2016-05-08T07:21:33.000Z</time>
      </trkpt>
      <trkpt lat="47.50795" lon="6.76579">
        <ele>392</ele>
        <time>2016-05-08T07:21:34.000Z</time>
      </trkpt>
      <trkpt lat="47.50792" lon="6.7658">
        <ele>392</ele>
        <time>2016-05-08T07:21:35.000Z</time>
      </trkpt>
      <trkpt lat="47.50789" lon="6.76583">
        <ele>392</ele>
        <time>2016-05-08T07:21:47.000Z</time>
      </trkpt>
      <trkpt lat="47.50788" lon="6.76584">
        <ele>391</ele>
        <time>2016-05-08T07:21:48.000Z</time>
      </trkpt>
      <trkpt lat="47.50784" lon="6.76587">
        <ele>391</ele>
        <time>2016-05-08T07:21:55.000Z</time>
      </trkpt>
      <trkpt lat="47.50782" lon="6.76587">
        <ele>391</ele>
        <time>2016-05-08T07:21:56.000Z</time>
      </trkpt>
      <trkpt lat="47.50779" lon="6.76587">
        <ele>392</ele>
        <time>2016-05-08T07:21:58.000Z</time>
      </trkpt>
      <trkpt lat="47.50777" lon="6.76587">
        <ele>392</ele>
        <time>2016-05-08T07:21:59.000Z</time>
      </trkpt>
      <trkpt lat="47.50773" lon="6.76587">
        <ele>392</ele>
        <time>2016-05-08T07:22:02.000Z</time>
      </trkpt>
      <trkpt lat="47.50771" lon="6.76588">
        <ele>392</ele>
        <time>2016-05-08T07:22:03.000Z</time>
      </trkpt>
      <trkpt lat="47.50769" lon="6.76588">
        <ele>392</ele>
        <time>2016-05-08T07:22:04.000Z</time>
      </trkpt>
      <trkpt lat="47.50766" lon="6.76589">
        <ele>392</ele>
        <time>2016-05-08T07:22:05.000Z</time>
      </trkpt>
      <trkpt lat="47.50763" lon="6.76589">
        <ele>393</ele>
        <time>2016-05-08T07:22:06.000Z</time>
      </trkpt>
      <trkpt lat="47.50759" lon="6.76589">
        <ele>393</ele>
        <time>2016-05-08T07:22:07.000Z</time>
      </trkpt>
      <trkpt lat="47.50756" lon="6.76589">
        <ele>393</ele>
        <time>2016-05-08T07:22:08.000Z</time>
      </trkpt>
      <trkpt lat="47.50752" lon="6.76589">
        <ele>393</ele>
        <time>2016-05-08T07:22:09.000Z</time>
      </trkpt>
      <trkpt lat="47.50749" lon="6.76589">
        <ele>394</ele>
        <time>2016-05-08T07:22:10.000Z</time>
      </trkpt>
      <trkpt lat="47.50746" lon="6.76589">
        <ele>394</ele>
        <time>2016-05-08T07:22:11.000Z</time>
      </trkpt>
      <trkpt lat="47.50742" lon="6.76589">
        <ele>394</ele>
        <time>2016-05-08T07:22:12.000Z</time>
      </trkpt>
      <trkpt lat="47.50739" lon="6.76589">
        <ele>394</ele>
        <time>2016-05-08T07:22:13.000Z</time>
      </trkpt>
      <trkpt lat="47.50735" lon="6.76588">
        <ele>394</ele>
        <time>2016-05-08T07:22:14.000Z</time>
      </trkpt>
      <trkpt lat="47.50732" lon="6.76588">
        <ele>394</ele>
        <time>2016-05-08T07:22:15.000Z</time>
      </trkpt>
      <trkpt lat="47.50728" lon="6.76587">
        <ele>394</ele>
        <time>2016-05-08T07:22:16.000Z</time>
      </trkpt>
      <trkpt lat="47.50724" lon="6.76587">
        <ele>394</ele>
        <time>2016-05-08T07:22:17.000Z</time>
      </trkpt>
      <trkpt lat="47.50721" lon="6.76587">
        <ele>394</ele>
        <time>2016-05-08T07:22:18.000Z</time>
      </trkpt>
      <trkpt lat="47.50717" lon="6.76587">
        <ele>394</ele>
        <time>2016-05-08T07:22:19.000Z</time>
      </trkpt>
      <trkpt lat="47.50714" lon="6.76586">
        <ele>395</ele>
        <time>2016-05-08T07:22:20.000Z</time>
      </trkpt>
      <trkpt lat="47.5071" lon="6.76586">
        <ele>395</ele>
        <time>2016-05-08T07:22:21.000Z</time>
      </trkpt>
      <trkpt lat="47.50706" lon="6.76586">
        <ele>395</ele>
        <time>2016-05-08T07:22:22.000Z</time>
      </trkpt>
      <trkpt lat="47.50703" lon="6.76586">
        <ele>395</ele>
        <time>2016-05-08T07:22:23.000Z</time>
      </trkpt>
      <trkpt lat="47.50699" lon="6.76586">
        <ele>395</ele>
        <time>2016-05-08T07:22:24.000Z</time>
      </trkpt>
      <trkpt lat="47.50696" lon="6.76587">
        <ele>395</ele>
        <time>2016-05-08T07:22:25.000Z</time>
      </trkpt>
      <trkpt lat="47.50692" lon="6.76588">
        <ele>395</ele>
        <time>2016-05-08T07:22:26.000Z</time>
      </trkpt>
      <trkpt lat="47.50689" lon="6.76589">
        <ele>395</ele>
        <time>2016-05-08T07:22:27.000Z</time>
      </trkpt>
      <trkpt lat="47.50685" lon="6.76589">
        <ele>396</ele>
        <time>2016-05-08T07:22:28.000Z</time>
      </trkpt>
      <trkpt lat="47.50682" lon="6.7659">
        <ele>396</ele>
        <time>2016-05-08T07:22:29.000Z</time>
      </trkpt>
      <trkpt lat="47.50679" lon="6.7659">
        <ele>396</ele>
        <time>2016-05-08T07:22:30.000Z</time>
      </trkpt>
      <trkpt lat="47.50676" lon="6.7659">
        <ele>396</ele>
        <time>2016-05-08T07:22:31.000Z</time>
      </trkpt>
      <trkpt lat="47.50673" lon="6.7659">
        <ele>396</ele>
        <time>2016-05-08T07:22:32.000Z</time>
      </trkpt>
      <trkpt lat="47.5067" lon="6.76591">
        <ele>396</ele>
        <time>2016-05-08T07:22:33.000Z</time>
      </trkpt>
      <trkpt lat="47.50667" lon="6.76592">
        <ele>397</ele>
        <time>2016-05-08T07:22:34.000Z</time>
      </trkpt>
      <trkpt lat="47.50664" lon="6.76593">
        <ele>397</ele>
        <time>2016-05-08T07:22:35.000Z</time>
      </trkpt>
      <trkpt lat="47.50661" lon="6.76595">
        <ele>397</ele>
        <time>2016-05-08T07:22:36.000Z</time>
      </trkpt>
      <trkpt lat="47.50658" lon="6.76596">
        <ele>397</ele>
        <time>2016-05-08T07:22:37.000Z</time>
      </trkpt>
      <trkpt lat="47.50655" lon="6.76597">
        <ele>397</ele>
        <time>2016-05-08T07:22:38.000Z</time>
      </trkpt>
      <trkpt lat="47.50651" lon="6.76598">
        <ele>397</ele>
        <time>2016-05-08T07:22:39.000Z</time>
      </trkpt>
      <trkpt lat="47.50648" lon="6.766">
        <ele>397</ele>
        <time>2016-05-08T07:22:40.000Z</time>
      </trkpt>
      <trkpt lat="47.50645" lon="6.76602">
        <ele>397</ele>
        <time>2016-05-08T07:22:41.000Z</time>
      </trkpt>
      <trkpt lat="47.50642" lon="6.76603">
        <ele>397</ele>
        <time>2016-05-08T07:22:42.000Z</time>
      </trkpt>
      <trkpt lat="47.50639" lon="6.76605">
        <ele>397</ele>
        <time>2016-05-08T07:22:43.000Z</time>
      </trkpt>
      <trkpt lat="47.50636" lon="6.76607">
        <ele>397</ele>
        <time>2016-05-08T07:22:44.000Z</time>
      </trkpt>
      <trkpt lat="47.50633" lon="6.76609">
        <ele>397</ele>
        <time>2016-05-08T07:22:45.000Z</time>
      </trkpt>
      <trkpt lat="47.5063" lon="6.76612">
        <ele>397</ele>
        <time>2016-05-08T07:22:46.000Z</time>
      </trkpt>
      <trkpt lat="47.50627" lon="6.76614">
        <ele>397</ele>
        <time>2016-05-08T07:22:46.998Z</time>
      </trkpt>
      <trkpt lat="47.50624" lon="6.76615">
        <ele>397</ele>
        <time>2016-05-08T07:22:48.000Z</time>
      </trkpt>
      <trkpt lat="47.50621" lon="6.76616">
        <ele>397</ele>
        <time>2016-05-08T07:22:49.000Z</time>
      </trkpt>
      <trkpt lat="47.50618" lon="6.76617">
        <ele>397</ele>
        <time>2016-05-08T07:22:50.000Z</time>
      </trkpt>
      <trkpt lat="47.50615" lon="6.76618">
        <ele>397</ele>
        <time>2016-05-08T07:22:51.000Z</time>
      </trkpt>
      <trkpt lat="47.50612" lon="6.76619">
        <ele>397</ele>
        <time>2016-05-08T07:22:52.000Z</time>
      </trkpt>
      <trkpt lat="47.50609" lon="6.7662">
        <ele>398</ele>
        <time>2016-05-08T07:22:53.000Z</time>
      </trkpt>
      <trkpt lat="47.50606" lon="6.76622">
        <ele>398</ele>
        <time>2016-05-08T07:22:54.000Z</time>
      </trkpt>
      <trkpt lat="47.50603" lon="6.76623">
        <ele>398</ele>
        <time>2016-05-08T07:22:55.000Z</time>
      </trkpt>
      <trkpt lat="47.506" lon="6.76625">
        <ele>398</ele>
        <time>2016-05-08T07:22:56.000Z</time>
      </trkpt>
      <trkpt lat="47.50597" lon="6.76626">
        <ele>398</ele>
        <time>2016-05-08T07:22:57.000Z</time>
      </trkpt>
      <trkpt lat="47.50594" lon="6.76627">
        <ele>398</ele>
        <time>2016-05-08T07:22:58.000Z</time>
      </trkpt>
      <trkpt lat="47.50591" lon="6.76628">
        <ele>398</ele>
        <time>2016-05-08T07:22:59.000Z</time>
      </trkpt>
      <trkpt lat="47.50588" lon="6.76628">
        <ele>398</ele>
        <time>2016-05-08T07:23:00.000Z</time>
      </trkpt>
      <trkpt lat="47.50585" lon="6.76628">
        <ele>398</ele>
        <time>2016-05-08T07:23:01.000Z</time>
      </trkpt>
      <trkpt lat="47.50582" lon="6.76629">
        <ele>399</ele>
        <time>2016-05-08T07:23:02.000Z</time>
      </trkpt>
      <trkpt lat="47.50579" lon="6.76629">
        <ele>399</ele>
        <time>2016-05-08T07:23:03.000Z</time>
      </trkpt>
      <trkpt lat="47.50575" lon="6.7663">
        <ele>399</ele>
        <time>2016-05-08T07:23:04.000Z</time>
      </trkpt>
      <trkpt lat="47.50572" lon="6.7663">
        <ele>399</ele>
        <time>2016-05-08T07:23:05.000Z</time>
      </trkpt>
      <trkpt lat="47.50569" lon="6.76631">
        <ele>399</ele>
        <time>2016-05-08T07:23:06.000Z</time>
      </trkpt>
      <trkpt lat="47.50566" lon="6.76632">
        <ele>399</ele>
        <time>2016-05-08T07:23:07.000Z</time>
      </trkpt>
      <trkpt lat="47.50563" lon="6.76633">
        <ele>399</ele>
        <time>2016-05-08T07:23:08.000Z</time>
      </trkpt>
      <trkpt lat="47.5056" lon="6.76633">
        <ele>399</ele>
        <time>2016-05-08T07:23:09.000Z</time>
      </trkpt>
      <trkpt lat="47.50557" lon="6.76635">
        <ele>399</ele>
        <time>2016-05-08T07:23:10.000Z</time>
      </trkpt>
      <trkpt lat="47.50554" lon="6.76636">
        <ele>399</ele>
        <time>2016-05-08T07:23:10.999Z</time>
      </trkpt>
      <trkpt lat="47.5055" lon="6.76637">
        <ele>399</ele>
        <time>2016-05-08T07:23:12.000Z</time>
      </trkpt>
      <trkpt lat="47.50545" lon="6.76639">
        <ele>399</ele>
        <time>2016-05-08T07:23:13.000Z</time>
      </trkpt>
      <trkpt lat="47.50541" lon="6.7664">
        <ele>399</ele>
        <time>2016-05-08T07:23:14.000Z</time>
      </trkpt>
      <trkpt lat="47.50537" lon="6.76641">
        <ele>399</ele>
        <time>2016-05-08T07:23:15.000Z</time>
      </trkpt>
      <trkpt lat="47.5053" lon="6.76644">
        <ele>399</ele>
        <time>2016-05-08T07:23:16.000Z</time>
      </trkpt>
      <trkpt lat="47.50525" lon="6.76646">
        <ele>399</ele>
        <time>2016-05-08T07:23:17.000Z</time>
      </trkpt>
      <trkpt lat="47.50521" lon="6.76648">
        <ele>399</ele>
        <time>2016-05-08T07:23:18.001Z</time>
      </trkpt>
      <trkpt lat="47.50515" lon="6.76649">
        <ele>399</ele>
        <time>2016-05-08T07:23:19.000Z</time>
      </trkpt>
      <trkpt lat="47.5051" lon="6.76649">
        <ele>399</ele>
        <time>2016-05-08T07:23:20.000Z</time>
      </trkpt>
      <trkpt lat="47.50505" lon="6.76651">
        <ele>399</ele>
        <time>2016-05-08T07:23:21.000Z</time>
      </trkpt>
      <trkpt lat="47.505" lon="6.76652">
        <ele>399</ele>
        <time>2016-05-08T07:23:22.000Z</time>
      </trkpt>
      <trkpt lat="47.50495" lon="6.76654">
        <ele>399</ele>
        <time>2016-05-08T07:23:23.000Z</time>
      </trkpt>
      <trkpt lat="47.5049" lon="6.76656">
        <ele>399</ele>
        <time>2016-05-08T07:23:24.000Z</time>
      </trkpt>
      <trkpt lat="47.50485" lon="6.7666">
        <ele>399</ele>
        <time>2016-05-08T07:23:25.000Z</time>
      </trkpt>
      <trkpt lat="47.50479" lon="6.76661">
        <ele>399</ele>
        <time>2016-05-08T07:23:26.000Z</time>
      </trkpt>
      <trkpt lat="47.50473" lon="6.76662">
        <ele>398</ele>
        <time>2016-05-08T07:23:27.000Z</time>
      </trkpt>
      <trkpt lat="47.50467" lon="6.76664">
        <ele>398</ele>
        <time>2016-05-08T07:23:27.999Z</time>
      </trkpt>
      <trkpt lat="47.50461" lon="6.76667">
        <ele>397</ele>
        <time>2016-05-08T07:23:29.000Z</time>
      </trkpt>
      <trkpt lat="47.50456" lon="6.76669">
        <ele>397</ele>
        <time>2016-05-08T07:23:30.000Z</time>
      </trkpt>
      <trkpt lat="47.5045" lon="6.7667">
        <ele>397</ele>
        <time>2016-05-08T07:23:31.000Z</time>
      </trkpt>
      <trkpt lat="47.50444" lon="6.76672">
        <ele>397</ele>
        <time>2016-05-08T07:23:32.000Z</time>
      </trkpt>
      <trkpt lat="47.50439" lon="6.76673">
        <ele>397</ele>
        <time>2016-05-08T07:23:33.000Z</time>
      </trkpt>
      <trkpt lat="47.50434" lon="6.76675">
        <ele>397</ele>
        <time>2016-05-08T07:23:34.000Z</time>
      </trkpt>
      <trkpt lat="47.5043" lon="6.76677">
        <ele>397</ele>
        <time>2016-05-08T07:23:35.000Z</time>
      </trkpt>
      <trkpt lat="47.50426" lon="6.76679">
        <ele>397</ele>
        <time>2016-05-08T07:23:36.000Z</time>
      </trkpt>
      <trkpt lat="47.50421" lon="6.76682">
        <ele>397</ele>
        <time>2016-05-08T07:23:37.000Z</time>
      </trkpt>
      <trkpt lat="47.50417" lon="6.76684">
        <ele>397</ele>
        <time>2016-05-08T07:23:38.000Z</time>
      </trkpt>
      <trkpt lat="47.50413" lon="6.76686">
        <ele>397</ele>
        <time>2016-05-08T07:23:39.000Z</time>
      </trkpt>
      <trkpt lat="47.50409" lon="6.76689">
        <ele>397</ele>
        <time>2016-05-08T07:23:40.000Z</time>
      </trkpt>
      <trkpt lat="47.50404" lon="6.76691">
        <ele>397</ele>
        <time>2016-05-08T07:23:41.000Z</time>
      </trkpt>
      <trkpt lat="47.504" lon="6.76693">
        <ele>397</ele>
        <time>2016-05-08T07:23:42.000Z</time>
      </trkpt>
      <trkpt lat="47.50396" lon="6.76695">
        <ele>397</ele>
        <time>2016-05-08T07:23:43.000Z</time>
      </trkpt>
      <trkpt lat="47.50391" lon="6.76698">
        <ele>397</ele>
        <time>2016-05-08T07:23:44.000Z</time>
      </trkpt>
      <trkpt lat="47.50387" lon="6.76699">
        <ele>397</ele>
        <time>2016-05-08T07:23:45.000Z</time>
      </trkpt>
      <trkpt lat="47.50382" lon="6.767">
        <ele>397</ele>
        <time>2016-05-08T07:23:46.000Z</time>
      </trkpt>
      <trkpt lat="47.50378" lon="6.76702">
        <ele>397</ele>
        <time>2016-05-08T07:23:47.000Z</time>
      </trkpt>
      <trkpt lat="47.50374" lon="6.76704">
        <ele>397</ele>
        <time>2016-05-08T07:23:48.000Z</time>
      </trkpt>
      <trkpt lat="47.50368" lon="6.76705">
        <ele>397</ele>
        <time>2016-05-08T07:23:49.000Z</time>
      </trkpt>
      <trkpt lat="47.50364" lon="6.76709">
        <ele>398</ele>
        <time>2016-05-08T07:23:50.000Z</time>
      </trkpt>
      <trkpt lat="47.5036" lon="6.7671">
        <ele>398</ele>
        <time>2016-05-08T07:23:51.000Z</time>
      </trkpt>
      <trkpt lat="47.50356" lon="6.76713">
        <ele>398</ele>
        <time>2016-05-08T07:23:52.000Z</time>
      </trkpt>
      <trkpt lat="47.50351" lon="6.76715">
        <ele>398</ele>
        <time>2016-05-08T07:23:53.000Z</time>
      </trkpt>
      <trkpt lat="47.50347" lon="6.76717">
        <ele>398</ele>
        <time>2016-05-08T07:23:54.000Z</time>
      </trkpt>
      <trkpt lat="47.50343" lon="6.76719">
        <ele>398</ele>
        <time>2016-05-08T07:23:55.000Z</time>
      </trkpt>
      <trkpt lat="47.50339" lon="6.7672">
        <ele>398</ele>
        <time>2016-05-08T07:23:56.000Z</time>
      </trkpt>
      <trkpt lat="47.50333" lon="6.76722">
        <ele>398</ele>
        <time>2016-05-08T07:23:57.000Z</time>
      </trkpt>
      <trkpt lat="47.50329" lon="6.76724">
        <ele>398</ele>
        <time>2016-05-08T07:23:58.000Z</time>
      </trkpt>
      <trkpt lat="47.50325" lon="6.76726">
        <ele>398</ele>
        <time>2016-05-08T07:23:59.000Z</time>
      </trkpt>
      <trkpt lat="47.50321" lon="6.76728">
        <ele>398</ele>
        <time>2016-05-08T07:24:00.000Z</time>
      </trkpt>
      <trkpt lat="47.50316" lon="6.7673">
        <ele>398</ele>
        <time>2016-05-08T07:24:01.000Z</time>
      </trkpt>
      <trkpt lat="47.50312" lon="6.76731">
        <ele>398</ele>
        <time>2016-05-08T07:24:02.000Z</time>
      </trkpt>
      <trkpt lat="47.50307" lon="6.76732">
        <ele>398</ele>
        <time>2016-05-08T07:24:03.000Z</time>
      </trkpt>
      <trkpt lat="47.50303" lon="6.76733">
        <ele>398</ele>
        <time>2016-05-08T07:24:04.000Z</time>
      </trkpt>
      <trkpt lat="47.50299" lon="6.76734">
        <ele>399</ele>
        <time>2016-05-08T07:24:05.000Z</time>
      </trkpt>
      <trkpt lat="47.50294" lon="6.76735">
        <ele>399</ele>
        <time>2016-05-08T07:24:06.000Z</time>
      </trkpt>
      <trkpt lat="47.5029" lon="6.76734">
        <ele>399</ele>
        <time>2016-05-08T07:24:07.000Z</time>
      </trkpt>
      <trkpt lat="47.50285" lon="6.76735">
        <ele>399</ele>
        <time>2016-05-08T07:24:08.000Z</time>
      </trkpt>
      <trkpt lat="47.50282" lon="6.76735">
        <ele>399</ele>
        <time>2016-05-08T07:24:09.000Z</time>
      </trkpt>
      <trkpt lat="47.50277" lon="6.76739">
        <ele>399</ele>
        <time>2016-05-08T07:24:10.000Z</time>
      </trkpt>
      <trkpt lat="47.50273" lon="6.76739">
        <ele>399</ele>
        <time>2016-05-08T07:24:11.000Z</time>
      </trkpt>
      <trkpt lat="47.50269" lon="6.76741">
        <ele>399</ele>
        <time>2016-05-08T07:24:12.000Z</time>
      </trkpt>
      <trkpt lat="47.50265" lon="6.76742">
        <ele>399</ele>
        <time>2016-05-08T07:24:13.000Z</time>
      </trkpt>
      <trkpt lat="47.50261" lon="6.76743">
        <ele>399</ele>
        <time>2016-05-08T07:24:14.000Z</time>
      </trkpt>
      <trkpt lat="47.50257" lon="6.76745">
        <ele>400</ele>
        <time>2016-05-08T07:24:15.000Z</time>
      </trkpt>
      <trkpt lat="47.50253" lon="6.76745">
        <ele>400</ele>
        <time>2016-05-08T07:24:16.000Z</time>
      </trkpt>
      <trkpt lat="47.50249" lon="6.76744">
        <ele>400</ele>
        <time>2016-05-08T07:24:17.000Z</time>
      </trkpt>
      <trkpt lat="47.50246" lon="6.76741">
        <ele>401</ele>
        <time>2016-05-08T07:24:18.000Z</time>
      </trkpt>
      <trkpt lat="47.50243" lon="6.76737">
        <ele>401</ele>
        <time>2016-05-08T07:24:19.000Z</time>
      </trkpt>
      <trkpt lat="47.50241" lon="6.76731">
        <ele>401</ele>
        <time>2016-05-08T07:24:20.000Z</time>
      </trkpt>
      <trkpt lat="47.50239" lon="6.76726">
        <ele>401</ele>
        <time>2016-05-08T07:24:21.000Z</time>
      </trkpt>
      <trkpt lat="47.50237" lon="6.7672">
        <ele>401</ele>
        <time>2016-05-08T07:24:22.000Z</time>
      </trkpt>
      <trkpt lat="47.50235" lon="6.76715">
        <ele>401</ele>
        <time>2016-05-08T07:24:23.000Z</time>
      </trkpt>
      <trkpt lat="47.50234" lon="6.76705">
        <ele>401</ele>
        <time>2016-05-08T07:24:24.000Z</time>
      </trkpt>
      <trkpt lat="47.50231" lon="6.76699">
        <ele>401</ele>
        <time>2016-05-08T07:24:25.000Z</time>
      </trkpt>
      <trkpt lat="47.5023" lon="6.76693">
        <ele>401</ele>
        <time>2016-05-08T07:24:26.000Z</time>
      </trkpt>
      <trkpt lat="47.50228" lon="6.7669">
        <ele>401</ele>
        <time>2016-05-08T07:24:27.000Z</time>
      </trkpt>
      <trkpt lat="47.50226" lon="6.76684">
        <ele>401</ele>
        <time>2016-05-08T07:24:28.000Z</time>
      </trkpt>
      <trkpt lat="47.50225" lon="6.76679">
        <ele>401</ele>
        <time>2016-05-08T07:24:29.000Z</time>
      </trkpt>
      <trkpt lat="47.50223" lon="6.76674">
        <ele>401</ele>
        <time>2016-05-08T07:24:30.000Z</time>
      </trkpt>
      <trkpt lat="47.50222" lon="6.76669">
        <ele>401</ele>
        <time>2016-05-08T07:24:31.000Z</time>
      </trkpt>
      <trkpt lat="47.5022" lon="6.76664">
        <ele>401</ele>
        <time>2016-05-08T07:24:32.000Z</time>
      </trkpt>
      <trkpt lat="47.50219" lon="6.76658">
        <ele>401</ele>
        <time>2016-05-08T07:24:33.000Z</time>
      </trkpt>
      <trkpt lat="47.50217" lon="6.76653">
        <ele>401</ele>
        <time>2016-05-08T07:24:34.000Z</time>
      </trkpt>
      <trkpt lat="47.50216" lon="6.76647">
        <ele>402</ele>
        <time>2016-05-08T07:24:35.000Z</time>
      </trkpt>
      <trkpt lat="47.50214" lon="6.76642">
        <ele>402</ele>
        <time>2016-05-08T07:24:36.000Z</time>
      </trkpt>
      <trkpt lat="47.50212" lon="6.76637">
        <ele>402</ele>
        <time>2016-05-08T07:24:37.000Z</time>
      </trkpt>
      <trkpt lat="47.5021" lon="6.76629">
        <ele>402</ele>
        <time>2016-05-08T07:24:38.000Z</time>
      </trkpt>
      <trkpt lat="47.50208" lon="6.76623">
        <ele>402</ele>
        <time>2016-05-08T07:24:39.000Z</time>
      </trkpt>
      <trkpt lat="47.50206" lon="6.76617">
        <ele>402</ele>
        <time>2016-05-08T07:24:40.000Z</time>
      </trkpt>
      <trkpt lat="47.50204" lon="6.7661">
        <ele>402</ele>
        <time>2016-05-08T07:24:41.000Z</time>
      </trkpt>
      <trkpt lat="47.50201" lon="6.76603">
        <ele>403</ele>
        <time>2016-05-08T07:24:42.000Z</time>
      </trkpt>
      <trkpt lat="47.502" lon="6.76598">
        <ele>403</ele>
        <time>2016-05-08T07:24:43.000Z</time>
      </trkpt>
      <trkpt lat="47.50199" lon="6.76592">
        <ele>403</ele>
        <time>2016-05-08T07:24:44.000Z</time>
      </trkpt>
      <trkpt lat="47.50199" lon="6.76586">
        <ele>403</ele>
        <time>2016-05-08T07:24:45.000Z</time>
      </trkpt>
      <trkpt lat="47.50199" lon="6.76583">
        <ele>402</ele>
        <time>2016-05-08T07:24:46.000Z</time>
      </trkpt>
      <trkpt lat="47.50198" lon="6.76578">
        <ele>402</ele>
        <time>2016-05-08T07:24:48.000Z</time>
      </trkpt>
      <trkpt lat="47.50198" lon="6.76574">
        <ele>402</ele>
        <time>2016-05-08T07:24:49.000Z</time>
      </trkpt>
      <trkpt lat="47.502" lon="6.76571">
        <ele>402</ele>
        <time>2016-05-08T07:24:50.000Z</time>
      </trkpt>
      <trkpt lat="47.50207" lon="6.7657">
        <ele>401</ele>
        <time>2016-05-08T07:24:51.000Z</time>
      </trkpt>
      <trkpt lat="47.50209" lon="6.76567">
        <ele>401</ele>
        <time>2016-05-08T07:24:52.000Z</time>
      </trkpt>
      <trkpt lat="47.50212" lon="6.76564">
        <ele>401</ele>
        <time>2016-05-08T07:24:53.000Z</time>
      </trkpt>
      <trkpt lat="47.50214" lon="6.76561">
        <ele>401</ele>
        <time>2016-05-08T07:24:54.000Z</time>
      </trkpt>
      <trkpt lat="47.50215" lon="6.76557">
        <ele>401</ele>
        <time>2016-05-08T07:24:55.000Z</time>
      </trkpt>
      <trkpt lat="47.50215" lon="6.76551">
        <ele>401</ele>
        <time>2016-05-08T07:24:56.000Z</time>
      </trkpt>
      <trkpt lat="47.50216" lon="6.76546">
        <ele>400</ele>
        <time>2016-05-08T07:24:57.000Z</time>
      </trkpt>
      <trkpt lat="47.50218" lon="6.76541">
        <ele>400</ele>
        <time>2016-05-08T07:24:58.000Z</time>
      </trkpt>
      <trkpt lat="47.50221" lon="6.76537">
        <ele>400</ele>
        <time>2016-05-08T07:24:59.000Z</time>
      </trkpt>
      <trkpt lat="47.50223" lon="6.76533">
        <ele>399</ele>
        <time>2016-05-08T07:25:00.000Z</time>
      </trkpt>
      <trkpt lat="47.50225" lon="6.7653">
        <ele>399</ele>
        <time>2016-05-08T07:25:01.000Z</time>
      </trkpt>
      <trkpt lat="47.50226" lon="6.76527">
        <ele>399</ele>
        <time>2016-05-08T07:25:02.000Z</time>
      </trkpt>
      <trkpt lat="47.5022" lon="6.76517">
        <ele>399</ele>
        <time>2016-05-08T07:25:03.000Z</time>
      </trkpt>
      <trkpt lat="47.50217" lon="6.76511">
        <ele>399</ele>
        <time>2016-05-08T07:25:04.000Z</time>
      </trkpt>
      <trkpt lat="47.50215" lon="6.76506">
        <ele>399</ele>
        <time>2016-05-08T07:25:05.000Z</time>
      </trkpt>
      <trkpt lat="47.50213" lon="6.765">
        <ele>400</ele>
        <time>2016-05-08T07:25:06.000Z</time>
      </trkpt>
      <trkpt lat="47.50208" lon="6.76485">
        <ele>396</ele>
        <time>2016-05-08T07:25:07.000Z</time>
      </trkpt>
      <trkpt lat="47.50204" lon="6.76478">
        <ele>397</ele>
        <time>2016-05-08T07:25:08.000Z</time>
      </trkpt>
      <trkpt lat="47.50201" lon="6.76468">
        <ele>396</ele>
        <time>2016-05-08T07:25:09.000Z</time>
      </trkpt>
      <trkpt lat="47.50197" lon="6.7646">
        <ele>396</ele>
        <time>2016-05-08T07:25:10.000Z</time>
      </trkpt>
      <trkpt lat="47.50195" lon="6.76452">
        <ele>396</ele>
        <time>2016-05-08T07:25:11.000Z</time>
      </trkpt>
      <trkpt lat="47.50192" lon="6.76443">
        <ele>396</ele>
        <time>2016-05-08T07:25:12.000Z</time>
      </trkpt>
      <trkpt lat="47.50188" lon="6.76431">
        <ele>396</ele>
        <time>2016-05-08T07:25:13.000Z</time>
      </trkpt>
      <trkpt lat="47.50183" lon="6.7642">
        <ele>397</ele>
        <time>2016-05-08T07:25:14.000Z</time>
      </trkpt>
      <trkpt lat="47.5018" lon="6.76413">
        <ele>395</ele>
        <time>2016-05-08T07:25:15.000Z</time>
      </trkpt>
      <trkpt lat="47.50175" lon="6.76405">
        <ele>395</ele>
        <time>2016-05-08T07:25:16.000Z</time>
      </trkpt>
      <trkpt lat="47.50171" lon="6.76397">
        <ele>394</ele>
        <time>2016-05-08T07:25:17.000Z</time>
      </trkpt>
      <trkpt lat="47.50167" lon="6.76385">
        <ele>392</ele>
        <time>2016-05-08T07:25:18.000Z</time>
      </trkpt>
      <trkpt lat="47.50165" lon="6.76373">
        <ele>400</ele>
        <time>2016-05-08T07:25:19.000Z</time>
      </trkpt>
      <trkpt lat="47.50162" lon="6.76361">
        <ele>399</ele>
        <time>2016-05-08T07:25:20.000Z</time>
      </trkpt>
      <trkpt lat="47.5016" lon="6.76352">
        <ele>397</ele>
        <time>2016-05-08T07:25:21.000Z</time>
      </trkpt>
      <trkpt lat="47.50158" lon="6.76344">
        <ele>396</ele>
        <time>2016-05-08T07:25:22.000Z</time>
      </trkpt>
      <trkpt lat="47.50157" lon="6.7634">
        <ele>396</ele>
        <time>2016-05-08T07:25:23.000Z</time>
      </trkpt>
      <trkpt lat="47.50155" lon="6.76334">
        <ele>395</ele>
        <time>2016-05-08T07:25:24.000Z</time>
      </trkpt>
      <trkpt lat="47.50154" lon="6.76326">
        <ele>394</ele>
        <time>2016-05-08T07:25:25.000Z</time>
      </trkpt>
      <trkpt lat="47.50152" lon="6.7632">
        <ele>394</ele>
        <time>2016-05-08T07:25:26.000Z</time>
      </trkpt>
      <trkpt lat="47.5015" lon="6.76311">
        <ele>395</ele>
        <time>2016-05-08T07:25:27.000Z</time>
      </trkpt>
      <trkpt lat="47.50149" lon="6.76303">
        <ele>395</ele>
        <time>2016-05-08T07:25:28.000Z</time>
      </trkpt>
      <trkpt lat="47.50145" lon="6.76287">
        <ele>395</ele>
        <time>2016-05-08T07:25:29.000Z</time>
      </trkpt>
      <trkpt lat="47.50142" lon="6.76273">
        <ele>395</ele>
        <time>2016-05-08T07:25:30.000Z</time>
      </trkpt>
      <trkpt lat="47.50139" lon="6.76261">
        <ele>394</ele>
        <time>2016-05-08T07:25:31.000Z</time>
      </trkpt>
      <trkpt lat="47.50138" lon="6.76251">
        <ele>394</ele>
        <time>2016-05-08T07:25:32.000Z</time>
      </trkpt>
      <trkpt lat="47.50134" lon="6.76239">
        <ele>390</ele>
        <time>2016-05-08T07:25:33.000Z</time>
      </trkpt>
      <trkpt lat="47.50131" lon="6.76228">
        <ele>391</ele>
        <time>2016-05-08T07:25:34.000Z</time>
      </trkpt>
      <trkpt lat="47.50128" lon="6.76216">
        <ele>391</ele>
        <time>2016-05-08T07:25:35.000Z</time>
      </trkpt>
      <trkpt lat="47.50126" lon="6.76204">
        <ele>390</ele>
        <time>2016-05-08T07:25:36.000Z</time>
      </trkpt>
      <trkpt lat="47.50124" lon="6.76188">
        <ele>390</ele>
        <time>2016-05-08T07:25:37.000Z</time>
      </trkpt>
      <trkpt lat="47.50121" lon="6.76174">
        <ele>390</ele>
        <time>2016-05-08T07:25:38.000Z</time>
      </trkpt>
      <trkpt lat="47.50119" lon="6.76159">
        <ele>386</ele>
        <time>2016-05-08T07:25:39.000Z</time>
      </trkpt>
      <trkpt lat="47.50117" lon="6.76146">
        <ele>386</ele>
        <time>2016-05-08T07:25:40.000Z</time>
      </trkpt>
      <trkpt lat="47.50114" lon="6.76132">
        <ele>385</ele>
        <time>2016-05-08T07:25:41.000Z</time>
      </trkpt>
      <trkpt lat="47.50109" lon="6.76123">
        <ele>385</ele>
        <time>2016-05-08T07:25:42.000Z</time>
      </trkpt>
      <trkpt lat="47.50106" lon="6.76112">
        <ele>385</ele>
        <time>2016-05-08T07:25:43.000Z</time>
      </trkpt>
      <trkpt lat="47.50104" lon="6.76097">
        <ele>386</ele>
        <time>2016-05-08T07:25:44.000Z</time>
      </trkpt>
      <trkpt lat="47.50103" lon="6.7608">
        <ele>383</ele>
        <time>2016-05-08T07:25:45.000Z</time>
      </trkpt>
      <trkpt lat="47.501" lon="6.76067">
        <ele>382</ele>
        <time>2016-05-08T07:25:46.000Z</time>
      </trkpt>
      <trkpt lat="47.50096" lon="6.76048">
        <ele>381</ele>
        <time>2016-05-08T07:25:47.000Z</time>
      </trkpt>
      <trkpt lat="47.50091" lon="6.76029">
        <ele>380</ele>
        <time>2016-05-08T07:25:48.000Z</time>
      </trkpt>
      <trkpt lat="47.50088" lon="6.76016">
        <ele>380</ele>
        <time>2016-05-08T07:25:49.000Z</time>
      </trkpt>
      <trkpt lat="47.50085" lon="6.76004">
        <ele>380</ele>
        <time>2016-05-08T07:25:50.000Z</time>
      </trkpt>
      <trkpt lat="47.50077" lon="6.76004">
        <ele>382</ele>
        <time>2016-05-08T07:25:51.000Z</time>
      </trkpt>
      <trkpt lat="47.50071" lon="6.75992">
        <ele>379</ele>
        <time>2016-05-08T07:25:52.000Z</time>
      </trkpt>
      <trkpt lat="47.50068" lon="6.75983">
        <ele>379</ele>
        <time>2016-05-08T07:25:53.000Z</time>
      </trkpt>
      <trkpt lat="47.50063" lon="6.75966">
        <ele>379</ele>
        <time>2016-05-08T07:25:54.000Z</time>
      </trkpt>
      <trkpt lat="47.50058" lon="6.75956">
        <ele>378</ele>
        <time>2016-05-08T07:25:55.000Z</time>
      </trkpt>
      <trkpt lat="47.50051" lon="6.75944">
        <ele>378</ele>
        <time>2016-05-08T07:25:56.000Z</time>
      </trkpt>
      <trkpt lat="47.50047" lon="6.75937">
        <ele>378</ele>
        <time>2016-05-08T07:25:57.000Z</time>
      </trkpt>
      <trkpt lat="47.5004" lon="6.75933">
        <ele>378</ele>
        <time>2016-05-08T07:25:58.000Z</time>
      </trkpt>
      <trkpt lat="47.50036" lon="6.75925">
        <ele>378</ele>
        <time>2016-05-08T07:25:59.000Z</time>
      </trkpt>
      <trkpt lat="47.50028" lon="6.75913">
        <ele>377</ele>
        <time>2016-05-08T07:26:00.000Z</time>
      </trkpt>
      <trkpt lat="47.50021" lon="6.75902">
        <ele>377</ele>
        <time>2016-05-08T07:26:01.000Z</time>
      </trkpt>
      <trkpt lat="47.50015" lon="6.75891">
        <ele>377</ele>
        <time>2016-05-08T07:26:02.000Z</time>
      </trkpt>
      <trkpt lat="47.50008" lon="6.75881">
        <ele>377</ele>
        <time>2016-05-08T07:26:03.000Z</time>
      </trkpt>
      <trkpt lat="47.50002" lon="6.7587">
        <ele>377</ele>
        <time>2016-05-08T07:26:04.000Z</time>
      </trkpt>
      <trkpt lat="47.49997" lon="6.75859">
        <ele>377</ele>
        <time>2016-05-08T07:26:05.000Z</time>
      </trkpt>
      <trkpt lat="47.49992" lon="6.75847">
        <ele>378</ele>
        <time>2016-05-08T07:26:06.000Z</time>
      </trkpt>
      <trkpt lat="47.49986" lon="6.75838">
        <ele>378</ele>
        <time>2016-05-08T07:26:07.000Z</time>
      </trkpt>
      <trkpt lat="47.49979" lon="6.75828">
        <ele>376</ele>
        <time>2016-05-08T07:26:08.000Z</time>
      </trkpt>
      <trkpt lat="47.49973" lon="6.75818">
        <ele>375</ele>
        <time>2016-05-08T07:26:09.000Z</time>
      </trkpt>
      <trkpt lat="47.49966" lon="6.75807">
        <ele>374</ele>
        <time>2016-05-08T07:26:10.000Z</time>
      </trkpt>
      <trkpt lat="47.49958" lon="6.75802">
        <ele>374</ele>
        <time>2016-05-08T07:26:11.000Z</time>
      </trkpt>
      <trkpt lat="47.49952" lon="6.75794">
        <ele>373</ele>
        <time>2016-05-08T07:26:12.000Z</time>
      </trkpt>
      <trkpt lat="47.49944" lon="6.75781">
        <ele>373</ele>
        <time>2016-05-08T07:26:13.000Z</time>
      </trkpt>
      <trkpt lat="47.49937" lon="6.75772">
        <ele>372</ele>
        <time>2016-05-08T07:26:14.000Z</time>
      </trkpt>
      <trkpt lat="47.4993" lon="6.75763">
        <ele>372</ele>
        <time>2016-05-08T07:26:15.000Z</time>
      </trkpt>
      <trkpt lat="47.49923" lon="6.7575">
        <ele>370</ele>
        <time>2016-05-08T07:26:16.000Z</time>
      </trkpt>
      <trkpt lat="47.49915" lon="6.75741">
        <ele>367</ele>
        <time>2016-05-08T07:26:17.000Z</time>
      </trkpt>
      <trkpt lat="47.49907" lon="6.75737">
        <ele>366</ele>
        <time>2016-05-08T07:26:18.000Z</time>
      </trkpt>
      <trkpt lat="47.49899" lon="6.75735">
        <ele>365</ele>
        <time>2016-05-08T07:26:19.000Z</time>
      </trkpt>
      <trkpt lat="47.49891" lon="6.75733">
        <ele>364</ele>
        <time>2016-05-08T07:26:20.000Z</time>
      </trkpt>
      <trkpt lat="47.49883" lon="6.75733">
        <ele>364</ele>
        <time>2016-05-08T07:26:21.000Z</time>
      </trkpt>
      <trkpt lat="47.49872" lon="6.75731">
        <ele>363</ele>
        <time>2016-05-08T07:26:22.000Z</time>
      </trkpt>
      <trkpt lat="47.49862" lon="6.7573">
        <ele>362</ele>
        <time>2016-05-08T07:26:23.000Z</time>
      </trkpt>
      <trkpt lat="47.49853" lon="6.75732">
        <ele>361</ele>
        <time>2016-05-08T07:26:24.000Z</time>
      </trkpt>
      <trkpt lat="47.49846" lon="6.75729">
        <ele>361</ele>
        <time>2016-05-08T07:26:25.000Z</time>
      </trkpt>
      <trkpt lat="47.49837" lon="6.75732">
        <ele>360</ele>
        <time>2016-05-08T07:26:26.000Z</time>
      </trkpt>
      <trkpt lat="47.49829" lon="6.75734">
        <ele>355</ele>
        <time>2016-05-08T07:26:27.000Z</time>
      </trkpt>
      <trkpt lat="47.49818" lon="6.75736">
        <ele>354</ele>
        <time>2016-05-08T07:26:28.000Z</time>
      </trkpt>
      <trkpt lat="47.49809" lon="6.75738">
        <ele>354</ele>
        <time>2016-05-08T07:26:29.000Z</time>
      </trkpt>
      <trkpt lat="47.49797" lon="6.75743">
        <ele>352</ele>
        <time>2016-05-08T07:26:30.000Z</time>
      </trkpt>
      <trkpt lat="47.49781" lon="6.75747">
        <ele>351</ele>
        <time>2016-05-08T07:26:31.000Z</time>
      </trkpt>
      <trkpt lat="47.49769" lon="6.75752">
        <ele>356</ele>
        <time>2016-05-08T07:26:32.000Z</time>
      </trkpt>
      <trkpt lat="47.49757" lon="6.75755">
        <ele>354</ele>
        <time>2016-05-08T07:26:33.000Z</time>
      </trkpt>
      <trkpt lat="47.49747" lon="6.7576">
        <ele>352</ele>
        <time>2016-05-08T07:26:34.000Z</time>
      </trkpt>
      <trkpt lat="47.49736" lon="6.75764">
        <ele>353</ele>
        <time>2016-05-08T07:26:35.000Z</time>
      </trkpt>
      <trkpt lat="47.49726" lon="6.75768">
        <ele>353</ele>
        <time>2016-05-08T07:26:36.000Z</time>
      </trkpt>
      <trkpt lat="47.49715" lon="6.75771">
        <ele>353</ele>
        <time>2016-05-08T07:26:37.000Z</time>
      </trkpt>
      <trkpt lat="47.49705" lon="6.75775">
        <ele>353</ele>
        <time>2016-05-08T07:26:38.000Z</time>
      </trkpt>
      <trkpt lat="47.49695" lon="6.75779">
        <ele>353</ele>
        <time>2016-05-08T07:26:39.000Z</time>
      </trkpt>
      <trkpt lat="47.49687" lon="6.7578">
        <ele>353</ele>
        <time>2016-05-08T07:26:40.000Z</time>
      </trkpt>
      <trkpt lat="47.49679" lon="6.75783">
        <ele>352</ele>
        <time>2016-05-08T07:26:41.000Z</time>
      </trkpt>
      <trkpt lat="47.49673" lon="6.75784">
        <ele>352</ele>
        <time>2016-05-08T07:26:42.000Z</time>
      </trkpt>
      <trkpt lat="47.49665" lon="6.75784">
        <ele>347</ele>
        <time>2016-05-08T07:26:43.000Z</time>
      </trkpt>
      <trkpt lat="47.49657" lon="6.75786">
        <ele>347</ele>
        <time>2016-05-08T07:26:44.000Z</time>
      </trkpt>
      <trkpt lat="47.49648" lon="6.75783">
        <ele>347</ele>
        <time>2016-05-08T07:26:45.000Z</time>
      </trkpt>
      <trkpt lat="47.49638" lon="6.75784">
        <ele>346</ele>
        <time>2016-05-08T07:26:46.000Z</time>
      </trkpt>
      <trkpt lat="47.49627" lon="6.75783">
        <ele>346</ele>
        <time>2016-05-08T07:26:47.000Z</time>
      </trkpt>
      <trkpt lat="47.49617" lon="6.75784">
        <ele>345</ele>
        <time>2016-05-08T07:26:48.000Z</time>
      </trkpt>
      <trkpt lat="47.4961" lon="6.75784">
        <ele>345</ele>
        <time>2016-05-08T07:26:49.000Z</time>
      </trkpt>
      <trkpt lat="47.49601" lon="6.75785">
        <ele>344</ele>
        <time>2016-05-08T07:26:50.000Z</time>
      </trkpt>
      <trkpt lat="47.49593" lon="6.75783">
        <ele>343</ele>
        <time>2016-05-08T07:26:51.000Z</time>
      </trkpt>
      <trkpt lat="47.49585" lon="6.75784">
        <ele>343</ele>
        <time>2016-05-08T07:26:52.000Z</time>
      </trkpt>
      <trkpt lat="47.49576" lon="6.75781">
        <ele>337</ele>
        <time>2016-05-08T07:26:53.000Z</time>
      </trkpt>
      <trkpt lat="47.49571" lon="6.75779">
        <ele>336</ele>
        <time>2016-05-08T07:26:54.000Z</time>
      </trkpt>
      <trkpt lat="47.49567" lon="6.75776">
        <ele>336</ele>
        <time>2016-05-08T07:26:55.000Z</time>
      </trkpt>
      <trkpt lat="47.49564" lon="6.75771">
        <ele>336</ele>
        <time>2016-05-08T07:26:56.000Z</time>
      </trkpt>
      <trkpt lat="47.49563" lon="6.75765">
        <ele>335</ele>
        <time>2016-05-08T07:26:57.000Z</time>
      </trkpt>
      <trkpt lat="47.49563" lon="6.75759">
        <ele>335</ele>
        <time>2016-05-08T07:26:58.000Z</time>
      </trkpt>
      <trkpt lat="47.49565" lon="6.75754">
        <ele>335</ele>
        <time>2016-05-08T07:26:59.000Z</time>
      </trkpt>
      <trkpt lat="47.49569" lon="6.7575">
        <ele>330</ele>
        <time>2016-05-08T07:27:00.000Z</time>
      </trkpt>
      <trkpt lat="47.49573" lon="6.75748">
        <ele>331</ele>
        <time>2016-05-08T07:27:01.000Z</time>
      </trkpt>
      <trkpt lat="47.49575" lon="6.75745">
        <ele>331</ele>
        <time>2016-05-08T07:27:02.000Z</time>
      </trkpt>
      <trkpt lat="47.49577" lon="6.75741">
        <ele>331</ele>
        <time>2016-05-08T07:27:03.000Z</time>
      </trkpt>
      <trkpt lat="47.49579" lon="6.75739">
        <ele>330</ele>
        <time>2016-05-08T07:27:04.000Z</time>
      </trkpt>
      <trkpt lat="47.49582" lon="6.75736">
        <ele>330</ele>
        <time>2016-05-08T07:27:05.000Z</time>
      </trkpt>
      <trkpt lat="47.49585" lon="6.75733">
        <ele>332</ele>
        <time>2016-05-08T07:27:06.000Z</time>
      </trkpt>
      <trkpt lat="47.49588" lon="6.7573">
        <ele>332</ele>
        <time>2016-05-08T07:27:07.000Z</time>
      </trkpt>
      <trkpt lat="47.49591" lon="6.75726">
        <ele>332</ele>
        <time>2016-05-08T07:27:08.000Z</time>
      </trkpt>
      <trkpt lat="47.49593" lon="6.75721">
        <ele>332</ele>
        <time>2016-05-08T07:27:09.000Z</time>
      </trkpt>
      <trkpt lat="47.49596" lon="6.75716">
        <ele>331</ele>
        <time>2016-05-08T07:27:10.000Z</time>
      </trkpt>
      <trkpt lat="47.49598" lon="6.75709">
        <ele>330</ele>
        <time>2016-05-08T07:27:11.000Z</time>
      </trkpt>
      <trkpt lat="47.49602" lon="6.75705">
        <ele>330</ele>
        <time>2016-05-08T07:27:12.000Z</time>
      </trkpt>
      <trkpt lat="47.49602" lon="6.75696">
        <ele>329</ele>
        <time>2016-05-08T07:27:13.000Z</time>
      </trkpt>
      <trkpt lat="47.49601" lon="6.7569">
        <ele>328</ele>
        <time>2016-05-08T07:27:14.000Z</time>
      </trkpt>
      <trkpt lat="47.49598" lon="6.75683">
        <ele>327</ele>
        <time>2016-05-08T07:27:15.000Z</time>
      </trkpt>
      <trkpt lat="47.49594" lon="6.75676">
        <ele>325</ele>
        <time>2016-05-08T07:27:16.000Z</time>
      </trkpt>
      <trkpt lat="47.49589" lon="6.75671">
        <ele>324</ele>
        <time>2016-05-08T07:27:17.000Z</time>
      </trkpt>
      <trkpt lat="47.49585" lon="6.75666">
        <ele>321</ele>
        <time>2016-05-08T07:27:18.000Z</time>
      </trkpt>
      <trkpt lat="47.49581" lon="6.75662">
        <ele>321</ele>
        <time>2016-05-08T07:27:19.000Z</time>
      </trkpt>
      <trkpt lat="47.49574" lon="6.75667">
        <ele>322</ele>
        <time>2016-05-08T07:27:20.000Z</time>
      </trkpt>
      <trkpt lat="47.49569" lon="6.75671">
        <ele>323</ele>
        <time>2016-05-08T07:27:21.000Z</time>
      </trkpt>
      <trkpt lat="47.49565" lon="6.75677">
        <ele>323</ele>
        <time>2016-05-08T07:27:22.000Z</time>
      </trkpt>
      <trkpt lat="47.49561" lon="6.75682">
        <ele>324</ele>
        <time>2016-05-08T07:27:23.000Z</time>
      </trkpt>
      <trkpt lat="47.49557" lon="6.75687">
        <ele>324</ele>
        <time>2016-05-08T07:27:24.000Z</time>
      </trkpt>
      <trkpt lat="47.49554" lon="6.75693">
        <ele>324</ele>
        <time>2016-05-08T07:27:25.000Z</time>
      </trkpt>
      <trkpt lat="47.4955" lon="6.75698">
        <ele>325</ele>
        <time>2016-05-08T07:27:26.000Z</time>
      </trkpt>
      <trkpt lat="47.49545" lon="6.75702">
        <ele>325</ele>
        <time>2016-05-08T07:27:27.000Z</time>
      </trkpt>
      <trkpt lat="47.49541" lon="6.75707">
        <ele>325</ele>
        <time>2016-05-08T07:27:28.000Z</time>
      </trkpt>
      <trkpt lat="47.49536" lon="6.75712">
        <ele>325</ele>
        <time>2016-05-08T07:27:29.000Z</time>
      </trkpt>
      <trkpt lat="47.49532" lon="6.75714">
        <ele>325</ele>
        <time>2016-05-08T07:27:30.000Z</time>
      </trkpt>
      <trkpt lat="47.49527" lon="6.75718">
        <ele>325</ele>
        <time>2016-05-08T07:27:31.000Z</time>
      </trkpt>
      <trkpt lat="47.49522" lon="6.75721">
        <ele>325</ele>
        <time>2016-05-08T07:27:32.000Z</time>
      </trkpt>
      <trkpt lat="47.49517" lon="6.75725">
        <ele>325</ele>
        <time>2016-05-08T07:27:33.000Z</time>
      </trkpt>
      <trkpt lat="47.49512" lon="6.75727">
        <ele>325</ele>
        <time>2016-05-08T07:27:34.000Z</time>
      </trkpt>
      <trkpt lat="47.49507" lon="6.75729">
        <ele>325</ele>
        <time>2016-05-08T07:27:35.000Z</time>
      </trkpt>
      <trkpt lat="47.49501" lon="6.75731">
        <ele>324</ele>
        <time>2016-05-08T07:27:36.000Z</time>
      </trkpt>
      <trkpt lat="47.49496" lon="6.75733">
        <ele>322</ele>
        <time>2016-05-08T07:27:37.000Z</time>
      </trkpt>
      <trkpt lat="47.49491" lon="6.75733">
        <ele>322</ele>
        <time>2016-05-08T07:27:38.000Z</time>
      </trkpt>
      <trkpt lat="47.49485" lon="6.7573">
        <ele>322</ele>
        <time>2016-05-08T07:27:39.000Z</time>
      </trkpt>
      <trkpt lat="47.49481" lon="6.75724">
        <ele>322</ele>
        <time>2016-05-08T07:27:40.000Z</time>
      </trkpt>
      <trkpt lat="47.49479" lon="6.75716">
        <ele>322</ele>
        <time>2016-05-08T07:27:41.000Z</time>
      </trkpt>
      <trkpt lat="47.49477" lon="6.7571">
        <ele>321</ele>
        <time>2016-05-08T07:27:42.000Z</time>
      </trkpt>
      <trkpt lat="47.49474" lon="6.75702">
        <ele>321</ele>
        <time>2016-05-08T07:27:43.000Z</time>
      </trkpt>
      <trkpt lat="47.49471" lon="6.75695">
        <ele>321</ele>
        <time>2016-05-08T07:27:44.000Z</time>
      </trkpt>
      <trkpt lat="47.49467" lon="6.7569">
        <ele>321</ele>
        <time>2016-05-08T07:27:45.000Z</time>
      </trkpt>
      <trkpt lat="47.49462" lon="6.75689">
        <ele>321</ele>
        <time>2016-05-08T07:27:46.000Z</time>
      </trkpt>
      <trkpt lat="47.49458" lon="6.75691">
        <ele>321</ele>
        <time>2016-05-08T07:27:47.000Z</time>
      </trkpt>
      <trkpt lat="47.49453" lon="6.75694">
        <ele>321</ele>
        <time>2016-05-08T07:27:48.000Z</time>
      </trkpt>
      <trkpt lat="47.49448" lon="6.75695">
        <ele>321</ele>
        <time>2016-05-08T07:27:49.000Z</time>
      </trkpt>
      <trkpt lat="47.49444" lon="6.75694">
        <ele>321</ele>
        <time>2016-05-08T07:27:50.000Z</time>
      </trkpt>
      <trkpt lat="47.49443" lon="6.75686">
        <ele>320</ele>
        <time>2016-05-08T07:27:51.000Z</time>
      </trkpt>
      <trkpt lat="47.49441" lon="6.7568">
        <ele>320</ele>
        <time>2016-05-08T07:27:52.000Z</time>
      </trkpt>
      <trkpt lat="47.49439" lon="6.75673">
        <ele>320</ele>
        <time>2016-05-08T07:27:53.000Z</time>
      </trkpt>
      <trkpt lat="47.49436" lon="6.75668">
        <ele>320</ele>
        <time>2016-05-08T07:27:54.000Z</time>
      </trkpt>
      <trkpt lat="47.49432" lon="6.75665">
        <ele>320</ele>
        <time>2016-05-08T07:27:55.000Z</time>
      </trkpt>
      <trkpt lat="47.49428" lon="6.75668">
        <ele>320</ele>
        <time>2016-05-08T07:27:56.000Z</time>
      </trkpt>
      <trkpt lat="47.49422" lon="6.75671">
        <ele>319</ele>
        <time>2016-05-08T07:27:57.000Z</time>
      </trkpt>
      <trkpt lat="47.49417" lon="6.75675">
        <ele>319</ele>
        <time>2016-05-08T07:27:58.000Z</time>
      </trkpt>
      <trkpt lat="47.49413" lon="6.75678">
        <ele>319</ele>
        <time>2016-05-08T07:27:59.000Z</time>
      </trkpt>
      <trkpt lat="47.49409" lon="6.7568">
        <ele>319</ele>
        <time>2016-05-08T07:28:00.000Z</time>
      </trkpt>
      <trkpt lat="47.49405" lon="6.75682">
        <ele>319</ele>
        <time>2016-05-08T07:28:01.000Z</time>
      </trkpt>
      <trkpt lat="47.49401" lon="6.75684">
        <ele>319</ele>
        <time>2016-05-08T07:28:02.000Z</time>
      </trkpt>
      <trkpt lat="47.49399" lon="6.75687">
        <ele>319</ele>
        <time>2016-05-08T07:28:03.000Z</time>
      </trkpt>
      <trkpt lat="47.49393" lon="6.7569">
        <ele>319</ele>
        <time>2016-05-08T07:28:04.000Z</time>
      </trkpt>
      <trkpt lat="47.49388" lon="6.75694">
        <ele>319</ele>
        <time>2016-05-08T07:28:05.000Z</time>
      </trkpt>
      <trkpt lat="47.49384" lon="6.75698">
        <ele>319</ele>
        <time>2016-05-08T07:28:06.000Z</time>
      </trkpt>
      <trkpt lat="47.4938" lon="6.75702">
        <ele>319</ele>
        <time>2016-05-08T07:28:07.000Z</time>
      </trkpt>
      <trkpt lat="47.49376" lon="6.75706">
        <ele>319</ele>
        <time>2016-05-08T07:28:08.000Z</time>
      </trkpt>
      <trkpt lat="47.49371" lon="6.75709">
        <ele>319</ele>
        <time>2016-05-08T07:28:09.000Z</time>
      </trkpt>
      <trkpt lat="47.49368" lon="6.75712">
        <ele>319</ele>
        <time>2016-05-08T07:28:11.000Z</time>
      </trkpt>
      <trkpt lat="47.49367" lon="6.75712">
        <ele>319</ele>
        <time>2016-05-08T07:28:12.000Z</time>
      </trkpt>
      <trkpt lat="47.49364" lon="6.75715">
        <ele>319</ele>
        <time>2016-05-08T07:28:14.000Z</time>
      </trkpt>
      <trkpt lat="47.4936" lon="6.75716">
        <ele>319</ele>
        <time>2016-05-08T07:28:15.000Z</time>
      </trkpt>
      <trkpt lat="47.49356" lon="6.75717">
        <ele>319</ele>
        <time>2016-05-08T07:28:16.000Z</time>
      </trkpt>
      <trkpt lat="47.49351" lon="6.75718">
        <ele>319</ele>
        <time>2016-05-08T07:28:17.000Z</time>
      </trkpt>
      <trkpt lat="47.49345" lon="6.75724">
        <ele>318</ele>
        <time>2016-05-08T07:28:18.000Z</time>
      </trkpt>
      <trkpt lat="47.49339" lon="6.75729">
        <ele>318</ele>
        <time>2016-05-08T07:28:19.000Z</time>
      </trkpt>
      <trkpt lat="47.49333" lon="6.75733">
        <ele>319</ele>
        <time>2016-05-08T07:28:20.000Z</time>
      </trkpt>
      <trkpt lat="47.49327" lon="6.7574">
        <ele>318</ele>
        <time>2016-05-08T07:28:21.000Z</time>
      </trkpt>
      <trkpt lat="47.49321" lon="6.75746">
        <ele>319</ele>
        <time>2016-05-08T07:28:22.000Z</time>
      </trkpt>
      <trkpt lat="47.49315" lon="6.75751">
        <ele>318</ele>
        <time>2016-05-08T07:28:23.000Z</time>
      </trkpt>
      <trkpt lat="47.49309" lon="6.75757">
        <ele>318</ele>
        <time>2016-05-08T07:28:24.000Z</time>
      </trkpt>
      <trkpt lat="47.49305" lon="6.75763">
        <ele>318</ele>
        <time>2016-05-08T07:28:25.000Z</time>
      </trkpt>
      <trkpt lat="47.49299" lon="6.75769">
        <ele>318</ele>
        <time>2016-05-08T07:28:26.000Z</time>
      </trkpt>
      <trkpt lat="47.49295" lon="6.75775">
        <ele>318</ele>
        <time>2016-05-08T07:28:27.000Z</time>
      </trkpt>
      <trkpt lat="47.4929" lon="6.75781">
        <ele>318</ele>
        <time>2016-05-08T07:28:28.000Z</time>
      </trkpt>
      <trkpt lat="47.49286" lon="6.75787">
        <ele>318</ele>
        <time>2016-05-08T07:28:29.000Z</time>
      </trkpt>
      <trkpt lat="47.49283" lon="6.75794">
        <ele>318</ele>
        <time>2016-05-08T07:28:30.000Z</time>
      </trkpt>
      <trkpt lat="47.4928" lon="6.758">
        <ele>318</ele>
        <time>2016-05-08T07:28:31.000Z</time>
      </trkpt>
      <trkpt lat="47.49277" lon="6.75808">
        <ele>317</ele>
        <time>2016-05-08T07:28:32.000Z</time>
      </trkpt>
      <trkpt lat="47.49273" lon="6.75816">
        <ele>317</ele>
        <time>2016-05-08T07:28:33.000Z</time>
      </trkpt>
      <trkpt lat="47.4927" lon="6.75824">
        <ele>316</ele>
        <time>2016-05-08T07:28:34.000Z</time>
      </trkpt>
      <trkpt lat="47.49269" lon="6.75832">
        <ele>316</ele>
        <time>2016-05-08T07:28:35.000Z</time>
      </trkpt>
      <trkpt lat="47.49266" lon="6.7584">
        <ele>317</ele>
        <time>2016-05-08T07:28:36.000Z</time>
      </trkpt>
      <trkpt lat="47.49262" lon="6.75848">
        <ele>317</ele>
        <time>2016-05-08T07:28:37.000Z</time>
      </trkpt>
      <trkpt lat="47.49258" lon="6.75855">
        <ele>317</ele>
        <time>2016-05-08T07:28:38.000Z</time>
      </trkpt>
      <trkpt lat="47.49255" lon="6.75864">
        <ele>318</ele>
        <time>2016-05-08T07:28:39.000Z</time>
      </trkpt>
      <trkpt lat="47.49252" lon="6.75871">
        <ele>318</ele>
        <time>2016-05-08T07:28:40.000Z</time>
      </trkpt>
      <trkpt lat="47.49248" lon="6.75879">
        <ele>318</ele>
        <time>2016-05-08T07:28:41.000Z</time>
      </trkpt>
      <trkpt lat="47.49244" lon="6.75887">
        <ele>318</ele>
        <time>2016-05-08T07:28:42.000Z</time>
      </trkpt>
      <trkpt lat="47.4924" lon="6.75895">
        <ele>318</ele>
        <time>2016-05-08T07:28:43.000Z</time>
      </trkpt>
      <trkpt lat="47.49237" lon="6.75902">
        <ele>318</ele>
        <time>2016-05-08T07:28:44.000Z</time>
      </trkpt>
      <trkpt lat="47.49233" lon="6.75909">
        <ele>318</ele>
        <time>2016-05-08T07:28:45.000Z</time>
      </trkpt>
      <trkpt lat="47.4923" lon="6.75915">
        <ele>318</ele>
        <time>2016-05-08T07:28:46.000Z</time>
      </trkpt>
      <trkpt lat="47.49229" lon="6.75922">
        <ele>319</ele>
        <time>2016-05-08T07:28:47.000Z</time>
      </trkpt>
      <trkpt lat="47.49225" lon="6.7593">
        <ele>319</ele>
        <time>2016-05-08T07:28:48.000Z</time>
      </trkpt>
      <trkpt lat="47.49223" lon="6.75939">
        <ele>320</ele>
        <time>2016-05-08T07:28:49.000Z</time>
      </trkpt>
      <trkpt lat="47.49218" lon="6.75946">
        <ele>320</ele>
        <time>2016-05-08T07:28:50.000Z</time>
      </trkpt>
      <trkpt lat="47.49212" lon="6.75953">
        <ele>320</ele>
        <time>2016-05-08T07:28:51.000Z</time>
      </trkpt>
      <trkpt lat="47.49209" lon="6.75961">
        <ele>320</ele>
        <time>2016-05-08T07:28:52.000Z</time>
      </trkpt>
      <trkpt lat="47.49204" lon="6.75967">
        <ele>320</ele>
        <time>2016-05-08T07:28:53.000Z</time>
      </trkpt>
      <trkpt lat="47.49202" lon="6.75975">
        <ele>320</ele>
        <time>2016-05-08T07:28:54.000Z</time>
      </trkpt>
      <trkpt lat="47.492" lon="6.75982">
        <ele>320</ele>
        <time>2016-05-08T07:28:55.000Z</time>
      </trkpt>
      <trkpt lat="47.49199" lon="6.7599">
        <ele>320</ele>
        <time>2016-05-08T07:28:56.000Z</time>
      </trkpt>
      <trkpt lat="47.49194" lon="6.76">
        <ele>320</ele>
        <time>2016-05-08T07:28:57.000Z</time>
      </trkpt>
      <trkpt lat="47.4919" lon="6.76009">
        <ele>321</ele>
        <time>2016-05-08T07:28:58.000Z</time>
      </trkpt>
      <trkpt lat="47.49187" lon="6.76017">
        <ele>321</ele>
        <time>2016-05-08T07:28:59.000Z</time>
      </trkpt>
      <trkpt lat="47.49183" lon="6.76025">
        <ele>321</ele>
        <time>2016-05-08T07:29:00.000Z</time>
      </trkpt>
      <trkpt lat="47.4918" lon="6.76034">
        <ele>321</ele>
        <time>2016-05-08T07:29:01.000Z</time>
      </trkpt>
      <trkpt lat="47.49177" lon="6.76043">
        <ele>321</ele>
        <time>2016-05-08T07:29:02.000Z</time>
      </trkpt>
      <trkpt lat="47.49172" lon="6.76052">
        <ele>320</ele>
        <time>2016-05-08T07:29:03.000Z</time>
      </trkpt>
      <trkpt lat="47.49169" lon="6.7606">
        <ele>320</ele>
        <time>2016-05-08T07:29:04.000Z</time>
      </trkpt>
      <trkpt lat="47.49165" lon="6.76069">
        <ele>321</ele>
        <time>2016-05-08T07:29:05.000Z</time>
      </trkpt>
      <trkpt lat="47.49162" lon="6.76078">
        <ele>320</ele>
        <time>2016-05-08T07:29:06.000Z</time>
      </trkpt>
      <trkpt lat="47.4916" lon="6.76086">
        <ele>319</ele>
        <time>2016-05-08T07:29:07.000Z</time>
      </trkpt>
      <trkpt lat="47.49157" lon="6.76095">
        <ele>320</ele>
        <time>2016-05-08T07:29:08.000Z</time>
      </trkpt>
      <trkpt lat="47.49154" lon="6.76105">
        <ele>321</ele>
        <time>2016-05-08T07:29:09.000Z</time>
      </trkpt>
      <trkpt lat="47.49151" lon="6.76114">
        <ele>321</ele>
        <time>2016-05-08T07:29:10.000Z</time>
      </trkpt>
      <trkpt lat="47.49149" lon="6.76123">
        <ele>321</ele>
        <time>2016-05-08T07:29:11.000Z</time>
      </trkpt>
      <trkpt lat="47.49146" lon="6.76133">
        <ele>321</ele>
        <time>2016-05-08T07:29:12.000Z</time>
      </trkpt>
      <trkpt lat="47.49145" lon="6.76141">
        <ele>321</ele>
        <time>2016-05-08T07:29:13.000Z</time>
      </trkpt>
      <trkpt lat="47.49143" lon="6.7615">
        <ele>321</ele>
        <time>2016-05-08T07:29:14.000Z</time>
      </trkpt>
      <trkpt lat="47.49141" lon="6.76159">
        <ele>321</ele>
        <time>2016-05-08T07:29:15.000Z</time>
      </trkpt>
      <trkpt lat="47.49139" lon="6.76167">
        <ele>321</ele>
        <time>2016-05-08T07:29:16.000Z</time>
      </trkpt>
      <trkpt lat="47.49136" lon="6.76173">
        <ele>321</ele>
        <time>2016-05-08T07:29:17.000Z</time>
      </trkpt>
      <trkpt lat="47.49134" lon="6.76179">
        <ele>321</ele>
        <time>2016-05-08T07:29:18.000Z</time>
      </trkpt>
      <trkpt lat="47.49131" lon="6.76187">
        <ele>321</ele>
        <time>2016-05-08T07:29:19.000Z</time>
      </trkpt>
      <trkpt lat="47.49132" lon="6.76197">
        <ele>321</ele>
        <time>2016-05-08T07:29:20.000Z</time>
      </trkpt>
      <trkpt lat="47.49133" lon="6.76206">
        <ele>321</ele>
        <time>2016-05-08T07:29:21.000Z</time>
      </trkpt>
      <trkpt lat="47.49134" lon="6.76216">
        <ele>321</ele>
        <time>2016-05-08T07:29:22.000Z</time>
      </trkpt>
      <trkpt lat="47.49134" lon="6.76225">
        <ele>320</ele>
        <time>2016-05-08T07:29:23.000Z</time>
      </trkpt>
      <trkpt lat="47.49134" lon="6.76234">
        <ele>320</ele>
        <time>2016-05-08T07:29:24.000Z</time>
      </trkpt>
      <trkpt lat="47.49136" lon="6.76242">
        <ele>320</ele>
        <time>2016-05-08T07:29:25.000Z</time>
      </trkpt>
      <trkpt lat="47.49135" lon="6.76251">
        <ele>319</ele>
        <time>2016-05-08T07:29:26.000Z</time>
      </trkpt>
      <trkpt lat="47.49136" lon="6.76261">
        <ele>319</ele>
        <time>2016-05-08T07:29:27.000Z</time>
      </trkpt>
      <trkpt lat="47.49137" lon="6.76268">
        <ele>319</ele>
        <time>2016-05-08T07:29:28.000Z</time>
      </trkpt>
      <trkpt lat="47.49137" lon="6.76273">
        <ele>319</ele>
        <time>2016-05-08T07:29:29.000Z</time>
      </trkpt>
      <trkpt lat="47.49136" lon="6.76281">
        <ele>319</ele>
        <time>2016-05-08T07:29:30.000Z</time>
      </trkpt>
      <trkpt lat="47.49135" lon="6.76288">
        <ele>319</ele>
        <time>2016-05-08T07:29:31.000Z</time>
      </trkpt>
      <trkpt lat="47.49136" lon="6.76299">
        <ele>319</ele>
        <time>2016-05-08T07:29:32.000Z</time>
      </trkpt>
      <trkpt lat="47.49137" lon="6.76309">
        <ele>319</ele>
        <time>2016-05-08T07:29:33.000Z</time>
      </trkpt>
      <trkpt lat="47.49138" lon="6.76318">
        <ele>318</ele>
        <time>2016-05-08T07:29:34.000Z</time>
      </trkpt>
      <trkpt lat="47.49138" lon="6.76328">
        <ele>318</ele>
        <time>2016-05-08T07:29:35.000Z</time>
      </trkpt>
      <trkpt lat="47.49138" lon="6.76337">
        <ele>317</ele>
        <time>2016-05-08T07:29:36.000Z</time>
      </trkpt>
      <trkpt lat="47.49138" lon="6.76346">
        <ele>317</ele>
        <time>2016-05-08T07:29:37.000Z</time>
      </trkpt>
      <trkpt lat="47.49138" lon="6.76356">
        <ele>317</ele>
        <time>2016-05-08T07:29:38.000Z</time>
      </trkpt>
      <trkpt lat="47.49138" lon="6.76365">
        <ele>317</ele>
        <time>2016-05-08T07:29:39.000Z</time>
      </trkpt>
      <trkpt lat="47.49138" lon="6.76374">
        <ele>317</ele>
        <time>2016-05-08T07:29:40.000Z</time>
      </trkpt>
      <trkpt lat="47.49139" lon="6.76384">
        <ele>317</ele>
        <time>2016-05-08T07:29:41.000Z</time>
      </trkpt>
      <trkpt lat="47.49139" lon="6.76393">
        <ele>317</ele>
        <time>2016-05-08T07:29:42.000Z</time>
      </trkpt>
      <trkpt lat="47.4914" lon="6.76402">
        <ele>317</ele>
        <time>2016-05-08T07:29:43.000Z</time>
      </trkpt>
      <trkpt lat="47.4914" lon="6.76412">
        <ele>316</ele>
        <time>2016-05-08T07:29:44.000Z</time>
      </trkpt>
      <trkpt lat="47.4914" lon="6.76423">
        <ele>316</ele>
        <time>2016-05-08T07:29:45.000Z</time>
      </trkpt>
      <trkpt lat="47.49139" lon="6.76432">
        <ele>316</ele>
        <time>2016-05-08T07:29:46.000Z</time>
      </trkpt>
      <trkpt lat="47.49136" lon="6.76442">
        <ele>316</ele>
        <time>2016-05-08T07:29:47.000Z</time>
      </trkpt>
      <trkpt lat="47.49136" lon="6.7645">
        <ele>316</ele>
        <time>2016-05-08T07:29:48.000Z</time>
      </trkpt>
      <trkpt lat="47.49137" lon="6.76459">
        <ele>316</ele>
        <time>2016-05-08T07:29:49.000Z</time>
      </trkpt>
      <trkpt lat="47.49136" lon="6.76468">
        <ele>316</ele>
        <time>2016-05-08T07:29:50.000Z</time>
      </trkpt>
      <trkpt lat="47.49135" lon="6.76478">
        <ele>316</ele>
        <time>2016-05-08T07:29:51.000Z</time>
      </trkpt>
      <trkpt lat="47.49134" lon="6.76487">
        <ele>316</ele>
        <time>2016-05-08T07:29:52.000Z</time>
      </trkpt>
      <trkpt lat="47.49134" lon="6.76495">
        <ele>316</ele>
        <time>2016-05-08T07:29:53.000Z</time>
      </trkpt>
      <trkpt lat="47.49133" lon="6.76505">
        <ele>316</ele>
        <time>2016-05-08T07:29:54.000Z</time>
      </trkpt>
      <trkpt lat="47.49134" lon="6.76515">
        <ele>316</ele>
        <time>2016-05-08T07:29:55.000Z</time>
      </trkpt>
      <trkpt lat="47.49136" lon="6.76519">
        <ele>315</ele>
        <time>2016-05-08T07:29:56.000Z</time>
      </trkpt>
      <trkpt lat="47.49147" lon="6.76517">
        <ele>315</ele>
        <time>2016-05-08T07:29:57.000Z</time>
      </trkpt>
      <trkpt lat="47.49155" lon="6.76517">
        <ele>315</ele>
        <time>2016-05-08T07:29:58.000Z</time>
      </trkpt>
      <trkpt lat="47.49161" lon="6.76516">
        <ele>314</ele>
        <time>2016-05-08T07:29:59.000Z</time>
      </trkpt>
      <trkpt lat="47.49167" lon="6.76511">
        <ele>314</ele>
        <time>2016-05-08T07:30:00.000Z</time>
      </trkpt>
      <trkpt lat="47.49171" lon="6.76507">
        <ele>314</ele>
        <time>2016-05-08T07:30:01.000Z</time>
      </trkpt>
      <trkpt lat="47.49176" lon="6.76503">
        <ele>314</ele>
        <time>2016-05-08T07:30:02.000Z</time>
      </trkpt>
      <trkpt lat="47.49179" lon="6.76499">
        <ele>315</ele>
        <time>2016-05-08T07:30:03.000Z</time>
      </trkpt>
      <trkpt lat="47.49182" lon="6.76496">
        <ele>315</ele>
        <time>2016-05-08T07:30:04.000Z</time>
      </trkpt>
      <trkpt lat="47.49183" lon="6.76491">
        <ele>316</ele>
        <time>2016-05-08T07:30:05.000Z</time>
      </trkpt>
      <trkpt lat="47.49181" lon="6.76485">
        <ele>316</ele>
        <time>2016-05-08T07:30:06.000Z</time>
      </trkpt>
      <trkpt lat="47.49184" lon="6.76486">
        <ele>316</ele>
        <time>2016-05-08T07:34:03.000Z</time>
      </trkpt>
      <trkpt lat="47.49184" lon="6.7649">
        <ele>316</ele>
        <time>2016-05-08T07:34:04.000Z</time>
      </trkpt>
      <trkpt lat="47.49184" lon="6.76494">
        <ele>316</ele>
        <time>2016-05-08T07:34:05.000Z</time>
      </trkpt>
      <trkpt lat="47.49184" lon="6.76497">
        <ele>316</ele>
        <time>2016-05-08T07:34:06.000Z</time>
      </trkpt>
      <trkpt lat="47.49181" lon="6.76502">
        <ele>315</ele>
        <time>2016-05-08T07:34:08.000Z</time>
      </trkpt>
      <trkpt lat="47.49179" lon="6.76504">
        <ele>315</ele>
        <time>2016-05-08T07:34:09.000Z</time>
      </trkpt>
      <trkpt lat="47.49176" lon="6.76505">
        <ele>314</ele>
        <time>2016-05-08T07:34:10.000Z</time>
      </trkpt>
      <trkpt lat="47.49173" lon="6.76507">
        <ele>314</ele>
        <time>2016-05-08T07:34:11.000Z</time>
      </trkpt>
      <trkpt lat="47.4917" lon="6.76509">
        <ele>314</ele>
        <time>2016-05-08T07:34:12.000Z</time>
      </trkpt>
      <trkpt lat="47.49163" lon="6.76513">
        <ele>314</ele>
        <time>2016-05-08T07:34:13.000Z</time>
      </trkpt>
      <trkpt lat="47.49157" lon="6.76518">
        <ele>314</ele>
        <time>2016-05-08T07:34:14.000Z</time>
      </trkpt>
      <trkpt lat="47.49152" lon="6.76521">
        <ele>315</ele>
        <time>2016-05-08T07:34:15.000Z</time>
      </trkpt>
      <trkpt lat="47.49146" lon="6.7652">
        <ele>315</ele>
        <time>2016-05-08T07:34:16.000Z</time>
      </trkpt>
      <trkpt lat="47.4914" lon="6.7652">
        <ele>315</ele>
        <time>2016-05-08T07:34:17.000Z</time>
      </trkpt>
      <trkpt lat="47.49134" lon="6.76518">
        <ele>316</ele>
        <time>2016-05-08T07:34:18.000Z</time>
      </trkpt>
      <trkpt lat="47.49129" lon="6.76513">
        <ele>316</ele>
        <time>2016-05-08T07:34:19.000Z</time>
      </trkpt>
      <trkpt lat="47.49126" lon="6.76508">
        <ele>316</ele>
        <time>2016-05-08T07:34:20.000Z</time>
      </trkpt>
      <trkpt lat="47.49126" lon="6.765">
        <ele>316</ele>
        <time>2016-05-08T07:34:21.000Z</time>
      </trkpt>
      <trkpt lat="47.49127" lon="6.76495">
        <ele>317</ele>
        <time>2016-05-08T07:34:22.000Z</time>
      </trkpt>
      <trkpt lat="47.49127" lon="6.76488">
        <ele>317</ele>
        <time>2016-05-08T07:34:23.000Z</time>
      </trkpt>
      <trkpt lat="47.49127" lon="6.76482">
        <ele>317</ele>
        <time>2016-05-08T07:34:24.000Z</time>
      </trkpt>
      <trkpt lat="47.49127" lon="6.76477">
        <ele>317</ele>
        <time>2016-05-08T07:34:25.000Z</time>
      </trkpt>
      <trkpt lat="47.49128" lon="6.7647">
        <ele>317</ele>
        <time>2016-05-08T07:34:26.000Z</time>
      </trkpt>
      <trkpt lat="47.49128" lon="6.76464">
        <ele>317</ele>
        <time>2016-05-08T07:34:27.000Z</time>
      </trkpt>
      <trkpt lat="47.49128" lon="6.76459">
        <ele>317</ele>
        <time>2016-05-08T07:34:28.000Z</time>
      </trkpt>
      <trkpt lat="47.49128" lon="6.76453">
        <ele>317</ele>
        <time>2016-05-08T07:34:29.000Z</time>
      </trkpt>
      <trkpt lat="47.49128" lon="6.76447">
        <ele>317</ele>
        <time>2016-05-08T07:34:30.000Z</time>
      </trkpt>
      <trkpt lat="47.49129" lon="6.76442">
        <ele>317</ele>
        <time>2016-05-08T07:34:31.000Z</time>
      </trkpt>
      <trkpt lat="47.49129" lon="6.76437">
        <ele>317</ele>
        <time>2016-05-08T07:34:32.000Z</time>
      </trkpt>
      <trkpt lat="47.49129" lon="6.76432">
        <ele>317</ele>
        <time>2016-05-08T07:34:33.000Z</time>
      </trkpt>
      <trkpt lat="47.49128" lon="6.76426">
        <ele>317</ele>
        <time>2016-05-08T07:34:35.000Z</time>
      </trkpt>
      <trkpt lat="47.49126" lon="6.76425">
        <ele>317</ele>
        <time>2016-05-08T07:34:36.000Z</time>
      </trkpt>
      <trkpt lat="47.49122" lon="6.76425">
        <ele>317</ele>
        <time>2016-05-08T07:34:38.000Z</time>
      </trkpt>
      <trkpt lat="47.4912" lon="6.76426">
        <ele>317</ele>
        <time>2016-05-08T07:34:39.000Z</time>
      </trkpt>
      <trkpt lat="47.49117" lon="6.76426">
        <ele>318</ele>
        <time>2016-05-08T07:34:40.000Z</time>
      </trkpt>
      <trkpt lat="47.49115" lon="6.76426">
        <ele>318</ele>
        <time>2016-05-08T07:34:41.000Z</time>
      </trkpt>
      <trkpt lat="47.49112" lon="6.76425">
        <ele>318</ele>
        <time>2016-05-08T07:34:42.000Z</time>
      </trkpt>
      <trkpt lat="47.4911" lon="6.76424">
        <ele>318</ele>
        <time>2016-05-08T07:34:43.000Z</time>
      </trkpt>
      <trkpt lat="47.49108" lon="6.76421">
        <ele>318</ele>
        <time>2016-05-08T07:34:44.000Z</time>
      </trkpt>
      <trkpt lat="47.49107" lon="6.76417">
        <ele>318</ele>
        <time>2016-05-08T07:34:45.000Z</time>
      </trkpt>
      <trkpt lat="47.49106" lon="6.76413">
        <ele>319</ele>
        <time>2016-05-08T07:34:46.000Z</time>
      </trkpt>
      <trkpt lat="47.49106" lon="6.76408">
        <ele>319</ele>
        <time>2016-05-08T07:34:47.000Z</time>
      </trkpt>
      <trkpt lat="47.49107" lon="6.76404">
        <ele>319</ele>
        <time>2016-05-08T07:34:48.000Z</time>
      </trkpt>
      <trkpt lat="47.49107" lon="6.764">
        <ele>319</ele>
        <time>2016-05-08T07:34:49.000Z</time>
      </trkpt>
      <trkpt lat="47.49107" lon="6.76395">
        <ele>319</ele>
        <time>2016-05-08T07:34:50.000Z</time>
      </trkpt>
      <trkpt lat="47.49108" lon="6.7639">
        <ele>319</ele>
        <time>2016-05-08T07:34:51.000Z</time>
      </trkpt>
      <trkpt lat="47.49108" lon="6.76384">
        <ele>319</ele>
        <time>2016-05-08T07:34:52.000Z</time>
      </trkpt>
      <trkpt lat="47.49108" lon="6.76378">
        <ele>319</ele>
        <time>2016-05-08T07:34:53.000Z</time>
      </trkpt>
      <trkpt lat="47.49108" lon="6.76372">
        <ele>319</ele>
        <time>2016-05-08T07:34:54.000Z</time>
      </trkpt>
      <trkpt lat="47.49109" lon="6.76367">
        <ele>319</ele>
        <time>2016-05-08T07:34:55.000Z</time>
      </trkpt>
      <trkpt lat="47.49109" lon="6.76362">
        <ele>319</ele>
        <time>2016-05-08T07:34:56.000Z</time>
      </trkpt>
      <trkpt lat="47.49109" lon="6.76358">
        <ele>319</ele>
        <time>2016-05-08T07:34:57.000Z</time>
      </trkpt>
      <trkpt lat="47.49109" lon="6.76354">
        <ele>319</ele>
        <time>2016-05-08T07:34:58.000Z</time>
      </trkpt>
      <trkpt lat="47.49109" lon="6.7635">
        <ele>319</ele>
        <time>2016-05-08T07:34:59.000Z</time>
      </trkpt>
      <trkpt lat="47.49108" lon="6.76347">
        <ele>319</ele>
        <time>2016-05-08T07:35:00.000Z</time>
      </trkpt>
      <trkpt lat="47.49107" lon="6.76343">
        <ele>319</ele>
        <time>2016-05-08T07:35:01.000Z</time>
      </trkpt>
      <trkpt lat="47.49106" lon="6.76338">
        <ele>320</ele>
        <time>2016-05-08T07:35:02.000Z</time>
      </trkpt>
      <trkpt lat="47.49105" lon="6.76333">
        <ele>321</ele>
        <time>2016-05-08T07:35:03.000Z</time>
      </trkpt>
      <trkpt lat="47.49105" lon="6.76327">
        <ele>321</ele>
        <time>2016-05-08T07:35:04.000Z</time>
      </trkpt>
      <trkpt lat="47.49104" lon="6.76321">
        <ele>321</ele>
        <time>2016-05-08T07:35:05.000Z</time>
      </trkpt>
      <trkpt lat="47.49104" lon="6.76316">
        <ele>321</ele>
        <time>2016-05-08T07:35:06.000Z</time>
      </trkpt>
      <trkpt lat="47.49103" lon="6.7631">
        <ele>321</ele>
        <time>2016-05-08T07:35:07.000Z</time>
      </trkpt>
      <trkpt lat="47.49102" lon="6.76304">
        <ele>321</ele>
        <time>2016-05-08T07:35:08.000Z</time>
      </trkpt>
      <trkpt lat="47.49102" lon="6.76297">
        <ele>321</ele>
        <time>2016-05-08T07:35:09.000Z</time>
      </trkpt>
      <trkpt lat="47.49101" lon="6.76289">
        <ele>321</ele>
        <time>2016-05-08T07:35:10.000Z</time>
      </trkpt>
      <trkpt lat="47.49101" lon="6.76281">
        <ele>321</ele>
        <time>2016-05-08T07:35:11.000Z</time>
      </trkpt>
      <trkpt lat="47.491" lon="6.76273">
        <ele>321</ele>
        <time>2016-05-08T07:35:12.000Z</time>
      </trkpt>
      <trkpt lat="47.491" lon="6.76265">
        <ele>322</ele>
        <time>2016-05-08T07:35:13.000Z</time>
      </trkpt>
      <trkpt lat="47.491" lon="6.76258">
        <ele>322</ele>
        <time>2016-05-08T07:35:14.000Z</time>
      </trkpt>
      <trkpt lat="47.491" lon="6.7625">
        <ele>322</ele>
        <time>2016-05-08T07:35:15.000Z</time>
      </trkpt>
      <trkpt lat="47.49101" lon="6.76243">
        <ele>323</ele>
        <time>2016-05-08T07:35:16.000Z</time>
      </trkpt>
      <trkpt lat="47.49101" lon="6.76236">
        <ele>322</ele>
        <time>2016-05-08T07:35:17.000Z</time>
      </trkpt>
      <trkpt lat="47.49101" lon="6.7623">
        <ele>322</ele>
        <time>2016-05-08T07:35:18.000Z</time>
      </trkpt>
      <trkpt lat="47.49102" lon="6.76224">
        <ele>322</ele>
        <time>2016-05-08T07:35:19.000Z</time>
      </trkpt>
      <trkpt lat="47.49102" lon="6.76218">
        <ele>322</ele>
        <time>2016-05-08T07:35:20.000Z</time>
      </trkpt>
      <trkpt lat="47.49103" lon="6.76212">
        <ele>322</ele>
        <time>2016-05-08T07:35:21.000Z</time>
      </trkpt>
      <trkpt lat="47.49102" lon="6.76206">
        <ele>322</ele>
        <time>2016-05-08T07:35:22.000Z</time>
      </trkpt>
      <trkpt lat="47.49102" lon="6.762">
        <ele>322</ele>
        <time>2016-05-08T07:35:23.000Z</time>
      </trkpt>
      <trkpt lat="47.49102" lon="6.76194">
        <ele>322</ele>
        <time>2016-05-08T07:35:24.000Z</time>
      </trkpt>
      <trkpt lat="47.49102" lon="6.76189">
        <ele>322</ele>
        <time>2016-05-08T07:35:25.000Z</time>
      </trkpt>
      <trkpt lat="47.49102" lon="6.76183">
        <ele>322</ele>
        <time>2016-05-08T07:35:26.000Z</time>
      </trkpt>
      <trkpt lat="47.49102" lon="6.76177">
        <ele>322</ele>
        <time>2016-05-08T07:35:27.000Z</time>
      </trkpt>
      <trkpt lat="47.49102" lon="6.76172">
        <ele>322</ele>
        <time>2016-05-08T07:35:28.000Z</time>
      </trkpt>
      <trkpt lat="47.49102" lon="6.76166">
        <ele>323</ele>
        <time>2016-05-08T07:35:29.000Z</time>
      </trkpt>
      <trkpt lat="47.49103" lon="6.7616">
        <ele>323</ele>
        <time>2016-05-08T07:35:30.000Z</time>
      </trkpt>
      <trkpt lat="47.49103" lon="6.76154">
        <ele>323</ele>
        <time>2016-05-08T07:35:31.000Z</time>
      </trkpt>
      <trkpt lat="47.49102" lon="6.76148">
        <ele>323</ele>
        <time>2016-05-08T07:35:32.000Z</time>
      </trkpt>
      <trkpt lat="47.49102" lon="6.76142">
        <ele>323</ele>
        <time>2016-05-08T07:35:33.000Z</time>
      </trkpt>
      <trkpt lat="47.49102" lon="6.76136">
        <ele>323</ele>
        <time>2016-05-08T07:35:34.000Z</time>
      </trkpt>
      <trkpt lat="47.49101" lon="6.76131">
        <ele>323</ele>
        <time>2016-05-08T07:35:35.000Z</time>
      </trkpt>
      <trkpt lat="47.49101" lon="6.76126">
        <ele>323</ele>
        <time>2016-05-08T07:35:36.000Z</time>
      </trkpt>
      <trkpt lat="47.49101" lon="6.7612">
        <ele>323</ele>
        <time>2016-05-08T07:35:37.000Z</time>
      </trkpt>
      <trkpt lat="47.49101" lon="6.76116">
        <ele>324</ele>
        <time>2016-05-08T07:35:38.000Z</time>
      </trkpt>
      <trkpt lat="47.49101" lon="6.76111">
        <ele>324</ele>
        <time>2016-05-08T07:35:39.000Z</time>
      </trkpt>
      <trkpt lat="47.49101" lon="6.76107">
        <ele>324</ele>
        <time>2016-05-08T07:35:40.000Z</time>
      </trkpt>
      <trkpt lat="47.49101" lon="6.76102">
        <ele>324</ele>
        <time>2016-05-08T07:35:41.000Z</time>
      </trkpt>
      <trkpt lat="47.49101" lon="6.76098">
        <ele>324</ele>
        <time>2016-05-08T07:35:42.000Z</time>
      </trkpt>
      <trkpt lat="47.49101" lon="6.76093">
        <ele>325</ele>
        <time>2016-05-08T07:35:43.000Z</time>
      </trkpt>
      <trkpt lat="47.491" lon="6.76088">
        <ele>325</ele>
        <time>2016-05-08T07:35:44.000Z</time>
      </trkpt>
      <trkpt lat="47.491" lon="6.76083">
        <ele>326</ele>
        <time>2016-05-08T07:35:45.000Z</time>
      </trkpt>
      <trkpt lat="47.49101" lon="6.76077">
        <ele>326</ele>
        <time>2016-05-08T07:35:46.000Z</time>
      </trkpt>
      <trkpt lat="47.49101" lon="6.76072">
        <ele>326</ele>
        <time>2016-05-08T07:35:47.000Z</time>
      </trkpt>
      <trkpt lat="47.49101" lon="6.76067">
        <ele>326</ele>
        <time>2016-05-08T07:35:48.000Z</time>
      </trkpt>
      <trkpt lat="47.49102" lon="6.76061">
        <ele>326</ele>
        <time>2016-05-08T07:35:49.000Z</time>
      </trkpt>
      <trkpt lat="47.49103" lon="6.76054">
        <ele>326</ele>
        <time>2016-05-08T07:35:50.000Z</time>
      </trkpt>
      <trkpt lat="47.49104" lon="6.76047">
        <ele>326</ele>
        <time>2016-05-08T07:35:51.000Z</time>
      </trkpt>
      <trkpt lat="47.49105" lon="6.76039">
        <ele>326</ele>
        <time>2016-05-08T07:35:52.000Z</time>
      </trkpt>
      <trkpt lat="47.49106" lon="6.76032">
        <ele>326</ele>
        <time>2016-05-08T07:35:53.000Z</time>
      </trkpt>
      <trkpt lat="47.49107" lon="6.76025">
        <ele>326</ele>
        <time>2016-05-08T07:35:54.000Z</time>
      </trkpt>
      <trkpt lat="47.49108" lon="6.76019">
        <ele>327</ele>
        <time>2016-05-08T07:35:55.000Z</time>
      </trkpt>
      <trkpt lat="47.4911" lon="6.76014">
        <ele>327</ele>
        <time>2016-05-08T07:35:56.000Z</time>
      </trkpt>
      <trkpt lat="47.49111" lon="6.76009">
        <ele>327</ele>
        <time>2016-05-08T07:35:57.000Z</time>
      </trkpt>
      <trkpt lat="47.49112" lon="6.76004">
        <ele>327</ele>
        <time>2016-05-08T07:35:58.000Z</time>
      </trkpt>
      <trkpt lat="47.49113" lon="6.75998">
        <ele>329</ele>
        <time>2016-05-08T07:35:59.000Z</time>
      </trkpt>
      <trkpt lat="47.49114" lon="6.75993">
        <ele>329</ele>
        <time>2016-05-08T07:36:00.000Z</time>
      </trkpt>
      <trkpt lat="47.49115" lon="6.75987">
        <ele>329</ele>
        <time>2016-05-08T07:36:01.000Z</time>
      </trkpt>
      <trkpt lat="47.49117" lon="6.75982">
        <ele>329</ele>
        <time>2016-05-08T07:36:02.000Z</time>
      </trkpt>
      <trkpt lat="47.49118" lon="6.75977">
        <ele>328</ele>
        <time>2016-05-08T07:36:03.000Z</time>
      </trkpt>
      <trkpt lat="47.49119" lon="6.75973">
        <ele>328</ele>
        <time>2016-05-08T07:36:04.000Z</time>
      </trkpt>
      <trkpt lat="47.4912" lon="6.75968">
        <ele>328</ele>
        <time>2016-05-08T07:36:05.000Z</time>
      </trkpt>
      <trkpt lat="47.49121" lon="6.75964">
        <ele>328</ele>
        <time>2016-05-08T07:36:06.000Z</time>
      </trkpt>
      <trkpt lat="47.49122" lon="6.75959">
        <ele>328</ele>
        <time>2016-05-08T07:36:07.000Z</time>
      </trkpt>
      <trkpt lat="47.49123" lon="6.75955">
        <ele>329</ele>
        <time>2016-05-08T07:36:08.000Z</time>
      </trkpt>
      <trkpt lat="47.49124" lon="6.7595">
        <ele>329</ele>
        <time>2016-05-08T07:36:09.000Z</time>
      </trkpt>
      <trkpt lat="47.49126" lon="6.75946">
        <ele>328</ele>
        <time>2016-05-08T07:36:10.000Z</time>
      </trkpt>
      <trkpt lat="47.49128" lon="6.75941">
        <ele>328</ele>
        <time>2016-05-08T07:36:11.000Z</time>
      </trkpt>
      <trkpt lat="47.4913" lon="6.75936">
        <ele>328</ele>
        <time>2016-05-08T07:36:12.000Z</time>
      </trkpt>
      <trkpt lat="47.49132" lon="6.75931">
        <ele>328</ele>
        <time>2016-05-08T07:36:13.000Z</time>
      </trkpt>
      <trkpt lat="47.49133" lon="6.75926">
        <ele>328</ele>
        <time>2016-05-08T07:36:14.000Z</time>
      </trkpt>
      <trkpt lat="47.49135" lon="6.7592">
        <ele>328</ele>
        <time>2016-05-08T07:36:15.000Z</time>
      </trkpt>
      <trkpt lat="47.49136" lon="6.75915">
        <ele>330</ele>
        <time>2016-05-08T07:36:16.000Z</time>
      </trkpt>
      <trkpt lat="47.49138" lon="6.75909">
        <ele>330</ele>
        <time>2016-05-08T07:36:17.000Z</time>
      </trkpt>
      <trkpt lat="47.49139" lon="6.75903">
        <ele>330</ele>
        <time>2016-05-08T07:36:18.000Z</time>
      </trkpt>
      <trkpt lat="47.49141" lon="6.75897">
        <ele>330</ele>
        <time>2016-05-08T07:36:19.000Z</time>
      </trkpt>
      <trkpt lat="47.49143" lon="6.75891">
        <ele>331</ele>
        <time>2016-05-08T07:36:20.000Z</time>
      </trkpt>
      <trkpt lat="47.49144" lon="6.75885">
        <ele>331</ele>
        <time>2016-05-08T07:36:21.000Z</time>
      </trkpt>
      <trkpt lat="47.49146" lon="6.75879">
        <ele>331</ele>
        <time>2016-05-08T07:36:22.000Z</time>
      </trkpt>
      <trkpt lat="47.49147" lon="6.75873">
        <ele>331</ele>
        <time>2016-05-08T07:36:23.000Z</time>
      </trkpt>
      <trkpt lat="47.49149" lon="6.75866">
        <ele>331</ele>
        <time>2016-05-08T07:36:24.000Z</time>
      </trkpt>
      <trkpt lat="47.49151" lon="6.7586">
        <ele>331</ele>
        <time>2016-05-08T07:36:25.000Z</time>
      </trkpt>
      <trkpt lat="47.49153" lon="6.75852">
        <ele>330</ele>
        <time>2016-05-08T07:36:26.000Z</time>
      </trkpt>
      <trkpt lat="47.49154" lon="6.75844">
        <ele>330</ele>
        <time>2016-05-08T07:36:27.000Z</time>
      </trkpt>
      <trkpt lat="47.49156" lon="6.75836">
        <ele>329</ele>
        <time>2016-05-08T07:36:28.000Z</time>
      </trkpt>
      <trkpt lat="47.49157" lon="6.75831">
        <ele>331</ele>
        <time>2016-05-08T07:36:29.000Z</time>
      </trkpt>
      <trkpt lat="47.49158" lon="6.75821">
        <ele>332</ele>
        <time>2016-05-08T07:36:30.000Z</time>
      </trkpt>
      <trkpt lat="47.4916" lon="6.75813">
        <ele>334</ele>
        <time>2016-05-08T07:36:31.000Z</time>
      </trkpt>
      <trkpt lat="47.49162" lon="6.75805">
        <ele>335</ele>
        <time>2016-05-08T07:36:32.000Z</time>
      </trkpt>
      <trkpt lat="47.49165" lon="6.75797">
        <ele>336</ele>
        <time>2016-05-08T07:36:33.000Z</time>
      </trkpt>
      <trkpt lat="47.49167" lon="6.75789">
        <ele>326</ele>
        <time>2016-05-08T07:36:34.000Z</time>
      </trkpt>
      <trkpt lat="47.4917" lon="6.75782">
        <ele>327</ele>
        <time>2016-05-08T07:36:35.000Z</time>
      </trkpt>
      <trkpt lat="47.49172" lon="6.75774">
        <ele>328</ele>
        <time>2016-05-08T07:36:36.000Z</time>
      </trkpt>
      <trkpt lat="47.49175" lon="6.75766">
        <ele>329</ele>
        <time>2016-05-08T07:36:37.000Z</time>
      </trkpt>
      <trkpt lat="47.49177" lon="6.75759">
        <ele>330</ele>
        <time>2016-05-08T07:36:38.000Z</time>
      </trkpt>
      <trkpt lat="47.49179" lon="6.75751">
        <ele>330</ele>
        <time>2016-05-08T07:36:39.000Z</time>
      </trkpt>
      <trkpt lat="47.49181" lon="6.75744">
        <ele>333</ele>
        <time>2016-05-08T07:36:40.000Z</time>
      </trkpt>
      <trkpt lat="47.49183" lon="6.75736">
        <ele>333</ele>
        <time>2016-05-08T07:36:41.000Z</time>
      </trkpt>
      <trkpt lat="47.49186" lon="6.7573">
        <ele>333</ele>
        <time>2016-05-08T07:36:42.000Z</time>
      </trkpt>
      <trkpt lat="47.49188" lon="6.75723">
        <ele>333</ele>
        <time>2016-05-08T07:36:43.000Z</time>
      </trkpt>
      <trkpt lat="47.4919" lon="6.75716">
        <ele>333</ele>
        <time>2016-05-08T07:36:44.000Z</time>
      </trkpt>
      <trkpt lat="47.49192" lon="6.75709">
        <ele>333</ele>
        <time>2016-05-08T07:36:45.000Z</time>
      </trkpt>
      <trkpt lat="47.49195" lon="6.75702">
        <ele>333</ele>
        <time>2016-05-08T07:36:46.000Z</time>
      </trkpt>
      <trkpt lat="47.49197" lon="6.75694">
        <ele>334</ele>
        <time>2016-05-08T07:36:47.000Z</time>
      </trkpt>
      <trkpt lat="47.49199" lon="6.75687">
        <ele>334</ele>
        <time>2016-05-08T07:36:48.000Z</time>
      </trkpt>
      <trkpt lat="47.49201" lon="6.7568">
        <ele>334</ele>
        <time>2016-05-08T07:36:49.000Z</time>
      </trkpt>
      <trkpt lat="47.49203" lon="6.75674">
        <ele>334</ele>
        <time>2016-05-08T07:36:50.000Z</time>
      </trkpt>
      <trkpt lat="47.49205" lon="6.75668">
        <ele>334</ele>
        <time>2016-05-08T07:36:51.000Z</time>
      </trkpt>
      <trkpt lat="47.49208" lon="6.75662">
        <ele>338</ele>
        <time>2016-05-08T07:36:52.000Z</time>
      </trkpt>
      <trkpt lat="47.4921" lon="6.75655">
        <ele>338</ele>
        <time>2016-05-08T07:36:53.000Z</time>
      </trkpt>
      <trkpt lat="47.49213" lon="6.75648">
        <ele>338</ele>
        <time>2016-05-08T07:36:54.000Z</time>
      </trkpt>
      <trkpt lat="47.49215" lon="6.75641">
        <ele>338</ele>
        <time>2016-05-08T07:36:55.000Z</time>
      </trkpt>
      <trkpt lat="47.49217" lon="6.75634">
        <ele>338</ele>
        <time>2016-05-08T07:36:56.000Z</time>
      </trkpt>
      <trkpt lat="47.49218" lon="6.75627">
        <ele>338</ele>
        <time>2016-05-08T07:36:57.000Z</time>
      </trkpt>
      <trkpt lat="47.4922" lon="6.75621">
        <ele>338</ele>
        <time>2016-05-08T07:36:58.000Z</time>
      </trkpt>
      <trkpt lat="47.49221" lon="6.75615">
        <ele>339</ele>
        <time>2016-05-08T07:36:59.000Z</time>
      </trkpt>
      <trkpt lat="47.49223" lon="6.75609">
        <ele>338</ele>
        <time>2016-05-08T07:37:00.000Z</time>
      </trkpt>
      <trkpt lat="47.49225" lon="6.75603">
        <ele>338</ele>
        <time>2016-05-08T07:37:01.000Z</time>
      </trkpt>
      <trkpt lat="47.49227" lon="6.75597">
        <ele>338</ele>
        <time>2016-05-08T07:37:02.000Z</time>
      </trkpt>
      <trkpt lat="47.49229" lon="6.75591">
        <ele>337</ele>
        <time>2016-05-08T07:37:03.000Z</time>
      </trkpt>
      <trkpt lat="47.49231" lon="6.75586">
        <ele>337</ele>
        <time>2016-05-08T07:37:04.000Z</time>
      </trkpt>
      <trkpt lat="47.49233" lon="6.7558">
        <ele>340</ele>
        <time>2016-05-08T07:37:05.000Z</time>
      </trkpt>
      <trkpt lat="47.49234" lon="6.75574">
        <ele>341</ele>
        <time>2016-05-08T07:37:06.000Z</time>
      </trkpt>
      <trkpt lat="47.49234" lon="6.75568">
        <ele>341</ele>
        <time>2016-05-08T07:37:07.000Z</time>
      </trkpt>
      <trkpt lat="47.49235" lon="6.75561">
        <ele>342</ele>
        <time>2016-05-08T07:37:08.000Z</time>
      </trkpt>
      <trkpt lat="47.49235" lon="6.75554">
        <ele>343</ele>
        <time>2016-05-08T07:37:09.000Z</time>
      </trkpt>
      <trkpt lat="47.49235" lon="6.75547">
        <ele>344</ele>
        <time>2016-05-08T07:37:10.000Z</time>
      </trkpt>
      <trkpt lat="47.49236" lon="6.7554">
        <ele>344</ele>
        <time>2016-05-08T07:37:11.000Z</time>
      </trkpt>
      <trkpt lat="47.49237" lon="6.75535">
        <ele>344</ele>
        <time>2016-05-08T07:37:12.000Z</time>
      </trkpt>
      <trkpt lat="47.49238" lon="6.7553">
        <ele>344</ele>
        <time>2016-05-08T07:37:13.000Z</time>
      </trkpt>
      <trkpt lat="47.4924" lon="6.75524">
        <ele>344</ele>
        <time>2016-05-08T07:37:14.000Z</time>
      </trkpt>
      <trkpt lat="47.49242" lon="6.75517">
        <ele>343</ele>
        <time>2016-05-08T07:37:15.000Z</time>
      </trkpt>
      <trkpt lat="47.49244" lon="6.75511">
        <ele>342</ele>
        <time>2016-05-08T07:37:16.000Z</time>
      </trkpt>
      <trkpt lat="47.49245" lon="6.75505">
        <ele>341</ele>
        <time>2016-05-08T07:37:17.000Z</time>
      </trkpt>
      <trkpt lat="47.49247" lon="6.755">
        <ele>341</ele>
        <time>2016-05-08T07:37:18.000Z</time>
      </trkpt>
      <trkpt lat="47.49247" lon="6.75493">
        <ele>343</ele>
        <time>2016-05-08T07:37:19.000Z</time>
      </trkpt>
      <trkpt lat="47.49247" lon="6.75486">
        <ele>345</ele>
        <time>2016-05-08T07:37:20.000Z</time>
      </trkpt>
      <trkpt lat="47.49247" lon="6.75479">
        <ele>347</ele>
        <time>2016-05-08T07:37:21.000Z</time>
      </trkpt>
      <trkpt lat="47.49247" lon="6.75472">
        <ele>348</ele>
        <time>2016-05-08T07:37:22.000Z</time>
      </trkpt>
      <trkpt lat="47.49247" lon="6.75466">
        <ele>349</ele>
        <time>2016-05-08T07:37:23.000Z</time>
      </trkpt>
      <trkpt lat="47.49246" lon="6.7546">
        <ele>349</ele>
        <time>2016-05-08T07:37:24.000Z</time>
      </trkpt>
      <trkpt lat="47.49246" lon="6.75455">
        <ele>349</ele>
        <time>2016-05-08T07:37:25.000Z</time>
      </trkpt>
      <trkpt lat="47.49246" lon="6.7545">
        <ele>349</ele>
        <time>2016-05-08T07:37:26.000Z</time>
      </trkpt>
      <trkpt lat="47.49246" lon="6.75445">
        <ele>349</ele>
        <time>2016-05-08T07:37:27.000Z</time>
      </trkpt>
      <trkpt lat="47.49247" lon="6.7544">
        <ele>349</ele>
        <time>2016-05-08T07:37:28.000Z</time>
      </trkpt>
      <trkpt lat="47.49247" lon="6.75435">
        <ele>348</ele>
        <time>2016-05-08T07:37:29.000Z</time>
      </trkpt>
      <trkpt lat="47.49248" lon="6.75431">
        <ele>348</ele>
        <time>2016-05-08T07:37:30.000Z</time>
      </trkpt>
      <trkpt lat="47.49249" lon="6.75426">
        <ele>347</ele>
        <time>2016-05-08T07:37:31.000Z</time>
      </trkpt>
      <trkpt lat="47.49249" lon="6.7542">
        <ele>345</ele>
        <time>2016-05-08T07:37:32.000Z</time>
      </trkpt>
      <trkpt lat="47.4925" lon="6.75413">
        <ele>346</ele>
        <time>2016-05-08T07:37:33.000Z</time>
      </trkpt>
      <trkpt lat="47.4925" lon="6.75407">
        <ele>349</ele>
        <time>2016-05-08T07:37:34.000Z</time>
      </trkpt>
      <trkpt lat="47.49251" lon="6.75401">
        <ele>342</ele>
        <time>2016-05-08T07:37:35.000Z</time>
      </trkpt>
      <trkpt lat="47.49252" lon="6.75396">
        <ele>341</ele>
        <time>2016-05-08T07:37:36.000Z</time>
      </trkpt>
      <trkpt lat="47.49253" lon="6.75391">
        <ele>341</ele>
        <time>2016-05-08T07:37:37.000Z</time>
      </trkpt>
      <trkpt lat="47.49255" lon="6.75386">
        <ele>341</ele>
        <time>2016-05-08T07:37:38.000Z</time>
      </trkpt>
      <trkpt lat="47.49257" lon="6.75381">
        <ele>341</ele>
        <time>2016-05-08T07:37:39.000Z</time>
      </trkpt>
      <trkpt lat="47.49259" lon="6.75376">
        <ele>341</ele>
        <time>2016-05-08T07:37:40.000Z</time>
      </trkpt>
      <trkpt lat="47.49262" lon="6.7537">
        <ele>341</ele>
        <time>2016-05-08T07:37:41.000Z</time>
      </trkpt>
      <trkpt lat="47.49264" lon="6.75365">
        <ele>341</ele>
        <time>2016-05-08T07:37:42.000Z</time>
      </trkpt>
      <trkpt lat="47.49266" lon="6.75359">
        <ele>341</ele>
        <time>2016-05-08T07:37:43.000Z</time>
      </trkpt>
      <trkpt lat="47.49268" lon="6.75352">
        <ele>342</ele>
        <time>2016-05-08T07:37:44.000Z</time>
      </trkpt>
      <trkpt lat="47.49269" lon="6.75347">
        <ele>342</ele>
        <time>2016-05-08T07:37:45.000Z</time>
      </trkpt>
      <trkpt lat="47.4927" lon="6.75342">
        <ele>342</ele>
        <time>2016-05-08T07:37:46.000Z</time>
      </trkpt>
      <trkpt lat="47.49272" lon="6.75336">
        <ele>342</ele>
        <time>2016-05-08T07:37:47.000Z</time>
      </trkpt>
      <trkpt lat="47.49273" lon="6.7533">
        <ele>343</ele>
        <time>2016-05-08T07:37:48.000Z</time>
      </trkpt>
      <trkpt lat="47.49274" lon="6.75325">
        <ele>342</ele>
        <time>2016-05-08T07:37:49.000Z</time>
      </trkpt>
      <trkpt lat="47.49274" lon="6.7532">
        <ele>342</ele>
        <time>2016-05-08T07:37:50.000Z</time>
      </trkpt>
      <trkpt lat="47.49275" lon="6.75315">
        <ele>342</ele>
        <time>2016-05-08T07:37:51.000Z</time>
      </trkpt>
      <trkpt lat="47.49275" lon="6.7531">
        <ele>342</ele>
        <time>2016-05-08T07:37:52.000Z</time>
      </trkpt>
      <trkpt lat="47.49276" lon="6.75306">
        <ele>341</ele>
        <time>2016-05-08T07:37:53.000Z</time>
      </trkpt>
      <trkpt lat="47.49276" lon="6.75301">
        <ele>341</ele>
        <time>2016-05-08T07:37:54.000Z</time>
      </trkpt>
      <trkpt lat="47.49276" lon="6.75297">
        <ele>341</ele>
        <time>2016-05-08T07:37:55.000Z</time>
      </trkpt>
      <trkpt lat="47.49277" lon="6.75292">
        <ele>341</ele>
        <time>2016-05-08T07:37:56.000Z</time>
      </trkpt>
      <trkpt lat="47.49277" lon="6.75288">
        <ele>341</ele>
        <time>2016-05-08T07:37:57.000Z</time>
      </trkpt>
      <trkpt lat="47.49277" lon="6.75283">
        <ele>341</ele>
        <time>2016-05-08T07:37:58.000Z</time>
      </trkpt>
      <trkpt lat="47.49277" lon="6.75278">
        <ele>341</ele>
        <time>2016-05-08T07:37:59.000Z</time>
      </trkpt>
      <trkpt lat="47.49278" lon="6.75273">
        <ele>342</ele>
        <time>2016-05-08T07:38:00.000Z</time>
      </trkpt>
      <trkpt lat="47.49279" lon="6.75268">
        <ele>342</ele>
        <time>2016-05-08T07:38:01.000Z</time>
      </trkpt>
      <trkpt lat="47.49279" lon="6.75263">
        <ele>342</ele>
        <time>2016-05-08T07:38:02.000Z</time>
      </trkpt>
      <trkpt lat="47.49279" lon="6.75259">
        <ele>342</ele>
        <time>2016-05-08T07:38:03.000Z</time>
      </trkpt>
      <trkpt lat="47.4928" lon="6.75254">
        <ele>342</ele>
        <time>2016-05-08T07:38:04.000Z</time>
      </trkpt>
      <trkpt lat="47.49279" lon="6.7525">
        <ele>344</ele>
        <time>2016-05-08T07:38:05.000Z</time>
      </trkpt>
      <trkpt lat="47.49279" lon="6.75245">
        <ele>344</ele>
        <time>2016-05-08T07:38:06.000Z</time>
      </trkpt>
      <trkpt lat="47.49279" lon="6.75239">
        <ele>344</ele>
        <time>2016-05-08T07:38:07.000Z</time>
      </trkpt>
      <trkpt lat="47.4928" lon="6.75233">
        <ele>344</ele>
        <time>2016-05-08T07:38:08.000Z</time>
      </trkpt>
      <trkpt lat="47.4928" lon="6.75228">
        <ele>344</ele>
        <time>2016-05-08T07:38:09.000Z</time>
      </trkpt>
      <trkpt lat="47.4928" lon="6.75223">
        <ele>344</ele>
        <time>2016-05-08T07:38:10.000Z</time>
      </trkpt>
      <trkpt lat="47.49281" lon="6.75219">
        <ele>344</ele>
        <time>2016-05-08T07:38:11.000Z</time>
      </trkpt>
      <trkpt lat="47.49281" lon="6.75216">
        <ele>344</ele>
        <time>2016-05-08T07:38:12.000Z</time>
      </trkpt>
      <trkpt lat="47.49282" lon="6.75211">
        <ele>344</ele>
        <time>2016-05-08T07:38:13.000Z</time>
      </trkpt>
      <trkpt lat="47.49282" lon="6.75207">
        <ele>344</ele>
        <time>2016-05-08T07:38:14.000Z</time>
      </trkpt>
      <trkpt lat="47.49282" lon="6.75201">
        <ele>344</ele>
        <time>2016-05-08T07:38:15.000Z</time>
      </trkpt>
      <trkpt lat="47.49282" lon="6.75196">
        <ele>344</ele>
        <time>2016-05-08T07:38:16.000Z</time>
      </trkpt>
      <trkpt lat="47.49282" lon="6.7519">
        <ele>345</ele>
        <time>2016-05-08T07:38:17.000Z</time>
      </trkpt>
      <trkpt lat="47.49281" lon="6.75184">
        <ele>345</ele>
        <time>2016-05-08T07:38:18.000Z</time>
      </trkpt>
      <trkpt lat="47.49281" lon="6.75178">
        <ele>345</ele>
        <time>2016-05-08T07:38:19.000Z</time>
      </trkpt>
      <trkpt lat="47.49281" lon="6.75173">
        <ele>346</ele>
        <time>2016-05-08T07:38:20.000Z</time>
      </trkpt>
      <trkpt lat="47.4928" lon="6.75168">
        <ele>346</ele>
        <time>2016-05-08T07:38:21.000Z</time>
      </trkpt>
      <trkpt lat="47.4928" lon="6.75164">
        <ele>348</ele>
        <time>2016-05-08T07:38:22.000Z</time>
      </trkpt>
      <trkpt lat="47.4928" lon="6.7516">
        <ele>348</ele>
        <time>2016-05-08T07:38:23.000Z</time>
      </trkpt>
      <trkpt lat="47.4928" lon="6.75156">
        <ele>348</ele>
        <time>2016-05-08T07:38:24.000Z</time>
      </trkpt>
      <trkpt lat="47.4928" lon="6.7515">
        <ele>348</ele>
        <time>2016-05-08T07:38:25.000Z</time>
      </trkpt>
      <trkpt lat="47.4928" lon="6.75145">
        <ele>348</ele>
        <time>2016-05-08T07:38:26.000Z</time>
      </trkpt>
      <trkpt lat="47.49281" lon="6.7514">
        <ele>348</ele>
        <time>2016-05-08T07:38:27.000Z</time>
      </trkpt>
      <trkpt lat="47.4928" lon="6.75135">
        <ele>348</ele>
        <time>2016-05-08T07:38:28.000Z</time>
      </trkpt>
      <trkpt lat="47.4928" lon="6.7513">
        <ele>348</ele>
        <time>2016-05-08T07:38:29.000Z</time>
      </trkpt>
      <trkpt lat="47.4928" lon="6.75125">
        <ele>348</ele>
        <time>2016-05-08T07:38:30.000Z</time>
      </trkpt>
      <trkpt lat="47.4928" lon="6.75119">
        <ele>349</ele>
        <time>2016-05-08T07:38:31.000Z</time>
      </trkpt>
      <trkpt lat="47.4928" lon="6.75114">
        <ele>349</ele>
        <time>2016-05-08T07:38:32.000Z</time>
      </trkpt>
      <trkpt lat="47.49281" lon="6.75108">
        <ele>349</ele>
        <time>2016-05-08T07:38:33.000Z</time>
      </trkpt>
      <trkpt lat="47.49282" lon="6.75102">
        <ele>349</ele>
        <time>2016-05-08T07:38:34.000Z</time>
      </trkpt>
      <trkpt lat="47.49284" lon="6.75095">
        <ele>349</ele>
        <time>2016-05-08T07:38:35.000Z</time>
      </trkpt>
      <trkpt lat="47.4929" lon="6.75081">
        <ele>350</ele>
        <time>2016-05-08T07:38:37.000Z</time>
      </trkpt>
      <trkpt lat="47.49294" lon="6.75075">
        <ele>350</ele>
        <time>2016-05-08T07:38:38.000Z</time>
      </trkpt>
      <trkpt lat="47.49305" lon="6.75062">
        <ele>348</ele>
        <time>2016-05-08T07:38:39.000Z</time>
      </trkpt>
      <trkpt lat="47.49311" lon="6.75055">
        <ele>348</ele>
        <time>2016-05-08T07:38:40.000Z</time>
      </trkpt>
      <trkpt lat="47.49315" lon="6.75049">
        <ele>348</ele>
        <time>2016-05-08T07:38:41.000Z</time>
      </trkpt>
      <trkpt lat="47.49318" lon="6.75042">
        <ele>348</ele>
        <time>2016-05-08T07:38:42.000Z</time>
      </trkpt>
      <trkpt lat="47.49322" lon="6.75036">
        <ele>348</ele>
        <time>2016-05-08T07:38:43.000Z</time>
      </trkpt>
      <trkpt lat="47.49324" lon="6.7503">
        <ele>348</ele>
        <time>2016-05-08T07:38:44.000Z</time>
      </trkpt>
      <trkpt lat="47.49326" lon="6.75025">
        <ele>347</ele>
        <time>2016-05-08T07:38:45.000Z</time>
      </trkpt>
      <trkpt lat="47.49327" lon="6.75021">
        <ele>347</ele>
        <time>2016-05-08T07:38:46.000Z</time>
      </trkpt>
      <trkpt lat="47.49328" lon="6.75018">
        <ele>347</ele>
        <time>2016-05-08T07:38:47.000Z</time>
      </trkpt>
      <trkpt lat="47.49329" lon="6.75012">
        <ele>346</ele>
        <time>2016-05-08T07:38:48.000Z</time>
      </trkpt>
      <trkpt lat="47.49331" lon="6.75007">
        <ele>345</ele>
        <time>2016-05-08T07:38:49.000Z</time>
      </trkpt>
      <trkpt lat="47.49332" lon="6.75003">
        <ele>344</ele>
        <time>2016-05-08T07:38:50.000Z</time>
      </trkpt>
      <trkpt lat="47.49333" lon="6.74998">
        <ele>344</ele>
        <time>2016-05-08T07:38:52.000Z</time>
      </trkpt>
      <trkpt lat="47.49333" lon="6.74995">
        <ele>345</ele>
        <time>2016-05-08T07:38:53.000Z</time>
      </trkpt>
      <trkpt lat="47.49333" lon="6.74989">
        <ele>347</ele>
        <time>2016-05-08T07:38:55.000Z</time>
      </trkpt>
      <trkpt lat="47.49332" lon="6.74985">
        <ele>348</ele>
        <time>2016-05-08T07:38:56.000Z</time>
      </trkpt>
      <trkpt lat="47.49332" lon="6.7498">
        <ele>350</ele>
        <time>2016-05-08T07:38:58.000Z</time>
      </trkpt>
      <trkpt lat="47.49332" lon="6.74977">
        <ele>350</ele>
        <time>2016-05-08T07:38:59.000Z</time>
      </trkpt>
      <trkpt lat="47.49332" lon="6.74972">
        <ele>351</ele>
        <time>2016-05-08T07:39:01.000Z</time>
      </trkpt>
      <trkpt lat="47.49332" lon="6.7497">
        <ele>351</ele>
        <time>2016-05-08T07:39:02.000Z</time>
      </trkpt>
      <trkpt lat="47.49331" lon="6.74964">
        <ele>352</ele>
        <time>2016-05-08T07:39:05.000Z</time>
      </trkpt>
      <trkpt lat="47.49331" lon="6.74962">
        <ele>352</ele>
        <time>2016-05-08T07:39:06.000Z</time>
      </trkpt>
      <trkpt lat="47.4933" lon="6.74957">
        <ele>352</ele>
        <time>2016-05-08T07:39:08.000Z</time>
      </trkpt>
      <trkpt lat="47.49329" lon="6.74954">
        <ele>352</ele>
        <time>2016-05-08T07:39:09.000Z</time>
      </trkpt>
      <trkpt lat="47.49329" lon="6.74951">
        <ele>352</ele>
        <time>2016-05-08T07:39:10.000Z</time>
      </trkpt>
      <trkpt lat="47.49329" lon="6.74947">
        <ele>352</ele>
        <time>2016-05-08T07:39:11.000Z</time>
      </trkpt>
      <trkpt lat="47.49328" lon="6.74942">
        <ele>352</ele>
        <time>2016-05-08T07:39:13.000Z</time>
      </trkpt>
      <trkpt lat="47.49328" lon="6.7494">
        <ele>352</ele>
        <time>2016-05-08T07:39:14.000Z</time>
      </trkpt>
      <trkpt lat="47.49327" lon="6.74933">
        <ele>352</ele>
        <time>2016-05-08T07:39:17.000Z</time>
      </trkpt>
      <trkpt lat="47.49328" lon="6.74929">
        <ele>351</ele>
        <time>2016-05-08T07:39:18.000Z</time>
      </trkpt>
      <trkpt lat="47.49329" lon="6.74925">
        <ele>350</ele>
        <time>2016-05-08T07:39:19.000Z</time>
      </trkpt>
      <trkpt lat="47.49329" lon="6.7492">
        <ele>349</ele>
        <time>2016-05-08T07:39:20.000Z</time>
      </trkpt>
      <trkpt lat="47.4933" lon="6.74914">
        <ele>350</ele>
        <time>2016-05-08T07:39:21.000Z</time>
      </trkpt>
      <trkpt lat="47.49332" lon="6.74908">
        <ele>351</ele>
        <time>2016-05-08T07:39:22.000Z</time>
      </trkpt>
      <trkpt lat="47.49334" lon="6.749">
        <ele>345</ele>
        <time>2016-05-08T07:39:23.000Z</time>
      </trkpt>
      <trkpt lat="47.49348" lon="6.74884">
        <ele>343</ele>
        <time>2016-05-08T07:39:24.000Z</time>
      </trkpt>
      <trkpt lat="47.49351" lon="6.74879">
        <ele>343</ele>
        <time>2016-05-08T07:39:25.000Z</time>
      </trkpt>
      <trkpt lat="47.49354" lon="6.74876">
        <ele>343</ele>
        <time>2016-05-08T07:39:26.000Z</time>
      </trkpt>
      <trkpt lat="47.49355" lon="6.74872">
        <ele>343</ele>
        <time>2016-05-08T07:39:27.000Z</time>
      </trkpt>
      <trkpt lat="47.49357" lon="6.74868">
        <ele>343</ele>
        <time>2016-05-08T07:39:28.000Z</time>
      </trkpt>
      <trkpt lat="47.49359" lon="6.74862">
        <ele>343</ele>
        <time>2016-05-08T07:39:29.000Z</time>
      </trkpt>
      <trkpt lat="47.49362" lon="6.74854">
        <ele>343</ele>
        <time>2016-05-08T07:39:30.000Z</time>
      </trkpt>
      <trkpt lat="47.49364" lon="6.74848">
        <ele>342</ele>
        <time>2016-05-08T07:39:31.000Z</time>
      </trkpt>
      <trkpt lat="47.49366" lon="6.74841">
        <ele>342</ele>
        <time>2016-05-08T07:39:32.000Z</time>
      </trkpt>
      <trkpt lat="47.49369" lon="6.74835">
        <ele>342</ele>
        <time>2016-05-08T07:39:33.000Z</time>
      </trkpt>
      <trkpt lat="47.49369" lon="6.74831">
        <ele>344</ele>
        <time>2016-05-08T07:39:34.000Z</time>
      </trkpt>
      <trkpt lat="47.49371" lon="6.74826">
        <ele>344</ele>
        <time>2016-05-08T07:39:35.000Z</time>
      </trkpt>
      <trkpt lat="47.49372" lon="6.74821">
        <ele>344</ele>
        <time>2016-05-08T07:39:36.000Z</time>
      </trkpt>
      <trkpt lat="47.49373" lon="6.74815">
        <ele>344</ele>
        <time>2016-05-08T07:39:37.000Z</time>
      </trkpt>
      <trkpt lat="47.49374" lon="6.74808">
        <ele>344</ele>
        <time>2016-05-08T07:39:38.000Z</time>
      </trkpt>
      <trkpt lat="47.49374" lon="6.74802">
        <ele>344</ele>
        <time>2016-05-08T07:39:39.000Z</time>
      </trkpt>
      <trkpt lat="47.49375" lon="6.74795">
        <ele>344</ele>
        <time>2016-05-08T07:39:40.000Z</time>
      </trkpt>
      <trkpt lat="47.49377" lon="6.74787">
        <ele>344</ele>
        <time>2016-05-08T07:39:41.000Z</time>
      </trkpt>
      <trkpt lat="47.49377" lon="6.74779">
        <ele>344</ele>
        <time>2016-05-08T07:39:42.000Z</time>
      </trkpt>
      <trkpt lat="47.49379" lon="6.74771">
        <ele>345</ele>
        <time>2016-05-08T07:39:43.000Z</time>
      </trkpt>
      <trkpt lat="47.4938" lon="6.74763">
        <ele>345</ele>
        <time>2016-05-08T07:39:44.000Z</time>
      </trkpt>
      <trkpt lat="47.4938" lon="6.74755">
        <ele>345</ele>
        <time>2016-05-08T07:39:45.000Z</time>
      </trkpt>
      <trkpt lat="47.49381" lon="6.74747">
        <ele>347</ele>
        <time>2016-05-08T07:39:46.000Z</time>
      </trkpt>
      <trkpt lat="47.49382" lon="6.74739">
        <ele>347</ele>
        <time>2016-05-08T07:39:47.000Z</time>
      </trkpt>
      <trkpt lat="47.49383" lon="6.74731">
        <ele>347</ele>
        <time>2016-05-08T07:39:48.000Z</time>
      </trkpt>
      <trkpt lat="47.49383" lon="6.74723">
        <ele>347</ele>
        <time>2016-05-08T07:39:49.000Z</time>
      </trkpt>
      <trkpt lat="47.49384" lon="6.74716">
        <ele>348</ele>
        <time>2016-05-08T07:39:50.000Z</time>
      </trkpt>
      <trkpt lat="47.49384" lon="6.74709">
        <ele>348</ele>
        <time>2016-05-08T07:39:51.000Z</time>
      </trkpt>
      <trkpt lat="47.49383" lon="6.74702">
        <ele>348</ele>
        <time>2016-05-08T07:39:52.000Z</time>
      </trkpt>
      <trkpt lat="47.49383" lon="6.74694">
        <ele>348</ele>
        <time>2016-05-08T07:39:53.000Z</time>
      </trkpt>
      <trkpt lat="47.49382" lon="6.74686">
        <ele>348</ele>
        <time>2016-05-08T07:39:54.000Z</time>
      </trkpt>
      <trkpt lat="47.49381" lon="6.74679">
        <ele>348</ele>
        <time>2016-05-08T07:39:55.000Z</time>
      </trkpt>
      <trkpt lat="47.49381" lon="6.74672">
        <ele>348</ele>
        <time>2016-05-08T07:39:56.000Z</time>
      </trkpt>
      <trkpt lat="47.4938" lon="6.74666">
        <ele>349</ele>
        <time>2016-05-08T07:39:57.000Z</time>
      </trkpt>
      <trkpt lat="47.4938" lon="6.7466">
        <ele>349</ele>
        <time>2016-05-08T07:39:58.000Z</time>
      </trkpt>
      <trkpt lat="47.4938" lon="6.74654">
        <ele>350</ele>
        <time>2016-05-08T07:39:59.000Z</time>
      </trkpt>
      <trkpt lat="47.49381" lon="6.74647">
        <ele>349</ele>
        <time>2016-05-08T07:40:00.000Z</time>
      </trkpt>
      <trkpt lat="47.49382" lon="6.7464">
        <ele>349</ele>
        <time>2016-05-08T07:40:01.000Z</time>
      </trkpt>
      <trkpt lat="47.49383" lon="6.74634">
        <ele>349</ele>
        <time>2016-05-08T07:40:02.000Z</time>
      </trkpt>
      <trkpt lat="47.49384" lon="6.74627">
        <ele>349</ele>
        <time>2016-05-08T07:40:03.000Z</time>
      </trkpt>
      <trkpt lat="47.49386" lon="6.7462">
        <ele>349</ele>
        <time>2016-05-08T07:40:04.000Z</time>
      </trkpt>
      <trkpt lat="47.49387" lon="6.74613">
        <ele>349</ele>
        <time>2016-05-08T07:40:05.000Z</time>
      </trkpt>
      <trkpt lat="47.49388" lon="6.74607">
        <ele>349</ele>
        <time>2016-05-08T07:40:06.000Z</time>
      </trkpt>
      <trkpt lat="47.49389" lon="6.74601">
        <ele>349</ele>
        <time>2016-05-08T07:40:07.000Z</time>
      </trkpt>
      <trkpt lat="47.49389" lon="6.74594">
        <ele>349</ele>
        <time>2016-05-08T07:40:08.000Z</time>
      </trkpt>
      <trkpt lat="47.49388" lon="6.74589">
        <ele>349</ele>
        <time>2016-05-08T07:40:09.000Z</time>
      </trkpt>
      <trkpt lat="47.49388" lon="6.74584">
        <ele>349</ele>
        <time>2016-05-08T07:40:10.000Z</time>
      </trkpt>
      <trkpt lat="47.49387" lon="6.74579">
        <ele>350</ele>
        <time>2016-05-08T07:40:11.000Z</time>
      </trkpt>
      <trkpt lat="47.49387" lon="6.74574">
        <ele>350</ele>
        <time>2016-05-08T07:40:12.000Z</time>
      </trkpt>
      <trkpt lat="47.49387" lon="6.74569">
        <ele>351</ele>
        <time>2016-05-08T07:40:13.000Z</time>
      </trkpt>
      <trkpt lat="47.49387" lon="6.74565">
        <ele>351</ele>
        <time>2016-05-08T07:40:14.000Z</time>
      </trkpt>
      <trkpt lat="47.49387" lon="6.74559">
        <ele>351</ele>
        <time>2016-05-08T07:40:15.000Z</time>
      </trkpt>
      <trkpt lat="47.49388" lon="6.74554">
        <ele>351</ele>
        <time>2016-05-08T07:40:16.000Z</time>
      </trkpt>
      <trkpt lat="47.49389" lon="6.74548">
        <ele>351</ele>
        <time>2016-05-08T07:40:17.000Z</time>
      </trkpt>
      <trkpt lat="47.4939" lon="6.74542">
        <ele>351</ele>
        <time>2016-05-08T07:40:18.000Z</time>
      </trkpt>
      <trkpt lat="47.4939" lon="6.74536">
        <ele>351</ele>
        <time>2016-05-08T07:40:19.000Z</time>
      </trkpt>
      <trkpt lat="47.49391" lon="6.74529">
        <ele>351</ele>
        <time>2016-05-08T07:40:20.000Z</time>
      </trkpt>
      <trkpt lat="47.49392" lon="6.74522">
        <ele>351</ele>
        <time>2016-05-08T07:40:21.000Z</time>
      </trkpt>
      <trkpt lat="47.49392" lon="6.74516">
        <ele>351</ele>
        <time>2016-05-08T07:40:22.000Z</time>
      </trkpt>
      <trkpt lat="47.49392" lon="6.7451">
        <ele>351</ele>
        <time>2016-05-08T07:40:23.000Z</time>
      </trkpt>
      <trkpt lat="47.49391" lon="6.74504">
        <ele>351</ele>
        <time>2016-05-08T07:40:24.000Z</time>
      </trkpt>
      <trkpt lat="47.49391" lon="6.74499">
        <ele>352</ele>
        <time>2016-05-08T07:40:25.000Z</time>
      </trkpt>
      <trkpt lat="47.49391" lon="6.74494">
        <ele>352</ele>
        <time>2016-05-08T07:40:26.000Z</time>
      </trkpt>
      <trkpt lat="47.49391" lon="6.74489">
        <ele>353</ele>
        <time>2016-05-08T07:40:27.000Z</time>
      </trkpt>
      <trkpt lat="47.49391" lon="6.74483">
        <ele>353</ele>
        <time>2016-05-08T07:40:28.000Z</time>
      </trkpt>
      <trkpt lat="47.4939" lon="6.74477">
        <ele>353</ele>
        <time>2016-05-08T07:40:29.000Z</time>
      </trkpt>
      <trkpt lat="47.4939" lon="6.74472">
        <ele>353</ele>
        <time>2016-05-08T07:40:30.000Z</time>
      </trkpt>
      <trkpt lat="47.49391" lon="6.74467">
        <ele>353</ele>
        <time>2016-05-08T07:40:31.000Z</time>
      </trkpt>
      <trkpt lat="47.49392" lon="6.74462">
        <ele>353</ele>
        <time>2016-05-08T07:40:32.000Z</time>
      </trkpt>
      <trkpt lat="47.49393" lon="6.74456">
        <ele>353</ele>
        <time>2016-05-08T07:40:33.000Z</time>
      </trkpt>
      <trkpt lat="47.49394" lon="6.74451">
        <ele>353</ele>
        <time>2016-05-08T07:40:34.000Z</time>
      </trkpt>
      <trkpt lat="47.49396" lon="6.74446">
        <ele>353</ele>
        <time>2016-05-08T07:40:35.000Z</time>
      </trkpt>
      <trkpt lat="47.49397" lon="6.74441">
        <ele>352</ele>
        <time>2016-05-08T07:40:36.000Z</time>
      </trkpt>
      <trkpt lat="47.49398" lon="6.74437">
        <ele>352</ele>
        <time>2016-05-08T07:40:37.000Z</time>
      </trkpt>
      <trkpt lat="47.49398" lon="6.74432">
        <ele>352</ele>
        <time>2016-05-08T07:40:38.000Z</time>
      </trkpt>
      <trkpt lat="47.49398" lon="6.74427">
        <ele>351</ele>
        <time>2016-05-08T07:40:39.000Z</time>
      </trkpt>
      <trkpt lat="47.49398" lon="6.7442">
        <ele>351</ele>
        <time>2016-05-08T07:40:40.000Z</time>
      </trkpt>
      <trkpt lat="47.49398" lon="6.74414">
        <ele>351</ele>
        <time>2016-05-08T07:40:41.000Z</time>
      </trkpt>
      <trkpt lat="47.49397" lon="6.74407">
        <ele>352</ele>
        <time>2016-05-08T07:40:42.000Z</time>
      </trkpt>
      <trkpt lat="47.49397" lon="6.74401">
        <ele>352</ele>
        <time>2016-05-08T07:40:43.000Z</time>
      </trkpt>
      <trkpt lat="47.49397" lon="6.74396">
        <ele>352</ele>
        <time>2016-05-08T07:40:44.000Z</time>
      </trkpt>
      <trkpt lat="47.49396" lon="6.7439">
        <ele>353</ele>
        <time>2016-05-08T07:40:45.000Z</time>
      </trkpt>
      <trkpt lat="47.49396" lon="6.74385">
        <ele>353</ele>
        <time>2016-05-08T07:40:46.000Z</time>
      </trkpt>
      <trkpt lat="47.49397" lon="6.74379">
        <ele>353</ele>
        <time>2016-05-08T07:40:47.000Z</time>
      </trkpt>
      <trkpt lat="47.49397" lon="6.74373">
        <ele>353</ele>
        <time>2016-05-08T07:40:48.000Z</time>
      </trkpt>
      <trkpt lat="47.49397" lon="6.74367">
        <ele>353</ele>
        <time>2016-05-08T07:40:49.000Z</time>
      </trkpt>
      <trkpt lat="47.49397" lon="6.74361">
        <ele>353</ele>
        <time>2016-05-08T07:40:50.000Z</time>
      </trkpt>
      <trkpt lat="47.49398" lon="6.74355">
        <ele>352</ele>
        <time>2016-05-08T07:40:51.000Z</time>
      </trkpt>
      <trkpt lat="47.49398" lon="6.7435">
        <ele>352</ele>
        <time>2016-05-08T07:40:52.000Z</time>
      </trkpt>
      <trkpt lat="47.49397" lon="6.74345">
        <ele>352</ele>
        <time>2016-05-08T07:40:53.000Z</time>
      </trkpt>
      <trkpt lat="47.49397" lon="6.7434">
        <ele>351</ele>
        <time>2016-05-08T07:40:54.000Z</time>
      </trkpt>
      <trkpt lat="47.49396" lon="6.74335">
        <ele>351</ele>
        <time>2016-05-08T07:40:55.000Z</time>
      </trkpt>
      <trkpt lat="47.49395" lon="6.7433">
        <ele>352</ele>
        <time>2016-05-08T07:40:56.000Z</time>
      </trkpt>
      <trkpt lat="47.49394" lon="6.74325">
        <ele>353</ele>
        <time>2016-05-08T07:40:57.000Z</time>
      </trkpt>
      <trkpt lat="47.49393" lon="6.74319">
        <ele>353</ele>
        <time>2016-05-08T07:40:58.000Z</time>
      </trkpt>
      <trkpt lat="47.49393" lon="6.74314">
        <ele>353</ele>
        <time>2016-05-08T07:40:59.000Z</time>
      </trkpt>
      <trkpt lat="47.49393" lon="6.74308">
        <ele>354</ele>
        <time>2016-05-08T07:41:00.000Z</time>
      </trkpt>
      <trkpt lat="47.49394" lon="6.74302">
        <ele>354</ele>
        <time>2016-05-08T07:41:01.000Z</time>
      </trkpt>
      <trkpt lat="47.49394" lon="6.74296">
        <ele>354</ele>
        <time>2016-05-08T07:41:02.000Z</time>
      </trkpt>
      <trkpt lat="47.49395" lon="6.74291">
        <ele>354</ele>
        <time>2016-05-08T07:41:03.000Z</time>
      </trkpt>
      <trkpt lat="47.49396" lon="6.74285">
        <ele>354</ele>
        <time>2016-05-08T07:41:04.000Z</time>
      </trkpt>
      <trkpt lat="47.49398" lon="6.74278">
        <ele>353</ele>
        <time>2016-05-08T07:41:05.000Z</time>
      </trkpt>
      <trkpt lat="47.494" lon="6.74271">
        <ele>352</ele>
        <time>2016-05-08T07:41:06.000Z</time>
      </trkpt>
      <trkpt lat="47.49403" lon="6.74263">
        <ele>351</ele>
        <time>2016-05-08T07:41:07.000Z</time>
      </trkpt>
      <trkpt lat="47.49404" lon="6.74256">
        <ele>349</ele>
        <time>2016-05-08T07:41:08.000Z</time>
      </trkpt>
      <trkpt lat="47.49405" lon="6.74249">
        <ele>349</ele>
        <time>2016-05-08T07:41:09.000Z</time>
      </trkpt>
      <trkpt lat="47.49406" lon="6.74242">
        <ele>350</ele>
        <time>2016-05-08T07:41:10.000Z</time>
      </trkpt>
      <trkpt lat="47.49407" lon="6.74236">
        <ele>351</ele>
        <time>2016-05-08T07:41:11.000Z</time>
      </trkpt>
      <trkpt lat="47.49407" lon="6.74231">
        <ele>352</ele>
        <time>2016-05-08T07:41:12.000Z</time>
      </trkpt>
      <trkpt lat="47.49407" lon="6.74225">
        <ele>352</ele>
        <time>2016-05-08T07:41:13.000Z</time>
      </trkpt>
      <trkpt lat="47.49408" lon="6.7422">
        <ele>353</ele>
        <time>2016-05-08T07:41:14.000Z</time>
      </trkpt>
      <trkpt lat="47.49409" lon="6.74214">
        <ele>353</ele>
        <time>2016-05-08T07:41:15.000Z</time>
      </trkpt>
      <trkpt lat="47.4941" lon="6.74208">
        <ele>353</ele>
        <time>2016-05-08T07:41:16.000Z</time>
      </trkpt>
      <trkpt lat="47.4941" lon="6.74201">
        <ele>353</ele>
        <time>2016-05-08T07:41:17.000Z</time>
      </trkpt>
      <trkpt lat="47.49411" lon="6.74195">
        <ele>353</ele>
        <time>2016-05-08T07:41:18.000Z</time>
      </trkpt>
      <trkpt lat="47.49412" lon="6.74189">
        <ele>352</ele>
        <time>2016-05-08T07:41:19.000Z</time>
      </trkpt>
      <trkpt lat="47.49412" lon="6.74183">
        <ele>351</ele>
        <time>2016-05-08T07:41:20.000Z</time>
      </trkpt>
      <trkpt lat="47.49412" lon="6.74178">
        <ele>350</ele>
        <time>2016-05-08T07:41:21.000Z</time>
      </trkpt>
      <trkpt lat="47.49413" lon="6.74173">
        <ele>348</ele>
        <time>2016-05-08T07:41:22.000Z</time>
      </trkpt>
      <trkpt lat="47.49414" lon="6.74167">
        <ele>346</ele>
        <time>2016-05-08T07:41:23.000Z</time>
      </trkpt>
      <trkpt lat="47.49415" lon="6.74162">
        <ele>347</ele>
        <time>2016-05-08T07:41:24.000Z</time>
      </trkpt>
      <trkpt lat="47.49416" lon="6.74156">
        <ele>349</ele>
        <time>2016-05-08T07:41:25.000Z</time>
      </trkpt>
      <trkpt lat="47.49417" lon="6.74151">
        <ele>351</ele>
        <time>2016-05-08T07:41:26.000Z</time>
      </trkpt>
      <trkpt lat="47.49416" lon="6.74147">
        <ele>351</ele>
        <time>2016-05-08T07:41:27.000Z</time>
      </trkpt>
      <trkpt lat="47.49416" lon="6.74142">
        <ele>352</ele>
        <time>2016-05-08T07:41:28.000Z</time>
      </trkpt>
      <trkpt lat="47.49415" lon="6.74139">
        <ele>353</ele>
        <time>2016-05-08T07:41:29.000Z</time>
      </trkpt>
      <trkpt lat="47.49414" lon="6.74135">
        <ele>353</ele>
        <time>2016-05-08T07:41:30.000Z</time>
      </trkpt>
      <trkpt lat="47.49414" lon="6.74131">
        <ele>353</ele>
        <time>2016-05-08T07:41:31.000Z</time>
      </trkpt>
      <trkpt lat="47.49413" lon="6.74128">
        <ele>353</ele>
        <time>2016-05-08T07:41:32.000Z</time>
      </trkpt>
      <trkpt lat="47.49414" lon="6.74123">
        <ele>353</ele>
        <time>2016-05-08T07:41:34.000Z</time>
      </trkpt>
      <trkpt lat="47.49414" lon="6.74119">
        <ele>353</ele>
        <time>2016-05-08T07:41:35.000Z</time>
      </trkpt>
      <trkpt lat="47.49414" lon="6.74116">
        <ele>353</ele>
        <time>2016-05-08T07:41:36.000Z</time>
      </trkpt>
      <trkpt lat="47.49413" lon="6.74112">
        <ele>353</ele>
        <time>2016-05-08T07:41:37.000Z</time>
      </trkpt>
      <trkpt lat="47.49413" lon="6.74108">
        <ele>353</ele>
        <time>2016-05-08T07:41:38.000Z</time>
      </trkpt>
      <trkpt lat="47.49412" lon="6.74105">
        <ele>353</ele>
        <time>2016-05-08T07:41:39.000Z</time>
      </trkpt>
      <trkpt lat="47.4941" lon="6.741">
        <ele>352</ele>
        <time>2016-05-08T07:41:41.000Z</time>
      </trkpt>
      <trkpt lat="47.49409" lon="6.74097">
        <ele>352</ele>
        <time>2016-05-08T07:41:42.000Z</time>
      </trkpt>
      <trkpt lat="47.49407" lon="6.74093">
        <ele>351</ele>
        <time>2016-05-08T07:41:44.000Z</time>
      </trkpt>
      <trkpt lat="47.49406" lon="6.7409">
        <ele>351</ele>
        <time>2016-05-08T07:41:45.000Z</time>
      </trkpt>
      <trkpt lat="47.49406" lon="6.74085">
        <ele>351</ele>
        <time>2016-05-08T07:41:47.000Z</time>
      </trkpt>
      <trkpt lat="47.49406" lon="6.74083">
        <ele>350</ele>
        <time>2016-05-08T07:41:48.000Z</time>
      </trkpt>
      <trkpt lat="47.49405" lon="6.74079">
        <ele>351</ele>
        <time>2016-05-08T07:41:49.000Z</time>
      </trkpt>
      <trkpt lat="47.49404" lon="6.74076">
        <ele>351</ele>
        <time>2016-05-08T07:41:50.000Z</time>
      </trkpt>
      <trkpt lat="47.49403" lon="6.74072">
        <ele>352</ele>
        <time>2016-05-08T07:41:51.000Z</time>
      </trkpt>
      <trkpt lat="47.49401" lon="6.74068">
        <ele>353</ele>
        <time>2016-05-08T07:41:52.000Z</time>
      </trkpt>
      <trkpt lat="47.494" lon="6.74064">
        <ele>353</ele>
        <time>2016-05-08T07:41:53.000Z</time>
      </trkpt>
      <trkpt lat="47.494" lon="6.7406">
        <ele>353</ele>
        <time>2016-05-08T07:41:54.000Z</time>
      </trkpt>
      <trkpt lat="47.49399" lon="6.74057">
        <ele>354</ele>
        <time>2016-05-08T07:41:55.000Z</time>
      </trkpt>
      <trkpt lat="47.49398" lon="6.74054">
        <ele>354</ele>
        <time>2016-05-08T07:41:56.000Z</time>
      </trkpt>
      <trkpt lat="47.49397" lon="6.7405">
        <ele>354</ele>
        <time>2016-05-08T07:41:57.000Z</time>
      </trkpt>
      <trkpt lat="47.49397" lon="6.74047">
        <ele>354</ele>
        <time>2016-05-08T07:41:58.000Z</time>
      </trkpt>
      <trkpt lat="47.49397" lon="6.74044">
        <ele>354</ele>
        <time>2016-05-08T07:41:59.000Z</time>
      </trkpt>
      <trkpt lat="47.49396" lon="6.7404">
        <ele>354</ele>
        <time>2016-05-08T07:42:00.000Z</time>
      </trkpt>
      <trkpt lat="47.49394" lon="6.74035">
        <ele>354</ele>
        <time>2016-05-08T07:42:02.000Z</time>
      </trkpt>
      <trkpt lat="47.49393" lon="6.74033">
        <ele>354</ele>
        <time>2016-05-08T07:42:03.000Z</time>
      </trkpt>
      <trkpt lat="47.49392" lon="6.74028">
        <ele>355</ele>
        <time>2016-05-08T07:42:05.000Z</time>
      </trkpt>
      <trkpt lat="47.49391" lon="6.74024">
        <ele>354</ele>
        <time>2016-05-08T07:42:06.000Z</time>
      </trkpt>
      <trkpt lat="47.4939" lon="6.74019">
        <ele>354</ele>
        <time>2016-05-08T07:42:07.000Z</time>
      </trkpt>
      <trkpt lat="47.49389" lon="6.74015">
        <ele>354</ele>
        <time>2016-05-08T07:42:08.000Z</time>
      </trkpt>
      <trkpt lat="47.49389" lon="6.74011">
        <ele>354</ele>
        <time>2016-05-08T07:42:09.000Z</time>
      </trkpt>
      <trkpt lat="47.49388" lon="6.74008">
        <ele>354</ele>
        <time>2016-05-08T07:42:10.000Z</time>
      </trkpt>
      <trkpt lat="47.49387" lon="6.74002">
        <ele>355</ele>
        <time>2016-05-08T07:42:12.000Z</time>
      </trkpt>
      <trkpt lat="47.49386" lon="6.73998">
        <ele>353</ele>
        <time>2016-05-08T07:42:13.000Z</time>
      </trkpt>
      <trkpt lat="47.49384" lon="6.73995">
        <ele>354</ele>
        <time>2016-05-08T07:42:14.000Z</time>
      </trkpt>
      <trkpt lat="47.49382" lon="6.73991">
        <ele>354</ele>
        <time>2016-05-08T07:42:15.000Z</time>
      </trkpt>
      <trkpt lat="47.49381" lon="6.73988">
        <ele>354</ele>
        <time>2016-05-08T07:42:16.000Z</time>
      </trkpt>
      <trkpt lat="47.49379" lon="6.73984">
        <ele>354</ele>
        <time>2016-05-08T07:42:17.000Z</time>
      </trkpt>
      <trkpt lat="47.49378" lon="6.73981">
        <ele>354</ele>
        <time>2016-05-08T07:42:18.000Z</time>
      </trkpt>
      <trkpt lat="47.49377" lon="6.73977">
        <ele>354</ele>
        <time>2016-05-08T07:42:19.000Z</time>
      </trkpt>
      <trkpt lat="47.49376" lon="6.73973">
        <ele>354</ele>
        <time>2016-05-08T07:42:20.000Z</time>
      </trkpt>
      <trkpt lat="47.49375" lon="6.73968">
        <ele>354</ele>
        <time>2016-05-08T07:42:21.000Z</time>
      </trkpt>
      <trkpt lat="47.49374" lon="6.73964">
        <ele>354</ele>
        <time>2016-05-08T07:42:22.000Z</time>
      </trkpt>
      <trkpt lat="47.49373" lon="6.7396">
        <ele>354</ele>
        <time>2016-05-08T07:42:23.000Z</time>
      </trkpt>
      <trkpt lat="47.49371" lon="6.73955">
        <ele>354</ele>
        <time>2016-05-08T07:42:24.000Z</time>
      </trkpt>
      <trkpt lat="47.4937" lon="6.73951">
        <ele>354</ele>
        <time>2016-05-08T07:42:25.000Z</time>
      </trkpt>
      <trkpt lat="47.49368" lon="6.73947">
        <ele>354</ele>
        <time>2016-05-08T07:42:26.000Z</time>
      </trkpt>
      <trkpt lat="47.49367" lon="6.73942">
        <ele>354</ele>
        <time>2016-05-08T07:42:27.000Z</time>
      </trkpt>
      <trkpt lat="47.49365" lon="6.73938">
        <ele>355</ele>
        <time>2016-05-08T07:42:28.000Z</time>
      </trkpt>
      <trkpt lat="47.49363" lon="6.73933">
        <ele>355</ele>
        <time>2016-05-08T07:42:29.000Z</time>
      </trkpt>
      <trkpt lat="47.4936" lon="6.73927">
        <ele>355</ele>
        <time>2016-05-08T07:42:30.000Z</time>
      </trkpt>
      <trkpt lat="47.49358" lon="6.7392">
        <ele>355</ele>
        <time>2016-05-08T07:42:31.000Z</time>
      </trkpt>
      <trkpt lat="47.49355" lon="6.73913">
        <ele>354</ele>
        <time>2016-05-08T07:42:32.000Z</time>
      </trkpt>
      <trkpt lat="47.49347" lon="6.73893">
        <ele>354</ele>
        <time>2016-05-08T07:42:33.000Z</time>
      </trkpt>
      <trkpt lat="47.49342" lon="6.73886">
        <ele>353</ele>
        <time>2016-05-08T07:42:34.000Z</time>
      </trkpt>
      <trkpt lat="47.49338" lon="6.73882">
        <ele>353</ele>
        <time>2016-05-08T07:42:35.000Z</time>
      </trkpt>
      <trkpt lat="47.49334" lon="6.73875">
        <ele>353</ele>
        <time>2016-05-08T07:42:36.000Z</time>
      </trkpt>
      <trkpt lat="47.4933" lon="6.73871">
        <ele>358</ele>
        <time>2016-05-08T07:42:37.000Z</time>
      </trkpt>
      <trkpt lat="47.49327" lon="6.73863">
        <ele>357</ele>
        <time>2016-05-08T07:42:38.000Z</time>
      </trkpt>
      <trkpt lat="47.49323" lon="6.7386">
        <ele>357</ele>
        <time>2016-05-08T07:42:39.000Z</time>
      </trkpt>
      <trkpt lat="47.49321" lon="6.73856">
        <ele>357</ele>
        <time>2016-05-08T07:42:40.000Z</time>
      </trkpt>
      <trkpt lat="47.49317" lon="6.73852">
        <ele>357</ele>
        <time>2016-05-08T07:42:41.000Z</time>
      </trkpt>
      <trkpt lat="47.49313" lon="6.73849">
        <ele>357</ele>
        <time>2016-05-08T07:42:42.000Z</time>
      </trkpt>
      <trkpt lat="47.49313" lon="6.73843">
        <ele>357</ele>
        <time>2016-05-08T07:42:43.000Z</time>
      </trkpt>
      <trkpt lat="47.4931" lon="6.73841">
        <ele>357</ele>
        <time>2016-05-08T07:42:45.000Z</time>
      </trkpt>
      <trkpt lat="47.4931" lon="6.73837">
        <ele>357</ele>
        <time>2016-05-08T07:42:46.000Z</time>
      </trkpt>
      <trkpt lat="47.49308" lon="6.73832">
        <ele>356</ele>
        <time>2016-05-08T07:42:47.000Z</time>
      </trkpt>
      <trkpt lat="47.49308" lon="6.73827">
        <ele>356</ele>
        <time>2016-05-08T07:42:48.000Z</time>
      </trkpt>
      <trkpt lat="47.49307" lon="6.73823">
        <ele>356</ele>
        <time>2016-05-08T07:42:49.000Z</time>
      </trkpt>
      <trkpt lat="47.49307" lon="6.73819">
        <ele>356</ele>
        <time>2016-05-08T07:42:50.000Z</time>
      </trkpt>
      <trkpt lat="47.49306" lon="6.73815">
        <ele>356</ele>
        <time>2016-05-08T07:42:51.000Z</time>
      </trkpt>
      <trkpt lat="47.49306" lon="6.73812">
        <ele>356</ele>
        <time>2016-05-08T07:42:52.000Z</time>
      </trkpt>
      <trkpt lat="47.49306" lon="6.73808">
        <ele>356</ele>
        <time>2016-05-08T07:42:53.000Z</time>
      </trkpt>
      <trkpt lat="47.49306" lon="6.73805">
        <ele>356</ele>
        <time>2016-05-08T07:42:54.000Z</time>
      </trkpt>
      <trkpt lat="47.49306" lon="6.73801">
        <ele>356</ele>
        <time>2016-05-08T07:42:55.000Z</time>
      </trkpt>
      <trkpt lat="47.49307" lon="6.73798">
        <ele>356</ele>
        <time>2016-05-08T07:42:56.000Z</time>
      </trkpt>
      <trkpt lat="47.49307" lon="6.73792">
        <ele>356</ele>
        <time>2016-05-08T07:42:58.000Z</time>
      </trkpt>
      <trkpt lat="47.49307" lon="6.7379">
        <ele>356</ele>
        <time>2016-05-08T07:42:59.000Z</time>
      </trkpt>
      <trkpt lat="47.49308" lon="6.73785">
        <ele>356</ele>
        <time>2016-05-08T07:43:01.000Z</time>
      </trkpt>
      <trkpt lat="47.49308" lon="6.73783">
        <ele>357</ele>
        <time>2016-05-08T07:43:02.000Z</time>
      </trkpt>
      <trkpt lat="47.49307" lon="6.73777">
        <ele>357</ele>
        <time>2016-05-08T07:43:06.000Z</time>
      </trkpt>
      <trkpt lat="47.49307" lon="6.73775">
        <ele>357</ele>
        <time>2016-05-08T07:43:07.000Z</time>
      </trkpt>
      <trkpt lat="47.49306" lon="6.7377">
        <ele>357</ele>
        <time>2016-05-08T07:43:11.000Z</time>
      </trkpt>
      <trkpt lat="47.49306" lon="6.73769">
        <ele>357</ele>
        <time>2016-05-08T07:43:12.000Z</time>
      </trkpt>
      <trkpt lat="47.49305" lon="6.73764">
        <ele>357</ele>
        <time>2016-05-08T07:43:15.000Z</time>
      </trkpt>
      <trkpt lat="47.49305" lon="6.73762">
        <ele>357</ele>
        <time>2016-05-08T07:43:16.000Z</time>
      </trkpt>
      <trkpt lat="47.49305" lon="6.73757">
        <ele>357</ele>
        <time>2016-05-08T07:43:18.000Z</time>
      </trkpt>
      <trkpt lat="47.49305" lon="6.73755">
        <ele>357</ele>
        <time>2016-05-08T07:43:19.000Z</time>
      </trkpt>
      <trkpt lat="47.49303" lon="6.7375">
        <ele>358</ele>
        <time>2016-05-08T07:43:23.000Z</time>
      </trkpt>
      <trkpt lat="47.49302" lon="6.73749">
        <ele>358</ele>
        <time>2016-05-08T07:43:24.000Z</time>
      </trkpt>
      <trkpt lat="47.49301" lon="6.73744">
        <ele>358</ele>
        <time>2016-05-08T07:43:28.000Z</time>
      </trkpt>
      <trkpt lat="47.49301" lon="6.73742">
        <ele>359</ele>
        <time>2016-05-08T07:43:29.000Z</time>
      </trkpt>
      <trkpt lat="47.493" lon="6.73737">
        <ele>359</ele>
        <time>2016-05-08T07:43:32.000Z</time>
      </trkpt>
      <trkpt lat="47.493" lon="6.73735">
        <ele>359</ele>
        <time>2016-05-08T07:43:33.000Z</time>
      </trkpt>
      <trkpt lat="47.49298" lon="6.73729">
        <ele>359</ele>
        <time>2016-05-08T07:43:38.000Z</time>
      </trkpt>
      <trkpt lat="47.49297" lon="6.73728">
        <ele>359</ele>
        <time>2016-05-08T07:43:39.000Z</time>
      </trkpt>
      <trkpt lat="47.49296" lon="6.73723">
        <ele>359</ele>
        <time>2016-05-08T07:43:42.000Z</time>
      </trkpt>
      <trkpt lat="47.49296" lon="6.73721">
        <ele>359</ele>
        <time>2016-05-08T07:43:43.000Z</time>
      </trkpt>
      <trkpt lat="47.49296" lon="6.73716">
        <ele>359</ele>
        <time>2016-05-08T07:43:45.000Z</time>
      </trkpt>
      <trkpt lat="47.49296" lon="6.73714">
        <ele>359</ele>
        <time>2016-05-08T07:43:46.000Z</time>
      </trkpt>
      <trkpt lat="47.49296" lon="6.7371">
        <ele>359</ele>
        <time>2016-05-08T07:43:48.000Z</time>
      </trkpt>
      <trkpt lat="47.49296" lon="6.73707">
        <ele>359</ele>
        <time>2016-05-08T07:43:49.000Z</time>
      </trkpt>
      <trkpt lat="47.49296" lon="6.73702">
        <ele>360</ele>
        <time>2016-05-08T07:43:51.000Z</time>
      </trkpt>
      <trkpt lat="47.49296" lon="6.737">
        <ele>360</ele>
        <time>2016-05-08T07:43:52.000Z</time>
      </trkpt>
      <trkpt lat="47.49296" lon="6.73695">
        <ele>360</ele>
        <time>2016-05-08T07:43:54.000Z</time>
      </trkpt>
      <trkpt lat="47.49296" lon="6.73692">
        <ele>360</ele>
        <time>2016-05-08T07:43:55.000Z</time>
      </trkpt>
      <trkpt lat="47.49295" lon="6.73686">
        <ele>360</ele>
        <time>2016-05-08T07:43:57.000Z</time>
      </trkpt>
      <trkpt lat="47.49294" lon="6.73683">
        <ele>360</ele>
        <time>2016-05-08T07:43:58.000Z</time>
      </trkpt>
      <trkpt lat="47.49294" lon="6.73676">
        <ele>360</ele>
        <time>2016-05-08T07:44:00.000Z</time>
      </trkpt>
      <trkpt lat="47.49294" lon="6.73674">
        <ele>360</ele>
        <time>2016-05-08T07:44:01.000Z</time>
      </trkpt>
      <trkpt lat="47.49293" lon="6.7367">
        <ele>360</ele>
        <time>2016-05-08T07:44:02.000Z</time>
      </trkpt>
      <trkpt lat="47.49292" lon="6.73665">
        <ele>362</ele>
        <time>2016-05-08T07:44:03.000Z</time>
      </trkpt>
      <trkpt lat="47.49291" lon="6.73659">
        <ele>362</ele>
        <time>2016-05-08T07:44:04.000Z</time>
      </trkpt>
      <trkpt lat="47.4929" lon="6.73654">
        <ele>362</ele>
        <time>2016-05-08T07:44:05.000Z</time>
      </trkpt>
      <trkpt lat="47.49288" lon="6.73649">
        <ele>362</ele>
        <time>2016-05-08T07:44:07.000Z</time>
      </trkpt>
      <trkpt lat="47.49287" lon="6.73648">
        <ele>362</ele>
        <time>2016-05-08T07:44:08.000Z</time>
      </trkpt>
      <trkpt lat="47.49284" lon="6.73645">
        <ele>362</ele>
        <time>2016-05-08T07:44:11.000Z</time>
      </trkpt>
      <trkpt lat="47.49283" lon="6.73644">
        <ele>362</ele>
        <time>2016-05-08T07:44:12.000Z</time>
      </trkpt>
      <trkpt lat="47.49278" lon="6.73646">
        <ele>362</ele>
        <time>2016-05-08T07:44:17.000Z</time>
      </trkpt>
      <trkpt lat="47.49277" lon="6.73646">
        <ele>363</ele>
        <time>2016-05-08T07:44:18.000Z</time>
      </trkpt>
      <trkpt lat="47.49274" lon="6.73646">
        <ele>363</ele>
        <time>2016-05-08T07:44:24.000Z</time>
      </trkpt>
      <trkpt lat="47.49273" lon="6.73645">
        <ele>363</ele>
        <time>2016-05-08T07:44:25.000Z</time>
      </trkpt>
      <trkpt lat="47.4927" lon="6.73644">
        <ele>363</ele>
        <time>2016-05-08T07:44:27.000Z</time>
      </trkpt>
      <trkpt lat="47.49268" lon="6.73644">
        <ele>363</ele>
        <time>2016-05-08T07:44:28.000Z</time>
      </trkpt>
      <trkpt lat="47.49264" lon="6.73642">
        <ele>363</ele>
        <time>2016-05-08T07:44:30.000Z</time>
      </trkpt>
      <trkpt lat="47.49263" lon="6.73641">
        <ele>363</ele>
        <time>2016-05-08T07:44:31.000Z</time>
      </trkpt>
      <trkpt lat="47.49259" lon="6.73639">
        <ele>363</ele>
        <time>2016-05-08T07:44:35.000Z</time>
      </trkpt>
      <trkpt lat="47.49258" lon="6.73638">
        <ele>363</ele>
        <time>2016-05-08T07:44:36.000Z</time>
      </trkpt>
      <trkpt lat="47.49254" lon="6.73635">
        <ele>363</ele>
        <time>2016-05-08T07:44:44.000Z</time>
      </trkpt>
      <trkpt lat="47.49253" lon="6.73634">
        <ele>363</ele>
        <time>2016-05-08T07:44:45.000Z</time>
      </trkpt>
      <trkpt lat="47.4925" lon="6.73632">
        <ele>368</ele>
        <time>2016-05-08T07:44:47.000Z</time>
      </trkpt>
      <trkpt lat="47.49248" lon="6.73631">
        <ele>368</ele>
        <time>2016-05-08T07:44:48.000Z</time>
      </trkpt>
      <trkpt lat="47.49245" lon="6.73629">
        <ele>368</ele>
        <time>2016-05-08T07:44:50.000Z</time>
      </trkpt>
      <trkpt lat="47.49244" lon="6.73629">
        <ele>368</ele>
        <time>2016-05-08T07:44:51.000Z</time>
      </trkpt>
      <trkpt lat="47.4924" lon="6.73627">
        <ele>369</ele>
        <time>2016-05-08T07:44:54.000Z</time>
      </trkpt>
      <trkpt lat="47.49239" lon="6.73626">
        <ele>369</ele>
        <time>2016-05-08T07:44:55.000Z</time>
      </trkpt>
      <trkpt lat="47.49236" lon="6.73625">
        <ele>369</ele>
        <time>2016-05-08T07:44:58.000Z</time>
      </trkpt>
      <trkpt lat="47.49234" lon="6.73624">
        <ele>369</ele>
        <time>2016-05-08T07:44:59.000Z</time>
      </trkpt>
      <trkpt lat="47.49231" lon="6.73619">
        <ele>369</ele>
        <time>2016-05-08T07:45:02.000Z</time>
      </trkpt>
      <trkpt lat="47.4923" lon="6.73617">
        <ele>369</ele>
        <time>2016-05-08T07:45:03.000Z</time>
      </trkpt>
      <trkpt lat="47.49228" lon="6.73614">
        <ele>369</ele>
        <time>2016-05-08T07:45:05.000Z</time>
      </trkpt>
      <trkpt lat="47.49227" lon="6.73612">
        <ele>369</ele>
        <time>2016-05-08T07:45:06.000Z</time>
      </trkpt>
      <trkpt lat="47.49224" lon="6.7361">
        <ele>369</ele>
        <time>2016-05-08T07:45:08.000Z</time>
      </trkpt>
      <trkpt lat="47.49222" lon="6.73609">
        <ele>370</ele>
        <time>2016-05-08T07:45:09.000Z</time>
      </trkpt>
      <trkpt lat="47.49219" lon="6.73606">
        <ele>370</ele>
        <time>2016-05-08T07:45:12.000Z</time>
      </trkpt>
      <trkpt lat="47.49218" lon="6.73605">
        <ele>370</ele>
        <time>2016-05-08T07:45:13.000Z</time>
      </trkpt>
      <trkpt lat="47.49214" lon="6.73601">
        <ele>370</ele>
        <time>2016-05-08T07:45:16.000Z</time>
      </trkpt>
      <trkpt lat="47.49213" lon="6.73599">
        <ele>370</ele>
        <time>2016-05-08T07:45:17.000Z</time>
      </trkpt>
      <trkpt lat="47.4921" lon="6.73594">
        <ele>370</ele>
        <time>2016-05-08T07:45:20.000Z</time>
      </trkpt>
      <trkpt lat="47.49209" lon="6.73593">
        <ele>370</ele>
        <time>2016-05-08T07:45:21.000Z</time>
      </trkpt>
      <trkpt lat="47.49206" lon="6.73589">
        <ele>371</ele>
        <time>2016-05-08T07:45:27.000Z</time>
      </trkpt>
      <trkpt lat="47.49205" lon="6.73589">
        <ele>371</ele>
        <time>2016-05-08T07:45:28.000Z</time>
      </trkpt>
      <trkpt lat="47.49201" lon="6.73586">
        <ele>371</ele>
        <time>2016-05-08T07:45:32.000Z</time>
      </trkpt>
      <trkpt lat="47.492" lon="6.73586">
        <ele>371</ele>
        <time>2016-05-08T07:45:33.000Z</time>
      </trkpt>
      <trkpt lat="47.49197" lon="6.73584">
        <ele>371</ele>
        <time>2016-05-08T07:45:37.000Z</time>
      </trkpt>
      <trkpt lat="47.49196" lon="6.73582">
        <ele>374</ele>
        <time>2016-05-08T07:45:38.000Z</time>
      </trkpt>
      <trkpt lat="47.49194" lon="6.73579">
        <ele>374</ele>
        <time>2016-05-08T07:45:40.000Z</time>
      </trkpt>
      <trkpt lat="47.49193" lon="6.73577">
        <ele>374</ele>
        <time>2016-05-08T07:45:41.000Z</time>
      </trkpt>
      <trkpt lat="47.49191" lon="6.73572">
        <ele>374</ele>
        <time>2016-05-08T07:45:44.000Z</time>
      </trkpt>
      <trkpt lat="47.49191" lon="6.7357">
        <ele>374</ele>
        <time>2016-05-08T07:45:45.000Z</time>
      </trkpt>
      <trkpt lat="47.49191" lon="6.73563">
        <ele>374</ele>
        <time>2016-05-08T07:45:56.000Z</time>
      </trkpt>
      <trkpt lat="47.49192" lon="6.73563">
        <ele>374</ele>
        <time>2016-05-08T07:45:57.000Z</time>
      </trkpt>
      <trkpt lat="47.4919" lon="6.73557">
        <ele>375</ele>
        <time>2016-05-08T07:46:21.000Z</time>
      </trkpt>
      <trkpt lat="47.49189" lon="6.73554">
        <ele>375</ele>
        <time>2016-05-08T07:46:22.000Z</time>
      </trkpt>
      <trkpt lat="47.49188" lon="6.73551">
        <ele>375</ele>
        <time>2016-05-08T07:46:23.000Z</time>
      </trkpt>
      <trkpt lat="47.49187" lon="6.73547">
        <ele>375</ele>
        <time>2016-05-08T07:46:24.000Z</time>
      </trkpt>
      <trkpt lat="47.49186" lon="6.73544">
        <ele>375</ele>
        <time>2016-05-08T07:46:25.000Z</time>
      </trkpt>
      <trkpt lat="47.49185" lon="6.73541">
        <ele>375</ele>
        <time>2016-05-08T07:46:26.000Z</time>
      </trkpt>
      <trkpt lat="47.49183" lon="6.73535">
        <ele>375</ele>
        <time>2016-05-08T07:46:28.000Z</time>
      </trkpt>
      <trkpt lat="47.49182" lon="6.73532">
        <ele>375</ele>
        <time>2016-05-08T07:46:29.000Z</time>
      </trkpt>
      <trkpt lat="47.49182" lon="6.73526">
        <ele>375</ele>
        <time>2016-05-08T07:46:31.000Z</time>
      </trkpt>
      <trkpt lat="47.49183" lon="6.73524">
        <ele>376</ele>
        <time>2016-05-08T07:46:32.000Z</time>
      </trkpt>
      <trkpt lat="47.49184" lon="6.73518">
        <ele>376</ele>
        <time>2016-05-08T07:46:34.000Z</time>
      </trkpt>
      <trkpt lat="47.49184" lon="6.73516">
        <ele>376</ele>
        <time>2016-05-08T07:46:35.000Z</time>
      </trkpt>
      <trkpt lat="47.49185" lon="6.73511">
        <ele>376</ele>
        <time>2016-05-08T07:46:37.000Z</time>
      </trkpt>
      <trkpt lat="47.49186" lon="6.73508">
        <ele>376</ele>
        <time>2016-05-08T07:46:38.000Z</time>
      </trkpt>
      <trkpt lat="47.49185" lon="6.73504">
        <ele>376</ele>
        <time>2016-05-08T07:46:39.000Z</time>
      </trkpt>
      <trkpt lat="47.49185" lon="6.735">
        <ele>376</ele>
        <time>2016-05-08T07:46:40.000Z</time>
      </trkpt>
      <trkpt lat="47.49183" lon="6.73495">
        <ele>379</ele>
        <time>2016-05-08T07:46:42.000Z</time>
      </trkpt>
      <trkpt lat="47.49182" lon="6.73492">
        <ele>379</ele>
        <time>2016-05-08T07:46:43.000Z</time>
      </trkpt>
      <trkpt lat="47.4918" lon="6.7349">
        <ele>379</ele>
        <time>2016-05-08T07:46:46.000Z</time>
      </trkpt>
      <trkpt lat="47.49178" lon="6.73488">
        <ele>379</ele>
        <time>2016-05-08T07:46:47.000Z</time>
      </trkpt>
      <trkpt lat="47.49177" lon="6.73484">
        <ele>379</ele>
        <time>2016-05-08T07:46:49.000Z</time>
      </trkpt>
      <trkpt lat="47.49176" lon="6.73481">
        <ele>379</ele>
        <time>2016-05-08T07:46:50.000Z</time>
      </trkpt>
      <trkpt lat="47.49175" lon="6.73475">
        <ele>379</ele>
        <time>2016-05-08T07:46:52.000Z</time>
      </trkpt>
      <trkpt lat="47.49175" lon="6.73473">
        <ele>379</ele>
        <time>2016-05-08T07:46:53.000Z</time>
      </trkpt>
      <trkpt lat="47.49175" lon="6.73467">
        <ele>380</ele>
        <time>2016-05-08T07:46:55.000Z</time>
      </trkpt>
      <trkpt lat="47.49175" lon="6.73464">
        <ele>380</ele>
        <time>2016-05-08T07:46:56.000Z</time>
      </trkpt>
      <trkpt lat="47.49175" lon="6.73459">
        <ele>380</ele>
        <time>2016-05-08T07:46:58.000Z</time>
      </trkpt>
      <trkpt lat="47.49174" lon="6.73456">
        <ele>380</ele>
        <time>2016-05-08T07:46:59.000Z</time>
      </trkpt>
      <trkpt lat="47.49173" lon="6.73451">
        <ele>380</ele>
        <time>2016-05-08T07:47:01.000Z</time>
      </trkpt>
      <trkpt lat="47.49172" lon="6.73448">
        <ele>381</ele>
        <time>2016-05-08T07:47:02.000Z</time>
      </trkpt>
      <trkpt lat="47.49171" lon="6.73443">
        <ele>381</ele>
        <time>2016-05-08T07:47:04.000Z</time>
      </trkpt>
      <trkpt lat="47.4917" lon="6.73442">
        <ele>381</ele>
        <time>2016-05-08T07:47:05.000Z</time>
      </trkpt>
      <trkpt lat="47.49167" lon="6.73439">
        <ele>381</ele>
        <time>2016-05-08T07:47:07.000Z</time>
      </trkpt>
      <trkpt lat="47.49165" lon="6.73437">
        <ele>383</ele>
        <time>2016-05-08T07:47:08.000Z</time>
      </trkpt>
      <trkpt lat="47.49162" lon="6.73432">
        <ele>383</ele>
        <time>2016-05-08T07:47:10.000Z</time>
      </trkpt>
      <trkpt lat="47.49161" lon="6.73431">
        <ele>384</ele>
        <time>2016-05-08T07:47:11.000Z</time>
      </trkpt>
      <trkpt lat="47.49158" lon="6.73427">
        <ele>384</ele>
        <time>2016-05-08T07:47:14.000Z</time>
      </trkpt>
      <trkpt lat="47.49157" lon="6.73426">
        <ele>384</ele>
        <time>2016-05-08T07:47:15.000Z</time>
      </trkpt>
      <trkpt lat="47.49153" lon="6.73423">
        <ele>384</ele>
        <time>2016-05-08T07:47:19.000Z</time>
      </trkpt>
      <trkpt lat="47.49152" lon="6.73423">
        <ele>384</ele>
        <time>2016-05-08T07:47:20.000Z</time>
      </trkpt>
      <trkpt lat="47.49148" lon="6.7342">
        <ele>384</ele>
        <time>2016-05-08T07:47:23.000Z</time>
      </trkpt>
      <trkpt lat="47.49146" lon="6.73419">
        <ele>384</ele>
        <time>2016-05-08T07:47:24.000Z</time>
      </trkpt>
      <trkpt lat="47.49143" lon="6.73415">
        <ele>386</ele>
        <time>2016-05-08T07:47:27.000Z</time>
      </trkpt>
      <trkpt lat="47.49142" lon="6.73415">
        <ele>386</ele>
        <time>2016-05-08T07:47:28.000Z</time>
      </trkpt>
      <trkpt lat="47.49138" lon="6.73414">
        <ele>386</ele>
        <time>2016-05-08T07:47:31.000Z</time>
      </trkpt>
      <trkpt lat="47.49137" lon="6.73413">
        <ele>386</ele>
        <time>2016-05-08T07:47:32.000Z</time>
      </trkpt>
      <trkpt lat="47.49133" lon="6.7341">
        <ele>386</ele>
        <time>2016-05-08T07:47:35.000Z</time>
      </trkpt>
      <trkpt lat="47.49131" lon="6.73408">
        <ele>386</ele>
        <time>2016-05-08T07:47:36.000Z</time>
      </trkpt>
      <trkpt lat="47.4913" lon="6.73406">
        <ele>386</ele>
        <time>2016-05-08T07:47:37.000Z</time>
      </trkpt>
      <trkpt lat="47.49128" lon="6.73404">
        <ele>386</ele>
        <time>2016-05-08T07:47:38.000Z</time>
      </trkpt>
      <trkpt lat="47.49124" lon="6.73401">
        <ele>386</ele>
        <time>2016-05-08T07:47:40.000Z</time>
      </trkpt>
      <trkpt lat="47.49122" lon="6.734">
        <ele>386</ele>
        <time>2016-05-08T07:47:41.000Z</time>
      </trkpt>
      <trkpt lat="47.49118" lon="6.73399">
        <ele>386</ele>
        <time>2016-05-08T07:47:43.000Z</time>
      </trkpt>
      <trkpt lat="47.49116" lon="6.73398">
        <ele>386</ele>
        <time>2016-05-08T07:47:44.000Z</time>
      </trkpt>
      <trkpt lat="47.49112" lon="6.73397">
        <ele>386</ele>
        <time>2016-05-08T07:47:46.000Z</time>
      </trkpt>
      <trkpt lat="47.49111" lon="6.73397">
        <ele>386</ele>
        <time>2016-05-08T07:47:47.000Z</time>
      </trkpt>
      <trkpt lat="47.49108" lon="6.73394">
        <ele>387</ele>
        <time>2016-05-08T07:47:50.000Z</time>
      </trkpt>
      <trkpt lat="47.49107" lon="6.73392">
        <ele>387</ele>
        <time>2016-05-08T07:47:51.000Z</time>
      </trkpt>
      <trkpt lat="47.49104" lon="6.73388">
        <ele>387</ele>
        <time>2016-05-08T07:47:53.000Z</time>
      </trkpt>
      <trkpt lat="47.49102" lon="6.73386">
        <ele>387</ele>
        <time>2016-05-08T07:47:54.000Z</time>
      </trkpt>
      <trkpt lat="47.491" lon="6.73383">
        <ele>387</ele>
        <time>2016-05-08T07:47:55.000Z</time>
      </trkpt>
      <trkpt lat="47.49099" lon="6.7338">
        <ele>387</ele>
        <time>2016-05-08T07:47:56.000Z</time>
      </trkpt>
      <trkpt lat="47.49098" lon="6.73374">
        <ele>387</ele>
        <time>2016-05-08T07:47:58.000Z</time>
      </trkpt>
      <trkpt lat="47.49098" lon="6.73371">
        <ele>387</ele>
        <time>2016-05-08T07:47:59.000Z</time>
      </trkpt>
      <trkpt lat="47.49098" lon="6.73366">
        <ele>387</ele>
        <time>2016-05-08T07:48:01.000Z</time>
      </trkpt>
      <trkpt lat="47.49098" lon="6.73362">
        <ele>387</ele>
        <time>2016-05-08T07:48:02.000Z</time>
      </trkpt>
      <trkpt lat="47.49098" lon="6.73356">
        <ele>387</ele>
        <time>2016-05-08T07:48:08.000Z</time>
      </trkpt>
      <trkpt lat="47.49098" lon="6.73355">
        <ele>387</ele>
        <time>2016-05-08T07:48:09.000Z</time>
      </trkpt>
      <trkpt lat="47.49099" lon="6.73349">
        <ele>387</ele>
        <time>2016-05-08T07:49:21.000Z</time>
      </trkpt>
      <trkpt lat="47.491" lon="6.73347">
        <ele>387</ele>
        <time>2016-05-08T07:49:22.000Z</time>
      </trkpt>
      <trkpt lat="47.491" lon="6.73341">
        <ele>387</ele>
        <time>2016-05-08T07:49:24.000Z</time>
      </trkpt>
      <trkpt lat="47.49101" lon="6.73338">
        <ele>387</ele>
        <time>2016-05-08T07:49:25.000Z</time>
      </trkpt>
      <trkpt lat="47.49102" lon="6.73333">
        <ele>388</ele>
        <time>2016-05-08T07:49:27.000Z</time>
      </trkpt>
      <trkpt lat="47.49103" lon="6.7333">
        <ele>388</ele>
        <time>2016-05-08T07:49:28.000Z</time>
      </trkpt>
      <trkpt lat="47.49103" lon="6.73325">
        <ele>388</ele>
        <time>2016-05-08T07:49:30.000Z</time>
      </trkpt>
      <trkpt lat="47.49103" lon="6.73321">
        <ele>388</ele>
        <time>2016-05-08T07:49:31.000Z</time>
      </trkpt>
      <trkpt lat="47.49104" lon="6.73318">
        <ele>388</ele>
        <time>2016-05-08T07:49:32.000Z</time>
      </trkpt>
      <trkpt lat="47.49105" lon="6.73315">
        <ele>388</ele>
        <time>2016-05-08T07:49:33.000Z</time>
      </trkpt>
      <trkpt lat="47.49106" lon="6.73309">
        <ele>389</ele>
        <time>2016-05-08T07:49:35.000Z</time>
      </trkpt>
      <trkpt lat="47.49107" lon="6.73306">
        <ele>389</ele>
        <time>2016-05-08T07:49:36.000Z</time>
      </trkpt>
      <trkpt lat="47.49108" lon="6.733">
        <ele>389</ele>
        <time>2016-05-08T07:49:38.000Z</time>
      </trkpt>
      <trkpt lat="47.49108" lon="6.73297">
        <ele>389</ele>
        <time>2016-05-08T07:49:39.000Z</time>
      </trkpt>
      <trkpt lat="47.49108" lon="6.73293">
        <ele>389</ele>
        <time>2016-05-08T07:49:40.000Z</time>
      </trkpt>
      <trkpt lat="47.49109" lon="6.73289">
        <ele>389</ele>
        <time>2016-05-08T07:49:41.000Z</time>
      </trkpt>
      <trkpt lat="47.4911" lon="6.73286">
        <ele>389</ele>
        <time>2016-05-08T07:49:42.000Z</time>
      </trkpt>
      <trkpt lat="47.49111" lon="6.73282">
        <ele>389</ele>
        <time>2016-05-08T07:49:43.000Z</time>
      </trkpt>
      <trkpt lat="47.49113" lon="6.73277">
        <ele>389</ele>
        <time>2016-05-08T07:49:44.000Z</time>
      </trkpt>
      <trkpt lat="47.49114" lon="6.73273">
        <ele>389</ele>
        <time>2016-05-08T07:49:45.000Z</time>
      </trkpt>
      <trkpt lat="47.49115" lon="6.73268">
        <ele>389</ele>
        <time>2016-05-08T07:49:46.000Z</time>
      </trkpt>
      <trkpt lat="47.49116" lon="6.73264">
        <ele>389</ele>
        <time>2016-05-08T07:49:47.000Z</time>
      </trkpt>
      <trkpt lat="47.49118" lon="6.73261">
        <ele>389</ele>
        <time>2016-05-08T07:49:48.000Z</time>
      </trkpt>
      <trkpt lat="47.49119" lon="6.73257">
        <ele>389</ele>
        <time>2016-05-08T07:49:49.000Z</time>
      </trkpt>
      <trkpt lat="47.49121" lon="6.73254">
        <ele>389</ele>
        <time>2016-05-08T07:49:50.000Z</time>
      </trkpt>
      <trkpt lat="47.49122" lon="6.73251">
        <ele>389</ele>
        <time>2016-05-08T07:49:51.000Z</time>
      </trkpt>
      <trkpt lat="47.49123" lon="6.73248">
        <ele>391</ele>
        <time>2016-05-08T07:49:52.000Z</time>
      </trkpt>
      <trkpt lat="47.49124" lon="6.73245">
        <ele>391</ele>
        <time>2016-05-08T07:49:53.000Z</time>
      </trkpt>
      <trkpt lat="47.49125" lon="6.73241">
        <ele>391</ele>
        <time>2016-05-08T07:49:54.000Z</time>
      </trkpt>
      <trkpt lat="47.49126" lon="6.73237">
        <ele>391</ele>
        <time>2016-05-08T07:49:55.000Z</time>
      </trkpt>
      <trkpt lat="47.49128" lon="6.73233">
        <ele>391</ele>
        <time>2016-05-08T07:49:56.000Z</time>
      </trkpt>
      <trkpt lat="47.49129" lon="6.7323">
        <ele>391</ele>
        <time>2016-05-08T07:49:57.000Z</time>
      </trkpt>
      <trkpt lat="47.4913" lon="6.73226">
        <ele>392</ele>
        <time>2016-05-08T07:49:58.000Z</time>
      </trkpt>
      <trkpt lat="47.49131" lon="6.73222">
        <ele>392</ele>
        <time>2016-05-08T07:49:59.000Z</time>
      </trkpt>
      <trkpt lat="47.49133" lon="6.73219">
        <ele>392</ele>
        <time>2016-05-08T07:50:00.000Z</time>
      </trkpt>
      <trkpt lat="47.49134" lon="6.73215">
        <ele>392</ele>
        <time>2016-05-08T07:50:01.000Z</time>
      </trkpt>
      <trkpt lat="47.49135" lon="6.73212">
        <ele>392</ele>
        <time>2016-05-08T07:50:02.000Z</time>
      </trkpt>
      <trkpt lat="47.49136" lon="6.73209">
        <ele>392</ele>
        <time>2016-05-08T07:50:03.000Z</time>
      </trkpt>
      <trkpt lat="47.49137" lon="6.73203">
        <ele>392</ele>
        <time>2016-05-08T07:50:05.000Z</time>
      </trkpt>
      <trkpt lat="47.49137" lon="6.73201">
        <ele>392</ele>
        <time>2016-05-08T07:50:06.000Z</time>
      </trkpt>
      <trkpt lat="47.49138" lon="6.73196">
        <ele>392</ele>
        <time>2016-05-08T07:50:08.000Z</time>
      </trkpt>
      <trkpt lat="47.49139" lon="6.73192">
        <ele>393</ele>
        <time>2016-05-08T07:50:09.000Z</time>
      </trkpt>
      <trkpt lat="47.4914" lon="6.73189">
        <ele>393</ele>
        <time>2016-05-08T07:50:10.000Z</time>
      </trkpt>
      <trkpt lat="47.49142" lon="6.73185">
        <ele>393</ele>
        <time>2016-05-08T07:50:11.000Z</time>
      </trkpt>
      <trkpt lat="47.49144" lon="6.73181">
        <ele>393</ele>
        <time>2016-05-08T07:50:12.000Z</time>
      </trkpt>
      <trkpt lat="47.49146" lon="6.73177">
        <ele>394</ele>
        <time>2016-05-08T07:50:13.000Z</time>
      </trkpt>
      <trkpt lat="47.49148" lon="6.73174">
        <ele>394</ele>
        <time>2016-05-08T07:50:14.000Z</time>
      </trkpt>
      <trkpt lat="47.49149" lon="6.73171">
        <ele>395</ele>
        <time>2016-05-08T07:50:15.000Z</time>
      </trkpt>
      <trkpt lat="47.49151" lon="6.73166">
        <ele>395</ele>
        <time>2016-05-08T07:50:17.000Z</time>
      </trkpt>
      <trkpt lat="47.49152" lon="6.73162">
        <ele>395</ele>
        <time>2016-05-08T07:50:18.000Z</time>
      </trkpt>
      <trkpt lat="47.49152" lon="6.73158">
        <ele>394</ele>
        <time>2016-05-08T07:50:19.000Z</time>
      </trkpt>
      <trkpt lat="47.49152" lon="6.73155">
        <ele>394</ele>
        <time>2016-05-08T07:50:20.000Z</time>
      </trkpt>
      <trkpt lat="47.49153" lon="6.73151">
        <ele>394</ele>
        <time>2016-05-08T07:50:21.000Z</time>
      </trkpt>
      <trkpt lat="47.49153" lon="6.73148">
        <ele>394</ele>
        <time>2016-05-08T07:50:22.000Z</time>
      </trkpt>
      <trkpt lat="47.49154" lon="6.73144">
        <ele>393</ele>
        <time>2016-05-08T07:50:23.000Z</time>
      </trkpt>
      <trkpt lat="47.49154" lon="6.73141">
        <ele>393</ele>
        <time>2016-05-08T07:50:24.000Z</time>
      </trkpt>
      <trkpt lat="47.49155" lon="6.73138">
        <ele>393</ele>
        <time>2016-05-08T07:50:25.000Z</time>
      </trkpt>
      <trkpt lat="47.49155" lon="6.73134">
        <ele>393</ele>
        <time>2016-05-08T07:50:26.000Z</time>
      </trkpt>
      <trkpt lat="47.49155" lon="6.7313">
        <ele>393</ele>
        <time>2016-05-08T07:50:27.000Z</time>
      </trkpt>
      <trkpt lat="47.49154" lon="6.73125">
        <ele>392</ele>
        <time>2016-05-08T07:50:28.000Z</time>
      </trkpt>
      <trkpt lat="47.49152" lon="6.7312">
        <ele>392</ele>
        <time>2016-05-08T07:50:29.000Z</time>
      </trkpt>
      <trkpt lat="47.49152" lon="6.73115">
        <ele>392</ele>
        <time>2016-05-08T07:50:30.000Z</time>
      </trkpt>
      <trkpt lat="47.49152" lon="6.73111">
        <ele>392</ele>
        <time>2016-05-08T07:50:31.000Z</time>
      </trkpt>
      <trkpt lat="47.49154" lon="6.73106">
        <ele>392</ele>
        <time>2016-05-08T07:50:32.000Z</time>
      </trkpt>
      <trkpt lat="47.49156" lon="6.73102">
        <ele>392</ele>
        <time>2016-05-08T07:50:33.000Z</time>
      </trkpt>
      <trkpt lat="47.49157" lon="6.73099">
        <ele>392</ele>
        <time>2016-05-08T07:50:34.000Z</time>
      </trkpt>
      <trkpt lat="47.49158" lon="6.73095">
        <ele>393</ele>
        <time>2016-05-08T07:50:35.000Z</time>
      </trkpt>
      <trkpt lat="47.49159" lon="6.73091">
        <ele>393</ele>
        <time>2016-05-08T07:50:36.000Z</time>
      </trkpt>
      <trkpt lat="47.4916" lon="6.73087">
        <ele>393</ele>
        <time>2016-05-08T07:50:37.000Z</time>
      </trkpt>
      <trkpt lat="47.49161" lon="6.73082">
        <ele>393</ele>
        <time>2016-05-08T07:50:38.000Z</time>
      </trkpt>
      <trkpt lat="47.49162" lon="6.73078">
        <ele>392</ele>
        <time>2016-05-08T07:50:39.000Z</time>
      </trkpt>
      <trkpt lat="47.49163" lon="6.73073">
        <ele>392</ele>
        <time>2016-05-08T07:50:40.000Z</time>
      </trkpt>
      <trkpt lat="47.49164" lon="6.73068">
        <ele>391</ele>
        <time>2016-05-08T07:50:41.000Z</time>
      </trkpt>
      <trkpt lat="47.49166" lon="6.73065">
        <ele>391</ele>
        <time>2016-05-08T07:50:42.000Z</time>
      </trkpt>
      <trkpt lat="47.49167" lon="6.73061">
        <ele>394</ele>
        <time>2016-05-08T07:50:43.000Z</time>
      </trkpt>
      <trkpt lat="47.49169" lon="6.73058">
        <ele>394</ele>
        <time>2016-05-08T07:50:44.000Z</time>
      </trkpt>
      <trkpt lat="47.49171" lon="6.73054">
        <ele>394</ele>
        <time>2016-05-08T07:50:45.000Z</time>
      </trkpt>
      <trkpt lat="47.49172" lon="6.73051">
        <ele>394</ele>
        <time>2016-05-08T07:50:46.000Z</time>
      </trkpt>
      <trkpt lat="47.49173" lon="6.73048">
        <ele>394</ele>
        <time>2016-05-08T07:50:47.000Z</time>
      </trkpt>
      <trkpt lat="47.49174" lon="6.73043">
        <ele>394</ele>
        <time>2016-05-08T07:50:48.000Z</time>
      </trkpt>
      <trkpt lat="47.49174" lon="6.73038">
        <ele>394</ele>
        <time>2016-05-08T07:50:49.000Z</time>
      </trkpt>
      <trkpt lat="47.49175" lon="6.73034">
        <ele>394</ele>
        <time>2016-05-08T07:50:50.000Z</time>
      </trkpt>
      <trkpt lat="47.49175" lon="6.73029">
        <ele>394</ele>
        <time>2016-05-08T07:50:51.000Z</time>
      </trkpt>
      <trkpt lat="47.49175" lon="6.73026">
        <ele>394</ele>
        <time>2016-05-08T07:50:52.000Z</time>
      </trkpt>
      <trkpt lat="47.49176" lon="6.7302">
        <ele>394</ele>
        <time>2016-05-08T07:50:54.000Z</time>
      </trkpt>
      <trkpt lat="47.49177" lon="6.73016">
        <ele>393</ele>
        <time>2016-05-08T07:50:55.000Z</time>
      </trkpt>
      <trkpt lat="47.49177" lon="6.73013">
        <ele>393</ele>
        <time>2016-05-08T07:50:56.000Z</time>
      </trkpt>
      <trkpt lat="47.49178" lon="6.73009">
        <ele>393</ele>
        <time>2016-05-08T07:50:57.000Z</time>
      </trkpt>
      <trkpt lat="47.49179" lon="6.73005">
        <ele>393</ele>
        <time>2016-05-08T07:50:58.000Z</time>
      </trkpt>
      <trkpt lat="47.49179" lon="6.73">
        <ele>393</ele>
        <time>2016-05-08T07:50:59.000Z</time>
      </trkpt>
      <trkpt lat="47.4918" lon="6.72995">
        <ele>393</ele>
        <time>2016-05-08T07:51:00.000Z</time>
      </trkpt>
      <trkpt lat="47.4918" lon="6.72989">
        <ele>393</ele>
        <time>2016-05-08T07:51:01.000Z</time>
      </trkpt>
      <trkpt lat="47.4918" lon="6.72983">
        <ele>393</ele>
        <time>2016-05-08T07:51:02.000Z</time>
      </trkpt>
      <trkpt lat="47.49181" lon="6.72976">
        <ele>394</ele>
        <time>2016-05-08T07:51:03.000Z</time>
      </trkpt>
      <trkpt lat="47.49182" lon="6.7297">
        <ele>394</ele>
        <time>2016-05-08T07:51:04.000Z</time>
      </trkpt>
      <trkpt lat="47.49184" lon="6.72964">
        <ele>394</ele>
        <time>2016-05-08T07:51:05.000Z</time>
      </trkpt>
      <trkpt lat="47.49186" lon="6.72959">
        <ele>394</ele>
        <time>2016-05-08T07:51:06.000Z</time>
      </trkpt>
      <trkpt lat="47.49188" lon="6.72955">
        <ele>394</ele>
        <time>2016-05-08T07:51:07.000Z</time>
      </trkpt>
      <trkpt lat="47.4919" lon="6.72951">
        <ele>394</ele>
        <time>2016-05-08T07:51:08.000Z</time>
      </trkpt>
      <trkpt lat="47.49193" lon="6.72946">
        <ele>395</ele>
        <time>2016-05-08T07:51:09.000Z</time>
      </trkpt>
      <trkpt lat="47.49195" lon="6.72941">
        <ele>395</ele>
        <time>2016-05-08T07:51:10.000Z</time>
      </trkpt>
      <trkpt lat="47.49196" lon="6.72936">
        <ele>395</ele>
        <time>2016-05-08T07:51:11.000Z</time>
      </trkpt>
      <trkpt lat="47.49198" lon="6.72931">
        <ele>395</ele>
        <time>2016-05-08T07:51:12.000Z</time>
      </trkpt>
      <trkpt lat="47.49199" lon="6.72927">
        <ele>395</ele>
        <time>2016-05-08T07:51:13.000Z</time>
      </trkpt>
      <trkpt lat="47.492" lon="6.72923">
        <ele>395</ele>
        <time>2016-05-08T07:51:14.000Z</time>
      </trkpt>
      <trkpt lat="47.49202" lon="6.72919">
        <ele>395</ele>
        <time>2016-05-08T07:51:15.000Z</time>
      </trkpt>
      <trkpt lat="47.49203" lon="6.72915">
        <ele>395</ele>
        <time>2016-05-08T07:51:16.000Z</time>
      </trkpt>
      <trkpt lat="47.49204" lon="6.72911">
        <ele>395</ele>
        <time>2016-05-08T07:51:17.000Z</time>
      </trkpt>
      <trkpt lat="47.49206" lon="6.72908">
        <ele>395</ele>
        <time>2016-05-08T07:51:18.000Z</time>
      </trkpt>
      <trkpt lat="47.49208" lon="6.72905">
        <ele>395</ele>
        <time>2016-05-08T07:51:19.000Z</time>
      </trkpt>
      <trkpt lat="47.49209" lon="6.72903">
        <ele>395</ele>
        <time>2016-05-08T07:51:20.000Z</time>
      </trkpt>
      <trkpt lat="47.49211" lon="6.729">
        <ele>395</ele>
        <time>2016-05-08T07:51:21.000Z</time>
      </trkpt>
      <trkpt lat="47.49213" lon="6.72896">
        <ele>395</ele>
        <time>2016-05-08T07:51:22.000Z</time>
      </trkpt>
      <trkpt lat="47.49215" lon="6.72892">
        <ele>395</ele>
        <time>2016-05-08T07:51:23.000Z</time>
      </trkpt>
      <trkpt lat="47.49216" lon="6.72888">
        <ele>395</ele>
        <time>2016-05-08T07:51:24.000Z</time>
      </trkpt>
      <trkpt lat="47.49217" lon="6.72884">
        <ele>395</ele>
        <time>2016-05-08T07:51:25.000Z</time>
      </trkpt>
      <trkpt lat="47.49219" lon="6.7288">
        <ele>395</ele>
        <time>2016-05-08T07:51:26.000Z</time>
      </trkpt>
      <trkpt lat="47.49222" lon="6.72877">
        <ele>395</ele>
        <time>2016-05-08T07:51:27.000Z</time>
      </trkpt>
      <trkpt lat="47.49224" lon="6.72873">
        <ele>396</ele>
        <time>2016-05-08T07:51:28.000Z</time>
      </trkpt>
      <trkpt lat="47.49227" lon="6.72869">
        <ele>396</ele>
        <time>2016-05-08T07:51:29.000Z</time>
      </trkpt>
      <trkpt lat="47.49231" lon="6.72864">
        <ele>396</ele>
        <time>2016-05-08T07:51:30.000Z</time>
      </trkpt>
      <trkpt lat="47.49234" lon="6.7286">
        <ele>396</ele>
        <time>2016-05-08T07:51:31.000Z</time>
      </trkpt>
      <trkpt lat="47.49238" lon="6.72855">
        <ele>396</ele>
        <time>2016-05-08T07:51:32.000Z</time>
      </trkpt>
      <trkpt lat="47.49241" lon="6.7285">
        <ele>397</ele>
        <time>2016-05-08T07:51:33.000Z</time>
      </trkpt>
      <trkpt lat="47.4925" lon="6.72846">
        <ele>398</ele>
        <time>2016-05-08T07:51:34.000Z</time>
      </trkpt>
      <trkpt lat="47.49254" lon="6.72842">
        <ele>398</ele>
        <time>2016-05-08T07:51:35.000Z</time>
      </trkpt>
      <trkpt lat="47.49257" lon="6.72839">
        <ele>398</ele>
        <time>2016-05-08T07:51:36.000Z</time>
      </trkpt>
      <trkpt lat="47.49261" lon="6.72833">
        <ele>398</ele>
        <time>2016-05-08T07:51:37.000Z</time>
      </trkpt>
      <trkpt lat="47.49264" lon="6.72828">
        <ele>398</ele>
        <time>2016-05-08T07:51:38.000Z</time>
      </trkpt>
      <trkpt lat="47.49268" lon="6.72823">
        <ele>398</ele>
        <time>2016-05-08T07:51:39.000Z</time>
      </trkpt>
      <trkpt lat="47.4927" lon="6.72817">
        <ele>398</ele>
        <time>2016-05-08T07:51:40.000Z</time>
      </trkpt>
      <trkpt lat="47.4927" lon="6.72815">
        <ele>398</ele>
        <time>2016-05-08T07:51:41.000Z</time>
      </trkpt>
      <trkpt lat="47.49272" lon="6.72811">
        <ele>398</ele>
        <time>2016-05-08T07:51:42.000Z</time>
      </trkpt>
      <trkpt lat="47.49273" lon="6.72807">
        <ele>398</ele>
        <time>2016-05-08T07:51:43.000Z</time>
      </trkpt>
      <trkpt lat="47.49274" lon="6.72804">
        <ele>398</ele>
        <time>2016-05-08T07:51:44.000Z</time>
      </trkpt>
      <trkpt lat="47.49277" lon="6.72801">
        <ele>398</ele>
        <time>2016-05-08T07:51:45.000Z</time>
      </trkpt>
      <trkpt lat="47.49278" lon="6.72796">
        <ele>398</ele>
        <time>2016-05-08T07:51:47.000Z</time>
      </trkpt>
      <trkpt lat="47.49278" lon="6.72794">
        <ele>398</ele>
        <time>2016-05-08T07:51:48.000Z</time>
      </trkpt>
      <trkpt lat="47.4928" lon="6.72789">
        <ele>398</ele>
        <time>2016-05-08T07:51:50.000Z</time>
      </trkpt>
      <trkpt lat="47.49281" lon="6.72787">
        <ele>398</ele>
        <time>2016-05-08T07:51:51.000Z</time>
      </trkpt>
      <trkpt lat="47.49283" lon="6.72785">
        <ele>398</ele>
        <time>2016-05-08T07:51:52.000Z</time>
      </trkpt>
      <trkpt lat="47.49285" lon="6.72782">
        <ele>398</ele>
        <time>2016-05-08T07:51:53.000Z</time>
      </trkpt>
      <trkpt lat="47.49287" lon="6.72779">
        <ele>398</ele>
        <time>2016-05-08T07:51:54.000Z</time>
      </trkpt>
      <trkpt lat="47.49289" lon="6.72775">
        <ele>398</ele>
        <time>2016-05-08T07:51:55.000Z</time>
      </trkpt>
      <trkpt lat="47.49291" lon="6.72772">
        <ele>398</ele>
        <time>2016-05-08T07:51:56.000Z</time>
      </trkpt>
      <trkpt lat="47.49292" lon="6.72768">
        <ele>398</ele>
        <time>2016-05-08T07:51:57.000Z</time>
      </trkpt>
      <trkpt lat="47.49293" lon="6.72764">
        <ele>398</ele>
        <time>2016-05-08T07:51:58.000Z</time>
      </trkpt>
      <trkpt lat="47.49294" lon="6.72761">
        <ele>398</ele>
        <time>2016-05-08T07:51:59.000Z</time>
      </trkpt>
      <trkpt lat="47.49295" lon="6.72757">
        <ele>398</ele>
        <time>2016-05-08T07:52:00.000Z</time>
      </trkpt>
      <trkpt lat="47.49296" lon="6.72754">
        <ele>398</ele>
        <time>2016-05-08T07:52:01.000Z</time>
      </trkpt>
      <trkpt lat="47.49297" lon="6.72751">
        <ele>398</ele>
        <time>2016-05-08T07:52:02.000Z</time>
      </trkpt>
      <trkpt lat="47.49298" lon="6.72747">
        <ele>399</ele>
        <time>2016-05-08T07:52:03.000Z</time>
      </trkpt>
      <trkpt lat="47.49299" lon="6.72743">
        <ele>399</ele>
        <time>2016-05-08T07:52:04.000Z</time>
      </trkpt>
      <trkpt lat="47.493" lon="6.72738">
        <ele>399</ele>
        <time>2016-05-08T07:52:05.000Z</time>
      </trkpt>
      <trkpt lat="47.49301" lon="6.72734">
        <ele>399</ele>
        <time>2016-05-08T07:52:06.000Z</time>
      </trkpt>
      <trkpt lat="47.49303" lon="6.72729">
        <ele>399</ele>
        <time>2016-05-08T07:52:07.000Z</time>
      </trkpt>
      <trkpt lat="47.49304" lon="6.72724">
        <ele>399</ele>
        <time>2016-05-08T07:52:08.000Z</time>
      </trkpt>
      <trkpt lat="47.49304" lon="6.7272">
        <ele>399</ele>
        <time>2016-05-08T07:52:09.000Z</time>
      </trkpt>
      <trkpt lat="47.49304" lon="6.72715">
        <ele>399</ele>
        <time>2016-05-08T07:52:10.000Z</time>
      </trkpt>
      <trkpt lat="47.49303" lon="6.7271">
        <ele>399</ele>
        <time>2016-05-08T07:52:11.000Z</time>
      </trkpt>
      <trkpt lat="47.49303" lon="6.72705">
        <ele>399</ele>
        <time>2016-05-08T07:52:12.000Z</time>
      </trkpt>
      <trkpt lat="47.49303" lon="6.727">
        <ele>400</ele>
        <time>2016-05-08T07:52:13.000Z</time>
      </trkpt>
      <trkpt lat="47.49304" lon="6.72695">
        <ele>400</ele>
        <time>2016-05-08T07:52:14.000Z</time>
      </trkpt>
      <trkpt lat="47.49304" lon="6.72691">
        <ele>400</ele>
        <time>2016-05-08T07:52:15.000Z</time>
      </trkpt>
      <trkpt lat="47.49304" lon="6.72688">
        <ele>400</ele>
        <time>2016-05-08T07:52:16.000Z</time>
      </trkpt>
      <trkpt lat="47.49304" lon="6.72683">
        <ele>400</ele>
        <time>2016-05-08T07:52:17.000Z</time>
      </trkpt>
      <trkpt lat="47.49304" lon="6.72679">
        <ele>400</ele>
        <time>2016-05-08T07:52:18.000Z</time>
      </trkpt>
      <trkpt lat="47.49304" lon="6.72675">
        <ele>400</ele>
        <time>2016-05-08T07:52:19.000Z</time>
      </trkpt>
      <trkpt lat="47.49304" lon="6.72671">
        <ele>400</ele>
        <time>2016-05-08T07:52:20.000Z</time>
      </trkpt>
      <trkpt lat="47.49305" lon="6.72667">
        <ele>402</ele>
        <time>2016-05-08T07:52:21.000Z</time>
      </trkpt>
      <trkpt lat="47.49305" lon="6.72662">
        <ele>402</ele>
        <time>2016-05-08T07:52:22.000Z</time>
      </trkpt>
      <trkpt lat="47.49305" lon="6.72658">
        <ele>402</ele>
        <time>2016-05-08T07:52:23.000Z</time>
      </trkpt>
      <trkpt lat="47.49305" lon="6.72653">
        <ele>402</ele>
        <time>2016-05-08T07:52:24.000Z</time>
      </trkpt>
      <trkpt lat="47.49306" lon="6.72649">
        <ele>402</ele>
        <time>2016-05-08T07:52:25.000Z</time>
      </trkpt>
      <trkpt lat="47.49306" lon="6.72645">
        <ele>402</ele>
        <time>2016-05-08T07:52:26.000Z</time>
      </trkpt>
      <trkpt lat="47.49306" lon="6.72641">
        <ele>402</ele>
        <time>2016-05-08T07:52:27.000Z</time>
      </trkpt>
      <trkpt lat="47.49306" lon="6.72637">
        <ele>402</ele>
        <time>2016-05-08T07:52:28.000Z</time>
      </trkpt>
      <trkpt lat="47.49305" lon="6.72632">
        <ele>402</ele>
        <time>2016-05-08T07:52:29.000Z</time>
      </trkpt>
      <trkpt lat="47.49305" lon="6.72628">
        <ele>402</ele>
        <time>2016-05-08T07:52:30.000Z</time>
      </trkpt>
      <trkpt lat="47.49305" lon="6.72624">
        <ele>402</ele>
        <time>2016-05-08T07:52:31.000Z</time>
      </trkpt>
      <trkpt lat="47.49305" lon="6.7262">
        <ele>402</ele>
        <time>2016-05-08T07:52:32.000Z</time>
      </trkpt>
      <trkpt lat="47.49305" lon="6.72616">
        <ele>402</ele>
        <time>2016-05-08T07:52:33.000Z</time>
      </trkpt>
      <trkpt lat="47.49306" lon="6.72611">
        <ele>402</ele>
        <time>2016-05-08T07:52:34.000Z</time>
      </trkpt>
      <trkpt lat="47.49306" lon="6.72607">
        <ele>402</ele>
        <time>2016-05-08T07:52:35.000Z</time>
      </trkpt>
      <trkpt lat="47.49306" lon="6.72601">
        <ele>403</ele>
        <time>2016-05-08T07:52:37.000Z</time>
      </trkpt>
      <trkpt lat="47.49308" lon="6.72598">
        <ele>403</ele>
        <time>2016-05-08T07:52:38.000Z</time>
      </trkpt>
      <trkpt lat="47.49309" lon="6.72596">
        <ele>403</ele>
        <time>2016-05-08T07:52:39.000Z</time>
      </trkpt>
      <trkpt lat="47.49311" lon="6.72594">
        <ele>403</ele>
        <time>2016-05-08T07:52:40.000Z</time>
      </trkpt>
      <trkpt lat="47.49313" lon="6.72591">
        <ele>403</ele>
        <time>2016-05-08T07:52:41.000Z</time>
      </trkpt>
      <trkpt lat="47.49314" lon="6.72588">
        <ele>403</ele>
        <time>2016-05-08T07:52:42.000Z</time>
      </trkpt>
      <trkpt lat="47.49314" lon="6.72584">
        <ele>404</ele>
        <time>2016-05-08T07:52:43.000Z</time>
      </trkpt>
      <trkpt lat="47.49314" lon="6.7258">
        <ele>405</ele>
        <time>2016-05-08T07:52:44.000Z</time>
      </trkpt>
      <trkpt lat="47.49314" lon="6.72576">
        <ele>405</ele>
        <time>2016-05-08T07:52:45.000Z</time>
      </trkpt>
      <trkpt lat="47.49314" lon="6.72571">
        <ele>405</ele>
        <time>2016-05-08T07:52:46.000Z</time>
      </trkpt>
      <trkpt lat="47.49314" lon="6.72567">
        <ele>405</ele>
        <time>2016-05-08T07:52:47.000Z</time>
      </trkpt>
      <trkpt lat="47.49314" lon="6.72562">
        <ele>405</ele>
        <time>2016-05-08T07:52:48.000Z</time>
      </trkpt>
      <trkpt lat="47.49315" lon="6.72557">
        <ele>405</ele>
        <time>2016-05-08T07:52:49.000Z</time>
      </trkpt>
      <trkpt lat="47.49316" lon="6.72552">
        <ele>405</ele>
        <time>2016-05-08T07:52:50.000Z</time>
      </trkpt>
      <trkpt lat="47.49316" lon="6.72547">
        <ele>406</ele>
        <time>2016-05-08T07:52:51.000Z</time>
      </trkpt>
      <trkpt lat="47.49317" lon="6.72543">
        <ele>406</ele>
        <time>2016-05-08T07:52:52.000Z</time>
      </trkpt>
      <trkpt lat="47.49318" lon="6.72539">
        <ele>406</ele>
        <time>2016-05-08T07:52:53.000Z</time>
      </trkpt>
      <trkpt lat="47.49319" lon="6.72535">
        <ele>406</ele>
        <time>2016-05-08T07:52:54.000Z</time>
      </trkpt>
      <trkpt lat="47.49319" lon="6.72531">
        <ele>406</ele>
        <time>2016-05-08T07:52:55.000Z</time>
      </trkpt>
      <trkpt lat="47.4932" lon="6.72526">
        <ele>406</ele>
        <time>2016-05-08T07:52:56.000Z</time>
      </trkpt>
      <trkpt lat="47.49321" lon="6.72522">
        <ele>407</ele>
        <time>2016-05-08T07:52:57.000Z</time>
      </trkpt>
      <trkpt lat="47.49322" lon="6.72518">
        <ele>407</ele>
        <time>2016-05-08T07:52:58.000Z</time>
      </trkpt>
      <trkpt lat="47.49323" lon="6.72514">
        <ele>407</ele>
        <time>2016-05-08T07:52:59.000Z</time>
      </trkpt>
      <trkpt lat="47.49323" lon="6.72509">
        <ele>407</ele>
        <time>2016-05-08T07:53:00.000Z</time>
      </trkpt>
      <trkpt lat="47.49322" lon="6.72504">
        <ele>408</ele>
        <time>2016-05-08T07:53:01.000Z</time>
      </trkpt>
      <trkpt lat="47.49321" lon="6.72499">
        <ele>409</ele>
        <time>2016-05-08T07:53:02.000Z</time>
      </trkpt>
      <trkpt lat="47.49321" lon="6.72495">
        <ele>409</ele>
        <time>2016-05-08T07:53:03.000Z</time>
      </trkpt>
      <trkpt lat="47.49321" lon="6.72491">
        <ele>409</ele>
        <time>2016-05-08T07:53:04.000Z</time>
      </trkpt>
      <trkpt lat="47.49321" lon="6.72487">
        <ele>409</ele>
        <time>2016-05-08T07:53:05.000Z</time>
      </trkpt>
      <trkpt lat="47.49322" lon="6.72483">
        <ele>409</ele>
        <time>2016-05-08T07:53:06.000Z</time>
      </trkpt>
      <trkpt lat="47.49323" lon="6.72479">
        <ele>409</ele>
        <time>2016-05-08T07:53:07.000Z</time>
      </trkpt>
      <trkpt lat="47.49323" lon="6.72475">
        <ele>409</ele>
        <time>2016-05-08T07:53:08.000Z</time>
      </trkpt>
      <trkpt lat="47.49324" lon="6.72472">
        <ele>409</ele>
        <time>2016-05-08T07:53:09.000Z</time>
      </trkpt>
      <trkpt lat="47.49324" lon="6.72468">
        <ele>409</ele>
        <time>2016-05-08T07:53:10.000Z</time>
      </trkpt>
      <trkpt lat="47.49324" lon="6.72463">
        <ele>409</ele>
        <time>2016-05-08T07:53:12.000Z</time>
      </trkpt>
      <trkpt lat="47.49324" lon="6.72459">
        <ele>409</ele>
        <time>2016-05-08T07:53:13.000Z</time>
      </trkpt>
      <trkpt lat="47.49323" lon="6.72453">
        <ele>409</ele>
        <time>2016-05-08T07:53:15.000Z</time>
      </trkpt>
      <trkpt lat="47.49322" lon="6.7245">
        <ele>409</ele>
        <time>2016-05-08T07:53:16.000Z</time>
      </trkpt>
      <trkpt lat="47.49321" lon="6.72444">
        <ele>409</ele>
        <time>2016-05-08T07:53:18.000Z</time>
      </trkpt>
      <trkpt lat="47.4932" lon="6.72442">
        <ele>409</ele>
        <time>2016-05-08T07:53:19.000Z</time>
      </trkpt>
      <trkpt lat="47.49318" lon="6.72436">
        <ele>409</ele>
        <time>2016-05-08T07:53:21.000Z</time>
      </trkpt>
      <trkpt lat="47.49317" lon="6.72433">
        <ele>410</ele>
        <time>2016-05-08T07:53:22.000Z</time>
      </trkpt>
      <trkpt lat="47.49317" lon="6.72429">
        <ele>410</ele>
        <time>2016-05-08T07:53:23.000Z</time>
      </trkpt>
      <trkpt lat="47.49316" lon="6.72425">
        <ele>410</ele>
        <time>2016-05-08T07:53:24.000Z</time>
      </trkpt>
      <trkpt lat="47.49316" lon="6.72421">
        <ele>410</ele>
        <time>2016-05-08T07:53:25.000Z</time>
      </trkpt>
      <trkpt lat="47.49316" lon="6.72418">
        <ele>410</ele>
        <time>2016-05-08T07:53:26.000Z</time>
      </trkpt>
      <trkpt lat="47.49315" lon="6.72411">
        <ele>411</ele>
        <time>2016-05-08T07:53:28.000Z</time>
      </trkpt>
      <trkpt lat="47.49315" lon="6.72408">
        <ele>411</ele>
        <time>2016-05-08T07:53:29.000Z</time>
      </trkpt>
      <trkpt lat="47.49315" lon="6.72404">
        <ele>411</ele>
        <time>2016-05-08T07:53:30.000Z</time>
      </trkpt>
      <trkpt lat="47.49315" lon="6.72399">
        <ele>411</ele>
        <time>2016-05-08T07:53:31.000Z</time>
      </trkpt>
      <trkpt lat="47.49316" lon="6.72394">
        <ele>411</ele>
        <time>2016-05-08T07:53:32.000Z</time>
      </trkpt>
      <trkpt lat="47.49318" lon="6.72388">
        <ele>411</ele>
        <time>2016-05-08T07:53:33.000Z</time>
      </trkpt>
      <trkpt lat="47.49319" lon="6.72383">
        <ele>411</ele>
        <time>2016-05-08T07:53:34.000Z</time>
      </trkpt>
      <trkpt lat="47.4932" lon="6.72379">
        <ele>411</ele>
        <time>2016-05-08T07:53:35.000Z</time>
      </trkpt>
      <trkpt lat="47.49321" lon="6.72375">
        <ele>411</ele>
        <time>2016-05-08T07:53:36.000Z</time>
      </trkpt>
      <trkpt lat="47.49321" lon="6.7237">
        <ele>411</ele>
        <time>2016-05-08T07:53:37.000Z</time>
      </trkpt>
      <trkpt lat="47.49321" lon="6.72365">
        <ele>411</ele>
        <time>2016-05-08T07:53:38.000Z</time>
      </trkpt>
      <trkpt lat="47.49321" lon="6.7236">
        <ele>411</ele>
        <time>2016-05-08T07:53:39.000Z</time>
      </trkpt>
      <trkpt lat="47.49321" lon="6.72355">
        <ele>412</ele>
        <time>2016-05-08T07:53:40.000Z</time>
      </trkpt>
      <trkpt lat="47.49321" lon="6.72351">
        <ele>412</ele>
        <time>2016-05-08T07:53:41.000Z</time>
      </trkpt>
      <trkpt lat="47.49321" lon="6.72346">
        <ele>412</ele>
        <time>2016-05-08T07:53:42.000Z</time>
      </trkpt>
      <trkpt lat="47.49321" lon="6.72341">
        <ele>412</ele>
        <time>2016-05-08T07:53:43.000Z</time>
      </trkpt>
      <trkpt lat="47.49321" lon="6.72337">
        <ele>413</ele>
        <time>2016-05-08T07:53:44.000Z</time>
      </trkpt>
      <trkpt lat="47.49321" lon="6.72332">
        <ele>414</ele>
        <time>2016-05-08T07:53:45.000Z</time>
      </trkpt>
      <trkpt lat="47.4932" lon="6.72328">
        <ele>414</ele>
        <time>2016-05-08T07:53:46.000Z</time>
      </trkpt>
      <trkpt lat="47.49319" lon="6.72325">
        <ele>414</ele>
        <time>2016-05-08T07:53:47.000Z</time>
      </trkpt>
      <trkpt lat="47.49319" lon="6.72321">
        <ele>414</ele>
        <time>2016-05-08T07:53:48.000Z</time>
      </trkpt>
      <trkpt lat="47.49318" lon="6.72317">
        <ele>414</ele>
        <time>2016-05-08T07:53:49.000Z</time>
      </trkpt>
      <trkpt lat="47.49319" lon="6.72313">
        <ele>414</ele>
        <time>2016-05-08T07:53:50.000Z</time>
      </trkpt>
      <trkpt lat="47.49319" lon="6.72309">
        <ele>414</ele>
        <time>2016-05-08T07:53:51.000Z</time>
      </trkpt>
      <trkpt lat="47.4932" lon="6.72305">
        <ele>414</ele>
        <time>2016-05-08T07:53:52.000Z</time>
      </trkpt>
      <trkpt lat="47.49321" lon="6.723">
        <ele>414</ele>
        <time>2016-05-08T07:53:53.000Z</time>
      </trkpt>
      <trkpt lat="47.49322" lon="6.72296">
        <ele>414</ele>
        <time>2016-05-08T07:53:54.000Z</time>
      </trkpt>
      <trkpt lat="47.49323" lon="6.72291">
        <ele>414</ele>
        <time>2016-05-08T07:53:55.000Z</time>
      </trkpt>
      <trkpt lat="47.49323" lon="6.72287">
        <ele>414</ele>
        <time>2016-05-08T07:53:56.000Z</time>
      </trkpt>
      <trkpt lat="47.49323" lon="6.72282">
        <ele>414</ele>
        <time>2016-05-08T07:53:57.000Z</time>
      </trkpt>
      <trkpt lat="47.49323" lon="6.72278">
        <ele>415</ele>
        <time>2016-05-08T07:53:58.000Z</time>
      </trkpt>
      <trkpt lat="47.49324" lon="6.72274">
        <ele>415</ele>
        <time>2016-05-08T07:53:59.000Z</time>
      </trkpt>
      <trkpt lat="47.49324" lon="6.72269">
        <ele>415</ele>
        <time>2016-05-08T07:54:01.000Z</time>
      </trkpt>
      <trkpt lat="47.49324" lon="6.72267">
        <ele>415</ele>
        <time>2016-05-08T07:54:02.000Z</time>
      </trkpt>
      <trkpt lat="47.49324" lon="6.72262">
        <ele>416</ele>
        <time>2016-05-08T07:54:04.000Z</time>
      </trkpt>
      <trkpt lat="47.49325" lon="6.72259">
        <ele>416</ele>
        <time>2016-05-08T07:54:05.000Z</time>
      </trkpt>
      <trkpt lat="47.49326" lon="6.72255">
        <ele>417</ele>
        <time>2016-05-08T07:54:06.000Z</time>
      </trkpt>
      <trkpt lat="47.49327" lon="6.72252">
        <ele>417</ele>
        <time>2016-05-08T07:54:07.000Z</time>
      </trkpt>
      <trkpt lat="47.49327" lon="6.72248">
        <ele>418</ele>
        <time>2016-05-08T07:54:08.000Z</time>
      </trkpt>
      <trkpt lat="47.49328" lon="6.72244">
        <ele>418</ele>
        <time>2016-05-08T07:54:09.000Z</time>
      </trkpt>
      <trkpt lat="47.49329" lon="6.72239">
        <ele>418</ele>
        <time>2016-05-08T07:54:11.000Z</time>
      </trkpt>
      <trkpt lat="47.4933" lon="6.72236">
        <ele>418</ele>
        <time>2016-05-08T07:54:12.000Z</time>
      </trkpt>
      <trkpt lat="47.4933" lon="6.7223">
        <ele>418</ele>
        <time>2016-05-08T07:54:15.000Z</time>
      </trkpt>
      <trkpt lat="47.49331" lon="6.72228">
        <ele>418</ele>
        <time>2016-05-08T07:54:16.000Z</time>
      </trkpt>
      <trkpt lat="47.49332" lon="6.72222">
        <ele>418</ele>
        <time>2016-05-08T07:54:19.000Z</time>
      </trkpt>
      <trkpt lat="47.49333" lon="6.72221">
        <ele>418</ele>
        <time>2016-05-08T07:54:20.000Z</time>
      </trkpt>
      <trkpt lat="47.49335" lon="6.72216">
        <ele>419</ele>
        <time>2016-05-08T07:54:22.000Z</time>
      </trkpt>
      <trkpt lat="47.49336" lon="6.72213">
        <ele>419</ele>
        <time>2016-05-08T07:54:23.000Z</time>
      </trkpt>
      <trkpt lat="47.49338" lon="6.72208">
        <ele>420</ele>
        <time>2016-05-08T07:54:25.000Z</time>
      </trkpt>
      <trkpt lat="47.49339" lon="6.72205">
        <ele>420</ele>
        <time>2016-05-08T07:54:26.000Z</time>
      </trkpt>
      <trkpt lat="47.4934" lon="6.722">
        <ele>420</ele>
        <time>2016-05-08T07:54:28.000Z</time>
      </trkpt>
      <trkpt lat="47.49341" lon="6.72197">
        <ele>420</ele>
        <time>2016-05-08T07:54:29.000Z</time>
      </trkpt>
      <trkpt lat="47.49342" lon="6.72191">
        <ele>420</ele>
        <time>2016-05-08T07:54:31.000Z</time>
      </trkpt>
      <trkpt lat="47.49342" lon="6.72188">
        <ele>420</ele>
        <time>2016-05-08T07:54:32.000Z</time>
      </trkpt>
      <trkpt lat="47.49342" lon="6.72181">
        <ele>421</ele>
        <time>2016-05-08T07:54:34.000Z</time>
      </trkpt>
      <trkpt lat="47.49342" lon="6.72178">
        <ele>421</ele>
        <time>2016-05-08T07:54:35.000Z</time>
      </trkpt>
      <trkpt lat="47.49343" lon="6.72172">
        <ele>421</ele>
        <time>2016-05-08T07:54:37.000Z</time>
      </trkpt>
      <trkpt lat="47.49344" lon="6.7217">
        <ele>421</ele>
        <time>2016-05-08T07:54:38.000Z</time>
      </trkpt>
      <trkpt lat="47.49345" lon="6.72164">
        <ele>422</ele>
        <time>2016-05-08T07:54:43.000Z</time>
      </trkpt>
      <trkpt lat="47.49345" lon="6.72163">
        <ele>422</ele>
        <time>2016-05-08T07:54:44.000Z</time>
      </trkpt>
      <trkpt lat="47.49345" lon="6.72157">
        <ele>422</ele>
        <time>2016-05-08T07:54:46.000Z</time>
      </trkpt>
      <trkpt lat="47.49345" lon="6.72154">
        <ele>422</ele>
        <time>2016-05-08T07:54:47.000Z</time>
      </trkpt>
      <trkpt lat="47.49346" lon="6.72151">
        <ele>422</ele>
        <time>2016-05-08T07:54:48.000Z</time>
      </trkpt>
      <trkpt lat="47.49346" lon="6.72147">
        <ele>422</ele>
        <time>2016-05-08T07:54:49.000Z</time>
      </trkpt>
      <trkpt lat="47.49346" lon="6.72143">
        <ele>423</ele>
        <time>2016-05-08T07:54:50.000Z</time>
      </trkpt>
      <trkpt lat="47.49346" lon="6.72139">
        <ele>423</ele>
        <time>2016-05-08T07:54:51.000Z</time>
      </trkpt>
      <trkpt lat="47.49347" lon="6.72135">
        <ele>423</ele>
        <time>2016-05-08T07:54:52.000Z</time>
      </trkpt>
      <trkpt lat="47.49347" lon="6.72132">
        <ele>423</ele>
        <time>2016-05-08T07:54:53.000Z</time>
      </trkpt>
      <trkpt lat="47.49348" lon="6.72125">
        <ele>423</ele>
        <time>2016-05-08T07:54:55.000Z</time>
      </trkpt>
      <trkpt lat="47.49348" lon="6.72122">
        <ele>423</ele>
        <time>2016-05-08T07:54:56.000Z</time>
      </trkpt>
      <trkpt lat="47.49348" lon="6.72119">
        <ele>423</ele>
        <time>2016-05-08T07:54:57.000Z</time>
      </trkpt>
      <trkpt lat="47.49349" lon="6.72115">
        <ele>423</ele>
        <time>2016-05-08T07:54:58.000Z</time>
      </trkpt>
      <trkpt lat="47.49349" lon="6.72111">
        <ele>423</ele>
        <time>2016-05-08T07:54:59.000Z</time>
      </trkpt>
      <trkpt lat="47.4935" lon="6.72108">
        <ele>423</ele>
        <time>2016-05-08T07:55:00.000Z</time>
      </trkpt>
      <trkpt lat="47.49351" lon="6.72104">
        <ele>423</ele>
        <time>2016-05-08T07:55:01.000Z</time>
      </trkpt>
      <trkpt lat="47.49352" lon="6.72101">
        <ele>424</ele>
        <time>2016-05-08T07:55:02.000Z</time>
      </trkpt>
      <trkpt lat="47.49354" lon="6.72097">
        <ele>424</ele>
        <time>2016-05-08T07:55:03.000Z</time>
      </trkpt>
      <trkpt lat="47.49355" lon="6.72093">
        <ele>424</ele>
        <time>2016-05-08T07:55:04.000Z</time>
      </trkpt>
      <trkpt lat="47.49356" lon="6.72089">
        <ele>424</ele>
        <time>2016-05-08T07:55:05.000Z</time>
      </trkpt>
      <trkpt lat="47.49357" lon="6.72085">
        <ele>424</ele>
        <time>2016-05-08T07:55:06.000Z</time>
      </trkpt>
      <trkpt lat="47.49358" lon="6.72082">
        <ele>425</ele>
        <time>2016-05-08T07:55:07.000Z</time>
      </trkpt>
      <trkpt lat="47.49359" lon="6.72078">
        <ele>425</ele>
        <time>2016-05-08T07:55:08.000Z</time>
      </trkpt>
      <trkpt lat="47.4936" lon="6.72072">
        <ele>425</ele>
        <time>2016-05-08T07:55:10.000Z</time>
      </trkpt>
      <trkpt lat="47.49361" lon="6.72069">
        <ele>425</ele>
        <time>2016-05-08T07:55:11.000Z</time>
      </trkpt>
      <trkpt lat="47.49362" lon="6.72063">
        <ele>425</ele>
        <time>2016-05-08T07:55:13.000Z</time>
      </trkpt>
      <trkpt lat="47.49363" lon="6.7206">
        <ele>426</ele>
        <time>2016-05-08T07:55:14.000Z</time>
      </trkpt>
      <trkpt lat="47.49364" lon="6.72056">
        <ele>426</ele>
        <time>2016-05-08T07:55:15.000Z</time>
      </trkpt>
      <trkpt lat="47.49364" lon="6.72053">
        <ele>426</ele>
        <time>2016-05-08T07:55:16.000Z</time>
      </trkpt>
      <trkpt lat="47.49365" lon="6.72049">
        <ele>426</ele>
        <time>2016-05-08T07:55:17.000Z</time>
      </trkpt>
      <trkpt lat="47.49365" lon="6.72045">
        <ele>426</ele>
        <time>2016-05-08T07:55:18.000Z</time>
      </trkpt>
      <trkpt lat="47.49366" lon="6.72041">
        <ele>426</ele>
        <time>2016-05-08T07:55:19.000Z</time>
      </trkpt>
      <trkpt lat="47.49367" lon="6.72038">
        <ele>426</ele>
        <time>2016-05-08T07:55:20.000Z</time>
      </trkpt>
      <trkpt lat="47.4937" lon="6.72033">
        <ele>426</ele>
        <time>2016-05-08T07:55:22.000Z</time>
      </trkpt>
      <trkpt lat="47.49371" lon="6.72031">
        <ele>426</ele>
        <time>2016-05-08T07:55:23.000Z</time>
      </trkpt>
      <trkpt lat="47.49372" lon="6.72027">
        <ele>426</ele>
        <time>2016-05-08T07:55:25.000Z</time>
      </trkpt>
      <trkpt lat="47.49373" lon="6.72025">
        <ele>426</ele>
        <time>2016-05-08T07:55:26.000Z</time>
      </trkpt>
      <trkpt lat="47.49375" lon="6.7202">
        <ele>426</ele>
        <time>2016-05-08T07:55:28.000Z</time>
      </trkpt>
      <trkpt lat="47.49375" lon="6.72017">
        <ele>426</ele>
        <time>2016-05-08T07:55:29.000Z</time>
      </trkpt>
      <trkpt lat="47.49375" lon="6.72012">
        <ele>426</ele>
        <time>2016-05-08T07:55:31.000Z</time>
      </trkpt>
      <trkpt lat="47.49375" lon="6.7201">
        <ele>426</ele>
        <time>2016-05-08T07:55:32.000Z</time>
      </trkpt>
      <trkpt lat="47.49377" lon="6.72003">
        <ele>426</ele>
        <time>2016-05-08T07:55:35.000Z</time>
      </trkpt>
      <trkpt lat="47.49378" lon="6.72001">
        <ele>426</ele>
        <time>2016-05-08T07:55:36.000Z</time>
      </trkpt>
      <trkpt lat="47.49378" lon="6.71995">
        <ele>429</ele>
        <time>2016-05-08T07:55:38.000Z</time>
      </trkpt>
      <trkpt lat="47.49379" lon="6.71992">
        <ele>429</ele>
        <time>2016-05-08T07:55:39.000Z</time>
      </trkpt>
      <trkpt lat="47.49382" lon="6.71987">
        <ele>429</ele>
        <time>2016-05-08T07:55:42.000Z</time>
      </trkpt>
      <trkpt lat="47.49382" lon="6.71986">
        <ele>429</ele>
        <time>2016-05-08T07:55:43.000Z</time>
      </trkpt>
      <trkpt lat="47.49384" lon="6.71982">
        <ele>429</ele>
        <time>2016-05-08T07:55:45.000Z</time>
      </trkpt>
      <trkpt lat="47.49385" lon="6.71979">
        <ele>429</ele>
        <time>2016-05-08T07:55:46.000Z</time>
      </trkpt>
      <trkpt lat="47.49386" lon="6.71973">
        <ele>430</ele>
        <time>2016-05-08T07:55:48.000Z</time>
      </trkpt>
      <trkpt lat="47.49386" lon="6.7197">
        <ele>430</ele>
        <time>2016-05-08T07:55:49.000Z</time>
      </trkpt>
      <trkpt lat="47.49387" lon="6.71964">
        <ele>430</ele>
        <time>2016-05-08T07:55:51.000Z</time>
      </trkpt>
      <trkpt lat="47.49388" lon="6.71961">
        <ele>430</ele>
        <time>2016-05-08T07:55:52.000Z</time>
      </trkpt>
      <trkpt lat="47.49389" lon="6.71955">
        <ele>430</ele>
        <time>2016-05-08T07:55:54.000Z</time>
      </trkpt>
      <trkpt lat="47.49389" lon="6.71953">
        <ele>431</ele>
        <time>2016-05-08T07:55:55.000Z</time>
      </trkpt>
      <trkpt lat="47.4939" lon="6.71947">
        <ele>431</ele>
        <time>2016-05-08T07:55:57.000Z</time>
      </trkpt>
      <trkpt lat="47.49391" lon="6.71945">
        <ele>431</ele>
        <time>2016-05-08T07:55:58.000Z</time>
      </trkpt>
      <trkpt lat="47.49391" lon="6.7194">
        <ele>431</ele>
        <time>2016-05-08T07:56:00.000Z</time>
      </trkpt>
      <trkpt lat="47.49392" lon="6.71938">
        <ele>431</ele>
        <time>2016-05-08T07:56:01.000Z</time>
      </trkpt>
      <trkpt lat="47.49394" lon="6.71933">
        <ele>431</ele>
        <time>2016-05-08T07:56:03.000Z</time>
      </trkpt>
      <trkpt lat="47.49394" lon="6.7193">
        <ele>432</ele>
        <time>2016-05-08T07:56:04.000Z</time>
      </trkpt>
      <trkpt lat="47.49395" lon="6.71925">
        <ele>432</ele>
        <time>2016-05-08T07:56:06.000Z</time>
      </trkpt>
      <trkpt lat="47.49396" lon="6.71922">
        <ele>432</ele>
        <time>2016-05-08T07:56:07.000Z</time>
      </trkpt>
      <trkpt lat="47.49395" lon="6.71916">
        <ele>434</ele>
        <time>2016-05-08T07:56:09.000Z</time>
      </trkpt>
      <trkpt lat="47.49395" lon="6.71913">
        <ele>434</ele>
        <time>2016-05-08T07:56:10.000Z</time>
      </trkpt>
      <trkpt lat="47.49394" lon="6.71908">
        <ele>434</ele>
        <time>2016-05-08T07:56:12.000Z</time>
      </trkpt>
      <trkpt lat="47.49393" lon="6.71906">
        <ele>434</ele>
        <time>2016-05-08T07:56:13.000Z</time>
      </trkpt>
      <trkpt lat="47.49392" lon="6.71901">
        <ele>435</ele>
        <time>2016-05-08T07:56:16.000Z</time>
      </trkpt>
      <trkpt lat="47.49391" lon="6.71899">
        <ele>435</ele>
        <time>2016-05-08T07:56:17.000Z</time>
      </trkpt>
      <trkpt lat="47.49391" lon="6.71894">
        <ele>435</ele>
        <time>2016-05-08T07:56:19.000Z</time>
      </trkpt>
      <trkpt lat="47.49391" lon="6.71892">
        <ele>435</ele>
        <time>2016-05-08T07:56:20.000Z</time>
      </trkpt>
      <trkpt lat="47.49392" lon="6.71886">
        <ele>435</ele>
        <time>2016-05-08T07:56:22.000Z</time>
      </trkpt>
      <trkpt lat="47.49392" lon="6.71884">
        <ele>435</ele>
        <time>2016-05-08T07:56:23.000Z</time>
      </trkpt>
      <trkpt lat="47.49394" lon="6.71879">
        <ele>435</ele>
        <time>2016-05-08T07:56:25.000Z</time>
      </trkpt>
      <trkpt lat="47.49394" lon="6.71877">
        <ele>435</ele>
        <time>2016-05-08T07:56:26.000Z</time>
      </trkpt>
      <trkpt lat="47.49394" lon="6.71872">
        <ele>435</ele>
        <time>2016-05-08T07:56:28.000Z</time>
      </trkpt>
      <trkpt lat="47.49394" lon="6.71869">
        <ele>435</ele>
        <time>2016-05-08T07:56:29.000Z</time>
      </trkpt>
      <trkpt lat="47.49394" lon="6.71864">
        <ele>435</ele>
        <time>2016-05-08T07:56:32.000Z</time>
      </trkpt>
      <trkpt lat="47.49394" lon="6.71862">
        <ele>435</ele>
        <time>2016-05-08T07:56:33.000Z</time>
      </trkpt>
      <trkpt lat="47.49395" lon="6.71856">
        <ele>436</ele>
        <time>2016-05-08T07:56:37.000Z</time>
      </trkpt>
      <trkpt lat="47.49395" lon="6.71854">
        <ele>436</ele>
        <time>2016-05-08T07:56:38.000Z</time>
      </trkpt>
      <trkpt lat="47.49396" lon="6.71849">
        <ele>436</ele>
        <time>2016-05-08T07:56:40.000Z</time>
      </trkpt>
      <trkpt lat="47.49397" lon="6.71847">
        <ele>436</ele>
        <time>2016-05-08T07:56:41.000Z</time>
      </trkpt>
      <trkpt lat="47.49398" lon="6.71843">
        <ele>436</ele>
        <time>2016-05-08T07:56:43.000Z</time>
      </trkpt>
      <trkpt lat="47.49399" lon="6.71841">
        <ele>436</ele>
        <time>2016-05-08T07:56:44.000Z</time>
      </trkpt>
      <trkpt lat="47.49401" lon="6.71835">
        <ele>436</ele>
        <time>2016-05-08T07:56:46.000Z</time>
      </trkpt>
      <trkpt lat="47.49402" lon="6.71832">
        <ele>438</ele>
        <time>2016-05-08T07:56:47.000Z</time>
      </trkpt>
      <trkpt lat="47.49404" lon="6.71827">
        <ele>438</ele>
        <time>2016-05-08T07:56:49.000Z</time>
      </trkpt>
      <trkpt lat="47.49406" lon="6.71825">
        <ele>438</ele>
        <time>2016-05-08T07:56:50.000Z</time>
      </trkpt>
      <trkpt lat="47.49408" lon="6.71822">
        <ele>438</ele>
        <time>2016-05-08T07:56:52.000Z</time>
      </trkpt>
      <trkpt lat="47.4941" lon="6.71821">
        <ele>438</ele>
        <time>2016-05-08T07:56:53.000Z</time>
      </trkpt>
      <trkpt lat="47.49411" lon="6.71816">
        <ele>439</ele>
        <time>2016-05-08T07:56:56.000Z</time>
      </trkpt>
      <trkpt lat="47.49411" lon="6.71814">
        <ele>439</ele>
        <time>2016-05-08T07:56:57.000Z</time>
      </trkpt>
      <trkpt lat="47.49412" lon="6.71809">
        <ele>439</ele>
        <time>2016-05-08T07:56:59.000Z</time>
      </trkpt>
      <trkpt lat="47.49413" lon="6.71806">
        <ele>439</ele>
        <time>2016-05-08T07:57:00.000Z</time>
      </trkpt>
      <trkpt lat="47.49414" lon="6.71802">
        <ele>439</ele>
        <time>2016-05-08T07:57:02.000Z</time>
      </trkpt>
      <trkpt lat="47.49414" lon="6.71799">
        <ele>439</ele>
        <time>2016-05-08T07:57:03.000Z</time>
      </trkpt>
      <trkpt lat="47.49414" lon="6.71794">
        <ele>440</ele>
        <time>2016-05-08T07:57:05.000Z</time>
      </trkpt>
      <trkpt lat="47.49414" lon="6.71792">
        <ele>440</ele>
        <time>2016-05-08T07:57:06.000Z</time>
      </trkpt>
      <trkpt lat="47.49414" lon="6.71786">
        <ele>440</ele>
        <time>2016-05-08T07:57:08.000Z</time>
      </trkpt>
      <trkpt lat="47.49414" lon="6.71783">
        <ele>441</ele>
        <time>2016-05-08T07:57:09.000Z</time>
      </trkpt>
      <trkpt lat="47.49414" lon="6.71778">
        <ele>441</ele>
        <time>2016-05-08T07:57:11.000Z</time>
      </trkpt>
      <trkpt lat="47.49414" lon="6.71775">
        <ele>441</ele>
        <time>2016-05-08T07:57:12.000Z</time>
      </trkpt>
      <trkpt lat="47.49413" lon="6.71769">
        <ele>442</ele>
        <time>2016-05-08T07:57:14.000Z</time>
      </trkpt>
      <trkpt lat="47.49412" lon="6.71767">
        <ele>442</ele>
        <time>2016-05-08T07:57:15.000Z</time>
      </trkpt>
      <trkpt lat="47.49412" lon="6.71762">
        <ele>443</ele>
        <time>2016-05-08T07:57:17.000Z</time>
      </trkpt>
      <trkpt lat="47.49411" lon="6.71759">
        <ele>443</ele>
        <time>2016-05-08T07:57:18.000Z</time>
      </trkpt>
      <trkpt lat="47.49412" lon="6.71753">
        <ele>444</ele>
        <time>2016-05-08T07:57:20.000Z</time>
      </trkpt>
      <trkpt lat="47.49411" lon="6.7175">
        <ele>446</ele>
        <time>2016-05-08T07:57:21.000Z</time>
      </trkpt>
      <trkpt lat="47.49411" lon="6.71746">
        <ele>446</ele>
        <time>2016-05-08T07:57:22.000Z</time>
      </trkpt>
      <trkpt lat="47.4941" lon="6.71743">
        <ele>445</ele>
        <time>2016-05-08T07:57:23.000Z</time>
      </trkpt>
      <trkpt lat="47.4941" lon="6.71739">
        <ele>445</ele>
        <time>2016-05-08T07:57:24.000Z</time>
      </trkpt>
      <trkpt lat="47.4941" lon="6.71735">
        <ele>445</ele>
        <time>2016-05-08T07:57:25.000Z</time>
      </trkpt>
      <trkpt lat="47.49409" lon="6.71731">
        <ele>445</ele>
        <time>2016-05-08T07:57:26.000Z</time>
      </trkpt>
      <trkpt lat="47.49409" lon="6.71728">
        <ele>445</ele>
        <time>2016-05-08T07:57:27.000Z</time>
      </trkpt>
      <trkpt lat="47.49409" lon="6.71721">
        <ele>445</ele>
        <time>2016-05-08T07:57:29.000Z</time>
      </trkpt>
      <trkpt lat="47.49409" lon="6.71718">
        <ele>445</ele>
        <time>2016-05-08T07:57:30.000Z</time>
      </trkpt>
      <trkpt lat="47.4941" lon="6.71715">
        <ele>445</ele>
        <time>2016-05-08T07:57:31.000Z</time>
      </trkpt>
      <trkpt lat="47.49409" lon="6.71711">
        <ele>446</ele>
        <time>2016-05-08T07:57:32.000Z</time>
      </trkpt>
      <trkpt lat="47.49409" lon="6.71707">
        <ele>446</ele>
        <time>2016-05-08T07:57:33.000Z</time>
      </trkpt>
      <trkpt lat="47.49408" lon="6.71703">
        <ele>446</ele>
        <time>2016-05-08T07:57:34.000Z</time>
      </trkpt>
      <trkpt lat="47.49407" lon="6.71698">
        <ele>446</ele>
        <time>2016-05-08T07:57:35.000Z</time>
      </trkpt>
      <trkpt lat="47.49407" lon="6.71694">
        <ele>446</ele>
        <time>2016-05-08T07:57:36.000Z</time>
      </trkpt>
      <trkpt lat="47.49406" lon="6.7169">
        <ele>447</ele>
        <time>2016-05-08T07:57:37.000Z</time>
      </trkpt>
      <trkpt lat="47.49406" lon="6.71686">
        <ele>447</ele>
        <time>2016-05-08T07:57:38.000Z</time>
      </trkpt>
      <trkpt lat="47.49405" lon="6.71683">
        <ele>447</ele>
        <time>2016-05-08T07:57:39.000Z</time>
      </trkpt>
      <trkpt lat="47.49405" lon="6.71678">
        <ele>448</ele>
        <time>2016-05-08T07:57:40.000Z</time>
      </trkpt>
      <trkpt lat="47.49407" lon="6.71673">
        <ele>448</ele>
        <time>2016-05-08T07:57:42.000Z</time>
      </trkpt>
      <trkpt lat="47.49407" lon="6.71669">
        <ele>449</ele>
        <time>2016-05-08T07:57:43.000Z</time>
      </trkpt>
      <trkpt lat="47.49408" lon="6.71666">
        <ele>450</ele>
        <time>2016-05-08T07:57:44.000Z</time>
      </trkpt>
      <trkpt lat="47.49408" lon="6.71661">
        <ele>450</ele>
        <time>2016-05-08T07:57:45.000Z</time>
      </trkpt>
      <trkpt lat="47.49408" lon="6.71657">
        <ele>450</ele>
        <time>2016-05-08T07:57:46.000Z</time>
      </trkpt>
      <trkpt lat="47.49409" lon="6.71652">
        <ele>450</ele>
        <time>2016-05-08T07:57:47.000Z</time>
      </trkpt>
      <trkpt lat="47.49409" lon="6.71648">
        <ele>450</ele>
        <time>2016-05-08T07:57:48.000Z</time>
      </trkpt>
      <trkpt lat="47.49409" lon="6.71643">
        <ele>450</ele>
        <time>2016-05-08T07:57:49.000Z</time>
      </trkpt>
      <trkpt lat="47.4941" lon="6.71638">
        <ele>450</ele>
        <time>2016-05-08T07:57:50.000Z</time>
      </trkpt>
      <trkpt lat="47.4941" lon="6.71633">
        <ele>450</ele>
        <time>2016-05-08T07:57:51.000Z</time>
      </trkpt>
      <trkpt lat="47.49411" lon="6.71628">
        <ele>450</ele>
        <time>2016-05-08T07:57:52.000Z</time>
      </trkpt>
      <trkpt lat="47.49411" lon="6.71623">
        <ele>450</ele>
        <time>2016-05-08T07:57:53.000Z</time>
      </trkpt>
      <trkpt lat="47.4941" lon="6.71618">
        <ele>450</ele>
        <time>2016-05-08T07:57:54.000Z</time>
      </trkpt>
      <trkpt lat="47.4941" lon="6.71614">
        <ele>450</ele>
        <time>2016-05-08T07:57:55.000Z</time>
      </trkpt>
      <trkpt lat="47.4941" lon="6.71609">
        <ele>451</ele>
        <time>2016-05-08T07:57:56.000Z</time>
      </trkpt>
      <trkpt lat="47.4941" lon="6.71605">
        <ele>451</ele>
        <time>2016-05-08T07:57:57.000Z</time>
      </trkpt>
      <trkpt lat="47.49409" lon="6.71602">
        <ele>451</ele>
        <time>2016-05-08T07:57:58.000Z</time>
      </trkpt>
      <trkpt lat="47.4941" lon="6.71598">
        <ele>451</ele>
        <time>2016-05-08T07:57:59.000Z</time>
      </trkpt>
      <trkpt lat="47.49409" lon="6.71594">
        <ele>452</ele>
        <time>2016-05-08T07:58:00.000Z</time>
      </trkpt>
      <trkpt lat="47.49409" lon="6.7159">
        <ele>452</ele>
        <time>2016-05-08T07:58:01.000Z</time>
      </trkpt>
      <trkpt lat="47.49409" lon="6.71587">
        <ele>452</ele>
        <time>2016-05-08T07:58:02.000Z</time>
      </trkpt>
      <trkpt lat="47.49409" lon="6.71582">
        <ele>453</ele>
        <time>2016-05-08T07:58:03.000Z</time>
      </trkpt>
      <trkpt lat="47.49409" lon="6.71578">
        <ele>453</ele>
        <time>2016-05-08T07:58:04.000Z</time>
      </trkpt>
      <trkpt lat="47.49408" lon="6.71575">
        <ele>453</ele>
        <time>2016-05-08T07:58:05.000Z</time>
      </trkpt>
      <trkpt lat="47.49408" lon="6.71571">
        <ele>453</ele>
        <time>2016-05-08T07:58:06.000Z</time>
      </trkpt>
      <trkpt lat="47.49408" lon="6.71568">
        <ele>453</ele>
        <time>2016-05-08T07:58:07.000Z</time>
      </trkpt>
      <trkpt lat="47.49407" lon="6.71562">
        <ele>453</ele>
        <time>2016-05-08T07:58:09.000Z</time>
      </trkpt>
      <trkpt lat="47.49407" lon="6.71558">
        <ele>453</ele>
        <time>2016-05-08T07:58:10.000Z</time>
      </trkpt>
      <trkpt lat="47.49406" lon="6.71552">
        <ele>453</ele>
        <time>2016-05-08T07:58:12.000Z</time>
      </trkpt>
      <trkpt lat="47.49407" lon="6.71549">
        <ele>453</ele>
        <time>2016-05-08T07:58:13.000Z</time>
      </trkpt>
      <trkpt lat="47.49407" lon="6.71543">
        <ele>453</ele>
        <time>2016-05-08T07:58:15.000Z</time>
      </trkpt>
      <trkpt lat="47.49408" lon="6.71539">
        <ele>453</ele>
        <time>2016-05-08T07:58:16.000Z</time>
      </trkpt>
      <trkpt lat="47.49408" lon="6.71535">
        <ele>453</ele>
        <time>2016-05-08T07:58:17.000Z</time>
      </trkpt>
      <trkpt lat="47.49407" lon="6.71531">
        <ele>454</ele>
        <time>2016-05-08T07:58:18.000Z</time>
      </trkpt>
      <trkpt lat="47.49407" lon="6.71527">
        <ele>454</ele>
        <time>2016-05-08T07:58:19.000Z</time>
      </trkpt>
      <trkpt lat="47.49406" lon="6.71523">
        <ele>454</ele>
        <time>2016-05-08T07:58:20.000Z</time>
      </trkpt>
      <trkpt lat="47.49405" lon="6.7152">
        <ele>454</ele>
        <time>2016-05-08T07:58:21.000Z</time>
      </trkpt>
      <trkpt lat="47.49404" lon="6.71516">
        <ele>455</ele>
        <time>2016-05-08T07:58:22.000Z</time>
      </trkpt>
      <trkpt lat="47.49404" lon="6.71512">
        <ele>455</ele>
        <time>2016-05-08T07:58:23.000Z</time>
      </trkpt>
      <trkpt lat="47.49404" lon="6.71508">
        <ele>455</ele>
        <time>2016-05-08T07:58:24.000Z</time>
      </trkpt>
      <trkpt lat="47.49403" lon="6.71504">
        <ele>455</ele>
        <time>2016-05-08T07:58:25.000Z</time>
      </trkpt>
      <trkpt lat="47.49403" lon="6.715">
        <ele>455</ele>
        <time>2016-05-08T07:58:26.000Z</time>
      </trkpt>
      <trkpt lat="47.49402" lon="6.71497">
        <ele>456</ele>
        <time>2016-05-08T07:58:27.000Z</time>
      </trkpt>
      <trkpt lat="47.49402" lon="6.71493">
        <ele>456</ele>
        <time>2016-05-08T07:58:28.000Z</time>
      </trkpt>
      <trkpt lat="47.494" lon="6.7149">
        <ele>456</ele>
        <time>2016-05-08T07:58:29.000Z</time>
      </trkpt>
      <trkpt lat="47.49399" lon="6.71486">
        <ele>455</ele>
        <time>2016-05-08T07:58:30.000Z</time>
      </trkpt>
      <trkpt lat="47.49398" lon="6.71482">
        <ele>455</ele>
        <time>2016-05-08T07:58:31.000Z</time>
      </trkpt>
      <trkpt lat="47.49398" lon="6.71479">
        <ele>455</ele>
        <time>2016-05-08T07:58:32.000Z</time>
      </trkpt>
      <trkpt lat="47.49397" lon="6.71475">
        <ele>455</ele>
        <time>2016-05-08T07:58:33.000Z</time>
      </trkpt>
      <trkpt lat="47.49397" lon="6.7147">
        <ele>455</ele>
        <time>2016-05-08T07:58:34.000Z</time>
      </trkpt>
      <trkpt lat="47.49396" lon="6.71465">
        <ele>455</ele>
        <time>2016-05-08T07:58:35.000Z</time>
      </trkpt>
      <trkpt lat="47.49396" lon="6.7146">
        <ele>455</ele>
        <time>2016-05-08T07:58:36.000Z</time>
      </trkpt>
      <trkpt lat="47.49395" lon="6.71456">
        <ele>455</ele>
        <time>2016-05-08T07:58:37.000Z</time>
      </trkpt>
      <trkpt lat="47.49395" lon="6.71453">
        <ele>455</ele>
        <time>2016-05-08T07:58:38.000Z</time>
      </trkpt>
      <trkpt lat="47.49395" lon="6.71449">
        <ele>455</ele>
        <time>2016-05-08T07:58:39.000Z</time>
      </trkpt>
      <trkpt lat="47.49395" lon="6.71445">
        <ele>455</ele>
        <time>2016-05-08T07:58:40.000Z</time>
      </trkpt>
      <trkpt lat="47.49393" lon="6.71441">
        <ele>455</ele>
        <time>2016-05-08T07:58:41.000Z</time>
      </trkpt>
      <trkpt lat="47.49392" lon="6.71437">
        <ele>455</ele>
        <time>2016-05-08T07:58:42.000Z</time>
      </trkpt>
      <trkpt lat="47.49391" lon="6.71433">
        <ele>455</ele>
        <time>2016-05-08T07:58:43.000Z</time>
      </trkpt>
      <trkpt lat="47.49389" lon="6.71429">
        <ele>455</ele>
        <time>2016-05-08T07:58:44.000Z</time>
      </trkpt>
      <trkpt lat="47.49389" lon="6.71424">
        <ele>455</ele>
        <time>2016-05-08T07:58:45.000Z</time>
      </trkpt>
      <trkpt lat="47.49389" lon="6.71419">
        <ele>455</ele>
        <time>2016-05-08T07:58:46.000Z</time>
      </trkpt>
      <trkpt lat="47.4939" lon="6.71414">
        <ele>456</ele>
        <time>2016-05-08T07:58:47.000Z</time>
      </trkpt>
      <trkpt lat="47.49391" lon="6.71409">
        <ele>456</ele>
        <time>2016-05-08T07:58:48.000Z</time>
      </trkpt>
      <trkpt lat="47.49392" lon="6.71405">
        <ele>456</ele>
        <time>2016-05-08T07:58:49.000Z</time>
      </trkpt>
      <trkpt lat="47.49392" lon="6.71401">
        <ele>456</ele>
        <time>2016-05-08T07:58:50.000Z</time>
      </trkpt>
      <trkpt lat="47.49392" lon="6.71397">
        <ele>456</ele>
        <time>2016-05-08T07:58:51.000Z</time>
      </trkpt>
      <trkpt lat="47.49392" lon="6.71393">
        <ele>456</ele>
        <time>2016-05-08T07:58:52.000Z</time>
      </trkpt>
      <trkpt lat="47.49392" lon="6.71389">
        <ele>456</ele>
        <time>2016-05-08T07:58:53.000Z</time>
      </trkpt>
      <trkpt lat="47.49392" lon="6.71384">
        <ele>456</ele>
        <time>2016-05-08T07:58:54.000Z</time>
      </trkpt>
      <trkpt lat="47.49392" lon="6.7138">
        <ele>456</ele>
        <time>2016-05-08T07:58:55.000Z</time>
      </trkpt>
      <trkpt lat="47.49391" lon="6.71375">
        <ele>456</ele>
        <time>2016-05-08T07:58:56.000Z</time>
      </trkpt>
      <trkpt lat="47.49391" lon="6.7137">
        <ele>456</ele>
        <time>2016-05-08T07:58:57.000Z</time>
      </trkpt>
      <trkpt lat="47.49389" lon="6.71365">
        <ele>456</ele>
        <time>2016-05-08T07:58:58.000Z</time>
      </trkpt>
      <trkpt lat="47.49388" lon="6.71359">
        <ele>456</ele>
        <time>2016-05-08T07:58:59.000Z</time>
      </trkpt>
      <trkpt lat="47.49387" lon="6.71354">
        <ele>456</ele>
        <time>2016-05-08T07:59:00.000Z</time>
      </trkpt>
      <trkpt lat="47.49387" lon="6.71348">
        <ele>456</ele>
        <time>2016-05-08T07:59:01.000Z</time>
      </trkpt>
      <trkpt lat="47.49387" lon="6.71342">
        <ele>457</ele>
        <time>2016-05-08T07:59:02.000Z</time>
      </trkpt>
      <trkpt lat="47.49387" lon="6.71336">
        <ele>457</ele>
        <time>2016-05-08T07:59:03.000Z</time>
      </trkpt>
      <trkpt lat="47.49387" lon="6.7133">
        <ele>459</ele>
        <time>2016-05-08T07:59:04.000Z</time>
      </trkpt>
      <trkpt lat="47.49388" lon="6.71322">
        <ele>459</ele>
        <time>2016-05-08T07:59:05.000Z</time>
      </trkpt>
      <trkpt lat="47.49388" lon="6.71314">
        <ele>459</ele>
        <time>2016-05-08T07:59:06.000Z</time>
      </trkpt>
      <trkpt lat="47.49389" lon="6.71307">
        <ele>459</ele>
        <time>2016-05-08T07:59:07.000Z</time>
      </trkpt>
      <trkpt lat="47.4939" lon="6.713">
        <ele>459</ele>
        <time>2016-05-08T07:59:08.000Z</time>
      </trkpt>
      <trkpt lat="47.49391" lon="6.71294">
        <ele>459</ele>
        <time>2016-05-08T07:59:09.000Z</time>
      </trkpt>
      <trkpt lat="47.49392" lon="6.71289">
        <ele>459</ele>
        <time>2016-05-08T07:59:10.000Z</time>
      </trkpt>
      <trkpt lat="47.49392" lon="6.71284">
        <ele>460</ele>
        <time>2016-05-08T07:59:11.000Z</time>
      </trkpt>
      <trkpt lat="47.49393" lon="6.7128">
        <ele>460</ele>
        <time>2016-05-08T07:59:12.000Z</time>
      </trkpt>
      <trkpt lat="47.49393" lon="6.71274">
        <ele>460</ele>
        <time>2016-05-08T07:59:14.000Z</time>
      </trkpt>
      <trkpt lat="47.49392" lon="6.71271">
        <ele>460</ele>
        <time>2016-05-08T07:59:15.000Z</time>
      </trkpt>
      <trkpt lat="47.4939" lon="6.71266">
        <ele>460</ele>
        <time>2016-05-08T07:59:17.000Z</time>
      </trkpt>
      <trkpt lat="47.49389" lon="6.71264">
        <ele>460</ele>
        <time>2016-05-08T07:59:18.000Z</time>
      </trkpt>
      <trkpt lat="47.49388" lon="6.71261">
        <ele>460</ele>
        <time>2016-05-08T07:59:19.000Z</time>
      </trkpt>
      <trkpt lat="47.49386" lon="6.71258">
        <ele>460</ele>
        <time>2016-05-08T07:59:20.000Z</time>
      </trkpt>
      <trkpt lat="47.49383" lon="6.71255">
        <ele>460</ele>
        <time>2016-05-08T07:59:22.000Z</time>
      </trkpt>
      <trkpt lat="47.49381" lon="6.71254">
        <ele>459</ele>
        <time>2016-05-08T07:59:23.000Z</time>
      </trkpt>
      <trkpt lat="47.49378" lon="6.71252">
        <ele>459</ele>
        <time>2016-05-08T07:59:25.000Z</time>
      </trkpt>
      <trkpt lat="47.49376" lon="6.71249">
        <ele>460</ele>
        <time>2016-05-08T07:59:26.000Z</time>
      </trkpt>
      <trkpt lat="47.49375" lon="6.71246">
        <ele>460</ele>
        <time>2016-05-08T07:59:27.000Z</time>
      </trkpt>
      <trkpt lat="47.49375" lon="6.71242">
        <ele>460</ele>
        <time>2016-05-08T07:59:28.000Z</time>
      </trkpt>
      <trkpt lat="47.49374" lon="6.71239">
        <ele>460</ele>
        <time>2016-05-08T07:59:29.000Z</time>
      </trkpt>
      <trkpt lat="47.49374" lon="6.71235">
        <ele>460</ele>
        <time>2016-05-08T07:59:30.000Z</time>
      </trkpt>
      <trkpt lat="47.49373" lon="6.7123">
        <ele>460</ele>
        <time>2016-05-08T07:59:32.000Z</time>
      </trkpt>
      <trkpt lat="47.49373" lon="6.71227">
        <ele>460</ele>
        <time>2016-05-08T07:59:33.000Z</time>
      </trkpt>
      <trkpt lat="47.49372" lon="6.71223">
        <ele>460</ele>
        <time>2016-05-08T07:59:35.000Z</time>
      </trkpt>
      <trkpt lat="47.49371" lon="6.7122">
        <ele>460</ele>
        <time>2016-05-08T07:59:36.000Z</time>
      </trkpt>
      <trkpt lat="47.4937" lon="6.71217">
        <ele>460</ele>
        <time>2016-05-08T07:59:37.000Z</time>
      </trkpt>
      <trkpt lat="47.4937" lon="6.71213">
        <ele>460</ele>
        <time>2016-05-08T07:59:38.000Z</time>
      </trkpt>
      <trkpt lat="47.49369" lon="6.71209">
        <ele>460</ele>
        <time>2016-05-08T07:59:39.000Z</time>
      </trkpt>
      <trkpt lat="47.49368" lon="6.71205">
        <ele>460</ele>
        <time>2016-05-08T07:59:40.000Z</time>
      </trkpt>
      <trkpt lat="47.49368" lon="6.71198">
        <ele>460</ele>
        <time>2016-05-08T07:59:42.000Z</time>
      </trkpt>
      <trkpt lat="47.49368" lon="6.71195">
        <ele>460</ele>
        <time>2016-05-08T07:59:43.000Z</time>
      </trkpt>
      <trkpt lat="47.49369" lon="6.71192">
        <ele>460</ele>
        <time>2016-05-08T07:59:44.000Z</time>
      </trkpt>
      <trkpt lat="47.49369" lon="6.71187">
        <ele>460</ele>
        <time>2016-05-08T07:59:45.000Z</time>
      </trkpt>
      <trkpt lat="47.49369" lon="6.71183">
        <ele>460</ele>
        <time>2016-05-08T07:59:46.000Z</time>
      </trkpt>
      <trkpt lat="47.49369" lon="6.71179">
        <ele>460</ele>
        <time>2016-05-08T07:59:47.000Z</time>
      </trkpt>
      <trkpt lat="47.49369" lon="6.71174">
        <ele>460</ele>
        <time>2016-05-08T07:59:48.000Z</time>
      </trkpt>
      <trkpt lat="47.49368" lon="6.71171">
        <ele>460</ele>
        <time>2016-05-08T07:59:49.000Z</time>
      </trkpt>
      <trkpt lat="47.49366" lon="6.71165">
        <ele>460</ele>
        <time>2016-05-08T07:59:51.000Z</time>
      </trkpt>
      <trkpt lat="47.49365" lon="6.71163">
        <ele>460</ele>
        <time>2016-05-08T07:59:52.000Z</time>
      </trkpt>
      <trkpt lat="47.49363" lon="6.71159">
        <ele>460</ele>
        <time>2016-05-08T07:59:54.000Z</time>
      </trkpt>
      <trkpt lat="47.49363" lon="6.71157">
        <ele>460</ele>
        <time>2016-05-08T07:59:55.000Z</time>
      </trkpt>
      <trkpt lat="47.4936" lon="6.71151">
        <ele>459</ele>
        <time>2016-05-08T07:59:58.000Z</time>
      </trkpt>
      <trkpt lat="47.49359" lon="6.7115">
        <ele>459</ele>
        <time>2016-05-08T07:59:59.000Z</time>
      </trkpt>
      <trkpt lat="47.49357" lon="6.71147">
        <ele>459</ele>
        <time>2016-05-08T08:00:02.000Z</time>
      </trkpt>
      <trkpt lat="47.49357" lon="6.71145">
        <ele>459</ele>
        <time>2016-05-08T08:00:03.000Z</time>
      </trkpt>
      <trkpt lat="47.49356" lon="6.7114">
        <ele>459</ele>
        <time>2016-05-08T08:00:05.000Z</time>
      </trkpt>
      <trkpt lat="47.49356" lon="6.71137">
        <ele>459</ele>
        <time>2016-05-08T08:00:06.000Z</time>
      </trkpt>
      <trkpt lat="47.49356" lon="6.71131">
        <ele>459</ele>
        <time>2016-05-08T08:00:08.000Z</time>
      </trkpt>
      <trkpt lat="47.49356" lon="6.71128">
        <ele>460</ele>
        <time>2016-05-08T08:00:09.000Z</time>
      </trkpt>
      <trkpt lat="47.49356" lon="6.71123">
        <ele>460</ele>
        <time>2016-05-08T08:00:11.000Z</time>
      </trkpt>
      <trkpt lat="47.49356" lon="6.7112">
        <ele>460</ele>
        <time>2016-05-08T08:00:12.000Z</time>
      </trkpt>
      <trkpt lat="47.49354" lon="6.71116">
        <ele>459</ele>
        <time>2016-05-08T08:00:13.000Z</time>
      </trkpt>
      <trkpt lat="47.49353" lon="6.71112">
        <ele>459</ele>
        <time>2016-05-08T08:00:14.000Z</time>
      </trkpt>
      <trkpt lat="47.49351" lon="6.71108">
        <ele>459</ele>
        <time>2016-05-08T08:00:15.000Z</time>
      </trkpt>
      <trkpt lat="47.4935" lon="6.71105">
        <ele>459</ele>
        <time>2016-05-08T08:00:16.000Z</time>
      </trkpt>
      <trkpt lat="47.49346" lon="6.71102">
        <ele>459</ele>
        <time>2016-05-08T08:00:18.000Z</time>
      </trkpt>
      <trkpt lat="47.49345" lon="6.711">
        <ele>459</ele>
        <time>2016-05-08T08:00:19.000Z</time>
      </trkpt>
      <trkpt lat="47.49342" lon="6.71096">
        <ele>459</ele>
        <time>2016-05-08T08:00:21.000Z</time>
      </trkpt>
      <trkpt lat="47.49341" lon="6.71093">
        <ele>459</ele>
        <time>2016-05-08T08:00:22.000Z</time>
      </trkpt>
      <trkpt lat="47.49339" lon="6.71089">
        <ele>459</ele>
        <time>2016-05-08T08:00:23.000Z</time>
      </trkpt>
      <trkpt lat="47.49338" lon="6.71085">
        <ele>458</ele>
        <time>2016-05-08T08:00:24.000Z</time>
      </trkpt>
      <trkpt lat="47.49336" lon="6.71082">
        <ele>458</ele>
        <time>2016-05-08T08:00:25.000Z</time>
      </trkpt>
      <trkpt lat="47.49335" lon="6.71079">
        <ele>458</ele>
        <time>2016-05-08T08:00:26.000Z</time>
      </trkpt>
      <trkpt lat="47.49333" lon="6.71076">
        <ele>457</ele>
        <time>2016-05-08T08:00:27.000Z</time>
      </trkpt>
      <trkpt lat="47.49331" lon="6.71072">
        <ele>456</ele>
        <time>2016-05-08T08:00:28.000Z</time>
      </trkpt>
      <trkpt lat="47.4933" lon="6.71069">
        <ele>456</ele>
        <time>2016-05-08T08:00:29.000Z</time>
      </trkpt>
      <trkpt lat="47.49328" lon="6.71065">
        <ele>455</ele>
        <time>2016-05-08T08:00:30.000Z</time>
      </trkpt>
      <trkpt lat="47.49327" lon="6.71062">
        <ele>455</ele>
        <time>2016-05-08T08:00:31.000Z</time>
      </trkpt>
      <trkpt lat="47.49325" lon="6.71059">
        <ele>455</ele>
        <time>2016-05-08T08:00:32.000Z</time>
      </trkpt>
      <trkpt lat="47.49323" lon="6.71056">
        <ele>455</ele>
        <time>2016-05-08T08:00:33.000Z</time>
      </trkpt>
      <trkpt lat="47.49321" lon="6.71053">
        <ele>455</ele>
        <time>2016-05-08T08:00:34.000Z</time>
      </trkpt>
      <trkpt lat="47.49319" lon="6.7105">
        <ele>454</ele>
        <time>2016-05-08T08:00:35.000Z</time>
      </trkpt>
      <trkpt lat="47.49317" lon="6.71042">
        <ele>454</ele>
        <time>2016-05-08T08:00:37.000Z</time>
      </trkpt>
      <trkpt lat="47.49316" lon="6.71038">
        <ele>454</ele>
        <time>2016-05-08T08:00:38.000Z</time>
      </trkpt>
      <trkpt lat="47.49314" lon="6.71035">
        <ele>454</ele>
        <time>2016-05-08T08:00:39.000Z</time>
      </trkpt>
      <trkpt lat="47.49312" lon="6.71033">
        <ele>454</ele>
        <time>2016-05-08T08:00:40.000Z</time>
      </trkpt>
      <trkpt lat="47.4931" lon="6.7103">
        <ele>454</ele>
        <time>2016-05-08T08:00:41.000Z</time>
      </trkpt>
      <trkpt lat="47.49308" lon="6.71027">
        <ele>454</ele>
        <time>2016-05-08T08:00:42.000Z</time>
      </trkpt>
      <trkpt lat="47.49306" lon="6.71024">
        <ele>454</ele>
        <time>2016-05-08T08:00:43.000Z</time>
      </trkpt>
      <trkpt lat="47.49303" lon="6.71021">
        <ele>454</ele>
        <time>2016-05-08T08:00:44.000Z</time>
      </trkpt>
      <trkpt lat="47.49301" lon="6.71018">
        <ele>454</ele>
        <time>2016-05-08T08:00:45.000Z</time>
      </trkpt>
      <trkpt lat="47.49299" lon="6.71014">
        <ele>454</ele>
        <time>2016-05-08T08:00:46.000Z</time>
      </trkpt>
      <trkpt lat="47.49297" lon="6.71011">
        <ele>453</ele>
        <time>2016-05-08T08:00:47.000Z</time>
      </trkpt>
      <trkpt lat="47.49295" lon="6.71007">
        <ele>453</ele>
        <time>2016-05-08T08:00:48.000Z</time>
      </trkpt>
      <trkpt lat="47.49294" lon="6.71004">
        <ele>453</ele>
        <time>2016-05-08T08:00:49.000Z</time>
      </trkpt>
      <trkpt lat="47.49293" lon="6.71">
        <ele>453</ele>
        <time>2016-05-08T08:00:50.000Z</time>
      </trkpt>
      <trkpt lat="47.49292" lon="6.70997">
        <ele>454</ele>
        <time>2016-05-08T08:00:51.000Z</time>
      </trkpt>
      <trkpt lat="47.49291" lon="6.70994">
        <ele>454</ele>
        <time>2016-05-08T08:00:52.000Z</time>
      </trkpt>
      <trkpt lat="47.4929" lon="6.70991">
        <ele>454</ele>
        <time>2016-05-08T08:00:53.000Z</time>
      </trkpt>
      <trkpt lat="47.49289" lon="6.70987">
        <ele>454</ele>
        <time>2016-05-08T08:00:54.000Z</time>
      </trkpt>
      <trkpt lat="47.49288" lon="6.70984">
        <ele>454</ele>
        <time>2016-05-08T08:00:55.000Z</time>
      </trkpt>
      <trkpt lat="47.49286" lon="6.70981">
        <ele>454</ele>
        <time>2016-05-08T08:00:56.000Z</time>
      </trkpt>
      <trkpt lat="47.49285" lon="6.70977">
        <ele>454</ele>
        <time>2016-05-08T08:00:57.000Z</time>
      </trkpt>
      <trkpt lat="47.49283" lon="6.70975">
        <ele>454</ele>
        <time>2016-05-08T08:00:58.000Z</time>
      </trkpt>
      <trkpt lat="47.49281" lon="6.70972">
        <ele>454</ele>
        <time>2016-05-08T08:00:59.000Z</time>
      </trkpt>
      <trkpt lat="47.49278" lon="6.70969">
        <ele>454</ele>
        <time>2016-05-08T08:01:00.000Z</time>
      </trkpt>
      <trkpt lat="47.49276" lon="6.70966">
        <ele>454</ele>
        <time>2016-05-08T08:01:01.000Z</time>
      </trkpt>
      <trkpt lat="47.49274" lon="6.70963">
        <ele>454</ele>
        <time>2016-05-08T08:01:02.000Z</time>
      </trkpt>
      <trkpt lat="47.49273" lon="6.7096">
        <ele>454</ele>
        <time>2016-05-08T08:01:03.000Z</time>
      </trkpt>
      <trkpt lat="47.49272" lon="6.70956">
        <ele>454</ele>
        <time>2016-05-08T08:01:04.000Z</time>
      </trkpt>
      <trkpt lat="47.4927" lon="6.70953">
        <ele>454</ele>
        <time>2016-05-08T08:01:05.000Z</time>
      </trkpt>
      <trkpt lat="47.49268" lon="6.70949">
        <ele>454</ele>
        <time>2016-05-08T08:01:06.000Z</time>
      </trkpt>
      <trkpt lat="47.49266" lon="6.70946">
        <ele>454</ele>
        <time>2016-05-08T08:01:07.000Z</time>
      </trkpt>
      <trkpt lat="47.49264" lon="6.70943">
        <ele>454</ele>
        <time>2016-05-08T08:01:08.000Z</time>
      </trkpt>
      <trkpt lat="47.49262" lon="6.7094">
        <ele>454</ele>
        <time>2016-05-08T08:01:09.000Z</time>
      </trkpt>
      <trkpt lat="47.4926" lon="6.70936">
        <ele>454</ele>
        <time>2016-05-08T08:01:10.000Z</time>
      </trkpt>
      <trkpt lat="47.49258" lon="6.70932">
        <ele>454</ele>
        <time>2016-05-08T08:01:11.000Z</time>
      </trkpt>
      <trkpt lat="47.49256" lon="6.70928">
        <ele>454</ele>
        <time>2016-05-08T08:01:12.000Z</time>
      </trkpt>
      <trkpt lat="47.49254" lon="6.70924">
        <ele>454</ele>
        <time>2016-05-08T08:01:13.000Z</time>
      </trkpt>
      <trkpt lat="47.49252" lon="6.7092">
        <ele>454</ele>
        <time>2016-05-08T08:01:14.000Z</time>
      </trkpt>
      <trkpt lat="47.49249" lon="6.70916">
        <ele>454</ele>
        <time>2016-05-08T08:01:15.000Z</time>
      </trkpt>
      <trkpt lat="47.49247" lon="6.70913">
        <ele>453</ele>
        <time>2016-05-08T08:01:16.000Z</time>
      </trkpt>
      <trkpt lat="47.49244" lon="6.70909">
        <ele>452</ele>
        <time>2016-05-08T08:01:17.000Z</time>
      </trkpt>
      <trkpt lat="47.49241" lon="6.70905">
        <ele>452</ele>
        <time>2016-05-08T08:01:18.000Z</time>
      </trkpt>
      <trkpt lat="47.49238" lon="6.70899">
        <ele>451</ele>
        <time>2016-05-08T08:01:19.000Z</time>
      </trkpt>
      <trkpt lat="47.49235" lon="6.70893">
        <ele>451</ele>
        <time>2016-05-08T08:01:20.000Z</time>
      </trkpt>
      <trkpt lat="47.49233" lon="6.70887">
        <ele>451</ele>
        <time>2016-05-08T08:01:21.000Z</time>
      </trkpt>
      <trkpt lat="47.49231" lon="6.70882">
        <ele>451</ele>
        <time>2016-05-08T08:01:22.000Z</time>
      </trkpt>
      <trkpt lat="47.49229" lon="6.70877">
        <ele>451</ele>
        <time>2016-05-08T08:01:23.000Z</time>
      </trkpt>
      <trkpt lat="47.49227" lon="6.70873">
        <ele>450</ele>
        <time>2016-05-08T08:01:24.000Z</time>
      </trkpt>
      <trkpt lat="47.49225" lon="6.70869">
        <ele>450</ele>
        <time>2016-05-08T08:01:25.000Z</time>
      </trkpt>
      <trkpt lat="47.49223" lon="6.70865">
        <ele>450</ele>
        <time>2016-05-08T08:01:26.000Z</time>
      </trkpt>
      <trkpt lat="47.49221" lon="6.70862">
        <ele>450</ele>
        <time>2016-05-08T08:01:27.000Z</time>
      </trkpt>
      <trkpt lat="47.49219" lon="6.70859">
        <ele>450</ele>
        <time>2016-05-08T08:01:28.000Z</time>
      </trkpt>
      <trkpt lat="47.49217" lon="6.70856">
        <ele>450</ele>
        <time>2016-05-08T08:01:29.000Z</time>
      </trkpt>
      <trkpt lat="47.49214" lon="6.70853">
        <ele>450</ele>
        <time>2016-05-08T08:01:30.000Z</time>
      </trkpt>
      <trkpt lat="47.49211" lon="6.7085">
        <ele>450</ele>
        <time>2016-05-08T08:01:31.000Z</time>
      </trkpt>
      <trkpt lat="47.49209" lon="6.70847">
        <ele>450</ele>
        <time>2016-05-08T08:01:32.000Z</time>
      </trkpt>
      <trkpt lat="47.49206" lon="6.70843">
        <ele>450</ele>
        <time>2016-05-08T08:01:33.000Z</time>
      </trkpt>
      <trkpt lat="47.49202" lon="6.7084">
        <ele>450</ele>
        <time>2016-05-08T08:01:34.000Z</time>
      </trkpt>
      <trkpt lat="47.49199" lon="6.70836">
        <ele>450</ele>
        <time>2016-05-08T08:01:35.000Z</time>
      </trkpt>
      <trkpt lat="47.49193" lon="6.70827">
        <ele>451</ele>
        <time>2016-05-08T08:01:37.000Z</time>
      </trkpt>
      <trkpt lat="47.4919" lon="6.70822">
        <ele>451</ele>
        <time>2016-05-08T08:01:38.000Z</time>
      </trkpt>
      <trkpt lat="47.49187" lon="6.70817">
        <ele>451</ele>
        <time>2016-05-08T08:01:39.000Z</time>
      </trkpt>
      <trkpt lat="47.49184" lon="6.70812">
        <ele>451</ele>
        <time>2016-05-08T08:01:40.000Z</time>
      </trkpt>
      <trkpt lat="47.49181" lon="6.70808">
        <ele>451</ele>
        <time>2016-05-08T08:01:41.000Z</time>
      </trkpt>
      <trkpt lat="47.49178" lon="6.70804">
        <ele>451</ele>
        <time>2016-05-08T08:01:42.000Z</time>
      </trkpt>
      <trkpt lat="47.49176" lon="6.708">
        <ele>451</ele>
        <time>2016-05-08T08:01:43.000Z</time>
      </trkpt>
      <trkpt lat="47.49174" lon="6.70797">
        <ele>452</ele>
        <time>2016-05-08T08:01:44.000Z</time>
      </trkpt>
      <trkpt lat="47.49172" lon="6.70793">
        <ele>452</ele>
        <time>2016-05-08T08:01:45.000Z</time>
      </trkpt>
      <trkpt lat="47.49171" lon="6.70789">
        <ele>452</ele>
        <time>2016-05-08T08:01:46.000Z</time>
      </trkpt>
      <trkpt lat="47.49169" lon="6.70785">
        <ele>452</ele>
        <time>2016-05-08T08:01:47.000Z</time>
      </trkpt>
      <trkpt lat="47.49167" lon="6.7078">
        <ele>452</ele>
        <time>2016-05-08T08:01:48.000Z</time>
      </trkpt>
      <trkpt lat="47.49166" lon="6.70776">
        <ele>448</ele>
        <time>2016-05-08T08:01:49.000Z</time>
      </trkpt>
      <trkpt lat="47.49164" lon="6.70771">
        <ele>448</ele>
        <time>2016-05-08T08:01:50.000Z</time>
      </trkpt>
      <trkpt lat="47.49162" lon="6.70766">
        <ele>449</ele>
        <time>2016-05-08T08:01:51.000Z</time>
      </trkpt>
      <trkpt lat="47.4916" lon="6.70761">
        <ele>450</ele>
        <time>2016-05-08T08:01:52.000Z</time>
      </trkpt>
      <trkpt lat="47.49157" lon="6.70756">
        <ele>450</ele>
        <time>2016-05-08T08:01:53.000Z</time>
      </trkpt>
      <trkpt lat="47.49154" lon="6.70752">
        <ele>450</ele>
        <time>2016-05-08T08:01:54.000Z</time>
      </trkpt>
      <trkpt lat="47.49151" lon="6.70747">
        <ele>451</ele>
        <time>2016-05-08T08:01:55.000Z</time>
      </trkpt>
      <trkpt lat="47.49148" lon="6.70743">
        <ele>451</ele>
        <time>2016-05-08T08:01:56.000Z</time>
      </trkpt>
      <trkpt lat="47.49146" lon="6.70738">
        <ele>450</ele>
        <time>2016-05-08T08:01:57.000Z</time>
      </trkpt>
      <trkpt lat="47.49143" lon="6.70733">
        <ele>450</ele>
        <time>2016-05-08T08:01:58.000Z</time>
      </trkpt>
      <trkpt lat="47.49141" lon="6.70728">
        <ele>450</ele>
        <time>2016-05-08T08:01:59.000Z</time>
      </trkpt>
      <trkpt lat="47.49138" lon="6.70721">
        <ele>450</ele>
        <time>2016-05-08T08:02:00.000Z</time>
      </trkpt>
      <trkpt lat="47.49136" lon="6.70715">
        <ele>450</ele>
        <time>2016-05-08T08:02:01.000Z</time>
      </trkpt>
      <trkpt lat="47.49133" lon="6.70708">
        <ele>450</ele>
        <time>2016-05-08T08:02:02.000Z</time>
      </trkpt>
      <trkpt lat="47.49131" lon="6.70701">
        <ele>450</ele>
        <time>2016-05-08T08:02:03.000Z</time>
      </trkpt>
      <trkpt lat="47.49128" lon="6.70694">
        <ele>450</ele>
        <time>2016-05-08T08:02:04.000Z</time>
      </trkpt>
      <trkpt lat="47.49126" lon="6.70688">
        <ele>450</ele>
        <time>2016-05-08T08:02:05.000Z</time>
      </trkpt>
      <trkpt lat="47.49123" lon="6.70681">
        <ele>450</ele>
        <time>2016-05-08T08:02:06.000Z</time>
      </trkpt>
      <trkpt lat="47.49121" lon="6.70675">
        <ele>450</ele>
        <time>2016-05-08T08:02:07.000Z</time>
      </trkpt>
      <trkpt lat="47.49119" lon="6.70669">
        <ele>450</ele>
        <time>2016-05-08T08:02:08.000Z</time>
      </trkpt>
      <trkpt lat="47.49116" lon="6.70664">
        <ele>452</ele>
        <time>2016-05-08T08:02:09.000Z</time>
      </trkpt>
      <trkpt lat="47.49114" lon="6.70658">
        <ele>452</ele>
        <time>2016-05-08T08:02:10.000Z</time>
      </trkpt>
      <trkpt lat="47.49111" lon="6.70654">
        <ele>452</ele>
        <time>2016-05-08T08:02:11.000Z</time>
      </trkpt>
      <trkpt lat="47.49109" lon="6.70649">
        <ele>452</ele>
        <time>2016-05-08T08:02:12.000Z</time>
      </trkpt>
      <trkpt lat="47.49108" lon="6.70644">
        <ele>452</ele>
        <time>2016-05-08T08:02:13.000Z</time>
      </trkpt>
      <trkpt lat="47.49106" lon="6.70639">
        <ele>452</ele>
        <time>2016-05-08T08:02:14.000Z</time>
      </trkpt>
      <trkpt lat="47.49104" lon="6.70634">
        <ele>452</ele>
        <time>2016-05-08T08:02:15.000Z</time>
      </trkpt>
      <trkpt lat="47.49102" lon="6.70629">
        <ele>452</ele>
        <time>2016-05-08T08:02:16.000Z</time>
      </trkpt>
      <trkpt lat="47.491" lon="6.70624">
        <ele>452</ele>
        <time>2016-05-08T08:02:17.000Z</time>
      </trkpt>
      <trkpt lat="47.49097" lon="6.70618">
        <ele>452</ele>
        <time>2016-05-08T08:02:18.000Z</time>
      </trkpt>
      <trkpt lat="47.49095" lon="6.70613">
        <ele>453</ele>
        <time>2016-05-08T08:02:19.000Z</time>
      </trkpt>
      <trkpt lat="47.49092" lon="6.70608">
        <ele>453</ele>
        <time>2016-05-08T08:02:20.000Z</time>
      </trkpt>
      <trkpt lat="47.4909" lon="6.70602">
        <ele>453</ele>
        <time>2016-05-08T08:02:21.000Z</time>
      </trkpt>
      <trkpt lat="47.49087" lon="6.70596">
        <ele>453</ele>
        <time>2016-05-08T08:02:22.000Z</time>
      </trkpt>
      <trkpt lat="47.49085" lon="6.7059">
        <ele>453</ele>
        <time>2016-05-08T08:02:23.000Z</time>
      </trkpt>
      <trkpt lat="47.49083" lon="6.70583">
        <ele>453</ele>
        <time>2016-05-08T08:02:24.000Z</time>
      </trkpt>
      <trkpt lat="47.4908" lon="6.70576">
        <ele>452</ele>
        <time>2016-05-08T08:02:25.000Z</time>
      </trkpt>
      <trkpt lat="47.49075" lon="6.70555">
        <ele>450</ele>
        <time>2016-05-08T08:02:26.000Z</time>
      </trkpt>
      <trkpt lat="47.49072" lon="6.70542">
        <ele>449</ele>
        <time>2016-05-08T08:02:27.000Z</time>
      </trkpt>
      <trkpt lat="47.49068" lon="6.70533">
        <ele>449</ele>
        <time>2016-05-08T08:02:28.000Z</time>
      </trkpt>
      <trkpt lat="47.49064" lon="6.70522">
        <ele>449</ele>
        <time>2016-05-08T08:02:29.000Z</time>
      </trkpt>
      <trkpt lat="47.49063" lon="6.70514">
        <ele>450</ele>
        <time>2016-05-08T08:02:30.000Z</time>
      </trkpt>
      <trkpt lat="47.49059" lon="6.70504">
        <ele>450</ele>
        <time>2016-05-08T08:02:31.000Z</time>
      </trkpt>
      <trkpt lat="47.49053" lon="6.70496">
        <ele>449</ele>
        <time>2016-05-08T08:02:32.000Z</time>
      </trkpt>
      <trkpt lat="47.49049" lon="6.70486">
        <ele>449</ele>
        <time>2016-05-08T08:02:33.000Z</time>
      </trkpt>
      <trkpt lat="47.49042" lon="6.70471">
        <ele>449</ele>
        <time>2016-05-08T08:02:34.000Z</time>
      </trkpt>
      <trkpt lat="47.49037" lon="6.7046">
        <ele>448</ele>
        <time>2016-05-08T08:02:35.000Z</time>
      </trkpt>
      <trkpt lat="47.49035" lon="6.70448">
        <ele>448</ele>
        <time>2016-05-08T08:02:36.000Z</time>
      </trkpt>
      <trkpt lat="47.4903" lon="6.70437">
        <ele>448</ele>
        <time>2016-05-08T08:02:37.000Z</time>
      </trkpt>
      <trkpt lat="47.49027" lon="6.70431">
        <ele>448</ele>
        <time>2016-05-08T08:02:38.000Z</time>
      </trkpt>
      <trkpt lat="47.49024" lon="6.70422">
        <ele>448</ele>
        <time>2016-05-08T08:02:39.000Z</time>
      </trkpt>
      <trkpt lat="47.49021" lon="6.70415">
        <ele>448</ele>
        <time>2016-05-08T08:02:40.000Z</time>
      </trkpt>
      <trkpt lat="47.49017" lon="6.70407">
        <ele>448</ele>
        <time>2016-05-08T08:02:41.000Z</time>
      </trkpt>
      <trkpt lat="47.49015" lon="6.70398">
        <ele>448</ele>
        <time>2016-05-08T08:02:42.000Z</time>
      </trkpt>
      <trkpt lat="47.49012" lon="6.70388">
        <ele>448</ele>
        <time>2016-05-08T08:02:43.000Z</time>
      </trkpt>
      <trkpt lat="47.49007" lon="6.7038">
        <ele>448</ele>
        <time>2016-05-08T08:02:44.000Z</time>
      </trkpt>
      <trkpt lat="47.49005" lon="6.70369">
        <ele>448</ele>
        <time>2016-05-08T08:02:45.000Z</time>
      </trkpt>
      <trkpt lat="47.49002" lon="6.70355">
        <ele>448</ele>
        <time>2016-05-08T08:02:46.000Z</time>
      </trkpt>
      <trkpt lat="47.48999" lon="6.70343">
        <ele>444</ele>
        <time>2016-05-08T08:02:47.000Z</time>
      </trkpt>
      <trkpt lat="47.48996" lon="6.70334">
        <ele>445</ele>
        <time>2016-05-08T08:02:48.000Z</time>
      </trkpt>
      <trkpt lat="47.48991" lon="6.70325">
        <ele>443</ele>
        <time>2016-05-08T08:02:49.000Z</time>
      </trkpt>
      <trkpt lat="47.4899" lon="6.70318">
        <ele>442</ele>
        <time>2016-05-08T08:02:50.000Z</time>
      </trkpt>
      <trkpt lat="47.48993" lon="6.70306">
        <ele>441</ele>
        <time>2016-05-08T08:02:51.000Z</time>
      </trkpt>
      <trkpt lat="47.48994" lon="6.70295">
        <ele>441</ele>
        <time>2016-05-08T08:02:52.000Z</time>
      </trkpt>
      <trkpt lat="47.48994" lon="6.70288">
        <ele>441</ele>
        <time>2016-05-08T08:02:53.000Z</time>
      </trkpt>
      <trkpt lat="47.48994" lon="6.70279">
        <ele>441</ele>
        <time>2016-05-08T08:02:54.000Z</time>
      </trkpt>
      <trkpt lat="47.48993" lon="6.70273">
        <ele>441</ele>
        <time>2016-05-08T08:02:55.000Z</time>
      </trkpt>
      <trkpt lat="47.48992" lon="6.70269">
        <ele>441</ele>
        <time>2016-05-08T08:02:56.000Z</time>
      </trkpt>
      <trkpt lat="47.48992" lon="6.70262">
        <ele>442</ele>
        <time>2016-05-08T08:02:57.000Z</time>
      </trkpt>
      <trkpt lat="47.48992" lon="6.70258">
        <ele>442</ele>
        <time>2016-05-08T08:02:58.000Z</time>
      </trkpt>
      <trkpt lat="47.48994" lon="6.70253">
        <ele>443</ele>
        <time>2016-05-08T08:03:13.000Z</time>
      </trkpt>
      <trkpt lat="47.48994" lon="6.70252">
        <ele>443</ele>
        <time>2016-05-08T08:03:14.000Z</time>
      </trkpt>
      <trkpt lat="47.48992" lon="6.70247">
        <ele>443</ele>
        <time>2016-05-08T08:03:49.000Z</time>
      </trkpt>
      <trkpt lat="47.48991" lon="6.70246">
        <ele>443</ele>
        <time>2016-05-08T08:03:50.000Z</time>
      </trkpt>
      <trkpt lat="47.4899" lon="6.70241">
        <ele>442</ele>
        <time>2016-05-08T08:03:53.000Z</time>
      </trkpt>
      <trkpt lat="47.4899" lon="6.70238">
        <ele>442</ele>
        <time>2016-05-08T08:03:54.000Z</time>
      </trkpt>
      <trkpt lat="47.48989" lon="6.70234">
        <ele>441</ele>
        <time>2016-05-08T08:03:55.000Z</time>
      </trkpt>
      <trkpt lat="47.48987" lon="6.70229">
        <ele>441</ele>
        <time>2016-05-08T08:03:56.000Z</time>
      </trkpt>
      <trkpt lat="47.48986" lon="6.70223">
        <ele>440</ele>
        <time>2016-05-08T08:03:57.000Z</time>
      </trkpt>
      <trkpt lat="47.48984" lon="6.70216">
        <ele>440</ele>
        <time>2016-05-08T08:03:58.000Z</time>
      </trkpt>
      <trkpt lat="47.48977" lon="6.70193">
        <ele>439</ele>
        <time>2016-05-08T08:03:59.000Z</time>
      </trkpt>
      <trkpt lat="47.48975" lon="6.70182">
        <ele>439</ele>
        <time>2016-05-08T08:04:00.000Z</time>
      </trkpt>
      <trkpt lat="47.48973" lon="6.70174">
        <ele>439</ele>
        <time>2016-05-08T08:04:01.000Z</time>
      </trkpt>
      <trkpt lat="47.48971" lon="6.70166">
        <ele>437</ele>
        <time>2016-05-08T08:04:02.000Z</time>
      </trkpt>
      <trkpt lat="47.48969" lon="6.70156">
        <ele>436</ele>
        <time>2016-05-08T08:04:03.000Z</time>
      </trkpt>
      <trkpt lat="47.48967" lon="6.70144">
        <ele>435</ele>
        <time>2016-05-08T08:04:04.000Z</time>
      </trkpt>
      <trkpt lat="47.48965" lon="6.70136">
        <ele>435</ele>
        <time>2016-05-08T08:04:05.000Z</time>
      </trkpt>
      <trkpt lat="47.48962" lon="6.70126">
        <ele>434</ele>
        <time>2016-05-08T08:04:06.000Z</time>
      </trkpt>
      <trkpt lat="47.48957" lon="6.70116">
        <ele>434</ele>
        <time>2016-05-08T08:04:07.000Z</time>
      </trkpt>
      <trkpt lat="47.48954" lon="6.70105">
        <ele>433</ele>
        <time>2016-05-08T08:04:08.000Z</time>
      </trkpt>
      <trkpt lat="47.4895" lon="6.70096">
        <ele>432</ele>
        <time>2016-05-08T08:04:09.000Z</time>
      </trkpt>
      <trkpt lat="47.48947" lon="6.70088">
        <ele>432</ele>
        <time>2016-05-08T08:04:10.000Z</time>
      </trkpt>
      <trkpt lat="47.48943" lon="6.7008">
        <ele>428</ele>
        <time>2016-05-08T08:04:11.000Z</time>
      </trkpt>
      <trkpt lat="47.48937" lon="6.70074">
        <ele>428</ele>
        <time>2016-05-08T08:04:12.000Z</time>
      </trkpt>
      <trkpt lat="47.48933" lon="6.70067">
        <ele>428</ele>
        <time>2016-05-08T08:04:13.000Z</time>
      </trkpt>
      <trkpt lat="47.48926" lon="6.70061">
        <ele>427</ele>
        <time>2016-05-08T08:04:14.000Z</time>
      </trkpt>
      <trkpt lat="47.48921" lon="6.70053">
        <ele>427</ele>
        <time>2016-05-08T08:04:15.000Z</time>
      </trkpt>
      <trkpt lat="47.48915" lon="6.70045">
        <ele>425</ele>
        <time>2016-05-08T08:04:16.000Z</time>
      </trkpt>
      <trkpt lat="47.48908" lon="6.70036">
        <ele>424</ele>
        <time>2016-05-08T08:04:17.000Z</time>
      </trkpt>
      <trkpt lat="47.48901" lon="6.70025">
        <ele>424</ele>
        <time>2016-05-08T08:04:18.000Z</time>
      </trkpt>
      <trkpt lat="47.48895" lon="6.70009">
        <ele>424</ele>
        <time>2016-05-08T08:04:19.000Z</time>
      </trkpt>
      <trkpt lat="47.4889" lon="6.69997">
        <ele>422</ele>
        <time>2016-05-08T08:04:20.000Z</time>
      </trkpt>
      <trkpt lat="47.48881" lon="6.69982">
        <ele>421</ele>
        <time>2016-05-08T08:04:21.000Z</time>
      </trkpt>
      <trkpt lat="47.48876" lon="6.6997">
        <ele>421</ele>
        <time>2016-05-08T08:04:22.000Z</time>
      </trkpt>
      <trkpt lat="47.4887" lon="6.69959">
        <ele>421</ele>
        <time>2016-05-08T08:04:23.000Z</time>
      </trkpt>
      <trkpt lat="47.48864" lon="6.69948">
        <ele>420</ele>
        <time>2016-05-08T08:04:24.000Z</time>
      </trkpt>
      <trkpt lat="47.48858" lon="6.69936">
        <ele>420</ele>
        <time>2016-05-08T08:04:25.000Z</time>
      </trkpt>
      <trkpt lat="47.48852" lon="6.69917">
        <ele>419</ele>
        <time>2016-05-08T08:04:26.000Z</time>
      </trkpt>
      <trkpt lat="47.48845" lon="6.69903">
        <ele>415</ele>
        <time>2016-05-08T08:04:27.000Z</time>
      </trkpt>
      <trkpt lat="47.48839" lon="6.6989">
        <ele>414</ele>
        <time>2016-05-08T08:04:28.000Z</time>
      </trkpt>
      <trkpt lat="47.48831" lon="6.69876">
        <ele>411</ele>
        <time>2016-05-08T08:04:29.000Z</time>
      </trkpt>
      <trkpt lat="47.48824" lon="6.69864">
        <ele>410</ele>
        <time>2016-05-08T08:04:30.000Z</time>
      </trkpt>
      <trkpt lat="47.48817" lon="6.69851">
        <ele>409</ele>
        <time>2016-05-08T08:04:31.000Z</time>
      </trkpt>
      <trkpt lat="47.48808" lon="6.69841">
        <ele>409</ele>
        <time>2016-05-08T08:04:32.000Z</time>
      </trkpt>
      <trkpt lat="47.48801" lon="6.6983">
        <ele>405</ele>
        <time>2016-05-08T08:04:33.000Z</time>
      </trkpt>
      <trkpt lat="47.48794" lon="6.69822">
        <ele>404</ele>
        <time>2016-05-08T08:04:34.000Z</time>
      </trkpt>
      <trkpt lat="47.48787" lon="6.69811">
        <ele>404</ele>
        <time>2016-05-08T08:04:35.000Z</time>
      </trkpt>
      <trkpt lat="47.48785" lon="6.69803">
        <ele>404</ele>
        <time>2016-05-08T08:04:36.000Z</time>
      </trkpt>
      <trkpt lat="47.48781" lon="6.69796">
        <ele>403</ele>
        <time>2016-05-08T08:04:37.000Z</time>
      </trkpt>
      <trkpt lat="47.48778" lon="6.69793">
        <ele>403</ele>
        <time>2016-05-08T08:04:38.000Z</time>
      </trkpt>
      <trkpt lat="47.48776" lon="6.69788">
        <ele>403</ele>
        <time>2016-05-08T08:04:39.000Z</time>
      </trkpt>
      <trkpt lat="47.48774" lon="6.69784">
        <ele>403</ele>
        <time>2016-05-08T08:04:41.000Z</time>
      </trkpt>
      <trkpt lat="47.48773" lon="6.69777">
        <ele>403</ele>
        <time>2016-05-08T08:04:42.000Z</time>
      </trkpt>
      <trkpt lat="47.48771" lon="6.69773">
        <ele>402</ele>
        <time>2016-05-08T08:04:43.000Z</time>
      </trkpt>
      <trkpt lat="47.48768" lon="6.69768">
        <ele>402</ele>
        <time>2016-05-08T08:04:44.000Z</time>
      </trkpt>
      <trkpt lat="47.48765" lon="6.69764">
        <ele>402</ele>
        <time>2016-05-08T08:04:45.000Z</time>
      </trkpt>
      <trkpt lat="47.48759" lon="6.69757">
        <ele>401</ele>
        <time>2016-05-08T08:04:46.000Z</time>
      </trkpt>
      <trkpt lat="47.48754" lon="6.6975">
        <ele>400</ele>
        <time>2016-05-08T08:04:47.000Z</time>
      </trkpt>
      <trkpt lat="47.48749" lon="6.69743">
        <ele>399</ele>
        <time>2016-05-08T08:04:48.000Z</time>
      </trkpt>
      <trkpt lat="47.48745" lon="6.69737">
        <ele>398</ele>
        <time>2016-05-08T08:04:49.000Z</time>
      </trkpt>
      <trkpt lat="47.48738" lon="6.69728">
        <ele>397</ele>
        <time>2016-05-08T08:04:50.000Z</time>
      </trkpt>
      <trkpt lat="47.48731" lon="6.69718">
        <ele>397</ele>
        <time>2016-05-08T08:04:51.000Z</time>
      </trkpt>
      <trkpt lat="47.48723" lon="6.69707">
        <ele>396</ele>
        <time>2016-05-08T08:04:52.000Z</time>
      </trkpt>
      <trkpt lat="47.48715" lon="6.69695">
        <ele>396</ele>
        <time>2016-05-08T08:04:53.000Z</time>
      </trkpt>
      <trkpt lat="47.48708" lon="6.69685">
        <ele>396</ele>
        <time>2016-05-08T08:04:54.000Z</time>
      </trkpt>
      <trkpt lat="47.48702" lon="6.69675">
        <ele>395</ele>
        <time>2016-05-08T08:04:55.000Z</time>
      </trkpt>
      <trkpt lat="47.48694" lon="6.69663">
        <ele>392</ele>
        <time>2016-05-08T08:04:56.000Z</time>
      </trkpt>
      <trkpt lat="47.48687" lon="6.69654">
        <ele>392</ele>
        <time>2016-05-08T08:04:57.000Z</time>
      </trkpt>
      <trkpt lat="47.4868" lon="6.69644">
        <ele>392</ele>
        <time>2016-05-08T08:04:58.000Z</time>
      </trkpt>
      <trkpt lat="47.48674" lon="6.69634">
        <ele>391</ele>
        <time>2016-05-08T08:04:59.000Z</time>
      </trkpt>
      <trkpt lat="47.48667" lon="6.6962">
        <ele>391</ele>
        <time>2016-05-08T08:05:00.000Z</time>
      </trkpt>
      <trkpt lat="47.48659" lon="6.69611">
        <ele>390</ele>
        <time>2016-05-08T08:05:01.000Z</time>
      </trkpt>
      <trkpt lat="47.48651" lon="6.69596">
        <ele>389</ele>
        <time>2016-05-08T08:05:02.000Z</time>
      </trkpt>
      <trkpt lat="47.48642" lon="6.69585">
        <ele>389</ele>
        <time>2016-05-08T08:05:03.000Z</time>
      </trkpt>
      <trkpt lat="47.48634" lon="6.69573">
        <ele>386</ele>
        <time>2016-05-08T08:05:04.000Z</time>
      </trkpt>
      <trkpt lat="47.48627" lon="6.69565">
        <ele>385</ele>
        <time>2016-05-08T08:05:05.000Z</time>
      </trkpt>
      <trkpt lat="47.48621" lon="6.69556">
        <ele>385</ele>
        <time>2016-05-08T08:05:06.000Z</time>
      </trkpt>
      <trkpt lat="47.48614" lon="6.69548">
        <ele>385</ele>
        <time>2016-05-08T08:05:07.000Z</time>
      </trkpt>
      <trkpt lat="47.48607" lon="6.69536">
        <ele>384</ele>
        <time>2016-05-08T08:05:08.000Z</time>
      </trkpt>
      <trkpt lat="47.48601" lon="6.69528">
        <ele>384</ele>
        <time>2016-05-08T08:05:09.000Z</time>
      </trkpt>
      <trkpt lat="47.48595" lon="6.69519">
        <ele>383</ele>
        <time>2016-05-08T08:05:10.000Z</time>
      </trkpt>
      <trkpt lat="47.4859" lon="6.69511">
        <ele>383</ele>
        <time>2016-05-08T08:05:11.000Z</time>
      </trkpt>
      <trkpt lat="47.48584" lon="6.69505">
        <ele>382</ele>
        <time>2016-05-08T08:05:12.000Z</time>
      </trkpt>
      <trkpt lat="47.48578" lon="6.69494">
        <ele>381</ele>
        <time>2016-05-08T08:05:13.000Z</time>
      </trkpt>
      <trkpt lat="47.48574" lon="6.69485">
        <ele>381</ele>
        <time>2016-05-08T08:05:14.000Z</time>
      </trkpt>
      <trkpt lat="47.48567" lon="6.69477">
        <ele>380</ele>
        <time>2016-05-08T08:05:15.000Z</time>
      </trkpt>
      <trkpt lat="47.48558" lon="6.69466">
        <ele>380</ele>
        <time>2016-05-08T08:05:16.000Z</time>
      </trkpt>
      <trkpt lat="47.48549" lon="6.69454">
        <ele>379</ele>
        <time>2016-05-08T08:05:17.000Z</time>
      </trkpt>
      <trkpt lat="47.48542" lon="6.69447">
        <ele>379</ele>
        <time>2016-05-08T08:05:18.000Z</time>
      </trkpt>
      <trkpt lat="47.48536" lon="6.69436">
        <ele>379</ele>
        <time>2016-05-08T08:05:19.000Z</time>
      </trkpt>
      <trkpt lat="47.48531" lon="6.6943">
        <ele>379</ele>
        <time>2016-05-08T08:05:20.000Z</time>
      </trkpt>
      <trkpt lat="47.48523" lon="6.69422">
        <ele>378</ele>
        <time>2016-05-08T08:05:21.000Z</time>
      </trkpt>
      <trkpt lat="47.48516" lon="6.69407">
        <ele>376</ele>
        <time>2016-05-08T08:05:22.000Z</time>
      </trkpt>
      <trkpt lat="47.48508" lon="6.69398">
        <ele>376</ele>
        <time>2016-05-08T08:05:23.000Z</time>
      </trkpt>
      <trkpt lat="47.485" lon="6.69385">
        <ele>375</ele>
        <time>2016-05-08T08:05:24.000Z</time>
      </trkpt>
      <trkpt lat="47.48494" lon="6.69376">
        <ele>374</ele>
        <time>2016-05-08T08:05:25.000Z</time>
      </trkpt>
      <trkpt lat="47.48487" lon="6.69368">
        <ele>374</ele>
        <time>2016-05-08T08:05:26.000Z</time>
      </trkpt>
      <trkpt lat="47.48481" lon="6.6936">
        <ele>373</ele>
        <time>2016-05-08T08:05:27.000Z</time>
      </trkpt>
      <trkpt lat="47.48472" lon="6.6935">
        <ele>373</ele>
        <time>2016-05-08T08:05:28.000Z</time>
      </trkpt>
      <trkpt lat="47.48465" lon="6.69338">
        <ele>373</ele>
        <time>2016-05-08T08:05:29.000Z</time>
      </trkpt>
      <trkpt lat="47.48457" lon="6.69328">
        <ele>370</ele>
        <time>2016-05-08T08:05:30.000Z</time>
      </trkpt>
      <trkpt lat="47.48449" lon="6.69317">
        <ele>370</ele>
        <time>2016-05-08T08:05:31.000Z</time>
      </trkpt>
      <trkpt lat="47.4844" lon="6.69307">
        <ele>370</ele>
        <time>2016-05-08T08:05:32.000Z</time>
      </trkpt>
      <trkpt lat="47.48433" lon="6.693">
        <ele>370</ele>
        <time>2016-05-08T08:05:33.000Z</time>
      </trkpt>
      <trkpt lat="47.48427" lon="6.69293">
        <ele>370</ele>
        <time>2016-05-08T08:05:34.000Z</time>
      </trkpt>
      <trkpt lat="47.48423" lon="6.69285">
        <ele>370</ele>
        <time>2016-05-08T08:05:35.000Z</time>
      </trkpt>
      <trkpt lat="47.48416" lon="6.69274">
        <ele>370</ele>
        <time>2016-05-08T08:05:36.000Z</time>
      </trkpt>
      <trkpt lat="47.4841" lon="6.69268">
        <ele>370</ele>
        <time>2016-05-08T08:05:37.000Z</time>
      </trkpt>
      <trkpt lat="47.48404" lon="6.69263">
        <ele>370</ele>
        <time>2016-05-08T08:05:38.000Z</time>
      </trkpt>
      <trkpt lat="47.48399" lon="6.69258">
        <ele>370</ele>
        <time>2016-05-08T08:05:39.000Z</time>
      </trkpt>
      <trkpt lat="47.48392" lon="6.69252">
        <ele>370</ele>
        <time>2016-05-08T08:05:40.000Z</time>
      </trkpt>
      <trkpt lat="47.48385" lon="6.69249">
        <ele>369</ele>
        <time>2016-05-08T08:05:41.000Z</time>
      </trkpt>
      <trkpt lat="47.48378" lon="6.69245">
        <ele>369</ele>
        <time>2016-05-08T08:05:42.000Z</time>
      </trkpt>
      <trkpt lat="47.48371" lon="6.6924">
        <ele>369</ele>
        <time>2016-05-08T08:05:43.000Z</time>
      </trkpt>
      <trkpt lat="47.48364" lon="6.69237">
        <ele>369</ele>
        <time>2016-05-08T08:05:44.000Z</time>
      </trkpt>
      <trkpt lat="47.48357" lon="6.69232">
        <ele>368</ele>
        <time>2016-05-08T08:05:45.000Z</time>
      </trkpt>
      <trkpt lat="47.48349" lon="6.69228">
        <ele>368</ele>
        <time>2016-05-08T08:05:46.000Z</time>
      </trkpt>
      <trkpt lat="47.4834" lon="6.69224">
        <ele>368</ele>
        <time>2016-05-08T08:05:47.000Z</time>
      </trkpt>
      <trkpt lat="47.48333" lon="6.69221">
        <ele>363</ele>
        <time>2016-05-08T08:05:48.000Z</time>
      </trkpt>
      <trkpt lat="47.48327" lon="6.6922">
        <ele>363</ele>
        <time>2016-05-08T08:05:49.000Z</time>
      </trkpt>
      <trkpt lat="47.48321" lon="6.69222">
        <ele>363</ele>
        <time>2016-05-08T08:05:50.000Z</time>
      </trkpt>
      <trkpt lat="47.48318" lon="6.69225">
        <ele>363</ele>
        <time>2016-05-08T08:05:51.000Z</time>
      </trkpt>
      <trkpt lat="47.48315" lon="6.69226">
        <ele>363</ele>
        <time>2016-05-08T08:05:52.000Z</time>
      </trkpt>
      <trkpt lat="47.4831" lon="6.69229">
        <ele>363</ele>
        <time>2016-05-08T08:05:53.000Z</time>
      </trkpt>
      <trkpt lat="47.48306" lon="6.69233">
        <ele>362</ele>
        <time>2016-05-08T08:05:54.000Z</time>
      </trkpt>
      <trkpt lat="47.48298" lon="6.69233">
        <ele>362</ele>
        <time>2016-05-08T08:05:55.000Z</time>
      </trkpt>
      <trkpt lat="47.48291" lon="6.69231">
        <ele>361</ele>
        <time>2016-05-08T08:05:56.000Z</time>
      </trkpt>
      <trkpt lat="47.48285" lon="6.6923">
        <ele>361</ele>
        <time>2016-05-08T08:05:57.000Z</time>
      </trkpt>
      <trkpt lat="47.48279" lon="6.6923">
        <ele>360</ele>
        <time>2016-05-08T08:05:58.000Z</time>
      </trkpt>
      <trkpt lat="47.48273" lon="6.69231">
        <ele>360</ele>
        <time>2016-05-08T08:05:59.000Z</time>
      </trkpt>
      <trkpt lat="47.48268" lon="6.6923">
        <ele>359</ele>
        <time>2016-05-08T08:06:00.000Z</time>
      </trkpt>
      <trkpt lat="47.48261" lon="6.69229">
        <ele>359</ele>
        <time>2016-05-08T08:06:01.000Z</time>
      </trkpt>
      <trkpt lat="47.48258" lon="6.69216">
        <ele>359</ele>
        <time>2016-05-08T08:06:02.000Z</time>
      </trkpt>
      <trkpt lat="47.48255" lon="6.6921">
        <ele>359</ele>
        <time>2016-05-08T08:06:03.000Z</time>
      </trkpt>
      <trkpt lat="47.48252" lon="6.69202">
        <ele>359</ele>
        <time>2016-05-08T08:06:04.000Z</time>
      </trkpt>
      <trkpt lat="47.48247" lon="6.69195">
        <ele>354</ele>
        <time>2016-05-08T08:06:05.000Z</time>
      </trkpt>
      <trkpt lat="47.48245" lon="6.69189">
        <ele>354</ele>
        <time>2016-05-08T08:06:06.000Z</time>
      </trkpt>
      <trkpt lat="47.48242" lon="6.69182">
        <ele>354</ele>
        <time>2016-05-08T08:06:07.000Z</time>
      </trkpt>
      <trkpt lat="47.48239" lon="6.69176">
        <ele>354</ele>
        <time>2016-05-08T08:06:08.000Z</time>
      </trkpt>
      <trkpt lat="47.48236" lon="6.69169">
        <ele>354</ele>
        <time>2016-05-08T08:06:09.000Z</time>
      </trkpt>
      <trkpt lat="47.48234" lon="6.69159">
        <ele>354</ele>
        <time>2016-05-08T08:06:10.000Z</time>
      </trkpt>
      <trkpt lat="47.48232" lon="6.69149">
        <ele>354</ele>
        <time>2016-05-08T08:06:11.000Z</time>
      </trkpt>
      <trkpt lat="47.4823" lon="6.69143">
        <ele>354</ele>
        <time>2016-05-08T08:06:12.000Z</time>
      </trkpt>
      <trkpt lat="47.48226" lon="6.69136">
        <ele>354</ele>
        <time>2016-05-08T08:06:13.000Z</time>
      </trkpt>
      <trkpt lat="47.48223" lon="6.69133">
        <ele>354</ele>
        <time>2016-05-08T08:06:14.000Z</time>
      </trkpt>
      <trkpt lat="47.4822" lon="6.69126">
        <ele>354</ele>
        <time>2016-05-08T08:06:15.000Z</time>
      </trkpt>
      <trkpt lat="47.48216" lon="6.69119">
        <ele>354</ele>
        <time>2016-05-08T08:06:16.000Z</time>
      </trkpt>
      <trkpt lat="47.48213" lon="6.69112">
        <ele>354</ele>
        <time>2016-05-08T08:06:17.000Z</time>
      </trkpt>
      <trkpt lat="47.4821" lon="6.69106">
        <ele>354</ele>
        <time>2016-05-08T08:06:18.000Z</time>
      </trkpt>
      <trkpt lat="47.48209" lon="6.691">
        <ele>354</ele>
        <time>2016-05-08T08:06:19.000Z</time>
      </trkpt>
      <trkpt lat="47.48208" lon="6.69094">
        <ele>354</ele>
        <time>2016-05-08T08:06:20.000Z</time>
      </trkpt>
      <trkpt lat="47.48208" lon="6.69087">
        <ele>354</ele>
        <time>2016-05-08T08:06:21.000Z</time>
      </trkpt>
      <trkpt lat="47.48208" lon="6.69083">
        <ele>354</ele>
        <time>2016-05-08T08:06:22.000Z</time>
      </trkpt>
      <trkpt lat="47.48209" lon="6.69079">
        <ele>355</ele>
        <time>2016-05-08T08:06:23.000Z</time>
      </trkpt>
      <trkpt lat="47.48208" lon="6.69074">
        <ele>355</ele>
        <time>2016-05-08T08:06:24.000Z</time>
      </trkpt>
      <trkpt lat="47.48211" lon="6.69069">
        <ele>355</ele>
        <time>2016-05-08T08:06:25.000Z</time>
      </trkpt>
      <trkpt lat="47.48212" lon="6.69065">
        <ele>355</ele>
        <time>2016-05-08T08:06:26.000Z</time>
      </trkpt>
      <trkpt lat="47.48214" lon="6.69061">
        <ele>355</ele>
        <time>2016-05-08T08:06:27.000Z</time>
      </trkpt>
      <trkpt lat="47.48217" lon="6.69057">
        <ele>355</ele>
        <time>2016-05-08T08:06:28.000Z</time>
      </trkpt>
      <trkpt lat="47.4822" lon="6.69053">
        <ele>355</ele>
        <time>2016-05-08T08:06:29.000Z</time>
      </trkpt>
      <trkpt lat="47.48222" lon="6.6905">
        <ele>355</ele>
        <time>2016-05-08T08:06:30.000Z</time>
      </trkpt>
      <trkpt lat="47.48223" lon="6.69047">
        <ele>355</ele>
        <time>2016-05-08T08:06:31.000Z</time>
      </trkpt>
      <trkpt lat="47.48225" lon="6.69045">
        <ele>355</ele>
        <time>2016-05-08T08:06:32.000Z</time>
      </trkpt>
      <trkpt lat="47.48227" lon="6.69042">
        <ele>355</ele>
        <time>2016-05-08T08:06:33.000Z</time>
      </trkpt>
      <trkpt lat="47.48229" lon="6.69039">
        <ele>355</ele>
        <time>2016-05-08T08:06:34.000Z</time>
      </trkpt>
      <trkpt lat="47.48231" lon="6.69036">
        <ele>355</ele>
        <time>2016-05-08T08:06:35.000Z</time>
      </trkpt>
      <trkpt lat="47.48233" lon="6.69032">
        <ele>355</ele>
        <time>2016-05-08T08:06:36.000Z</time>
      </trkpt>
      <trkpt lat="47.48235" lon="6.69029">
        <ele>355</ele>
        <time>2016-05-08T08:06:37.000Z</time>
      </trkpt>
      <trkpt lat="47.48238" lon="6.69025">
        <ele>355</ele>
        <time>2016-05-08T08:06:38.000Z</time>
      </trkpt>
      <trkpt lat="47.4824" lon="6.69022">
        <ele>355</ele>
        <time>2016-05-08T08:06:39.000Z</time>
      </trkpt>
      <trkpt lat="47.48243" lon="6.69018">
        <ele>356</ele>
        <time>2016-05-08T08:06:40.000Z</time>
      </trkpt>
      <trkpt lat="47.48245" lon="6.69015">
        <ele>356</ele>
        <time>2016-05-08T08:06:41.000Z</time>
      </trkpt>
      <trkpt lat="47.48248" lon="6.69013">
        <ele>356</ele>
        <time>2016-05-08T08:06:42.000Z</time>
      </trkpt>
      <trkpt lat="47.4825" lon="6.6901">
        <ele>356</ele>
        <time>2016-05-08T08:06:43.000Z</time>
      </trkpt>
      <trkpt lat="47.48252" lon="6.69008">
        <ele>357</ele>
        <time>2016-05-08T08:06:44.000Z</time>
      </trkpt>
      <trkpt lat="47.48255" lon="6.69006">
        <ele>357</ele>
        <time>2016-05-08T08:06:45.000Z</time>
      </trkpt>
      <trkpt lat="47.48257" lon="6.69004">
        <ele>357</ele>
        <time>2016-05-08T08:06:46.000Z</time>
      </trkpt>
      <trkpt lat="47.48259" lon="6.69003">
        <ele>357</ele>
        <time>2016-05-08T08:06:47.000Z</time>
      </trkpt>
      <trkpt lat="47.48262" lon="6.69001">
        <ele>357</ele>
        <time>2016-05-08T08:06:48.000Z</time>
      </trkpt>
      <trkpt lat="47.48264" lon="6.68999">
        <ele>356</ele>
        <time>2016-05-08T08:06:49.000Z</time>
      </trkpt>
      <trkpt lat="47.48267" lon="6.68998">
        <ele>356</ele>
        <time>2016-05-08T08:06:50.000Z</time>
      </trkpt>
      <trkpt lat="47.4827" lon="6.68997">
        <ele>356</ele>
        <time>2016-05-08T08:06:51.000Z</time>
      </trkpt>
      <trkpt lat="47.48273" lon="6.68997">
        <ele>356</ele>
        <time>2016-05-08T08:06:52.000Z</time>
      </trkpt>
      <trkpt lat="47.48276" lon="6.68997">
        <ele>355</ele>
        <time>2016-05-08T08:06:53.000Z</time>
      </trkpt>
      <trkpt lat="47.48279" lon="6.68997">
        <ele>355</ele>
        <time>2016-05-08T08:06:54.000Z</time>
      </trkpt>
      <trkpt lat="47.48282" lon="6.68998">
        <ele>355</ele>
        <time>2016-05-08T08:06:55.000Z</time>
      </trkpt>
      <trkpt lat="47.48285" lon="6.68999">
        <ele>355</ele>
        <time>2016-05-08T08:06:56.000Z</time>
      </trkpt>
      <trkpt lat="47.48289" lon="6.69">
        <ele>355</ele>
        <time>2016-05-08T08:06:57.000Z</time>
      </trkpt>
      <trkpt lat="47.48291" lon="6.68999">
        <ele>355</ele>
        <time>2016-05-08T08:06:58.000Z</time>
      </trkpt>
      <trkpt lat="47.48294" lon="6.68998">
        <ele>355</ele>
        <time>2016-05-08T08:06:59.000Z</time>
      </trkpt>
      <trkpt lat="47.48297" lon="6.68996">
        <ele>355</ele>
        <time>2016-05-08T08:07:00.000Z</time>
      </trkpt>
      <trkpt lat="47.48301" lon="6.68996">
        <ele>355</ele>
        <time>2016-05-08T08:07:01.000Z</time>
      </trkpt>
      <trkpt lat="47.48305" lon="6.68996">
        <ele>355</ele>
        <time>2016-05-08T08:07:02.000Z</time>
      </trkpt>
      <trkpt lat="47.48309" lon="6.68997">
        <ele>355</ele>
        <time>2016-05-08T08:07:03.000Z</time>
      </trkpt>
      <trkpt lat="47.48314" lon="6.68998">
        <ele>355</ele>
        <time>2016-05-08T08:07:04.000Z</time>
      </trkpt>
      <trkpt lat="47.48318" lon="6.68999">
        <ele>355</ele>
        <time>2016-05-08T08:07:05.000Z</time>
      </trkpt>
      <trkpt lat="47.48322" lon="6.69">
        <ele>355</ele>
        <time>2016-05-08T08:07:06.000Z</time>
      </trkpt>
      <trkpt lat="47.48326" lon="6.69001">
        <ele>356</ele>
        <time>2016-05-08T08:07:07.000Z</time>
      </trkpt>
      <trkpt lat="47.4833" lon="6.69002">
        <ele>355</ele>
        <time>2016-05-08T08:07:08.000Z</time>
      </trkpt>
      <trkpt lat="47.48335" lon="6.69003">
        <ele>356</ele>
        <time>2016-05-08T08:07:09.000Z</time>
      </trkpt>
      <trkpt lat="47.48339" lon="6.69004">
        <ele>357</ele>
        <time>2016-05-08T08:07:10.000Z</time>
      </trkpt>
      <trkpt lat="47.48344" lon="6.69005">
        <ele>357</ele>
        <time>2016-05-08T08:07:11.000Z</time>
      </trkpt>
      <trkpt lat="47.48349" lon="6.69006">
        <ele>358</ele>
        <time>2016-05-08T08:07:12.000Z</time>
      </trkpt>
      <trkpt lat="47.48354" lon="6.69006">
        <ele>359</ele>
        <time>2016-05-08T08:07:13.000Z</time>
      </trkpt>
      <trkpt lat="47.48359" lon="6.69005">
        <ele>359</ele>
        <time>2016-05-08T08:07:14.000Z</time>
      </trkpt>
      <trkpt lat="47.48364" lon="6.69004">
        <ele>359</ele>
        <time>2016-05-08T08:07:15.000Z</time>
      </trkpt>
      <trkpt lat="47.48368" lon="6.69002">
        <ele>360</ele>
        <time>2016-05-08T08:07:16.000Z</time>
      </trkpt>
      <trkpt lat="47.48373" lon="6.69">
        <ele>360</ele>
        <time>2016-05-08T08:07:17.000Z</time>
      </trkpt>
      <trkpt lat="47.48377" lon="6.68997">
        <ele>356</ele>
        <time>2016-05-08T08:07:18.000Z</time>
      </trkpt>
      <trkpt lat="47.4838" lon="6.68993">
        <ele>356</ele>
        <time>2016-05-08T08:07:19.000Z</time>
      </trkpt>
      <trkpt lat="47.48383" lon="6.68988">
        <ele>356</ele>
        <time>2016-05-08T08:07:20.000Z</time>
      </trkpt>
      <trkpt lat="47.48385" lon="6.68983">
        <ele>356</ele>
        <time>2016-05-08T08:07:21.000Z</time>
      </trkpt>
      <trkpt lat="47.48386" lon="6.68974">
        <ele>355</ele>
        <time>2016-05-08T08:07:22.000Z</time>
      </trkpt>
      <trkpt lat="47.48389" lon="6.68968">
        <ele>355</ele>
        <time>2016-05-08T08:07:23.000Z</time>
      </trkpt>
      <trkpt lat="47.48392" lon="6.68963">
        <ele>355</ele>
        <time>2016-05-08T08:07:24.000Z</time>
      </trkpt>
      <trkpt lat="47.48395" lon="6.68957">
        <ele>354</ele>
        <time>2016-05-08T08:07:25.000Z</time>
      </trkpt>
      <trkpt lat="47.48398" lon="6.68951">
        <ele>354</ele>
        <time>2016-05-08T08:07:26.000Z</time>
      </trkpt>
      <trkpt lat="47.484" lon="6.68945">
        <ele>354</ele>
        <time>2016-05-08T08:07:27.000Z</time>
      </trkpt>
      <trkpt lat="47.48404" lon="6.68938">
        <ele>353</ele>
        <time>2016-05-08T08:07:28.000Z</time>
      </trkpt>
      <trkpt lat="47.48407" lon="6.68932">
        <ele>353</ele>
        <time>2016-05-08T08:07:29.000Z</time>
      </trkpt>
      <trkpt lat="47.4841" lon="6.68925">
        <ele>353</ele>
        <time>2016-05-08T08:07:30.000Z</time>
      </trkpt>
      <trkpt lat="47.48413" lon="6.68918">
        <ele>352</ele>
        <time>2016-05-08T08:07:31.000Z</time>
      </trkpt>
      <trkpt lat="47.48416" lon="6.68913">
        <ele>352</ele>
        <time>2016-05-08T08:07:32.000Z</time>
      </trkpt>
      <trkpt lat="47.48419" lon="6.68905">
        <ele>351</ele>
        <time>2016-05-08T08:07:33.000Z</time>
      </trkpt>
      <trkpt lat="47.48421" lon="6.68898">
        <ele>351</ele>
        <time>2016-05-08T08:07:34.000Z</time>
      </trkpt>
      <trkpt lat="47.48425" lon="6.68889">
        <ele>351</ele>
        <time>2016-05-08T08:07:35.000Z</time>
      </trkpt>
      <trkpt lat="47.48431" lon="6.68872">
        <ele>351</ele>
        <time>2016-05-08T08:07:37.000Z</time>
      </trkpt>
      <trkpt lat="47.48435" lon="6.68865">
        <ele>350</ele>
        <time>2016-05-08T08:07:38.000Z</time>
      </trkpt>
      <trkpt lat="47.48438" lon="6.68856">
        <ele>350</ele>
        <time>2016-05-08T08:07:39.000Z</time>
      </trkpt>
      <trkpt lat="47.48441" lon="6.68848">
        <ele>350</ele>
        <time>2016-05-08T08:07:40.000Z</time>
      </trkpt>
      <trkpt lat="47.48444" lon="6.68839">
        <ele>350</ele>
        <time>2016-05-08T08:07:41.000Z</time>
      </trkpt>
      <trkpt lat="47.48447" lon="6.6883">
        <ele>348</ele>
        <time>2016-05-08T08:07:42.000Z</time>
      </trkpt>
      <trkpt lat="47.4845" lon="6.6882">
        <ele>348</ele>
        <time>2016-05-08T08:07:43.000Z</time>
      </trkpt>
      <trkpt lat="47.4845" lon="6.68811">
        <ele>348</ele>
        <time>2016-05-08T08:07:44.000Z</time>
      </trkpt>
      <trkpt lat="47.48452" lon="6.68801">
        <ele>347</ele>
        <time>2016-05-08T08:07:45.000Z</time>
      </trkpt>
      <trkpt lat="47.48454" lon="6.68791">
        <ele>347</ele>
        <time>2016-05-08T08:07:46.000Z</time>
      </trkpt>
      <trkpt lat="47.48457" lon="6.68782">
        <ele>347</ele>
        <time>2016-05-08T08:07:47.000Z</time>
      </trkpt>
      <trkpt lat="47.48459" lon="6.68772">
        <ele>346</ele>
        <time>2016-05-08T08:07:48.000Z</time>
      </trkpt>
      <trkpt lat="47.48463" lon="6.68765">
        <ele>346</ele>
        <time>2016-05-08T08:07:49.000Z</time>
      </trkpt>
      <trkpt lat="47.48469" lon="6.68759">
        <ele>346</ele>
        <time>2016-05-08T08:07:50.000Z</time>
      </trkpt>
      <trkpt lat="47.48477" lon="6.68761">
        <ele>346</ele>
        <time>2016-05-08T08:07:51.000Z</time>
      </trkpt>
      <trkpt lat="47.48484" lon="6.68759">
        <ele>346</ele>
        <time>2016-05-08T08:07:52.000Z</time>
      </trkpt>
      <trkpt lat="47.48489" lon="6.68754">
        <ele>345</ele>
        <time>2016-05-08T08:07:53.000Z</time>
      </trkpt>
      <trkpt lat="47.48493" lon="6.68747">
        <ele>343</ele>
        <time>2016-05-08T08:07:54.000Z</time>
      </trkpt>
      <trkpt lat="47.48496" lon="6.68737">
        <ele>343</ele>
        <time>2016-05-08T08:07:55.000Z</time>
      </trkpt>
      <trkpt lat="47.48499" lon="6.68726">
        <ele>342</ele>
        <time>2016-05-08T08:07:56.000Z</time>
      </trkpt>
      <trkpt lat="47.48505" lon="6.68718">
        <ele>342</ele>
        <time>2016-05-08T08:07:57.000Z</time>
      </trkpt>
      <trkpt lat="47.48506" lon="6.68714">
        <ele>342</ele>
        <time>2016-05-08T08:07:58.000Z</time>
      </trkpt>
      <trkpt lat="47.48507" lon="6.68709">
        <ele>342</ele>
        <time>2016-05-08T08:07:59.000Z</time>
      </trkpt>
      <trkpt lat="47.48508" lon="6.68704">
        <ele>341</ele>
        <time>2016-05-08T08:08:00.000Z</time>
      </trkpt>
      <trkpt lat="47.4851" lon="6.68698">
        <ele>341</ele>
        <time>2016-05-08T08:08:01.000Z</time>
      </trkpt>
      <trkpt lat="47.48515" lon="6.68693">
        <ele>341</ele>
        <time>2016-05-08T08:08:02.000Z</time>
      </trkpt>
      <trkpt lat="47.48522" lon="6.68683">
        <ele>341</ele>
        <time>2016-05-08T08:08:03.000Z</time>
      </trkpt>
      <trkpt lat="47.48528" lon="6.68678">
        <ele>341</ele>
        <time>2016-05-08T08:08:04.000Z</time>
      </trkpt>
      <trkpt lat="47.48538" lon="6.68677">
        <ele>341</ele>
        <time>2016-05-08T08:08:05.000Z</time>
      </trkpt>
      <trkpt lat="47.48546" lon="6.68677">
        <ele>342</ele>
        <time>2016-05-08T08:08:06.000Z</time>
      </trkpt>
      <trkpt lat="47.48552" lon="6.68677">
        <ele>342</ele>
        <time>2016-05-08T08:08:07.000Z</time>
      </trkpt>
      <trkpt lat="47.48556" lon="6.68673">
        <ele>342</ele>
        <time>2016-05-08T08:08:08.000Z</time>
      </trkpt>
      <trkpt lat="47.48559" lon="6.68667">
        <ele>342</ele>
        <time>2016-05-08T08:08:09.000Z</time>
      </trkpt>
      <trkpt lat="47.48561" lon="6.68663">
        <ele>342</ele>
        <time>2016-05-08T08:08:10.000Z</time>
      </trkpt>
      <trkpt lat="47.48561" lon="6.68658">
        <ele>342</ele>
        <time>2016-05-08T08:08:11.000Z</time>
      </trkpt>
      <trkpt lat="47.48562" lon="6.68655">
        <ele>342</ele>
        <time>2016-05-08T08:08:12.000Z</time>
      </trkpt>
      <trkpt lat="47.48563" lon="6.68651">
        <ele>342</ele>
        <time>2016-05-08T08:08:13.000Z</time>
      </trkpt>
      <trkpt lat="47.48564" lon="6.68647">
        <ele>342</ele>
        <time>2016-05-08T08:08:15.000Z</time>
      </trkpt>
      <trkpt lat="47.48565" lon="6.68644">
        <ele>343</ele>
        <time>2016-05-08T08:08:16.000Z</time>
      </trkpt>
      <trkpt lat="47.48566" lon="6.6864">
        <ele>343</ele>
        <time>2016-05-08T08:08:18.000Z</time>
      </trkpt>
      <trkpt lat="47.48566" lon="6.68638">
        <ele>343</ele>
        <time>2016-05-08T08:08:19.000Z</time>
      </trkpt>
      <trkpt lat="47.48567" lon="6.68633">
        <ele>343</ele>
        <time>2016-05-08T08:08:21.000Z</time>
      </trkpt>
      <trkpt lat="47.48567" lon="6.68631">
        <ele>343</ele>
        <time>2016-05-08T08:08:22.000Z</time>
      </trkpt>
      <trkpt lat="47.48569" lon="6.68625">
        <ele>343</ele>
        <time>2016-05-08T08:08:26.000Z</time>
      </trkpt>
      <trkpt lat="47.4857" lon="6.68624">
        <ele>343</ele>
        <time>2016-05-08T08:08:27.000Z</time>
      </trkpt>
      <trkpt lat="47.48573" lon="6.68622">
        <ele>343</ele>
        <time>2016-05-08T08:08:30.000Z</time>
      </trkpt>
      <trkpt lat="47.48575" lon="6.68622">
        <ele>343</ele>
        <time>2016-05-08T08:08:31.000Z</time>
      </trkpt>
      <trkpt lat="47.48578" lon="6.6862">
        <ele>343</ele>
        <time>2016-05-08T08:08:34.000Z</time>
      </trkpt>
      <trkpt lat="47.48579" lon="6.68618">
        <ele>343</ele>
        <time>2016-05-08T08:08:35.000Z</time>
      </trkpt>
      <trkpt lat="47.4858" lon="6.68613">
        <ele>344</ele>
        <time>2016-05-08T08:08:38.000Z</time>
      </trkpt>
      <trkpt lat="47.4858" lon="6.68611">
        <ele>344</ele>
        <time>2016-05-08T08:08:39.000Z</time>
      </trkpt>
      <trkpt lat="47.48581" lon="6.68605">
        <ele>344</ele>
        <time>2016-05-08T08:08:42.000Z</time>
      </trkpt>
      <trkpt lat="47.48581" lon="6.68603">
        <ele>344</ele>
        <time>2016-05-08T08:08:43.000Z</time>
      </trkpt>
      <trkpt lat="47.48583" lon="6.68598">
        <ele>344</ele>
        <time>2016-05-08T08:08:46.000Z</time>
      </trkpt>
      <trkpt lat="47.48584" lon="6.68597">
        <ele>346</ele>
        <time>2016-05-08T08:08:47.000Z</time>
      </trkpt>
      <trkpt lat="47.48583" lon="6.68592">
        <ele>346</ele>
        <time>2016-05-08T08:08:49.000Z</time>
      </trkpt>
      <trkpt lat="47.48583" lon="6.68589">
        <ele>345</ele>
        <time>2016-05-08T08:08:50.000Z</time>
      </trkpt>
      <trkpt lat="47.48582" lon="6.68584">
        <ele>346</ele>
        <time>2016-05-08T08:08:52.000Z</time>
      </trkpt>
      <trkpt lat="47.48582" lon="6.68582">
        <ele>346</ele>
        <time>2016-05-08T08:08:53.000Z</time>
      </trkpt>
      <trkpt lat="47.48581" lon="6.68576">
        <ele>346</ele>
        <time>2016-05-08T08:08:56.000Z</time>
      </trkpt>
      <trkpt lat="47.48581" lon="6.68575">
        <ele>346</ele>
        <time>2016-05-08T08:08:57.000Z</time>
      </trkpt>
      <trkpt lat="47.48581" lon="6.68569">
        <ele>346</ele>
        <time>2016-05-08T08:09:00.000Z</time>
      </trkpt>
      <trkpt lat="47.48581" lon="6.68567">
        <ele>346</ele>
        <time>2016-05-08T08:09:01.000Z</time>
      </trkpt>
      <trkpt lat="47.48581" lon="6.68561">
        <ele>346</ele>
        <time>2016-05-08T08:09:04.000Z</time>
      </trkpt>
      <trkpt lat="47.4858" lon="6.68559">
        <ele>347</ele>
        <time>2016-05-08T08:09:05.000Z</time>
      </trkpt>
      <trkpt lat="47.4858" lon="6.68554">
        <ele>347</ele>
        <time>2016-05-08T08:09:08.000Z</time>
      </trkpt>
      <trkpt lat="47.4858" lon="6.68552">
        <ele>347</ele>
        <time>2016-05-08T08:09:09.000Z</time>
      </trkpt>
      <trkpt lat="47.4858" lon="6.68548">
        <ele>347</ele>
        <time>2016-05-08T08:09:11.000Z</time>
      </trkpt>
      <trkpt lat="47.48579" lon="6.68545">
        <ele>347</ele>
        <time>2016-05-08T08:09:12.000Z</time>
      </trkpt>
      <trkpt lat="47.4858" lon="6.68539">
        <ele>347</ele>
        <time>2016-05-08T08:09:14.000Z</time>
      </trkpt>
      <trkpt lat="47.4858" lon="6.68536">
        <ele>347</ele>
        <time>2016-05-08T08:09:15.000Z</time>
      </trkpt>
      <trkpt lat="47.48581" lon="6.68532">
        <ele>347</ele>
        <time>2016-05-08T08:09:17.000Z</time>
      </trkpt>
      <trkpt lat="47.48581" lon="6.6853">
        <ele>347</ele>
        <time>2016-05-08T08:09:18.000Z</time>
      </trkpt>
      <trkpt lat="47.4858" lon="6.68524">
        <ele>348</ele>
        <time>2016-05-08T08:09:21.000Z</time>
      </trkpt>
      <trkpt lat="47.4858" lon="6.68523">
        <ele>348</ele>
        <time>2016-05-08T08:09:22.000Z</time>
      </trkpt>
      <trkpt lat="47.48581" lon="6.68517">
        <ele>348</ele>
        <time>2016-05-08T08:09:25.000Z</time>
      </trkpt>
      <trkpt lat="47.48581" lon="6.68514">
        <ele>348</ele>
        <time>2016-05-08T08:09:26.000Z</time>
      </trkpt>
      <trkpt lat="47.4858" lon="6.68509">
        <ele>348</ele>
        <time>2016-05-08T08:09:29.000Z</time>
      </trkpt>
      <trkpt lat="47.4858" lon="6.68506">
        <ele>348</ele>
        <time>2016-05-08T08:09:30.000Z</time>
      </trkpt>
      <trkpt lat="47.48578" lon="6.68502">
        <ele>349</ele>
        <time>2016-05-08T08:09:32.000Z</time>
      </trkpt>
      <trkpt lat="47.48577" lon="6.685">
        <ele>349</ele>
        <time>2016-05-08T08:09:33.000Z</time>
      </trkpt>
      <trkpt lat="47.48575" lon="6.68494">
        <ele>349</ele>
        <time>2016-05-08T08:09:35.000Z</time>
      </trkpt>
      <trkpt lat="47.48574" lon="6.68491">
        <ele>349</ele>
        <time>2016-05-08T08:09:36.000Z</time>
      </trkpt>
      <trkpt lat="47.48574" lon="6.68488">
        <ele>349</ele>
        <time>2016-05-08T08:09:37.000Z</time>
      </trkpt>
      <trkpt lat="47.48574" lon="6.68485">
        <ele>349</ele>
        <time>2016-05-08T08:09:38.000Z</time>
      </trkpt>
      <trkpt lat="47.48573" lon="6.68478">
        <ele>349</ele>
        <time>2016-05-08T08:09:40.000Z</time>
      </trkpt>
      <trkpt lat="47.48573" lon="6.68475">
        <ele>349</ele>
        <time>2016-05-08T08:09:41.000Z</time>
      </trkpt>
      <trkpt lat="47.48572" lon="6.68471">
        <ele>348</ele>
        <time>2016-05-08T08:09:43.000Z</time>
      </trkpt>
      <trkpt lat="47.48572" lon="6.68468">
        <ele>348</ele>
        <time>2016-05-08T08:09:44.000Z</time>
      </trkpt>
      <trkpt lat="47.48571" lon="6.68463">
        <ele>348</ele>
        <time>2016-05-08T08:09:46.000Z</time>
      </trkpt>
      <trkpt lat="47.4857" lon="6.68461">
        <ele>348</ele>
        <time>2016-05-08T08:09:47.000Z</time>
      </trkpt>
      <trkpt lat="47.48568" lon="6.68457">
        <ele>348</ele>
        <time>2016-05-08T08:09:49.000Z</time>
      </trkpt>
      <trkpt lat="47.48568" lon="6.68454">
        <ele>348</ele>
        <time>2016-05-08T08:09:50.000Z</time>
      </trkpt>
      <trkpt lat="47.48566" lon="6.68451">
        <ele>348</ele>
        <time>2016-05-08T08:09:51.000Z</time>
      </trkpt>
      <trkpt lat="47.48564" lon="6.68447">
        <ele>348</ele>
        <time>2016-05-08T08:09:52.000Z</time>
      </trkpt>
      <trkpt lat="47.48561" lon="6.68444">
        <ele>348</ele>
        <time>2016-05-08T08:09:53.000Z</time>
      </trkpt>
      <trkpt lat="47.48559" lon="6.6844">
        <ele>348</ele>
        <time>2016-05-08T08:09:54.000Z</time>
      </trkpt>
      <trkpt lat="47.48557" lon="6.68437">
        <ele>348</ele>
        <time>2016-05-08T08:09:55.000Z</time>
      </trkpt>
      <trkpt lat="47.48555" lon="6.68434">
        <ele>348</ele>
        <time>2016-05-08T08:09:56.000Z</time>
      </trkpt>
      <trkpt lat="47.48552" lon="6.68431">
        <ele>348</ele>
        <time>2016-05-08T08:09:58.000Z</time>
      </trkpt>
      <trkpt lat="47.48551" lon="6.6843">
        <ele>348</ele>
        <time>2016-05-08T08:09:59.000Z</time>
      </trkpt>
      <trkpt lat="47.48547" lon="6.68427">
        <ele>348</ele>
        <time>2016-05-08T08:10:01.000Z</time>
      </trkpt>
      <trkpt lat="47.48545" lon="6.68425">
        <ele>348</ele>
        <time>2016-05-08T08:10:02.000Z</time>
      </trkpt>
      <trkpt lat="47.48543" lon="6.68423">
        <ele>348</ele>
        <time>2016-05-08T08:10:03.000Z</time>
      </trkpt>
      <trkpt lat="47.4854" lon="6.6842">
        <ele>348</ele>
        <time>2016-05-08T08:10:04.000Z</time>
      </trkpt>
      <trkpt lat="47.48537" lon="6.68418">
        <ele>348</ele>
        <time>2016-05-08T08:10:05.000Z</time>
      </trkpt>
      <trkpt lat="47.48535" lon="6.68416">
        <ele>348</ele>
        <time>2016-05-08T08:10:06.000Z</time>
      </trkpt>
      <trkpt lat="47.48533" lon="6.68414">
        <ele>348</ele>
        <time>2016-05-08T08:10:07.000Z</time>
      </trkpt>
      <trkpt lat="47.4853" lon="6.68412">
        <ele>348</ele>
        <time>2016-05-08T08:10:08.000Z</time>
      </trkpt>
      <trkpt lat="47.48528" lon="6.6841">
        <ele>348</ele>
        <time>2016-05-08T08:10:09.000Z</time>
      </trkpt>
      <trkpt lat="47.48526" lon="6.68408">
        <ele>348</ele>
        <time>2016-05-08T08:10:10.000Z</time>
      </trkpt>
      <trkpt lat="47.48523" lon="6.68406">
        <ele>348</ele>
        <time>2016-05-08T08:10:11.000Z</time>
      </trkpt>
      <trkpt lat="47.48521" lon="6.68405">
        <ele>348</ele>
        <time>2016-05-08T08:10:12.000Z</time>
      </trkpt>
      <trkpt lat="47.48519" lon="6.68403">
        <ele>348</ele>
        <time>2016-05-08T08:10:13.000Z</time>
      </trkpt>
      <trkpt lat="47.48517" lon="6.68402">
        <ele>348</ele>
        <time>2016-05-08T08:10:14.000Z</time>
      </trkpt>
      <trkpt lat="47.48514" lon="6.684">
        <ele>348</ele>
        <time>2016-05-08T08:10:15.000Z</time>
      </trkpt>
      <trkpt lat="47.48512" lon="6.68399">
        <ele>348</ele>
        <time>2016-05-08T08:10:16.000Z</time>
      </trkpt>
      <trkpt lat="47.4851" lon="6.68397">
        <ele>348</ele>
        <time>2016-05-08T08:10:17.000Z</time>
      </trkpt>
      <trkpt lat="47.48508" lon="6.68396">
        <ele>348</ele>
        <time>2016-05-08T08:10:18.000Z</time>
      </trkpt>
      <trkpt lat="47.48504" lon="6.68395">
        <ele>348</ele>
        <time>2016-05-08T08:10:20.000Z</time>
      </trkpt>
      <trkpt lat="47.48502" lon="6.68393">
        <ele>348</ele>
        <time>2016-05-08T08:10:21.000Z</time>
      </trkpt>
      <trkpt lat="47.48499" lon="6.68388">
        <ele>358</ele>
        <time>2016-05-08T08:10:23.000Z</time>
      </trkpt>
      <trkpt lat="47.48498" lon="6.68385">
        <ele>358</ele>
        <time>2016-05-08T08:10:24.000Z</time>
      </trkpt>
      <trkpt lat="47.48496" lon="6.6838">
        <ele>359</ele>
        <time>2016-05-08T08:10:26.000Z</time>
      </trkpt>
      <trkpt lat="47.48495" lon="6.68378">
        <ele>359</ele>
        <time>2016-05-08T08:10:27.000Z</time>
      </trkpt>
      <trkpt lat="47.48492" lon="6.68374">
        <ele>359</ele>
        <time>2016-05-08T08:10:30.000Z</time>
      </trkpt>
      <trkpt lat="47.48491" lon="6.68373">
        <ele>360</ele>
        <time>2016-05-08T08:10:31.000Z</time>
      </trkpt>
      <trkpt lat="47.48486" lon="6.68375">
        <ele>360</ele>
        <time>2016-05-08T08:10:39.000Z</time>
      </trkpt>
      <trkpt lat="47.48486" lon="6.68375">
        <ele>360</ele>
        <time>2016-05-08T08:10:40.000Z</time>
      </trkpt>
      <trkpt lat="47.48484" lon="6.6838">
        <ele>360</ele>
        <time>2016-05-08T08:10:48.000Z</time>
      </trkpt>
      <trkpt lat="47.48484" lon="6.68382">
        <ele>360</ele>
        <time>2016-05-08T08:10:49.000Z</time>
      </trkpt>
      <trkpt lat="47.48483" lon="6.68388">
        <ele>360</ele>
        <time>2016-05-08T08:10:55.000Z</time>
      </trkpt>
      <trkpt lat="47.48482" lon="6.68389">
        <ele>360</ele>
        <time>2016-05-08T08:10:56.000Z</time>
      </trkpt>
      <trkpt lat="47.48482" lon="6.68395">
        <ele>359</ele>
        <time>2016-05-08T08:11:00.000Z</time>
      </trkpt>
      <trkpt lat="47.48481" lon="6.68397">
        <ele>359</ele>
        <time>2016-05-08T08:11:01.000Z</time>
      </trkpt>
      <trkpt lat="47.48478" lon="6.684">
        <ele>359</ele>
        <time>2016-05-08T08:11:03.000Z</time>
      </trkpt>
      <trkpt lat="47.48477" lon="6.68401">
        <ele>360</ele>
        <time>2016-05-08T08:11:04.000Z</time>
      </trkpt>
      <trkpt lat="47.48473" lon="6.68403">
        <ele>360</ele>
        <time>2016-05-08T08:11:07.000Z</time>
      </trkpt>
      <trkpt lat="47.48473" lon="6.68405">
        <ele>360</ele>
        <time>2016-05-08T08:11:08.000Z</time>
      </trkpt>
      <trkpt lat="47.48471" lon="6.68411">
        <ele>360</ele>
        <time>2016-05-08T08:11:12.000Z</time>
      </trkpt>
      <trkpt lat="47.48471" lon="6.68412">
        <ele>361</ele>
        <time>2016-05-08T08:11:13.000Z</time>
      </trkpt>
      <trkpt lat="47.48469" lon="6.68416">
        <ele>361</ele>
        <time>2016-05-08T08:11:16.000Z</time>
      </trkpt>
      <trkpt lat="47.48468" lon="6.68417">
        <ele>358</ele>
        <time>2016-05-08T08:11:17.000Z</time>
      </trkpt>
      <trkpt lat="47.48466" lon="6.68421">
        <ele>358</ele>
        <time>2016-05-08T08:11:19.000Z</time>
      </trkpt>
      <trkpt lat="47.48464" lon="6.68423">
        <ele>359</ele>
        <time>2016-05-08T08:11:20.000Z</time>
      </trkpt>
      <trkpt lat="47.48461" lon="6.68427">
        <ele>359</ele>
        <time>2016-05-08T08:11:22.000Z</time>
      </trkpt>
      <trkpt lat="47.48459" lon="6.68428">
        <ele>360</ele>
        <time>2016-05-08T08:11:23.000Z</time>
      </trkpt>
      <trkpt lat="47.48457" lon="6.68434">
        <ele>360</ele>
        <time>2016-05-08T08:11:26.000Z</time>
      </trkpt>
      <trkpt lat="47.48456" lon="6.68436">
        <ele>360</ele>
        <time>2016-05-08T08:11:27.000Z</time>
      </trkpt>
      <trkpt lat="47.48454" lon="6.6844">
        <ele>360</ele>
        <time>2016-05-08T08:11:30.000Z</time>
      </trkpt>
      <trkpt lat="47.48453" lon="6.68441">
        <ele>360</ele>
        <time>2016-05-08T08:11:31.000Z</time>
      </trkpt>
      <trkpt lat="47.48451" lon="6.68444">
        <ele>360</ele>
        <time>2016-05-08T08:11:34.000Z</time>
      </trkpt>
      <trkpt lat="47.4845" lon="6.68446">
        <ele>360</ele>
        <time>2016-05-08T08:11:35.000Z</time>
      </trkpt>
      <trkpt lat="47.48447" lon="6.6845">
        <ele>361</ele>
        <time>2016-05-08T08:11:37.000Z</time>
      </trkpt>
      <trkpt lat="47.48445" lon="6.68452">
        <ele>361</ele>
        <time>2016-05-08T08:11:38.000Z</time>
      </trkpt>
      <trkpt lat="47.48443" lon="6.68455">
        <ele>361</ele>
        <time>2016-05-08T08:11:40.000Z</time>
      </trkpt>
      <trkpt lat="47.48442" lon="6.68456">
        <ele>361</ele>
        <time>2016-05-08T08:11:41.000Z</time>
      </trkpt>
      <trkpt lat="47.48439" lon="6.6846">
        <ele>361</ele>
        <time>2016-05-08T08:11:44.000Z</time>
      </trkpt>
      <trkpt lat="47.48439" lon="6.68461">
        <ele>361</ele>
        <time>2016-05-08T08:11:45.000Z</time>
      </trkpt>
      <trkpt lat="47.48437" lon="6.68465">
        <ele>360</ele>
        <time>2016-05-08T08:11:47.000Z</time>
      </trkpt>
      <trkpt lat="47.48435" lon="6.68467">
        <ele>361</ele>
        <time>2016-05-08T08:11:48.000Z</time>
      </trkpt>
      <trkpt lat="47.48432" lon="6.68469">
        <ele>361</ele>
        <time>2016-05-08T08:11:51.000Z</time>
      </trkpt>
      <trkpt lat="47.4843" lon="6.6847">
        <ele>361</ele>
        <time>2016-05-08T08:11:52.000Z</time>
      </trkpt>
      <trkpt lat="47.48427" lon="6.68472">
        <ele>361</ele>
        <time>2016-05-08T08:11:54.000Z</time>
      </trkpt>
      <trkpt lat="47.48425" lon="6.68473">
        <ele>361</ele>
        <time>2016-05-08T08:11:55.000Z</time>
      </trkpt>
      <trkpt lat="47.48422" lon="6.68475">
        <ele>361</ele>
        <time>2016-05-08T08:11:57.000Z</time>
      </trkpt>
      <trkpt lat="47.48421" lon="6.68476">
        <ele>361</ele>
        <time>2016-05-08T08:11:58.000Z</time>
      </trkpt>
      <trkpt lat="47.48417" lon="6.68478">
        <ele>361</ele>
        <time>2016-05-08T08:12:01.000Z</time>
      </trkpt>
      <trkpt lat="47.48416" lon="6.68479">
        <ele>370</ele>
        <time>2016-05-08T08:12:02.000Z</time>
      </trkpt>
      <trkpt lat="47.48412" lon="6.68482">
        <ele>369</ele>
        <time>2016-05-08T08:12:06.000Z</time>
      </trkpt>
      <trkpt lat="47.4841" lon="6.68482">
        <ele>369</ele>
        <time>2016-05-08T08:12:07.000Z</time>
      </trkpt>
      <trkpt lat="47.48407" lon="6.68483">
        <ele>370</ele>
        <time>2016-05-08T08:12:10.000Z</time>
      </trkpt>
      <trkpt lat="47.48406" lon="6.68483">
        <ele>370</ele>
        <time>2016-05-08T08:12:11.000Z</time>
      </trkpt>
      <trkpt lat="47.48402" lon="6.68482">
        <ele>371</ele>
        <time>2016-05-08T08:12:14.000Z</time>
      </trkpt>
      <trkpt lat="47.48401" lon="6.68482">
        <ele>371</ele>
        <time>2016-05-08T08:12:15.000Z</time>
      </trkpt>
      <trkpt lat="47.48397" lon="6.68485">
        <ele>371</ele>
        <time>2016-05-08T08:12:19.000Z</time>
      </trkpt>
      <trkpt lat="47.48396" lon="6.68485">
        <ele>371</ele>
        <time>2016-05-08T08:12:20.000Z</time>
      </trkpt>
      <trkpt lat="47.48392" lon="6.68485">
        <ele>372</ele>
        <time>2016-05-08T08:12:23.000Z</time>
      </trkpt>
      <trkpt lat="47.4839" lon="6.68486">
        <ele>372</ele>
        <time>2016-05-08T08:12:24.000Z</time>
      </trkpt>
      <trkpt lat="47.48386" lon="6.68487">
        <ele>373</ele>
        <time>2016-05-08T08:12:29.000Z</time>
      </trkpt>
      <trkpt lat="47.48385" lon="6.68487">
        <ele>373</ele>
        <time>2016-05-08T08:12:30.000Z</time>
      </trkpt>
      <trkpt lat="47.48382" lon="6.68487">
        <ele>374</ele>
        <time>2016-05-08T08:12:33.000Z</time>
      </trkpt>
      <trkpt lat="47.4838" lon="6.68487">
        <ele>374</ele>
        <time>2016-05-08T08:12:34.000Z</time>
      </trkpt>
      <trkpt lat="47.48376" lon="6.68486">
        <ele>375</ele>
        <time>2016-05-08T08:12:39.000Z</time>
      </trkpt>
      <trkpt lat="47.48376" lon="6.68484">
        <ele>375</ele>
        <time>2016-05-08T08:12:40.000Z</time>
      </trkpt>
      <trkpt lat="47.48374" lon="6.68479">
        <ele>375</ele>
        <time>2016-05-08T08:12:43.000Z</time>
      </trkpt>
      <trkpt lat="47.48373" lon="6.68479">
        <ele>376</ele>
        <time>2016-05-08T08:12:44.000Z</time>
      </trkpt>
      <trkpt lat="47.48369" lon="6.68479">
        <ele>376</ele>
        <time>2016-05-08T08:12:46.000Z</time>
      </trkpt>
      <trkpt lat="47.48367" lon="6.68479">
        <ele>376</ele>
        <time>2016-05-08T08:12:47.000Z</time>
      </trkpt>
      <trkpt lat="47.48363" lon="6.6848">
        <ele>377</ele>
        <time>2016-05-08T08:12:49.000Z</time>
      </trkpt>
      <trkpt lat="47.48361" lon="6.6848">
        <ele>377</ele>
        <time>2016-05-08T08:12:50.000Z</time>
      </trkpt>
      <trkpt lat="47.48357" lon="6.68479">
        <ele>377</ele>
        <time>2016-05-08T08:12:53.000Z</time>
      </trkpt>
      <trkpt lat="47.48356" lon="6.68478">
        <ele>378</ele>
        <time>2016-05-08T08:12:54.000Z</time>
      </trkpt>
      <trkpt lat="47.48352" lon="6.68475">
        <ele>378</ele>
        <time>2016-05-08T08:12:57.000Z</time>
      </trkpt>
      <trkpt lat="47.48351" lon="6.68473">
        <ele>378</ele>
        <time>2016-05-08T08:12:58.000Z</time>
      </trkpt>
      <trkpt lat="47.48348" lon="6.6847">
        <ele>379</ele>
        <time>2016-05-08T08:13:01.000Z</time>
      </trkpt>
      <trkpt lat="47.48348" lon="6.68469">
        <ele>379</ele>
        <time>2016-05-08T08:13:02.000Z</time>
      </trkpt>
      <trkpt lat="47.48347" lon="6.68463">
        <ele>379</ele>
        <time>2016-05-08T08:13:11.000Z</time>
      </trkpt>
      <trkpt lat="47.48347" lon="6.68462">
        <ele>379</ele>
        <time>2016-05-08T08:13:12.000Z</time>
      </trkpt>
      <trkpt lat="47.4835" lon="6.6846">
        <ele>379</ele>
        <time>2016-05-08T08:17:03.000Z</time>
      </trkpt>
      <trkpt lat="47.48351" lon="6.68459">
        <ele>379</ele>
        <time>2016-05-08T08:17:04.000Z</time>
      </trkpt>
      <trkpt lat="47.4835" lon="6.68454">
        <ele>380</ele>
        <time>2016-05-08T08:17:28.000Z</time>
      </trkpt>
      <trkpt lat="47.48351" lon="6.68452">
        <ele>380</ele>
        <time>2016-05-08T08:17:29.000Z</time>
      </trkpt>
      <trkpt lat="47.48352" lon="6.68447">
        <ele>381</ele>
        <time>2016-05-08T08:17:31.000Z</time>
      </trkpt>
      <trkpt lat="47.48353" lon="6.68444">
        <ele>381</ele>
        <time>2016-05-08T08:17:32.000Z</time>
      </trkpt>
      <trkpt lat="47.48353" lon="6.68439">
        <ele>382</ele>
        <time>2016-05-08T08:17:34.000Z</time>
      </trkpt>
      <trkpt lat="47.48353" lon="6.68436">
        <ele>382</ele>
        <time>2016-05-08T08:17:35.000Z</time>
      </trkpt>
      <trkpt lat="47.48353" lon="6.68431">
        <ele>383</ele>
        <time>2016-05-08T08:17:37.000Z</time>
      </trkpt>
      <trkpt lat="47.48353" lon="6.68428">
        <ele>383</ele>
        <time>2016-05-08T08:17:38.000Z</time>
      </trkpt>
      <trkpt lat="47.48353" lon="6.68421">
        <ele>384</ele>
        <time>2016-05-08T08:17:40.000Z</time>
      </trkpt>
      <trkpt lat="47.48353" lon="6.68418">
        <ele>384</ele>
        <time>2016-05-08T08:17:41.000Z</time>
      </trkpt>
      <trkpt lat="47.48354" lon="6.68411">
        <ele>390</ele>
        <time>2016-05-08T08:17:43.000Z</time>
      </trkpt>
      <trkpt lat="47.48354" lon="6.68409">
        <ele>390</ele>
        <time>2016-05-08T08:17:44.000Z</time>
      </trkpt>
      <trkpt lat="47.48355" lon="6.68403">
        <ele>389</ele>
        <time>2016-05-08T08:17:46.000Z</time>
      </trkpt>
      <trkpt lat="47.48355" lon="6.684">
        <ele>389</ele>
        <time>2016-05-08T08:17:47.000Z</time>
      </trkpt>
      <trkpt lat="47.48357" lon="6.68395">
        <ele>389</ele>
        <time>2016-05-08T08:17:49.000Z</time>
      </trkpt>
      <trkpt lat="47.48358" lon="6.68393">
        <ele>389</ele>
        <time>2016-05-08T08:17:50.000Z</time>
      </trkpt>
      <trkpt lat="47.4836" lon="6.68389">
        <ele>389</ele>
        <time>2016-05-08T08:17:53.000Z</time>
      </trkpt>
      <trkpt lat="47.48361" lon="6.68387">
        <ele>389</ele>
        <time>2016-05-08T08:17:54.000Z</time>
      </trkpt>
      <trkpt lat="47.4836" lon="6.68381">
        <ele>389</ele>
        <time>2016-05-08T08:17:57.000Z</time>
      </trkpt>
      <trkpt lat="47.4836" lon="6.68379">
        <ele>389</ele>
        <time>2016-05-08T08:17:58.000Z</time>
      </trkpt>
      <trkpt lat="47.48358" lon="6.68373">
        <ele>390</ele>
        <time>2016-05-08T08:18:01.000Z</time>
      </trkpt>
      <trkpt lat="47.48358" lon="6.68371">
        <ele>390</ele>
        <time>2016-05-08T08:18:02.000Z</time>
      </trkpt>
      <trkpt lat="47.48358" lon="6.68367">
        <ele>390</ele>
        <time>2016-05-08T08:18:04.000Z</time>
      </trkpt>
      <trkpt lat="47.48359" lon="6.68364">
        <ele>390</ele>
        <time>2016-05-08T08:18:05.000Z</time>
      </trkpt>
      <trkpt lat="47.4836" lon="6.68359">
        <ele>390</ele>
        <time>2016-05-08T08:18:07.000Z</time>
      </trkpt>
      <trkpt lat="47.48361" lon="6.68356">
        <ele>391</ele>
        <time>2016-05-08T08:18:08.000Z</time>
      </trkpt>
      <trkpt lat="47.48362" lon="6.68353">
        <ele>391</ele>
        <time>2016-05-08T08:18:09.000Z</time>
      </trkpt>
      <trkpt lat="47.48363" lon="6.68349">
        <ele>391</ele>
        <time>2016-05-08T08:18:10.000Z</time>
      </trkpt>
      <trkpt lat="47.48364" lon="6.68344">
        <ele>391</ele>
        <time>2016-05-08T08:18:12.000Z</time>
      </trkpt>
      <trkpt lat="47.48365" lon="6.68341">
        <ele>391</ele>
        <time>2016-05-08T08:18:13.000Z</time>
      </trkpt>
      <trkpt lat="47.48367" lon="6.68338">
        <ele>391</ele>
        <time>2016-05-08T08:18:14.000Z</time>
      </trkpt>
      <trkpt lat="47.48369" lon="6.68336">
        <ele>390</ele>
        <time>2016-05-08T08:18:15.000Z</time>
      </trkpt>
      <trkpt lat="47.48371" lon="6.68331">
        <ele>394</ele>
        <time>2016-05-08T08:18:17.000Z</time>
      </trkpt>
      <trkpt lat="47.48371" lon="6.68328">
        <ele>394</ele>
        <time>2016-05-08T08:18:18.000Z</time>
      </trkpt>
      <trkpt lat="47.48371" lon="6.68323">
        <ele>394</ele>
        <time>2016-05-08T08:18:20.000Z</time>
      </trkpt>
      <trkpt lat="47.48372" lon="6.6832">
        <ele>394</ele>
        <time>2016-05-08T08:18:21.000Z</time>
      </trkpt>
      <trkpt lat="47.48372" lon="6.68316">
        <ele>394</ele>
        <time>2016-05-08T08:18:23.000Z</time>
      </trkpt>
      <trkpt lat="47.48372" lon="6.68313">
        <ele>394</ele>
        <time>2016-05-08T08:18:24.000Z</time>
      </trkpt>
      <trkpt lat="47.48372" lon="6.68307">
        <ele>394</ele>
        <time>2016-05-08T08:18:27.000Z</time>
      </trkpt>
      <trkpt lat="47.48372" lon="6.68305">
        <ele>394</ele>
        <time>2016-05-08T08:18:28.000Z</time>
      </trkpt>
      <trkpt lat="47.48373" lon="6.68299">
        <ele>394</ele>
        <time>2016-05-08T08:18:30.000Z</time>
      </trkpt>
      <trkpt lat="47.48373" lon="6.68297">
        <ele>394</ele>
        <time>2016-05-08T08:18:31.000Z</time>
      </trkpt>
      <trkpt lat="47.48373" lon="6.68291">
        <ele>394</ele>
        <time>2016-05-08T08:18:34.000Z</time>
      </trkpt>
      <trkpt lat="47.48373" lon="6.6829">
        <ele>395</ele>
        <time>2016-05-08T08:18:35.000Z</time>
      </trkpt>
      <trkpt lat="47.48371" lon="6.68285">
        <ele>395</ele>
        <time>2016-05-08T08:18:37.000Z</time>
      </trkpt>
      <trkpt lat="47.48371" lon="6.68283">
        <ele>395</ele>
        <time>2016-05-08T08:18:38.000Z</time>
      </trkpt>
      <trkpt lat="47.48372" lon="6.68278">
        <ele>395</ele>
        <time>2016-05-08T08:18:40.000Z</time>
      </trkpt>
      <trkpt lat="47.48372" lon="6.68276">
        <ele>395</ele>
        <time>2016-05-08T08:18:41.000Z</time>
      </trkpt>
      <trkpt lat="47.48373" lon="6.6827">
        <ele>395</ele>
        <time>2016-05-08T08:18:44.000Z</time>
      </trkpt>
      <trkpt lat="47.48373" lon="6.68269">
        <ele>395</ele>
        <time>2016-05-08T08:18:45.000Z</time>
      </trkpt>
      <trkpt lat="47.48371" lon="6.68264">
        <ele>395</ele>
        <time>2016-05-08T08:18:49.000Z</time>
      </trkpt>
      <trkpt lat="47.4837" lon="6.68263">
        <ele>396</ele>
        <time>2016-05-08T08:18:50.000Z</time>
      </trkpt>
      <trkpt lat="47.48367" lon="6.68258">
        <ele>396</ele>
        <time>2016-05-08T08:18:54.000Z</time>
      </trkpt>
      <trkpt lat="47.48367" lon="6.68257">
        <ele>396</ele>
        <time>2016-05-08T08:18:55.000Z</time>
      </trkpt>
      <trkpt lat="47.48365" lon="6.68252">
        <ele>397</ele>
        <time>2016-05-08T08:19:00.000Z</time>
      </trkpt>
      <trkpt lat="47.48364" lon="6.68251">
        <ele>397</ele>
        <time>2016-05-08T08:19:01.000Z</time>
      </trkpt>
      <trkpt lat="47.48362" lon="6.68247">
        <ele>400</ele>
        <time>2016-05-08T08:19:04.000Z</time>
      </trkpt>
      <trkpt lat="47.48362" lon="6.68245">
        <ele>400</ele>
        <time>2016-05-08T08:19:05.000Z</time>
      </trkpt>
      <trkpt lat="47.48362" lon="6.68238">
        <ele>400</ele>
        <time>2016-05-08T08:19:08.000Z</time>
      </trkpt>
      <trkpt lat="47.48361" lon="6.68236">
        <ele>400</ele>
        <time>2016-05-08T08:19:09.000Z</time>
      </trkpt>
      <trkpt lat="47.48359" lon="6.68233">
        <ele>400</ele>
        <time>2016-05-08T08:19:11.000Z</time>
      </trkpt>
      <trkpt lat="47.48358" lon="6.6823">
        <ele>400</ele>
        <time>2016-05-08T08:19:12.000Z</time>
      </trkpt>
      <trkpt lat="47.48356" lon="6.68224">
        <ele>400</ele>
        <time>2016-05-08T08:19:14.000Z</time>
      </trkpt>
      <trkpt lat="47.48356" lon="6.68221">
        <ele>400</ele>
        <time>2016-05-08T08:19:15.000Z</time>
      </trkpt>
      <trkpt lat="47.48354" lon="6.68216">
        <ele>400</ele>
        <time>2016-05-08T08:19:17.000Z</time>
      </trkpt>
      <trkpt lat="47.48354" lon="6.68213">
        <ele>400</ele>
        <time>2016-05-08T08:19:18.000Z</time>
      </trkpt>
      <trkpt lat="47.48353" lon="6.68207">
        <ele>401</ele>
        <time>2016-05-08T08:19:21.000Z</time>
      </trkpt>
      <trkpt lat="47.48352" lon="6.68205">
        <ele>401</ele>
        <time>2016-05-08T08:19:22.000Z</time>
      </trkpt>
      <trkpt lat="47.48351" lon="6.682">
        <ele>401</ele>
        <time>2016-05-08T08:19:24.000Z</time>
      </trkpt>
      <trkpt lat="47.48351" lon="6.68198">
        <ele>401</ele>
        <time>2016-05-08T08:19:25.000Z</time>
      </trkpt>
      <trkpt lat="47.4835" lon="6.68192">
        <ele>402</ele>
        <time>2016-05-08T08:19:27.000Z</time>
      </trkpt>
      <trkpt lat="47.4835" lon="6.68189">
        <ele>402</ele>
        <time>2016-05-08T08:19:28.000Z</time>
      </trkpt>
      <trkpt lat="47.48351" lon="6.68183">
        <ele>402</ele>
        <time>2016-05-08T08:19:30.000Z</time>
      </trkpt>
      <trkpt lat="47.48351" lon="6.68181">
        <ele>402</ele>
        <time>2016-05-08T08:19:31.000Z</time>
      </trkpt>
      <trkpt lat="47.48352" lon="6.68176">
        <ele>403</ele>
        <time>2016-05-08T08:19:33.000Z</time>
      </trkpt>
      <trkpt lat="47.48352" lon="6.68173">
        <ele>403</ele>
        <time>2016-05-08T08:19:34.000Z</time>
      </trkpt>
      <trkpt lat="47.48352" lon="6.68168">
        <ele>403</ele>
        <time>2016-05-08T08:19:36.000Z</time>
      </trkpt>
      <trkpt lat="47.48352" lon="6.68165">
        <ele>406</ele>
        <time>2016-05-08T08:19:37.000Z</time>
      </trkpt>
      <trkpt lat="47.4835" lon="6.68161">
        <ele>407</ele>
        <time>2016-05-08T08:19:39.000Z</time>
      </trkpt>
      <trkpt lat="47.4835" lon="6.68159">
        <ele>407</ele>
        <time>2016-05-08T08:19:40.000Z</time>
      </trkpt>
      <trkpt lat="47.4835" lon="6.68154">
        <ele>407</ele>
        <time>2016-05-08T08:19:42.000Z</time>
      </trkpt>
      <trkpt lat="47.4835" lon="6.68152">
        <ele>407</ele>
        <time>2016-05-08T08:19:43.000Z</time>
      </trkpt>
      <trkpt lat="47.48351" lon="6.68146">
        <ele>407</ele>
        <time>2016-05-08T08:19:45.000Z</time>
      </trkpt>
      <trkpt lat="47.48352" lon="6.68144">
        <ele>407</ele>
        <time>2016-05-08T08:19:46.000Z</time>
      </trkpt>
      <trkpt lat="47.48353" lon="6.68139">
        <ele>407</ele>
        <time>2016-05-08T08:19:49.000Z</time>
      </trkpt>
      <trkpt lat="47.48353" lon="6.68137">
        <ele>407</ele>
        <time>2016-05-08T08:19:50.000Z</time>
      </trkpt>
      <trkpt lat="47.48355" lon="6.68132">
        <ele>407</ele>
        <time>2016-05-08T08:19:53.000Z</time>
      </trkpt>
      <trkpt lat="47.48355" lon="6.6813">
        <ele>407</ele>
        <time>2016-05-08T08:19:54.000Z</time>
      </trkpt>
      <trkpt lat="47.48357" lon="6.68125">
        <ele>407</ele>
        <time>2016-05-08T08:19:57.000Z</time>
      </trkpt>
      <trkpt lat="47.48357" lon="6.68123">
        <ele>407</ele>
        <time>2016-05-08T08:19:58.000Z</time>
      </trkpt>
      <trkpt lat="47.48358" lon="6.68118">
        <ele>407</ele>
        <time>2016-05-08T08:20:01.000Z</time>
      </trkpt>
      <trkpt lat="47.48359" lon="6.68116">
        <ele>408</ele>
        <time>2016-05-08T08:20:02.000Z</time>
      </trkpt>
      <trkpt lat="47.4836" lon="6.68112">
        <ele>408</ele>
        <time>2016-05-08T08:20:05.000Z</time>
      </trkpt>
      <trkpt lat="47.4836" lon="6.6811">
        <ele>408</ele>
        <time>2016-05-08T08:20:06.000Z</time>
      </trkpt>
      <trkpt lat="47.48361" lon="6.68105">
        <ele>408</ele>
        <time>2016-05-08T08:20:08.000Z</time>
      </trkpt>
      <trkpt lat="47.48362" lon="6.68103">
        <ele>408</ele>
        <time>2016-05-08T08:20:09.000Z</time>
      </trkpt>
      <trkpt lat="47.48364" lon="6.68098">
        <ele>408</ele>
        <time>2016-05-08T08:20:11.000Z</time>
      </trkpt>
      <trkpt lat="47.48364" lon="6.68096">
        <ele>408</ele>
        <time>2016-05-08T08:20:12.000Z</time>
      </trkpt>
      <trkpt lat="47.48365" lon="6.6809">
        <ele>409</ele>
        <time>2016-05-08T08:20:15.000Z</time>
      </trkpt>
      <trkpt lat="47.48365" lon="6.68088">
        <ele>409</ele>
        <time>2016-05-08T08:20:16.000Z</time>
      </trkpt>
      <trkpt lat="47.48366" lon="6.68083">
        <ele>415</ele>
        <time>2016-05-08T08:20:19.000Z</time>
      </trkpt>
      <trkpt lat="47.48366" lon="6.68081">
        <ele>415</ele>
        <time>2016-05-08T08:20:20.000Z</time>
      </trkpt>
      <trkpt lat="47.48365" lon="6.68076">
        <ele>415</ele>
        <time>2016-05-08T08:21:08.000Z</time>
      </trkpt>
      <trkpt lat="47.48362" lon="6.68075">
        <ele>415</ele>
        <time>2016-05-08T08:21:09.000Z</time>
      </trkpt>
      <trkpt lat="47.48361" lon="6.68075">
        <ele>415</ele>
        <time>2016-05-08T08:21:10.000Z</time>
      </trkpt>
      <trkpt lat="47.48358" lon="6.68075">
        <ele>415</ele>
        <time>2016-05-08T08:21:11.000Z</time>
      </trkpt>
      <trkpt lat="47.48355" lon="6.68074">
        <ele>415</ele>
        <time>2016-05-08T08:21:12.000Z</time>
      </trkpt>
      <trkpt lat="47.48353" lon="6.68074">
        <ele>415</ele>
        <time>2016-05-08T08:21:13.000Z</time>
      </trkpt>
      <trkpt lat="47.4835" lon="6.68073">
        <ele>415</ele>
        <time>2016-05-08T08:21:14.000Z</time>
      </trkpt>
      <trkpt lat="47.48347" lon="6.68072">
        <ele>415</ele>
        <time>2016-05-08T08:21:15.000Z</time>
      </trkpt>
      <trkpt lat="47.48344" lon="6.68071">
        <ele>415</ele>
        <time>2016-05-08T08:21:16.000Z</time>
      </trkpt>
      <trkpt lat="47.48341" lon="6.6807">
        <ele>415</ele>
        <time>2016-05-08T08:21:17.000Z</time>
      </trkpt>
      <trkpt lat="47.48337" lon="6.68068">
        <ele>416</ele>
        <time>2016-05-08T08:21:18.000Z</time>
      </trkpt>
      <trkpt lat="47.48333" lon="6.68066">
        <ele>416</ele>
        <time>2016-05-08T08:21:19.000Z</time>
      </trkpt>
      <trkpt lat="47.48329" lon="6.68064">
        <ele>416</ele>
        <time>2016-05-08T08:21:20.000Z</time>
      </trkpt>
      <trkpt lat="47.48324" lon="6.68062">
        <ele>416</ele>
        <time>2016-05-08T08:21:21.000Z</time>
      </trkpt>
      <trkpt lat="47.48319" lon="6.6806">
        <ele>416</ele>
        <time>2016-05-08T08:21:22.000Z</time>
      </trkpt>
      <trkpt lat="47.48314" lon="6.68056">
        <ele>416</ele>
        <time>2016-05-08T08:21:23.000Z</time>
      </trkpt>
      <trkpt lat="47.48308" lon="6.68053">
        <ele>416</ele>
        <time>2016-05-08T08:21:24.000Z</time>
      </trkpt>
      <trkpt lat="47.48293" lon="6.68041">
        <ele>417</ele>
        <time>2016-05-08T08:21:25.000Z</time>
      </trkpt>
      <trkpt lat="47.48288" lon="6.68037">
        <ele>417</ele>
        <time>2016-05-08T08:21:26.000Z</time>
      </trkpt>
      <trkpt lat="47.48284" lon="6.68032">
        <ele>417</ele>
        <time>2016-05-08T08:21:27.000Z</time>
      </trkpt>
      <trkpt lat="47.4828" lon="6.6803">
        <ele>417</ele>
        <time>2016-05-08T08:21:28.000Z</time>
      </trkpt>
      <trkpt lat="47.48275" lon="6.68027">
        <ele>417</ele>
        <time>2016-05-08T08:21:29.000Z</time>
      </trkpt>
      <trkpt lat="47.48269" lon="6.68023">
        <ele>417</ele>
        <time>2016-05-08T08:21:30.000Z</time>
      </trkpt>
      <trkpt lat="47.48263" lon="6.68024">
        <ele>417</ele>
        <time>2016-05-08T08:21:31.000Z</time>
      </trkpt>
      <trkpt lat="47.48258" lon="6.68022">
        <ele>417</ele>
        <time>2016-05-08T08:21:32.000Z</time>
      </trkpt>
      <trkpt lat="47.48252" lon="6.68019">
        <ele>417</ele>
        <time>2016-05-08T08:21:33.000Z</time>
      </trkpt>
      <trkpt lat="47.48246" lon="6.68019">
        <ele>416</ele>
        <time>2016-05-08T08:21:34.000Z</time>
      </trkpt>
      <trkpt lat="47.48243" lon="6.6802">
        <ele>416</ele>
        <time>2016-05-08T08:21:35.000Z</time>
      </trkpt>
      <trkpt lat="47.48235" lon="6.68019">
        <ele>416</ele>
        <time>2016-05-08T08:21:36.000Z</time>
      </trkpt>
      <trkpt lat="47.48229" lon="6.68016">
        <ele>416</ele>
        <time>2016-05-08T08:21:37.000Z</time>
      </trkpt>
      <trkpt lat="47.48224" lon="6.68012">
        <ele>416</ele>
        <time>2016-05-08T08:21:38.000Z</time>
      </trkpt>
      <trkpt lat="47.48219" lon="6.68011">
        <ele>415</ele>
        <time>2016-05-08T08:21:39.000Z</time>
      </trkpt>
      <trkpt lat="47.48212" lon="6.68008">
        <ele>415</ele>
        <time>2016-05-08T08:21:40.000Z</time>
      </trkpt>
      <trkpt lat="47.48207" lon="6.68004">
        <ele>415</ele>
        <time>2016-05-08T08:21:41.000Z</time>
      </trkpt>
      <trkpt lat="47.48203" lon="6.68002">
        <ele>415</ele>
        <time>2016-05-08T08:21:42.000Z</time>
      </trkpt>
      <trkpt lat="47.48198" lon="6.67999">
        <ele>416</ele>
        <time>2016-05-08T08:21:43.000Z</time>
      </trkpt>
      <trkpt lat="47.48193" lon="6.67998">
        <ele>416</ele>
        <time>2016-05-08T08:21:44.000Z</time>
      </trkpt>
      <trkpt lat="47.48189" lon="6.67995">
        <ele>416</ele>
        <time>2016-05-08T08:21:45.000Z</time>
      </trkpt>
      <trkpt lat="47.48185" lon="6.67992">
        <ele>416</ele>
        <time>2016-05-08T08:21:46.000Z</time>
      </trkpt>
      <trkpt lat="47.48181" lon="6.67989">
        <ele>415</ele>
        <time>2016-05-08T08:21:47.000Z</time>
      </trkpt>
      <trkpt lat="47.48176" lon="6.67987">
        <ele>415</ele>
        <time>2016-05-08T08:21:48.000Z</time>
      </trkpt>
      <trkpt lat="47.48172" lon="6.67984">
        <ele>415</ele>
        <time>2016-05-08T08:21:49.000Z</time>
      </trkpt>
      <trkpt lat="47.48168" lon="6.67982">
        <ele>415</ele>
        <time>2016-05-08T08:21:50.000Z</time>
      </trkpt>
      <trkpt lat="47.48165" lon="6.67979">
        <ele>412</ele>
        <time>2016-05-08T08:21:51.000Z</time>
      </trkpt>
      <trkpt lat="47.48161" lon="6.67977">
        <ele>412</ele>
        <time>2016-05-08T08:21:52.000Z</time>
      </trkpt>
      <trkpt lat="47.48157" lon="6.67975">
        <ele>412</ele>
        <time>2016-05-08T08:21:53.000Z</time>
      </trkpt>
      <trkpt lat="47.48154" lon="6.67973">
        <ele>412</ele>
        <time>2016-05-08T08:21:54.000Z</time>
      </trkpt>
      <trkpt lat="47.4815" lon="6.67971">
        <ele>411</ele>
        <time>2016-05-08T08:21:55.000Z</time>
      </trkpt>
      <trkpt lat="47.48146" lon="6.67969">
        <ele>411</ele>
        <time>2016-05-08T08:21:56.000Z</time>
      </trkpt>
      <trkpt lat="47.48142" lon="6.67966">
        <ele>411</ele>
        <time>2016-05-08T08:21:57.000Z</time>
      </trkpt>
      <trkpt lat="47.48138" lon="6.67961">
        <ele>411</ele>
        <time>2016-05-08T08:21:58.000Z</time>
      </trkpt>
      <trkpt lat="47.48133" lon="6.67956">
        <ele>410</ele>
        <time>2016-05-08T08:21:59.000Z</time>
      </trkpt>
      <trkpt lat="47.48129" lon="6.67951">
        <ele>410</ele>
        <time>2016-05-08T08:22:00.000Z</time>
      </trkpt>
      <trkpt lat="47.48125" lon="6.67945">
        <ele>410</ele>
        <time>2016-05-08T08:22:01.000Z</time>
      </trkpt>
      <trkpt lat="47.48121" lon="6.6794">
        <ele>410</ele>
        <time>2016-05-08T08:22:02.000Z</time>
      </trkpt>
      <trkpt lat="47.48118" lon="6.67936">
        <ele>409</ele>
        <time>2016-05-08T08:22:03.000Z</time>
      </trkpt>
      <trkpt lat="47.48115" lon="6.67932">
        <ele>409</ele>
        <time>2016-05-08T08:22:04.000Z</time>
      </trkpt>
      <trkpt lat="47.48113" lon="6.67929">
        <ele>409</ele>
        <time>2016-05-08T08:22:05.000Z</time>
      </trkpt>
      <trkpt lat="47.48111" lon="6.67927">
        <ele>409</ele>
        <time>2016-05-08T08:22:06.000Z</time>
      </trkpt>
      <trkpt lat="47.48108" lon="6.67926">
        <ele>408</ele>
        <time>2016-05-08T08:22:07.000Z</time>
      </trkpt>
      <trkpt lat="47.48103" lon="6.67926">
        <ele>408</ele>
        <time>2016-05-08T08:22:08.000Z</time>
      </trkpt>
      <trkpt lat="47.48098" lon="6.67926">
        <ele>408</ele>
        <time>2016-05-08T08:22:09.000Z</time>
      </trkpt>
      <trkpt lat="47.48093" lon="6.67928">
        <ele>407</ele>
        <time>2016-05-08T08:22:10.000Z</time>
      </trkpt>
      <trkpt lat="47.48088" lon="6.6793">
        <ele>407</ele>
        <time>2016-05-08T08:22:11.000Z</time>
      </trkpt>
      <trkpt lat="47.48078" lon="6.67937">
        <ele>404</ele>
        <time>2016-05-08T08:22:12.000Z</time>
      </trkpt>
      <trkpt lat="47.48075" lon="6.67941">
        <ele>404</ele>
        <time>2016-05-08T08:22:13.000Z</time>
      </trkpt>
      <trkpt lat="47.48072" lon="6.67944">
        <ele>404</ele>
        <time>2016-05-08T08:22:14.000Z</time>
      </trkpt>
      <trkpt lat="47.48069" lon="6.67948">
        <ele>403</ele>
        <time>2016-05-08T08:22:15.000Z</time>
      </trkpt>
      <trkpt lat="47.48067" lon="6.67951">
        <ele>403</ele>
        <time>2016-05-08T08:22:16.000Z</time>
      </trkpt>
      <trkpt lat="47.48066" lon="6.67955">
        <ele>403</ele>
        <time>2016-05-08T08:22:17.000Z</time>
      </trkpt>
      <trkpt lat="47.48063" lon="6.67958">
        <ele>403</ele>
        <time>2016-05-08T08:22:18.000Z</time>
      </trkpt>
      <trkpt lat="47.4806" lon="6.67961">
        <ele>403</ele>
        <time>2016-05-08T08:22:19.000Z</time>
      </trkpt>
      <trkpt lat="47.48058" lon="6.67961">
        <ele>403</ele>
        <time>2016-05-08T08:22:20.000Z</time>
      </trkpt>
      <trkpt lat="47.48056" lon="6.67964">
        <ele>403</ele>
        <time>2016-05-08T08:22:21.000Z</time>
      </trkpt>
      <trkpt lat="47.48054" lon="6.67966">
        <ele>403</ele>
        <time>2016-05-08T08:22:22.000Z</time>
      </trkpt>
      <trkpt lat="47.48052" lon="6.67969">
        <ele>403</ele>
        <time>2016-05-08T08:22:24.000Z</time>
      </trkpt>
      <trkpt lat="47.48051" lon="6.67971">
        <ele>403</ele>
        <time>2016-05-08T08:22:25.000Z</time>
      </trkpt>
      <trkpt lat="47.48051" lon="6.67976">
        <ele>403</ele>
        <time>2016-05-08T08:22:27.000Z</time>
      </trkpt>
      <trkpt lat="47.48052" lon="6.67979">
        <ele>403</ele>
        <time>2016-05-08T08:22:28.000Z</time>
      </trkpt>
      <trkpt lat="47.48051" lon="6.67984">
        <ele>404</ele>
        <time>2016-05-08T08:22:30.000Z</time>
      </trkpt>
      <trkpt lat="47.4805" lon="6.67987">
        <ele>404</ele>
        <time>2016-05-08T08:22:31.000Z</time>
      </trkpt>
      <trkpt lat="47.48048" lon="6.67993">
        <ele>404</ele>
        <time>2016-05-08T08:22:33.000Z</time>
      </trkpt>
      <trkpt lat="47.48048" lon="6.67996">
        <ele>403</ele>
        <time>2016-05-08T08:22:34.000Z</time>
      </trkpt>
      <trkpt lat="47.48047" lon="6.68001">
        <ele>404</ele>
        <time>2016-05-08T08:22:35.000Z</time>
      </trkpt>
      <trkpt lat="47.48046" lon="6.68005">
        <ele>404</ele>
        <time>2016-05-08T08:22:36.000Z</time>
      </trkpt>
      <trkpt lat="47.48044" lon="6.6801">
        <ele>404</ele>
        <time>2016-05-08T08:22:37.000Z</time>
      </trkpt>
      <trkpt lat="47.48044" lon="6.68016">
        <ele>404</ele>
        <time>2016-05-08T08:22:38.000Z</time>
      </trkpt>
      <trkpt lat="47.48043" lon="6.68022">
        <ele>404</ele>
        <time>2016-05-08T08:22:39.000Z</time>
      </trkpt>
      <trkpt lat="47.48042" lon="6.68028">
        <ele>403</ele>
        <time>2016-05-08T08:22:40.000Z</time>
      </trkpt>
      <trkpt lat="47.48041" lon="6.68036">
        <ele>403</ele>
        <time>2016-05-08T08:22:41.000Z</time>
      </trkpt>
      <trkpt lat="47.48038" lon="6.68054">
        <ele>403</ele>
        <time>2016-05-08T08:22:42.000Z</time>
      </trkpt>
      <trkpt lat="47.48034" lon="6.68066">
        <ele>402</ele>
        <time>2016-05-08T08:22:43.000Z</time>
      </trkpt>
      <trkpt lat="47.4803" lon="6.68077">
        <ele>401</ele>
        <time>2016-05-08T08:22:44.000Z</time>
      </trkpt>
      <trkpt lat="47.48029" lon="6.6809">
        <ele>398</ele>
        <time>2016-05-08T08:22:45.000Z</time>
      </trkpt>
      <trkpt lat="47.4803" lon="6.68101">
        <ele>398</ele>
        <time>2016-05-08T08:22:46.000Z</time>
      </trkpt>
      <trkpt lat="47.48031" lon="6.68115">
        <ele>398</ele>
        <time>2016-05-08T08:22:47.000Z</time>
      </trkpt>
      <trkpt lat="47.48031" lon="6.68131">
        <ele>398</ele>
        <time>2016-05-08T08:22:48.000Z</time>
      </trkpt>
      <trkpt lat="47.48032" lon="6.68147">
        <ele>397</ele>
        <time>2016-05-08T08:22:49.000Z</time>
      </trkpt>
      <trkpt lat="47.48033" lon="6.68162">
        <ele>396</ele>
        <time>2016-05-08T08:22:50.000Z</time>
      </trkpt>
      <trkpt lat="47.48036" lon="6.68175">
        <ele>391</ele>
        <time>2016-05-08T08:22:51.000Z</time>
      </trkpt>
      <trkpt lat="47.48037" lon="6.68191">
        <ele>391</ele>
        <time>2016-05-08T08:22:52.000Z</time>
      </trkpt>
      <trkpt lat="47.48038" lon="6.68207">
        <ele>390</ele>
        <time>2016-05-08T08:22:53.000Z</time>
      </trkpt>
      <trkpt lat="47.48038" lon="6.68222">
        <ele>389</ele>
        <time>2016-05-08T08:22:54.000Z</time>
      </trkpt>
      <trkpt lat="47.48037" lon="6.6824">
        <ele>389</ele>
        <time>2016-05-08T08:22:55.000Z</time>
      </trkpt>
      <trkpt lat="47.48034" lon="6.68257">
        <ele>382</ele>
        <time>2016-05-08T08:22:56.000Z</time>
      </trkpt>
      <trkpt lat="47.48033" lon="6.68271">
        <ele>382</ele>
        <time>2016-05-08T08:22:57.000Z</time>
      </trkpt>
      <trkpt lat="47.48029" lon="6.68286">
        <ele>381</ele>
        <time>2016-05-08T08:22:58.000Z</time>
      </trkpt>
      <trkpt lat="47.48018" lon="6.68302">
        <ele>379</ele>
        <time>2016-05-08T08:22:59.000Z</time>
      </trkpt>
      <trkpt lat="47.48012" lon="6.68315">
        <ele>377</ele>
        <time>2016-05-08T08:23:00.000Z</time>
      </trkpt>
      <trkpt lat="47.48009" lon="6.68325">
        <ele>376</ele>
        <time>2016-05-08T08:23:01.000Z</time>
      </trkpt>
      <trkpt lat="47.48007" lon="6.68332">
        <ele>374</ele>
        <time>2016-05-08T08:23:02.000Z</time>
      </trkpt>
      <trkpt lat="47.48003" lon="6.68337">
        <ele>372</ele>
        <time>2016-05-08T08:23:03.000Z</time>
      </trkpt>
      <trkpt lat="47.48002" lon="6.68344">
        <ele>372</ele>
        <time>2016-05-08T08:23:04.000Z</time>
      </trkpt>
      <trkpt lat="47.47999" lon="6.68347">
        <ele>370</ele>
        <time>2016-05-08T08:23:05.000Z</time>
      </trkpt>
      <trkpt lat="47.47997" lon="6.68349">
        <ele>369</ele>
        <time>2016-05-08T08:23:06.000Z</time>
      </trkpt>
      <trkpt lat="47.47993" lon="6.68354">
        <ele>368</ele>
        <time>2016-05-08T08:23:07.000Z</time>
      </trkpt>
      <trkpt lat="47.47991" lon="6.68358">
        <ele>368</ele>
        <time>2016-05-08T08:23:08.000Z</time>
      </trkpt>
      <trkpt lat="47.47988" lon="6.68361">
        <ele>368</ele>
        <time>2016-05-08T08:23:09.000Z</time>
      </trkpt>
      <trkpt lat="47.47987" lon="6.68362">
        <ele>368</ele>
        <time>2016-05-08T08:23:10.000Z</time>
      </trkpt>
      <trkpt lat="47.47984" lon="6.68364">
        <ele>367</ele>
        <time>2016-05-08T08:23:11.000Z</time>
      </trkpt>
      <trkpt lat="47.47981" lon="6.68367">
        <ele>367</ele>
        <time>2016-05-08T08:23:12.000Z</time>
      </trkpt>
      <trkpt lat="47.47979" lon="6.68368">
        <ele>367</ele>
        <time>2016-05-08T08:23:13.000Z</time>
      </trkpt>
      <trkpt lat="47.47977" lon="6.68369">
        <ele>367</ele>
        <time>2016-05-08T08:23:14.000Z</time>
      </trkpt>
      <trkpt lat="47.47973" lon="6.68371">
        <ele>367</ele>
        <time>2016-05-08T08:23:15.000Z</time>
      </trkpt>
      <trkpt lat="47.4797" lon="6.68371">
        <ele>367</ele>
        <time>2016-05-08T08:23:16.000Z</time>
      </trkpt>
      <trkpt lat="47.47968" lon="6.68373">
        <ele>366</ele>
        <time>2016-05-08T08:23:17.000Z</time>
      </trkpt>
      <trkpt lat="47.47966" lon="6.68375">
        <ele>366</ele>
        <time>2016-05-08T08:23:18.000Z</time>
      </trkpt>
      <trkpt lat="47.47963" lon="6.68377">
        <ele>366</ele>
        <time>2016-05-08T08:23:19.000Z</time>
      </trkpt>
      <trkpt lat="47.4796" lon="6.68379">
        <ele>366</ele>
        <time>2016-05-08T08:23:21.000Z</time>
      </trkpt>
      <trkpt lat="47.47959" lon="6.6838">
        <ele>366</ele>
        <time>2016-05-08T08:23:22.000Z</time>
      </trkpt>
      <trkpt lat="47.47955" lon="6.68379">
        <ele>366</ele>
        <time>2016-05-08T08:23:33.000Z</time>
      </trkpt>
      <trkpt lat="47.47954" lon="6.68378">
        <ele>366</ele>
        <time>2016-05-08T08:23:34.000Z</time>
      </trkpt>
      <trkpt lat="47.47954" lon="6.68376">
        <ele>366</ele>
        <time>2016-05-08T08:24:25.000Z</time>
      </trkpt>
      <trkpt lat="47.47949" lon="6.68381">
        <ele>366</ele>
        <time>2016-05-08T08:24:26.000Z</time>
      </trkpt>
      <trkpt lat="47.47947" lon="6.68385">
        <ele>365</ele>
        <time>2016-05-08T08:24:27.000Z</time>
      </trkpt>
      <trkpt lat="47.47941" lon="6.68388">
        <ele>365</ele>
        <time>2016-05-08T08:24:28.000Z</time>
      </trkpt>
      <trkpt lat="47.47933" lon="6.6839">
        <ele>365</ele>
        <time>2016-05-08T08:24:29.000Z</time>
      </trkpt>
      <trkpt lat="47.47926" lon="6.68391">
        <ele>364</ele>
        <time>2016-05-08T08:24:30.000Z</time>
      </trkpt>
      <trkpt lat="47.47919" lon="6.68392">
        <ele>364</ele>
        <time>2016-05-08T08:24:31.000Z</time>
      </trkpt>
      <trkpt lat="47.47912" lon="6.68393">
        <ele>364</ele>
        <time>2016-05-08T08:24:32.000Z</time>
      </trkpt>
      <trkpt lat="47.47904" lon="6.68392">
        <ele>364</ele>
        <time>2016-05-08T08:24:33.000Z</time>
      </trkpt>
      <trkpt lat="47.47898" lon="6.68391">
        <ele>364</ele>
        <time>2016-05-08T08:24:34.000Z</time>
      </trkpt>
      <trkpt lat="47.47899" lon="6.68393">
        <ele>364</ele>
        <time>2016-05-08T08:24:36.000Z</time>
      </trkpt>
      <trkpt lat="47.47903" lon="6.68394">
        <ele>364</ele>
        <time>2016-05-08T08:24:37.000Z</time>
      </trkpt>
      <trkpt lat="47.47901" lon="6.68391">
        <ele>364</ele>
        <time>2016-05-08T08:24:41.000Z</time>
      </trkpt>
      <trkpt lat="47.479" lon="6.68389">
        <ele>364</ele>
        <time>2016-05-08T08:24:42.000Z</time>
      </trkpt>
      <trkpt lat="47.47896" lon="6.6839">
        <ele>365</ele>
        <time>2016-05-08T08:24:45.000Z</time>
      </trkpt>
      <trkpt lat="47.47894" lon="6.68391">
        <ele>365</ele>
        <time>2016-05-08T08:24:46.000Z</time>
      </trkpt>
      <trkpt lat="47.47891" lon="6.68393">
        <ele>365</ele>
        <time>2016-05-08T08:24:47.000Z</time>
      </trkpt>
      <trkpt lat="47.47888" lon="6.68394">
        <ele>365</ele>
        <time>2016-05-08T08:24:48.000Z</time>
      </trkpt>
      <trkpt lat="47.47885" lon="6.68394">
        <ele>365</ele>
        <time>2016-05-08T08:24:49.000Z</time>
      </trkpt>
      <trkpt lat="47.47882" lon="6.68394">
        <ele>365</ele>
        <time>2016-05-08T08:24:50.000Z</time>
      </trkpt>
      <trkpt lat="47.47878" lon="6.68392">
        <ele>365</ele>
        <time>2016-05-08T08:24:52.000Z</time>
      </trkpt>
      <trkpt lat="47.47877" lon="6.6839">
        <ele>365</ele>
        <time>2016-05-08T08:24:53.000Z</time>
      </trkpt>
      <trkpt lat="47.47875" lon="6.68388">
        <ele>365</ele>
        <time>2016-05-08T08:24:54.000Z</time>
      </trkpt>
      <trkpt lat="47.47873" lon="6.68385">
        <ele>365</ele>
        <time>2016-05-08T08:24:55.000Z</time>
      </trkpt>
      <trkpt lat="47.47872" lon="6.68382">
        <ele>365</ele>
        <time>2016-05-08T08:24:56.000Z</time>
      </trkpt>
      <trkpt lat="47.47871" lon="6.68379">
        <ele>366</ele>
        <time>2016-05-08T08:24:57.000Z</time>
      </trkpt>
      <trkpt lat="47.4787" lon="6.68375">
        <ele>366</ele>
        <time>2016-05-08T08:24:58.000Z</time>
      </trkpt>
      <trkpt lat="47.47869" lon="6.68372">
        <ele>366</ele>
        <time>2016-05-08T08:24:59.000Z</time>
      </trkpt>
      <trkpt lat="47.47868" lon="6.68368">
        <ele>366</ele>
        <time>2016-05-08T08:25:00.000Z</time>
      </trkpt>
      <trkpt lat="47.47867" lon="6.68365">
        <ele>366</ele>
        <time>2016-05-08T08:25:01.000Z</time>
      </trkpt>
      <trkpt lat="47.47866" lon="6.68363">
        <ele>366</ele>
        <time>2016-05-08T08:25:02.000Z</time>
      </trkpt>
      <trkpt lat="47.47865" lon="6.68359">
        <ele>366</ele>
        <time>2016-05-08T08:25:03.000Z</time>
      </trkpt>
      <trkpt lat="47.47864" lon="6.68356">
        <ele>366</ele>
        <time>2016-05-08T08:25:04.000Z</time>
      </trkpt>
      <trkpt lat="47.47863" lon="6.68353">
        <ele>367</ele>
        <time>2016-05-08T08:25:05.000Z</time>
      </trkpt>
      <trkpt lat="47.47862" lon="6.68349">
        <ele>367</ele>
        <time>2016-05-08T08:25:06.000Z</time>
      </trkpt>
      <trkpt lat="47.47861" lon="6.68346">
        <ele>367</ele>
        <time>2016-05-08T08:25:07.000Z</time>
      </trkpt>
      <trkpt lat="47.4786" lon="6.68343">
        <ele>367</ele>
        <time>2016-05-08T08:25:08.000Z</time>
      </trkpt>
      <trkpt lat="47.47858" lon="6.6834">
        <ele>367</ele>
        <time>2016-05-08T08:25:09.000Z</time>
      </trkpt>
      <trkpt lat="47.47857" lon="6.68337">
        <ele>368</ele>
        <time>2016-05-08T08:25:10.000Z</time>
      </trkpt>
      <trkpt lat="47.47855" lon="6.68335">
        <ele>368</ele>
        <time>2016-05-08T08:25:11.000Z</time>
      </trkpt>
      <trkpt lat="47.47854" lon="6.6833">
        <ele>372</ele>
        <time>2016-05-08T08:25:13.000Z</time>
      </trkpt>
      <trkpt lat="47.47854" lon="6.68327">
        <ele>372</ele>
        <time>2016-05-08T08:25:14.000Z</time>
      </trkpt>
      <trkpt lat="47.47854" lon="6.68321">
        <ele>372</ele>
        <time>2016-05-08T08:25:17.000Z</time>
      </trkpt>
      <trkpt lat="47.47854" lon="6.68319">
        <ele>373</ele>
        <time>2016-05-08T08:25:18.000Z</time>
      </trkpt>
      <trkpt lat="47.47852" lon="6.68312">
        <ele>373</ele>
        <time>2016-05-08T08:25:21.000Z</time>
      </trkpt>
      <trkpt lat="47.47852" lon="6.6831">
        <ele>373</ele>
        <time>2016-05-08T08:25:22.000Z</time>
      </trkpt>
      <trkpt lat="47.47852" lon="6.68304">
        <ele>374</ele>
        <time>2016-05-08T08:25:24.000Z</time>
      </trkpt>
      <trkpt lat="47.47853" lon="6.68301">
        <ele>374</ele>
        <time>2016-05-08T08:25:25.000Z</time>
      </trkpt>
      <trkpt lat="47.47854" lon="6.68295">
        <ele>374</ele>
        <time>2016-05-08T08:25:27.000Z</time>
      </trkpt>
      <trkpt lat="47.47854" lon="6.68292">
        <ele>375</ele>
        <time>2016-05-08T08:25:28.000Z</time>
      </trkpt>
      <trkpt lat="47.47855" lon="6.68289">
        <ele>375</ele>
        <time>2016-05-08T08:25:29.000Z</time>
      </trkpt>
      <trkpt lat="47.47856" lon="6.68286">
        <ele>375</ele>
        <time>2016-05-08T08:25:30.000Z</time>
      </trkpt>
      <trkpt lat="47.47858" lon="6.6828">
        <ele>376</ele>
        <time>2016-05-08T08:25:32.000Z</time>
      </trkpt>
      <trkpt lat="47.47858" lon="6.68277">
        <ele>376</ele>
        <time>2016-05-08T08:25:33.000Z</time>
      </trkpt>
      <trkpt lat="47.4786" lon="6.68273">
        <ele>376</ele>
        <time>2016-05-08T08:25:35.000Z</time>
      </trkpt>
      <trkpt lat="47.4786" lon="6.6827">
        <ele>377</ele>
        <time>2016-05-08T08:25:36.000Z</time>
      </trkpt>
      <trkpt lat="47.47862" lon="6.68265">
        <ele>377</ele>
        <time>2016-05-08T08:25:39.000Z</time>
      </trkpt>
      <trkpt lat="47.47863" lon="6.68263">
        <ele>377</ele>
        <time>2016-05-08T08:25:40.000Z</time>
      </trkpt>
      <trkpt lat="47.47866" lon="6.68258">
        <ele>377</ele>
        <time>2016-05-08T08:25:42.000Z</time>
      </trkpt>
      <trkpt lat="47.47867" lon="6.68256">
        <ele>377</ele>
        <time>2016-05-08T08:25:43.000Z</time>
      </trkpt>
      <trkpt lat="47.47869" lon="6.68252">
        <ele>377</ele>
        <time>2016-05-08T08:25:45.000Z</time>
      </trkpt>
      <trkpt lat="47.4787" lon="6.6825">
        <ele>385</ele>
        <time>2016-05-08T08:25:46.000Z</time>
      </trkpt>
      <trkpt lat="47.47871" lon="6.68247">
        <ele>385</ele>
        <time>2016-05-08T08:25:47.000Z</time>
      </trkpt>
      <trkpt lat="47.47873" lon="6.68244">
        <ele>385</ele>
        <time>2016-05-08T08:25:48.000Z</time>
      </trkpt>
      <trkpt lat="47.47874" lon="6.68241">
        <ele>385</ele>
        <time>2016-05-08T08:25:49.000Z</time>
      </trkpt>
      <trkpt lat="47.47876" lon="6.68238">
        <ele>385</ele>
        <time>2016-05-08T08:25:50.000Z</time>
      </trkpt>
      <trkpt lat="47.47877" lon="6.68235">
        <ele>385</ele>
        <time>2016-05-08T08:25:51.000Z</time>
      </trkpt>
      <trkpt lat="47.47879" lon="6.68233">
        <ele>385</ele>
        <time>2016-05-08T08:25:52.000Z</time>
      </trkpt>
      <trkpt lat="47.47882" lon="6.68231">
        <ele>385</ele>
        <time>2016-05-08T08:25:53.000Z</time>
      </trkpt>
      <trkpt lat="47.47884" lon="6.68229">
        <ele>385</ele>
        <time>2016-05-08T08:25:54.000Z</time>
      </trkpt>
      <trkpt lat="47.47886" lon="6.68226">
        <ele>385</ele>
        <time>2016-05-08T08:25:55.000Z</time>
      </trkpt>
      <trkpt lat="47.47888" lon="6.68224">
        <ele>385</ele>
        <time>2016-05-08T08:25:56.000Z</time>
      </trkpt>
      <trkpt lat="47.4789" lon="6.68219">
        <ele>386</ele>
        <time>2016-05-08T08:25:59.000Z</time>
      </trkpt>
      <trkpt lat="47.4789" lon="6.68218">
        <ele>386</ele>
        <time>2016-05-08T08:26:00.000Z</time>
      </trkpt>
      <trkpt lat="47.47894" lon="6.68213">
        <ele>386</ele>
        <time>2016-05-08T08:26:05.000Z</time>
      </trkpt>
      <trkpt lat="47.47894" lon="6.68212">
        <ele>386</ele>
        <time>2016-05-08T08:26:06.000Z</time>
      </trkpt>
      <trkpt lat="47.47895" lon="6.68208">
        <ele>387</ele>
        <time>2016-05-08T08:26:11.000Z</time>
      </trkpt>
      <trkpt lat="47.47896" lon="6.68206">
        <ele>387</ele>
        <time>2016-05-08T08:26:12.000Z</time>
      </trkpt>
      <trkpt lat="47.47897" lon="6.68201">
        <ele>387</ele>
        <time>2016-05-08T08:26:15.000Z</time>
      </trkpt>
      <trkpt lat="47.47897" lon="6.68199">
        <ele>387</ele>
        <time>2016-05-08T08:26:16.000Z</time>
      </trkpt>
      <trkpt lat="47.47898" lon="6.68194">
        <ele>388</ele>
        <time>2016-05-08T08:26:20.000Z</time>
      </trkpt>
      <trkpt lat="47.47898" lon="6.68193">
        <ele>388</ele>
        <time>2016-05-08T08:26:21.000Z</time>
      </trkpt>
      <trkpt lat="47.47899" lon="6.68187">
        <ele>388</ele>
        <time>2016-05-08T08:26:26.000Z</time>
      </trkpt>
      <trkpt lat="47.47899" lon="6.68185">
        <ele>388</ele>
        <time>2016-05-08T08:26:27.000Z</time>
      </trkpt>
      <trkpt lat="47.47901" lon="6.68182">
        <ele>388</ele>
        <time>2016-05-08T08:26:29.000Z</time>
      </trkpt>
      <trkpt lat="47.47903" lon="6.6818">
        <ele>388</ele>
        <time>2016-05-08T08:26:30.000Z</time>
      </trkpt>
      <trkpt lat="47.47904" lon="6.68174">
        <ele>389</ele>
        <time>2016-05-08T08:26:34.000Z</time>
      </trkpt>
      <trkpt lat="47.47903" lon="6.68172">
        <ele>389</ele>
        <time>2016-05-08T08:26:35.000Z</time>
      </trkpt>
      <trkpt lat="47.47901" lon="6.68167">
        <ele>389</ele>
        <time>2016-05-08T08:26:40.000Z</time>
      </trkpt>
      <trkpt lat="47.47901" lon="6.68166">
        <ele>394</ele>
        <time>2016-05-08T08:26:41.000Z</time>
      </trkpt>
      <trkpt lat="47.47902" lon="6.68159">
        <ele>394</ele>
        <time>2016-05-08T08:26:46.000Z</time>
      </trkpt>
      <trkpt lat="47.47902" lon="6.68158">
        <ele>394</ele>
        <time>2016-05-08T08:26:47.000Z</time>
      </trkpt>
      <trkpt lat="47.47903" lon="6.68152">
        <ele>395</ele>
        <time>2016-05-08T08:26:53.000Z</time>
      </trkpt>
      <trkpt lat="47.47902" lon="6.6815">
        <ele>395</ele>
        <time>2016-05-08T08:26:54.000Z</time>
      </trkpt>
      <trkpt lat="47.47902" lon="6.68144">
        <ele>396</ele>
        <time>2016-05-08T08:26:57.000Z</time>
      </trkpt>
      <trkpt lat="47.47902" lon="6.68142">
        <ele>396</ele>
        <time>2016-05-08T08:26:58.000Z</time>
      </trkpt>
      <trkpt lat="47.47902" lon="6.68137">
        <ele>397</ele>
        <time>2016-05-08T08:27:00.000Z</time>
      </trkpt>
      <trkpt lat="47.47901" lon="6.68135">
        <ele>397</ele>
        <time>2016-05-08T08:27:01.000Z</time>
      </trkpt>
      <trkpt lat="47.47902" lon="6.6813">
        <ele>397</ele>
        <time>2016-05-08T08:27:03.000Z</time>
      </trkpt>
      <trkpt lat="47.47902" lon="6.68127">
        <ele>397</ele>
        <time>2016-05-08T08:27:04.000Z</time>
      </trkpt>
      <trkpt lat="47.47902" lon="6.68121">
        <ele>398</ele>
        <time>2016-05-08T08:27:06.000Z</time>
      </trkpt>
      <trkpt lat="47.47903" lon="6.68118">
        <ele>398</ele>
        <time>2016-05-08T08:27:07.000Z</time>
      </trkpt>
      <trkpt lat="47.47903" lon="6.68113">
        <ele>398</ele>
        <time>2016-05-08T08:27:09.000Z</time>
      </trkpt>
      <trkpt lat="47.47902" lon="6.68111">
        <ele>398</ele>
        <time>2016-05-08T08:27:10.000Z</time>
      </trkpt>
      <trkpt lat="47.47902" lon="6.68106">
        <ele>398</ele>
        <time>2016-05-08T08:27:12.000Z</time>
      </trkpt>
      <trkpt lat="47.47901" lon="6.68104">
        <ele>398</ele>
        <time>2016-05-08T08:27:13.000Z</time>
      </trkpt>
      <trkpt lat="47.479" lon="6.68098">
        <ele>398</ele>
        <time>2016-05-08T08:27:17.000Z</time>
      </trkpt>
      <trkpt lat="47.47899" lon="6.68097">
        <ele>398</ele>
        <time>2016-05-08T08:27:18.000Z</time>
      </trkpt>
      <trkpt lat="47.47897" lon="6.6809">
        <ele>398</ele>
        <time>2016-05-08T08:27:23.000Z</time>
      </trkpt>
      <trkpt lat="47.47897" lon="6.68089">
        <ele>398</ele>
        <time>2016-05-08T08:27:24.000Z</time>
      </trkpt>
      <trkpt lat="47.47894" lon="6.68084">
        <ele>399</ele>
        <time>2016-05-08T08:27:30.000Z</time>
      </trkpt>
      <trkpt lat="47.47893" lon="6.68083">
        <ele>401</ele>
        <time>2016-05-08T08:27:31.000Z</time>
      </trkpt>
      <trkpt lat="47.47892" lon="6.68078">
        <ele>402</ele>
        <time>2016-05-08T08:27:37.000Z</time>
      </trkpt>
      <trkpt lat="47.47891" lon="6.68077">
        <ele>402</ele>
        <time>2016-05-08T08:27:38.000Z</time>
      </trkpt>
      <trkpt lat="47.47888" lon="6.68074">
        <ele>403</ele>
        <time>2016-05-08T08:27:41.000Z</time>
      </trkpt>
      <trkpt lat="47.47887" lon="6.68073">
        <ele>403</ele>
        <time>2016-05-08T08:27:42.000Z</time>
      </trkpt>
      <trkpt lat="47.47884" lon="6.68069">
        <ele>403</ele>
        <time>2016-05-08T08:27:45.000Z</time>
      </trkpt>
      <trkpt lat="47.47883" lon="6.68067">
        <ele>403</ele>
        <time>2016-05-08T08:27:46.000Z</time>
      </trkpt>
      <trkpt lat="47.47881" lon="6.68062">
        <ele>404</ele>
        <time>2016-05-08T08:27:52.000Z</time>
      </trkpt>
      <trkpt lat="47.4788" lon="6.68061">
        <ele>404</ele>
        <time>2016-05-08T08:27:53.000Z</time>
      </trkpt>
      <trkpt lat="47.47877" lon="6.68056">
        <ele>405</ele>
        <time>2016-05-08T08:27:57.000Z</time>
      </trkpt>
      <trkpt lat="47.47877" lon="6.68056">
        <ele>405</ele>
        <time>2016-05-08T08:27:58.000Z</time>
      </trkpt>
      <trkpt lat="47.47874" lon="6.68052">
        <ele>405</ele>
        <time>2016-05-08T08:28:07.000Z</time>
      </trkpt>
      <trkpt lat="47.47872" lon="6.6805">
        <ele>405</ele>
        <time>2016-05-08T08:28:08.000Z</time>
      </trkpt>
      <trkpt lat="47.4787" lon="6.68047">
        <ele>406</ele>
        <time>2016-05-08T08:28:10.000Z</time>
      </trkpt>
      <trkpt lat="47.47869" lon="6.68046">
        <ele>406</ele>
        <time>2016-05-08T08:28:11.000Z</time>
      </trkpt>
      <trkpt lat="47.47865" lon="6.68043">
        <ele>406</ele>
        <time>2016-05-08T08:28:14.000Z</time>
      </trkpt>
      <trkpt lat="47.47864" lon="6.68042">
        <ele>406</ele>
        <time>2016-05-08T08:28:15.000Z</time>
      </trkpt>
      <trkpt lat="47.47862" lon="6.68038">
        <ele>407</ele>
        <time>2016-05-08T08:28:19.000Z</time>
      </trkpt>
      <trkpt lat="47.47861" lon="6.68037">
        <ele>407</ele>
        <time>2016-05-08T08:28:20.000Z</time>
      </trkpt>
      <trkpt lat="47.47858" lon="6.68034">
        <ele>407</ele>
        <time>2016-05-08T08:28:23.000Z</time>
      </trkpt>
      <trkpt lat="47.47857" lon="6.68034">
        <ele>408</ele>
        <time>2016-05-08T08:28:24.000Z</time>
      </trkpt>
      <trkpt lat="47.47852" lon="6.68032">
        <ele>408</ele>
        <time>2016-05-08T08:28:27.000Z</time>
      </trkpt>
      <trkpt lat="47.47851" lon="6.68031">
        <ele>408</ele>
        <time>2016-05-08T08:28:28.000Z</time>
      </trkpt>
      <trkpt lat="47.47847" lon="6.68028">
        <ele>409</ele>
        <time>2016-05-08T08:28:34.000Z</time>
      </trkpt>
      <trkpt lat="47.47846" lon="6.68028">
        <ele>409</ele>
        <time>2016-05-08T08:28:35.000Z</time>
      </trkpt>
      <trkpt lat="47.47843" lon="6.68024">
        <ele>410</ele>
        <time>2016-05-08T08:28:42.000Z</time>
      </trkpt>
      <trkpt lat="47.47843" lon="6.68023">
        <ele>410</ele>
        <time>2016-05-08T08:28:43.000Z</time>
      </trkpt>
      <trkpt lat="47.47842" lon="6.68017">
        <ele>411</ele>
        <time>2016-05-08T08:28:46.000Z</time>
      </trkpt>
      <trkpt lat="47.47842" lon="6.68015">
        <ele>412</ele>
        <time>2016-05-08T08:28:47.000Z</time>
      </trkpt>
      <trkpt lat="47.47841" lon="6.6801">
        <ele>413</ele>
        <time>2016-05-08T08:28:49.000Z</time>
      </trkpt>
      <trkpt lat="47.4784" lon="6.68008">
        <ele>414</ele>
        <time>2016-05-08T08:28:50.000Z</time>
      </trkpt>
      <trkpt lat="47.4784" lon="6.68001">
        <ele>415</ele>
        <time>2016-05-08T08:28:52.000Z</time>
      </trkpt>
      <trkpt lat="47.4784" lon="6.67998">
        <ele>416</ele>
        <time>2016-05-08T08:28:53.000Z</time>
      </trkpt>
      <trkpt lat="47.4784" lon="6.67994">
        <ele>415</ele>
        <time>2016-05-08T08:28:54.000Z</time>
      </trkpt>
      <trkpt lat="47.47839" lon="6.67991">
        <ele>415</ele>
        <time>2016-05-08T08:28:55.000Z</time>
      </trkpt>
      <trkpt lat="47.47839" lon="6.67988">
        <ele>415</ele>
        <time>2016-05-08T08:28:56.000Z</time>
      </trkpt>
      <trkpt lat="47.47838" lon="6.67985">
        <ele>414</ele>
        <time>2016-05-08T08:28:57.000Z</time>
      </trkpt>
      <trkpt lat="47.47837" lon="6.67979">
        <ele>414</ele>
        <time>2016-05-08T08:28:59.000Z</time>
      </trkpt>
      <trkpt lat="47.47836" lon="6.67977">
        <ele>414</ele>
        <time>2016-05-08T08:29:00.000Z</time>
      </trkpt>
      <trkpt lat="47.47834" lon="6.67973">
        <ele>414</ele>
        <time>2016-05-08T08:29:02.000Z</time>
      </trkpt>
      <trkpt lat="47.47833" lon="6.67971">
        <ele>425</ele>
        <time>2016-05-08T08:29:03.000Z</time>
      </trkpt>
      <trkpt lat="47.4783" lon="6.67967">
        <ele>426</ele>
        <time>2016-05-08T08:29:06.000Z</time>
      </trkpt>
      <trkpt lat="47.47829" lon="6.67966">
        <ele>426</ele>
        <time>2016-05-08T08:29:07.000Z</time>
      </trkpt>
      <trkpt lat="47.47827" lon="6.67961">
        <ele>426</ele>
        <time>2016-05-08T08:29:10.000Z</time>
      </trkpt>
      <trkpt lat="47.47827" lon="6.67959">
        <ele>426</ele>
        <time>2016-05-08T08:29:11.000Z</time>
      </trkpt>
      <trkpt lat="47.47824" lon="6.67955">
        <ele>427</ele>
        <time>2016-05-08T08:29:14.000Z</time>
      </trkpt>
      <trkpt lat="47.47823" lon="6.67953">
        <ele>427</ele>
        <time>2016-05-08T08:29:15.000Z</time>
      </trkpt>
      <trkpt lat="47.47822" lon="6.67948">
        <ele>427</ele>
        <time>2016-05-08T08:29:17.000Z</time>
      </trkpt>
      <trkpt lat="47.47822" lon="6.67946">
        <ele>427</ele>
        <time>2016-05-08T08:29:18.000Z</time>
      </trkpt>
      <trkpt lat="47.47822" lon="6.67941">
        <ele>427</ele>
        <time>2016-05-08T08:29:21.000Z</time>
      </trkpt>
      <trkpt lat="47.47822" lon="6.67939">
        <ele>427</ele>
        <time>2016-05-08T08:29:22.000Z</time>
      </trkpt>
      <trkpt lat="47.4782" lon="6.67934">
        <ele>427</ele>
        <time>2016-05-08T08:29:26.000Z</time>
      </trkpt>
      <trkpt lat="47.4782" lon="6.67932">
        <ele>427</ele>
        <time>2016-05-08T08:29:27.000Z</time>
      </trkpt>
      <trkpt lat="47.47819" lon="6.67928">
        <ele>427</ele>
        <time>2016-05-08T08:29:29.000Z</time>
      </trkpt>
      <trkpt lat="47.47818" lon="6.67926">
        <ele>427</ele>
        <time>2016-05-08T08:29:30.000Z</time>
      </trkpt>
      <trkpt lat="47.47816" lon="6.6792">
        <ele>427</ele>
        <time>2016-05-08T08:29:33.000Z</time>
      </trkpt>
      <trkpt lat="47.47815" lon="6.67918">
        <ele>427</ele>
        <time>2016-05-08T08:29:34.000Z</time>
      </trkpt>
      <trkpt lat="47.47814" lon="6.67913">
        <ele>431</ele>
        <time>2016-05-08T08:29:37.000Z</time>
      </trkpt>
      <trkpt lat="47.47814" lon="6.67911">
        <ele>431</ele>
        <time>2016-05-08T08:29:38.000Z</time>
      </trkpt>
      <trkpt lat="47.47812" lon="6.67906">
        <ele>432</ele>
        <time>2016-05-08T08:29:41.000Z</time>
      </trkpt>
      <trkpt lat="47.47811" lon="6.67904">
        <ele>432</ele>
        <time>2016-05-08T08:29:42.000Z</time>
      </trkpt>
      <trkpt lat="47.4781" lon="6.67898">
        <ele>433</ele>
        <time>2016-05-08T08:29:51.000Z</time>
      </trkpt>
      <trkpt lat="47.4781" lon="6.67898">
        <ele>433</ele>
        <time>2016-05-08T08:29:52.000Z</time>
      </trkpt>
      <trkpt lat="47.47811" lon="6.67891">
        <ele>434</ele>
        <time>2016-05-08T08:30:03.000Z</time>
      </trkpt>
      <trkpt lat="47.47811" lon="6.6789">
        <ele>434</ele>
        <time>2016-05-08T08:30:04.000Z</time>
      </trkpt>
      <trkpt lat="47.47809" lon="6.67884">
        <ele>434</ele>
        <time>2016-05-08T08:30:15.000Z</time>
      </trkpt>
      <trkpt lat="47.47808" lon="6.67883">
        <ele>435</ele>
        <time>2016-05-08T08:30:16.000Z</time>
      </trkpt>
      <trkpt lat="47.47804" lon="6.6788">
        <ele>435</ele>
        <time>2016-05-08T08:30:19.000Z</time>
      </trkpt>
      <trkpt lat="47.47805" lon="6.67878">
        <ele>435</ele>
        <time>2016-05-08T08:30:20.000Z</time>
      </trkpt>
      <trkpt lat="47.47804" lon="6.67872">
        <ele>436</ele>
        <time>2016-05-08T08:30:30.000Z</time>
      </trkpt>
      <trkpt lat="47.47804" lon="6.67871">
        <ele>436</ele>
        <time>2016-05-08T08:30:31.000Z</time>
      </trkpt>
      <trkpt lat="47.47804" lon="6.67866">
        <ele>436</ele>
        <time>2016-05-08T08:30:35.000Z</time>
      </trkpt>
      <trkpt lat="47.47804" lon="6.67864">
        <ele>436</ele>
        <time>2016-05-08T08:30:36.000Z</time>
      </trkpt>
      <trkpt lat="47.47803" lon="6.67859">
        <ele>436</ele>
        <time>2016-05-08T08:30:38.000Z</time>
      </trkpt>
      <trkpt lat="47.47803" lon="6.67857">
        <ele>436</ele>
        <time>2016-05-08T08:30:39.000Z</time>
      </trkpt>
      <trkpt lat="47.47804" lon="6.67852">
        <ele>436</ele>
        <time>2016-05-08T08:30:42.000Z</time>
      </trkpt>
      <trkpt lat="47.47804" lon="6.6785">
        <ele>436</ele>
        <time>2016-05-08T08:30:43.000Z</time>
      </trkpt>
      <trkpt lat="47.47805" lon="6.67845">
        <ele>436</ele>
        <time>2016-05-08T08:30:45.000Z</time>
      </trkpt>
      <trkpt lat="47.47805" lon="6.67843">
        <ele>436</ele>
        <time>2016-05-08T08:30:46.000Z</time>
      </trkpt>
      <trkpt lat="47.47806" lon="6.67837">
        <ele>436</ele>
        <time>2016-05-08T08:30:53.000Z</time>
      </trkpt>
      <trkpt lat="47.47806" lon="6.67835">
        <ele>436</ele>
        <time>2016-05-08T08:30:54.000Z</time>
      </trkpt>
      <trkpt lat="47.47803" lon="6.6783">
        <ele>440</ele>
        <time>2016-05-08T08:30:57.000Z</time>
      </trkpt>
      <trkpt lat="47.47803" lon="6.67829">
        <ele>440</ele>
        <time>2016-05-08T08:30:58.000Z</time>
      </trkpt>
      <trkpt lat="47.47802" lon="6.67824">
        <ele>441</ele>
        <time>2016-05-08T08:31:01.000Z</time>
      </trkpt>
      <trkpt lat="47.47801" lon="6.67822">
        <ele>441</ele>
        <time>2016-05-08T08:31:02.000Z</time>
      </trkpt>
      <trkpt lat="47.47801" lon="6.67816">
        <ele>441</ele>
        <time>2016-05-08T08:31:05.000Z</time>
      </trkpt>
      <trkpt lat="47.47801" lon="6.67814">
        <ele>441</ele>
        <time>2016-05-08T08:31:06.000Z</time>
      </trkpt>
      <trkpt lat="47.47801" lon="6.67809">
        <ele>441</ele>
        <time>2016-05-08T08:31:08.000Z</time>
      </trkpt>
      <trkpt lat="47.47801" lon="6.67806">
        <ele>441</ele>
        <time>2016-05-08T08:31:09.000Z</time>
      </trkpt>
      <trkpt lat="47.478" lon="6.67801">
        <ele>442</ele>
        <time>2016-05-08T08:31:12.000Z</time>
      </trkpt>
      <trkpt lat="47.47799" lon="6.67799">
        <ele>442</ele>
        <time>2016-05-08T08:31:13.000Z</time>
      </trkpt>
      <trkpt lat="47.47799" lon="6.67794">
        <ele>442</ele>
        <time>2016-05-08T08:31:15.000Z</time>
      </trkpt>
      <trkpt lat="47.47799" lon="6.67792">
        <ele>442</ele>
        <time>2016-05-08T08:31:16.000Z</time>
      </trkpt>
      <trkpt lat="47.478" lon="6.67787">
        <ele>442</ele>
        <time>2016-05-08T08:31:18.000Z</time>
      </trkpt>
      <trkpt lat="47.478" lon="6.67785">
        <ele>442</ele>
        <time>2016-05-08T08:31:19.000Z</time>
      </trkpt>
      <trkpt lat="47.47801" lon="6.6778">
        <ele>442</ele>
        <time>2016-05-08T08:31:21.000Z</time>
      </trkpt>
      <trkpt lat="47.47801" lon="6.67778">
        <ele>442</ele>
        <time>2016-05-08T08:31:22.000Z</time>
      </trkpt>
      <trkpt lat="47.47801" lon="6.67773">
        <ele>442</ele>
        <time>2016-05-08T08:31:24.000Z</time>
      </trkpt>
      <trkpt lat="47.47801" lon="6.6777">
        <ele>442</ele>
        <time>2016-05-08T08:31:25.000Z</time>
      </trkpt>
      <trkpt lat="47.47801" lon="6.67764">
        <ele>442</ele>
        <time>2016-05-08T08:31:29.000Z</time>
      </trkpt>
      <trkpt lat="47.47801" lon="6.67762">
        <ele>442</ele>
        <time>2016-05-08T08:31:30.000Z</time>
      </trkpt>
      <trkpt lat="47.478" lon="6.67756">
        <ele>443</ele>
        <time>2016-05-08T08:31:33.000Z</time>
      </trkpt>
      <trkpt lat="47.478" lon="6.67754">
        <ele>443</ele>
        <time>2016-05-08T08:31:34.000Z</time>
      </trkpt>
      <trkpt lat="47.478" lon="6.67748">
        <ele>444</ele>
        <time>2016-05-08T08:31:37.000Z</time>
      </trkpt>
      <trkpt lat="47.478" lon="6.67746">
        <ele>444</ele>
        <time>2016-05-08T08:31:38.000Z</time>
      </trkpt>
      <trkpt lat="47.478" lon="6.67741">
        <ele>444</ele>
        <time>2016-05-08T08:31:40.000Z</time>
      </trkpt>
      <trkpt lat="47.478" lon="6.67738">
        <ele>444</ele>
        <time>2016-05-08T08:31:41.000Z</time>
      </trkpt>
      <trkpt lat="47.47801" lon="6.67732">
        <ele>444</ele>
        <time>2016-05-08T08:31:44.000Z</time>
      </trkpt>
      <trkpt lat="47.47801" lon="6.6773">
        <ele>444</ele>
        <time>2016-05-08T08:31:45.000Z</time>
      </trkpt>
      <trkpt lat="47.478" lon="6.67723">
        <ele>445</ele>
        <time>2016-05-08T08:33:02.000Z</time>
      </trkpt>
      <trkpt lat="47.478" lon="6.67723">
        <ele>444</ele>
        <time>2016-05-08T08:33:03.000Z</time>
      </trkpt>
      <trkpt lat="47.47802" lon="6.67717">
        <ele>444</ele>
        <time>2016-05-08T08:36:12.000Z</time>
      </trkpt>
      <trkpt lat="47.47802" lon="6.67716">
        <ele>444</ele>
        <time>2016-05-08T08:36:13.000Z</time>
      </trkpt>
      <trkpt lat="47.47801" lon="6.67711">
        <ele>445</ele>
        <time>2016-05-08T08:37:35.000Z</time>
      </trkpt>
      <trkpt lat="47.478" lon="6.67708">
        <ele>445</ele>
        <time>2016-05-08T08:37:36.000Z</time>
      </trkpt>
      <trkpt lat="47.47798" lon="6.67703">
        <ele>445</ele>
        <time>2016-05-08T08:37:39.000Z</time>
      </trkpt>
      <trkpt lat="47.47798" lon="6.67702">
        <ele>445</ele>
        <time>2016-05-08T08:37:40.000Z</time>
      </trkpt>
      <trkpt lat="47.47797" lon="6.67696">
        <ele>445</ele>
        <time>2016-05-08T08:39:00.000Z</time>
      </trkpt>
      <trkpt lat="47.47798" lon="6.67695">
        <ele>445</ele>
        <time>2016-05-08T08:39:01.000Z</time>
      </trkpt>
      <trkpt lat="47.47801" lon="6.67691">
        <ele>445</ele>
        <time>2016-05-08T08:39:05.000Z</time>
      </trkpt>
      <trkpt lat="47.47802" lon="6.6769">
        <ele>445</ele>
        <time>2016-05-08T08:39:06.000Z</time>
      </trkpt>
      <trkpt lat="47.47806" lon="6.67691">
        <ele>444</ele>
        <time>2016-05-08T08:40:09.000Z</time>
      </trkpt>
      <trkpt lat="47.47806" lon="6.67691">
        <ele>444</ele>
        <time>2016-05-08T08:40:10.000Z</time>
      </trkpt>
      <trkpt lat="47.47806" lon="6.67685">
        <ele>444</ele>
        <time>2016-05-08T08:43:40.000Z</time>
      </trkpt>
      <trkpt lat="47.47806" lon="6.67682">
        <ele>444</ele>
        <time>2016-05-08T08:43:41.000Z</time>
      </trkpt>
      <trkpt lat="47.47808" lon="6.67677">
        <ele>444</ele>
        <time>2016-05-08T08:43:44.000Z</time>
      </trkpt>
      <trkpt lat="47.47808" lon="6.67675">
        <ele>444</ele>
        <time>2016-05-08T08:43:45.000Z</time>
      </trkpt>
      <trkpt lat="47.47808" lon="6.67668">
        <ele>444</ele>
        <time>2016-05-08T08:43:48.000Z</time>
      </trkpt>
      <trkpt lat="47.47808" lon="6.67666">
        <ele>444</ele>
        <time>2016-05-08T08:43:49.000Z</time>
      </trkpt>
      <trkpt lat="47.47808" lon="6.67661">
        <ele>444</ele>
        <time>2016-05-08T08:43:51.000Z</time>
      </trkpt>
      <trkpt lat="47.47808" lon="6.67659">
        <ele>444</ele>
        <time>2016-05-08T08:43:52.000Z</time>
      </trkpt>
      <trkpt lat="47.47808" lon="6.67653">
        <ele>444</ele>
        <time>2016-05-08T08:43:54.000Z</time>
      </trkpt>
      <trkpt lat="47.47808" lon="6.6765">
        <ele>445</ele>
        <time>2016-05-08T08:43:55.000Z</time>
      </trkpt>
      <trkpt lat="47.47809" lon="6.67644">
        <ele>445</ele>
        <time>2016-05-08T08:43:57.000Z</time>
      </trkpt>
      <trkpt lat="47.47809" lon="6.67641">
        <ele>445</ele>
        <time>2016-05-08T08:43:58.000Z</time>
      </trkpt>
      <trkpt lat="47.47809" lon="6.67636">
        <ele>445</ele>
        <time>2016-05-08T08:44:00.000Z</time>
      </trkpt>
      <trkpt lat="47.47809" lon="6.67633">
        <ele>445</ele>
        <time>2016-05-08T08:44:01.000Z</time>
      </trkpt>
      <trkpt lat="47.4781" lon="6.6763">
        <ele>445</ele>
        <time>2016-05-08T08:44:02.000Z</time>
      </trkpt>
      <trkpt lat="47.4781" lon="6.67626">
        <ele>445</ele>
        <time>2016-05-08T08:44:03.000Z</time>
      </trkpt>
      <trkpt lat="47.47811" lon="6.67621">
        <ele>445</ele>
        <time>2016-05-08T08:44:05.000Z</time>
      </trkpt>
      <trkpt lat="47.4781" lon="6.67619">
        <ele>445</ele>
        <time>2016-05-08T08:44:06.000Z</time>
      </trkpt>
      <trkpt lat="47.47808" lon="6.67615">
        <ele>445</ele>
        <time>2016-05-08T08:44:09.000Z</time>
      </trkpt>
      <trkpt lat="47.47807" lon="6.67613">
        <ele>445</ele>
        <time>2016-05-08T08:44:10.000Z</time>
      </trkpt>
      <trkpt lat="47.47808" lon="6.67607">
        <ele>445</ele>
        <time>2016-05-08T08:44:12.000Z</time>
      </trkpt>
      <trkpt lat="47.47808" lon="6.67605">
        <ele>445</ele>
        <time>2016-05-08T08:44:13.000Z</time>
      </trkpt>
      <trkpt lat="47.47809" lon="6.676">
        <ele>445</ele>
        <time>2016-05-08T08:44:15.000Z</time>
      </trkpt>
      <trkpt lat="47.4781" lon="6.67597">
        <ele>445</ele>
        <time>2016-05-08T08:44:16.000Z</time>
      </trkpt>
      <trkpt lat="47.47811" lon="6.67593">
        <ele>445</ele>
        <time>2016-05-08T08:44:17.000Z</time>
      </trkpt>
      <trkpt lat="47.47812" lon="6.67589">
        <ele>445</ele>
        <time>2016-05-08T08:44:18.000Z</time>
      </trkpt>
      <trkpt lat="47.47813" lon="6.67585">
        <ele>445</ele>
        <time>2016-05-08T08:44:19.000Z</time>
      </trkpt>
      <trkpt lat="47.47813" lon="6.67581">
        <ele>445</ele>
        <time>2016-05-08T08:44:20.000Z</time>
      </trkpt>
      <trkpt lat="47.47814" lon="6.67577">
        <ele>445</ele>
        <time>2016-05-08T08:44:21.000Z</time>
      </trkpt>
      <trkpt lat="47.47814" lon="6.67573">
        <ele>445</ele>
        <time>2016-05-08T08:44:22.000Z</time>
      </trkpt>
      <trkpt lat="47.47814" lon="6.67569">
        <ele>445</ele>
        <time>2016-05-08T08:44:23.000Z</time>
      </trkpt>
      <trkpt lat="47.47815" lon="6.67564">
        <ele>445</ele>
        <time>2016-05-08T08:44:24.000Z</time>
      </trkpt>
      <trkpt lat="47.47816" lon="6.6756">
        <ele>445</ele>
        <time>2016-05-08T08:44:25.000Z</time>
      </trkpt>
      <trkpt lat="47.47816" lon="6.67556">
        <ele>445</ele>
        <time>2016-05-08T08:44:26.000Z</time>
      </trkpt>
      <trkpt lat="47.47817" lon="6.67551">
        <ele>445</ele>
        <time>2016-05-08T08:44:27.000Z</time>
      </trkpt>
      <trkpt lat="47.47818" lon="6.67547">
        <ele>445</ele>
        <time>2016-05-08T08:44:28.000Z</time>
      </trkpt>
      <trkpt lat="47.47819" lon="6.67543">
        <ele>445</ele>
        <time>2016-05-08T08:44:29.000Z</time>
      </trkpt>
      <trkpt lat="47.4782" lon="6.67539">
        <ele>445</ele>
        <time>2016-05-08T08:44:30.000Z</time>
      </trkpt>
      <trkpt lat="47.47823" lon="6.67534">
        <ele>445</ele>
        <time>2016-05-08T08:44:32.000Z</time>
      </trkpt>
      <trkpt lat="47.47825" lon="6.67531">
        <ele>445</ele>
        <time>2016-05-08T08:44:33.000Z</time>
      </trkpt>
      <trkpt lat="47.47826" lon="6.67528">
        <ele>445</ele>
        <time>2016-05-08T08:44:34.000Z</time>
      </trkpt>
      <trkpt lat="47.47827" lon="6.67525">
        <ele>446</ele>
        <time>2016-05-08T08:44:35.000Z</time>
      </trkpt>
      <trkpt lat="47.47827" lon="6.67522">
        <ele>446</ele>
        <time>2016-05-08T08:44:36.000Z</time>
      </trkpt>
      <trkpt lat="47.47827" lon="6.67518">
        <ele>446</ele>
        <time>2016-05-08T08:44:37.000Z</time>
      </trkpt>
      <trkpt lat="47.47827" lon="6.67515">
        <ele>446</ele>
        <time>2016-05-08T08:44:38.000Z</time>
      </trkpt>
      <trkpt lat="47.47827" lon="6.67511">
        <ele>446</ele>
        <time>2016-05-08T08:44:39.000Z</time>
      </trkpt>
      <trkpt lat="47.47827" lon="6.67508">
        <ele>446</ele>
        <time>2016-05-08T08:44:40.000Z</time>
      </trkpt>
      <trkpt lat="47.47827" lon="6.67504">
        <ele>446</ele>
        <time>2016-05-08T08:44:41.000Z</time>
      </trkpt>
      <trkpt lat="47.47828" lon="6.67501">
        <ele>446</ele>
        <time>2016-05-08T08:44:42.000Z</time>
      </trkpt>
      <trkpt lat="47.47829" lon="6.67497">
        <ele>446</ele>
        <time>2016-05-08T08:44:43.000Z</time>
      </trkpt>
      <trkpt lat="47.47829" lon="6.67493">
        <ele>446</ele>
        <time>2016-05-08T08:44:44.000Z</time>
      </trkpt>
      <trkpt lat="47.4783" lon="6.67489">
        <ele>445</ele>
        <time>2016-05-08T08:44:45.000Z</time>
      </trkpt>
      <trkpt lat="47.47831" lon="6.67485">
        <ele>445</ele>
        <time>2016-05-08T08:44:46.000Z</time>
      </trkpt>
      <trkpt lat="47.47832" lon="6.67482">
        <ele>445</ele>
        <time>2016-05-08T08:44:47.000Z</time>
      </trkpt>
      <trkpt lat="47.47833" lon="6.67476">
        <ele>445</ele>
        <time>2016-05-08T08:44:49.000Z</time>
      </trkpt>
      <trkpt lat="47.47833" lon="6.67473">
        <ele>445</ele>
        <time>2016-05-08T08:44:50.000Z</time>
      </trkpt>
      <trkpt lat="47.47834" lon="6.67467">
        <ele>444</ele>
        <time>2016-05-08T08:44:52.000Z</time>
      </trkpt>
      <trkpt lat="47.47835" lon="6.67463">
        <ele>444</ele>
        <time>2016-05-08T08:44:53.000Z</time>
      </trkpt>
      <trkpt lat="47.47835" lon="6.67459">
        <ele>444</ele>
        <time>2016-05-08T08:44:54.000Z</time>
      </trkpt>
      <trkpt lat="47.47836" lon="6.67454">
        <ele>444</ele>
        <time>2016-05-08T08:44:55.000Z</time>
      </trkpt>
      <trkpt lat="47.47837" lon="6.67449">
        <ele>444</ele>
        <time>2016-05-08T08:44:56.000Z</time>
      </trkpt>
      <trkpt lat="47.47838" lon="6.67443">
        <ele>444</ele>
        <time>2016-05-08T08:44:57.000Z</time>
      </trkpt>
      <trkpt lat="47.47839" lon="6.67438">
        <ele>444</ele>
        <time>2016-05-08T08:44:58.000Z</time>
      </trkpt>
      <trkpt lat="47.47839" lon="6.67433">
        <ele>444</ele>
        <time>2016-05-08T08:44:59.000Z</time>
      </trkpt>
      <trkpt lat="47.4784" lon="6.67428">
        <ele>445</ele>
        <time>2016-05-08T08:45:00.000Z</time>
      </trkpt>
      <trkpt lat="47.47841" lon="6.67424">
        <ele>445</ele>
        <time>2016-05-08T08:45:01.000Z</time>
      </trkpt>
      <trkpt lat="47.47842" lon="6.6742">
        <ele>445</ele>
        <time>2016-05-08T08:45:02.000Z</time>
      </trkpt>
      <trkpt lat="47.47843" lon="6.67415">
        <ele>445</ele>
        <time>2016-05-08T08:45:03.000Z</time>
      </trkpt>
      <trkpt lat="47.47844" lon="6.6741">
        <ele>445</ele>
        <time>2016-05-08T08:45:04.000Z</time>
      </trkpt>
      <trkpt lat="47.47845" lon="6.67404">
        <ele>444</ele>
        <time>2016-05-08T08:45:05.000Z</time>
      </trkpt>
      <trkpt lat="47.47846" lon="6.67397">
        <ele>444</ele>
        <time>2016-05-08T08:45:06.000Z</time>
      </trkpt>
      <trkpt lat="47.47846" lon="6.67391">
        <ele>444</ele>
        <time>2016-05-08T08:45:07.000Z</time>
      </trkpt>
      <trkpt lat="47.47847" lon="6.67385">
        <ele>444</ele>
        <time>2016-05-08T08:45:08.000Z</time>
      </trkpt>
      <trkpt lat="47.47848" lon="6.67378">
        <ele>443</ele>
        <time>2016-05-08T08:45:09.000Z</time>
      </trkpt>
      <trkpt lat="47.47849" lon="6.67372">
        <ele>443</ele>
        <time>2016-05-08T08:45:10.000Z</time>
      </trkpt>
      <trkpt lat="47.47848" lon="6.67366">
        <ele>443</ele>
        <time>2016-05-08T08:45:11.000Z</time>
      </trkpt>
      <trkpt lat="47.47848" lon="6.67359">
        <ele>443</ele>
        <time>2016-05-08T08:45:12.000Z</time>
      </trkpt>
      <trkpt lat="47.47848" lon="6.67353">
        <ele>443</ele>
        <time>2016-05-08T08:45:13.000Z</time>
      </trkpt>
      <trkpt lat="47.47848" lon="6.67347">
        <ele>443</ele>
        <time>2016-05-08T08:45:14.000Z</time>
      </trkpt>
      <trkpt lat="47.47849" lon="6.67341">
        <ele>443</ele>
        <time>2016-05-08T08:45:15.000Z</time>
      </trkpt>
      <trkpt lat="47.47849" lon="6.67335">
        <ele>443</ele>
        <time>2016-05-08T08:45:16.000Z</time>
      </trkpt>
      <trkpt lat="47.4785" lon="6.67329">
        <ele>442</ele>
        <time>2016-05-08T08:45:17.000Z</time>
      </trkpt>
      <trkpt lat="47.47851" lon="6.67323">
        <ele>442</ele>
        <time>2016-05-08T08:45:18.000Z</time>
      </trkpt>
      <trkpt lat="47.47853" lon="6.6731">
        <ele>443</ele>
        <time>2016-05-08T08:45:19.000Z</time>
      </trkpt>
      <trkpt lat="47.47853" lon="6.67302">
        <ele>443</ele>
        <time>2016-05-08T08:45:20.000Z</time>
      </trkpt>
      <trkpt lat="47.47854" lon="6.67298">
        <ele>443</ele>
        <time>2016-05-08T08:45:21.000Z</time>
      </trkpt>
      <trkpt lat="47.47854" lon="6.67292">
        <ele>443</ele>
        <time>2016-05-08T08:45:22.000Z</time>
      </trkpt>
      <trkpt lat="47.47855" lon="6.67287">
        <ele>443</ele>
        <time>2016-05-08T08:45:23.000Z</time>
      </trkpt>
      <trkpt lat="47.47856" lon="6.67281">
        <ele>442</ele>
        <time>2016-05-08T08:45:24.000Z</time>
      </trkpt>
      <trkpt lat="47.47857" lon="6.67276">
        <ele>442</ele>
        <time>2016-05-08T08:45:25.000Z</time>
      </trkpt>
      <trkpt lat="47.47858" lon="6.67272">
        <ele>442</ele>
        <time>2016-05-08T08:45:26.000Z</time>
      </trkpt>
      <trkpt lat="47.47858" lon="6.67266">
        <ele>442</ele>
        <time>2016-05-08T08:45:27.000Z</time>
      </trkpt>
      <trkpt lat="47.4786" lon="6.67261">
        <ele>442</ele>
        <time>2016-05-08T08:45:28.000Z</time>
      </trkpt>
      <trkpt lat="47.47861" lon="6.67255">
        <ele>442</ele>
        <time>2016-05-08T08:45:29.000Z</time>
      </trkpt>
      <trkpt lat="47.47862" lon="6.6725">
        <ele>443</ele>
        <time>2016-05-08T08:45:30.000Z</time>
      </trkpt>
      <trkpt lat="47.47863" lon="6.67246">
        <ele>443</ele>
        <time>2016-05-08T08:45:31.000Z</time>
      </trkpt>
      <trkpt lat="47.47863" lon="6.67242">
        <ele>443</ele>
        <time>2016-05-08T08:45:32.000Z</time>
      </trkpt>
      <trkpt lat="47.47864" lon="6.67238">
        <ele>443</ele>
        <time>2016-05-08T08:45:33.000Z</time>
      </trkpt>
      <trkpt lat="47.47864" lon="6.67234">
        <ele>443</ele>
        <time>2016-05-08T08:45:34.000Z</time>
      </trkpt>
      <trkpt lat="47.47865" lon="6.67231">
        <ele>443</ele>
        <time>2016-05-08T08:45:35.000Z</time>
      </trkpt>
      <trkpt lat="47.47865" lon="6.67227">
        <ele>443</ele>
        <time>2016-05-08T08:45:36.000Z</time>
      </trkpt>
      <trkpt lat="47.47865" lon="6.67222">
        <ele>443</ele>
        <time>2016-05-08T08:45:37.000Z</time>
      </trkpt>
      <trkpt lat="47.47865" lon="6.67218">
        <ele>443</ele>
        <time>2016-05-08T08:45:38.000Z</time>
      </trkpt>
      <trkpt lat="47.47865" lon="6.67214">
        <ele>443</ele>
        <time>2016-05-08T08:45:39.000Z</time>
      </trkpt>
      <trkpt lat="47.47865" lon="6.67209">
        <ele>443</ele>
        <time>2016-05-08T08:45:40.000Z</time>
      </trkpt>
      <trkpt lat="47.47865" lon="6.67206">
        <ele>443</ele>
        <time>2016-05-08T08:45:41.000Z</time>
      </trkpt>
      <trkpt lat="47.47865" lon="6.67202">
        <ele>443</ele>
        <time>2016-05-08T08:45:42.000Z</time>
      </trkpt>
      <trkpt lat="47.47865" lon="6.67196">
        <ele>443</ele>
        <time>2016-05-08T08:45:44.000Z</time>
      </trkpt>
      <trkpt lat="47.47866" lon="6.67193">
        <ele>443</ele>
        <time>2016-05-08T08:45:45.000Z</time>
      </trkpt>
      <trkpt lat="47.47865" lon="6.67189">
        <ele>443</ele>
        <time>2016-05-08T08:45:46.000Z</time>
      </trkpt>
      <trkpt lat="47.47865" lon="6.67185">
        <ele>443</ele>
        <time>2016-05-08T08:45:47.000Z</time>
      </trkpt>
      <trkpt lat="47.47866" lon="6.6718">
        <ele>443</ele>
        <time>2016-05-08T08:45:48.000Z</time>
      </trkpt>
      <trkpt lat="47.47866" lon="6.67176">
        <ele>443</ele>
        <time>2016-05-08T08:45:49.000Z</time>
      </trkpt>
      <trkpt lat="47.47866" lon="6.67171">
        <ele>443</ele>
        <time>2016-05-08T08:45:50.000Z</time>
      </trkpt>
      <trkpt lat="47.47867" lon="6.67167">
        <ele>443</ele>
        <time>2016-05-08T08:45:51.000Z</time>
      </trkpt>
      <trkpt lat="47.47868" lon="6.67162">
        <ele>445</ele>
        <time>2016-05-08T08:45:52.000Z</time>
      </trkpt>
      <trkpt lat="47.47869" lon="6.67158">
        <ele>445</ele>
        <time>2016-05-08T08:45:53.000Z</time>
      </trkpt>
      <trkpt lat="47.4787" lon="6.67153">
        <ele>445</ele>
        <time>2016-05-08T08:45:54.000Z</time>
      </trkpt>
      <trkpt lat="47.47871" lon="6.67148">
        <ele>445</ele>
        <time>2016-05-08T08:45:55.000Z</time>
      </trkpt>
      <trkpt lat="47.47872" lon="6.67143">
        <ele>445</ele>
        <time>2016-05-08T08:45:56.000Z</time>
      </trkpt>
      <trkpt lat="47.47873" lon="6.67138">
        <ele>446</ele>
        <time>2016-05-08T08:45:57.000Z</time>
      </trkpt>
      <trkpt lat="47.47873" lon="6.67134">
        <ele>446</ele>
        <time>2016-05-08T08:45:58.000Z</time>
      </trkpt>
      <trkpt lat="47.47874" lon="6.67129">
        <ele>446</ele>
        <time>2016-05-08T08:45:59.000Z</time>
      </trkpt>
      <trkpt lat="47.47876" lon="6.67124">
        <ele>446</ele>
        <time>2016-05-08T08:46:00.000Z</time>
      </trkpt>
      <trkpt lat="47.47877" lon="6.67118">
        <ele>446</ele>
        <time>2016-05-08T08:46:01.000Z</time>
      </trkpt>
      <trkpt lat="47.47878" lon="6.67112">
        <ele>446</ele>
        <time>2016-05-08T08:46:02.000Z</time>
      </trkpt>
      <trkpt lat="47.4788" lon="6.67105">
        <ele>447</ele>
        <time>2016-05-08T08:46:03.000Z</time>
      </trkpt>
      <trkpt lat="47.47881" lon="6.67098">
        <ele>447</ele>
        <time>2016-05-08T08:46:04.000Z</time>
      </trkpt>
      <trkpt lat="47.47883" lon="6.67091">
        <ele>447</ele>
        <time>2016-05-08T08:46:05.000Z</time>
      </trkpt>
      <trkpt lat="47.47883" lon="6.67085">
        <ele>447</ele>
        <time>2016-05-08T08:46:06.000Z</time>
      </trkpt>
      <trkpt lat="47.47884" lon="6.67078">
        <ele>450</ele>
        <time>2016-05-08T08:46:07.000Z</time>
      </trkpt>
      <trkpt lat="47.47884" lon="6.67072">
        <ele>450</ele>
        <time>2016-05-08T08:46:08.000Z</time>
      </trkpt>
      <trkpt lat="47.47884" lon="6.67065">
        <ele>450</ele>
        <time>2016-05-08T08:46:09.000Z</time>
      </trkpt>
      <trkpt lat="47.47884" lon="6.67058">
        <ele>450</ele>
        <time>2016-05-08T08:46:10.000Z</time>
      </trkpt>
      <trkpt lat="47.47884" lon="6.67052">
        <ele>450</ele>
        <time>2016-05-08T08:46:11.000Z</time>
      </trkpt>
      <trkpt lat="47.47885" lon="6.67045">
        <ele>450</ele>
        <time>2016-05-08T08:46:12.000Z</time>
      </trkpt>
      <trkpt lat="47.47886" lon="6.67038">
        <ele>450</ele>
        <time>2016-05-08T08:46:13.000Z</time>
      </trkpt>
      <trkpt lat="47.47887" lon="6.6703">
        <ele>450</ele>
        <time>2016-05-08T08:46:14.000Z</time>
      </trkpt>
      <trkpt lat="47.47889" lon="6.67022">
        <ele>451</ele>
        <time>2016-05-08T08:46:15.000Z</time>
      </trkpt>
      <trkpt lat="47.4789" lon="6.67015">
        <ele>451</ele>
        <time>2016-05-08T08:46:16.000Z</time>
      </trkpt>
      <trkpt lat="47.47892" lon="6.67008">
        <ele>451</ele>
        <time>2016-05-08T08:46:17.000Z</time>
      </trkpt>
      <trkpt lat="47.47894" lon="6.67">
        <ele>452</ele>
        <time>2016-05-08T08:46:18.000Z</time>
      </trkpt>
      <trkpt lat="47.47897" lon="6.66992">
        <ele>452</ele>
        <time>2016-05-08T08:46:19.000Z</time>
      </trkpt>
      <trkpt lat="47.47899" lon="6.66983">
        <ele>451</ele>
        <time>2016-05-08T08:46:20.000Z</time>
      </trkpt>
      <trkpt lat="47.47901" lon="6.66974">
        <ele>451</ele>
        <time>2016-05-08T08:46:21.000Z</time>
      </trkpt>
      <trkpt lat="47.47902" lon="6.66965">
        <ele>451</ele>
        <time>2016-05-08T08:46:22.000Z</time>
      </trkpt>
      <trkpt lat="47.47903" lon="6.66955">
        <ele>451</ele>
        <time>2016-05-08T08:46:23.000Z</time>
      </trkpt>
      <trkpt lat="47.47903" lon="6.66945">
        <ele>450</ele>
        <time>2016-05-08T08:46:24.000Z</time>
      </trkpt>
      <trkpt lat="47.47904" lon="6.66919">
        <ele>450</ele>
        <time>2016-05-08T08:46:25.000Z</time>
      </trkpt>
      <trkpt lat="47.47906" lon="6.66908">
        <ele>449</ele>
        <time>2016-05-08T08:46:26.000Z</time>
      </trkpt>
      <trkpt lat="47.47906" lon="6.66899">
        <ele>449</ele>
        <time>2016-05-08T08:46:27.000Z</time>
      </trkpt>
      <trkpt lat="47.47905" lon="6.6689">
        <ele>449</ele>
        <time>2016-05-08T08:46:28.000Z</time>
      </trkpt>
      <trkpt lat="47.47905" lon="6.66877">
        <ele>448</ele>
        <time>2016-05-08T08:46:29.000Z</time>
      </trkpt>
      <trkpt lat="47.47904" lon="6.66868">
        <ele>448</ele>
        <time>2016-05-08T08:46:30.000Z</time>
      </trkpt>
      <trkpt lat="47.47904" lon="6.66858">
        <ele>449</ele>
        <time>2016-05-08T08:46:31.000Z</time>
      </trkpt>
      <trkpt lat="47.47905" lon="6.66848">
        <ele>449</ele>
        <time>2016-05-08T08:46:32.000Z</time>
      </trkpt>
      <trkpt lat="47.47904" lon="6.66837">
        <ele>449</ele>
        <time>2016-05-08T08:46:33.000Z</time>
      </trkpt>
      <trkpt lat="47.47905" lon="6.66827">
        <ele>448</ele>
        <time>2016-05-08T08:46:34.000Z</time>
      </trkpt>
      <trkpt lat="47.47903" lon="6.66818">
        <ele>448</ele>
        <time>2016-05-08T08:46:35.000Z</time>
      </trkpt>
      <trkpt lat="47.47903" lon="6.66807">
        <ele>448</ele>
        <time>2016-05-08T08:46:36.000Z</time>
      </trkpt>
      <trkpt lat="47.47902" lon="6.66799">
        <ele>447</ele>
        <time>2016-05-08T08:46:37.000Z</time>
      </trkpt>
      <trkpt lat="47.47901" lon="6.6679">
        <ele>447</ele>
        <time>2016-05-08T08:46:38.000Z</time>
      </trkpt>
      <trkpt lat="47.47902" lon="6.66777">
        <ele>447</ele>
        <time>2016-05-08T08:46:39.000Z</time>
      </trkpt>
      <trkpt lat="47.47902" lon="6.6677">
        <ele>447</ele>
        <time>2016-05-08T08:46:40.000Z</time>
      </trkpt>
      <trkpt lat="47.47903" lon="6.66761">
        <ele>448</ele>
        <time>2016-05-08T08:46:41.000Z</time>
      </trkpt>
      <trkpt lat="47.47902" lon="6.66751">
        <ele>448</ele>
        <time>2016-05-08T08:46:42.000Z</time>
      </trkpt>
      <trkpt lat="47.47901" lon="6.66743">
        <ele>447</ele>
        <time>2016-05-08T08:46:43.000Z</time>
      </trkpt>
      <trkpt lat="47.47899" lon="6.66736">
        <ele>446</ele>
        <time>2016-05-08T08:46:44.000Z</time>
      </trkpt>
      <trkpt lat="47.479" lon="6.66729">
        <ele>446</ele>
        <time>2016-05-08T08:46:45.000Z</time>
      </trkpt>
      <trkpt lat="47.47899" lon="6.6672">
        <ele>446</ele>
        <time>2016-05-08T08:46:46.000Z</time>
      </trkpt>
      <trkpt lat="47.47902" lon="6.66708">
        <ele>446</ele>
        <time>2016-05-08T08:46:47.000Z</time>
      </trkpt>
      <trkpt lat="47.47902" lon="6.667">
        <ele>446</ele>
        <time>2016-05-08T08:46:48.000Z</time>
      </trkpt>
      <trkpt lat="47.47902" lon="6.66693">
        <ele>446</ele>
        <time>2016-05-08T08:46:49.000Z</time>
      </trkpt>
      <trkpt lat="47.47902" lon="6.66685">
        <ele>446</ele>
        <time>2016-05-08T08:46:50.000Z</time>
      </trkpt>
      <trkpt lat="47.47901" lon="6.66678">
        <ele>446</ele>
        <time>2016-05-08T08:46:51.000Z</time>
      </trkpt>
      <trkpt lat="47.479" lon="6.6667">
        <ele>447</ele>
        <time>2016-05-08T08:46:52.000Z</time>
      </trkpt>
      <trkpt lat="47.47899" lon="6.66663">
        <ele>445</ele>
        <time>2016-05-08T08:46:53.000Z</time>
      </trkpt>
      <trkpt lat="47.47897" lon="6.66644">
        <ele>444</ele>
        <time>2016-05-08T08:46:54.000Z</time>
      </trkpt>
      <trkpt lat="47.47897" lon="6.66631">
        <ele>444</ele>
        <time>2016-05-08T08:46:55.000Z</time>
      </trkpt>
      <trkpt lat="47.47896" lon="6.66621">
        <ele>443</ele>
        <time>2016-05-08T08:46:56.000Z</time>
      </trkpt>
      <trkpt lat="47.47896" lon="6.6661">
        <ele>443</ele>
        <time>2016-05-08T08:46:57.000Z</time>
      </trkpt>
      <trkpt lat="47.47896" lon="6.66597">
        <ele>444</ele>
        <time>2016-05-08T08:46:58.000Z</time>
      </trkpt>
      <trkpt lat="47.47896" lon="6.66584">
        <ele>444</ele>
        <time>2016-05-08T08:46:59.000Z</time>
      </trkpt>
      <trkpt lat="47.47895" lon="6.66572">
        <ele>442</ele>
        <time>2016-05-08T08:47:00.000Z</time>
      </trkpt>
      <trkpt lat="47.47893" lon="6.66565">
        <ele>441</ele>
        <time>2016-05-08T08:47:01.000Z</time>
      </trkpt>
      <trkpt lat="47.47892" lon="6.66556">
        <ele>440</ele>
        <time>2016-05-08T08:47:02.000Z</time>
      </trkpt>
      <trkpt lat="47.47891" lon="6.66543">
        <ele>440</ele>
        <time>2016-05-08T08:47:03.000Z</time>
      </trkpt>
      <trkpt lat="47.47896" lon="6.66523">
        <ele>440</ele>
        <time>2016-05-08T08:47:04.000Z</time>
      </trkpt>
      <trkpt lat="47.479" lon="6.66505">
        <ele>441</ele>
        <time>2016-05-08T08:47:05.000Z</time>
      </trkpt>
      <trkpt lat="47.47902" lon="6.66492">
        <ele>439</ele>
        <time>2016-05-08T08:47:06.000Z</time>
      </trkpt>
      <trkpt lat="47.47903" lon="6.6648">
        <ele>438</ele>
        <time>2016-05-08T08:47:07.000Z</time>
      </trkpt>
      <trkpt lat="47.47904" lon="6.66465">
        <ele>437</ele>
        <time>2016-05-08T08:47:08.000Z</time>
      </trkpt>
      <trkpt lat="47.47909" lon="6.66447">
        <ele>437</ele>
        <time>2016-05-08T08:47:09.000Z</time>
      </trkpt>
      <trkpt lat="47.47912" lon="6.66435">
        <ele>437</ele>
        <time>2016-05-08T08:47:10.000Z</time>
      </trkpt>
      <trkpt lat="47.47915" lon="6.66426">
        <ele>438</ele>
        <time>2016-05-08T08:47:11.000Z</time>
      </trkpt>
      <trkpt lat="47.47919" lon="6.66416">
        <ele>439</ele>
        <time>2016-05-08T08:47:12.000Z</time>
      </trkpt>
      <trkpt lat="47.47923" lon="6.66407">
        <ele>439</ele>
        <time>2016-05-08T08:47:13.000Z</time>
      </trkpt>
      <trkpt lat="47.47928" lon="6.66398">
        <ele>439</ele>
        <time>2016-05-08T08:47:14.000Z</time>
      </trkpt>
      <trkpt lat="47.47932" lon="6.66392">
        <ele>439</ele>
        <time>2016-05-08T08:47:15.000Z</time>
      </trkpt>
      <trkpt lat="47.47935" lon="6.66387">
        <ele>439</ele>
        <time>2016-05-08T08:47:16.000Z</time>
      </trkpt>
      <trkpt lat="47.47936" lon="6.66379">
        <ele>439</ele>
        <time>2016-05-08T08:47:17.000Z</time>
      </trkpt>
      <trkpt lat="47.47938" lon="6.6637">
        <ele>439</ele>
        <time>2016-05-08T08:47:18.000Z</time>
      </trkpt>
      <trkpt lat="47.4794" lon="6.66363">
        <ele>438</ele>
        <time>2016-05-08T08:47:19.000Z</time>
      </trkpt>
      <trkpt lat="47.47943" lon="6.66354">
        <ele>438</ele>
        <time>2016-05-08T08:47:20.000Z</time>
      </trkpt>
      <trkpt lat="47.47945" lon="6.66349">
        <ele>438</ele>
        <time>2016-05-08T08:47:21.000Z</time>
      </trkpt>
      <trkpt lat="47.47947" lon="6.66342">
        <ele>438</ele>
        <time>2016-05-08T08:47:22.000Z</time>
      </trkpt>
      <trkpt lat="47.47949" lon="6.66337">
        <ele>438</ele>
        <time>2016-05-08T08:47:23.000Z</time>
      </trkpt>
      <trkpt lat="47.47951" lon="6.66332">
        <ele>439</ele>
        <time>2016-05-08T08:47:24.000Z</time>
      </trkpt>
      <trkpt lat="47.47952" lon="6.66327">
        <ele>439</ele>
        <time>2016-05-08T08:47:25.000Z</time>
      </trkpt>
      <trkpt lat="47.47953" lon="6.66324">
        <ele>439</ele>
        <time>2016-05-08T08:47:26.000Z</time>
      </trkpt>
      <trkpt lat="47.47953" lon="6.66318">
        <ele>439</ele>
        <time>2016-05-08T08:47:28.000Z</time>
      </trkpt>
      <trkpt lat="47.47953" lon="6.66314">
        <ele>439</ele>
        <time>2016-05-08T08:47:29.000Z</time>
      </trkpt>
      <trkpt lat="47.47953" lon="6.66309">
        <ele>439</ele>
        <time>2016-05-08T08:47:30.000Z</time>
      </trkpt>
      <trkpt lat="47.47953" lon="6.66304">
        <ele>439</ele>
        <time>2016-05-08T08:47:31.000Z</time>
      </trkpt>
      <trkpt lat="47.47954" lon="6.663">
        <ele>439</ele>
        <time>2016-05-08T08:47:32.000Z</time>
      </trkpt>
      <trkpt lat="47.47954" lon="6.66295">
        <ele>439</ele>
        <time>2016-05-08T08:47:33.000Z</time>
      </trkpt>
      <trkpt lat="47.47955" lon="6.66291">
        <ele>439</ele>
        <time>2016-05-08T08:47:34.000Z</time>
      </trkpt>
      <trkpt lat="47.47956" lon="6.66287">
        <ele>439</ele>
        <time>2016-05-08T08:47:35.000Z</time>
      </trkpt>
      <trkpt lat="47.47957" lon="6.66283">
        <ele>439</ele>
        <time>2016-05-08T08:47:36.000Z</time>
      </trkpt>
      <trkpt lat="47.47958" lon="6.66279">
        <ele>439</ele>
        <time>2016-05-08T08:47:37.000Z</time>
      </trkpt>
      <trkpt lat="47.4796" lon="6.66276">
        <ele>439</ele>
        <time>2016-05-08T08:47:38.000Z</time>
      </trkpt>
      <trkpt lat="47.47961" lon="6.66272">
        <ele>439</ele>
        <time>2016-05-08T08:47:39.000Z</time>
      </trkpt>
      <trkpt lat="47.47963" lon="6.66269">
        <ele>439</ele>
        <time>2016-05-08T08:47:40.000Z</time>
      </trkpt>
      <trkpt lat="47.47964" lon="6.66265">
        <ele>439</ele>
        <time>2016-05-08T08:47:41.000Z</time>
      </trkpt>
      <trkpt lat="47.47966" lon="6.66262">
        <ele>439</ele>
        <time>2016-05-08T08:47:42.000Z</time>
      </trkpt>
      <trkpt lat="47.47967" lon="6.66259">
        <ele>440</ele>
        <time>2016-05-08T08:47:43.000Z</time>
      </trkpt>
      <trkpt lat="47.47968" lon="6.66256">
        <ele>440</ele>
        <time>2016-05-08T08:47:44.000Z</time>
      </trkpt>
      <trkpt lat="47.47969" lon="6.66253">
        <ele>440</ele>
        <time>2016-05-08T08:47:45.000Z</time>
      </trkpt>
      <trkpt lat="47.47971" lon="6.6625">
        <ele>440</ele>
        <time>2016-05-08T08:47:46.000Z</time>
      </trkpt>
      <trkpt lat="47.47973" lon="6.66246">
        <ele>440</ele>
        <time>2016-05-08T08:47:47.000Z</time>
      </trkpt>
      <trkpt lat="47.47974" lon="6.66241">
        <ele>440</ele>
        <time>2016-05-08T08:47:48.000Z</time>
      </trkpt>
      <trkpt lat="47.47976" lon="6.66236">
        <ele>440</ele>
        <time>2016-05-08T08:47:49.000Z</time>
      </trkpt>
      <trkpt lat="47.47978" lon="6.66231">
        <ele>440</ele>
        <time>2016-05-08T08:47:50.000Z</time>
      </trkpt>
      <trkpt lat="47.4798" lon="6.66225">
        <ele>440</ele>
        <time>2016-05-08T08:47:51.000Z</time>
      </trkpt>
      <trkpt lat="47.47981" lon="6.6622">
        <ele>440</ele>
        <time>2016-05-08T08:47:52.000Z</time>
      </trkpt>
      <trkpt lat="47.47982" lon="6.66215">
        <ele>440</ele>
        <time>2016-05-08T08:47:53.000Z</time>
      </trkpt>
      <trkpt lat="47.47984" lon="6.6621">
        <ele>440</ele>
        <time>2016-05-08T08:47:54.000Z</time>
      </trkpt>
      <trkpt lat="47.47984" lon="6.66205">
        <ele>440</ele>
        <time>2016-05-08T08:47:55.000Z</time>
      </trkpt>
      <trkpt lat="47.47985" lon="6.66201">
        <ele>440</ele>
        <time>2016-05-08T08:47:56.000Z</time>
      </trkpt>
      <trkpt lat="47.47985" lon="6.66197">
        <ele>441</ele>
        <time>2016-05-08T08:47:57.000Z</time>
      </trkpt>
      <trkpt lat="47.47985" lon="6.66194">
        <ele>441</ele>
        <time>2016-05-08T08:47:58.000Z</time>
      </trkpt>
      <trkpt lat="47.47985" lon="6.6619">
        <ele>441</ele>
        <time>2016-05-08T08:47:59.000Z</time>
      </trkpt>
      <trkpt lat="47.47985" lon="6.66186">
        <ele>441</ele>
        <time>2016-05-08T08:48:00.000Z</time>
      </trkpt>
      <trkpt lat="47.47986" lon="6.66181">
        <ele>441</ele>
        <time>2016-05-08T08:48:01.000Z</time>
      </trkpt>
      <trkpt lat="47.47986" lon="6.66177">
        <ele>441</ele>
        <time>2016-05-08T08:48:02.000Z</time>
      </trkpt>
      <trkpt lat="47.47987" lon="6.66172">
        <ele>441</ele>
        <time>2016-05-08T08:48:03.000Z</time>
      </trkpt>
      <trkpt lat="47.47987" lon="6.66168">
        <ele>441</ele>
        <time>2016-05-08T08:48:04.000Z</time>
      </trkpt>
      <trkpt lat="47.47987" lon="6.66164">
        <ele>442</ele>
        <time>2016-05-08T08:48:05.000Z</time>
      </trkpt>
      <trkpt lat="47.47987" lon="6.66159">
        <ele>442</ele>
        <time>2016-05-08T08:48:06.000Z</time>
      </trkpt>
      <trkpt lat="47.47987" lon="6.66155">
        <ele>441</ele>
        <time>2016-05-08T08:48:07.000Z</time>
      </trkpt>
      <trkpt lat="47.47988" lon="6.66151">
        <ele>441</ele>
        <time>2016-05-08T08:48:08.000Z</time>
      </trkpt>
      <trkpt lat="47.47988" lon="6.66147">
        <ele>441</ele>
        <time>2016-05-08T08:48:09.000Z</time>
      </trkpt>
      <trkpt lat="47.47989" lon="6.66143">
        <ele>441</ele>
        <time>2016-05-08T08:48:10.000Z</time>
      </trkpt>
      <trkpt lat="47.47989" lon="6.66139">
        <ele>441</ele>
        <time>2016-05-08T08:48:11.000Z</time>
      </trkpt>
      <trkpt lat="47.4799" lon="6.66135">
        <ele>441</ele>
        <time>2016-05-08T08:48:12.000Z</time>
      </trkpt>
      <trkpt lat="47.4799" lon="6.66131">
        <ele>441</ele>
        <time>2016-05-08T08:48:13.000Z</time>
      </trkpt>
      <trkpt lat="47.47991" lon="6.66126">
        <ele>441</ele>
        <time>2016-05-08T08:48:14.000Z</time>
      </trkpt>
      <trkpt lat="47.47991" lon="6.6612">
        <ele>441</ele>
        <time>2016-05-08T08:48:15.000Z</time>
      </trkpt>
      <trkpt lat="47.47992" lon="6.66115">
        <ele>441</ele>
        <time>2016-05-08T08:48:16.000Z</time>
      </trkpt>
      <trkpt lat="47.47993" lon="6.66109">
        <ele>442</ele>
        <time>2016-05-08T08:48:17.000Z</time>
      </trkpt>
      <trkpt lat="47.47994" lon="6.66103">
        <ele>442</ele>
        <time>2016-05-08T08:48:18.000Z</time>
      </trkpt>
      <trkpt lat="47.47995" lon="6.66098">
        <ele>442</ele>
        <time>2016-05-08T08:48:19.000Z</time>
      </trkpt>
      <trkpt lat="47.47996" lon="6.66093">
        <ele>443</ele>
        <time>2016-05-08T08:48:20.000Z</time>
      </trkpt>
      <trkpt lat="47.47996" lon="6.66089">
        <ele>443</ele>
        <time>2016-05-08T08:48:21.000Z</time>
      </trkpt>
      <trkpt lat="47.47996" lon="6.66085">
        <ele>443</ele>
        <time>2016-05-08T08:48:22.000Z</time>
      </trkpt>
      <trkpt lat="47.47997" lon="6.6608">
        <ele>444</ele>
        <time>2016-05-08T08:48:23.000Z</time>
      </trkpt>
      <trkpt lat="47.47999" lon="6.66076">
        <ele>443</ele>
        <time>2016-05-08T08:48:24.000Z</time>
      </trkpt>
      <trkpt lat="47.48001" lon="6.6607">
        <ele>445</ele>
        <time>2016-05-08T08:48:25.000Z</time>
      </trkpt>
      <trkpt lat="47.48003" lon="6.66065">
        <ele>445</ele>
        <time>2016-05-08T08:48:26.000Z</time>
      </trkpt>
      <trkpt lat="47.48005" lon="6.66059">
        <ele>445</ele>
        <time>2016-05-08T08:48:27.000Z</time>
      </trkpt>
      <trkpt lat="47.48007" lon="6.66054">
        <ele>445</ele>
        <time>2016-05-08T08:48:28.000Z</time>
      </trkpt>
      <trkpt lat="47.4801" lon="6.66048">
        <ele>445</ele>
        <time>2016-05-08T08:48:29.000Z</time>
      </trkpt>
      <trkpt lat="47.48013" lon="6.66042">
        <ele>445</ele>
        <time>2016-05-08T08:48:30.000Z</time>
      </trkpt>
      <trkpt lat="47.48016" lon="6.66036">
        <ele>445</ele>
        <time>2016-05-08T08:48:31.000Z</time>
      </trkpt>
      <trkpt lat="47.48019" lon="6.6603">
        <ele>446</ele>
        <time>2016-05-08T08:48:32.000Z</time>
      </trkpt>
      <trkpt lat="47.48022" lon="6.66025">
        <ele>446</ele>
        <time>2016-05-08T08:48:33.000Z</time>
      </trkpt>
      <trkpt lat="47.48025" lon="6.6602">
        <ele>446</ele>
        <time>2016-05-08T08:48:34.000Z</time>
      </trkpt>
      <trkpt lat="47.48027" lon="6.66016">
        <ele>446</ele>
        <time>2016-05-08T08:48:35.000Z</time>
      </trkpt>
      <trkpt lat="47.4803" lon="6.66012">
        <ele>446</ele>
        <time>2016-05-08T08:48:36.000Z</time>
      </trkpt>
      <trkpt lat="47.48032" lon="6.66008">
        <ele>446</ele>
        <time>2016-05-08T08:48:37.000Z</time>
      </trkpt>
      <trkpt lat="47.48034" lon="6.66004">
        <ele>446</ele>
        <time>2016-05-08T08:48:38.000Z</time>
      </trkpt>
      <trkpt lat="47.48036" lon="6.66">
        <ele>446</ele>
        <time>2016-05-08T08:48:39.000Z</time>
      </trkpt>
      <trkpt lat="47.48038" lon="6.65996">
        <ele>446</ele>
        <time>2016-05-08T08:48:40.000Z</time>
      </trkpt>
      <trkpt lat="47.4804" lon="6.65992">
        <ele>446</ele>
        <time>2016-05-08T08:48:41.000Z</time>
      </trkpt>
      <trkpt lat="47.48042" lon="6.65988">
        <ele>446</ele>
        <time>2016-05-08T08:48:42.000Z</time>
      </trkpt>
      <trkpt lat="47.48043" lon="6.65982">
        <ele>446</ele>
        <time>2016-05-08T08:48:43.000Z</time>
      </trkpt>
      <trkpt lat="47.48045" lon="6.65977">
        <ele>446</ele>
        <time>2016-05-08T08:48:44.000Z</time>
      </trkpt>
      <trkpt lat="47.48047" lon="6.65971">
        <ele>446</ele>
        <time>2016-05-08T08:48:45.000Z</time>
      </trkpt>
      <trkpt lat="47.48049" lon="6.65966">
        <ele>446</ele>
        <time>2016-05-08T08:48:46.000Z</time>
      </trkpt>
      <trkpt lat="47.4805" lon="6.65962">
        <ele>446</ele>
        <time>2016-05-08T08:48:47.000Z</time>
      </trkpt>
      <trkpt lat="47.48052" lon="6.65959">
        <ele>446</ele>
        <time>2016-05-08T08:48:48.000Z</time>
      </trkpt>
      <trkpt lat="47.48054" lon="6.65955">
        <ele>446</ele>
        <time>2016-05-08T08:48:49.000Z</time>
      </trkpt>
      <trkpt lat="47.48057" lon="6.6595">
        <ele>446</ele>
        <time>2016-05-08T08:48:50.000Z</time>
      </trkpt>
      <trkpt lat="47.48059" lon="6.65945">
        <ele>447</ele>
        <time>2016-05-08T08:48:51.000Z</time>
      </trkpt>
      <trkpt lat="47.48062" lon="6.6594">
        <ele>447</ele>
        <time>2016-05-08T08:48:52.000Z</time>
      </trkpt>
      <trkpt lat="47.48065" lon="6.65935">
        <ele>447</ele>
        <time>2016-05-08T08:48:53.000Z</time>
      </trkpt>
      <trkpt lat="47.48068" lon="6.6593">
        <ele>447</ele>
        <time>2016-05-08T08:48:54.000Z</time>
      </trkpt>
      <trkpt lat="47.48071" lon="6.65925">
        <ele>447</ele>
        <time>2016-05-08T08:48:55.000Z</time>
      </trkpt>
      <trkpt lat="47.48075" lon="6.6592">
        <ele>447</ele>
        <time>2016-05-08T08:48:56.000Z</time>
      </trkpt>
      <trkpt lat="47.48078" lon="6.65915">
        <ele>447</ele>
        <time>2016-05-08T08:48:57.000Z</time>
      </trkpt>
      <trkpt lat="47.48081" lon="6.65911">
        <ele>447</ele>
        <time>2016-05-08T08:48:58.000Z</time>
      </trkpt>
      <trkpt lat="47.48085" lon="6.65907">
        <ele>448</ele>
        <time>2016-05-08T08:48:59.000Z</time>
      </trkpt>
      <trkpt lat="47.48088" lon="6.65904">
        <ele>448</ele>
        <time>2016-05-08T08:49:00.000Z</time>
      </trkpt>
      <trkpt lat="47.48092" lon="6.65901">
        <ele>449</ele>
        <time>2016-05-08T08:49:01.000Z</time>
      </trkpt>
      <trkpt lat="47.48095" lon="6.65899">
        <ele>449</ele>
        <time>2016-05-08T08:49:02.000Z</time>
      </trkpt>
      <trkpt lat="47.48098" lon="6.65898">
        <ele>449</ele>
        <time>2016-05-08T08:49:03.000Z</time>
      </trkpt>
      <trkpt lat="47.48103" lon="6.65897">
        <ele>449</ele>
        <time>2016-05-08T08:49:04.000Z</time>
      </trkpt>
      <trkpt lat="47.48106" lon="6.65896">
        <ele>449</ele>
        <time>2016-05-08T08:49:05.000Z</time>
      </trkpt>
      <trkpt lat="47.48109" lon="6.65895">
        <ele>449</ele>
        <time>2016-05-08T08:49:06.000Z</time>
      </trkpt>
      <trkpt lat="47.48113" lon="6.65893">
        <ele>449</ele>
        <time>2016-05-08T08:49:07.000Z</time>
      </trkpt>
      <trkpt lat="47.48116" lon="6.65891">
        <ele>449</ele>
        <time>2016-05-08T08:49:08.000Z</time>
      </trkpt>
      <trkpt lat="47.48119" lon="6.65888">
        <ele>449</ele>
        <time>2016-05-08T08:49:09.000Z</time>
      </trkpt>
      <trkpt lat="47.48122" lon="6.65885">
        <ele>449</ele>
        <time>2016-05-08T08:49:10.000Z</time>
      </trkpt>
      <trkpt lat="47.48125" lon="6.65881">
        <ele>449</ele>
        <time>2016-05-08T08:49:11.000Z</time>
      </trkpt>
      <trkpt lat="47.48128" lon="6.65878">
        <ele>449</ele>
        <time>2016-05-08T08:49:12.000Z</time>
      </trkpt>
      <trkpt lat="47.48131" lon="6.65876">
        <ele>449</ele>
        <time>2016-05-08T08:49:13.000Z</time>
      </trkpt>
      <trkpt lat="47.48134" lon="6.65874">
        <ele>449</ele>
        <time>2016-05-08T08:49:14.000Z</time>
      </trkpt>
      <trkpt lat="47.48136" lon="6.65872">
        <ele>450</ele>
        <time>2016-05-08T08:49:15.000Z</time>
      </trkpt>
      <trkpt lat="47.48139" lon="6.65871">
        <ele>450</ele>
        <time>2016-05-08T08:49:16.000Z</time>
      </trkpt>
      <trkpt lat="47.48142" lon="6.65869">
        <ele>450</ele>
        <time>2016-05-08T08:49:17.000Z</time>
      </trkpt>
      <trkpt lat="47.48144" lon="6.65868">
        <ele>450</ele>
        <time>2016-05-08T08:49:18.000Z</time>
      </trkpt>
      <trkpt lat="47.48147" lon="6.65866">
        <ele>450</ele>
        <time>2016-05-08T08:49:19.000Z</time>
      </trkpt>
      <trkpt lat="47.48149" lon="6.65864">
        <ele>450</ele>
        <time>2016-05-08T08:49:20.000Z</time>
      </trkpt>
      <trkpt lat="47.48151" lon="6.65862">
        <ele>450</ele>
        <time>2016-05-08T08:49:21.000Z</time>
      </trkpt>
      <trkpt lat="47.48153" lon="6.6586">
        <ele>450</ele>
        <time>2016-05-08T08:49:22.000Z</time>
      </trkpt>
      <trkpt lat="47.48156" lon="6.65856">
        <ele>450</ele>
        <time>2016-05-08T08:49:24.000Z</time>
      </trkpt>
      <trkpt lat="47.48157" lon="6.65855">
        <ele>450</ele>
        <time>2016-05-08T08:49:25.000Z</time>
      </trkpt>
      <trkpt lat="47.48154" lon="6.6585">
        <ele>450</ele>
        <time>2016-05-08T08:49:29.000Z</time>
      </trkpt>
      <trkpt lat="47.48154" lon="6.65849">
        <ele>450</ele>
        <time>2016-05-08T08:49:30.000Z</time>
      </trkpt>
      <trkpt lat="47.48153" lon="6.65842">
        <ele>451</ele>
        <time>2016-05-08T08:49:33.000Z</time>
      </trkpt>
      <trkpt lat="47.48154" lon="6.6584">
        <ele>451</ele>
        <time>2016-05-08T08:49:34.000Z</time>
      </trkpt>
      <trkpt lat="47.48155" lon="6.65837">
        <ele>451</ele>
        <time>2016-05-08T08:49:35.000Z</time>
      </trkpt>
      <trkpt lat="47.48157" lon="6.65834">
        <ele>451</ele>
        <time>2016-05-08T08:49:36.000Z</time>
      </trkpt>
      <trkpt lat="47.48159" lon="6.65831">
        <ele>451</ele>
        <time>2016-05-08T08:49:37.000Z</time>
      </trkpt>
      <trkpt lat="47.48162" lon="6.65827">
        <ele>451</ele>
        <time>2016-05-08T08:49:38.000Z</time>
      </trkpt>
      <trkpt lat="47.48165" lon="6.65823">
        <ele>451</ele>
        <time>2016-05-08T08:49:39.000Z</time>
      </trkpt>
      <trkpt lat="47.48167" lon="6.65818">
        <ele>453</ele>
        <time>2016-05-08T08:49:40.000Z</time>
      </trkpt>
      <trkpt lat="47.48168" lon="6.65814">
        <ele>453</ele>
        <time>2016-05-08T08:49:41.000Z</time>
      </trkpt>
      <trkpt lat="47.4817" lon="6.65809">
        <ele>453</ele>
        <time>2016-05-08T08:49:42.000Z</time>
      </trkpt>
      <trkpt lat="47.48171" lon="6.65805">
        <ele>453</ele>
        <time>2016-05-08T08:49:43.000Z</time>
      </trkpt>
      <trkpt lat="47.48172" lon="6.658">
        <ele>453</ele>
        <time>2016-05-08T08:49:44.000Z</time>
      </trkpt>
      <trkpt lat="47.48173" lon="6.65795">
        <ele>453</ele>
        <time>2016-05-08T08:49:45.000Z</time>
      </trkpt>
      <trkpt lat="47.48174" lon="6.65791">
        <ele>453</ele>
        <time>2016-05-08T08:49:46.000Z</time>
      </trkpt>
      <trkpt lat="47.48176" lon="6.65786">
        <ele>453</ele>
        <time>2016-05-08T08:49:47.000Z</time>
      </trkpt>
      <trkpt lat="47.48179" lon="6.65781">
        <ele>453</ele>
        <time>2016-05-08T08:49:48.000Z</time>
      </trkpt>
      <trkpt lat="47.48181" lon="6.65777">
        <ele>453</ele>
        <time>2016-05-08T08:49:49.000Z</time>
      </trkpt>
      <trkpt lat="47.48184" lon="6.65771">
        <ele>453</ele>
        <time>2016-05-08T08:49:50.000Z</time>
      </trkpt>
      <trkpt lat="47.48188" lon="6.65766">
        <ele>453</ele>
        <time>2016-05-08T08:49:51.000Z</time>
      </trkpt>
      <trkpt lat="47.48191" lon="6.6576">
        <ele>453</ele>
        <time>2016-05-08T08:49:52.000Z</time>
      </trkpt>
      <trkpt lat="47.48195" lon="6.65755">
        <ele>453</ele>
        <time>2016-05-08T08:49:53.000Z</time>
      </trkpt>
      <trkpt lat="47.48198" lon="6.6575">
        <ele>453</ele>
        <time>2016-05-08T08:49:54.000Z</time>
      </trkpt>
      <trkpt lat="47.48201" lon="6.65746">
        <ele>454</ele>
        <time>2016-05-08T08:49:55.000Z</time>
      </trkpt>
      <trkpt lat="47.48202" lon="6.65743">
        <ele>454</ele>
        <time>2016-05-08T08:49:56.000Z</time>
      </trkpt>
      <trkpt lat="47.48204" lon="6.65737">
        <ele>454</ele>
        <time>2016-05-08T08:49:58.000Z</time>
      </trkpt>
      <trkpt lat="47.48205" lon="6.65735">
        <ele>454</ele>
        <time>2016-05-08T08:49:59.000Z</time>
      </trkpt>
      <trkpt lat="47.48207" lon="6.65729">
        <ele>454</ele>
        <time>2016-05-08T08:50:01.000Z</time>
      </trkpt>
      <trkpt lat="47.48208" lon="6.65726">
        <ele>454</ele>
        <time>2016-05-08T08:50:02.000Z</time>
      </trkpt>
      <trkpt lat="47.4821" lon="6.65722">
        <ele>454</ele>
        <time>2016-05-08T08:50:04.000Z</time>
      </trkpt>
      <trkpt lat="47.48211" lon="6.6572">
        <ele>454</ele>
        <time>2016-05-08T08:50:05.000Z</time>
      </trkpt>
      <trkpt lat="47.48213" lon="6.65716">
        <ele>454</ele>
        <time>2016-05-08T08:50:07.000Z</time>
      </trkpt>
      <trkpt lat="47.48215" lon="6.65713">
        <ele>454</ele>
        <time>2016-05-08T08:50:08.000Z</time>
      </trkpt>
      <trkpt lat="47.48216" lon="6.65709">
        <ele>454</ele>
        <time>2016-05-08T08:50:09.000Z</time>
      </trkpt>
      <trkpt lat="47.48218" lon="6.65705">
        <ele>454</ele>
        <time>2016-05-08T08:50:10.000Z</time>
      </trkpt>
      <trkpt lat="47.48221" lon="6.65701">
        <ele>454</ele>
        <time>2016-05-08T08:50:11.000Z</time>
      </trkpt>
      <trkpt lat="47.48223" lon="6.65696">
        <ele>454</ele>
        <time>2016-05-08T08:50:12.000Z</time>
      </trkpt>
      <trkpt lat="47.48226" lon="6.65692">
        <ele>454</ele>
        <time>2016-05-08T08:50:13.000Z</time>
      </trkpt>
      <trkpt lat="47.48227" lon="6.65688">
        <ele>454</ele>
        <time>2016-05-08T08:50:14.000Z</time>
      </trkpt>
      <trkpt lat="47.48229" lon="6.65682">
        <ele>454</ele>
        <time>2016-05-08T08:50:16.000Z</time>
      </trkpt>
      <trkpt lat="47.48229" lon="6.6568">
        <ele>454</ele>
        <time>2016-05-08T08:50:17.000Z</time>
      </trkpt>
      <trkpt lat="47.48228" lon="6.65677">
        <ele>454</ele>
        <time>2016-05-08T08:50:19.000Z</time>
      </trkpt>
      <trkpt lat="47.48228" lon="6.65673">
        <ele>454</ele>
        <time>2016-05-08T08:50:20.000Z</time>
      </trkpt>
      <trkpt lat="47.48228" lon="6.65669">
        <ele>455</ele>
        <time>2016-05-08T08:50:21.000Z</time>
      </trkpt>
      <trkpt lat="47.48229" lon="6.65665">
        <ele>454</ele>
        <time>2016-05-08T08:50:22.000Z</time>
      </trkpt>
      <trkpt lat="47.48231" lon="6.6566">
        <ele>454</ele>
        <time>2016-05-08T08:50:24.000Z</time>
      </trkpt>
      <trkpt lat="47.48231" lon="6.65658">
        <ele>454</ele>
        <time>2016-05-08T08:50:25.000Z</time>
      </trkpt>
      <trkpt lat="47.48231" lon="6.65654">
        <ele>454</ele>
        <time>2016-05-08T08:50:27.000Z</time>
      </trkpt>
      <trkpt lat="47.48232" lon="6.65651">
        <ele>454</ele>
        <time>2016-05-08T08:50:28.000Z</time>
      </trkpt>
      <trkpt lat="47.48231" lon="6.65645">
        <ele>454</ele>
        <time>2016-05-08T08:50:31.000Z</time>
      </trkpt>
      <trkpt lat="47.48232" lon="6.65643">
        <ele>454</ele>
        <time>2016-05-08T08:50:32.000Z</time>
      </trkpt>
      <trkpt lat="47.48233" lon="6.6564">
        <ele>454</ele>
        <time>2016-05-08T08:50:33.000Z</time>
      </trkpt>
      <trkpt lat="47.48235" lon="6.65637">
        <ele>454</ele>
        <time>2016-05-08T08:50:34.000Z</time>
      </trkpt>
      <trkpt lat="47.48236" lon="6.65633">
        <ele>454</ele>
        <time>2016-05-08T08:50:35.000Z</time>
      </trkpt>
      <trkpt lat="47.48238" lon="6.65628">
        <ele>454</ele>
        <time>2016-05-08T08:50:36.000Z</time>
      </trkpt>
      <trkpt lat="47.4824" lon="6.65624">
        <ele>454</ele>
        <time>2016-05-08T08:50:37.000Z</time>
      </trkpt>
      <trkpt lat="47.48241" lon="6.6562">
        <ele>454</ele>
        <time>2016-05-08T08:50:38.000Z</time>
      </trkpt>
      <trkpt lat="47.48243" lon="6.65616">
        <ele>454</ele>
        <time>2016-05-08T08:50:39.000Z</time>
      </trkpt>
      <trkpt lat="47.48244" lon="6.65612">
        <ele>454</ele>
        <time>2016-05-08T08:50:40.000Z</time>
      </trkpt>
      <trkpt lat="47.48245" lon="6.65607">
        <ele>454</ele>
        <time>2016-05-08T08:50:41.000Z</time>
      </trkpt>
      <trkpt lat="47.48246" lon="6.65603">
        <ele>454</ele>
        <time>2016-05-08T08:50:42.000Z</time>
      </trkpt>
      <trkpt lat="47.48247" lon="6.65598">
        <ele>454</ele>
        <time>2016-05-08T08:50:43.000Z</time>
      </trkpt>
      <trkpt lat="47.48248" lon="6.65594">
        <ele>454</ele>
        <time>2016-05-08T08:50:44.000Z</time>
      </trkpt>
      <trkpt lat="47.4825" lon="6.6559">
        <ele>455</ele>
        <time>2016-05-08T08:50:45.000Z</time>
      </trkpt>
      <trkpt lat="47.4825" lon="6.65587">
        <ele>455</ele>
        <time>2016-05-08T08:50:46.000Z</time>
      </trkpt>
      <trkpt lat="47.4825" lon="6.65581">
        <ele>455</ele>
        <time>2016-05-08T08:50:49.000Z</time>
      </trkpt>
      <trkpt lat="47.4825" lon="6.65578">
        <ele>455</ele>
        <time>2016-05-08T08:50:50.000Z</time>
      </trkpt>
      <trkpt lat="47.4825" lon="6.65574">
        <ele>455</ele>
        <time>2016-05-08T08:50:52.000Z</time>
      </trkpt>
      <trkpt lat="47.4825" lon="6.65571">
        <ele>455</ele>
        <time>2016-05-08T08:50:53.000Z</time>
      </trkpt>
      <trkpt lat="47.48249" lon="6.65565">
        <ele>455</ele>
        <time>2016-05-08T08:50:55.000Z</time>
      </trkpt>
      <trkpt lat="47.48249" lon="6.65562">
        <ele>455</ele>
        <time>2016-05-08T08:50:56.000Z</time>
      </trkpt>
      <trkpt lat="47.48248" lon="6.65558">
        <ele>455</ele>
        <time>2016-05-08T08:50:59.000Z</time>
      </trkpt>
      <trkpt lat="47.48247" lon="6.65556">
        <ele>455</ele>
        <time>2016-05-08T08:51:00.000Z</time>
      </trkpt>
      <trkpt lat="47.48245" lon="6.65552">
        <ele>455</ele>
        <time>2016-05-08T08:51:02.000Z</time>
      </trkpt>
      <trkpt lat="47.48244" lon="6.65549">
        <ele>456</ele>
        <time>2016-05-08T08:51:03.000Z</time>
      </trkpt>
      <trkpt lat="47.48241" lon="6.65544">
        <ele>456</ele>
        <time>2016-05-08T08:51:05.000Z</time>
      </trkpt>
      <trkpt lat="47.4824" lon="6.65542">
        <ele>456</ele>
        <time>2016-05-08T08:51:06.000Z</time>
      </trkpt>
      <trkpt lat="47.48237" lon="6.65537">
        <ele>456</ele>
        <time>2016-05-08T08:51:08.000Z</time>
      </trkpt>
      <trkpt lat="47.48235" lon="6.65535">
        <ele>456</ele>
        <time>2016-05-08T08:51:09.000Z</time>
      </trkpt>
      <trkpt lat="47.48234" lon="6.65531">
        <ele>456</ele>
        <time>2016-05-08T08:51:10.000Z</time>
      </trkpt>
      <trkpt lat="47.48232" lon="6.65528">
        <ele>456</ele>
        <time>2016-05-08T08:51:11.000Z</time>
      </trkpt>
      <trkpt lat="47.4823" lon="6.65524">
        <ele>456</ele>
        <time>2016-05-08T08:51:12.000Z</time>
      </trkpt>
      <trkpt lat="47.48228" lon="6.6552">
        <ele>456</ele>
        <time>2016-05-08T08:51:13.000Z</time>
      </trkpt>
      <trkpt lat="47.48226" lon="6.65517">
        <ele>456</ele>
        <time>2016-05-08T08:51:14.000Z</time>
      </trkpt>
      <trkpt lat="47.48225" lon="6.65514">
        <ele>456</ele>
        <time>2016-05-08T08:51:15.000Z</time>
      </trkpt>
      <trkpt lat="47.48223" lon="6.65511">
        <ele>456</ele>
        <time>2016-05-08T08:51:16.000Z</time>
      </trkpt>
      <trkpt lat="47.48222" lon="6.65508">
        <ele>456</ele>
        <time>2016-05-08T08:51:17.000Z</time>
      </trkpt>
      <trkpt lat="47.48219" lon="6.65503">
        <ele>456</ele>
        <time>2016-05-08T08:51:19.000Z</time>
      </trkpt>
      <trkpt lat="47.48217" lon="6.65501">
        <ele>456</ele>
        <time>2016-05-08T08:51:20.000Z</time>
      </trkpt>
      <trkpt lat="47.48215" lon="6.65499">
        <ele>459</ele>
        <time>2016-05-08T08:51:21.000Z</time>
      </trkpt>
      <trkpt lat="47.48214" lon="6.65496">
        <ele>459</ele>
        <time>2016-05-08T08:51:22.000Z</time>
      </trkpt>
      <trkpt lat="47.48212" lon="6.65493">
        <ele>459</ele>
        <time>2016-05-08T08:51:23.000Z</time>
      </trkpt>
      <trkpt lat="47.48211" lon="6.6549">
        <ele>459</ele>
        <time>2016-05-08T08:51:24.000Z</time>
      </trkpt>
      <trkpt lat="47.4821" lon="6.65487">
        <ele>459</ele>
        <time>2016-05-08T08:51:25.000Z</time>
      </trkpt>
      <trkpt lat="47.48208" lon="6.65484">
        <ele>459</ele>
        <time>2016-05-08T08:51:26.000Z</time>
      </trkpt>
      <trkpt lat="47.48207" lon="6.6548">
        <ele>459</ele>
        <time>2016-05-08T08:51:27.000Z</time>
      </trkpt>
      <trkpt lat="47.48205" lon="6.65476">
        <ele>459</ele>
        <time>2016-05-08T08:51:28.000Z</time>
      </trkpt>
      <trkpt lat="47.48204" lon="6.65472">
        <ele>459</ele>
        <time>2016-05-08T08:51:29.000Z</time>
      </trkpt>
      <trkpt lat="47.48202" lon="6.65468">
        <ele>459</ele>
        <time>2016-05-08T08:51:30.000Z</time>
      </trkpt>
      <trkpt lat="47.482" lon="6.65465">
        <ele>459</ele>
        <time>2016-05-08T08:51:31.000Z</time>
      </trkpt>
      <trkpt lat="47.48199" lon="6.65461">
        <ele>459</ele>
        <time>2016-05-08T08:51:32.000Z</time>
      </trkpt>
      <trkpt lat="47.48197" lon="6.65458">
        <ele>459</ele>
        <time>2016-05-08T08:51:33.000Z</time>
      </trkpt>
      <trkpt lat="47.48195" lon="6.65455">
        <ele>459</ele>
        <time>2016-05-08T08:51:34.000Z</time>
      </trkpt>
      <trkpt lat="47.48193" lon="6.65451">
        <ele>459</ele>
        <time>2016-05-08T08:51:35.000Z</time>
      </trkpt>
      <trkpt lat="47.48191" lon="6.65447">
        <ele>459</ele>
        <time>2016-05-08T08:51:36.000Z</time>
      </trkpt>
      <trkpt lat="47.48189" lon="6.65442">
        <ele>459</ele>
        <time>2016-05-08T08:51:37.000Z</time>
      </trkpt>
      <trkpt lat="47.48187" lon="6.65438">
        <ele>459</ele>
        <time>2016-05-08T08:51:38.000Z</time>
      </trkpt>
      <trkpt lat="47.48186" lon="6.65433">
        <ele>460</ele>
        <time>2016-05-08T08:51:39.000Z</time>
      </trkpt>
      <trkpt lat="47.48184" lon="6.65429">
        <ele>460</ele>
        <time>2016-05-08T08:51:40.000Z</time>
      </trkpt>
      <trkpt lat="47.48181" lon="6.65426">
        <ele>460</ele>
        <time>2016-05-08T08:51:41.000Z</time>
      </trkpt>
      <trkpt lat="47.48179" lon="6.65422">
        <ele>460</ele>
        <time>2016-05-08T08:51:42.000Z</time>
      </trkpt>
      <trkpt lat="47.48176" lon="6.65418">
        <ele>460</ele>
        <time>2016-05-08T08:51:43.000Z</time>
      </trkpt>
      <trkpt lat="47.48173" lon="6.65414">
        <ele>461</ele>
        <time>2016-05-08T08:51:44.000Z</time>
      </trkpt>
      <trkpt lat="47.4817" lon="6.6541">
        <ele>461</ele>
        <time>2016-05-08T08:51:45.000Z</time>
      </trkpt>
      <trkpt lat="47.48167" lon="6.65407">
        <ele>461</ele>
        <time>2016-05-08T08:51:46.000Z</time>
      </trkpt>
      <trkpt lat="47.48165" lon="6.65403">
        <ele>460</ele>
        <time>2016-05-08T08:51:47.000Z</time>
      </trkpt>
      <trkpt lat="47.48162" lon="6.654">
        <ele>460</ele>
        <time>2016-05-08T08:51:48.000Z</time>
      </trkpt>
      <trkpt lat="47.48159" lon="6.65396">
        <ele>461</ele>
        <time>2016-05-08T08:51:49.000Z</time>
      </trkpt>
      <trkpt lat="47.48157" lon="6.65393">
        <ele>461</ele>
        <time>2016-05-08T08:51:50.000Z</time>
      </trkpt>
      <trkpt lat="47.48155" lon="6.6539">
        <ele>461</ele>
        <time>2016-05-08T08:51:51.000Z</time>
      </trkpt>
      <trkpt lat="47.48152" lon="6.65386">
        <ele>461</ele>
        <time>2016-05-08T08:51:52.000Z</time>
      </trkpt>
      <trkpt lat="47.4815" lon="6.65382">
        <ele>461</ele>
        <time>2016-05-08T08:51:53.000Z</time>
      </trkpt>
      <trkpt lat="47.48147" lon="6.65379">
        <ele>461</ele>
        <time>2016-05-08T08:51:54.000Z</time>
      </trkpt>
      <trkpt lat="47.48144" lon="6.65374">
        <ele>461</ele>
        <time>2016-05-08T08:51:55.000Z</time>
      </trkpt>
      <trkpt lat="47.48141" lon="6.6537">
        <ele>461</ele>
        <time>2016-05-08T08:51:56.000Z</time>
      </trkpt>
      <trkpt lat="47.48139" lon="6.65366">
        <ele>461</ele>
        <time>2016-05-08T08:51:57.000Z</time>
      </trkpt>
      <trkpt lat="47.48136" lon="6.65361">
        <ele>461</ele>
        <time>2016-05-08T08:51:58.000Z</time>
      </trkpt>
      <trkpt lat="47.48133" lon="6.65356">
        <ele>461</ele>
        <time>2016-05-08T08:51:59.000Z</time>
      </trkpt>
      <trkpt lat="47.48131" lon="6.65351">
        <ele>461</ele>
        <time>2016-05-08T08:52:00.000Z</time>
      </trkpt>
      <trkpt lat="47.48128" lon="6.65347">
        <ele>461</ele>
        <time>2016-05-08T08:52:01.000Z</time>
      </trkpt>
      <trkpt lat="47.48125" lon="6.65343">
        <ele>461</ele>
        <time>2016-05-08T08:52:02.000Z</time>
      </trkpt>
      <trkpt lat="47.48123" lon="6.6534">
        <ele>461</ele>
        <time>2016-05-08T08:52:03.000Z</time>
      </trkpt>
      <trkpt lat="47.4812" lon="6.65337">
        <ele>461</ele>
        <time>2016-05-08T08:52:04.000Z</time>
      </trkpt>
      <trkpt lat="47.48118" lon="6.65335">
        <ele>461</ele>
        <time>2016-05-08T08:52:05.000Z</time>
      </trkpt>
      <trkpt lat="47.48115" lon="6.65334">
        <ele>461</ele>
        <time>2016-05-08T08:52:06.000Z</time>
      </trkpt>
      <trkpt lat="47.48112" lon="6.65333">
        <ele>462</ele>
        <time>2016-05-08T08:52:07.000Z</time>
      </trkpt>
      <trkpt lat="47.48109" lon="6.65332">
        <ele>462</ele>
        <time>2016-05-08T08:52:08.000Z</time>
      </trkpt>
      <trkpt lat="47.48106" lon="6.65331">
        <ele>462</ele>
        <time>2016-05-08T08:52:09.000Z</time>
      </trkpt>
      <trkpt lat="47.48103" lon="6.65329">
        <ele>462</ele>
        <time>2016-05-08T08:52:10.000Z</time>
      </trkpt>
      <trkpt lat="47.48101" lon="6.65326">
        <ele>462</ele>
        <time>2016-05-08T08:52:11.000Z</time>
      </trkpt>
      <trkpt lat="47.48099" lon="6.65323">
        <ele>462</ele>
        <time>2016-05-08T08:52:12.000Z</time>
      </trkpt>
      <trkpt lat="47.48097" lon="6.65319">
        <ele>462</ele>
        <time>2016-05-08T08:52:13.000Z</time>
      </trkpt>
      <trkpt lat="47.48095" lon="6.65315">
        <ele>462</ele>
        <time>2016-05-08T08:52:14.000Z</time>
      </trkpt>
      <trkpt lat="47.48094" lon="6.65311">
        <ele>462</ele>
        <time>2016-05-08T08:52:15.000Z</time>
      </trkpt>
      <trkpt lat="47.48092" lon="6.65307">
        <ele>462</ele>
        <time>2016-05-08T08:52:16.000Z</time>
      </trkpt>
      <trkpt lat="47.4809" lon="6.65303">
        <ele>462</ele>
        <time>2016-05-08T08:52:17.000Z</time>
      </trkpt>
      <trkpt lat="47.48089" lon="6.65299">
        <ele>462</ele>
        <time>2016-05-08T08:52:18.000Z</time>
      </trkpt>
      <trkpt lat="47.48086" lon="6.65295">
        <ele>462</ele>
        <time>2016-05-08T08:52:19.000Z</time>
      </trkpt>
      <trkpt lat="47.48084" lon="6.65291">
        <ele>462</ele>
        <time>2016-05-08T08:52:20.000Z</time>
      </trkpt>
      <trkpt lat="47.48081" lon="6.65287">
        <ele>457</ele>
        <time>2016-05-08T08:52:22.000Z</time>
      </trkpt>
      <trkpt lat="47.4808" lon="6.65286">
        <ele>457</ele>
        <time>2016-05-08T08:52:23.000Z</time>
      </trkpt>
      <trkpt lat="47.48079" lon="6.6528">
        <ele>457</ele>
        <time>2016-05-08T08:52:27.000Z</time>
      </trkpt>
      <trkpt lat="47.48079" lon="6.65277">
        <ele>457</ele>
        <time>2016-05-08T08:52:28.000Z</time>
      </trkpt>
      <trkpt lat="47.48081" lon="6.65275">
        <ele>457</ele>
        <time>2016-05-08T08:52:29.000Z</time>
      </trkpt>
      <trkpt lat="47.48083" lon="6.65273">
        <ele>457</ele>
        <time>2016-05-08T08:52:30.000Z</time>
      </trkpt>
      <trkpt lat="47.48086" lon="6.65272">
        <ele>462</ele>
        <time>2016-05-08T08:52:31.000Z</time>
      </trkpt>
      <trkpt lat="47.48088" lon="6.65271">
        <ele>462</ele>
        <time>2016-05-08T08:52:32.000Z</time>
      </trkpt>
      <trkpt lat="47.48091" lon="6.6527">
        <ele>462</ele>
        <time>2016-05-08T08:52:33.000Z</time>
      </trkpt>
      <trkpt lat="47.48093" lon="6.65269">
        <ele>462</ele>
        <time>2016-05-08T08:52:34.000Z</time>
      </trkpt>
      <trkpt lat="47.48095" lon="6.65268">
        <ele>462</ele>
        <time>2016-05-08T08:52:35.000Z</time>
      </trkpt>
      <trkpt lat="47.48098" lon="6.65267">
        <ele>462</ele>
        <time>2016-05-08T08:52:36.000Z</time>
      </trkpt>
      <trkpt lat="47.48101" lon="6.65266">
        <ele>462</ele>
        <time>2016-05-08T08:52:37.000Z</time>
      </trkpt>
      <trkpt lat="47.48104" lon="6.65265">
        <ele>462</ele>
        <time>2016-05-08T08:52:38.000Z</time>
      </trkpt>
      <trkpt lat="47.48107" lon="6.65263">
        <ele>462</ele>
        <time>2016-05-08T08:52:39.000Z</time>
      </trkpt>
      <trkpt lat="47.4811" lon="6.65261">
        <ele>462</ele>
        <time>2016-05-08T08:52:40.000Z</time>
      </trkpt>
      <trkpt lat="47.48113" lon="6.6526">
        <ele>462</ele>
        <time>2016-05-08T08:52:41.000Z</time>
      </trkpt>
      <trkpt lat="47.48115" lon="6.65258">
        <ele>462</ele>
        <time>2016-05-08T08:52:42.000Z</time>
      </trkpt>
      <trkpt lat="47.48117" lon="6.65256">
        <ele>463</ele>
        <time>2016-05-08T08:52:43.000Z</time>
      </trkpt>
      <trkpt lat="47.48119" lon="6.65254">
        <ele>463</ele>
        <time>2016-05-08T08:52:44.000Z</time>
      </trkpt>
      <trkpt lat="47.48121" lon="6.65251">
        <ele>463</ele>
        <time>2016-05-08T08:52:45.000Z</time>
      </trkpt>
      <trkpt lat="47.48122" lon="6.65248">
        <ele>463</ele>
        <time>2016-05-08T08:52:46.000Z</time>
      </trkpt>
      <trkpt lat="47.48123" lon="6.65244">
        <ele>463</ele>
        <time>2016-05-08T08:52:47.000Z</time>
      </trkpt>
      <trkpt lat="47.48122" lon="6.6524">
        <ele>463</ele>
        <time>2016-05-08T08:52:48.000Z</time>
      </trkpt>
      <trkpt lat="47.4812" lon="6.65235">
        <ele>462</ele>
        <time>2016-05-08T08:52:49.000Z</time>
      </trkpt>
      <trkpt lat="47.48117" lon="6.6523">
        <ele>462</ele>
        <time>2016-05-08T08:52:50.000Z</time>
      </trkpt>
      <trkpt lat="47.48115" lon="6.65225">
        <ele>462</ele>
        <time>2016-05-08T08:52:51.000Z</time>
      </trkpt>
      <trkpt lat="47.48113" lon="6.65221">
        <ele>462</ele>
        <time>2016-05-08T08:52:52.000Z</time>
      </trkpt>
      <trkpt lat="47.48112" lon="6.65216">
        <ele>462</ele>
        <time>2016-05-08T08:52:53.000Z</time>
      </trkpt>
      <trkpt lat="47.48111" lon="6.65211">
        <ele>462</ele>
        <time>2016-05-08T08:52:54.000Z</time>
      </trkpt>
      <trkpt lat="47.4811" lon="6.65206">
        <ele>462</ele>
        <time>2016-05-08T08:52:55.000Z</time>
      </trkpt>
      <trkpt lat="47.4811" lon="6.65201">
        <ele>462</ele>
        <time>2016-05-08T08:52:56.000Z</time>
      </trkpt>
      <trkpt lat="47.48109" lon="6.65197">
        <ele>462</ele>
        <time>2016-05-08T08:52:57.000Z</time>
      </trkpt>
      <trkpt lat="47.48108" lon="6.65191">
        <ele>462</ele>
        <time>2016-05-08T08:52:58.000Z</time>
      </trkpt>
      <trkpt lat="47.48107" lon="6.65184">
        <ele>461</ele>
        <time>2016-05-08T08:52:59.000Z</time>
      </trkpt>
      <trkpt lat="47.48106" lon="6.65177">
        <ele>461</ele>
        <time>2016-05-08T08:53:00.000Z</time>
      </trkpt>
      <trkpt lat="47.48113" lon="6.65153">
        <ele>460</ele>
        <time>2016-05-08T08:53:01.000Z</time>
      </trkpt>
      <trkpt lat="47.48115" lon="6.65145">
        <ele>460</ele>
        <time>2016-05-08T08:53:02.000Z</time>
      </trkpt>
      <trkpt lat="47.48117" lon="6.65139">
        <ele>460</ele>
        <time>2016-05-08T08:53:03.000Z</time>
      </trkpt>
      <trkpt lat="47.48118" lon="6.65131">
        <ele>460</ele>
        <time>2016-05-08T08:53:04.000Z</time>
      </trkpt>
      <trkpt lat="47.48119" lon="6.65122">
        <ele>460</ele>
        <time>2016-05-08T08:53:05.000Z</time>
      </trkpt>
      <trkpt lat="47.48118" lon="6.65114">
        <ele>460</ele>
        <time>2016-05-08T08:53:06.000Z</time>
      </trkpt>
      <trkpt lat="47.48117" lon="6.65108">
        <ele>460</ele>
        <time>2016-05-08T08:53:07.000Z</time>
      </trkpt>
      <trkpt lat="47.48115" lon="6.651">
        <ele>459</ele>
        <time>2016-05-08T08:53:08.000Z</time>
      </trkpt>
      <trkpt lat="47.48114" lon="6.65094">
        <ele>459</ele>
        <time>2016-05-08T08:53:09.000Z</time>
      </trkpt>
      <trkpt lat="47.48112" lon="6.65085">
        <ele>459</ele>
        <time>2016-05-08T08:53:10.000Z</time>
      </trkpt>
      <trkpt lat="47.48112" lon="6.65076">
        <ele>457</ele>
        <time>2016-05-08T08:53:11.000Z</time>
      </trkpt>
      <trkpt lat="47.48111" lon="6.65068">
        <ele>457</ele>
        <time>2016-05-08T08:53:12.000Z</time>
      </trkpt>
      <trkpt lat="47.4811" lon="6.65058">
        <ele>457</ele>
        <time>2016-05-08T08:53:13.000Z</time>
      </trkpt>
      <trkpt lat="47.48107" lon="6.65048">
        <ele>457</ele>
        <time>2016-05-08T08:53:14.000Z</time>
      </trkpt>
      <trkpt lat="47.48104" lon="6.6504">
        <ele>457</ele>
        <time>2016-05-08T08:53:15.000Z</time>
      </trkpt>
      <trkpt lat="47.48101" lon="6.65032">
        <ele>457</ele>
        <time>2016-05-08T08:53:16.000Z</time>
      </trkpt>
      <trkpt lat="47.48096" lon="6.65021">
        <ele>457</ele>
        <time>2016-05-08T08:53:17.000Z</time>
      </trkpt>
      <trkpt lat="47.48094" lon="6.65009">
        <ele>456</ele>
        <time>2016-05-08T08:53:18.000Z</time>
      </trkpt>
      <trkpt lat="47.48091" lon="6.64998">
        <ele>455</ele>
        <time>2016-05-08T08:53:19.000Z</time>
      </trkpt>
      <trkpt lat="47.48087" lon="6.64986">
        <ele>455</ele>
        <time>2016-05-08T08:53:20.000Z</time>
      </trkpt>
      <trkpt lat="47.48082" lon="6.64973">
        <ele>454</ele>
        <time>2016-05-08T08:53:21.000Z</time>
      </trkpt>
      <trkpt lat="47.48079" lon="6.64953">
        <ele>453</ele>
        <time>2016-05-08T08:53:22.000Z</time>
      </trkpt>
      <trkpt lat="47.48075" lon="6.64936">
        <ele>452</ele>
        <time>2016-05-08T08:53:23.000Z</time>
      </trkpt>
      <trkpt lat="47.4807" lon="6.6492">
        <ele>452</ele>
        <time>2016-05-08T08:53:24.000Z</time>
      </trkpt>
      <trkpt lat="47.48068" lon="6.64903">
        <ele>449</ele>
        <time>2016-05-08T08:53:25.000Z</time>
      </trkpt>
      <trkpt lat="47.48066" lon="6.6489">
        <ele>448</ele>
        <time>2016-05-08T08:53:26.000Z</time>
      </trkpt>
      <trkpt lat="47.48062" lon="6.64877">
        <ele>448</ele>
        <time>2016-05-08T08:53:27.000Z</time>
      </trkpt>
      <trkpt lat="47.48057" lon="6.64866">
        <ele>447</ele>
        <time>2016-05-08T08:53:28.000Z</time>
      </trkpt>
      <trkpt lat="47.48051" lon="6.64849">
        <ele>446</ele>
        <time>2016-05-08T08:53:29.000Z</time>
      </trkpt>
      <trkpt lat="47.48046" lon="6.64837">
        <ele>446</ele>
        <time>2016-05-08T08:53:30.000Z</time>
      </trkpt>
      <trkpt lat="47.48042" lon="6.64822">
        <ele>443</ele>
        <time>2016-05-08T08:53:31.000Z</time>
      </trkpt>
      <trkpt lat="47.48036" lon="6.64809">
        <ele>442</ele>
        <time>2016-05-08T08:53:32.000Z</time>
      </trkpt>
      <trkpt lat="47.48031" lon="6.64793">
        <ele>442</ele>
        <time>2016-05-08T08:53:33.000Z</time>
      </trkpt>
      <trkpt lat="47.48023" lon="6.64782">
        <ele>442</ele>
        <time>2016-05-08T08:53:34.000Z</time>
      </trkpt>
      <trkpt lat="47.48016" lon="6.64772">
        <ele>441</ele>
        <time>2016-05-08T08:53:35.000Z</time>
      </trkpt>
      <trkpt lat="47.48009" lon="6.64761">
        <ele>440</ele>
        <time>2016-05-08T08:53:36.000Z</time>
      </trkpt>
      <trkpt lat="47.48001" lon="6.64752">
        <ele>438</ele>
        <time>2016-05-08T08:53:37.000Z</time>
      </trkpt>
      <trkpt lat="47.47994" lon="6.64742">
        <ele>437</ele>
        <time>2016-05-08T08:53:38.000Z</time>
      </trkpt>
      <trkpt lat="47.47986" lon="6.64735">
        <ele>436</ele>
        <time>2016-05-08T08:53:39.000Z</time>
      </trkpt>
      <trkpt lat="47.47979" lon="6.6473">
        <ele>436</ele>
        <time>2016-05-08T08:53:40.000Z</time>
      </trkpt>
      <trkpt lat="47.47973" lon="6.64723">
        <ele>435</ele>
        <time>2016-05-08T08:53:41.000Z</time>
      </trkpt>
      <trkpt lat="47.47967" lon="6.64715">
        <ele>435</ele>
        <time>2016-05-08T08:53:42.000Z</time>
      </trkpt>
      <trkpt lat="47.47959" lon="6.64708">
        <ele>435</ele>
        <time>2016-05-08T08:53:43.000Z</time>
      </trkpt>
      <trkpt lat="47.47954" lon="6.64702">
        <ele>434</ele>
        <time>2016-05-08T08:53:44.000Z</time>
      </trkpt>
      <trkpt lat="47.47948" lon="6.64693">
        <ele>434</ele>
        <time>2016-05-08T08:53:45.000Z</time>
      </trkpt>
      <trkpt lat="47.47944" lon="6.64689">
        <ele>433</ele>
        <time>2016-05-08T08:53:46.000Z</time>
      </trkpt>
      <trkpt lat="47.47942" lon="6.64684">
        <ele>433</ele>
        <time>2016-05-08T08:53:47.000Z</time>
      </trkpt>
      <trkpt lat="47.4794" lon="6.64683">
        <ele>433</ele>
        <time>2016-05-08T08:53:48.000Z</time>
      </trkpt>
      <trkpt lat="47.47938" lon="6.6468">
        <ele>433</ele>
        <time>2016-05-08T08:53:50.000Z</time>
      </trkpt>
      <trkpt lat="47.47936" lon="6.64678">
        <ele>432</ele>
        <time>2016-05-08T08:53:51.000Z</time>
      </trkpt>
      <trkpt lat="47.47934" lon="6.64674">
        <ele>432</ele>
        <time>2016-05-08T08:53:52.000Z</time>
      </trkpt>
      <trkpt lat="47.47932" lon="6.6467">
        <ele>432</ele>
        <time>2016-05-08T08:53:53.000Z</time>
      </trkpt>
      <trkpt lat="47.4793" lon="6.64667">
        <ele>428</ele>
        <time>2016-05-08T08:53:54.000Z</time>
      </trkpt>
      <trkpt lat="47.47928" lon="6.64661">
        <ele>428</ele>
        <time>2016-05-08T08:53:55.000Z</time>
      </trkpt>
      <trkpt lat="47.47925" lon="6.64657">
        <ele>428</ele>
        <time>2016-05-08T08:53:56.000Z</time>
      </trkpt>
      <trkpt lat="47.47923" lon="6.64652">
        <ele>427</ele>
        <time>2016-05-08T08:53:57.000Z</time>
      </trkpt>
      <trkpt lat="47.47921" lon="6.64647">
        <ele>427</ele>
        <time>2016-05-08T08:53:58.000Z</time>
      </trkpt>
      <trkpt lat="47.47919" lon="6.64642">
        <ele>427</ele>
        <time>2016-05-08T08:53:59.000Z</time>
      </trkpt>
      <trkpt lat="47.47917" lon="6.64638">
        <ele>426</ele>
        <time>2016-05-08T08:54:00.000Z</time>
      </trkpt>
      <trkpt lat="47.47914" lon="6.64634">
        <ele>426</ele>
        <time>2016-05-08T08:54:01.000Z</time>
      </trkpt>
      <trkpt lat="47.47911" lon="6.64629">
        <ele>426</ele>
        <time>2016-05-08T08:54:02.000Z</time>
      </trkpt>
      <trkpt lat="47.47908" lon="6.64625">
        <ele>426</ele>
        <time>2016-05-08T08:54:03.000Z</time>
      </trkpt>
      <trkpt lat="47.47904" lon="6.6462">
        <ele>425</ele>
        <time>2016-05-08T08:54:04.000Z</time>
      </trkpt>
      <trkpt lat="47.47901" lon="6.64616">
        <ele>425</ele>
        <time>2016-05-08T08:54:05.000Z</time>
      </trkpt>
      <trkpt lat="47.47898" lon="6.64612">
        <ele>425</ele>
        <time>2016-05-08T08:54:06.000Z</time>
      </trkpt>
      <trkpt lat="47.47894" lon="6.64608">
        <ele>425</ele>
        <time>2016-05-08T08:54:07.000Z</time>
      </trkpt>
      <trkpt lat="47.47891" lon="6.64604">
        <ele>425</ele>
        <time>2016-05-08T08:54:08.000Z</time>
      </trkpt>
      <trkpt lat="47.47887" lon="6.646">
        <ele>425</ele>
        <time>2016-05-08T08:54:09.000Z</time>
      </trkpt>
      <trkpt lat="47.47883" lon="6.64596">
        <ele>425</ele>
        <time>2016-05-08T08:54:10.000Z</time>
      </trkpt>
      <trkpt lat="47.47878" lon="6.64591">
        <ele>425</ele>
        <time>2016-05-08T08:54:11.000Z</time>
      </trkpt>
      <trkpt lat="47.47874" lon="6.64586">
        <ele>425</ele>
        <time>2016-05-08T08:54:12.000Z</time>
      </trkpt>
      <trkpt lat="47.4787" lon="6.6458">
        <ele>419</ele>
        <time>2016-05-08T08:54:13.000Z</time>
      </trkpt>
      <trkpt lat="47.47867" lon="6.64574">
        <ele>419</ele>
        <time>2016-05-08T08:54:14.000Z</time>
      </trkpt>
      <trkpt lat="47.47864" lon="6.64568">
        <ele>419</ele>
        <time>2016-05-08T08:54:15.000Z</time>
      </trkpt>
      <trkpt lat="47.47861" lon="6.64562">
        <ele>419</ele>
        <time>2016-05-08T08:54:16.000Z</time>
      </trkpt>
      <trkpt lat="47.47858" lon="6.64557">
        <ele>419</ele>
        <time>2016-05-08T08:54:17.000Z</time>
      </trkpt>
      <trkpt lat="47.47856" lon="6.64551">
        <ele>418</ele>
        <time>2016-05-08T08:54:18.000Z</time>
      </trkpt>
      <trkpt lat="47.47852" lon="6.64546">
        <ele>418</ele>
        <time>2016-05-08T08:54:19.000Z</time>
      </trkpt>
      <trkpt lat="47.47849" lon="6.6454">
        <ele>418</ele>
        <time>2016-05-08T08:54:20.000Z</time>
      </trkpt>
      <trkpt lat="47.47845" lon="6.64534">
        <ele>418</ele>
        <time>2016-05-08T08:54:21.000Z</time>
      </trkpt>
      <trkpt lat="47.47842" lon="6.64527">
        <ele>417</ele>
        <time>2016-05-08T08:54:22.000Z</time>
      </trkpt>
      <trkpt lat="47.47837" lon="6.64521">
        <ele>417</ele>
        <time>2016-05-08T08:54:23.000Z</time>
      </trkpt>
      <trkpt lat="47.47828" lon="6.64505">
        <ele>418</ele>
        <time>2016-05-08T08:54:24.000Z</time>
      </trkpt>
      <trkpt lat="47.47822" lon="6.64494">
        <ele>415</ele>
        <time>2016-05-08T08:54:25.000Z</time>
      </trkpt>
      <trkpt lat="47.47818" lon="6.64483">
        <ele>414</ele>
        <time>2016-05-08T08:54:26.000Z</time>
      </trkpt>
      <trkpt lat="47.47816" lon="6.64472">
        <ele>413</ele>
        <time>2016-05-08T08:54:27.000Z</time>
      </trkpt>
      <trkpt lat="47.47812" lon="6.64458">
        <ele>412</ele>
        <time>2016-05-08T08:54:28.000Z</time>
      </trkpt>
      <trkpt lat="47.47808" lon="6.64448">
        <ele>412</ele>
        <time>2016-05-08T08:54:29.000Z</time>
      </trkpt>
      <trkpt lat="47.47804" lon="6.64438">
        <ele>411</ele>
        <time>2016-05-08T08:54:30.000Z</time>
      </trkpt>
      <trkpt lat="47.478" lon="6.64426">
        <ele>411</ele>
        <time>2016-05-08T08:54:31.000Z</time>
      </trkpt>
      <trkpt lat="47.47795" lon="6.6441">
        <ele>407</ele>
        <time>2016-05-08T08:54:32.000Z</time>
      </trkpt>
      <trkpt lat="47.47789" lon="6.64393">
        <ele>406</ele>
        <time>2016-05-08T08:54:33.000Z</time>
      </trkpt>
      <trkpt lat="47.47783" lon="6.64379">
        <ele>406</ele>
        <time>2016-05-08T08:54:34.000Z</time>
      </trkpt>
      <trkpt lat="47.47778" lon="6.64368">
        <ele>406</ele>
        <time>2016-05-08T08:54:35.000Z</time>
      </trkpt>
      <trkpt lat="47.47775" lon="6.64353">
        <ele>406</ele>
        <time>2016-05-08T08:54:36.000Z</time>
      </trkpt>
      <trkpt lat="47.47772" lon="6.64344">
        <ele>406</ele>
        <time>2016-05-08T08:54:37.000Z</time>
      </trkpt>
      <trkpt lat="47.4777" lon="6.64335">
        <ele>407</ele>
        <time>2016-05-08T08:54:38.000Z</time>
      </trkpt>
      <trkpt lat="47.4777" lon="6.64326">
        <ele>405</ele>
        <time>2016-05-08T08:54:39.000Z</time>
      </trkpt>
      <trkpt lat="47.47769" lon="6.6432">
        <ele>405</ele>
        <time>2016-05-08T08:54:40.000Z</time>
      </trkpt>
      <trkpt lat="47.47768" lon="6.64317">
        <ele>405</ele>
        <time>2016-05-08T08:54:41.000Z</time>
      </trkpt>
      <trkpt lat="47.47766" lon="6.64313">
        <ele>405</ele>
        <time>2016-05-08T08:54:43.000Z</time>
      </trkpt>
      <trkpt lat="47.47765" lon="6.6431">
        <ele>405</ele>
        <time>2016-05-08T08:54:44.000Z</time>
      </trkpt>
      <trkpt lat="47.47764" lon="6.64306">
        <ele>405</ele>
        <time>2016-05-08T08:54:47.000Z</time>
      </trkpt>
      <trkpt lat="47.47761" lon="6.64305">
        <ele>405</ele>
        <time>2016-05-08T08:54:48.000Z</time>
      </trkpt>
      <trkpt lat="47.47759" lon="6.64303">
        <ele>405</ele>
        <time>2016-05-08T08:54:50.000Z</time>
      </trkpt>
      <trkpt lat="47.47757" lon="6.64302">
        <ele>405</ele>
        <time>2016-05-08T08:54:51.000Z</time>
      </trkpt>
      <trkpt lat="47.47753" lon="6.64299">
        <ele>405</ele>
        <time>2016-05-08T08:54:53.000Z</time>
      </trkpt>
      <trkpt lat="47.47752" lon="6.64298">
        <ele>405</ele>
        <time>2016-05-08T08:54:54.000Z</time>
      </trkpt>
      <trkpt lat="47.47749" lon="6.64294">
        <ele>409</ele>
        <time>2016-05-08T08:54:56.000Z</time>
      </trkpt>
      <trkpt lat="47.47748" lon="6.64293">
        <ele>409</ele>
        <time>2016-05-08T08:54:57.000Z</time>
      </trkpt>
      <trkpt lat="47.47746" lon="6.6429">
        <ele>410</ele>
        <time>2016-05-08T08:55:00.000Z</time>
      </trkpt>
      <trkpt lat="47.47745" lon="6.64288">
        <ele>410</ele>
        <time>2016-05-08T08:55:01.000Z</time>
      </trkpt>
      <trkpt lat="47.47742" lon="6.64286">
        <ele>410</ele>
        <time>2016-05-08T08:55:03.000Z</time>
      </trkpt>
      <trkpt lat="47.47741" lon="6.64284">
        <ele>410</ele>
        <time>2016-05-08T08:55:04.000Z</time>
      </trkpt>
      <trkpt lat="47.47738" lon="6.64281">
        <ele>410</ele>
        <time>2016-05-08T08:55:06.000Z</time>
      </trkpt>
      <trkpt lat="47.47737" lon="6.64279">
        <ele>410</ele>
        <time>2016-05-08T08:55:07.000Z</time>
      </trkpt>
      <trkpt lat="47.47734" lon="6.64276">
        <ele>410</ele>
        <time>2016-05-08T08:55:09.000Z</time>
      </trkpt>
      <trkpt lat="47.47732" lon="6.64275">
        <ele>410</ele>
        <time>2016-05-08T08:55:10.000Z</time>
      </trkpt>
      <trkpt lat="47.47729" lon="6.64272">
        <ele>410</ele>
        <time>2016-05-08T08:55:12.000Z</time>
      </trkpt>
      <trkpt lat="47.47727" lon="6.64271">
        <ele>410</ele>
        <time>2016-05-08T08:55:13.000Z</time>
      </trkpt>
      <trkpt lat="47.47725" lon="6.64269">
        <ele>410</ele>
        <time>2016-05-08T08:55:14.000Z</time>
      </trkpt>
      <trkpt lat="47.47722" lon="6.64266">
        <ele>410</ele>
        <time>2016-05-08T08:55:15.000Z</time>
      </trkpt>
      <trkpt lat="47.4772" lon="6.64263">
        <ele>410</ele>
        <time>2016-05-08T08:55:16.000Z</time>
      </trkpt>
      <trkpt lat="47.47717" lon="6.64261">
        <ele>410</ele>
        <time>2016-05-08T08:55:17.000Z</time>
      </trkpt>
      <trkpt lat="47.47715" lon="6.64259">
        <ele>410</ele>
        <time>2016-05-08T08:55:18.000Z</time>
      </trkpt>
      <trkpt lat="47.47713" lon="6.64256">
        <ele>410</ele>
        <time>2016-05-08T08:55:19.000Z</time>
      </trkpt>
      <trkpt lat="47.47711" lon="6.64254">
        <ele>411</ele>
        <time>2016-05-08T08:55:20.000Z</time>
      </trkpt>
      <trkpt lat="47.47709" lon="6.64251">
        <ele>411</ele>
        <time>2016-05-08T08:55:21.000Z</time>
      </trkpt>
      <trkpt lat="47.47706" lon="6.64249">
        <ele>412</ele>
        <time>2016-05-08T08:55:22.000Z</time>
      </trkpt>
      <trkpt lat="47.47703" lon="6.64247">
        <ele>412</ele>
        <time>2016-05-08T08:55:23.000Z</time>
      </trkpt>
      <trkpt lat="47.477" lon="6.64245">
        <ele>412</ele>
        <time>2016-05-08T08:55:24.000Z</time>
      </trkpt>
      <trkpt lat="47.47697" lon="6.64244">
        <ele>413</ele>
        <time>2016-05-08T08:55:25.000Z</time>
      </trkpt>
      <trkpt lat="47.47694" lon="6.64242">
        <ele>413</ele>
        <time>2016-05-08T08:55:26.000Z</time>
      </trkpt>
      <trkpt lat="47.47692" lon="6.6424">
        <ele>413</ele>
        <time>2016-05-08T08:55:27.000Z</time>
      </trkpt>
      <trkpt lat="47.47688" lon="6.64237">
        <ele>413</ele>
        <time>2016-05-08T08:55:29.000Z</time>
      </trkpt>
      <trkpt lat="47.47686" lon="6.64236">
        <ele>413</ele>
        <time>2016-05-08T08:55:30.000Z</time>
      </trkpt>
      <trkpt lat="47.47684" lon="6.64234">
        <ele>413</ele>
        <time>2016-05-08T08:55:31.000Z</time>
      </trkpt>
      <trkpt lat="47.47682" lon="6.64232">
        <ele>413</ele>
        <time>2016-05-08T08:55:32.000Z</time>
      </trkpt>
      <trkpt lat="47.4768" lon="6.64229">
        <ele>413</ele>
        <time>2016-05-08T08:55:33.000Z</time>
      </trkpt>
      <trkpt lat="47.47678" lon="6.64225">
        <ele>413</ele>
        <time>2016-05-08T08:55:34.000Z</time>
      </trkpt>
      <trkpt lat="47.47677" lon="6.64221">
        <ele>413</ele>
        <time>2016-05-08T08:55:35.000Z</time>
      </trkpt>
      <trkpt lat="47.47674" lon="6.64217">
        <ele>413</ele>
        <time>2016-05-08T08:55:36.000Z</time>
      </trkpt>
      <trkpt lat="47.47672" lon="6.64214">
        <ele>413</ele>
        <time>2016-05-08T08:55:37.000Z</time>
      </trkpt>
      <trkpt lat="47.4767" lon="6.64211">
        <ele>413</ele>
        <time>2016-05-08T08:55:38.000Z</time>
      </trkpt>
      <trkpt lat="47.47668" lon="6.64207">
        <ele>413</ele>
        <time>2016-05-08T08:55:39.000Z</time>
      </trkpt>
      <trkpt lat="47.47665" lon="6.64204">
        <ele>413</ele>
        <time>2016-05-08T08:55:40.000Z</time>
      </trkpt>
      <trkpt lat="47.47663" lon="6.642">
        <ele>413</ele>
        <time>2016-05-08T08:55:41.000Z</time>
      </trkpt>
      <trkpt lat="47.47661" lon="6.64195">
        <ele>413</ele>
        <time>2016-05-08T08:55:42.000Z</time>
      </trkpt>
      <trkpt lat="47.47658" lon="6.64191">
        <ele>414</ele>
        <time>2016-05-08T08:55:43.000Z</time>
      </trkpt>
      <trkpt lat="47.47656" lon="6.64185">
        <ele>414</ele>
        <time>2016-05-08T08:55:44.000Z</time>
      </trkpt>
      <trkpt lat="47.47654" lon="6.64179">
        <ele>414</ele>
        <time>2016-05-08T08:55:45.000Z</time>
      </trkpt>
      <trkpt lat="47.47652" lon="6.64172">
        <ele>414</ele>
        <time>2016-05-08T08:55:46.000Z</time>
      </trkpt>
      <trkpt lat="47.47649" lon="6.64166">
        <ele>414</ele>
        <time>2016-05-08T08:55:47.000Z</time>
      </trkpt>
      <trkpt lat="47.47646" lon="6.6416">
        <ele>414</ele>
        <time>2016-05-08T08:55:48.000Z</time>
      </trkpt>
      <trkpt lat="47.47643" lon="6.64153">
        <ele>414</ele>
        <time>2016-05-08T08:55:49.000Z</time>
      </trkpt>
      <trkpt lat="47.4764" lon="6.64146">
        <ele>413</ele>
        <time>2016-05-08T08:55:50.000Z</time>
      </trkpt>
      <trkpt lat="47.47636" lon="6.64139">
        <ele>413</ele>
        <time>2016-05-08T08:55:51.000Z</time>
      </trkpt>
      <trkpt lat="47.47633" lon="6.64131">
        <ele>413</ele>
        <time>2016-05-08T08:55:52.000Z</time>
      </trkpt>
      <trkpt lat="47.47629" lon="6.64124">
        <ele>413</ele>
        <time>2016-05-08T08:55:53.000Z</time>
      </trkpt>
      <trkpt lat="47.47627" lon="6.64117">
        <ele>413</ele>
        <time>2016-05-08T08:55:54.000Z</time>
      </trkpt>
      <trkpt lat="47.47623" lon="6.6411">
        <ele>413</ele>
        <time>2016-05-08T08:55:55.000Z</time>
      </trkpt>
      <trkpt lat="47.4762" lon="6.64104">
        <ele>413</ele>
        <time>2016-05-08T08:55:56.000Z</time>
      </trkpt>
      <trkpt lat="47.47616" lon="6.64098">
        <ele>413</ele>
        <time>2016-05-08T08:55:57.000Z</time>
      </trkpt>
      <trkpt lat="47.47611" lon="6.64092">
        <ele>412</ele>
        <time>2016-05-08T08:55:58.000Z</time>
      </trkpt>
      <trkpt lat="47.47606" lon="6.64085">
        <ele>412</ele>
        <time>2016-05-08T08:55:59.000Z</time>
      </trkpt>
      <trkpt lat="47.47593" lon="6.64065">
        <ele>410</ele>
        <time>2016-05-08T08:56:00.000Z</time>
      </trkpt>
      <trkpt lat="47.47588" lon="6.64057">
        <ele>410</ele>
        <time>2016-05-08T08:56:01.000Z</time>
      </trkpt>
      <trkpt lat="47.47586" lon="6.64048">
        <ele>410</ele>
        <time>2016-05-08T08:56:02.000Z</time>
      </trkpt>
      <trkpt lat="47.47582" lon="6.64041">
        <ele>406</ele>
        <time>2016-05-08T08:56:03.000Z</time>
      </trkpt>
      <trkpt lat="47.47578" lon="6.64034">
        <ele>405</ele>
        <time>2016-05-08T08:56:04.000Z</time>
      </trkpt>
      <trkpt lat="47.47576" lon="6.64026">
        <ele>405</ele>
        <time>2016-05-08T08:56:05.000Z</time>
      </trkpt>
      <trkpt lat="47.4757" lon="6.64017">
        <ele>405</ele>
        <time>2016-05-08T08:56:06.000Z</time>
      </trkpt>
      <trkpt lat="47.47565" lon="6.64006">
        <ele>405</ele>
        <time>2016-05-08T08:56:07.000Z</time>
      </trkpt>
      <trkpt lat="47.47559" lon="6.63994">
        <ele>403</ele>
        <time>2016-05-08T08:56:08.000Z</time>
      </trkpt>
      <trkpt lat="47.47556" lon="6.63985">
        <ele>402</ele>
        <time>2016-05-08T08:56:09.000Z</time>
      </trkpt>
      <trkpt lat="47.47554" lon="6.63976">
        <ele>402</ele>
        <time>2016-05-08T08:56:10.000Z</time>
      </trkpt>
      <trkpt lat="47.47551" lon="6.63969">
        <ele>402</ele>
        <time>2016-05-08T08:56:11.000Z</time>
      </trkpt>
      <trkpt lat="47.47546" lon="6.6396">
        <ele>401</ele>
        <time>2016-05-08T08:56:12.000Z</time>
      </trkpt>
      <trkpt lat="47.47541" lon="6.63951">
        <ele>401</ele>
        <time>2016-05-08T08:56:13.000Z</time>
      </trkpt>
      <trkpt lat="47.47538" lon="6.63942">
        <ele>401</ele>
        <time>2016-05-08T08:56:14.000Z</time>
      </trkpt>
      <trkpt lat="47.47533" lon="6.63933">
        <ele>400</ele>
        <time>2016-05-08T08:56:15.000Z</time>
      </trkpt>
      <trkpt lat="47.47528" lon="6.63926">
        <ele>400</ele>
        <time>2016-05-08T08:56:16.000Z</time>
      </trkpt>
      <trkpt lat="47.47525" lon="6.63918">
        <ele>400</ele>
        <time>2016-05-08T08:56:17.000Z</time>
      </trkpt>
      <trkpt lat="47.4752" lon="6.63907">
        <ele>398</ele>
        <time>2016-05-08T08:56:18.000Z</time>
      </trkpt>
      <trkpt lat="47.47515" lon="6.63895">
        <ele>398</ele>
        <time>2016-05-08T08:56:19.000Z</time>
      </trkpt>
      <trkpt lat="47.47507" lon="6.63883">
        <ele>398</ele>
        <time>2016-05-08T08:56:20.000Z</time>
      </trkpt>
      <trkpt lat="47.47503" lon="6.63873">
        <ele>398</ele>
        <time>2016-05-08T08:56:21.000Z</time>
      </trkpt>
      <trkpt lat="47.47496" lon="6.63866">
        <ele>394</ele>
        <time>2016-05-08T08:56:22.000Z</time>
      </trkpt>
      <trkpt lat="47.4749" lon="6.63854">
        <ele>394</ele>
        <time>2016-05-08T08:56:23.000Z</time>
      </trkpt>
      <trkpt lat="47.47486" lon="6.63844">
        <ele>394</ele>
        <time>2016-05-08T08:56:24.000Z</time>
      </trkpt>
      <trkpt lat="47.4748" lon="6.63837">
        <ele>394</ele>
        <time>2016-05-08T08:56:25.000Z</time>
      </trkpt>
      <trkpt lat="47.47475" lon="6.6383">
        <ele>394</ele>
        <time>2016-05-08T08:56:26.000Z</time>
      </trkpt>
      <trkpt lat="47.4747" lon="6.63822">
        <ele>394</ele>
        <time>2016-05-08T08:56:27.000Z</time>
      </trkpt>
      <trkpt lat="47.47463" lon="6.63814">
        <ele>393</ele>
        <time>2016-05-08T08:56:28.000Z</time>
      </trkpt>
      <trkpt lat="47.47458" lon="6.63807">
        <ele>393</ele>
        <time>2016-05-08T08:56:29.000Z</time>
      </trkpt>
      <trkpt lat="47.4745" lon="6.63797">
        <ele>393</ele>
        <time>2016-05-08T08:56:30.000Z</time>
      </trkpt>
      <trkpt lat="47.47442" lon="6.63786">
        <ele>392</ele>
        <time>2016-05-08T08:56:31.000Z</time>
      </trkpt>
      <trkpt lat="47.47435" lon="6.63777">
        <ele>392</ele>
        <time>2016-05-08T08:56:32.000Z</time>
      </trkpt>
      <trkpt lat="47.47431" lon="6.63771">
        <ele>392</ele>
        <time>2016-05-08T08:56:33.000Z</time>
      </trkpt>
      <trkpt lat="47.47426" lon="6.63765">
        <ele>392</ele>
        <time>2016-05-08T08:56:34.000Z</time>
      </trkpt>
      <trkpt lat="47.47422" lon="6.63757">
        <ele>392</ele>
        <time>2016-05-08T08:56:35.000Z</time>
      </trkpt>
      <trkpt lat="47.47418" lon="6.63744">
        <ele>391</ele>
        <time>2016-05-08T08:56:36.000Z</time>
      </trkpt>
      <trkpt lat="47.47415" lon="6.63734">
        <ele>390</ele>
        <time>2016-05-08T08:56:37.000Z</time>
      </trkpt>
      <trkpt lat="47.47412" lon="6.63726">
        <ele>390</ele>
        <time>2016-05-08T08:56:38.000Z</time>
      </trkpt>
      <trkpt lat="47.47408" lon="6.63717">
        <ele>389</ele>
        <time>2016-05-08T08:56:39.000Z</time>
      </trkpt>
      <trkpt lat="47.47404" lon="6.63709">
        <ele>389</ele>
        <time>2016-05-08T08:56:40.000Z</time>
      </trkpt>
      <trkpt lat="47.47401" lon="6.63701">
        <ele>388</ele>
        <time>2016-05-08T08:56:41.000Z</time>
      </trkpt>
      <trkpt lat="47.47398" lon="6.63694">
        <ele>388</ele>
        <time>2016-05-08T08:56:42.000Z</time>
      </trkpt>
      <trkpt lat="47.47394" lon="6.63687">
        <ele>388</ele>
        <time>2016-05-08T08:56:43.000Z</time>
      </trkpt>
      <trkpt lat="47.4739" lon="6.63683">
        <ele>388</ele>
        <time>2016-05-08T08:56:44.000Z</time>
      </trkpt>
      <trkpt lat="47.47386" lon="6.63678">
        <ele>388</ele>
        <time>2016-05-08T08:56:45.000Z</time>
      </trkpt>
      <trkpt lat="47.4738" lon="6.63673">
        <ele>388</ele>
        <time>2016-05-08T08:56:46.000Z</time>
      </trkpt>
      <trkpt lat="47.47374" lon="6.63669">
        <ele>388</ele>
        <time>2016-05-08T08:56:47.000Z</time>
      </trkpt>
      <trkpt lat="47.4737" lon="6.63666">
        <ele>384</ele>
        <time>2016-05-08T08:56:48.000Z</time>
      </trkpt>
      <trkpt lat="47.47363" lon="6.63664">
        <ele>384</ele>
        <time>2016-05-08T08:56:49.000Z</time>
      </trkpt>
      <trkpt lat="47.47358" lon="6.63661">
        <ele>385</ele>
        <time>2016-05-08T08:56:50.000Z</time>
      </trkpt>
      <trkpt lat="47.47353" lon="6.6366">
        <ele>385</ele>
        <time>2016-05-08T08:56:51.000Z</time>
      </trkpt>
      <trkpt lat="47.47348" lon="6.63659">
        <ele>385</ele>
        <time>2016-05-08T08:56:52.000Z</time>
      </trkpt>
      <trkpt lat="47.47343" lon="6.63658">
        <ele>386</ele>
        <time>2016-05-08T08:56:53.000Z</time>
      </trkpt>
      <trkpt lat="47.47337" lon="6.63658">
        <ele>386</ele>
        <time>2016-05-08T08:56:54.000Z</time>
      </trkpt>
      <trkpt lat="47.47332" lon="6.63657">
        <ele>385</ele>
        <time>2016-05-08T08:56:55.000Z</time>
      </trkpt>
      <trkpt lat="47.47326" lon="6.63658">
        <ele>385</ele>
        <time>2016-05-08T08:56:56.000Z</time>
      </trkpt>
      <trkpt lat="47.47308" lon="6.63665">
        <ele>382</ele>
        <time>2016-05-08T08:56:57.000Z</time>
      </trkpt>
      <trkpt lat="47.47299" lon="6.63666">
        <ele>381</ele>
        <time>2016-05-08T08:56:58.000Z</time>
      </trkpt>
      <trkpt lat="47.47292" lon="6.63662">
        <ele>381</ele>
        <time>2016-05-08T08:56:59.000Z</time>
      </trkpt>
      <trkpt lat="47.47284" lon="6.63659">
        <ele>380</ele>
        <time>2016-05-08T08:57:00.000Z</time>
      </trkpt>
      <trkpt lat="47.47275" lon="6.63653">
        <ele>379</ele>
        <time>2016-05-08T08:57:01.000Z</time>
      </trkpt>
      <trkpt lat="47.47267" lon="6.63646">
        <ele>379</ele>
        <time>2016-05-08T08:57:02.000Z</time>
      </trkpt>
      <trkpt lat="47.47259" lon="6.63639">
        <ele>378</ele>
        <time>2016-05-08T08:57:03.000Z</time>
      </trkpt>
      <trkpt lat="47.47252" lon="6.63631">
        <ele>378</ele>
        <time>2016-05-08T08:57:04.000Z</time>
      </trkpt>
      <trkpt lat="47.47245" lon="6.63625">
        <ele>368</ele>
        <time>2016-05-08T08:57:05.000Z</time>
      </trkpt>
      <trkpt lat="47.47238" lon="6.63621">
        <ele>367</ele>
        <time>2016-05-08T08:57:06.000Z</time>
      </trkpt>
      <trkpt lat="47.47235" lon="6.63618">
        <ele>367</ele>
        <time>2016-05-08T08:57:08.000Z</time>
      </trkpt>
      <trkpt lat="47.47234" lon="6.63616">
        <ele>367</ele>
        <time>2016-05-08T08:57:09.000Z</time>
      </trkpt>
      <trkpt lat="47.47232" lon="6.63613">
        <ele>366</ele>
        <time>2016-05-08T08:57:24.000Z</time>
      </trkpt>
      <trkpt lat="47.47232" lon="6.63608">
        <ele>366</ele>
        <time>2016-05-08T08:57:25.000Z</time>
      </trkpt>
      <trkpt lat="47.47234" lon="6.63604">
        <ele>366</ele>
        <time>2016-05-08T08:57:26.000Z</time>
      </trkpt>
      <trkpt lat="47.47235" lon="6.636">
        <ele>366</ele>
        <time>2016-05-08T08:57:27.000Z</time>
      </trkpt>
      <trkpt lat="47.47237" lon="6.63596">
        <ele>366</ele>
        <time>2016-05-08T08:57:28.000Z</time>
      </trkpt>
      <trkpt lat="47.47239" lon="6.63593">
        <ele>367</ele>
        <time>2016-05-08T08:57:29.000Z</time>
      </trkpt>
      <trkpt lat="47.47241" lon="6.6359">
        <ele>367</ele>
        <time>2016-05-08T08:57:30.000Z</time>
      </trkpt>
      <trkpt lat="47.47244" lon="6.63588">
        <ele>367</ele>
        <time>2016-05-08T08:57:31.000Z</time>
      </trkpt>
      <trkpt lat="47.47248" lon="6.63586">
        <ele>368</ele>
        <time>2016-05-08T08:57:44.000Z</time>
      </trkpt>
      <trkpt lat="47.47248" lon="6.63585">
        <ele>368</ele>
        <time>2016-05-08T08:57:45.000Z</time>
      </trkpt>
      <trkpt lat="47.47252" lon="6.63584">
        <ele>369</ele>
        <time>2016-05-08T08:58:29.000Z</time>
      </trkpt>
      <trkpt lat="47.47252" lon="6.63584">
        <ele>369</ele>
        <time>2016-05-08T08:58:30.000Z</time>
      </trkpt>
      <trkpt lat="47.47249" lon="6.63583">
        <ele>367</ele>
        <time>2016-05-08T08:58:35.000Z</time>
      </trkpt>
      <trkpt lat="47.47248" lon="6.63585">
        <ele>368</ele>
        <time>2016-05-08T08:58:36.000Z</time>
      </trkpt>
      <trkpt lat="47.47245" lon="6.63588">
        <ele>367</ele>
        <time>2016-05-08T08:58:38.000Z</time>
      </trkpt>
      <trkpt lat="47.47244" lon="6.6359">
        <ele>367</ele>
        <time>2016-05-08T08:58:39.000Z</time>
      </trkpt>
      <trkpt lat="47.47243" lon="6.63594">
        <ele>367</ele>
        <time>2016-05-08T08:58:41.000Z</time>
      </trkpt>
      <trkpt lat="47.47242" lon="6.63596">
        <ele>367</ele>
        <time>2016-05-08T08:58:42.000Z</time>
      </trkpt>
      <trkpt lat="47.47242" lon="6.63602">
        <ele>367</ele>
        <time>2016-05-08T08:58:45.000Z</time>
      </trkpt>
      <trkpt lat="47.47243" lon="6.63604">
        <ele>367</ele>
        <time>2016-05-08T08:58:46.000Z</time>
      </trkpt>
      <trkpt lat="47.47245" lon="6.63608">
        <ele>367</ele>
        <time>2016-05-08T08:58:48.000Z</time>
      </trkpt>
      <trkpt lat="47.47246" lon="6.63609">
        <ele>367</ele>
        <time>2016-05-08T08:58:49.000Z</time>
      </trkpt>
      <trkpt lat="47.4725" lon="6.6361">
        <ele>367</ele>
        <time>2016-05-08T08:58:51.000Z</time>
      </trkpt>
      <trkpt lat="47.47251" lon="6.6361">
        <ele>375</ele>
        <time>2016-05-08T08:58:52.000Z</time>
      </trkpt>
      <trkpt lat="47.47255" lon="6.63611">
        <ele>375</ele>
        <time>2016-05-08T08:58:54.000Z</time>
      </trkpt>
      <trkpt lat="47.47256" lon="6.63612">
        <ele>375</ele>
        <time>2016-05-08T08:58:55.000Z</time>
      </trkpt>
      <trkpt lat="47.47259" lon="6.63614">
        <ele>376</ele>
        <time>2016-05-08T08:58:59.000Z</time>
      </trkpt>
      <trkpt lat="47.4726" lon="6.63615">
        <ele>376</ele>
        <time>2016-05-08T08:59:00.000Z</time>
      </trkpt>
      <trkpt lat="47.47263" lon="6.6362">
        <ele>377</ele>
        <time>2016-05-08T08:59:05.000Z</time>
      </trkpt>
      <trkpt lat="47.47263" lon="6.6362">
        <ele>377</ele>
        <time>2016-05-08T08:59:06.000Z</time>
      </trkpt>
      <trkpt lat="47.47267" lon="6.63622">
        <ele>377</ele>
        <time>2016-05-08T08:59:09.000Z</time>
      </trkpt>
      <trkpt lat="47.47269" lon="6.63623">
        <ele>377</ele>
        <time>2016-05-08T08:59:10.000Z</time>
      </trkpt>
      <trkpt lat="47.47272" lon="6.63623">
        <ele>378</ele>
        <time>2016-05-08T08:59:13.000Z</time>
      </trkpt>
      <trkpt lat="47.47274" lon="6.63624">
        <ele>378</ele>
        <time>2016-05-08T08:59:14.000Z</time>
      </trkpt>
      <trkpt lat="47.47276" lon="6.63625">
        <ele>378</ele>
        <time>2016-05-08T08:59:16.000Z</time>
      </trkpt>
      <trkpt lat="47.47278" lon="6.63625">
        <ele>378</ele>
        <time>2016-05-08T08:59:17.000Z</time>
      </trkpt>
      <trkpt lat="47.47282" lon="6.63626">
        <ele>378</ele>
        <time>2016-05-08T08:59:19.000Z</time>
      </trkpt>
      <trkpt lat="47.47283" lon="6.63627">
        <ele>378</ele>
        <time>2016-05-08T08:59:20.000Z</time>
      </trkpt>
      <trkpt lat="47.47288" lon="6.63628">
        <ele>379</ele>
        <time>2016-05-08T08:59:23.000Z</time>
      </trkpt>
      <trkpt lat="47.47289" lon="6.63628">
        <ele>379</ele>
        <time>2016-05-08T08:59:24.000Z</time>
      </trkpt>
      <trkpt lat="47.47292" lon="6.63628">
        <ele>379</ele>
        <time>2016-05-08T08:59:27.000Z</time>
      </trkpt>
      <trkpt lat="47.47294" lon="6.63628">
        <ele>379</ele>
        <time>2016-05-08T08:59:28.000Z</time>
      </trkpt>
      <trkpt lat="47.47296" lon="6.63628">
        <ele>379</ele>
        <time>2016-05-08T08:59:29.000Z</time>
      </trkpt>
      <trkpt lat="47.47299" lon="6.63627">
        <ele>379</ele>
        <time>2016-05-08T08:59:30.000Z</time>
      </trkpt>
      <trkpt lat="47.47301" lon="6.63627">
        <ele>379</ele>
        <time>2016-05-08T08:59:31.000Z</time>
      </trkpt>
      <trkpt lat="47.47303" lon="6.63626">
        <ele>379</ele>
        <time>2016-05-08T08:59:32.000Z</time>
      </trkpt>
      <trkpt lat="47.47306" lon="6.63626">
        <ele>380</ele>
        <time>2016-05-08T08:59:33.000Z</time>
      </trkpt>
      <trkpt lat="47.47309" lon="6.63625">
        <ele>380</ele>
        <time>2016-05-08T08:59:34.000Z</time>
      </trkpt>
      <trkpt lat="47.47312" lon="6.63625">
        <ele>380</ele>
        <time>2016-05-08T08:59:35.000Z</time>
      </trkpt>
      <trkpt lat="47.47314" lon="6.63625">
        <ele>380</ele>
        <time>2016-05-08T08:59:36.000Z</time>
      </trkpt>
      <trkpt lat="47.47317" lon="6.63625">
        <ele>380</ele>
        <time>2016-05-08T08:59:37.000Z</time>
      </trkpt>
      <trkpt lat="47.4732" lon="6.63625">
        <ele>380</ele>
        <time>2016-05-08T08:59:38.000Z</time>
      </trkpt>
      <trkpt lat="47.47322" lon="6.63624">
        <ele>380</ele>
        <time>2016-05-08T08:59:39.000Z</time>
      </trkpt>
      <trkpt lat="47.47324" lon="6.63624">
        <ele>380</ele>
        <time>2016-05-08T08:59:40.000Z</time>
      </trkpt>
      <trkpt lat="47.47329" lon="6.63623">
        <ele>380</ele>
        <time>2016-05-08T08:59:42.000Z</time>
      </trkpt>
      <trkpt lat="47.47331" lon="6.63622">
        <ele>380</ele>
        <time>2016-05-08T08:59:43.000Z</time>
      </trkpt>
      <trkpt lat="47.47334" lon="6.63622">
        <ele>382</ele>
        <time>2016-05-08T08:59:44.000Z</time>
      </trkpt>
      <trkpt lat="47.47337" lon="6.63623">
        <ele>383</ele>
        <time>2016-05-08T08:59:45.000Z</time>
      </trkpt>
      <trkpt lat="47.4734" lon="6.63623">
        <ele>383</ele>
        <time>2016-05-08T08:59:46.000Z</time>
      </trkpt>
      <trkpt lat="47.47344" lon="6.63624">
        <ele>383</ele>
        <time>2016-05-08T08:59:47.000Z</time>
      </trkpt>
      <trkpt lat="47.47347" lon="6.63625">
        <ele>383</ele>
        <time>2016-05-08T08:59:48.000Z</time>
      </trkpt>
      <trkpt lat="47.47351" lon="6.63625">
        <ele>383</ele>
        <time>2016-05-08T08:59:49.000Z</time>
      </trkpt>
      <trkpt lat="47.47354" lon="6.63626">
        <ele>383</ele>
        <time>2016-05-08T08:59:50.000Z</time>
      </trkpt>
      <trkpt lat="47.47357" lon="6.63625">
        <ele>383</ele>
        <time>2016-05-08T08:59:51.000Z</time>
      </trkpt>
      <trkpt lat="47.47361" lon="6.63625">
        <ele>382</ele>
        <time>2016-05-08T08:59:52.000Z</time>
      </trkpt>
      <trkpt lat="47.47364" lon="6.63625">
        <ele>382</ele>
        <time>2016-05-08T08:59:53.000Z</time>
      </trkpt>
      <trkpt lat="47.47367" lon="6.63625">
        <ele>382</ele>
        <time>2016-05-08T08:59:54.000Z</time>
      </trkpt>
      <trkpt lat="47.4737" lon="6.63626">
        <ele>382</ele>
        <time>2016-05-08T08:59:55.000Z</time>
      </trkpt>
      <trkpt lat="47.47374" lon="6.63628">
        <ele>382</ele>
        <time>2016-05-08T08:59:56.000Z</time>
      </trkpt>
      <trkpt lat="47.47377" lon="6.6363">
        <ele>382</ele>
        <time>2016-05-08T08:59:57.000Z</time>
      </trkpt>
      <trkpt lat="47.47381" lon="6.63632">
        <ele>383</ele>
        <time>2016-05-08T08:59:58.000Z</time>
      </trkpt>
      <trkpt lat="47.47383" lon="6.63635">
        <ele>383</ele>
        <time>2016-05-08T08:59:59.000Z</time>
      </trkpt>
      <trkpt lat="47.47386" lon="6.63639">
        <ele>383</ele>
        <time>2016-05-08T09:00:00.000Z</time>
      </trkpt>
      <trkpt lat="47.47388" lon="6.63642">
        <ele>383</ele>
        <time>2016-05-08T09:00:01.000Z</time>
      </trkpt>
      <trkpt lat="47.4739" lon="6.63645">
        <ele>383</ele>
        <time>2016-05-08T09:00:02.000Z</time>
      </trkpt>
      <trkpt lat="47.47392" lon="6.63648">
        <ele>383</ele>
        <time>2016-05-08T09:00:03.000Z</time>
      </trkpt>
      <trkpt lat="47.47393" lon="6.6365">
        <ele>384</ele>
        <time>2016-05-08T09:00:04.000Z</time>
      </trkpt>
      <trkpt lat="47.47395" lon="6.63653">
        <ele>384</ele>
        <time>2016-05-08T09:00:05.000Z</time>
      </trkpt>
      <trkpt lat="47.47396" lon="6.63656">
        <ele>384</ele>
        <time>2016-05-08T09:00:06.000Z</time>
      </trkpt>
      <trkpt lat="47.47397" lon="6.63661">
        <ele>384</ele>
        <time>2016-05-08T09:00:07.000Z</time>
      </trkpt>
      <trkpt lat="47.47399" lon="6.63666">
        <ele>384</ele>
        <time>2016-05-08T09:00:08.000Z</time>
      </trkpt>
      <trkpt lat="47.47401" lon="6.63671">
        <ele>387</ele>
        <time>2016-05-08T09:00:09.000Z</time>
      </trkpt>
      <trkpt lat="47.47402" lon="6.63675">
        <ele>387</ele>
        <time>2016-05-08T09:00:10.000Z</time>
      </trkpt>
      <trkpt lat="47.47404" lon="6.63679">
        <ele>387</ele>
        <time>2016-05-08T09:00:11.000Z</time>
      </trkpt>
      <trkpt lat="47.47405" lon="6.63682">
        <ele>387</ele>
        <time>2016-05-08T09:00:12.000Z</time>
      </trkpt>
      <trkpt lat="47.47407" lon="6.63685">
        <ele>388</ele>
        <time>2016-05-08T09:00:13.000Z</time>
      </trkpt>
      <trkpt lat="47.47409" lon="6.63687">
        <ele>388</ele>
        <time>2016-05-08T09:00:14.000Z</time>
      </trkpt>
      <trkpt lat="47.47411" lon="6.6369">
        <ele>388</ele>
        <time>2016-05-08T09:00:15.000Z</time>
      </trkpt>
      <trkpt lat="47.47414" lon="6.63692">
        <ele>388</ele>
        <time>2016-05-08T09:00:16.000Z</time>
      </trkpt>
      <trkpt lat="47.47417" lon="6.63694">
        <ele>387</ele>
        <time>2016-05-08T09:00:17.000Z</time>
      </trkpt>
      <trkpt lat="47.47419" lon="6.63697">
        <ele>387</ele>
        <time>2016-05-08T09:00:18.000Z</time>
      </trkpt>
      <trkpt lat="47.47422" lon="6.63701">
        <ele>387</ele>
        <time>2016-05-08T09:00:19.000Z</time>
      </trkpt>
      <trkpt lat="47.47423" lon="6.63704">
        <ele>387</ele>
        <time>2016-05-08T09:00:20.000Z</time>
      </trkpt>
      <trkpt lat="47.47426" lon="6.63708">
        <ele>387</ele>
        <time>2016-05-08T09:00:21.000Z</time>
      </trkpt>
      <trkpt lat="47.47428" lon="6.63711">
        <ele>388</ele>
        <time>2016-05-08T09:00:22.000Z</time>
      </trkpt>
      <trkpt lat="47.4743" lon="6.63713">
        <ele>388</ele>
        <time>2016-05-08T09:00:23.000Z</time>
      </trkpt>
      <trkpt lat="47.47432" lon="6.63716">
        <ele>388</ele>
        <time>2016-05-08T09:00:24.000Z</time>
      </trkpt>
      <trkpt lat="47.47435" lon="6.63719">
        <ele>388</ele>
        <time>2016-05-08T09:00:25.000Z</time>
      </trkpt>
      <trkpt lat="47.47438" lon="6.63722">
        <ele>388</ele>
        <time>2016-05-08T09:00:26.000Z</time>
      </trkpt>
      <trkpt lat="47.4744" lon="6.63725">
        <ele>388</ele>
        <time>2016-05-08T09:00:27.000Z</time>
      </trkpt>
      <trkpt lat="47.47443" lon="6.63728">
        <ele>388</ele>
        <time>2016-05-08T09:00:28.000Z</time>
      </trkpt>
      <trkpt lat="47.47445" lon="6.63731">
        <ele>388</ele>
        <time>2016-05-08T09:00:29.000Z</time>
      </trkpt>
      <trkpt lat="47.47448" lon="6.63733">
        <ele>388</ele>
        <time>2016-05-08T09:00:30.000Z</time>
      </trkpt>
      <trkpt lat="47.4745" lon="6.63734">
        <ele>388</ele>
        <time>2016-05-08T09:00:31.000Z</time>
      </trkpt>
      <trkpt lat="47.47452" lon="6.63735">
        <ele>388</ele>
        <time>2016-05-08T09:00:32.000Z</time>
      </trkpt>
      <trkpt lat="47.47455" lon="6.63736">
        <ele>388</ele>
        <time>2016-05-08T09:00:33.000Z</time>
      </trkpt>
      <trkpt lat="47.47457" lon="6.63737">
        <ele>388</ele>
        <time>2016-05-08T09:00:34.000Z</time>
      </trkpt>
      <trkpt lat="47.47459" lon="6.63739">
        <ele>388</ele>
        <time>2016-05-08T09:00:35.000Z</time>
      </trkpt>
      <trkpt lat="47.47461" lon="6.63742">
        <ele>388</ele>
        <time>2016-05-08T09:00:36.000Z</time>
      </trkpt>
      <trkpt lat="47.47463" lon="6.63747">
        <ele>388</ele>
        <time>2016-05-08T09:00:37.000Z</time>
      </trkpt>
      <trkpt lat="47.47465" lon="6.63752">
        <ele>392</ele>
        <time>2016-05-08T09:00:38.000Z</time>
      </trkpt>
      <trkpt lat="47.47467" lon="6.63757">
        <ele>392</ele>
        <time>2016-05-08T09:00:39.000Z</time>
      </trkpt>
      <trkpt lat="47.47469" lon="6.63761">
        <ele>392</ele>
        <time>2016-05-08T09:00:40.000Z</time>
      </trkpt>
      <trkpt lat="47.47471" lon="6.63765">
        <ele>392</ele>
        <time>2016-05-08T09:00:41.000Z</time>
      </trkpt>
      <trkpt lat="47.47473" lon="6.63769">
        <ele>392</ele>
        <time>2016-05-08T09:00:42.000Z</time>
      </trkpt>
      <trkpt lat="47.47475" lon="6.63773">
        <ele>392</ele>
        <time>2016-05-08T09:00:43.000Z</time>
      </trkpt>
      <trkpt lat="47.47478" lon="6.63776">
        <ele>393</ele>
        <time>2016-05-08T09:00:44.000Z</time>
      </trkpt>
      <trkpt lat="47.47481" lon="6.6378">
        <ele>393</ele>
        <time>2016-05-08T09:00:45.000Z</time>
      </trkpt>
      <trkpt lat="47.47485" lon="6.63784">
        <ele>393</ele>
        <time>2016-05-08T09:00:46.000Z</time>
      </trkpt>
      <trkpt lat="47.47489" lon="6.63787">
        <ele>393</ele>
        <time>2016-05-08T09:00:47.000Z</time>
      </trkpt>
      <trkpt lat="47.47492" lon="6.63789">
        <ele>393</ele>
        <time>2016-05-08T09:00:48.000Z</time>
      </trkpt>
      <trkpt lat="47.47495" lon="6.63792">
        <ele>393</ele>
        <time>2016-05-08T09:00:49.000Z</time>
      </trkpt>
      <trkpt lat="47.47497" lon="6.63794">
        <ele>393</ele>
        <time>2016-05-08T09:00:50.000Z</time>
      </trkpt>
      <trkpt lat="47.47499" lon="6.63796">
        <ele>393</ele>
        <time>2016-05-08T09:00:51.000Z</time>
      </trkpt>
      <trkpt lat="47.47502" lon="6.63799">
        <ele>394</ele>
        <time>2016-05-08T09:00:52.000Z</time>
      </trkpt>
      <trkpt lat="47.47504" lon="6.63801">
        <ele>395</ele>
        <time>2016-05-08T09:00:53.000Z</time>
      </trkpt>
      <trkpt lat="47.47507" lon="6.63804">
        <ele>395</ele>
        <time>2016-05-08T09:00:54.000Z</time>
      </trkpt>
      <trkpt lat="47.47509" lon="6.63806">
        <ele>395</ele>
        <time>2016-05-08T09:00:55.000Z</time>
      </trkpt>
      <trkpt lat="47.47511" lon="6.63809">
        <ele>395</ele>
        <time>2016-05-08T09:00:56.000Z</time>
      </trkpt>
      <trkpt lat="47.47512" lon="6.63812">
        <ele>395</ele>
        <time>2016-05-08T09:00:57.000Z</time>
      </trkpt>
      <trkpt lat="47.47514" lon="6.63814">
        <ele>395</ele>
        <time>2016-05-08T09:00:58.000Z</time>
      </trkpt>
      <trkpt lat="47.47516" lon="6.63817">
        <ele>395</ele>
        <time>2016-05-08T09:00:59.000Z</time>
      </trkpt>
      <trkpt lat="47.47518" lon="6.63821">
        <ele>395</ele>
        <time>2016-05-08T09:01:00.000Z</time>
      </trkpt>
      <trkpt lat="47.47519" lon="6.63824">
        <ele>395</ele>
        <time>2016-05-08T09:01:01.000Z</time>
      </trkpt>
      <trkpt lat="47.47521" lon="6.63827">
        <ele>395</ele>
        <time>2016-05-08T09:01:02.000Z</time>
      </trkpt>
      <trkpt lat="47.47524" lon="6.63832">
        <ele>395</ele>
        <time>2016-05-08T09:01:04.000Z</time>
      </trkpt>
      <trkpt lat="47.47525" lon="6.63834">
        <ele>398</ele>
        <time>2016-05-08T09:01:05.000Z</time>
      </trkpt>
      <trkpt lat="47.47528" lon="6.63839">
        <ele>398</ele>
        <time>2016-05-08T09:01:07.000Z</time>
      </trkpt>
      <trkpt lat="47.4753" lon="6.6384">
        <ele>398</ele>
        <time>2016-05-08T09:01:08.000Z</time>
      </trkpt>
      <trkpt lat="47.47534" lon="6.63844">
        <ele>398</ele>
        <time>2016-05-08T09:01:10.000Z</time>
      </trkpt>
      <trkpt lat="47.47535" lon="6.63846">
        <ele>398</ele>
        <time>2016-05-08T09:01:11.000Z</time>
      </trkpt>
      <trkpt lat="47.47538" lon="6.6385">
        <ele>398</ele>
        <time>2016-05-08T09:01:13.000Z</time>
      </trkpt>
      <trkpt lat="47.47539" lon="6.63853">
        <ele>398</ele>
        <time>2016-05-08T09:01:14.000Z</time>
      </trkpt>
      <trkpt lat="47.47541" lon="6.63856">
        <ele>398</ele>
        <time>2016-05-08T09:01:15.000Z</time>
      </trkpt>
      <trkpt lat="47.47542" lon="6.63859">
        <ele>399</ele>
        <time>2016-05-08T09:01:16.000Z</time>
      </trkpt>
      <trkpt lat="47.47544" lon="6.63862">
        <ele>399</ele>
        <time>2016-05-08T09:01:17.000Z</time>
      </trkpt>
      <trkpt lat="47.47547" lon="6.63866">
        <ele>399</ele>
        <time>2016-05-08T09:01:18.000Z</time>
      </trkpt>
      <trkpt lat="47.47549" lon="6.6387">
        <ele>399</ele>
        <time>2016-05-08T09:01:19.000Z</time>
      </trkpt>
      <trkpt lat="47.47552" lon="6.63874">
        <ele>399</ele>
        <time>2016-05-08T09:01:20.000Z</time>
      </trkpt>
      <trkpt lat="47.47554" lon="6.63879">
        <ele>399</ele>
        <time>2016-05-08T09:01:21.000Z</time>
      </trkpt>
      <trkpt lat="47.47556" lon="6.63883">
        <ele>399</ele>
        <time>2016-05-08T09:01:22.000Z</time>
      </trkpt>
      <trkpt lat="47.47558" lon="6.63888">
        <ele>399</ele>
        <time>2016-05-08T09:01:23.000Z</time>
      </trkpt>
      <trkpt lat="47.47559" lon="6.63892">
        <ele>400</ele>
        <time>2016-05-08T09:01:24.000Z</time>
      </trkpt>
      <trkpt lat="47.4756" lon="6.63897">
        <ele>400</ele>
        <time>2016-05-08T09:01:25.000Z</time>
      </trkpt>
      <trkpt lat="47.47561" lon="6.63902">
        <ele>400</ele>
        <time>2016-05-08T09:01:26.000Z</time>
      </trkpt>
      <trkpt lat="47.47562" lon="6.63906">
        <ele>400</ele>
        <time>2016-05-08T09:01:27.000Z</time>
      </trkpt>
      <trkpt lat="47.47562" lon="6.6391">
        <ele>400</ele>
        <time>2016-05-08T09:01:28.000Z</time>
      </trkpt>
      <trkpt lat="47.47563" lon="6.63914">
        <ele>401</ele>
        <time>2016-05-08T09:01:29.000Z</time>
      </trkpt>
      <trkpt lat="47.47564" lon="6.63917">
        <ele>402</ele>
        <time>2016-05-08T09:01:30.000Z</time>
      </trkpt>
      <trkpt lat="47.47566" lon="6.63922">
        <ele>402</ele>
        <time>2016-05-08T09:01:32.000Z</time>
      </trkpt>
      <trkpt lat="47.47568" lon="6.63925">
        <ele>402</ele>
        <time>2016-05-08T09:01:33.000Z</time>
      </trkpt>
      <trkpt lat="47.47569" lon="6.63928">
        <ele>402</ele>
        <time>2016-05-08T09:01:34.000Z</time>
      </trkpt>
      <trkpt lat="47.4757" lon="6.63931">
        <ele>402</ele>
        <time>2016-05-08T09:01:35.000Z</time>
      </trkpt>
      <trkpt lat="47.47572" lon="6.63934">
        <ele>402</ele>
        <time>2016-05-08T09:01:36.000Z</time>
      </trkpt>
      <trkpt lat="47.47573" lon="6.63937">
        <ele>402</ele>
        <time>2016-05-08T09:01:37.000Z</time>
      </trkpt>
      <trkpt lat="47.47575" lon="6.63943">
        <ele>402</ele>
        <time>2016-05-08T09:01:39.000Z</time>
      </trkpt>
      <trkpt lat="47.47576" lon="6.63945">
        <ele>402</ele>
        <time>2016-05-08T09:01:40.000Z</time>
      </trkpt>
      <trkpt lat="47.47578" lon="6.63949">
        <ele>402</ele>
        <time>2016-05-08T09:01:42.000Z</time>
      </trkpt>
      <trkpt lat="47.47578" lon="6.63951">
        <ele>402</ele>
        <time>2016-05-08T09:01:43.000Z</time>
      </trkpt>
      <trkpt lat="47.4758" lon="6.63956">
        <ele>402</ele>
        <time>2016-05-08T09:01:45.000Z</time>
      </trkpt>
      <trkpt lat="47.47581" lon="6.63958">
        <ele>402</ele>
        <time>2016-05-08T09:01:46.000Z</time>
      </trkpt>
      <trkpt lat="47.47583" lon="6.63963">
        <ele>402</ele>
        <time>2016-05-08T09:01:49.000Z</time>
      </trkpt>
      <trkpt lat="47.47584" lon="6.63964">
        <ele>406</ele>
        <time>2016-05-08T09:01:50.000Z</time>
      </trkpt>
      <trkpt lat="47.47586" lon="6.63967">
        <ele>406</ele>
        <time>2016-05-08T09:01:52.000Z</time>
      </trkpt>
      <trkpt lat="47.47587" lon="6.6397">
        <ele>406</ele>
        <time>2016-05-08T09:01:53.000Z</time>
      </trkpt>
      <trkpt lat="47.47589" lon="6.63974">
        <ele>406</ele>
        <time>2016-05-08T09:01:55.000Z</time>
      </trkpt>
      <trkpt lat="47.47591" lon="6.63977">
        <ele>406</ele>
        <time>2016-05-08T09:01:56.000Z</time>
      </trkpt>
      <trkpt lat="47.47593" lon="6.63981">
        <ele>406</ele>
        <time>2016-05-08T09:01:58.000Z</time>
      </trkpt>
      <trkpt lat="47.47595" lon="6.63983">
        <ele>406</ele>
        <time>2016-05-08T09:01:59.000Z</time>
      </trkpt>
      <trkpt lat="47.47597" lon="6.63985">
        <ele>406</ele>
        <time>2016-05-08T09:02:00.000Z</time>
      </trkpt>
      <trkpt lat="47.47599" lon="6.63988">
        <ele>406</ele>
        <time>2016-05-08T09:02:01.000Z</time>
      </trkpt>
      <trkpt lat="47.47602" lon="6.63992">
        <ele>406</ele>
        <time>2016-05-08T09:02:03.000Z</time>
      </trkpt>
      <trkpt lat="47.47603" lon="6.63994">
        <ele>406</ele>
        <time>2016-05-08T09:02:04.000Z</time>
      </trkpt>
      <trkpt lat="47.47604" lon="6.63999">
        <ele>406</ele>
        <time>2016-05-08T09:02:06.000Z</time>
      </trkpt>
      <trkpt lat="47.47604" lon="6.64001">
        <ele>408</ele>
        <time>2016-05-08T09:02:07.000Z</time>
      </trkpt>
      <trkpt lat="47.47605" lon="6.64005">
        <ele>408</ele>
        <time>2016-05-08T09:02:09.000Z</time>
      </trkpt>
      <trkpt lat="47.47607" lon="6.64008">
        <ele>408</ele>
        <time>2016-05-08T09:02:10.000Z</time>
      </trkpt>
      <trkpt lat="47.47609" lon="6.64012">
        <ele>409</ele>
        <time>2016-05-08T09:02:12.000Z</time>
      </trkpt>
      <trkpt lat="47.4761" lon="6.64014">
        <ele>409</ele>
        <time>2016-05-08T09:02:13.000Z</time>
      </trkpt>
      <trkpt lat="47.47612" lon="6.64018">
        <ele>409</ele>
        <time>2016-05-08T09:02:15.000Z</time>
      </trkpt>
      <trkpt lat="47.47613" lon="6.64021">
        <ele>409</ele>
        <time>2016-05-08T09:02:16.000Z</time>
      </trkpt>
      <trkpt lat="47.47614" lon="6.64024">
        <ele>409</ele>
        <time>2016-05-08T09:02:17.000Z</time>
      </trkpt>
      <trkpt lat="47.47615" lon="6.64028">
        <ele>409</ele>
        <time>2016-05-08T09:02:18.000Z</time>
      </trkpt>
      <trkpt lat="47.47615" lon="6.64032">
        <ele>409</ele>
        <time>2016-05-08T09:02:19.000Z</time>
      </trkpt>
      <trkpt lat="47.47615" lon="6.64036">
        <ele>409</ele>
        <time>2016-05-08T09:02:20.000Z</time>
      </trkpt>
      <trkpt lat="47.47615" lon="6.6404">
        <ele>410</ele>
        <time>2016-05-08T09:02:21.000Z</time>
      </trkpt>
      <trkpt lat="47.47616" lon="6.64043">
        <ele>410</ele>
        <time>2016-05-08T09:02:22.000Z</time>
      </trkpt>
      <trkpt lat="47.47616" lon="6.64047">
        <ele>410</ele>
        <time>2016-05-08T09:02:23.000Z</time>
      </trkpt>
      <trkpt lat="47.47617" lon="6.6405">
        <ele>410</ele>
        <time>2016-05-08T09:02:24.000Z</time>
      </trkpt>
      <trkpt lat="47.47618" lon="6.64054">
        <ele>410</ele>
        <time>2016-05-08T09:02:25.000Z</time>
      </trkpt>
      <trkpt lat="47.47619" lon="6.64057">
        <ele>410</ele>
        <time>2016-05-08T09:02:26.000Z</time>
      </trkpt>
      <trkpt lat="47.47621" lon="6.64063">
        <ele>410</ele>
        <time>2016-05-08T09:02:28.000Z</time>
      </trkpt>
      <trkpt lat="47.47623" lon="6.64065">
        <ele>410</ele>
        <time>2016-05-08T09:02:29.000Z</time>
      </trkpt>
      <trkpt lat="47.47625" lon="6.6407">
        <ele>410</ele>
        <time>2016-05-08T09:02:31.000Z</time>
      </trkpt>
      <trkpt lat="47.47626" lon="6.64073">
        <ele>410</ele>
        <time>2016-05-08T09:02:32.000Z</time>
      </trkpt>
      <trkpt lat="47.47628" lon="6.64078">
        <ele>411</ele>
        <time>2016-05-08T09:02:34.000Z</time>
      </trkpt>
      <trkpt lat="47.47629" lon="6.64081">
        <ele>411</ele>
        <time>2016-05-08T09:02:35.000Z</time>
      </trkpt>
      <trkpt lat="47.4763" lon="6.64084">
        <ele>413</ele>
        <time>2016-05-08T09:02:36.000Z</time>
      </trkpt>
      <trkpt lat="47.47631" lon="6.64087">
        <ele>413</ele>
        <time>2016-05-08T09:02:37.000Z</time>
      </trkpt>
      <trkpt lat="47.47632" lon="6.6409">
        <ele>413</ele>
        <time>2016-05-08T09:02:38.000Z</time>
      </trkpt>
      <trkpt lat="47.47634" lon="6.64093">
        <ele>413</ele>
        <time>2016-05-08T09:02:39.000Z</time>
      </trkpt>
      <trkpt lat="47.47636" lon="6.64098">
        <ele>413</ele>
        <time>2016-05-08T09:02:41.000Z</time>
      </trkpt>
      <trkpt lat="47.47636" lon="6.641">
        <ele>413</ele>
        <time>2016-05-08T09:02:42.000Z</time>
      </trkpt>
      <trkpt lat="47.47638" lon="6.64104">
        <ele>413</ele>
        <time>2016-05-08T09:02:44.000Z</time>
      </trkpt>
      <trkpt lat="47.4764" lon="6.64107">
        <ele>413</ele>
        <time>2016-05-08T09:02:45.000Z</time>
      </trkpt>
      <trkpt lat="47.47642" lon="6.64109">
        <ele>413</ele>
        <time>2016-05-08T09:02:46.000Z</time>
      </trkpt>
      <trkpt lat="47.47643" lon="6.64112">
        <ele>413</ele>
        <time>2016-05-08T09:02:47.000Z</time>
      </trkpt>
      <trkpt lat="47.47645" lon="6.64115">
        <ele>413</ele>
        <time>2016-05-08T09:02:48.000Z</time>
      </trkpt>
      <trkpt lat="47.47646" lon="6.64117">
        <ele>413</ele>
        <time>2016-05-08T09:02:49.000Z</time>
      </trkpt>
      <trkpt lat="47.47648" lon="6.6412">
        <ele>413</ele>
        <time>2016-05-08T09:02:50.000Z</time>
      </trkpt>
      <trkpt lat="47.47649" lon="6.64123">
        <ele>413</ele>
        <time>2016-05-08T09:02:51.000Z</time>
      </trkpt>
      <trkpt lat="47.47651" lon="6.64125">
        <ele>413</ele>
        <time>2016-05-08T09:02:52.000Z</time>
      </trkpt>
      <trkpt lat="47.47653" lon="6.64127">
        <ele>413</ele>
        <time>2016-05-08T09:02:53.000Z</time>
      </trkpt>
      <trkpt lat="47.47655" lon="6.64129">
        <ele>413</ele>
        <time>2016-05-08T09:02:54.000Z</time>
      </trkpt>
      <trkpt lat="47.47658" lon="6.64131">
        <ele>413</ele>
        <time>2016-05-08T09:02:55.000Z</time>
      </trkpt>
      <trkpt lat="47.4766" lon="6.64133">
        <ele>413</ele>
        <time>2016-05-08T09:02:56.000Z</time>
      </trkpt>
      <trkpt lat="47.47661" lon="6.64135">
        <ele>414</ele>
        <time>2016-05-08T09:02:57.000Z</time>
      </trkpt>
      <trkpt lat="47.47663" lon="6.64138">
        <ele>414</ele>
        <time>2016-05-08T09:02:58.000Z</time>
      </trkpt>
      <trkpt lat="47.47664" lon="6.64141">
        <ele>414</ele>
        <time>2016-05-08T09:02:59.000Z</time>
      </trkpt>
      <trkpt lat="47.47666" lon="6.64145">
        <ele>414</ele>
        <time>2016-05-08T09:03:00.000Z</time>
      </trkpt>
      <trkpt lat="47.47667" lon="6.64148">
        <ele>412</ele>
        <time>2016-05-08T09:03:01.000Z</time>
      </trkpt>
      <trkpt lat="47.47669" lon="6.64151">
        <ele>413</ele>
        <time>2016-05-08T09:03:02.000Z</time>
      </trkpt>
      <trkpt lat="47.47671" lon="6.64153">
        <ele>413</ele>
        <time>2016-05-08T09:03:03.000Z</time>
      </trkpt>
      <trkpt lat="47.47673" lon="6.64154">
        <ele>413</ele>
        <time>2016-05-08T09:03:04.000Z</time>
      </trkpt>
      <trkpt lat="47.47675" lon="6.64156">
        <ele>413</ele>
        <time>2016-05-08T09:03:05.000Z</time>
      </trkpt>
      <trkpt lat="47.47678" lon="6.64158">
        <ele>413</ele>
        <time>2016-05-08T09:03:06.000Z</time>
      </trkpt>
      <trkpt lat="47.47681" lon="6.6416">
        <ele>413</ele>
        <time>2016-05-08T09:03:07.000Z</time>
      </trkpt>
      <trkpt lat="47.47685" lon="6.64162">
        <ele>412</ele>
        <time>2016-05-08T09:03:08.000Z</time>
      </trkpt>
      <trkpt lat="47.47687" lon="6.64164">
        <ele>412</ele>
        <time>2016-05-08T09:03:09.000Z</time>
      </trkpt>
      <trkpt lat="47.4769" lon="6.64166">
        <ele>412</ele>
        <time>2016-05-08T09:03:10.000Z</time>
      </trkpt>
      <trkpt lat="47.47693" lon="6.64167">
        <ele>413</ele>
        <time>2016-05-08T09:03:11.000Z</time>
      </trkpt>
      <trkpt lat="47.47695" lon="6.64168">
        <ele>413</ele>
        <time>2016-05-08T09:03:12.000Z</time>
      </trkpt>
      <trkpt lat="47.47698" lon="6.64169">
        <ele>412</ele>
        <time>2016-05-08T09:03:13.000Z</time>
      </trkpt>
      <trkpt lat="47.477" lon="6.6417">
        <ele>412</ele>
        <time>2016-05-08T09:03:14.000Z</time>
      </trkpt>
      <trkpt lat="47.47703" lon="6.64171">
        <ele>412</ele>
        <time>2016-05-08T09:03:15.000Z</time>
      </trkpt>
      <trkpt lat="47.47704" lon="6.64173">
        <ele>412</ele>
        <time>2016-05-08T09:03:16.000Z</time>
      </trkpt>
      <trkpt lat="47.47706" lon="6.64177">
        <ele>412</ele>
        <time>2016-05-08T09:03:17.000Z</time>
      </trkpt>
      <trkpt lat="47.47707" lon="6.64182">
        <ele>412</ele>
        <time>2016-05-08T09:03:18.000Z</time>
      </trkpt>
      <trkpt lat="47.47707" lon="6.64186">
        <ele>412</ele>
        <time>2016-05-08T09:03:19.000Z</time>
      </trkpt>
      <trkpt lat="47.47709" lon="6.64191">
        <ele>412</ele>
        <time>2016-05-08T09:03:20.000Z</time>
      </trkpt>
      <trkpt lat="47.47711" lon="6.64194">
        <ele>412</ele>
        <time>2016-05-08T09:03:21.000Z</time>
      </trkpt>
      <trkpt lat="47.47712" lon="6.64196">
        <ele>412</ele>
        <time>2016-05-08T09:03:21.999Z</time>
      </trkpt>
      <trkpt lat="47.47717" lon="6.64198">
        <ele>412</ele>
        <time>2016-05-08T09:03:23.000Z</time>
      </trkpt>
      <trkpt lat="47.4772" lon="6.64199">
        <ele>412</ele>
        <time>2016-05-08T09:03:24.000Z</time>
      </trkpt>
      <trkpt lat="47.47723" lon="6.64201">
        <ele>411</ele>
        <time>2016-05-08T09:03:25.000Z</time>
      </trkpt>
      <trkpt lat="47.47726" lon="6.64203">
        <ele>411</ele>
        <time>2016-05-08T09:03:26.000Z</time>
      </trkpt>
      <trkpt lat="47.47729" lon="6.64206">
        <ele>411</ele>
        <time>2016-05-08T09:03:27.000Z</time>
      </trkpt>
      <trkpt lat="47.47731" lon="6.64209">
        <ele>411</ele>
        <time>2016-05-08T09:03:28.000Z</time>
      </trkpt>
      <trkpt lat="47.47735" lon="6.64212">
        <ele>411</ele>
        <time>2016-05-08T09:03:29.000Z</time>
      </trkpt>
      <trkpt lat="47.47739" lon="6.64215">
        <ele>411</ele>
        <time>2016-05-08T09:03:30.000Z</time>
      </trkpt>
      <trkpt lat="47.47743" lon="6.64218">
        <ele>411</ele>
        <time>2016-05-08T09:03:31.000Z</time>
      </trkpt>
      <trkpt lat="47.47747" lon="6.6422">
        <ele>411</ele>
        <time>2016-05-08T09:03:32.000Z</time>
      </trkpt>
      <trkpt lat="47.47749" lon="6.64223">
        <ele>411</ele>
        <time>2016-05-08T09:03:33.000Z</time>
      </trkpt>
      <trkpt lat="47.47751" lon="6.64226">
        <ele>405</ele>
        <time>2016-05-08T09:03:34.000Z</time>
      </trkpt>
      <trkpt lat="47.47754" lon="6.6423">
        <ele>405</ele>
        <time>2016-05-08T09:03:35.000Z</time>
      </trkpt>
      <trkpt lat="47.47756" lon="6.64235">
        <ele>406</ele>
        <time>2016-05-08T09:03:36.000Z</time>
      </trkpt>
      <trkpt lat="47.47758" lon="6.64259">
        <ele>408</ele>
        <time>2016-05-08T09:03:37.000Z</time>
      </trkpt>
      <trkpt lat="47.4776" lon="6.64274">
        <ele>406</ele>
        <time>2016-05-08T09:03:38.000Z</time>
      </trkpt>
      <trkpt lat="47.47759" lon="6.64287">
        <ele>405</ele>
        <time>2016-05-08T09:03:39.000Z</time>
      </trkpt>
      <trkpt lat="47.4776" lon="6.64301">
        <ele>405</ele>
        <time>2016-05-08T09:03:40.000Z</time>
      </trkpt>
      <trkpt lat="47.47761" lon="6.64313">
        <ele>405</ele>
        <time>2016-05-08T09:03:41.000Z</time>
      </trkpt>
      <trkpt lat="47.47763" lon="6.64322">
        <ele>406</ele>
        <time>2016-05-08T09:03:42.000Z</time>
      </trkpt>
      <trkpt lat="47.47766" lon="6.64327">
        <ele>406</ele>
        <time>2016-05-08T09:03:43.000Z</time>
      </trkpt>
      <trkpt lat="47.47768" lon="6.64334">
        <ele>407</ele>
        <time>2016-05-08T09:03:44.000Z</time>
      </trkpt>
      <trkpt lat="47.4777" lon="6.64339">
        <ele>407</ele>
        <time>2016-05-08T09:03:45.000Z</time>
      </trkpt>
      <trkpt lat="47.47772" lon="6.64343">
        <ele>406</ele>
        <time>2016-05-08T09:03:46.000Z</time>
      </trkpt>
      <trkpt lat="47.47775" lon="6.64348">
        <ele>406</ele>
        <time>2016-05-08T09:03:47.000Z</time>
      </trkpt>
      <trkpt lat="47.47777" lon="6.64352">
        <ele>406</ele>
        <time>2016-05-08T09:03:48.000Z</time>
      </trkpt>
      <trkpt lat="47.47778" lon="6.64355">
        <ele>406</ele>
        <time>2016-05-08T09:03:49.000Z</time>
      </trkpt>
      <trkpt lat="47.4778" lon="6.64358">
        <ele>406</ele>
        <time>2016-05-08T09:03:50.000Z</time>
      </trkpt>
      <trkpt lat="47.47783" lon="6.6436">
        <ele>406</ele>
        <time>2016-05-08T09:03:51.000Z</time>
      </trkpt>
      <trkpt lat="47.47784" lon="6.64362">
        <ele>406</ele>
        <time>2016-05-08T09:03:52.000Z</time>
      </trkpt>
      <trkpt lat="47.47787" lon="6.64367">
        <ele>406</ele>
        <time>2016-05-08T09:03:54.000Z</time>
      </trkpt>
      <trkpt lat="47.47788" lon="6.64369">
        <ele>406</ele>
        <time>2016-05-08T09:03:55.000Z</time>
      </trkpt>
      <trkpt lat="47.47789" lon="6.64372">
        <ele>406</ele>
        <time>2016-05-08T09:03:56.000Z</time>
      </trkpt>
      <trkpt lat="47.47791" lon="6.64374">
        <ele>406</ele>
        <time>2016-05-08T09:03:57.000Z</time>
      </trkpt>
      <trkpt lat="47.47795" lon="6.64378">
        <ele>406</ele>
        <time>2016-05-08T09:03:59.000Z</time>
      </trkpt>
      <trkpt lat="47.47797" lon="6.64379">
        <ele>406</ele>
        <time>2016-05-08T09:04:00.000Z</time>
      </trkpt>
      <trkpt lat="47.47799" lon="6.64381">
        <ele>406</ele>
        <time>2016-05-08T09:04:01.000Z</time>
      </trkpt>
      <trkpt lat="47.478" lon="6.64383">
        <ele>406</ele>
        <time>2016-05-08T09:04:02.000Z</time>
      </trkpt>
      <trkpt lat="47.47803" lon="6.64387">
        <ele>406</ele>
        <time>2016-05-08T09:04:04.000Z</time>
      </trkpt>
      <trkpt lat="47.47804" lon="6.64389">
        <ele>406</ele>
        <time>2016-05-08T09:04:05.000Z</time>
      </trkpt>
      <trkpt lat="47.47805" lon="6.64395">
        <ele>406</ele>
        <time>2016-05-08T09:04:07.000Z</time>
      </trkpt>
      <trkpt lat="47.47806" lon="6.64397">
        <ele>406</ele>
        <time>2016-05-08T09:04:08.000Z</time>
      </trkpt>
      <trkpt lat="47.47808" lon="6.64402">
        <ele>406</ele>
        <time>2016-05-08T09:04:10.000Z</time>
      </trkpt>
      <trkpt lat="47.47809" lon="6.64405">
        <ele>406</ele>
        <time>2016-05-08T09:04:11.000Z</time>
      </trkpt>
      <trkpt lat="47.4781" lon="6.64409">
        <ele>406</ele>
        <time>2016-05-08T09:04:13.000Z</time>
      </trkpt>
      <trkpt lat="47.47811" lon="6.64411">
        <ele>406</ele>
        <time>2016-05-08T09:04:14.000Z</time>
      </trkpt>
      <trkpt lat="47.47812" lon="6.64417">
        <ele>410</ele>
        <time>2016-05-08T09:04:16.000Z</time>
      </trkpt>
      <trkpt lat="47.47812" lon="6.6442">
        <ele>410</ele>
        <time>2016-05-08T09:04:17.000Z</time>
      </trkpt>
      <trkpt lat="47.47814" lon="6.64426">
        <ele>410</ele>
        <time>2016-05-08T09:04:19.000Z</time>
      </trkpt>
      <trkpt lat="47.47815" lon="6.64429">
        <ele>410</ele>
        <time>2016-05-08T09:04:20.000Z</time>
      </trkpt>
      <trkpt lat="47.47817" lon="6.64433">
        <ele>410</ele>
        <time>2016-05-08T09:04:22.000Z</time>
      </trkpt>
      <trkpt lat="47.47818" lon="6.64436">
        <ele>410</ele>
        <time>2016-05-08T09:04:23.000Z</time>
      </trkpt>
      <trkpt lat="47.47821" lon="6.6444">
        <ele>411</ele>
        <time>2016-05-08T09:04:25.000Z</time>
      </trkpt>
      <trkpt lat="47.47822" lon="6.64443">
        <ele>411</ele>
        <time>2016-05-08T09:04:26.000Z</time>
      </trkpt>
      <trkpt lat="47.47823" lon="6.64446">
        <ele>411</ele>
        <time>2016-05-08T09:04:27.000Z</time>
      </trkpt>
      <trkpt lat="47.47825" lon="6.64449">
        <ele>411</ele>
        <time>2016-05-08T09:04:28.000Z</time>
      </trkpt>
      <trkpt lat="47.47826" lon="6.64452">
        <ele>412</ele>
        <time>2016-05-08T09:04:29.000Z</time>
      </trkpt>
      <trkpt lat="47.47827" lon="6.64455">
        <ele>412</ele>
        <time>2016-05-08T09:04:30.000Z</time>
      </trkpt>
      <trkpt lat="47.47828" lon="6.64458">
        <ele>412</ele>
        <time>2016-05-08T09:04:31.000Z</time>
      </trkpt>
      <trkpt lat="47.47829" lon="6.64461">
        <ele>412</ele>
        <time>2016-05-08T09:04:32.000Z</time>
      </trkpt>
      <trkpt lat="47.47831" lon="6.64464">
        <ele>413</ele>
        <time>2016-05-08T09:04:33.000Z</time>
      </trkpt>
      <trkpt lat="47.47832" lon="6.64468">
        <ele>413</ele>
        <time>2016-05-08T09:04:34.000Z</time>
      </trkpt>
      <trkpt lat="47.47833" lon="6.64471">
        <ele>413</ele>
        <time>2016-05-08T09:04:35.000Z</time>
      </trkpt>
      <trkpt lat="47.47834" lon="6.64474">
        <ele>411</ele>
        <time>2016-05-08T09:04:36.000Z</time>
      </trkpt>
      <trkpt lat="47.47835" lon="6.6448">
        <ele>412</ele>
        <time>2016-05-08T09:04:38.000Z</time>
      </trkpt>
      <trkpt lat="47.47836" lon="6.64482">
        <ele>412</ele>
        <time>2016-05-08T09:04:39.000Z</time>
      </trkpt>
      <trkpt lat="47.47839" lon="6.64487">
        <ele>413</ele>
        <time>2016-05-08T09:04:42.000Z</time>
      </trkpt>
      <trkpt lat="47.4784" lon="6.64489">
        <ele>413</ele>
        <time>2016-05-08T09:04:43.000Z</time>
      </trkpt>
      <trkpt lat="47.47843" lon="6.64494">
        <ele>413</ele>
        <time>2016-05-08T09:04:46.000Z</time>
      </trkpt>
      <trkpt lat="47.47844" lon="6.64496">
        <ele>413</ele>
        <time>2016-05-08T09:04:47.000Z</time>
      </trkpt>
      <trkpt lat="47.47846" lon="6.645">
        <ele>417</ele>
        <time>2016-05-08T09:04:49.000Z</time>
      </trkpt>
      <trkpt lat="47.47848" lon="6.64502">
        <ele>417</ele>
        <time>2016-05-08T09:04:50.000Z</time>
      </trkpt>
      <trkpt lat="47.4785" lon="6.64504">
        <ele>417</ele>
        <time>2016-05-08T09:04:52.000Z</time>
      </trkpt>
      <trkpt lat="47.47852" lon="6.64505">
        <ele>417</ele>
        <time>2016-05-08T09:04:53.000Z</time>
      </trkpt>
      <trkpt lat="47.47854" lon="6.6451">
        <ele>417</ele>
        <time>2016-05-08T09:04:55.000Z</time>
      </trkpt>
      <trkpt lat="47.47856" lon="6.64513">
        <ele>417</ele>
        <time>2016-05-08T09:04:56.000Z</time>
      </trkpt>
      <trkpt lat="47.47857" lon="6.64516">
        <ele>417</ele>
        <time>2016-05-08T09:04:57.000Z</time>
      </trkpt>
      <trkpt lat="47.47858" lon="6.6452">
        <ele>417</ele>
        <time>2016-05-08T09:04:58.000Z</time>
      </trkpt>
      <trkpt lat="47.4786" lon="6.64524">
        <ele>417</ele>
        <time>2016-05-08T09:05:00.000Z</time>
      </trkpt>
      <trkpt lat="47.47861" lon="6.64526">
        <ele>417</ele>
        <time>2016-05-08T09:05:01.000Z</time>
      </trkpt>
      <trkpt lat="47.47862" lon="6.6453">
        <ele>417</ele>
        <time>2016-05-08T09:05:03.000Z</time>
      </trkpt>
      <trkpt lat="47.47863" lon="6.64532">
        <ele>417</ele>
        <time>2016-05-08T09:05:04.000Z</time>
      </trkpt>
      <trkpt lat="47.47865" lon="6.64536">
        <ele>417</ele>
        <time>2016-05-08T09:05:06.000Z</time>
      </trkpt>
      <trkpt lat="47.47866" lon="6.64538">
        <ele>417</ele>
        <time>2016-05-08T09:05:07.000Z</time>
      </trkpt>
      <trkpt lat="47.47869" lon="6.6454">
        <ele>417</ele>
        <time>2016-05-08T09:05:08.000Z</time>
      </trkpt>
      <trkpt lat="47.47872" lon="6.64542">
        <ele>417</ele>
        <time>2016-05-08T09:05:09.000Z</time>
      </trkpt>
      <trkpt lat="47.47876" lon="6.64545">
        <ele>417</ele>
        <time>2016-05-08T09:05:10.000Z</time>
      </trkpt>
      <trkpt lat="47.4788" lon="6.64548">
        <ele>417</ele>
        <time>2016-05-08T09:05:11.000Z</time>
      </trkpt>
      <trkpt lat="47.47884" lon="6.64551">
        <ele>417</ele>
        <time>2016-05-08T09:05:12.000Z</time>
      </trkpt>
      <trkpt lat="47.47887" lon="6.64555">
        <ele>417</ele>
        <time>2016-05-08T09:05:13.000Z</time>
      </trkpt>
      <trkpt lat="47.47891" lon="6.64559">
        <ele>418</ele>
        <time>2016-05-08T09:05:14.000Z</time>
      </trkpt>
      <trkpt lat="47.47895" lon="6.64563">
        <ele>418</ele>
        <time>2016-05-08T09:05:15.000Z</time>
      </trkpt>
      <trkpt lat="47.47899" lon="6.64568">
        <ele>418</ele>
        <time>2016-05-08T09:05:16.000Z</time>
      </trkpt>
      <trkpt lat="47.47903" lon="6.64571">
        <ele>418</ele>
        <time>2016-05-08T09:05:17.000Z</time>
      </trkpt>
      <trkpt lat="47.47906" lon="6.64574">
        <ele>419</ele>
        <time>2016-05-08T09:05:18.000Z</time>
      </trkpt>
      <trkpt lat="47.4791" lon="6.64578">
        <ele>419</ele>
        <time>2016-05-08T09:05:19.000Z</time>
      </trkpt>
      <trkpt lat="47.47912" lon="6.64581">
        <ele>419</ele>
        <time>2016-05-08T09:05:20.000Z</time>
      </trkpt>
      <trkpt lat="47.47915" lon="6.64584">
        <ele>421</ele>
        <time>2016-05-08T09:05:21.000Z</time>
      </trkpt>
      <trkpt lat="47.47917" lon="6.64588">
        <ele>421</ele>
        <time>2016-05-08T09:05:22.000Z</time>
      </trkpt>
      <trkpt lat="47.47919" lon="6.64591">
        <ele>422</ele>
        <time>2016-05-08T09:05:23.000Z</time>
      </trkpt>
      <trkpt lat="47.47922" lon="6.64594">
        <ele>422</ele>
        <time>2016-05-08T09:05:24.000Z</time>
      </trkpt>
      <trkpt lat="47.47924" lon="6.64598">
        <ele>423</ele>
        <time>2016-05-08T09:05:25.000Z</time>
      </trkpt>
      <trkpt lat="47.47927" lon="6.64603">
        <ele>424</ele>
        <time>2016-05-08T09:05:26.000Z</time>
      </trkpt>
      <trkpt lat="47.4793" lon="6.64607">
        <ele>424</ele>
        <time>2016-05-08T09:05:27.000Z</time>
      </trkpt>
      <trkpt lat="47.47932" lon="6.64612">
        <ele>425</ele>
        <time>2016-05-08T09:05:28.000Z</time>
      </trkpt>
      <trkpt lat="47.47935" lon="6.64616">
        <ele>425</ele>
        <time>2016-05-08T09:05:29.000Z</time>
      </trkpt>
      <trkpt lat="47.47937" lon="6.64619">
        <ele>425</ele>
        <time>2016-05-08T09:05:30.000Z</time>
      </trkpt>
      <trkpt lat="47.4794" lon="6.64622">
        <ele>425</ele>
        <time>2016-05-08T09:05:31.000Z</time>
      </trkpt>
      <trkpt lat="47.47943" lon="6.64625">
        <ele>426</ele>
        <time>2016-05-08T09:05:32.000Z</time>
      </trkpt>
      <trkpt lat="47.47946" lon="6.6463">
        <ele>426</ele>
        <time>2016-05-08T09:05:33.000Z</time>
      </trkpt>
      <trkpt lat="47.47949" lon="6.64634">
        <ele>426</ele>
        <time>2016-05-08T09:05:34.000Z</time>
      </trkpt>
      <trkpt lat="47.47951" lon="6.64637">
        <ele>427</ele>
        <time>2016-05-08T09:05:35.000Z</time>
      </trkpt>
      <trkpt lat="47.47953" lon="6.6464">
        <ele>427</ele>
        <time>2016-05-08T09:05:36.000Z</time>
      </trkpt>
      <trkpt lat="47.47955" lon="6.64643">
        <ele>427</ele>
        <time>2016-05-08T09:05:37.000Z</time>
      </trkpt>
      <trkpt lat="47.47957" lon="6.64646">
        <ele>427</ele>
        <time>2016-05-08T09:05:38.000Z</time>
      </trkpt>
      <trkpt lat="47.47959" lon="6.64648">
        <ele>427</ele>
        <time>2016-05-08T09:05:39.000Z</time>
      </trkpt>
      <trkpt lat="47.47961" lon="6.64651">
        <ele>427</ele>
        <time>2016-05-08T09:05:40.000Z</time>
      </trkpt>
      <trkpt lat="47.47964" lon="6.64654">
        <ele>428</ele>
        <time>2016-05-08T09:05:41.000Z</time>
      </trkpt>
      <trkpt lat="47.47967" lon="6.64656">
        <ele>428</ele>
        <time>2016-05-08T09:05:42.000Z</time>
      </trkpt>
      <trkpt lat="47.4797" lon="6.64659">
        <ele>428</ele>
        <time>2016-05-08T09:05:43.000Z</time>
      </trkpt>
      <trkpt lat="47.47973" lon="6.6466">
        <ele>428</ele>
        <time>2016-05-08T09:05:44.000Z</time>
      </trkpt>
      <trkpt lat="47.47976" lon="6.64663">
        <ele>428</ele>
        <time>2016-05-08T09:05:45.000Z</time>
      </trkpt>
      <trkpt lat="47.47979" lon="6.64665">
        <ele>429</ele>
        <time>2016-05-08T09:05:46.000Z</time>
      </trkpt>
      <trkpt lat="47.47982" lon="6.64668">
        <ele>433</ele>
        <time>2016-05-08T09:05:47.000Z</time>
      </trkpt>
      <trkpt lat="47.47985" lon="6.64671">
        <ele>433</ele>
        <time>2016-05-08T09:05:48.000Z</time>
      </trkpt>
      <trkpt lat="47.47987" lon="6.64674">
        <ele>433</ele>
        <time>2016-05-08T09:05:49.000Z</time>
      </trkpt>
      <trkpt lat="47.4799" lon="6.64676">
        <ele>433</ele>
        <time>2016-05-08T09:05:50.000Z</time>
      </trkpt>
      <trkpt lat="47.47993" lon="6.64679">
        <ele>433</ele>
        <time>2016-05-08T09:05:51.000Z</time>
      </trkpt>
      <trkpt lat="47.47997" lon="6.64682">
        <ele>433</ele>
        <time>2016-05-08T09:05:52.000Z</time>
      </trkpt>
      <trkpt lat="47.48" lon="6.64685">
        <ele>433</ele>
        <time>2016-05-08T09:05:53.000Z</time>
      </trkpt>
      <trkpt lat="47.48004" lon="6.64687">
        <ele>435</ele>
        <time>2016-05-08T09:05:54.000Z</time>
      </trkpt>
      <trkpt lat="47.48007" lon="6.64689">
        <ele>436</ele>
        <time>2016-05-08T09:05:55.000Z</time>
      </trkpt>
      <trkpt lat="47.4801" lon="6.64692">
        <ele>436</ele>
        <time>2016-05-08T09:05:56.000Z</time>
      </trkpt>
      <trkpt lat="47.48012" lon="6.64695">
        <ele>436</ele>
        <time>2016-05-08T09:05:57.000Z</time>
      </trkpt>
      <trkpt lat="47.48014" lon="6.64698">
        <ele>437</ele>
        <time>2016-05-08T09:05:58.000Z</time>
      </trkpt>
      <trkpt lat="47.48016" lon="6.647">
        <ele>437</ele>
        <time>2016-05-08T09:05:59.000Z</time>
      </trkpt>
      <trkpt lat="47.48019" lon="6.64704">
        <ele>437</ele>
        <time>2016-05-08T09:06:01.000Z</time>
      </trkpt>
      <trkpt lat="47.48021" lon="6.64705">
        <ele>437</ele>
        <time>2016-05-08T09:06:02.000Z</time>
      </trkpt>
      <trkpt lat="47.48024" lon="6.64709">
        <ele>437</ele>
        <time>2016-05-08T09:06:04.000Z</time>
      </trkpt>
      <trkpt lat="47.48027" lon="6.6471">
        <ele>438</ele>
        <time>2016-05-08T09:06:05.000Z</time>
      </trkpt>
      <trkpt lat="47.48029" lon="6.64712">
        <ele>438</ele>
        <time>2016-05-08T09:06:06.000Z</time>
      </trkpt>
      <trkpt lat="47.48031" lon="6.64714">
        <ele>438</ele>
        <time>2016-05-08T09:06:07.000Z</time>
      </trkpt>
      <trkpt lat="47.48033" lon="6.64715">
        <ele>438</ele>
        <time>2016-05-08T09:06:08.000Z</time>
      </trkpt>
      <trkpt lat="47.48035" lon="6.64718">
        <ele>438</ele>
        <time>2016-05-08T09:06:09.000Z</time>
      </trkpt>
      <trkpt lat="47.48038" lon="6.6472">
        <ele>438</ele>
        <time>2016-05-08T09:06:10.000Z</time>
      </trkpt>
      <trkpt lat="47.4804" lon="6.64723">
        <ele>438</ele>
        <time>2016-05-08T09:06:11.000Z</time>
      </trkpt>
      <trkpt lat="47.48043" lon="6.64725">
        <ele>439</ele>
        <time>2016-05-08T09:06:12.000Z</time>
      </trkpt>
      <trkpt lat="47.48045" lon="6.64727">
        <ele>439</ele>
        <time>2016-05-08T09:06:13.000Z</time>
      </trkpt>
      <trkpt lat="47.48047" lon="6.64729">
        <ele>439</ele>
        <time>2016-05-08T09:06:14.000Z</time>
      </trkpt>
      <trkpt lat="47.48049" lon="6.64729">
        <ele>439</ele>
        <time>2016-05-08T09:06:15.000Z</time>
      </trkpt>
      <trkpt lat="47.48053" lon="6.64731">
        <ele>439</ele>
        <time>2016-05-08T09:06:17.000Z</time>
      </trkpt>
      <trkpt lat="47.48054" lon="6.64732">
        <ele>439</ele>
        <time>2016-05-08T09:06:18.000Z</time>
      </trkpt>
      <trkpt lat="47.48058" lon="6.64735">
        <ele>440</ele>
        <time>2016-05-08T09:06:20.000Z</time>
      </trkpt>
      <trkpt lat="47.48059" lon="6.64738">
        <ele>440</ele>
        <time>2016-05-08T09:06:21.000Z</time>
      </trkpt>
      <trkpt lat="47.48061" lon="6.64743">
        <ele>440</ele>
        <time>2016-05-08T09:06:23.000Z</time>
      </trkpt>
      <trkpt lat="47.48062" lon="6.64745">
        <ele>440</ele>
        <time>2016-05-08T09:06:24.000Z</time>
      </trkpt>
      <trkpt lat="47.48063" lon="6.64747">
        <ele>440</ele>
        <time>2016-05-08T09:06:25.000Z</time>
      </trkpt>
      <trkpt lat="47.48065" lon="6.6475">
        <ele>440</ele>
        <time>2016-05-08T09:06:26.000Z</time>
      </trkpt>
      <trkpt lat="47.48067" lon="6.64752">
        <ele>442</ele>
        <time>2016-05-08T09:06:27.000Z</time>
      </trkpt>
      <trkpt lat="47.48069" lon="6.64755">
        <ele>443</ele>
        <time>2016-05-08T09:06:28.000Z</time>
      </trkpt>
      <trkpt lat="47.48071" lon="6.64759">
        <ele>443</ele>
        <time>2016-05-08T09:06:30.000Z</time>
      </trkpt>
      <trkpt lat="47.48072" lon="6.64761">
        <ele>443</ele>
        <time>2016-05-08T09:06:31.000Z</time>
      </trkpt>
      <trkpt lat="47.48073" lon="6.64767">
        <ele>443</ele>
        <time>2016-05-08T09:06:33.000Z</time>
      </trkpt>
      <trkpt lat="47.48073" lon="6.6477">
        <ele>443</ele>
        <time>2016-05-08T09:06:34.000Z</time>
      </trkpt>
      <trkpt lat="47.48074" lon="6.64776">
        <ele>443</ele>
        <time>2016-05-08T09:06:36.000Z</time>
      </trkpt>
      <trkpt lat="47.48075" lon="6.64778">
        <ele>443</ele>
        <time>2016-05-08T09:06:37.000Z</time>
      </trkpt>
      <trkpt lat="47.48075" lon="6.64782">
        <ele>443</ele>
        <time>2016-05-08T09:06:40.000Z</time>
      </trkpt>
      <trkpt lat="47.48075" lon="6.64784">
        <ele>443</ele>
        <time>2016-05-08T09:06:41.000Z</time>
      </trkpt>
      <trkpt lat="47.48076" lon="6.6479">
        <ele>443</ele>
        <time>2016-05-08T09:06:43.000Z</time>
      </trkpt>
      <trkpt lat="47.48077" lon="6.64793">
        <ele>443</ele>
        <time>2016-05-08T09:06:44.000Z</time>
      </trkpt>
      <trkpt lat="47.48077" lon="6.64797">
        <ele>443</ele>
        <time>2016-05-08T09:06:45.000Z</time>
      </trkpt>
      <trkpt lat="47.48077" lon="6.64802">
        <ele>443</ele>
        <time>2016-05-08T09:06:46.000Z</time>
      </trkpt>
      <trkpt lat="47.48077" lon="6.64806">
        <ele>443</ele>
        <time>2016-05-08T09:06:47.000Z</time>
      </trkpt>
      <trkpt lat="47.48078" lon="6.6481">
        <ele>443</ele>
        <time>2016-05-08T09:06:48.000Z</time>
      </trkpt>
      <trkpt lat="47.48079" lon="6.64813">
        <ele>444</ele>
        <time>2016-05-08T09:06:49.000Z</time>
      </trkpt>
      <trkpt lat="47.4808" lon="6.64816">
        <ele>444</ele>
        <time>2016-05-08T09:06:50.000Z</time>
      </trkpt>
      <trkpt lat="47.48081" lon="6.64819">
        <ele>444</ele>
        <time>2016-05-08T09:06:51.000Z</time>
      </trkpt>
      <trkpt lat="47.48082" lon="6.64822">
        <ele>444</ele>
        <time>2016-05-08T09:06:52.000Z</time>
      </trkpt>
      <trkpt lat="47.48084" lon="6.64827">
        <ele>445</ele>
        <time>2016-05-08T09:06:54.000Z</time>
      </trkpt>
      <trkpt lat="47.48085" lon="6.6483">
        <ele>445</ele>
        <time>2016-05-08T09:06:55.000Z</time>
      </trkpt>
      <trkpt lat="47.48086" lon="6.64832">
        <ele>445</ele>
        <time>2016-05-08T09:06:56.000Z</time>
      </trkpt>
      <trkpt lat="47.48087" lon="6.64835">
        <ele>446</ele>
        <time>2016-05-08T09:06:57.000Z</time>
      </trkpt>
      <trkpt lat="47.4809" lon="6.64841">
        <ele>446</ele>
        <time>2016-05-08T09:06:59.000Z</time>
      </trkpt>
      <trkpt lat="47.4809" lon="6.64844">
        <ele>447</ele>
        <time>2016-05-08T09:07:00.000Z</time>
      </trkpt>
      <trkpt lat="47.48091" lon="6.64848">
        <ele>447</ele>
        <time>2016-05-08T09:07:01.000Z</time>
      </trkpt>
      <trkpt lat="47.48092" lon="6.64851">
        <ele>447</ele>
        <time>2016-05-08T09:07:02.000Z</time>
      </trkpt>
      <trkpt lat="47.48093" lon="6.64855">
        <ele>447</ele>
        <time>2016-05-08T09:07:03.000Z</time>
      </trkpt>
      <trkpt lat="47.48094" lon="6.64858">
        <ele>448</ele>
        <time>2016-05-08T09:07:04.000Z</time>
      </trkpt>
      <trkpt lat="47.48095" lon="6.64862">
        <ele>448</ele>
        <time>2016-05-08T09:07:05.000Z</time>
      </trkpt>
      <trkpt lat="47.48096" lon="6.64866">
        <ele>448</ele>
        <time>2016-05-08T09:07:06.000Z</time>
      </trkpt>
      <trkpt lat="47.48097" lon="6.64869">
        <ele>448</ele>
        <time>2016-05-08T09:07:07.000Z</time>
      </trkpt>
      <trkpt lat="47.48097" lon="6.64872">
        <ele>448</ele>
        <time>2016-05-08T09:07:08.000Z</time>
      </trkpt>
      <trkpt lat="47.48098" lon="6.64877">
        <ele>449</ele>
        <time>2016-05-08T09:07:10.000Z</time>
      </trkpt>
      <trkpt lat="47.48098" lon="6.6488">
        <ele>449</ele>
        <time>2016-05-08T09:07:11.000Z</time>
      </trkpt>
      <trkpt lat="47.481" lon="6.64884">
        <ele>449</ele>
        <time>2016-05-08T09:07:13.000Z</time>
      </trkpt>
      <trkpt lat="47.48101" lon="6.64886">
        <ele>449</ele>
        <time>2016-05-08T09:07:14.000Z</time>
      </trkpt>
      <trkpt lat="47.48102" lon="6.6489">
        <ele>449</ele>
        <time>2016-05-08T09:07:16.000Z</time>
      </trkpt>
      <trkpt lat="47.48103" lon="6.64892">
        <ele>449</ele>
        <time>2016-05-08T09:07:17.000Z</time>
      </trkpt>
      <trkpt lat="47.48106" lon="6.64895">
        <ele>449</ele>
        <time>2016-05-08T09:07:19.000Z</time>
      </trkpt>
      <trkpt lat="47.48108" lon="6.64897">
        <ele>449</ele>
        <time>2016-05-08T09:07:20.000Z</time>
      </trkpt>
      <trkpt lat="47.48111" lon="6.64901">
        <ele>449</ele>
        <time>2016-05-08T09:07:22.000Z</time>
      </trkpt>
      <trkpt lat="47.48112" lon="6.64902">
        <ele>449</ele>
        <time>2016-05-08T09:07:23.000Z</time>
      </trkpt>
      <trkpt lat="47.48114" lon="6.64906">
        <ele>449</ele>
        <time>2016-05-08T09:07:25.000Z</time>
      </trkpt>
      <trkpt lat="47.48115" lon="6.64908">
        <ele>449</ele>
        <time>2016-05-08T09:07:26.000Z</time>
      </trkpt>
      <trkpt lat="47.48116" lon="6.64913">
        <ele>449</ele>
        <time>2016-05-08T09:07:28.000Z</time>
      </trkpt>
      <trkpt lat="47.48116" lon="6.64915">
        <ele>449</ele>
        <time>2016-05-08T09:07:29.000Z</time>
      </trkpt>
      <trkpt lat="47.48117" lon="6.6492">
        <ele>452</ele>
        <time>2016-05-08T09:07:31.000Z</time>
      </trkpt>
      <trkpt lat="47.48118" lon="6.64922">
        <ele>452</ele>
        <time>2016-05-08T09:07:32.000Z</time>
      </trkpt>
      <trkpt lat="47.4812" lon="6.64927">
        <ele>452</ele>
        <time>2016-05-08T09:07:34.000Z</time>
      </trkpt>
      <trkpt lat="47.48121" lon="6.64929">
        <ele>452</ele>
        <time>2016-05-08T09:07:35.000Z</time>
      </trkpt>
      <trkpt lat="47.48122" lon="6.64935">
        <ele>452</ele>
        <time>2016-05-08T09:07:38.000Z</time>
      </trkpt>
      <trkpt lat="47.48123" lon="6.64937">
        <ele>452</ele>
        <time>2016-05-08T09:07:39.000Z</time>
      </trkpt>
      <trkpt lat="47.48124" lon="6.64942">
        <ele>453</ele>
        <time>2016-05-08T09:07:41.000Z</time>
      </trkpt>
      <trkpt lat="47.48125" lon="6.64944">
        <ele>453</ele>
        <time>2016-05-08T09:07:42.000Z</time>
      </trkpt>
      <trkpt lat="47.48127" lon="6.64948">
        <ele>453</ele>
        <time>2016-05-08T09:07:44.000Z</time>
      </trkpt>
      <trkpt lat="47.48128" lon="6.6495">
        <ele>453</ele>
        <time>2016-05-08T09:07:45.000Z</time>
      </trkpt>
      <trkpt lat="47.48129" lon="6.64956">
        <ele>453</ele>
        <time>2016-05-08T09:07:47.000Z</time>
      </trkpt>
      <trkpt lat="47.48129" lon="6.6496">
        <ele>453</ele>
        <time>2016-05-08T09:07:48.000Z</time>
      </trkpt>
      <trkpt lat="47.48129" lon="6.64965">
        <ele>453</ele>
        <time>2016-05-08T09:07:49.000Z</time>
      </trkpt>
      <trkpt lat="47.4813" lon="6.6497">
        <ele>453</ele>
        <time>2016-05-08T09:07:50.000Z</time>
      </trkpt>
      <trkpt lat="47.4813" lon="6.64974">
        <ele>453</ele>
        <time>2016-05-08T09:07:51.000Z</time>
      </trkpt>
      <trkpt lat="47.48131" lon="6.64976">
        <ele>453</ele>
        <time>2016-05-08T09:07:52.000Z</time>
      </trkpt>
      <trkpt lat="47.48133" lon="6.64981">
        <ele>454</ele>
        <time>2016-05-08T09:07:54.000Z</time>
      </trkpt>
      <trkpt lat="47.48134" lon="6.64983">
        <ele>454</ele>
        <time>2016-05-08T09:07:55.000Z</time>
      </trkpt>
      <trkpt lat="47.48135" lon="6.64989">
        <ele>454</ele>
        <time>2016-05-08T09:07:57.000Z</time>
      </trkpt>
      <trkpt lat="47.48135" lon="6.64993">
        <ele>454</ele>
        <time>2016-05-08T09:07:58.000Z</time>
      </trkpt>
      <trkpt lat="47.48135" lon="6.64998">
        <ele>454</ele>
        <time>2016-05-08T09:08:00.000Z</time>
      </trkpt>
      <trkpt lat="47.48135" lon="6.65001">
        <ele>456</ele>
        <time>2016-05-08T09:08:01.000Z</time>
      </trkpt>
      <trkpt lat="47.48135" lon="6.65005">
        <ele>456</ele>
        <time>2016-05-08T09:08:02.000Z</time>
      </trkpt>
      <trkpt lat="47.48135" lon="6.65008">
        <ele>456</ele>
        <time>2016-05-08T09:08:03.000Z</time>
      </trkpt>
      <trkpt lat="47.48135" lon="6.65012">
        <ele>456</ele>
        <time>2016-05-08T09:08:04.000Z</time>
      </trkpt>
      <trkpt lat="47.48135" lon="6.65016">
        <ele>456</ele>
        <time>2016-05-08T09:08:05.000Z</time>
      </trkpt>
      <trkpt lat="47.48135" lon="6.6502">
        <ele>457</ele>
        <time>2016-05-08T09:08:06.000Z</time>
      </trkpt>
      <trkpt lat="47.48136" lon="6.65023">
        <ele>457</ele>
        <time>2016-05-08T09:08:07.000Z</time>
      </trkpt>
      <trkpt lat="47.48136" lon="6.65027">
        <ele>457</ele>
        <time>2016-05-08T09:08:08.000Z</time>
      </trkpt>
      <trkpt lat="47.48137" lon="6.65031">
        <ele>457</ele>
        <time>2016-05-08T09:08:09.000Z</time>
      </trkpt>
      <trkpt lat="47.48138" lon="6.65034">
        <ele>457</ele>
        <time>2016-05-08T09:08:10.000Z</time>
      </trkpt>
      <trkpt lat="47.48139" lon="6.65037">
        <ele>457</ele>
        <time>2016-05-08T09:08:11.000Z</time>
      </trkpt>
      <trkpt lat="47.48142" lon="6.65041">
        <ele>457</ele>
        <time>2016-05-08T09:08:13.000Z</time>
      </trkpt>
      <trkpt lat="47.48144" lon="6.65044">
        <ele>457</ele>
        <time>2016-05-08T09:08:14.000Z</time>
      </trkpt>
      <trkpt lat="47.48146" lon="6.6505">
        <ele>457</ele>
        <time>2016-05-08T09:08:16.000Z</time>
      </trkpt>
      <trkpt lat="47.48147" lon="6.65053">
        <ele>457</ele>
        <time>2016-05-08T09:08:17.000Z</time>
      </trkpt>
      <trkpt lat="47.48148" lon="6.65058">
        <ele>457</ele>
        <time>2016-05-08T09:08:19.000Z</time>
      </trkpt>
      <trkpt lat="47.48148" lon="6.65061">
        <ele>458</ele>
        <time>2016-05-08T09:08:20.000Z</time>
      </trkpt>
      <trkpt lat="47.48149" lon="6.65066">
        <ele>458</ele>
        <time>2016-05-08T09:08:22.000Z</time>
      </trkpt>
      <trkpt lat="47.48149" lon="6.65068">
        <ele>458</ele>
        <time>2016-05-08T09:08:23.000Z</time>
      </trkpt>
      <trkpt lat="47.48148" lon="6.65072">
        <ele>458</ele>
        <time>2016-05-08T09:08:25.000Z</time>
      </trkpt>
      <trkpt lat="47.48148" lon="6.65075">
        <ele>458</ele>
        <time>2016-05-08T09:08:26.000Z</time>
      </trkpt>
      <trkpt lat="47.48148" lon="6.65079">
        <ele>458</ele>
        <time>2016-05-08T09:08:27.000Z</time>
      </trkpt>
      <trkpt lat="47.48147" lon="6.65084">
        <ele>459</ele>
        <time>2016-05-08T09:08:28.000Z</time>
      </trkpt>
      <trkpt lat="47.48147" lon="6.65088">
        <ele>460</ele>
        <time>2016-05-08T09:08:29.000Z</time>
      </trkpt>
      <trkpt lat="47.48146" lon="6.65094">
        <ele>460</ele>
        <time>2016-05-08T09:08:30.000Z</time>
      </trkpt>
      <trkpt lat="47.48145" lon="6.65099">
        <ele>460</ele>
        <time>2016-05-08T09:08:31.000Z</time>
      </trkpt>
      <trkpt lat="47.48144" lon="6.65103">
        <ele>460</ele>
        <time>2016-05-08T09:08:32.000Z</time>
      </trkpt>
      <trkpt lat="47.48143" lon="6.65108">
        <ele>460</ele>
        <time>2016-05-08T09:08:33.000Z</time>
      </trkpt>
      <trkpt lat="47.48143" lon="6.65112">
        <ele>460</ele>
        <time>2016-05-08T09:08:34.000Z</time>
      </trkpt>
      <trkpt lat="47.48143" lon="6.65116">
        <ele>460</ele>
        <time>2016-05-08T09:08:35.000Z</time>
      </trkpt>
      <trkpt lat="47.48143" lon="6.6512">
        <ele>460</ele>
        <time>2016-05-08T09:08:36.000Z</time>
      </trkpt>
      <trkpt lat="47.48144" lon="6.65124">
        <ele>460</ele>
        <time>2016-05-08T09:08:37.000Z</time>
      </trkpt>
      <trkpt lat="47.48145" lon="6.65128">
        <ele>460</ele>
        <time>2016-05-08T09:08:38.000Z</time>
      </trkpt>
      <trkpt lat="47.48146" lon="6.65132">
        <ele>461</ele>
        <time>2016-05-08T09:08:39.000Z</time>
      </trkpt>
      <trkpt lat="47.48147" lon="6.65135">
        <ele>461</ele>
        <time>2016-05-08T09:08:40.000Z</time>
      </trkpt>
      <trkpt lat="47.48147" lon="6.65139">
        <ele>461</ele>
        <time>2016-05-08T09:08:41.000Z</time>
      </trkpt>
      <trkpt lat="47.48147" lon="6.65142">
        <ele>461</ele>
        <time>2016-05-08T09:08:42.000Z</time>
      </trkpt>
      <trkpt lat="47.48147" lon="6.65145">
        <ele>461</ele>
        <time>2016-05-08T09:08:43.000Z</time>
      </trkpt>
      <trkpt lat="47.48146" lon="6.65149">
        <ele>461</ele>
        <time>2016-05-08T09:08:44.000Z</time>
      </trkpt>
      <trkpt lat="47.48145" lon="6.65153">
        <ele>461</ele>
        <time>2016-05-08T09:08:45.000Z</time>
      </trkpt>
      <trkpt lat="47.48144" lon="6.65157">
        <ele>461</ele>
        <time>2016-05-08T09:08:46.000Z</time>
      </trkpt>
      <trkpt lat="47.48144" lon="6.65162">
        <ele>462</ele>
        <time>2016-05-08T09:08:47.000Z</time>
      </trkpt>
      <trkpt lat="47.48144" lon="6.65166">
        <ele>462</ele>
        <time>2016-05-08T09:08:48.000Z</time>
      </trkpt>
      <trkpt lat="47.48144" lon="6.6517">
        <ele>463</ele>
        <time>2016-05-08T09:08:49.000Z</time>
      </trkpt>
      <trkpt lat="47.48144" lon="6.65174">
        <ele>463</ele>
        <time>2016-05-08T09:08:50.000Z</time>
      </trkpt>
      <trkpt lat="47.48144" lon="6.65178">
        <ele>463</ele>
        <time>2016-05-08T09:08:51.000Z</time>
      </trkpt>
      <trkpt lat="47.48145" lon="6.65183">
        <ele>463</ele>
        <time>2016-05-08T09:08:52.000Z</time>
      </trkpt>
      <trkpt lat="47.48147" lon="6.65188">
        <ele>463</ele>
        <time>2016-05-08T09:08:53.000Z</time>
      </trkpt>
      <trkpt lat="47.48148" lon="6.65194">
        <ele>463</ele>
        <time>2016-05-08T09:08:54.000Z</time>
      </trkpt>
      <trkpt lat="47.48148" lon="6.65199">
        <ele>463</ele>
        <time>2016-05-08T09:08:55.000Z</time>
      </trkpt>
      <trkpt lat="47.48148" lon="6.65205">
        <ele>463</ele>
        <time>2016-05-08T09:08:56.000Z</time>
      </trkpt>
      <trkpt lat="47.48148" lon="6.6521">
        <ele>463</ele>
        <time>2016-05-08T09:08:57.000Z</time>
      </trkpt>
      <trkpt lat="47.48149" lon="6.65216">
        <ele>463</ele>
        <time>2016-05-08T09:08:58.000Z</time>
      </trkpt>
      <trkpt lat="47.48149" lon="6.65222">
        <ele>464</ele>
        <time>2016-05-08T09:08:59.000Z</time>
      </trkpt>
      <trkpt lat="47.4815" lon="6.65227">
        <ele>464</ele>
        <time>2016-05-08T09:09:00.000Z</time>
      </trkpt>
      <trkpt lat="47.4815" lon="6.65233">
        <ele>464</ele>
        <time>2016-05-08T09:09:01.000Z</time>
      </trkpt>
      <trkpt lat="47.4815" lon="6.65239">
        <ele>464</ele>
        <time>2016-05-08T09:09:02.000Z</time>
      </trkpt>
      <trkpt lat="47.48151" lon="6.65245">
        <ele>465</ele>
        <time>2016-05-08T09:09:03.000Z</time>
      </trkpt>
      <trkpt lat="47.4815" lon="6.65252">
        <ele>465</ele>
        <time>2016-05-08T09:09:04.000Z</time>
      </trkpt>
      <trkpt lat="47.4815" lon="6.65259">
        <ele>465</ele>
        <time>2016-05-08T09:09:05.000Z</time>
      </trkpt>
      <trkpt lat="47.48149" lon="6.65264">
        <ele>464</ele>
        <time>2016-05-08T09:09:06.000Z</time>
      </trkpt>
      <trkpt lat="47.48149" lon="6.6527">
        <ele>464</ele>
        <time>2016-05-08T09:09:07.000Z</time>
      </trkpt>
      <trkpt lat="47.48148" lon="6.65274">
        <ele>464</ele>
        <time>2016-05-08T09:09:08.000Z</time>
      </trkpt>
      <trkpt lat="47.48148" lon="6.65279">
        <ele>464</ele>
        <time>2016-05-08T09:09:09.000Z</time>
      </trkpt>
      <trkpt lat="47.48148" lon="6.65282">
        <ele>464</ele>
        <time>2016-05-08T09:09:10.000Z</time>
      </trkpt>
      <trkpt lat="47.48149" lon="6.65286">
        <ele>463</ele>
        <time>2016-05-08T09:09:11.000Z</time>
      </trkpt>
      <trkpt lat="47.48149" lon="6.65289">
        <ele>463</ele>
        <time>2016-05-08T09:09:12.000Z</time>
      </trkpt>
      <trkpt lat="47.48151" lon="6.65293">
        <ele>463</ele>
        <time>2016-05-08T09:09:14.000Z</time>
      </trkpt>
      <trkpt lat="47.48152" lon="6.65295">
        <ele>463</ele>
        <time>2016-05-08T09:09:15.000Z</time>
      </trkpt>
      <trkpt lat="47.48149" lon="6.653">
        <ele>463</ele>
        <time>2016-05-08T09:10:34.000Z</time>
      </trkpt>
      <trkpt lat="47.48149" lon="6.653">
        <ele>463</ele>
        <time>2016-05-08T09:10:35.000Z</time>
      </trkpt>
      <trkpt lat="47.48147" lon="6.65306">
        <ele>463</ele>
        <time>2016-05-08T09:12:04.000Z</time>
      </trkpt>
      <trkpt lat="47.48147" lon="6.65307">
        <ele>463</ele>
        <time>2016-05-08T09:12:05.000Z</time>
      </trkpt>
      <trkpt lat="47.4815" lon="6.65305">
        <ele>463</ele>
        <time>2016-05-08T09:12:24.000Z</time>
      </trkpt>
      <trkpt lat="47.48152" lon="6.65307">
        <ele>463</ele>
        <time>2016-05-08T09:12:25.000Z</time>
      </trkpt>
      <trkpt lat="47.48155" lon="6.65311">
        <ele>463</ele>
        <time>2016-05-08T09:12:27.000Z</time>
      </trkpt>
      <trkpt lat="47.48155" lon="6.65314">
        <ele>463</ele>
        <time>2016-05-08T09:12:28.000Z</time>
      </trkpt>
      <trkpt lat="47.48156" lon="6.65317">
        <ele>463</ele>
        <time>2016-05-08T09:12:29.000Z</time>
      </trkpt>
      <trkpt lat="47.48157" lon="6.65321">
        <ele>463</ele>
        <time>2016-05-08T09:12:30.000Z</time>
      </trkpt>
      <trkpt lat="47.48159" lon="6.65325">
        <ele>463</ele>
        <time>2016-05-08T09:12:31.000Z</time>
      </trkpt>
      <trkpt lat="47.48162" lon="6.65329">
        <ele>463</ele>
        <time>2016-05-08T09:12:32.000Z</time>
      </trkpt>
      <trkpt lat="47.48164" lon="6.65333">
        <ele>463</ele>
        <time>2016-05-08T09:12:33.000Z</time>
      </trkpt>
      <trkpt lat="47.48166" lon="6.65337">
        <ele>463</ele>
        <time>2016-05-08T09:12:34.000Z</time>
      </trkpt>
      <trkpt lat="47.48168" lon="6.65341">
        <ele>463</ele>
        <time>2016-05-08T09:12:35.000Z</time>
      </trkpt>
      <trkpt lat="47.48169" lon="6.65346">
        <ele>463</ele>
        <time>2016-05-08T09:12:36.000Z</time>
      </trkpt>
      <trkpt lat="47.48171" lon="6.6535">
        <ele>463</ele>
        <time>2016-05-08T09:12:37.000Z</time>
      </trkpt>
      <trkpt lat="47.48173" lon="6.65354">
        <ele>463</ele>
        <time>2016-05-08T09:12:38.000Z</time>
      </trkpt>
      <trkpt lat="47.48175" lon="6.65357">
        <ele>463</ele>
        <time>2016-05-08T09:12:39.000Z</time>
      </trkpt>
      <trkpt lat="47.48178" lon="6.65361">
        <ele>463</ele>
        <time>2016-05-08T09:12:40.000Z</time>
      </trkpt>
      <trkpt lat="47.4818" lon="6.65365">
        <ele>463</ele>
        <time>2016-05-08T09:12:41.000Z</time>
      </trkpt>
      <trkpt lat="47.48183" lon="6.65369">
        <ele>463</ele>
        <time>2016-05-08T09:12:42.000Z</time>
      </trkpt>
      <trkpt lat="47.48186" lon="6.65374">
        <ele>463</ele>
        <time>2016-05-08T09:12:43.000Z</time>
      </trkpt>
      <trkpt lat="47.48189" lon="6.65379">
        <ele>463</ele>
        <time>2016-05-08T09:12:44.000Z</time>
      </trkpt>
      <trkpt lat="47.48197" lon="6.65387">
        <ele>463</ele>
        <time>2016-05-08T09:12:45.000Z</time>
      </trkpt>
      <trkpt lat="47.482" lon="6.65392">
        <ele>463</ele>
        <time>2016-05-08T09:12:46.000Z</time>
      </trkpt>
      <trkpt lat="47.48204" lon="6.65395">
        <ele>463</ele>
        <time>2016-05-08T09:12:47.000Z</time>
      </trkpt>
      <trkpt lat="47.48206" lon="6.65397">
        <ele>463</ele>
        <time>2016-05-08T09:12:48.000Z</time>
      </trkpt>
      <trkpt lat="47.48209" lon="6.65401">
        <ele>463</ele>
        <time>2016-05-08T09:12:49.000Z</time>
      </trkpt>
      <trkpt lat="47.48211" lon="6.65404">
        <ele>463</ele>
        <time>2016-05-08T09:12:50.000Z</time>
      </trkpt>
      <trkpt lat="47.48213" lon="6.65408">
        <ele>463</ele>
        <time>2016-05-08T09:12:51.000Z</time>
      </trkpt>
      <trkpt lat="47.48215" lon="6.65411">
        <ele>463</ele>
        <time>2016-05-08T09:12:52.000Z</time>
      </trkpt>
      <trkpt lat="47.48217" lon="6.65416">
        <ele>463</ele>
        <time>2016-05-08T09:12:53.000Z</time>
      </trkpt>
      <trkpt lat="47.48219" lon="6.65423">
        <ele>460</ele>
        <time>2016-05-08T09:12:54.000Z</time>
      </trkpt>
      <trkpt lat="47.48221" lon="6.65427">
        <ele>460</ele>
        <time>2016-05-08T09:12:55.000Z</time>
      </trkpt>
      <trkpt lat="47.48224" lon="6.65432">
        <ele>460</ele>
        <time>2016-05-08T09:12:56.000Z</time>
      </trkpt>
      <trkpt lat="47.48227" lon="6.65438">
        <ele>460</ele>
        <time>2016-05-08T09:12:57.000Z</time>
      </trkpt>
      <trkpt lat="47.48235" lon="6.65447">
        <ele>460</ele>
        <time>2016-05-08T09:12:58.000Z</time>
      </trkpt>
      <trkpt lat="47.48239" lon="6.65453">
        <ele>460</ele>
        <time>2016-05-08T09:12:59.000Z</time>
      </trkpt>
      <trkpt lat="47.48246" lon="6.65461">
        <ele>460</ele>
        <time>2016-05-08T09:13:00.000Z</time>
      </trkpt>
      <trkpt lat="47.48249" lon="6.65466">
        <ele>459</ele>
        <time>2016-05-08T09:13:01.000Z</time>
      </trkpt>
      <trkpt lat="47.48253" lon="6.65475">
        <ele>459</ele>
        <time>2016-05-08T09:13:02.000Z</time>
      </trkpt>
      <trkpt lat="47.48257" lon="6.65485">
        <ele>459</ele>
        <time>2016-05-08T09:13:03.000Z</time>
      </trkpt>
      <trkpt lat="47.48261" lon="6.65496">
        <ele>459</ele>
        <time>2016-05-08T09:13:04.000Z</time>
      </trkpt>
      <trkpt lat="47.48265" lon="6.65507">
        <ele>457</ele>
        <time>2016-05-08T09:13:05.000Z</time>
      </trkpt>
      <trkpt lat="47.48266" lon="6.65517">
        <ele>456</ele>
        <time>2016-05-08T09:13:06.000Z</time>
      </trkpt>
      <trkpt lat="47.48267" lon="6.65528">
        <ele>456</ele>
        <time>2016-05-08T09:13:07.000Z</time>
      </trkpt>
      <trkpt lat="47.48266" lon="6.65537">
        <ele>456</ele>
        <time>2016-05-08T09:13:08.000Z</time>
      </trkpt>
      <trkpt lat="47.48265" lon="6.65548">
        <ele>455</ele>
        <time>2016-05-08T09:13:09.000Z</time>
      </trkpt>
      <trkpt lat="47.48263" lon="6.65564">
        <ele>455</ele>
        <time>2016-05-08T09:13:10.000Z</time>
      </trkpt>
      <trkpt lat="47.48263" lon="6.65572">
        <ele>455</ele>
        <time>2016-05-08T09:13:11.000Z</time>
      </trkpt>
      <trkpt lat="47.48263" lon="6.65582">
        <ele>455</ele>
        <time>2016-05-08T09:13:12.000Z</time>
      </trkpt>
      <trkpt lat="47.48262" lon="6.65591">
        <ele>454</ele>
        <time>2016-05-08T09:13:13.000Z</time>
      </trkpt>
      <trkpt lat="47.48262" lon="6.65601">
        <ele>454</ele>
        <time>2016-05-08T09:13:14.000Z</time>
      </trkpt>
      <trkpt lat="47.48261" lon="6.65613">
        <ele>453</ele>
        <time>2016-05-08T09:13:15.000Z</time>
      </trkpt>
      <trkpt lat="47.48261" lon="6.65621">
        <ele>453</ele>
        <time>2016-05-08T09:13:16.000Z</time>
      </trkpt>
      <trkpt lat="47.4826" lon="6.65626">
        <ele>453</ele>
        <time>2016-05-08T09:13:16.999Z</time>
      </trkpt>
      <trkpt lat="47.4826" lon="6.65629">
        <ele>453</ele>
        <time>2016-05-08T09:13:18.000Z</time>
      </trkpt>
      <trkpt lat="47.4826" lon="6.65637">
        <ele>453</ele>
        <time>2016-05-08T09:13:19.000Z</time>
      </trkpt>
      <trkpt lat="47.4826" lon="6.65641">
        <ele>454</ele>
        <time>2016-05-08T09:13:20.000Z</time>
      </trkpt>
      <trkpt lat="47.48259" lon="6.65645">
        <ele>454</ele>
        <time>2016-05-08T09:13:21.000Z</time>
      </trkpt>
      <trkpt lat="47.48258" lon="6.6565">
        <ele>454</ele>
        <time>2016-05-08T09:13:22.000Z</time>
      </trkpt>
      <trkpt lat="47.48258" lon="6.65653">
        <ele>454</ele>
        <time>2016-05-08T09:13:23.000Z</time>
      </trkpt>
      <trkpt lat="47.48257" lon="6.65657">
        <ele>455</ele>
        <time>2016-05-08T09:13:24.000Z</time>
      </trkpt>
      <trkpt lat="47.48256" lon="6.6566">
        <ele>455</ele>
        <time>2016-05-08T09:13:25.000Z</time>
      </trkpt>
      <trkpt lat="47.48255" lon="6.65666">
        <ele>455</ele>
        <time>2016-05-08T09:13:27.000Z</time>
      </trkpt>
      <trkpt lat="47.48255" lon="6.65669">
        <ele>455</ele>
        <time>2016-05-08T09:13:28.000Z</time>
      </trkpt>
      <trkpt lat="47.48254" lon="6.65674">
        <ele>455</ele>
        <time>2016-05-08T09:13:30.000Z</time>
      </trkpt>
      <trkpt lat="47.48254" lon="6.65677">
        <ele>455</ele>
        <time>2016-05-08T09:13:31.000Z</time>
      </trkpt>
      <trkpt lat="47.48254" lon="6.65681">
        <ele>454</ele>
        <time>2016-05-08T09:13:33.000Z</time>
      </trkpt>
      <trkpt lat="47.48253" lon="6.65684">
        <ele>454</ele>
        <time>2016-05-08T09:13:34.000Z</time>
      </trkpt>
      <trkpt lat="47.48252" lon="6.65689">
        <ele>454</ele>
        <time>2016-05-08T09:13:36.000Z</time>
      </trkpt>
      <trkpt lat="47.48251" lon="6.65691">
        <ele>454</ele>
        <time>2016-05-08T09:13:37.000Z</time>
      </trkpt>
      <trkpt lat="47.4825" lon="6.65695">
        <ele>455</ele>
        <time>2016-05-08T09:13:38.000Z</time>
      </trkpt>
      <trkpt lat="47.48249" lon="6.65699">
        <ele>455</ele>
        <time>2016-05-08T09:13:39.000Z</time>
      </trkpt>
      <trkpt lat="47.48248" lon="6.65703">
        <ele>455</ele>
        <time>2016-05-08T09:13:40.000Z</time>
      </trkpt>
      <trkpt lat="47.48246" lon="6.65707">
        <ele>455</ele>
        <time>2016-05-08T09:13:41.000Z</time>
      </trkpt>
      <trkpt lat="47.48245" lon="6.65712">
        <ele>455</ele>
        <time>2016-05-08T09:13:42.000Z</time>
      </trkpt>
      <trkpt lat="47.48242" lon="6.65717">
        <ele>455</ele>
        <time>2016-05-08T09:13:43.000Z</time>
      </trkpt>
      <trkpt lat="47.4824" lon="6.65722">
        <ele>455</ele>
        <time>2016-05-08T09:13:44.000Z</time>
      </trkpt>
      <trkpt lat="47.48238" lon="6.65728">
        <ele>455</ele>
        <time>2016-05-08T09:13:45.000Z</time>
      </trkpt>
      <trkpt lat="47.48235" lon="6.65734">
        <ele>455</ele>
        <time>2016-05-08T09:13:46.000Z</time>
      </trkpt>
      <trkpt lat="47.48232" lon="6.65741">
        <ele>455</ele>
        <time>2016-05-08T09:13:47.000Z</time>
      </trkpt>
      <trkpt lat="47.4823" lon="6.65749">
        <ele>455</ele>
        <time>2016-05-08T09:13:48.000Z</time>
      </trkpt>
      <trkpt lat="47.48227" lon="6.65756">
        <ele>455</ele>
        <time>2016-05-08T09:13:49.000Z</time>
      </trkpt>
      <trkpt lat="47.48225" lon="6.65762">
        <ele>454</ele>
        <time>2016-05-08T09:13:50.000Z</time>
      </trkpt>
      <trkpt lat="47.48223" lon="6.65769">
        <ele>454</ele>
        <time>2016-05-08T09:13:51.000Z</time>
      </trkpt>
      <trkpt lat="47.48221" lon="6.65776">
        <ele>454</ele>
        <time>2016-05-08T09:13:52.000Z</time>
      </trkpt>
      <trkpt lat="47.48219" lon="6.65783">
        <ele>454</ele>
        <time>2016-05-08T09:13:53.000Z</time>
      </trkpt>
      <trkpt lat="47.48217" lon="6.6579">
        <ele>454</ele>
        <time>2016-05-08T09:13:54.000Z</time>
      </trkpt>
      <trkpt lat="47.48215" lon="6.65797">
        <ele>454</ele>
        <time>2016-05-08T09:13:55.000Z</time>
      </trkpt>
      <trkpt lat="47.48213" lon="6.65805">
        <ele>453</ele>
        <time>2016-05-08T09:13:56.000Z</time>
      </trkpt>
      <trkpt lat="47.48211" lon="6.65812">
        <ele>453</ele>
        <time>2016-05-08T09:13:57.000Z</time>
      </trkpt>
      <trkpt lat="47.4821" lon="6.6582">
        <ele>453</ele>
        <time>2016-05-08T09:13:58.000Z</time>
      </trkpt>
      <trkpt lat="47.48208" lon="6.65827">
        <ele>453</ele>
        <time>2016-05-08T09:13:59.000Z</time>
      </trkpt>
      <trkpt lat="47.48207" lon="6.65835">
        <ele>451</ele>
        <time>2016-05-08T09:14:00.000Z</time>
      </trkpt>
      <trkpt lat="47.48205" lon="6.65843">
        <ele>451</ele>
        <time>2016-05-08T09:14:01.000Z</time>
      </trkpt>
      <trkpt lat="47.48191" lon="6.6586">
        <ele>451</ele>
        <time>2016-05-08T09:14:02.000Z</time>
      </trkpt>
      <trkpt lat="47.48187" lon="6.65868">
        <ele>451</ele>
        <time>2016-05-08T09:14:03.000Z</time>
      </trkpt>
      <trkpt lat="47.48183" lon="6.65873">
        <ele>451</ele>
        <time>2016-05-08T09:14:04.000Z</time>
      </trkpt>
      <trkpt lat="47.48179" lon="6.65878">
        <ele>451</ele>
        <time>2016-05-08T09:14:05.000Z</time>
      </trkpt>
      <trkpt lat="47.48176" lon="6.65881">
        <ele>451</ele>
        <time>2016-05-08T09:14:06.000Z</time>
      </trkpt>
      <trkpt lat="47.48172" lon="6.65884">
        <ele>451</ele>
        <time>2016-05-08T09:14:07.000Z</time>
      </trkpt>
      <trkpt lat="47.48168" lon="6.6589">
        <ele>451</ele>
        <time>2016-05-08T09:14:08.000Z</time>
      </trkpt>
      <trkpt lat="47.48164" lon="6.65896">
        <ele>450</ele>
        <time>2016-05-08T09:14:09.000Z</time>
      </trkpt>
      <trkpt lat="47.4816" lon="6.65899">
        <ele>450</ele>
        <time>2016-05-08T09:14:10.000Z</time>
      </trkpt>
      <trkpt lat="47.48155" lon="6.65901">
        <ele>450</ele>
        <time>2016-05-08T09:14:11.000Z</time>
      </trkpt>
      <trkpt lat="47.48152" lon="6.65904">
        <ele>450</ele>
        <time>2016-05-08T09:14:12.000Z</time>
      </trkpt>
      <trkpt lat="47.48148" lon="6.65905">
        <ele>450</ele>
        <time>2016-05-08T09:14:13.000Z</time>
      </trkpt>
      <trkpt lat="47.48143" lon="6.65907">
        <ele>450</ele>
        <time>2016-05-08T09:14:14.000Z</time>
      </trkpt>
      <trkpt lat="47.48139" lon="6.65909">
        <ele>450</ele>
        <time>2016-05-08T09:14:15.000Z</time>
      </trkpt>
      <trkpt lat="47.48134" lon="6.65912">
        <ele>450</ele>
        <time>2016-05-08T09:14:16.000Z</time>
      </trkpt>
      <trkpt lat="47.4813" lon="6.65915">
        <ele>450</ele>
        <time>2016-05-08T09:14:17.000Z</time>
      </trkpt>
      <trkpt lat="47.48127" lon="6.65919">
        <ele>449</ele>
        <time>2016-05-08T09:14:18.000Z</time>
      </trkpt>
      <trkpt lat="47.48123" lon="6.65924">
        <ele>448</ele>
        <time>2016-05-08T09:14:19.000Z</time>
      </trkpt>
      <trkpt lat="47.4812" lon="6.6593">
        <ele>448</ele>
        <time>2016-05-08T09:14:20.000Z</time>
      </trkpt>
      <trkpt lat="47.48117" lon="6.65935">
        <ele>448</ele>
        <time>2016-05-08T09:14:21.000Z</time>
      </trkpt>
      <trkpt lat="47.48115" lon="6.65941">
        <ele>448</ele>
        <time>2016-05-08T09:14:22.000Z</time>
      </trkpt>
      <trkpt lat="47.48108" lon="6.65957">
        <ele>448</ele>
        <time>2016-05-08T09:14:23.000Z</time>
      </trkpt>
      <trkpt lat="47.48104" lon="6.65964">
        <ele>448</ele>
        <time>2016-05-08T09:14:24.000Z</time>
      </trkpt>
      <trkpt lat="47.48102" lon="6.65971">
        <ele>448</ele>
        <time>2016-05-08T09:14:25.000Z</time>
      </trkpt>
      <trkpt lat="47.48098" lon="6.65978">
        <ele>448</ele>
        <time>2016-05-08T09:14:26.000Z</time>
      </trkpt>
      <trkpt lat="47.48093" lon="6.65984">
        <ele>447</ele>
        <time>2016-05-08T09:14:27.000Z</time>
      </trkpt>
      <trkpt lat="47.48088" lon="6.65991">
        <ele>447</ele>
        <time>2016-05-08T09:14:28.000Z</time>
      </trkpt>
      <trkpt lat="47.48079" lon="6.65996">
        <ele>447</ele>
        <time>2016-05-08T09:14:29.000Z</time>
      </trkpt>
      <trkpt lat="47.48074" lon="6.66001">
        <ele>447</ele>
        <time>2016-05-08T09:14:30.000Z</time>
      </trkpt>
      <trkpt lat="47.4807" lon="6.66007">
        <ele>446</ele>
        <time>2016-05-08T09:14:31.000Z</time>
      </trkpt>
      <trkpt lat="47.48067" lon="6.66012">
        <ele>446</ele>
        <time>2016-05-08T09:14:32.000Z</time>
      </trkpt>
      <trkpt lat="47.48064" lon="6.66017">
        <ele>446</ele>
        <time>2016-05-08T09:14:33.000Z</time>
      </trkpt>
      <trkpt lat="47.4806" lon="6.66024">
        <ele>446</ele>
        <time>2016-05-08T09:14:34.000Z</time>
      </trkpt>
      <trkpt lat="47.48058" lon="6.66032">
        <ele>446</ele>
        <time>2016-05-08T09:14:35.000Z</time>
      </trkpt>
      <trkpt lat="47.48056" lon="6.66041">
        <ele>446</ele>
        <time>2016-05-08T09:14:36.000Z</time>
      </trkpt>
      <trkpt lat="47.48053" lon="6.66048">
        <ele>445</ele>
        <time>2016-05-08T09:14:37.000Z</time>
      </trkpt>
      <trkpt lat="47.48051" lon="6.66062">
        <ele>445</ele>
        <time>2016-05-08T09:14:38.000Z</time>
      </trkpt>
      <trkpt lat="47.48047" lon="6.66073">
        <ele>445</ele>
        <time>2016-05-08T09:14:39.000Z</time>
      </trkpt>
      <trkpt lat="47.48045" lon="6.66083">
        <ele>445</ele>
        <time>2016-05-08T09:14:40.000Z</time>
      </trkpt>
      <trkpt lat="47.48045" lon="6.66093">
        <ele>444</ele>
        <time>2016-05-08T09:14:41.000Z</time>
      </trkpt>
      <trkpt lat="47.48044" lon="6.66103">
        <ele>444</ele>
        <time>2016-05-08T09:14:42.000Z</time>
      </trkpt>
      <trkpt lat="47.48043" lon="6.66112">
        <ele>443</ele>
        <time>2016-05-08T09:14:43.000Z</time>
      </trkpt>
      <trkpt lat="47.48042" lon="6.66121">
        <ele>443</ele>
        <time>2016-05-08T09:14:44.000Z</time>
      </trkpt>
      <trkpt lat="47.48042" lon="6.6613">
        <ele>443</ele>
        <time>2016-05-08T09:14:45.000Z</time>
      </trkpt>
      <trkpt lat="47.4804" lon="6.6614">
        <ele>443</ele>
        <time>2016-05-08T09:14:46.000Z</time>
      </trkpt>
      <trkpt lat="47.48041" lon="6.66152">
        <ele>443</ele>
        <time>2016-05-08T09:14:47.000Z</time>
      </trkpt>
      <trkpt lat="47.48039" lon="6.66162">
        <ele>443</ele>
        <time>2016-05-08T09:14:48.000Z</time>
      </trkpt>
      <trkpt lat="47.48035" lon="6.66177">
        <ele>441</ele>
        <time>2016-05-08T09:14:49.000Z</time>
      </trkpt>
      <trkpt lat="47.48033" lon="6.66188">
        <ele>441</ele>
        <time>2016-05-08T09:14:50.000Z</time>
      </trkpt>
      <trkpt lat="47.48029" lon="6.66198">
        <ele>440</ele>
        <time>2016-05-08T09:14:51.000Z</time>
      </trkpt>
      <trkpt lat="47.48025" lon="6.66208">
        <ele>440</ele>
        <time>2016-05-08T09:14:52.000Z</time>
      </trkpt>
      <trkpt lat="47.48019" lon="6.66218">
        <ele>440</ele>
        <time>2016-05-08T09:14:53.000Z</time>
      </trkpt>
      <trkpt lat="47.48014" lon="6.66227">
        <ele>440</ele>
        <time>2016-05-08T09:14:54.000Z</time>
      </trkpt>
      <trkpt lat="47.48009" lon="6.66237">
        <ele>441</ele>
        <time>2016-05-08T09:14:55.000Z</time>
      </trkpt>
      <trkpt lat="47.48005" lon="6.66246">
        <ele>441</ele>
        <time>2016-05-08T09:14:56.000Z</time>
      </trkpt>
      <trkpt lat="47.48002" lon="6.66257">
        <ele>440</ele>
        <time>2016-05-08T09:14:57.000Z</time>
      </trkpt>
      <trkpt lat="47.48" lon="6.66266">
        <ele>441</ele>
        <time>2016-05-08T09:14:58.000Z</time>
      </trkpt>
      <trkpt lat="47.47998" lon="6.66276">
        <ele>440</ele>
        <time>2016-05-08T09:14:59.000Z</time>
      </trkpt>
      <trkpt lat="47.47997" lon="6.66289">
        <ele>440</ele>
        <time>2016-05-08T09:15:00.000Z</time>
      </trkpt>
      <trkpt lat="47.47994" lon="6.66301">
        <ele>440</ele>
        <time>2016-05-08T09:15:01.000Z</time>
      </trkpt>
      <trkpt lat="47.47992" lon="6.66311">
        <ele>440</ele>
        <time>2016-05-08T09:15:02.000Z</time>
      </trkpt>
      <trkpt lat="47.47988" lon="6.66325">
        <ele>440</ele>
        <time>2016-05-08T09:15:03.000Z</time>
      </trkpt>
      <trkpt lat="47.47984" lon="6.66336">
        <ele>439</ele>
        <time>2016-05-08T09:15:04.000Z</time>
      </trkpt>
      <trkpt lat="47.47979" lon="6.66348">
        <ele>439</ele>
        <time>2016-05-08T09:15:05.000Z</time>
      </trkpt>
      <trkpt lat="47.47974" lon="6.66358">
        <ele>439</ele>
        <time>2016-05-08T09:15:06.000Z</time>
      </trkpt>
      <trkpt lat="47.4797" lon="6.66368">
        <ele>439</ele>
        <time>2016-05-08T09:15:07.000Z</time>
      </trkpt>
      <trkpt lat="47.47966" lon="6.6638">
        <ele>439</ele>
        <time>2016-05-08T09:15:08.000Z</time>
      </trkpt>
      <trkpt lat="47.47961" lon="6.66394">
        <ele>439</ele>
        <time>2016-05-08T09:15:09.000Z</time>
      </trkpt>
      <trkpt lat="47.47956" lon="6.66405">
        <ele>439</ele>
        <time>2016-05-08T09:15:10.000Z</time>
      </trkpt>
      <trkpt lat="47.47953" lon="6.66414">
        <ele>439</ele>
        <time>2016-05-08T09:15:11.000Z</time>
      </trkpt>
      <trkpt lat="47.47951" lon="6.66424">
        <ele>440</ele>
        <time>2016-05-08T09:15:12.000Z</time>
      </trkpt>
      <trkpt lat="47.47947" lon="6.66433">
        <ele>440</ele>
        <time>2016-05-08T09:15:13.000Z</time>
      </trkpt>
      <trkpt lat="47.47944" lon="6.66441">
        <ele>440</ele>
        <time>2016-05-08T09:15:14.000Z</time>
      </trkpt>
      <trkpt lat="47.47943" lon="6.66448">
        <ele>440</ele>
        <time>2016-05-08T09:15:15.000Z</time>
      </trkpt>
      <trkpt lat="47.47941" lon="6.66455">
        <ele>440</ele>
        <time>2016-05-08T09:15:16.000Z</time>
      </trkpt>
      <trkpt lat="47.4794" lon="6.66461">
        <ele>440</ele>
        <time>2016-05-08T09:15:17.000Z</time>
      </trkpt>
      <trkpt lat="47.47937" lon="6.66466">
        <ele>441</ele>
        <time>2016-05-08T09:15:18.000Z</time>
      </trkpt>
      <trkpt lat="47.47935" lon="6.66472">
        <ele>441</ele>
        <time>2016-05-08T09:15:19.000Z</time>
      </trkpt>
      <trkpt lat="47.47932" lon="6.66477">
        <ele>441</ele>
        <time>2016-05-08T09:15:20.000Z</time>
      </trkpt>
      <trkpt lat="47.47932" lon="6.66482">
        <ele>441</ele>
        <time>2016-05-08T09:15:21.000Z</time>
      </trkpt>
      <trkpt lat="47.47932" lon="6.66485">
        <ele>441</ele>
        <time>2016-05-08T09:15:22.000Z</time>
      </trkpt>
      <trkpt lat="47.47931" lon="6.66488">
        <ele>441</ele>
        <time>2016-05-08T09:15:23.000Z</time>
      </trkpt>
      <trkpt lat="47.47931" lon="6.66494">
        <ele>442</ele>
        <time>2016-05-08T09:15:25.000Z</time>
      </trkpt>
      <trkpt lat="47.47931" lon="6.66497">
        <ele>442</ele>
        <time>2016-05-08T09:15:26.000Z</time>
      </trkpt>
      <trkpt lat="47.47931" lon="6.66502">
        <ele>443</ele>
        <time>2016-05-08T09:15:28.000Z</time>
      </trkpt>
      <trkpt lat="47.47931" lon="6.66505">
        <ele>443</ele>
        <time>2016-05-08T09:15:29.000Z</time>
      </trkpt>
      <trkpt lat="47.47931" lon="6.66508">
        <ele>443</ele>
        <time>2016-05-08T09:15:30.000Z</time>
      </trkpt>
      <trkpt lat="47.47931" lon="6.66512">
        <ele>443</ele>
        <time>2016-05-08T09:15:31.000Z</time>
      </trkpt>
      <trkpt lat="47.47931" lon="6.66515">
        <ele>443</ele>
        <time>2016-05-08T09:15:32.000Z</time>
      </trkpt>
      <trkpt lat="47.47931" lon="6.66519">
        <ele>443</ele>
        <time>2016-05-08T09:15:33.000Z</time>
      </trkpt>
      <trkpt lat="47.47931" lon="6.66522">
        <ele>443</ele>
        <time>2016-05-08T09:15:34.000Z</time>
      </trkpt>
      <trkpt lat="47.47931" lon="6.66526">
        <ele>443</ele>
        <time>2016-05-08T09:15:35.000Z</time>
      </trkpt>
      <trkpt lat="47.47931" lon="6.6653">
        <ele>443</ele>
        <time>2016-05-08T09:15:36.000Z</time>
      </trkpt>
      <trkpt lat="47.4793" lon="6.66534">
        <ele>444</ele>
        <time>2016-05-08T09:15:37.000Z</time>
      </trkpt>
      <trkpt lat="47.4793" lon="6.66539">
        <ele>444</ele>
        <time>2016-05-08T09:15:38.000Z</time>
      </trkpt>
      <trkpt lat="47.4793" lon="6.66544">
        <ele>444</ele>
        <time>2016-05-08T09:15:39.000Z</time>
      </trkpt>
      <trkpt lat="47.4793" lon="6.66549">
        <ele>444</ele>
        <time>2016-05-08T09:15:40.000Z</time>
      </trkpt>
      <trkpt lat="47.4793" lon="6.66555">
        <ele>444</ele>
        <time>2016-05-08T09:15:41.000Z</time>
      </trkpt>
      <trkpt lat="47.4793" lon="6.66561">
        <ele>445</ele>
        <time>2016-05-08T09:15:42.000Z</time>
      </trkpt>
      <trkpt lat="47.47931" lon="6.66568">
        <ele>445</ele>
        <time>2016-05-08T09:15:43.000Z</time>
      </trkpt>
      <trkpt lat="47.47931" lon="6.66574">
        <ele>445</ele>
        <time>2016-05-08T09:15:44.000Z</time>
      </trkpt>
      <trkpt lat="47.47931" lon="6.66579">
        <ele>445</ele>
        <time>2016-05-08T09:15:45.000Z</time>
      </trkpt>
      <trkpt lat="47.47931" lon="6.66584">
        <ele>446</ele>
        <time>2016-05-08T09:15:46.000Z</time>
      </trkpt>
      <trkpt lat="47.47932" lon="6.66589">
        <ele>446</ele>
        <time>2016-05-08T09:15:47.000Z</time>
      </trkpt>
      <trkpt lat="47.47931" lon="6.66594">
        <ele>446</ele>
        <time>2016-05-08T09:15:48.000Z</time>
      </trkpt>
      <trkpt lat="47.47931" lon="6.666">
        <ele>446</ele>
        <time>2016-05-08T09:15:49.000Z</time>
      </trkpt>
      <trkpt lat="47.47931" lon="6.66606">
        <ele>446</ele>
        <time>2016-05-08T09:15:50.000Z</time>
      </trkpt>
      <trkpt lat="47.47931" lon="6.66611">
        <ele>446</ele>
        <time>2016-05-08T09:15:51.000Z</time>
      </trkpt>
      <trkpt lat="47.47931" lon="6.66615">
        <ele>446</ele>
        <time>2016-05-08T09:15:52.000Z</time>
      </trkpt>
      <trkpt lat="47.47931" lon="6.6662">
        <ele>446</ele>
        <time>2016-05-08T09:15:53.000Z</time>
      </trkpt>
      <trkpt lat="47.4793" lon="6.66626">
        <ele>446</ele>
        <time>2016-05-08T09:15:55.000Z</time>
      </trkpt>
      <trkpt lat="47.4793" lon="6.66631">
        <ele>446</ele>
        <time>2016-05-08T09:15:56.000Z</time>
      </trkpt>
      <trkpt lat="47.4793" lon="6.66635">
        <ele>446</ele>
        <time>2016-05-08T09:15:57.000Z</time>
      </trkpt>
      <trkpt lat="47.4793" lon="6.66639">
        <ele>447</ele>
        <time>2016-05-08T09:15:58.000Z</time>
      </trkpt>
      <trkpt lat="47.4793" lon="6.66643">
        <ele>447</ele>
        <time>2016-05-08T09:15:59.000Z</time>
      </trkpt>
      <trkpt lat="47.4793" lon="6.66648">
        <ele>447</ele>
        <time>2016-05-08T09:16:00.000Z</time>
      </trkpt>
      <trkpt lat="47.47929" lon="6.66653">
        <ele>447</ele>
        <time>2016-05-08T09:16:01.000Z</time>
      </trkpt>
      <trkpt lat="47.47929" lon="6.6666">
        <ele>447</ele>
        <time>2016-05-08T09:16:02.000Z</time>
      </trkpt>
      <trkpt lat="47.47929" lon="6.66667">
        <ele>448</ele>
        <time>2016-05-08T09:16:03.000Z</time>
      </trkpt>
      <trkpt lat="47.47929" lon="6.66673">
        <ele>448</ele>
        <time>2016-05-08T09:16:04.000Z</time>
      </trkpt>
      <trkpt lat="47.47929" lon="6.66679">
        <ele>447</ele>
        <time>2016-05-08T09:16:05.000Z</time>
      </trkpt>
      <trkpt lat="47.4793" lon="6.66684">
        <ele>447</ele>
        <time>2016-05-08T09:16:06.000Z</time>
      </trkpt>
      <trkpt lat="47.4793" lon="6.66689">
        <ele>447</ele>
        <time>2016-05-08T09:16:07.000Z</time>
      </trkpt>
      <trkpt lat="47.4793" lon="6.66694">
        <ele>447</ele>
        <time>2016-05-08T09:16:08.000Z</time>
      </trkpt>
      <trkpt lat="47.47931" lon="6.66699">
        <ele>447</ele>
        <time>2016-05-08T09:16:09.000Z</time>
      </trkpt>
      <trkpt lat="47.47931" lon="6.66705">
        <ele>447</ele>
        <time>2016-05-08T09:16:10.000Z</time>
      </trkpt>
      <trkpt lat="47.47932" lon="6.6671">
        <ele>447</ele>
        <time>2016-05-08T09:16:11.000Z</time>
      </trkpt>
      <trkpt lat="47.47932" lon="6.66716">
        <ele>447</ele>
        <time>2016-05-08T09:16:12.000Z</time>
      </trkpt>
      <trkpt lat="47.47933" lon="6.66722">
        <ele>447</ele>
        <time>2016-05-08T09:16:13.000Z</time>
      </trkpt>
      <trkpt lat="47.47933" lon="6.66728">
        <ele>447</ele>
        <time>2016-05-08T09:16:14.000Z</time>
      </trkpt>
      <trkpt lat="47.47933" lon="6.66736">
        <ele>447</ele>
        <time>2016-05-08T09:16:15.000Z</time>
      </trkpt>
      <trkpt lat="47.47933" lon="6.66744">
        <ele>447</ele>
        <time>2016-05-08T09:16:16.000Z</time>
      </trkpt>
      <trkpt lat="47.47933" lon="6.66754">
        <ele>447</ele>
        <time>2016-05-08T09:16:17.000Z</time>
      </trkpt>
      <trkpt lat="47.47933" lon="6.66764">
        <ele>447</ele>
        <time>2016-05-08T09:16:18.000Z</time>
      </trkpt>
      <trkpt lat="47.47933" lon="6.66773">
        <ele>447</ele>
        <time>2016-05-08T09:16:19.000Z</time>
      </trkpt>
      <trkpt lat="47.47933" lon="6.66782">
        <ele>447</ele>
        <time>2016-05-08T09:16:20.000Z</time>
      </trkpt>
      <trkpt lat="47.47933" lon="6.66791">
        <ele>447</ele>
        <time>2016-05-08T09:16:21.000Z</time>
      </trkpt>
      <trkpt lat="47.47933" lon="6.66799">
        <ele>447</ele>
        <time>2016-05-08T09:16:22.000Z</time>
      </trkpt>
      <trkpt lat="47.47933" lon="6.66807">
        <ele>447</ele>
        <time>2016-05-08T09:16:23.000Z</time>
      </trkpt>
      <trkpt lat="47.47933" lon="6.66814">
        <ele>447</ele>
        <time>2016-05-08T09:16:24.000Z</time>
      </trkpt>
      <trkpt lat="47.47933" lon="6.6682">
        <ele>447</ele>
        <time>2016-05-08T09:16:25.000Z</time>
      </trkpt>
      <trkpt lat="47.47933" lon="6.66826">
        <ele>448</ele>
        <time>2016-05-08T09:16:26.000Z</time>
      </trkpt>
      <trkpt lat="47.47933" lon="6.66832">
        <ele>448</ele>
        <time>2016-05-08T09:16:27.000Z</time>
      </trkpt>
      <trkpt lat="47.47933" lon="6.66839">
        <ele>447</ele>
        <time>2016-05-08T09:16:28.000Z</time>
      </trkpt>
      <trkpt lat="47.47934" lon="6.66846">
        <ele>447</ele>
        <time>2016-05-08T09:16:29.000Z</time>
      </trkpt>
      <trkpt lat="47.47934" lon="6.66853">
        <ele>446</ele>
        <time>2016-05-08T09:16:30.000Z</time>
      </trkpt>
      <trkpt lat="47.47935" lon="6.66859">
        <ele>446</ele>
        <time>2016-05-08T09:16:31.000Z</time>
      </trkpt>
      <trkpt lat="47.47935" lon="6.66866">
        <ele>446</ele>
        <time>2016-05-08T09:16:32.000Z</time>
      </trkpt>
      <trkpt lat="47.47935" lon="6.66873">
        <ele>446</ele>
        <time>2016-05-08T09:16:33.000Z</time>
      </trkpt>
      <trkpt lat="47.47934" lon="6.66879">
        <ele>446</ele>
        <time>2016-05-08T09:16:34.000Z</time>
      </trkpt>
      <trkpt lat="47.47934" lon="6.66886">
        <ele>446</ele>
        <time>2016-05-08T09:16:35.000Z</time>
      </trkpt>
      <trkpt lat="47.47934" lon="6.66892">
        <ele>446</ele>
        <time>2016-05-08T09:16:36.000Z</time>
      </trkpt>
      <trkpt lat="47.47933" lon="6.66898">
        <ele>446</ele>
        <time>2016-05-08T09:16:37.000Z</time>
      </trkpt>
      <trkpt lat="47.47933" lon="6.66903">
        <ele>447</ele>
        <time>2016-05-08T09:16:38.000Z</time>
      </trkpt>
      <trkpt lat="47.47931" lon="6.66908">
        <ele>447</ele>
        <time>2016-05-08T09:16:39.000Z</time>
      </trkpt>
      <trkpt lat="47.4793" lon="6.66912">
        <ele>447</ele>
        <time>2016-05-08T09:16:40.000Z</time>
      </trkpt>
      <trkpt lat="47.47928" lon="6.66916">
        <ele>448</ele>
        <time>2016-05-08T09:16:41.000Z</time>
      </trkpt>
      <trkpt lat="47.47927" lon="6.6692">
        <ele>448</ele>
        <time>2016-05-08T09:16:42.000Z</time>
      </trkpt>
      <trkpt lat="47.47926" lon="6.66924">
        <ele>448</ele>
        <time>2016-05-08T09:16:43.000Z</time>
      </trkpt>
      <trkpt lat="47.47925" lon="6.66927">
        <ele>448</ele>
        <time>2016-05-08T09:16:44.000Z</time>
      </trkpt>
      <trkpt lat="47.47924" lon="6.66931">
        <ele>448</ele>
        <time>2016-05-08T09:16:45.000Z</time>
      </trkpt>
      <trkpt lat="47.47924" lon="6.66934">
        <ele>447</ele>
        <time>2016-05-08T09:16:46.000Z</time>
      </trkpt>
      <trkpt lat="47.47923" lon="6.66939">
        <ele>447</ele>
        <time>2016-05-08T09:16:47.000Z</time>
      </trkpt>
      <trkpt lat="47.47922" lon="6.66943">
        <ele>447</ele>
        <time>2016-05-08T09:16:48.000Z</time>
      </trkpt>
      <trkpt lat="47.47922" lon="6.66947">
        <ele>447</ele>
        <time>2016-05-08T09:16:49.000Z</time>
      </trkpt>
      <trkpt lat="47.47921" lon="6.66952">
        <ele>447</ele>
        <time>2016-05-08T09:16:50.000Z</time>
      </trkpt>
      <trkpt lat="47.47921" lon="6.66957">
        <ele>447</ele>
        <time>2016-05-08T09:16:51.000Z</time>
      </trkpt>
      <trkpt lat="47.4792" lon="6.66963">
        <ele>447</ele>
        <time>2016-05-08T09:16:52.000Z</time>
      </trkpt>
      <trkpt lat="47.47918" lon="6.66969">
        <ele>448</ele>
        <time>2016-05-08T09:16:53.000Z</time>
      </trkpt>
      <trkpt lat="47.47917" lon="6.66975">
        <ele>451</ele>
        <time>2016-05-08T09:16:54.000Z</time>
      </trkpt>
      <trkpt lat="47.47915" lon="6.66981">
        <ele>452</ele>
        <time>2016-05-08T09:16:55.000Z</time>
      </trkpt>
      <trkpt lat="47.47913" lon="6.66987">
        <ele>452</ele>
        <time>2016-05-08T09:16:56.000Z</time>
      </trkpt>
      <trkpt lat="47.47912" lon="6.66993">
        <ele>453</ele>
        <time>2016-05-08T09:16:57.000Z</time>
      </trkpt>
      <trkpt lat="47.4791" lon="6.66999">
        <ele>453</ele>
        <time>2016-05-08T09:16:58.000Z</time>
      </trkpt>
      <trkpt lat="47.47908" lon="6.67005">
        <ele>453</ele>
        <time>2016-05-08T09:16:59.000Z</time>
      </trkpt>
      <trkpt lat="47.47906" lon="6.67011">
        <ele>452</ele>
        <time>2016-05-08T09:17:00.000Z</time>
      </trkpt>
      <trkpt lat="47.47905" lon="6.67017">
        <ele>452</ele>
        <time>2016-05-08T09:17:01.000Z</time>
      </trkpt>
      <trkpt lat="47.47903" lon="6.67022">
        <ele>451</ele>
        <time>2016-05-08T09:17:02.000Z</time>
      </trkpt>
      <trkpt lat="47.47902" lon="6.67026">
        <ele>451</ele>
        <time>2016-05-08T09:17:03.000Z</time>
      </trkpt>
      <trkpt lat="47.47902" lon="6.6703">
        <ele>451</ele>
        <time>2016-05-08T09:17:04.000Z</time>
      </trkpt>
      <trkpt lat="47.47902" lon="6.67034">
        <ele>451</ele>
        <time>2016-05-08T09:17:05.000Z</time>
      </trkpt>
      <trkpt lat="47.47902" lon="6.67038">
        <ele>451</ele>
        <time>2016-05-08T09:17:06.000Z</time>
      </trkpt>
      <trkpt lat="47.47902" lon="6.67041">
        <ele>451</ele>
        <time>2016-05-08T09:17:07.000Z</time>
      </trkpt>
      <trkpt lat="47.47902" lon="6.67044">
        <ele>450</ele>
        <time>2016-05-08T09:17:08.000Z</time>
      </trkpt>
      <trkpt lat="47.47902" lon="6.67048">
        <ele>450</ele>
        <time>2016-05-08T09:17:09.000Z</time>
      </trkpt>
      <trkpt lat="47.47902" lon="6.67052">
        <ele>450</ele>
        <time>2016-05-08T09:17:10.000Z</time>
      </trkpt>
      <trkpt lat="47.47902" lon="6.67055">
        <ele>450</ele>
        <time>2016-05-08T09:17:11.000Z</time>
      </trkpt>
      <trkpt lat="47.47901" lon="6.67059">
        <ele>450</ele>
        <time>2016-05-08T09:17:12.000Z</time>
      </trkpt>
      <trkpt lat="47.47901" lon="6.67062">
        <ele>450</ele>
        <time>2016-05-08T09:17:13.000Z</time>
      </trkpt>
      <trkpt lat="47.479" lon="6.67066">
        <ele>450</ele>
        <time>2016-05-08T09:17:14.000Z</time>
      </trkpt>
      <trkpt lat="47.479" lon="6.6707">
        <ele>450</ele>
        <time>2016-05-08T09:17:15.000Z</time>
      </trkpt>
      <trkpt lat="47.47899" lon="6.67074">
        <ele>450</ele>
        <time>2016-05-08T09:17:16.000Z</time>
      </trkpt>
      <trkpt lat="47.47899" lon="6.67078">
        <ele>450</ele>
        <time>2016-05-08T09:17:17.000Z</time>
      </trkpt>
      <trkpt lat="47.47899" lon="6.67083">
        <ele>450</ele>
        <time>2016-05-08T09:17:18.000Z</time>
      </trkpt>
      <trkpt lat="47.47898" lon="6.67088">
        <ele>448</ele>
        <time>2016-05-08T09:17:19.000Z</time>
      </trkpt>
      <trkpt lat="47.47898" lon="6.67093">
        <ele>448</ele>
        <time>2016-05-08T09:17:20.000Z</time>
      </trkpt>
      <trkpt lat="47.47897" lon="6.67097">
        <ele>448</ele>
        <time>2016-05-08T09:17:21.000Z</time>
      </trkpt>
      <trkpt lat="47.47896" lon="6.67102">
        <ele>448</ele>
        <time>2016-05-08T09:17:22.000Z</time>
      </trkpt>
      <trkpt lat="47.47895" lon="6.67106">
        <ele>447</ele>
        <time>2016-05-08T09:17:23.000Z</time>
      </trkpt>
      <trkpt lat="47.47894" lon="6.67111">
        <ele>447</ele>
        <time>2016-05-08T09:17:24.000Z</time>
      </trkpt>
      <trkpt lat="47.47893" lon="6.67115">
        <ele>447</ele>
        <time>2016-05-08T09:17:25.000Z</time>
      </trkpt>
      <trkpt lat="47.47892" lon="6.6712">
        <ele>447</ele>
        <time>2016-05-08T09:17:26.000Z</time>
      </trkpt>
      <trkpt lat="47.47892" lon="6.67126">
        <ele>447</ele>
        <time>2016-05-08T09:17:27.000Z</time>
      </trkpt>
      <trkpt lat="47.47891" lon="6.67131">
        <ele>447</ele>
        <time>2016-05-08T09:17:28.000Z</time>
      </trkpt>
      <trkpt lat="47.47891" lon="6.67136">
        <ele>446</ele>
        <time>2016-05-08T09:17:29.000Z</time>
      </trkpt>
      <trkpt lat="47.4789" lon="6.67142">
        <ele>446</ele>
        <time>2016-05-08T09:17:30.000Z</time>
      </trkpt>
      <trkpt lat="47.47889" lon="6.67149">
        <ele>446</ele>
        <time>2016-05-08T09:17:31.000Z</time>
      </trkpt>
      <trkpt lat="47.47889" lon="6.67155">
        <ele>446</ele>
        <time>2016-05-08T09:17:32.000Z</time>
      </trkpt>
      <trkpt lat="47.47888" lon="6.67162">
        <ele>446</ele>
        <time>2016-05-08T09:17:33.000Z</time>
      </trkpt>
      <trkpt lat="47.47888" lon="6.67169">
        <ele>445</ele>
        <time>2016-05-08T09:17:34.000Z</time>
      </trkpt>
      <trkpt lat="47.47887" lon="6.67177">
        <ele>445</ele>
        <time>2016-05-08T09:17:35.000Z</time>
      </trkpt>
      <trkpt lat="47.47887" lon="6.67185">
        <ele>445</ele>
        <time>2016-05-08T09:17:36.000Z</time>
      </trkpt>
      <trkpt lat="47.47886" lon="6.67194">
        <ele>444</ele>
        <time>2016-05-08T09:17:37.000Z</time>
      </trkpt>
      <trkpt lat="47.47884" lon="6.67204">
        <ele>444</ele>
        <time>2016-05-08T09:17:38.000Z</time>
      </trkpt>
      <trkpt lat="47.47883" lon="6.67213">
        <ele>444</ele>
        <time>2016-05-08T09:17:39.000Z</time>
      </trkpt>
      <trkpt lat="47.47881" lon="6.67222">
        <ele>444</ele>
        <time>2016-05-08T09:17:40.000Z</time>
      </trkpt>
      <trkpt lat="47.47879" lon="6.67232">
        <ele>444</ele>
        <time>2016-05-08T09:17:41.000Z</time>
      </trkpt>
      <trkpt lat="47.47876" lon="6.67241">
        <ele>444</ele>
        <time>2016-05-08T09:17:42.000Z</time>
      </trkpt>
      <trkpt lat="47.47874" lon="6.67251">
        <ele>443</ele>
        <time>2016-05-08T09:17:43.000Z</time>
      </trkpt>
      <trkpt lat="47.47872" lon="6.6726">
        <ele>443</ele>
        <time>2016-05-08T09:17:44.000Z</time>
      </trkpt>
      <trkpt lat="47.47866" lon="6.67286">
        <ele>443</ele>
        <time>2016-05-08T09:17:45.000Z</time>
      </trkpt>
      <trkpt lat="47.47865" lon="6.67295">
        <ele>443</ele>
        <time>2016-05-08T09:17:46.000Z</time>
      </trkpt>
      <trkpt lat="47.47863" lon="6.67303">
        <ele>443</ele>
        <time>2016-05-08T09:17:47.000Z</time>
      </trkpt>
      <trkpt lat="47.47864" lon="6.67309">
        <ele>443</ele>
        <time>2016-05-08T09:17:48.000Z</time>
      </trkpt>
      <trkpt lat="47.47864" lon="6.67316">
        <ele>443</ele>
        <time>2016-05-08T09:17:49.000Z</time>
      </trkpt>
      <trkpt lat="47.47864" lon="6.67325">
        <ele>443</ele>
        <time>2016-05-08T09:17:50.000Z</time>
      </trkpt>
      <trkpt lat="47.47863" lon="6.67333">
        <ele>443</ele>
        <time>2016-05-08T09:17:51.000Z</time>
      </trkpt>
      <trkpt lat="47.47864" lon="6.67338">
        <ele>443</ele>
        <time>2016-05-08T09:17:52.000Z</time>
      </trkpt>
      <trkpt lat="47.47865" lon="6.67345">
        <ele>443</ele>
        <time>2016-05-08T09:17:53.000Z</time>
      </trkpt>
      <trkpt lat="47.47864" lon="6.67354">
        <ele>443</ele>
        <time>2016-05-08T09:17:54.000Z</time>
      </trkpt>
      <trkpt lat="47.47864" lon="6.67359">
        <ele>443</ele>
        <time>2016-05-08T09:17:55.000Z</time>
      </trkpt>
      <trkpt lat="47.47863" lon="6.67366">
        <ele>443</ele>
        <time>2016-05-08T09:17:56.000Z</time>
      </trkpt>
      <trkpt lat="47.47862" lon="6.67373">
        <ele>443</ele>
        <time>2016-05-08T09:17:57.000Z</time>
      </trkpt>
      <trkpt lat="47.47861" lon="6.67382">
        <ele>443</ele>
        <time>2016-05-08T09:17:58.000Z</time>
      </trkpt>
      <trkpt lat="47.47859" lon="6.67392">
        <ele>444</ele>
        <time>2016-05-08T09:17:59.000Z</time>
      </trkpt>
      <trkpt lat="47.47858" lon="6.67402">
        <ele>444</ele>
        <time>2016-05-08T09:18:00.000Z</time>
      </trkpt>
      <trkpt lat="47.47856" lon="6.6741">
        <ele>444</ele>
        <time>2016-05-08T09:18:01.000Z</time>
      </trkpt>
      <trkpt lat="47.47856" lon="6.67417">
        <ele>444</ele>
        <time>2016-05-08T09:18:02.000Z</time>
      </trkpt>
      <trkpt lat="47.47856" lon="6.67424">
        <ele>444</ele>
        <time>2016-05-08T09:18:03.000Z</time>
      </trkpt>
      <trkpt lat="47.47855" lon="6.67432">
        <ele>444</ele>
        <time>2016-05-08T09:18:04.000Z</time>
      </trkpt>
      <trkpt lat="47.47854" lon="6.67441">
        <ele>443</ele>
        <time>2016-05-08T09:18:05.000Z</time>
      </trkpt>
      <trkpt lat="47.47854" lon="6.67454">
        <ele>443</ele>
        <time>2016-05-08T09:18:06.000Z</time>
      </trkpt>
      <trkpt lat="47.47854" lon="6.67463">
        <ele>443</ele>
        <time>2016-05-08T09:18:07.000Z</time>
      </trkpt>
      <trkpt lat="47.47854" lon="6.67472">
        <ele>443</ele>
        <time>2016-05-08T09:18:08.000Z</time>
      </trkpt>
      <trkpt lat="47.47853" lon="6.67477">
        <ele>443</ele>
        <time>2016-05-08T09:18:09.000Z</time>
      </trkpt>
      <trkpt lat="47.47852" lon="6.67483">
        <ele>443</ele>
        <time>2016-05-08T09:18:10.000Z</time>
      </trkpt>
      <trkpt lat="47.47851" lon="6.67488">
        <ele>444</ele>
        <time>2016-05-08T09:18:15.000Z</time>
      </trkpt>
      <trkpt lat="47.47851" lon="6.67489">
        <ele>444</ele>
        <time>2016-05-08T09:18:16.000Z</time>
      </trkpt>
      <trkpt lat="47.47849" lon="6.67494">
        <ele>444</ele>
        <time>2016-05-08T09:18:26.000Z</time>
      </trkpt>
      <trkpt lat="47.47848" lon="6.67496">
        <ele>444</ele>
        <time>2016-05-08T09:18:27.000Z</time>
      </trkpt>
      <trkpt lat="47.47847" lon="6.67501">
        <ele>443</ele>
        <time>2016-05-08T09:18:29.000Z</time>
      </trkpt>
      <trkpt lat="47.47847" lon="6.67504">
        <ele>443</ele>
        <time>2016-05-08T09:18:30.000Z</time>
      </trkpt>
      <trkpt lat="47.47846" lon="6.67509">
        <ele>443</ele>
        <time>2016-05-08T09:18:32.000Z</time>
      </trkpt>
      <trkpt lat="47.47846" lon="6.67512">
        <ele>442</ele>
        <time>2016-05-08T09:18:33.000Z</time>
      </trkpt>
      <trkpt lat="47.47845" lon="6.67517">
        <ele>442</ele>
        <time>2016-05-08T09:18:34.000Z</time>
      </trkpt>
      <trkpt lat="47.47844" lon="6.67522">
        <ele>442</ele>
        <time>2016-05-08T09:18:35.000Z</time>
      </trkpt>
      <trkpt lat="47.47844" lon="6.67528">
        <ele>441</ele>
        <time>2016-05-08T09:18:36.000Z</time>
      </trkpt>
      <trkpt lat="47.47842" lon="6.67535">
        <ele>441</ele>
        <time>2016-05-08T09:18:37.000Z</time>
      </trkpt>
      <trkpt lat="47.47841" lon="6.67542">
        <ele>441</ele>
        <time>2016-05-08T09:18:38.000Z</time>
      </trkpt>
      <trkpt lat="47.47839" lon="6.6755">
        <ele>441</ele>
        <time>2016-05-08T09:18:39.000Z</time>
      </trkpt>
      <trkpt lat="47.47838" lon="6.67557">
        <ele>441</ele>
        <time>2016-05-08T09:18:40.000Z</time>
      </trkpt>
      <trkpt lat="47.47836" lon="6.67563">
        <ele>441</ele>
        <time>2016-05-08T09:18:41.000Z</time>
      </trkpt>
      <trkpt lat="47.47836" lon="6.67568">
        <ele>442</ele>
        <time>2016-05-08T09:18:42.000Z</time>
      </trkpt>
      <trkpt lat="47.47836" lon="6.67572">
        <ele>442</ele>
        <time>2016-05-08T09:18:43.000Z</time>
      </trkpt>
      <trkpt lat="47.47835" lon="6.67576">
        <ele>442</ele>
        <time>2016-05-08T09:18:44.000Z</time>
      </trkpt>
      <trkpt lat="47.47835" lon="6.6758">
        <ele>443</ele>
        <time>2016-05-08T09:18:45.000Z</time>
      </trkpt>
      <trkpt lat="47.47834" lon="6.67586">
        <ele>443</ele>
        <time>2016-05-08T09:18:46.000Z</time>
      </trkpt>
      <trkpt lat="47.47834" lon="6.67592">
        <ele>441</ele>
        <time>2016-05-08T09:18:47.000Z</time>
      </trkpt>
      <trkpt lat="47.47834" lon="6.67599">
        <ele>440</ele>
        <time>2016-05-08T09:18:48.000Z</time>
      </trkpt>
      <trkpt lat="47.47833" lon="6.67606">
        <ele>445</ele>
        <time>2016-05-08T09:18:49.000Z</time>
      </trkpt>
      <trkpt lat="47.47833" lon="6.67614">
        <ele>445</ele>
        <time>2016-05-08T09:18:50.000Z</time>
      </trkpt>
      <trkpt lat="47.47833" lon="6.67624">
        <ele>445</ele>
        <time>2016-05-08T09:18:51.000Z</time>
      </trkpt>
      <trkpt lat="47.47832" lon="6.67648">
        <ele>443</ele>
        <time>2016-05-08T09:18:52.000Z</time>
      </trkpt>
      <trkpt lat="47.47832" lon="6.67657">
        <ele>443</ele>
        <time>2016-05-08T09:18:53.000Z</time>
      </trkpt>
      <trkpt lat="47.47829" lon="6.67669">
        <ele>442</ele>
        <time>2016-05-08T09:18:54.000Z</time>
      </trkpt>
      <trkpt lat="47.47829" lon="6.67679">
        <ele>443</ele>
        <time>2016-05-08T09:18:55.000Z</time>
      </trkpt>
      <trkpt lat="47.47828" lon="6.6769">
        <ele>443</ele>
        <time>2016-05-08T09:18:56.000Z</time>
      </trkpt>
      <trkpt lat="47.47828" lon="6.67699">
        <ele>443</ele>
        <time>2016-05-08T09:18:57.000Z</time>
      </trkpt>
      <trkpt lat="47.47827" lon="6.67709">
        <ele>444</ele>
        <time>2016-05-08T09:18:58.000Z</time>
      </trkpt>
      <trkpt lat="47.47826" lon="6.67722">
        <ele>443</ele>
        <time>2016-05-08T09:18:59.000Z</time>
      </trkpt>
      <trkpt lat="47.47826" lon="6.67732">
        <ele>443</ele>
        <time>2016-05-08T09:19:00.000Z</time>
      </trkpt>
      <trkpt lat="47.47824" lon="6.67743">
        <ele>442</ele>
        <time>2016-05-08T09:19:01.000Z</time>
      </trkpt>
      <trkpt lat="47.47823" lon="6.67754">
        <ele>441</ele>
        <time>2016-05-08T09:19:02.000Z</time>
      </trkpt>
      <trkpt lat="47.47823" lon="6.67762">
        <ele>442</ele>
        <time>2016-05-08T09:19:03.000Z</time>
      </trkpt>
      <trkpt lat="47.47821" lon="6.67773">
        <ele>441</ele>
        <time>2016-05-08T09:19:04.000Z</time>
      </trkpt>
      <trkpt lat="47.47821" lon="6.67783">
        <ele>441</ele>
        <time>2016-05-08T09:19:05.000Z</time>
      </trkpt>
      <trkpt lat="47.47821" lon="6.67791">
        <ele>441</ele>
        <time>2016-05-08T09:19:06.000Z</time>
      </trkpt>
      <trkpt lat="47.47822" lon="6.67799">
        <ele>441</ele>
        <time>2016-05-08T09:19:07.000Z</time>
      </trkpt>
      <trkpt lat="47.47822" lon="6.67806">
        <ele>440</ele>
        <time>2016-05-08T09:19:08.000Z</time>
      </trkpt>
      <trkpt lat="47.47823" lon="6.67813">
        <ele>439</ele>
        <time>2016-05-08T09:19:09.000Z</time>
      </trkpt>
      <trkpt lat="47.47823" lon="6.67819">
        <ele>439</ele>
        <time>2016-05-08T09:19:10.000Z</time>
      </trkpt>
      <trkpt lat="47.47824" lon="6.67826">
        <ele>438</ele>
        <time>2016-05-08T09:19:11.000Z</time>
      </trkpt>
      <trkpt lat="47.47825" lon="6.67833">
        <ele>437</ele>
        <time>2016-05-08T09:19:12.000Z</time>
      </trkpt>
      <trkpt lat="47.47826" lon="6.67841">
        <ele>435</ele>
        <time>2016-05-08T09:19:13.000Z</time>
      </trkpt>
      <trkpt lat="47.47826" lon="6.6785">
        <ele>435</ele>
        <time>2016-05-08T09:19:14.000Z</time>
      </trkpt>
      <trkpt lat="47.47827" lon="6.67855">
        <ele>435</ele>
        <time>2016-05-08T09:19:16.000Z</time>
      </trkpt>
      <trkpt lat="47.47828" lon="6.67859">
        <ele>435</ele>
        <time>2016-05-08T09:19:17.000Z</time>
      </trkpt>
      <trkpt lat="47.47828" lon="6.67863">
        <ele>435</ele>
        <time>2016-05-08T09:19:20.000Z</time>
      </trkpt>
      <trkpt lat="47.47829" lon="6.67866">
        <ele>435</ele>
        <time>2016-05-08T09:19:21.000Z</time>
      </trkpt>
      <trkpt lat="47.47829" lon="6.67869">
        <ele>434</ele>
        <time>2016-05-08T09:19:22.000Z</time>
      </trkpt>
      <trkpt lat="47.4783" lon="6.67874">
        <ele>434</ele>
        <time>2016-05-08T09:19:23.000Z</time>
      </trkpt>
      <trkpt lat="47.4783" lon="6.6788">
        <ele>434</ele>
        <time>2016-05-08T09:19:24.000Z</time>
      </trkpt>
      <trkpt lat="47.4783" lon="6.67887">
        <ele>433</ele>
        <time>2016-05-08T09:19:25.000Z</time>
      </trkpt>
      <trkpt lat="47.47829" lon="6.67894">
        <ele>432</ele>
        <time>2016-05-08T09:19:26.000Z</time>
      </trkpt>
      <trkpt lat="47.47829" lon="6.679">
        <ele>430</ele>
        <time>2016-05-08T09:19:27.000Z</time>
      </trkpt>
      <trkpt lat="47.47829" lon="6.67906">
        <ele>429</ele>
        <time>2016-05-08T09:19:28.000Z</time>
      </trkpt>
      <trkpt lat="47.4783" lon="6.6791">
        <ele>428</ele>
        <time>2016-05-08T09:19:29.000Z</time>
      </trkpt>
      <trkpt lat="47.47831" lon="6.67914">
        <ele>427</ele>
        <time>2016-05-08T09:19:30.000Z</time>
      </trkpt>
      <trkpt lat="47.47831" lon="6.67919">
        <ele>426</ele>
        <time>2016-05-08T09:19:31.000Z</time>
      </trkpt>
      <trkpt lat="47.47831" lon="6.67926">
        <ele>426</ele>
        <time>2016-05-08T09:19:32.000Z</time>
      </trkpt>
      <trkpt lat="47.4783" lon="6.67932">
        <ele>427</ele>
        <time>2016-05-08T09:19:33.000Z</time>
      </trkpt>
      <trkpt lat="47.47829" lon="6.6794">
        <ele>427</ele>
        <time>2016-05-08T09:19:34.000Z</time>
      </trkpt>
      <trkpt lat="47.47828" lon="6.67947">
        <ele>427</ele>
        <time>2016-05-08T09:19:35.000Z</time>
      </trkpt>
      <trkpt lat="47.47847" lon="6.67958">
        <ele>413</ele>
        <time>2016-05-08T09:19:36.000Z</time>
      </trkpt>
      <trkpt lat="47.47853" lon="6.6796">
        <ele>412</ele>
        <time>2016-05-08T09:19:37.000Z</time>
      </trkpt>
      <trkpt lat="47.47857" lon="6.67962">
        <ele>411</ele>
        <time>2016-05-08T09:19:38.000Z</time>
      </trkpt>
      <trkpt lat="47.47861" lon="6.67964">
        <ele>411</ele>
        <time>2016-05-08T09:19:39.000Z</time>
      </trkpt>
      <trkpt lat="47.47864" lon="6.67968">
        <ele>410</ele>
        <time>2016-05-08T09:19:40.000Z</time>
      </trkpt>
      <trkpt lat="47.47866" lon="6.67976">
        <ele>410</ele>
        <time>2016-05-08T09:19:41.000Z</time>
      </trkpt>
      <trkpt lat="47.47869" lon="6.6798">
        <ele>409</ele>
        <time>2016-05-08T09:19:42.000Z</time>
      </trkpt>
      <trkpt lat="47.47874" lon="6.67983">
        <ele>408</ele>
        <time>2016-05-08T09:19:43.000Z</time>
      </trkpt>
      <trkpt lat="47.47878" lon="6.67988">
        <ele>408</ele>
        <time>2016-05-08T09:19:44.000Z</time>
      </trkpt>
      <trkpt lat="47.47884" lon="6.67996">
        <ele>406</ele>
        <time>2016-05-08T09:19:45.000Z</time>
      </trkpt>
      <trkpt lat="47.47891" lon="6.68004">
        <ele>402</ele>
        <time>2016-05-08T09:19:46.000Z</time>
      </trkpt>
      <trkpt lat="47.47898" lon="6.68015">
        <ele>401</ele>
        <time>2016-05-08T09:19:47.000Z</time>
      </trkpt>
      <trkpt lat="47.47905" lon="6.68023">
        <ele>401</ele>
        <time>2016-05-08T09:19:48.000Z</time>
      </trkpt>
      <trkpt lat="47.47912" lon="6.68029">
        <ele>401</ele>
        <time>2016-05-08T09:19:49.000Z</time>
      </trkpt>
      <trkpt lat="47.47918" lon="6.68036">
        <ele>395</ele>
        <time>2016-05-08T09:19:50.000Z</time>
      </trkpt>
      <trkpt lat="47.47921" lon="6.68046">
        <ele>395</ele>
        <time>2016-05-08T09:19:51.000Z</time>
      </trkpt>
      <trkpt lat="47.47923" lon="6.68055">
        <ele>395</ele>
        <time>2016-05-08T09:19:52.000Z</time>
      </trkpt>
      <trkpt lat="47.47924" lon="6.68066">
        <ele>395</ele>
        <time>2016-05-08T09:19:53.000Z</time>
      </trkpt>
      <trkpt lat="47.47925" lon="6.68084">
        <ele>394</ele>
        <time>2016-05-08T09:19:54.000Z</time>
      </trkpt>
      <trkpt lat="47.47925" lon="6.68098">
        <ele>393</ele>
        <time>2016-05-08T09:19:55.000Z</time>
      </trkpt>
      <trkpt lat="47.47929" lon="6.68113">
        <ele>392</ele>
        <time>2016-05-08T09:19:56.000Z</time>
      </trkpt>
      <trkpt lat="47.47927" lon="6.6813">
        <ele>391</ele>
        <time>2016-05-08T09:19:57.000Z</time>
      </trkpt>
      <trkpt lat="47.47924" lon="6.68145">
        <ele>391</ele>
        <time>2016-05-08T09:19:58.000Z</time>
      </trkpt>
      <trkpt lat="47.47922" lon="6.6816">
        <ele>390</ele>
        <time>2016-05-08T09:19:59.000Z</time>
      </trkpt>
      <trkpt lat="47.47923" lon="6.68172">
        <ele>387</ele>
        <time>2016-05-08T09:20:00.000Z</time>
      </trkpt>
      <trkpt lat="47.47921" lon="6.68184">
        <ele>386</ele>
        <time>2016-05-08T09:20:01.000Z</time>
      </trkpt>
      <trkpt lat="47.4792" lon="6.68197">
        <ele>384</ele>
        <time>2016-05-08T09:20:02.000Z</time>
      </trkpt>
      <trkpt lat="47.47916" lon="6.68208">
        <ele>386</ele>
        <time>2016-05-08T09:20:03.000Z</time>
      </trkpt>
      <trkpt lat="47.47907" lon="6.68225">
        <ele>383</ele>
        <time>2016-05-08T09:20:04.000Z</time>
      </trkpt>
      <trkpt lat="47.47907" lon="6.68238">
        <ele>381</ele>
        <time>2016-05-08T09:20:05.000Z</time>
      </trkpt>
      <trkpt lat="47.47905" lon="6.6825">
        <ele>380</ele>
        <time>2016-05-08T09:20:06.000Z</time>
      </trkpt>
      <trkpt lat="47.47903" lon="6.68262">
        <ele>374</ele>
        <time>2016-05-08T09:20:07.000Z</time>
      </trkpt>
      <trkpt lat="47.47904" lon="6.68277">
        <ele>374</ele>
        <time>2016-05-08T09:20:08.000Z</time>
      </trkpt>
      <trkpt lat="47.47902" lon="6.6829">
        <ele>373</ele>
        <time>2016-05-08T09:20:09.000Z</time>
      </trkpt>
      <trkpt lat="47.47902" lon="6.68299">
        <ele>372</ele>
        <time>2016-05-08T09:20:10.000Z</time>
      </trkpt>
      <trkpt lat="47.47901" lon="6.68304">
        <ele>371</ele>
        <time>2016-05-08T09:20:11.000Z</time>
      </trkpt>
      <trkpt lat="47.479" lon="6.68309">
        <ele>371</ele>
        <time>2016-05-08T09:20:12.000Z</time>
      </trkpt>
      <trkpt lat="47.479" lon="6.68317">
        <ele>370</ele>
        <time>2016-05-08T09:20:13.000Z</time>
      </trkpt>
      <trkpt lat="47.47898" lon="6.68324">
        <ele>369</ele>
        <time>2016-05-08T09:20:14.000Z</time>
      </trkpt>
      <trkpt lat="47.47899" lon="6.6833">
        <ele>369</ele>
        <time>2016-05-08T09:20:15.000Z</time>
      </trkpt>
      <trkpt lat="47.47897" lon="6.68336">
        <ele>365</ele>
        <time>2016-05-08T09:20:16.000Z</time>
      </trkpt>
      <trkpt lat="47.47893" lon="6.68345">
        <ele>365</ele>
        <time>2016-05-08T09:20:17.000Z</time>
      </trkpt>
      <trkpt lat="47.47889" lon="6.68354">
        <ele>365</ele>
        <time>2016-05-08T09:20:18.000Z</time>
      </trkpt>
      <trkpt lat="47.47889" lon="6.68359">
        <ele>365</ele>
        <time>2016-05-08T09:20:19.000Z</time>
      </trkpt>
      <trkpt lat="47.47889" lon="6.68363">
        <ele>365</ele>
        <time>2016-05-08T09:20:20.000Z</time>
      </trkpt>
      <trkpt lat="47.47886" lon="6.68368">
        <ele>365</ele>
        <time>2016-05-08T09:20:22.000Z</time>
      </trkpt>
      <trkpt lat="47.47884" lon="6.68368">
        <ele>365</ele>
        <time>2016-05-08T09:20:23.000Z</time>
      </trkpt>
      <trkpt lat="47.47888" lon="6.6837">
        <ele>365</ele>
        <time>2016-05-08T09:20:31.000Z</time>
      </trkpt>
      <trkpt lat="47.47889" lon="6.6837">
        <ele>365</ele>
        <time>2016-05-08T09:20:32.000Z</time>
      </trkpt>
      <trkpt lat="47.47892" lon="6.68372">
        <ele>365</ele>
        <time>2016-05-08T09:20:34.000Z</time>
      </trkpt>
      <trkpt lat="47.47893" lon="6.68373">
        <ele>365</ele>
        <time>2016-05-08T09:20:35.000Z</time>
      </trkpt>
      <trkpt lat="47.47897" lon="6.68374">
        <ele>365</ele>
        <time>2016-05-08T09:20:37.000Z</time>
      </trkpt>
      <trkpt lat="47.47898" lon="6.68375">
        <ele>365</ele>
        <time>2016-05-08T09:20:38.000Z</time>
      </trkpt>
      <trkpt lat="47.479" lon="6.68378">
        <ele>365</ele>
        <time>2016-05-08T09:20:40.000Z</time>
      </trkpt>
      <trkpt lat="47.47901" lon="6.68379">
        <ele>365</ele>
        <time>2016-05-08T09:20:41.000Z</time>
      </trkpt>
      <trkpt lat="47.47905" lon="6.68381">
        <ele>365</ele>
        <time>2016-05-08T09:20:44.000Z</time>
      </trkpt>
      <trkpt lat="47.47906" lon="6.68381">
        <ele>365</ele>
        <time>2016-05-08T09:20:45.000Z</time>
      </trkpt>
      <trkpt lat="47.4791" lon="6.68384">
        <ele>364</ele>
        <time>2016-05-08T09:20:48.000Z</time>
      </trkpt>
      <trkpt lat="47.47911" lon="6.68386">
        <ele>364</ele>
        <time>2016-05-08T09:20:49.000Z</time>
      </trkpt>
      <trkpt lat="47.47915" lon="6.68388">
        <ele>364</ele>
        <time>2016-05-08T09:21:24.000Z</time>
      </trkpt>
      <trkpt lat="47.47916" lon="6.68389">
        <ele>364</ele>
        <time>2016-05-08T09:21:25.000Z</time>
      </trkpt>
      <trkpt lat="47.47919" lon="6.68392">
        <ele>364</ele>
        <time>2016-05-08T09:21:28.000Z</time>
      </trkpt>
      <trkpt lat="47.47921" lon="6.68392">
        <ele>364</ele>
        <time>2016-05-08T09:21:29.000Z</time>
      </trkpt>
      <trkpt lat="47.47923" lon="6.68393">
        <ele>364</ele>
        <time>2016-05-08T09:21:30.000Z</time>
      </trkpt>
      <trkpt lat="47.47925" lon="6.68393">
        <ele>364</ele>
        <time>2016-05-08T09:21:31.000Z</time>
      </trkpt>
      <trkpt lat="47.47927" lon="6.68394">
        <ele>364</ele>
        <time>2016-05-08T09:21:32.000Z</time>
      </trkpt>
      <trkpt lat="47.4793" lon="6.68394">
        <ele>364</ele>
        <time>2016-05-08T09:21:33.000Z</time>
      </trkpt>
      <trkpt lat="47.47932" lon="6.68395">
        <ele>365</ele>
        <time>2016-05-08T09:21:34.000Z</time>
      </trkpt>
      <trkpt lat="47.47935" lon="6.68396">
        <ele>365</ele>
        <time>2016-05-08T09:21:35.000Z</time>
      </trkpt>
      <trkpt lat="47.47937" lon="6.68397">
        <ele>365</ele>
        <time>2016-05-08T09:21:36.000Z</time>
      </trkpt>
      <trkpt lat="47.4794" lon="6.68398">
        <ele>365</ele>
        <time>2016-05-08T09:21:37.000Z</time>
      </trkpt>
      <trkpt lat="47.47943" lon="6.684">
        <ele>365</ele>
        <time>2016-05-08T09:21:39.000Z</time>
      </trkpt>
      <trkpt lat="47.47944" lon="6.68401">
        <ele>365</ele>
        <time>2016-05-08T09:21:40.000Z</time>
      </trkpt>
      <trkpt lat="47.47946" lon="6.68405">
        <ele>365</ele>
        <time>2016-05-08T09:21:42.000Z</time>
      </trkpt>
      <trkpt lat="47.47947" lon="6.68406">
        <ele>365</ele>
        <time>2016-05-08T09:21:43.000Z</time>
      </trkpt>
      <trkpt lat="47.47951" lon="6.68408">
        <ele>365</ele>
        <time>2016-05-08T09:21:45.000Z</time>
      </trkpt>
      <trkpt lat="47.47953" lon="6.68409">
        <ele>365</ele>
        <time>2016-05-08T09:21:46.000Z</time>
      </trkpt>
      <trkpt lat="47.47955" lon="6.6841">
        <ele>365</ele>
        <time>2016-05-08T09:21:47.000Z</time>
      </trkpt>
      <trkpt lat="47.47958" lon="6.68411">
        <ele>365</ele>
        <time>2016-05-08T09:21:48.000Z</time>
      </trkpt>
      <trkpt lat="47.47962" lon="6.68411">
        <ele>365</ele>
        <time>2016-05-08T09:21:50.000Z</time>
      </trkpt>
      <trkpt lat="47.47964" lon="6.68409">
        <ele>366</ele>
        <time>2016-05-08T09:21:51.000Z</time>
      </trkpt>
      <trkpt lat="47.47968" lon="6.68407">
        <ele>366</ele>
        <time>2016-05-08T09:21:53.000Z</time>
      </trkpt>
      <trkpt lat="47.4797" lon="6.68406">
        <ele>366</ele>
        <time>2016-05-08T09:21:54.000Z</time>
      </trkpt>
      <trkpt lat="47.47972" lon="6.68406">
        <ele>366</ele>
        <time>2016-05-08T09:21:55.000Z</time>
      </trkpt>
      <trkpt lat="47.47975" lon="6.68408">
        <ele>366</ele>
        <time>2016-05-08T09:21:56.000Z</time>
      </trkpt>
      <trkpt lat="47.47978" lon="6.68409">
        <ele>366</ele>
        <time>2016-05-08T09:21:57.000Z</time>
      </trkpt>
      <trkpt lat="47.4798" lon="6.6841">
        <ele>366</ele>
        <time>2016-05-08T09:21:58.000Z</time>
      </trkpt>
      <trkpt lat="47.47983" lon="6.6841">
        <ele>366</ele>
        <time>2016-05-08T09:21:59.000Z</time>
      </trkpt>
      <trkpt lat="47.47986" lon="6.6841">
        <ele>366</ele>
        <time>2016-05-08T09:22:00.000Z</time>
      </trkpt>
      <trkpt lat="47.47988" lon="6.6841">
        <ele>366</ele>
        <time>2016-05-08T09:22:01.000Z</time>
      </trkpt>
      <trkpt lat="47.4799" lon="6.6841">
        <ele>366</ele>
        <time>2016-05-08T09:22:02.000Z</time>
      </trkpt>
      <trkpt lat="47.47993" lon="6.68411">
        <ele>366</ele>
        <time>2016-05-08T09:22:03.000Z</time>
      </trkpt>
      <trkpt lat="47.47995" lon="6.68411">
        <ele>366</ele>
        <time>2016-05-08T09:22:04.000Z</time>
      </trkpt>
      <trkpt lat="47.47999" lon="6.68412">
        <ele>366</ele>
        <time>2016-05-08T09:22:06.000Z</time>
      </trkpt>
      <trkpt lat="47.48001" lon="6.68412">
        <ele>367</ele>
        <time>2016-05-08T09:22:07.000Z</time>
      </trkpt>
      <trkpt lat="47.48004" lon="6.68411">
        <ele>367</ele>
        <time>2016-05-08T09:22:08.000Z</time>
      </trkpt>
      <trkpt lat="47.48006" lon="6.68411">
        <ele>368</ele>
        <time>2016-05-08T09:22:09.000Z</time>
      </trkpt>
      <trkpt lat="47.48009" lon="6.6841">
        <ele>368</ele>
        <time>2016-05-08T09:22:10.000Z</time>
      </trkpt>
      <trkpt lat="47.48011" lon="6.6841">
        <ele>369</ele>
        <time>2016-05-08T09:22:11.000Z</time>
      </trkpt>
      <trkpt lat="47.48015" lon="6.6841">
        <ele>369</ele>
        <time>2016-05-08T09:22:13.000Z</time>
      </trkpt>
      <trkpt lat="47.48016" lon="6.6841">
        <ele>369</ele>
        <time>2016-05-08T09:22:14.000Z</time>
      </trkpt>
      <trkpt lat="47.48021" lon="6.68409">
        <ele>370</ele>
        <time>2016-05-08T09:22:17.000Z</time>
      </trkpt>
      <trkpt lat="47.48023" lon="6.68409">
        <ele>370</ele>
        <time>2016-05-08T09:22:18.000Z</time>
      </trkpt>
      <trkpt lat="47.48027" lon="6.68408">
        <ele>370</ele>
        <time>2016-05-08T09:22:20.000Z</time>
      </trkpt>
      <trkpt lat="47.48029" lon="6.68408">
        <ele>371</ele>
        <time>2016-05-08T09:22:21.000Z</time>
      </trkpt>
      <trkpt lat="47.48031" lon="6.68407">
        <ele>371</ele>
        <time>2016-05-08T09:22:22.000Z</time>
      </trkpt>
      <trkpt lat="47.48033" lon="6.68405">
        <ele>371</ele>
        <time>2016-05-08T09:22:23.000Z</time>
      </trkpt>
      <trkpt lat="47.48036" lon="6.68403">
        <ele>371</ele>
        <time>2016-05-08T09:22:25.000Z</time>
      </trkpt>
      <trkpt lat="47.48038" lon="6.68403">
        <ele>371</ele>
        <time>2016-05-08T09:22:26.000Z</time>
      </trkpt>
      <trkpt lat="47.48042" lon="6.68401">
        <ele>372</ele>
        <time>2016-05-08T09:22:37.000Z</time>
      </trkpt>
      <trkpt lat="47.48043" lon="6.68401">
        <ele>372</ele>
        <time>2016-05-08T09:22:38.000Z</time>
      </trkpt>
      <trkpt lat="47.48047" lon="6.68401">
        <ele>372</ele>
        <time>2016-05-08T09:22:40.000Z</time>
      </trkpt>
      <trkpt lat="47.48048" lon="6.68401">
        <ele>372</ele>
        <time>2016-05-08T09:22:41.000Z</time>
      </trkpt>
      <trkpt lat="47.48052" lon="6.68401">
        <ele>372</ele>
        <time>2016-05-08T09:22:45.000Z</time>
      </trkpt>
      <trkpt lat="47.48053" lon="6.68401">
        <ele>372</ele>
        <time>2016-05-08T09:22:46.000Z</time>
      </trkpt>
      <trkpt lat="47.48057" lon="6.68401">
        <ele>372</ele>
        <time>2016-05-08T09:22:49.000Z</time>
      </trkpt>
      <trkpt lat="47.48059" lon="6.68402">
        <ele>372</ele>
        <time>2016-05-08T09:22:50.000Z</time>
      </trkpt>
      <trkpt lat="47.48063" lon="6.68402">
        <ele>372</ele>
        <time>2016-05-08T09:22:52.000Z</time>
      </trkpt>
      <trkpt lat="47.48065" lon="6.68402">
        <ele>372</ele>
        <time>2016-05-08T09:22:53.000Z</time>
      </trkpt>
      <trkpt lat="47.48068" lon="6.68402">
        <ele>372</ele>
        <time>2016-05-08T09:22:55.000Z</time>
      </trkpt>
      <trkpt lat="47.4807" lon="6.68403">
        <ele>372</ele>
        <time>2016-05-08T09:22:56.000Z</time>
      </trkpt>
      <trkpt lat="47.48074" lon="6.68404">
        <ele>372</ele>
        <time>2016-05-08T09:22:59.000Z</time>
      </trkpt>
      <trkpt lat="47.48076" lon="6.68404">
        <ele>372</ele>
        <time>2016-05-08T09:23:00.000Z</time>
      </trkpt>
      <trkpt lat="47.4808" lon="6.68403">
        <ele>372</ele>
        <time>2016-05-08T09:23:02.000Z</time>
      </trkpt>
      <trkpt lat="47.48082" lon="6.68403">
        <ele>372</ele>
        <time>2016-05-08T09:23:03.000Z</time>
      </trkpt>
      <trkpt lat="47.48084" lon="6.68403">
        <ele>375</ele>
        <time>2016-05-08T09:23:04.000Z</time>
      </trkpt>
      <trkpt lat="47.48087" lon="6.68403">
        <ele>375</ele>
        <time>2016-05-08T09:23:05.000Z</time>
      </trkpt>
      <trkpt lat="47.4809" lon="6.68403">
        <ele>376</ele>
        <time>2016-05-08T09:23:06.000Z</time>
      </trkpt>
      <trkpt lat="47.48094" lon="6.68402">
        <ele>376</ele>
        <time>2016-05-08T09:23:07.000Z</time>
      </trkpt>
      <trkpt lat="47.48097" lon="6.68402">
        <ele>377</ele>
        <time>2016-05-08T09:23:08.000Z</time>
      </trkpt>
      <trkpt lat="47.481" lon="6.68401">
        <ele>377</ele>
        <time>2016-05-08T09:23:09.000Z</time>
      </trkpt>
      <trkpt lat="47.48102" lon="6.68401">
        <ele>378</ele>
        <time>2016-05-08T09:23:10.000Z</time>
      </trkpt>
      <trkpt lat="47.48105" lon="6.684">
        <ele>378</ele>
        <time>2016-05-08T09:23:11.000Z</time>
      </trkpt>
      <trkpt lat="47.48107" lon="6.68399">
        <ele>378</ele>
        <time>2016-05-08T09:23:12.000Z</time>
      </trkpt>
      <trkpt lat="47.4811" lon="6.68398">
        <ele>379</ele>
        <time>2016-05-08T09:23:13.000Z</time>
      </trkpt>
      <trkpt lat="47.48112" lon="6.68398">
        <ele>379</ele>
        <time>2016-05-08T09:23:14.000Z</time>
      </trkpt>
      <trkpt lat="47.48114" lon="6.68398">
        <ele>379</ele>
        <time>2016-05-08T09:23:15.000Z</time>
      </trkpt>
      <trkpt lat="47.48118" lon="6.68398">
        <ele>380</ele>
        <time>2016-05-08T09:23:17.000Z</time>
      </trkpt>
      <trkpt lat="47.4812" lon="6.68398">
        <ele>380</ele>
        <time>2016-05-08T09:23:18.000Z</time>
      </trkpt>
      <trkpt lat="47.48124" lon="6.68397">
        <ele>380</ele>
        <time>2016-05-08T09:23:20.000Z</time>
      </trkpt>
      <trkpt lat="47.48127" lon="6.68396">
        <ele>380</ele>
        <time>2016-05-08T09:23:21.000Z</time>
      </trkpt>
      <trkpt lat="47.48129" lon="6.68396">
        <ele>381</ele>
        <time>2016-05-08T09:23:22.000Z</time>
      </trkpt>
      <trkpt lat="47.48132" lon="6.68396">
        <ele>381</ele>
        <time>2016-05-08T09:23:23.000Z</time>
      </trkpt>
      <trkpt lat="47.48135" lon="6.68396">
        <ele>381</ele>
        <time>2016-05-08T09:23:24.000Z</time>
      </trkpt>
      <trkpt lat="47.48137" lon="6.68396">
        <ele>381</ele>
        <time>2016-05-08T09:23:25.000Z</time>
      </trkpt>
      <trkpt lat="47.4814" lon="6.68396">
        <ele>381</ele>
        <time>2016-05-08T09:23:26.000Z</time>
      </trkpt>
      <trkpt lat="47.48142" lon="6.68396">
        <ele>381</ele>
        <time>2016-05-08T09:23:27.000Z</time>
      </trkpt>
      <trkpt lat="47.48145" lon="6.68397">
        <ele>382</ele>
        <time>2016-05-08T09:23:28.000Z</time>
      </trkpt>
      <trkpt lat="47.48147" lon="6.68397">
        <ele>382</ele>
        <time>2016-05-08T09:23:29.000Z</time>
      </trkpt>
      <trkpt lat="47.48151" lon="6.68399">
        <ele>382</ele>
        <time>2016-05-08T09:23:31.000Z</time>
      </trkpt>
      <trkpt lat="47.48153" lon="6.68399">
        <ele>382</ele>
        <time>2016-05-08T09:23:32.000Z</time>
      </trkpt>
      <trkpt lat="47.48156" lon="6.68399">
        <ele>382</ele>
        <time>2016-05-08T09:23:33.000Z</time>
      </trkpt>
      <trkpt lat="47.48159" lon="6.68399">
        <ele>382</ele>
        <time>2016-05-08T09:23:34.000Z</time>
      </trkpt>
      <trkpt lat="47.48161" lon="6.68399">
        <ele>382</ele>
        <time>2016-05-08T09:23:35.000Z</time>
      </trkpt>
      <trkpt lat="47.48164" lon="6.68399">
        <ele>382</ele>
        <time>2016-05-08T09:23:36.000Z</time>
      </trkpt>
      <trkpt lat="47.48166" lon="6.68399">
        <ele>382</ele>
        <time>2016-05-08T09:23:37.000Z</time>
      </trkpt>
      <trkpt lat="47.48168" lon="6.68399">
        <ele>386</ele>
        <time>2016-05-08T09:23:38.000Z</time>
      </trkpt>
      <trkpt lat="47.48172" lon="6.68399">
        <ele>386</ele>
        <time>2016-05-08T09:23:40.000Z</time>
      </trkpt>
      <trkpt lat="47.48174" lon="6.684">
        <ele>386</ele>
        <time>2016-05-08T09:23:41.000Z</time>
      </trkpt>
      <trkpt lat="47.48178" lon="6.68403">
        <ele>386</ele>
        <time>2016-05-08T09:23:43.000Z</time>
      </trkpt>
      <trkpt lat="47.4818" lon="6.68405">
        <ele>386</ele>
        <time>2016-05-08T09:23:44.000Z</time>
      </trkpt>
      <trkpt lat="47.48183" lon="6.68406">
        <ele>386</ele>
        <time>2016-05-08T09:23:46.000Z</time>
      </trkpt>
      <trkpt lat="47.48186" lon="6.68407">
        <ele>386</ele>
        <time>2016-05-08T09:23:47.000Z</time>
      </trkpt>
      <trkpt lat="47.48188" lon="6.68407">
        <ele>386</ele>
        <time>2016-05-08T09:23:48.000Z</time>
      </trkpt>
      <trkpt lat="47.48191" lon="6.68408">
        <ele>386</ele>
        <time>2016-05-08T09:23:49.000Z</time>
      </trkpt>
      <trkpt lat="47.48193" lon="6.68408">
        <ele>386</ele>
        <time>2016-05-08T09:23:50.000Z</time>
      </trkpt>
      <trkpt lat="47.48195" lon="6.68409">
        <ele>386</ele>
        <time>2016-05-08T09:23:51.000Z</time>
      </trkpt>
      <trkpt lat="47.48197" lon="6.68409">
        <ele>387</ele>
        <time>2016-05-08T09:23:52.000Z</time>
      </trkpt>
      <trkpt lat="47.482" lon="6.68409">
        <ele>387</ele>
        <time>2016-05-08T09:23:53.000Z</time>
      </trkpt>
      <trkpt lat="47.48203" lon="6.6841">
        <ele>387</ele>
        <time>2016-05-08T09:23:54.000Z</time>
      </trkpt>
      <trkpt lat="47.48205" lon="6.68412">
        <ele>387</ele>
        <time>2016-05-08T09:23:55.000Z</time>
      </trkpt>
      <trkpt lat="47.48207" lon="6.68413">
        <ele>387</ele>
        <time>2016-05-08T09:23:56.000Z</time>
      </trkpt>
      <trkpt lat="47.48209" lon="6.68414">
        <ele>387</ele>
        <time>2016-05-08T09:23:57.000Z</time>
      </trkpt>
      <trkpt lat="47.48213" lon="6.68417">
        <ele>387</ele>
        <time>2016-05-08T09:23:59.000Z</time>
      </trkpt>
      <trkpt lat="47.48215" lon="6.68418">
        <ele>384</ele>
        <time>2016-05-08T09:24:00.000Z</time>
      </trkpt>
      <trkpt lat="47.48219" lon="6.6842">
        <ele>384</ele>
        <time>2016-05-08T09:24:02.000Z</time>
      </trkpt>
      <trkpt lat="47.48221" lon="6.68421">
        <ele>384</ele>
        <time>2016-05-08T09:24:03.000Z</time>
      </trkpt>
      <trkpt lat="47.48225" lon="6.68422">
        <ele>384</ele>
        <time>2016-05-08T09:24:05.000Z</time>
      </trkpt>
      <trkpt lat="47.48228" lon="6.68423">
        <ele>384</ele>
        <time>2016-05-08T09:24:06.000Z</time>
      </trkpt>
      <trkpt lat="47.4823" lon="6.68423">
        <ele>385</ele>
        <time>2016-05-08T09:24:07.000Z</time>
      </trkpt>
      <trkpt lat="47.48233" lon="6.68423">
        <ele>385</ele>
        <time>2016-05-08T09:24:08.000Z</time>
      </trkpt>
      <trkpt lat="47.48236" lon="6.68423">
        <ele>385</ele>
        <time>2016-05-08T09:24:10.000Z</time>
      </trkpt>
      <trkpt lat="47.48238" lon="6.68424">
        <ele>385</ele>
        <time>2016-05-08T09:24:11.000Z</time>
      </trkpt>
      <trkpt lat="47.48242" lon="6.68426">
        <ele>386</ele>
        <time>2016-05-08T09:24:13.000Z</time>
      </trkpt>
      <trkpt lat="47.48244" lon="6.68427">
        <ele>386</ele>
        <time>2016-05-08T09:24:14.000Z</time>
      </trkpt>
      <trkpt lat="47.48247" lon="6.68429">
        <ele>386</ele>
        <time>2016-05-08T09:24:16.000Z</time>
      </trkpt>
      <trkpt lat="47.48249" lon="6.6843">
        <ele>386</ele>
        <time>2016-05-08T09:24:17.000Z</time>
      </trkpt>
      <trkpt lat="47.48251" lon="6.68431">
        <ele>387</ele>
        <time>2016-05-08T09:24:18.000Z</time>
      </trkpt>
      <trkpt lat="47.48254" lon="6.68433">
        <ele>387</ele>
        <time>2016-05-08T09:24:19.000Z</time>
      </trkpt>
      <trkpt lat="47.48257" lon="6.68434">
        <ele>387</ele>
        <time>2016-05-08T09:24:20.000Z</time>
      </trkpt>
      <trkpt lat="47.4826" lon="6.68436">
        <ele>387</ele>
        <time>2016-05-08T09:24:21.000Z</time>
      </trkpt>
      <trkpt lat="47.48263" lon="6.68437">
        <ele>386</ele>
        <time>2016-05-08T09:24:22.000Z</time>
      </trkpt>
      <trkpt lat="47.48266" lon="6.68439">
        <ele>386</ele>
        <time>2016-05-08T09:24:23.000Z</time>
      </trkpt>
      <trkpt lat="47.4827" lon="6.6844">
        <ele>386</ele>
        <time>2016-05-08T09:24:24.000Z</time>
      </trkpt>
      <trkpt lat="47.48273" lon="6.68442">
        <ele>386</ele>
        <time>2016-05-08T09:24:25.000Z</time>
      </trkpt>
      <trkpt lat="47.48276" lon="6.68443">
        <ele>386</ele>
        <time>2016-05-08T09:24:26.000Z</time>
      </trkpt>
      <trkpt lat="47.48279" lon="6.68445">
        <ele>386</ele>
        <time>2016-05-08T09:24:27.000Z</time>
      </trkpt>
      <trkpt lat="47.48282" lon="6.68447">
        <ele>386</ele>
        <time>2016-05-08T09:24:28.000Z</time>
      </trkpt>
      <trkpt lat="47.48286" lon="6.68449">
        <ele>386</ele>
        <time>2016-05-08T09:24:29.000Z</time>
      </trkpt>
      <trkpt lat="47.48289" lon="6.68451">
        <ele>386</ele>
        <time>2016-05-08T09:24:30.000Z</time>
      </trkpt>
      <trkpt lat="47.48292" lon="6.68453">
        <ele>386</ele>
        <time>2016-05-08T09:24:31.000Z</time>
      </trkpt>
      <trkpt lat="47.48295" lon="6.68454">
        <ele>386</ele>
        <time>2016-05-08T09:24:32.000Z</time>
      </trkpt>
      <trkpt lat="47.48298" lon="6.68454">
        <ele>386</ele>
        <time>2016-05-08T09:24:33.000Z</time>
      </trkpt>
      <trkpt lat="47.483" lon="6.68454">
        <ele>386</ele>
        <time>2016-05-08T09:24:34.000Z</time>
      </trkpt>
      <trkpt lat="47.48303" lon="6.68455">
        <ele>386</ele>
        <time>2016-05-08T09:24:35.000Z</time>
      </trkpt>
      <trkpt lat="47.48305" lon="6.68455">
        <ele>386</ele>
        <time>2016-05-08T09:24:36.000Z</time>
      </trkpt>
      <trkpt lat="47.48308" lon="6.68455">
        <ele>386</ele>
        <time>2016-05-08T09:24:37.000Z</time>
      </trkpt>
      <trkpt lat="47.48311" lon="6.68454">
        <ele>386</ele>
        <time>2016-05-08T09:24:38.000Z</time>
      </trkpt>
      <trkpt lat="47.48314" lon="6.68454">
        <ele>386</ele>
        <time>2016-05-08T09:24:39.000Z</time>
      </trkpt>
      <trkpt lat="47.48317" lon="6.68454">
        <ele>386</ele>
        <time>2016-05-08T09:24:40.000Z</time>
      </trkpt>
      <trkpt lat="47.48321" lon="6.68455">
        <ele>386</ele>
        <time>2016-05-08T09:24:41.000Z</time>
      </trkpt>
      <trkpt lat="47.48324" lon="6.68455">
        <ele>386</ele>
        <time>2016-05-08T09:24:42.000Z</time>
      </trkpt>
      <trkpt lat="47.48327" lon="6.68456">
        <ele>386</ele>
        <time>2016-05-08T09:24:43.000Z</time>
      </trkpt>
      <trkpt lat="47.4833" lon="6.68457">
        <ele>386</ele>
        <time>2016-05-08T09:24:45.000Z</time>
      </trkpt>
      <trkpt lat="47.48331" lon="6.68457">
        <ele>386</ele>
        <time>2016-05-08T09:24:46.000Z</time>
      </trkpt>
      <trkpt lat="47.48334" lon="6.68458">
        <ele>380</ele>
        <time>2016-05-08T09:24:51.000Z</time>
      </trkpt>
      <trkpt lat="47.48336" lon="6.68459">
        <ele>380</ele>
        <time>2016-05-08T09:24:52.000Z</time>
      </trkpt>
      <trkpt lat="47.4834" lon="6.6846">
        <ele>380</ele>
        <time>2016-05-08T09:24:53.000Z</time>
      </trkpt>
      <trkpt lat="47.48342" lon="6.68461">
        <ele>380</ele>
        <time>2016-05-08T09:24:54.000Z</time>
      </trkpt>
      <trkpt lat="47.48346" lon="6.68461">
        <ele>379</ele>
        <time>2016-05-08T09:24:55.000Z</time>
      </trkpt>
      <trkpt lat="47.48349" lon="6.68462">
        <ele>379</ele>
        <time>2016-05-08T09:24:56.000Z</time>
      </trkpt>
      <trkpt lat="47.48353" lon="6.68462">
        <ele>379</ele>
        <time>2016-05-08T09:24:57.000Z</time>
      </trkpt>
      <trkpt lat="47.48357" lon="6.68461">
        <ele>379</ele>
        <time>2016-05-08T09:24:58.000Z</time>
      </trkpt>
      <trkpt lat="47.48361" lon="6.6846">
        <ele>378</ele>
        <time>2016-05-08T09:24:59.000Z</time>
      </trkpt>
      <trkpt lat="47.48366" lon="6.68458">
        <ele>378</ele>
        <time>2016-05-08T09:25:00.000Z</time>
      </trkpt>
      <trkpt lat="47.4837" lon="6.68456">
        <ele>378</ele>
        <time>2016-05-08T09:25:01.000Z</time>
      </trkpt>
      <trkpt lat="47.48374" lon="6.68453">
        <ele>378</ele>
        <time>2016-05-08T09:25:02.000Z</time>
      </trkpt>
      <trkpt lat="47.48378" lon="6.6845">
        <ele>377</ele>
        <time>2016-05-08T09:25:03.000Z</time>
      </trkpt>
      <trkpt lat="47.48382" lon="6.68447">
        <ele>377</ele>
        <time>2016-05-08T09:25:04.000Z</time>
      </trkpt>
      <trkpt lat="47.48386" lon="6.68444">
        <ele>377</ele>
        <time>2016-05-08T09:25:05.000Z</time>
      </trkpt>
      <trkpt lat="47.4839" lon="6.68441">
        <ele>377</ele>
        <time>2016-05-08T09:25:06.000Z</time>
      </trkpt>
      <trkpt lat="47.48395" lon="6.68437">
        <ele>377</ele>
        <time>2016-05-08T09:25:07.000Z</time>
      </trkpt>
      <trkpt lat="47.48399" lon="6.68433">
        <ele>376</ele>
        <time>2016-05-08T09:25:08.000Z</time>
      </trkpt>
      <trkpt lat="47.48403" lon="6.68429">
        <ele>376</ele>
        <time>2016-05-08T09:25:09.000Z</time>
      </trkpt>
      <trkpt lat="47.48407" lon="6.68425">
        <ele>376</ele>
        <time>2016-05-08T09:25:10.000Z</time>
      </trkpt>
      <trkpt lat="47.4841" lon="6.68422">
        <ele>376</ele>
        <time>2016-05-08T09:25:11.000Z</time>
      </trkpt>
      <trkpt lat="47.48412" lon="6.68418">
        <ele>375</ele>
        <time>2016-05-08T09:25:12.000Z</time>
      </trkpt>
      <trkpt lat="47.48415" lon="6.68414">
        <ele>376</ele>
        <time>2016-05-08T09:25:13.000Z</time>
      </trkpt>
      <trkpt lat="47.48417" lon="6.68411">
        <ele>373</ele>
        <time>2016-05-08T09:25:14.000Z</time>
      </trkpt>
      <trkpt lat="47.4842" lon="6.68407">
        <ele>372</ele>
        <time>2016-05-08T09:25:15.000Z</time>
      </trkpt>
      <trkpt lat="47.48423" lon="6.68403">
        <ele>371</ele>
        <time>2016-05-08T09:25:16.000Z</time>
      </trkpt>
      <trkpt lat="47.48427" lon="6.68399">
        <ele>370</ele>
        <time>2016-05-08T09:25:17.000Z</time>
      </trkpt>
      <trkpt lat="47.4843" lon="6.68395">
        <ele>369</ele>
        <time>2016-05-08T09:25:18.000Z</time>
      </trkpt>
      <trkpt lat="47.48448" lon="6.68382">
        <ele>366</ele>
        <time>2016-05-08T09:25:19.000Z</time>
      </trkpt>
      <trkpt lat="47.48454" lon="6.68375">
        <ele>365</ele>
        <time>2016-05-08T09:25:20.000Z</time>
      </trkpt>
      <trkpt lat="47.48458" lon="6.68372">
        <ele>365</ele>
        <time>2016-05-08T09:25:21.000Z</time>
      </trkpt>
      <trkpt lat="47.48467" lon="6.68371">
        <ele>363</ele>
        <time>2016-05-08T09:25:22.000Z</time>
      </trkpt>
      <trkpt lat="47.48479" lon="6.68381">
        <ele>361</ele>
        <time>2016-05-08T09:25:23.000Z</time>
      </trkpt>
      <trkpt lat="47.48489" lon="6.68385">
        <ele>359</ele>
        <time>2016-05-08T09:25:24.000Z</time>
      </trkpt>
      <trkpt lat="47.485" lon="6.68388">
        <ele>358</ele>
        <time>2016-05-08T09:25:25.000Z</time>
      </trkpt>
      <trkpt lat="47.48508" lon="6.68392">
        <ele>348</ele>
        <time>2016-05-08T09:25:26.000Z</time>
      </trkpt>
      <trkpt lat="47.48516" lon="6.68396">
        <ele>348</ele>
        <time>2016-05-08T09:25:27.000Z</time>
      </trkpt>
      <trkpt lat="47.48522" lon="6.684">
        <ele>348</ele>
        <time>2016-05-08T09:25:28.000Z</time>
      </trkpt>
      <trkpt lat="47.48528" lon="6.68403">
        <ele>348</ele>
        <time>2016-05-08T09:25:29.000Z</time>
      </trkpt>
      <trkpt lat="47.48534" lon="6.68406">
        <ele>348</ele>
        <time>2016-05-08T09:25:30.000Z</time>
      </trkpt>
      <trkpt lat="47.48538" lon="6.68409">
        <ele>347</ele>
        <time>2016-05-08T09:25:31.000Z</time>
      </trkpt>
      <trkpt lat="47.48542" lon="6.68412">
        <ele>347</ele>
        <time>2016-05-08T09:25:32.000Z</time>
      </trkpt>
      <trkpt lat="47.48546" lon="6.68415">
        <ele>347</ele>
        <time>2016-05-08T09:25:33.000Z</time>
      </trkpt>
      <trkpt lat="47.4855" lon="6.68418">
        <ele>348</ele>
        <time>2016-05-08T09:25:34.000Z</time>
      </trkpt>
      <trkpt lat="47.48554" lon="6.68422">
        <ele>348</ele>
        <time>2016-05-08T09:25:35.000Z</time>
      </trkpt>
      <trkpt lat="47.48558" lon="6.68426">
        <ele>348</ele>
        <time>2016-05-08T09:25:36.000Z</time>
      </trkpt>
      <trkpt lat="47.48561" lon="6.68431">
        <ele>348</ele>
        <time>2016-05-08T09:25:37.000Z</time>
      </trkpt>
      <trkpt lat="47.48564" lon="6.68437">
        <ele>348</ele>
        <time>2016-05-08T09:25:38.000Z</time>
      </trkpt>
      <trkpt lat="47.48566" lon="6.68442">
        <ele>348</ele>
        <time>2016-05-08T09:25:39.000Z</time>
      </trkpt>
      <trkpt lat="47.48566" lon="6.68446">
        <ele>348</ele>
        <time>2016-05-08T09:25:40.000Z</time>
      </trkpt>
      <trkpt lat="47.48568" lon="6.6845">
        <ele>348</ele>
        <time>2016-05-08T09:25:41.000Z</time>
      </trkpt>
      <trkpt lat="47.48569" lon="6.68456">
        <ele>348</ele>
        <time>2016-05-08T09:25:42.000Z</time>
      </trkpt>
      <trkpt lat="47.48571" lon="6.6846">
        <ele>348</ele>
        <time>2016-05-08T09:25:43.000Z</time>
      </trkpt>
      <trkpt lat="47.48573" lon="6.68467">
        <ele>348</ele>
        <time>2016-05-08T09:25:44.000Z</time>
      </trkpt>
      <trkpt lat="47.48576" lon="6.68474">
        <ele>348</ele>
        <time>2016-05-08T09:25:45.000Z</time>
      </trkpt>
      <trkpt lat="47.48575" lon="6.68478">
        <ele>349</ele>
        <time>2016-05-08T09:25:46.000Z</time>
      </trkpt>
      <trkpt lat="47.48576" lon="6.68484">
        <ele>349</ele>
        <time>2016-05-08T09:25:47.000Z</time>
      </trkpt>
      <trkpt lat="47.48576" lon="6.6849">
        <ele>349</ele>
        <time>2016-05-08T09:25:48.000Z</time>
      </trkpt>
      <trkpt lat="47.48575" lon="6.68499">
        <ele>349</ele>
        <time>2016-05-08T09:25:49.000Z</time>
      </trkpt>
      <trkpt lat="47.48576" lon="6.68504">
        <ele>348</ele>
        <time>2016-05-08T09:25:50.000Z</time>
      </trkpt>
      <trkpt lat="47.48576" lon="6.68511">
        <ele>348</ele>
        <time>2016-05-08T09:25:51.000Z</time>
      </trkpt>
      <trkpt lat="47.48578" lon="6.68514">
        <ele>348</ele>
        <time>2016-05-08T09:25:52.000Z</time>
      </trkpt>
      <trkpt lat="47.48578" lon="6.6852">
        <ele>348</ele>
        <time>2016-05-08T09:25:53.000Z</time>
      </trkpt>
      <trkpt lat="47.48579" lon="6.68528">
        <ele>347</ele>
        <time>2016-05-08T09:25:54.000Z</time>
      </trkpt>
      <trkpt lat="47.48579" lon="6.68535">
        <ele>347</ele>
        <time>2016-05-08T09:25:55.000Z</time>
      </trkpt>
      <trkpt lat="47.48581" lon="6.68542">
        <ele>347</ele>
        <time>2016-05-08T09:25:56.000Z</time>
      </trkpt>
      <trkpt lat="47.48583" lon="6.6855">
        <ele>347</ele>
        <time>2016-05-08T09:25:57.000Z</time>
      </trkpt>
      <trkpt lat="47.48585" lon="6.68557">
        <ele>347</ele>
        <time>2016-05-08T09:25:58.000Z</time>
      </trkpt>
      <trkpt lat="47.48587" lon="6.68561">
        <ele>347</ele>
        <time>2016-05-08T09:25:59.000Z</time>
      </trkpt>
      <trkpt lat="47.48589" lon="6.68565">
        <ele>347</ele>
        <time>2016-05-08T09:26:00.000Z</time>
      </trkpt>
      <trkpt lat="47.48591" lon="6.68567">
        <ele>347</ele>
        <time>2016-05-08T09:26:01.000Z</time>
      </trkpt>
      <trkpt lat="47.48593" lon="6.6857">
        <ele>347</ele>
        <time>2016-05-08T09:26:02.000Z</time>
      </trkpt>
      <trkpt lat="47.48595" lon="6.68574">
        <ele>347</ele>
        <time>2016-05-08T09:26:04.000Z</time>
      </trkpt>
      <trkpt lat="47.48596" lon="6.68577">
        <ele>347</ele>
        <time>2016-05-08T09:26:05.000Z</time>
      </trkpt>
      <trkpt lat="47.48596" lon="6.68582">
        <ele>347</ele>
        <time>2016-05-08T09:26:07.000Z</time>
      </trkpt>
      <trkpt lat="47.48596" lon="6.68584">
        <ele>346</ele>
        <time>2016-05-08T09:26:08.000Z</time>
      </trkpt>
      <trkpt lat="47.48595" lon="6.68589">
        <ele>346</ele>
        <time>2016-05-08T09:26:10.000Z</time>
      </trkpt>
      <trkpt lat="47.48594" lon="6.68591">
        <ele>346</ele>
        <time>2016-05-08T09:26:11.000Z</time>
      </trkpt>
      <trkpt lat="47.48591" lon="6.68594">
        <ele>346</ele>
        <time>2016-05-08T09:26:13.000Z</time>
      </trkpt>
      <trkpt lat="47.4859" lon="6.68595">
        <ele>346</ele>
        <time>2016-05-08T09:26:14.000Z</time>
      </trkpt>
      <trkpt lat="47.48589" lon="6.68601">
        <ele>346</ele>
        <time>2016-05-08T09:26:18.000Z</time>
      </trkpt>
      <trkpt lat="47.4859" lon="6.68604">
        <ele>346</ele>
        <time>2016-05-08T09:26:19.000Z</time>
      </trkpt>
      <trkpt lat="47.48591" lon="6.6861">
        <ele>346</ele>
        <time>2016-05-08T09:26:24.000Z</time>
      </trkpt>
      <trkpt lat="47.48591" lon="6.68611">
        <ele>346</ele>
        <time>2016-05-08T09:26:25.000Z</time>
      </trkpt>
      <trkpt lat="47.48588" lon="6.68612">
        <ele>346</ele>
        <time>2016-05-08T09:26:47.000Z</time>
      </trkpt>
      <trkpt lat="47.48585" lon="6.68614">
        <ele>346</ele>
        <time>2016-05-08T09:26:48.000Z</time>
      </trkpt>
      <trkpt lat="47.48583" lon="6.68618">
        <ele>343</ele>
        <time>2016-05-08T09:26:49.000Z</time>
      </trkpt>
      <trkpt lat="47.48581" lon="6.68622">
        <ele>343</ele>
        <time>2016-05-08T09:26:50.000Z</time>
      </trkpt>
      <trkpt lat="47.48578" lon="6.68626">
        <ele>343</ele>
        <time>2016-05-08T09:26:51.000Z</time>
      </trkpt>
      <trkpt lat="47.48576" lon="6.6863">
        <ele>343</ele>
        <time>2016-05-08T09:26:52.000Z</time>
      </trkpt>
      <trkpt lat="47.48574" lon="6.68635">
        <ele>343</ele>
        <time>2016-05-08T09:26:53.000Z</time>
      </trkpt>
      <trkpt lat="47.48572" lon="6.68641">
        <ele>343</ele>
        <time>2016-05-08T09:26:54.000Z</time>
      </trkpt>
      <trkpt lat="47.4857" lon="6.68647">
        <ele>343</ele>
        <time>2016-05-08T09:26:55.000Z</time>
      </trkpt>
      <trkpt lat="47.48566" lon="6.68652">
        <ele>342</ele>
        <time>2016-05-08T09:26:56.000Z</time>
      </trkpt>
      <trkpt lat="47.4855" lon="6.68659">
        <ele>342</ele>
        <time>2016-05-08T09:26:57.000Z</time>
      </trkpt>
      <trkpt lat="47.48543" lon="6.68661">
        <ele>342</ele>
        <time>2016-05-08T09:26:58.000Z</time>
      </trkpt>
      <trkpt lat="47.48536" lon="6.68664">
        <ele>341</ele>
        <time>2016-05-08T09:26:59.000Z</time>
      </trkpt>
      <trkpt lat="47.4853" lon="6.68668">
        <ele>341</ele>
        <time>2016-05-08T09:27:00.000Z</time>
      </trkpt>
      <trkpt lat="47.48528" lon="6.68671">
        <ele>341</ele>
        <time>2016-05-08T09:27:02.000Z</time>
      </trkpt>
      <trkpt lat="47.48526" lon="6.68673">
        <ele>341</ele>
        <time>2016-05-08T09:27:03.000Z</time>
      </trkpt>
      <trkpt lat="47.48525" lon="6.68678">
        <ele>341</ele>
        <time>2016-05-08T09:27:10.000Z</time>
      </trkpt>
      <trkpt lat="47.48525" lon="6.68679">
        <ele>341</ele>
        <time>2016-05-08T09:27:11.000Z</time>
      </trkpt>
      <trkpt lat="47.48524" lon="6.68685">
        <ele>341</ele>
        <time>2016-05-08T09:27:17.000Z</time>
      </trkpt>
      <trkpt lat="47.48524" lon="6.68686">
        <ele>341</ele>
        <time>2016-05-08T09:27:18.000Z</time>
      </trkpt>
      <trkpt lat="47.48524" lon="6.68692">
        <ele>341</ele>
        <time>2016-05-08T09:27:23.000Z</time>
      </trkpt>
      <trkpt lat="47.48524" lon="6.68694">
        <ele>341</ele>
        <time>2016-05-08T09:27:24.000Z</time>
      </trkpt>
      <trkpt lat="47.48523" lon="6.687">
        <ele>342</ele>
        <time>2016-05-08T09:27:27.000Z</time>
      </trkpt>
      <trkpt lat="47.48523" lon="6.68702">
        <ele>342</ele>
        <time>2016-05-08T09:27:28.000Z</time>
      </trkpt>
      <trkpt lat="47.48521" lon="6.68708">
        <ele>342</ele>
        <time>2016-05-08T09:27:34.000Z</time>
      </trkpt>
      <trkpt lat="47.48521" lon="6.68709">
        <ele>342</ele>
        <time>2016-05-08T09:27:35.000Z</time>
      </trkpt>
      <trkpt lat="47.48519" lon="6.68714">
        <ele>342</ele>
        <time>2016-05-08T09:27:39.000Z</time>
      </trkpt>
      <trkpt lat="47.48518" lon="6.68715">
        <ele>342</ele>
        <time>2016-05-08T09:27:40.000Z</time>
      </trkpt>
      <trkpt lat="47.48515" lon="6.68719">
        <ele>342</ele>
        <time>2016-05-08T09:27:43.000Z</time>
      </trkpt>
      <trkpt lat="47.48514" lon="6.6872">
        <ele>342</ele>
        <time>2016-05-08T09:27:44.000Z</time>
      </trkpt>
      <trkpt lat="47.48512" lon="6.68726">
        <ele>342</ele>
        <time>2016-05-08T09:27:48.000Z</time>
      </trkpt>
      <trkpt lat="47.48512" lon="6.68728">
        <ele>343</ele>
        <time>2016-05-08T09:27:49.000Z</time>
      </trkpt>
      <trkpt lat="47.4851" lon="6.68734">
        <ele>343</ele>
        <time>2016-05-08T09:27:52.000Z</time>
      </trkpt>
      <trkpt lat="47.48509" lon="6.68736">
        <ele>343</ele>
        <time>2016-05-08T09:27:53.000Z</time>
      </trkpt>
      <trkpt lat="47.48508" lon="6.68741">
        <ele>343</ele>
        <time>2016-05-08T09:27:56.000Z</time>
      </trkpt>
      <trkpt lat="47.48507" lon="6.68743">
        <ele>343</ele>
        <time>2016-05-08T09:27:57.000Z</time>
      </trkpt>
      <trkpt lat="47.48504" lon="6.68746">
        <ele>344</ele>
        <time>2016-05-08T09:27:59.000Z</time>
      </trkpt>
      <trkpt lat="47.48503" lon="6.68748">
        <ele>344</ele>
        <time>2016-05-08T09:28:00.000Z</time>
      </trkpt>
      <trkpt lat="47.485" lon="6.68751">
        <ele>344</ele>
        <time>2016-05-08T09:28:02.000Z</time>
      </trkpt>
      <trkpt lat="47.48499" lon="6.68752">
        <ele>344</ele>
        <time>2016-05-08T09:28:03.000Z</time>
      </trkpt>
      <trkpt lat="47.48495" lon="6.68755">
        <ele>345</ele>
        <time>2016-05-08T09:28:06.000Z</time>
      </trkpt>
      <trkpt lat="47.48494" lon="6.68756">
        <ele>345</ele>
        <time>2016-05-08T09:28:07.000Z</time>
      </trkpt>
      <trkpt lat="47.48491" lon="6.68758">
        <ele>345</ele>
        <time>2016-05-08T09:28:09.000Z</time>
      </trkpt>
      <trkpt lat="47.4849" lon="6.68759">
        <ele>345</ele>
        <time>2016-05-08T09:28:10.000Z</time>
      </trkpt>
      <trkpt lat="47.48486" lon="6.68762">
        <ele>346</ele>
        <time>2016-05-08T09:28:13.000Z</time>
      </trkpt>
      <trkpt lat="47.48485" lon="6.68763">
        <ele>346</ele>
        <time>2016-05-08T09:28:14.000Z</time>
      </trkpt>
      <trkpt lat="47.48483" lon="6.68766">
        <ele>346</ele>
        <time>2016-05-08T09:28:17.000Z</time>
      </trkpt>
      <trkpt lat="47.48481" lon="6.68767">
        <ele>346</ele>
        <time>2016-05-08T09:28:18.000Z</time>
      </trkpt>
      <trkpt lat="47.48479" lon="6.68771">
        <ele>346</ele>
        <time>2016-05-08T09:28:22.000Z</time>
      </trkpt>
      <trkpt lat="47.48478" lon="6.68772">
        <ele>346</ele>
        <time>2016-05-08T09:28:23.000Z</time>
      </trkpt>
      <trkpt lat="47.48476" lon="6.68776">
        <ele>346</ele>
        <time>2016-05-08T09:28:27.000Z</time>
      </trkpt>
      <trkpt lat="47.48475" lon="6.68777">
        <ele>346</ele>
        <time>2016-05-08T09:28:28.000Z</time>
      </trkpt>
      <trkpt lat="47.48474" lon="6.68782">
        <ele>347</ele>
        <time>2016-05-08T09:28:32.000Z</time>
      </trkpt>
      <trkpt lat="47.48473" lon="6.68784">
        <ele>347</ele>
        <time>2016-05-08T09:28:33.000Z</time>
      </trkpt>
      <trkpt lat="47.48471" lon="6.68788">
        <ele>347</ele>
        <time>2016-05-08T09:28:35.000Z</time>
      </trkpt>
      <trkpt lat="47.4847" lon="6.6879">
        <ele>347</ele>
        <time>2016-05-08T09:28:36.000Z</time>
      </trkpt>
      <trkpt lat="47.48468" lon="6.68794">
        <ele>347</ele>
        <time>2016-05-08T09:28:39.000Z</time>
      </trkpt>
      <trkpt lat="47.48468" lon="6.68796">
        <ele>347</ele>
        <time>2016-05-08T09:28:40.000Z</time>
      </trkpt>
      <trkpt lat="47.48465" lon="6.68801">
        <ele>347</ele>
        <time>2016-05-08T09:28:43.000Z</time>
      </trkpt>
      <trkpt lat="47.48464" lon="6.68803">
        <ele>347</ele>
        <time>2016-05-08T09:28:44.000Z</time>
      </trkpt>
      <trkpt lat="47.48461" lon="6.68807">
        <ele>347</ele>
        <time>2016-05-08T09:28:46.000Z</time>
      </trkpt>
      <trkpt lat="47.48461" lon="6.68809">
        <ele>347</ele>
        <time>2016-05-08T09:28:47.000Z</time>
      </trkpt>
      <trkpt lat="47.48461" lon="6.68814">
        <ele>348</ele>
        <time>2016-05-08T09:28:50.000Z</time>
      </trkpt>
      <trkpt lat="47.48462" lon="6.68816">
        <ele>348</ele>
        <time>2016-05-08T09:28:51.000Z</time>
      </trkpt>
      <trkpt lat="47.48462" lon="6.6882">
        <ele>348</ele>
        <time>2016-05-08T09:28:53.000Z</time>
      </trkpt>
      <trkpt lat="47.48463" lon="6.68822">
        <ele>348</ele>
        <time>2016-05-08T09:28:54.000Z</time>
      </trkpt>
      <trkpt lat="47.48464" lon="6.68827">
        <ele>348</ele>
        <time>2016-05-08T09:28:57.000Z</time>
      </trkpt>
      <trkpt lat="47.48463" lon="6.68829">
        <ele>348</ele>
        <time>2016-05-08T09:28:58.000Z</time>
      </trkpt>
      <trkpt lat="47.4846" lon="6.68833">
        <ele>350</ele>
        <time>2016-05-08T09:29:00.000Z</time>
      </trkpt>
      <trkpt lat="47.48459" lon="6.68836">
        <ele>350</ele>
        <time>2016-05-08T09:29:01.000Z</time>
      </trkpt>
      <trkpt lat="47.48456" lon="6.6884">
        <ele>350</ele>
        <time>2016-05-08T09:29:03.000Z</time>
      </trkpt>
      <trkpt lat="47.48455" lon="6.68842">
        <ele>350</ele>
        <time>2016-05-08T09:29:04.000Z</time>
      </trkpt>
      <trkpt lat="47.48452" lon="6.68847">
        <ele>350</ele>
        <time>2016-05-08T09:29:06.000Z</time>
      </trkpt>
      <trkpt lat="47.48451" lon="6.68849">
        <ele>350</ele>
        <time>2016-05-08T09:29:07.000Z</time>
      </trkpt>
      <trkpt lat="47.48449" lon="6.68855">
        <ele>350</ele>
        <time>2016-05-08T09:29:09.000Z</time>
      </trkpt>
      <trkpt lat="47.48447" lon="6.68858">
        <ele>350</ele>
        <time>2016-05-08T09:29:10.000Z</time>
      </trkpt>
      <trkpt lat="47.48445" lon="6.68863">
        <ele>350</ele>
        <time>2016-05-08T09:29:12.000Z</time>
      </trkpt>
      <trkpt lat="47.48444" lon="6.68866">
        <ele>350</ele>
        <time>2016-05-08T09:29:13.000Z</time>
      </trkpt>
      <trkpt lat="47.48444" lon="6.6887">
        <ele>351</ele>
        <time>2016-05-08T09:29:15.000Z</time>
      </trkpt>
      <trkpt lat="47.48445" lon="6.68872">
        <ele>351</ele>
        <time>2016-05-08T09:29:16.000Z</time>
      </trkpt>
      <trkpt lat="47.48447" lon="6.68876">
        <ele>351</ele>
        <time>2016-05-08T09:29:18.000Z</time>
      </trkpt>
      <trkpt lat="47.48449" lon="6.68878">
        <ele>351</ele>
        <time>2016-05-08T09:29:19.000Z</time>
      </trkpt>
      <trkpt lat="47.48452" lon="6.68882">
        <ele>351</ele>
        <time>2016-05-08T09:29:21.000Z</time>
      </trkpt>
      <trkpt lat="47.48454" lon="6.68884">
        <ele>351</ele>
        <time>2016-05-08T09:29:22.000Z</time>
      </trkpt>
      <trkpt lat="47.48457" lon="6.68886">
        <ele>351</ele>
        <time>2016-05-08T09:29:23.000Z</time>
      </trkpt>
      <trkpt lat="47.48459" lon="6.68888">
        <ele>351</ele>
        <time>2016-05-08T09:29:24.000Z</time>
      </trkpt>
      <trkpt lat="47.48461" lon="6.6889">
        <ele>351</ele>
        <time>2016-05-08T09:29:25.000Z</time>
      </trkpt>
      <trkpt lat="47.48463" lon="6.68892">
        <ele>351</ele>
        <time>2016-05-08T09:29:26.000Z</time>
      </trkpt>
      <trkpt lat="47.48466" lon="6.68894">
        <ele>351</ele>
        <time>2016-05-08T09:29:27.000Z</time>
      </trkpt>
      <trkpt lat="47.48468" lon="6.68896">
        <ele>351</ele>
        <time>2016-05-08T09:29:28.000Z</time>
      </trkpt>
      <trkpt lat="47.48471" lon="6.68899">
        <ele>351</ele>
        <time>2016-05-08T09:29:29.000Z</time>
      </trkpt>
      <trkpt lat="47.48473" lon="6.68903">
        <ele>351</ele>
        <time>2016-05-08T09:29:30.000Z</time>
      </trkpt>
      <trkpt lat="47.48475" lon="6.68907">
        <ele>351</ele>
        <time>2016-05-08T09:29:31.000Z</time>
      </trkpt>
      <trkpt lat="47.48478" lon="6.68911">
        <ele>351</ele>
        <time>2016-05-08T09:29:32.000Z</time>
      </trkpt>
      <trkpt lat="47.4848" lon="6.68914">
        <ele>351</ele>
        <time>2016-05-08T09:29:33.000Z</time>
      </trkpt>
      <trkpt lat="47.48483" lon="6.68918">
        <ele>353</ele>
        <time>2016-05-08T09:29:34.000Z</time>
      </trkpt>
      <trkpt lat="47.48485" lon="6.68922">
        <ele>353</ele>
        <time>2016-05-08T09:29:35.000Z</time>
      </trkpt>
      <trkpt lat="47.48487" lon="6.68925">
        <ele>353</ele>
        <time>2016-05-08T09:29:36.000Z</time>
      </trkpt>
      <trkpt lat="47.48489" lon="6.68929">
        <ele>353</ele>
        <time>2016-05-08T09:29:37.000Z</time>
      </trkpt>
      <trkpt lat="47.48491" lon="6.68932">
        <ele>353</ele>
        <time>2016-05-08T09:29:38.000Z</time>
      </trkpt>
      <trkpt lat="47.48493" lon="6.68935">
        <ele>354</ele>
        <time>2016-05-08T09:29:39.000Z</time>
      </trkpt>
      <trkpt lat="47.48495" lon="6.68938">
        <ele>354</ele>
        <time>2016-05-08T09:29:40.000Z</time>
      </trkpt>
      <trkpt lat="47.48497" lon="6.68941">
        <ele>354</ele>
        <time>2016-05-08T09:29:41.000Z</time>
      </trkpt>
      <trkpt lat="47.485" lon="6.68943">
        <ele>354</ele>
        <time>2016-05-08T09:29:42.000Z</time>
      </trkpt>
      <trkpt lat="47.48502" lon="6.68945">
        <ele>353</ele>
        <time>2016-05-08T09:29:43.000Z</time>
      </trkpt>
      <trkpt lat="47.48505" lon="6.68948">
        <ele>353</ele>
        <time>2016-05-08T09:29:44.000Z</time>
      </trkpt>
      <trkpt lat="47.48507" lon="6.68951">
        <ele>353</ele>
        <time>2016-05-08T09:29:45.000Z</time>
      </trkpt>
      <trkpt lat="47.48509" lon="6.68955">
        <ele>353</ele>
        <time>2016-05-08T09:29:46.000Z</time>
      </trkpt>
      <trkpt lat="47.48512" lon="6.68958">
        <ele>354</ele>
        <time>2016-05-08T09:29:47.000Z</time>
      </trkpt>
      <trkpt lat="47.48514" lon="6.68962">
        <ele>354</ele>
        <time>2016-05-08T09:29:48.000Z</time>
      </trkpt>
      <trkpt lat="47.48516" lon="6.68967">
        <ele>354</ele>
        <time>2016-05-08T09:29:49.000Z</time>
      </trkpt>
      <trkpt lat="47.48519" lon="6.68971">
        <ele>354</ele>
        <time>2016-05-08T09:29:50.000Z</time>
      </trkpt>
      <trkpt lat="47.48522" lon="6.68975">
        <ele>354</ele>
        <time>2016-05-08T09:29:51.000Z</time>
      </trkpt>
      <trkpt lat="47.48524" lon="6.68979">
        <ele>354</ele>
        <time>2016-05-08T09:29:52.000Z</time>
      </trkpt>
      <trkpt lat="47.48527" lon="6.68982">
        <ele>354</ele>
        <time>2016-05-08T09:29:53.000Z</time>
      </trkpt>
      <trkpt lat="47.48529" lon="6.68985">
        <ele>354</ele>
        <time>2016-05-08T09:29:54.000Z</time>
      </trkpt>
      <trkpt lat="47.48532" lon="6.68988">
        <ele>354</ele>
        <time>2016-05-08T09:29:55.000Z</time>
      </trkpt>
      <trkpt lat="47.48534" lon="6.68992">
        <ele>354</ele>
        <time>2016-05-08T09:29:56.000Z</time>
      </trkpt>
      <trkpt lat="47.48536" lon="6.68996">
        <ele>354</ele>
        <time>2016-05-08T09:29:57.000Z</time>
      </trkpt>
      <trkpt lat="47.48538" lon="6.69">
        <ele>357</ele>
        <time>2016-05-08T09:29:58.000Z</time>
      </trkpt>
      <trkpt lat="47.4854" lon="6.69004">
        <ele>357</ele>
        <time>2016-05-08T09:29:59.000Z</time>
      </trkpt>
      <trkpt lat="47.48542" lon="6.69007">
        <ele>357</ele>
        <time>2016-05-08T09:30:00.000Z</time>
      </trkpt>
      <trkpt lat="47.48545" lon="6.69011">
        <ele>357</ele>
        <time>2016-05-08T09:30:02.000Z</time>
      </trkpt>
      <trkpt lat="47.48546" lon="6.69013">
        <ele>357</ele>
        <time>2016-05-08T09:30:03.000Z</time>
      </trkpt>
      <trkpt lat="47.48549" lon="6.69017">
        <ele>356</ele>
        <time>2016-05-08T09:30:05.000Z</time>
      </trkpt>
      <trkpt lat="47.48551" lon="6.69019">
        <ele>356</ele>
        <time>2016-05-08T09:30:06.000Z</time>
      </trkpt>
      <trkpt lat="47.48554" lon="6.69023">
        <ele>356</ele>
        <time>2016-05-08T09:30:08.000Z</time>
      </trkpt>
      <trkpt lat="47.48555" lon="6.69025">
        <ele>356</ele>
        <time>2016-05-08T09:30:09.000Z</time>
      </trkpt>
      <trkpt lat="47.48557" lon="6.69028">
        <ele>356</ele>
        <time>2016-05-08T09:30:10.000Z</time>
      </trkpt>
      <trkpt lat="47.48559" lon="6.6903">
        <ele>356</ele>
        <time>2016-05-08T09:30:11.000Z</time>
      </trkpt>
      <trkpt lat="47.48562" lon="6.69033">
        <ele>356</ele>
        <time>2016-05-08T09:30:13.000Z</time>
      </trkpt>
      <trkpt lat="47.48564" lon="6.69033">
        <ele>356</ele>
        <time>2016-05-08T09:30:14.000Z</time>
      </trkpt>
      <trkpt lat="47.48567" lon="6.69034">
        <ele>356</ele>
        <time>2016-05-08T09:30:17.000Z</time>
      </trkpt>
      <trkpt lat="47.48568" lon="6.69034">
        <ele>356</ele>
        <time>2016-05-08T09:30:18.000Z</time>
      </trkpt>
      <trkpt lat="47.48572" lon="6.69038">
        <ele>356</ele>
        <time>2016-05-08T09:30:21.000Z</time>
      </trkpt>
      <trkpt lat="47.48573" lon="6.69039">
        <ele>356</ele>
        <time>2016-05-08T09:30:22.000Z</time>
      </trkpt>
      <trkpt lat="47.48576" lon="6.69038">
        <ele>356</ele>
        <time>2016-05-08T09:30:24.000Z</time>
      </trkpt>
      <trkpt lat="47.48578" lon="6.69036">
        <ele>356</ele>
        <time>2016-05-08T09:30:25.000Z</time>
      </trkpt>
      <trkpt lat="47.48581" lon="6.69036">
        <ele>356</ele>
        <time>2016-05-08T09:30:26.000Z</time>
      </trkpt>
      <trkpt lat="47.48585" lon="6.69037">
        <ele>350</ele>
        <time>2016-05-08T09:30:27.000Z</time>
      </trkpt>
      <trkpt lat="47.48589" lon="6.69039">
        <ele>350</ele>
        <time>2016-05-08T09:30:28.000Z</time>
      </trkpt>
      <trkpt lat="47.48592" lon="6.69042">
        <ele>350</ele>
        <time>2016-05-08T09:30:29.000Z</time>
      </trkpt>
      <trkpt lat="47.48595" lon="6.69046">
        <ele>350</ele>
        <time>2016-05-08T09:30:30.000Z</time>
      </trkpt>
      <trkpt lat="47.48598" lon="6.6905">
        <ele>350</ele>
        <time>2016-05-08T09:30:31.000Z</time>
      </trkpt>
      <trkpt lat="47.486" lon="6.69054">
        <ele>350</ele>
        <time>2016-05-08T09:30:32.000Z</time>
      </trkpt>
      <trkpt lat="47.48603" lon="6.69058">
        <ele>350</ele>
        <time>2016-05-08T09:30:33.000Z</time>
      </trkpt>
      <trkpt lat="47.48605" lon="6.69061">
        <ele>350</ele>
        <time>2016-05-08T09:30:34.000Z</time>
      </trkpt>
      <trkpt lat="47.48606" lon="6.69063">
        <ele>350</ele>
        <time>2016-05-08T09:30:35.000Z</time>
      </trkpt>
      <trkpt lat="47.48609" lon="6.69066">
        <ele>350</ele>
        <time>2016-05-08T09:30:37.000Z</time>
      </trkpt>
      <trkpt lat="47.48611" lon="6.69067">
        <ele>349</ele>
        <time>2016-05-08T09:30:38.000Z</time>
      </trkpt>
      <trkpt lat="47.48614" lon="6.69068">
        <ele>349</ele>
        <time>2016-05-08T09:30:40.000Z</time>
      </trkpt>
      <trkpt lat="47.48616" lon="6.69068">
        <ele>349</ele>
        <time>2016-05-08T09:30:41.000Z</time>
      </trkpt>
      <trkpt lat="47.48618" lon="6.69071">
        <ele>349</ele>
        <time>2016-05-08T09:30:43.000Z</time>
      </trkpt>
      <trkpt lat="47.48619" lon="6.69073">
        <ele>349</ele>
        <time>2016-05-08T09:30:44.000Z</time>
      </trkpt>
      <trkpt lat="47.48622" lon="6.69077">
        <ele>349</ele>
        <time>2016-05-08T09:30:46.000Z</time>
      </trkpt>
      <trkpt lat="47.48623" lon="6.69079">
        <ele>349</ele>
        <time>2016-05-08T09:30:47.000Z</time>
      </trkpt>
      <trkpt lat="47.48625" lon="6.69082">
        <ele>349</ele>
        <time>2016-05-08T09:30:49.000Z</time>
      </trkpt>
      <trkpt lat="47.48626" lon="6.69083">
        <ele>349</ele>
        <time>2016-05-08T09:30:50.000Z</time>
      </trkpt>
      <trkpt lat="47.4863" lon="6.69087">
        <ele>351</ele>
        <time>2016-05-08T09:30:53.000Z</time>
      </trkpt>
      <trkpt lat="47.48631" lon="6.69089">
        <ele>351</ele>
        <time>2016-05-08T09:30:54.000Z</time>
      </trkpt>
      <trkpt lat="47.48633" lon="6.69092">
        <ele>351</ele>
        <time>2016-05-08T09:30:56.000Z</time>
      </trkpt>
      <trkpt lat="47.48634" lon="6.69093">
        <ele>351</ele>
        <time>2016-05-08T09:30:57.000Z</time>
      </trkpt>
      <trkpt lat="47.48637" lon="6.69097">
        <ele>351</ele>
        <time>2016-05-08T09:30:59.000Z</time>
      </trkpt>
      <trkpt lat="47.48638" lon="6.691">
        <ele>351</ele>
        <time>2016-05-08T09:31:00.000Z</time>
      </trkpt>
      <trkpt lat="47.48639" lon="6.69103">
        <ele>351</ele>
        <time>2016-05-08T09:31:01.000Z</time>
      </trkpt>
      <trkpt lat="47.48641" lon="6.69107">
        <ele>351</ele>
        <time>2016-05-08T09:31:02.000Z</time>
      </trkpt>
      <trkpt lat="47.48642" lon="6.6911">
        <ele>351</ele>
        <time>2016-05-08T09:31:03.000Z</time>
      </trkpt>
      <trkpt lat="47.48643" lon="6.69113">
        <ele>351</ele>
        <time>2016-05-08T09:31:04.000Z</time>
      </trkpt>
      <trkpt lat="47.48644" lon="6.69118">
        <ele>352</ele>
        <time>2016-05-08T09:31:06.000Z</time>
      </trkpt>
      <trkpt lat="47.48646" lon="6.6912">
        <ele>352</ele>
        <time>2016-05-08T09:31:07.000Z</time>
      </trkpt>
      <trkpt lat="47.48648" lon="6.69122">
        <ele>352</ele>
        <time>2016-05-08T09:31:08.000Z</time>
      </trkpt>
      <trkpt lat="47.4865" lon="6.69123">
        <ele>352</ele>
        <time>2016-05-08T09:31:09.000Z</time>
      </trkpt>
      <trkpt lat="47.48652" lon="6.69125">
        <ele>352</ele>
        <time>2016-05-08T09:31:10.000Z</time>
      </trkpt>
      <trkpt lat="47.48654" lon="6.69127">
        <ele>352</ele>
        <time>2016-05-08T09:31:11.000Z</time>
      </trkpt>
      <trkpt lat="47.48656" lon="6.69129">
        <ele>352</ele>
        <time>2016-05-08T09:31:12.000Z</time>
      </trkpt>
      <trkpt lat="47.48658" lon="6.69131">
        <ele>352</ele>
        <time>2016-05-08T09:31:13.000Z</time>
      </trkpt>
      <trkpt lat="47.48661" lon="6.69135">
        <ele>352</ele>
        <time>2016-05-08T09:31:15.000Z</time>
      </trkpt>
      <trkpt lat="47.48663" lon="6.69136">
        <ele>352</ele>
        <time>2016-05-08T09:31:16.000Z</time>
      </trkpt>
      <trkpt lat="47.48666" lon="6.69139">
        <ele>352</ele>
        <time>2016-05-08T09:31:19.000Z</time>
      </trkpt>
      <trkpt lat="47.48667" lon="6.6914">
        <ele>350</ele>
        <time>2016-05-08T09:31:20.000Z</time>
      </trkpt>
      <trkpt lat="47.4867" lon="6.69142">
        <ele>350</ele>
        <time>2016-05-08T09:31:22.000Z</time>
      </trkpt>
      <trkpt lat="47.48672" lon="6.69143">
        <ele>350</ele>
        <time>2016-05-08T09:31:23.000Z</time>
      </trkpt>
      <trkpt lat="47.48676" lon="6.69147">
        <ele>350</ele>
        <time>2016-05-08T09:31:25.000Z</time>
      </trkpt>
      <trkpt lat="47.48678" lon="6.69148">
        <ele>350</ele>
        <time>2016-05-08T09:31:26.000Z</time>
      </trkpt>
      <trkpt lat="47.4868" lon="6.6915">
        <ele>350</ele>
        <time>2016-05-08T09:31:27.000Z</time>
      </trkpt>
      <trkpt lat="47.48682" lon="6.69151">
        <ele>350</ele>
        <time>2016-05-08T09:31:28.000Z</time>
      </trkpt>
      <trkpt lat="47.48684" lon="6.69153">
        <ele>350</ele>
        <time>2016-05-08T09:31:29.000Z</time>
      </trkpt>
      <trkpt lat="47.48687" lon="6.69156">
        <ele>350</ele>
        <time>2016-05-08T09:31:30.000Z</time>
      </trkpt>
      <trkpt lat="47.48689" lon="6.69159">
        <ele>350</ele>
        <time>2016-05-08T09:31:31.000Z</time>
      </trkpt>
      <trkpt lat="47.48691" lon="6.69162">
        <ele>350</ele>
        <time>2016-05-08T09:31:32.000Z</time>
      </trkpt>
      <trkpt lat="47.48692" lon="6.69166">
        <ele>350</ele>
        <time>2016-05-08T09:31:33.000Z</time>
      </trkpt>
      <trkpt lat="47.48694" lon="6.6917">
        <ele>354</ele>
        <time>2016-05-08T09:31:34.000Z</time>
      </trkpt>
      <trkpt lat="47.48696" lon="6.69174">
        <ele>354</ele>
        <time>2016-05-08T09:31:35.000Z</time>
      </trkpt>
      <trkpt lat="47.48697" lon="6.69179">
        <ele>355</ele>
        <time>2016-05-08T09:31:36.000Z</time>
      </trkpt>
      <trkpt lat="47.48698" lon="6.69183">
        <ele>355</ele>
        <time>2016-05-08T09:31:37.000Z</time>
      </trkpt>
      <trkpt lat="47.48699" lon="6.69187">
        <ele>355</ele>
        <time>2016-05-08T09:31:38.000Z</time>
      </trkpt>
      <trkpt lat="47.48701" lon="6.69191">
        <ele>355</ele>
        <time>2016-05-08T09:31:39.000Z</time>
      </trkpt>
      <trkpt lat="47.48703" lon="6.69194">
        <ele>355</ele>
        <time>2016-05-08T09:31:40.000Z</time>
      </trkpt>
      <trkpt lat="47.48705" lon="6.69197">
        <ele>355</ele>
        <time>2016-05-08T09:31:41.000Z</time>
      </trkpt>
      <trkpt lat="47.48708" lon="6.692">
        <ele>355</ele>
        <time>2016-05-08T09:31:42.000Z</time>
      </trkpt>
      <trkpt lat="47.48711" lon="6.69203">
        <ele>355</ele>
        <time>2016-05-08T09:31:43.000Z</time>
      </trkpt>
      <trkpt lat="47.48713" lon="6.69205">
        <ele>355</ele>
        <time>2016-05-08T09:31:44.000Z</time>
      </trkpt>
      <trkpt lat="47.48715" lon="6.69206">
        <ele>355</ele>
        <time>2016-05-08T09:31:45.000Z</time>
      </trkpt>
      <trkpt lat="47.48718" lon="6.69207">
        <ele>355</ele>
        <time>2016-05-08T09:31:46.000Z</time>
      </trkpt>
      <trkpt lat="47.48721" lon="6.69208">
        <ele>355</ele>
        <time>2016-05-08T09:31:47.000Z</time>
      </trkpt>
      <trkpt lat="47.48724" lon="6.69209">
        <ele>355</ele>
        <time>2016-05-08T09:31:48.000Z</time>
      </trkpt>
      <trkpt lat="47.48727" lon="6.6921">
        <ele>355</ele>
        <time>2016-05-08T09:31:49.000Z</time>
      </trkpt>
      <trkpt lat="47.48731" lon="6.69211">
        <ele>355</ele>
        <time>2016-05-08T09:31:50.000Z</time>
      </trkpt>
      <trkpt lat="47.48735" lon="6.69212">
        <ele>355</ele>
        <time>2016-05-08T09:31:51.000Z</time>
      </trkpt>
      <trkpt lat="47.48739" lon="6.69214">
        <ele>355</ele>
        <time>2016-05-08T09:31:52.000Z</time>
      </trkpt>
      <trkpt lat="47.48743" lon="6.69216">
        <ele>355</ele>
        <time>2016-05-08T09:31:53.000Z</time>
      </trkpt>
      <trkpt lat="47.48746" lon="6.69218">
        <ele>355</ele>
        <time>2016-05-08T09:31:54.000Z</time>
      </trkpt>
      <trkpt lat="47.48749" lon="6.6922">
        <ele>355</ele>
        <time>2016-05-08T09:31:55.000Z</time>
      </trkpt>
      <trkpt lat="47.48752" lon="6.69223">
        <ele>352</ele>
        <time>2016-05-08T09:31:56.000Z</time>
      </trkpt>
      <trkpt lat="47.48755" lon="6.69224">
        <ele>353</ele>
        <time>2016-05-08T09:31:57.000Z</time>
      </trkpt>
      <trkpt lat="47.48758" lon="6.69226">
        <ele>353</ele>
        <time>2016-05-08T09:31:58.000Z</time>
      </trkpt>
      <trkpt lat="47.48761" lon="6.69227">
        <ele>353</ele>
        <time>2016-05-08T09:31:59.000Z</time>
      </trkpt>
      <trkpt lat="47.48764" lon="6.69229">
        <ele>353</ele>
        <time>2016-05-08T09:32:00.000Z</time>
      </trkpt>
      <trkpt lat="47.48767" lon="6.6923">
        <ele>352</ele>
        <time>2016-05-08T09:32:01.000Z</time>
      </trkpt>
      <trkpt lat="47.48771" lon="6.69232">
        <ele>352</ele>
        <time>2016-05-08T09:32:02.000Z</time>
      </trkpt>
      <trkpt lat="47.48775" lon="6.69233">
        <ele>352</ele>
        <time>2016-05-08T09:32:03.000Z</time>
      </trkpt>
      <trkpt lat="47.4878" lon="6.69235">
        <ele>352</ele>
        <time>2016-05-08T09:32:04.000Z</time>
      </trkpt>
      <trkpt lat="47.48784" lon="6.69236">
        <ele>352</ele>
        <time>2016-05-08T09:32:05.000Z</time>
      </trkpt>
      <trkpt lat="47.48788" lon="6.69238">
        <ele>351</ele>
        <time>2016-05-08T09:32:06.000Z</time>
      </trkpt>
      <trkpt lat="47.48792" lon="6.69239">
        <ele>351</ele>
        <time>2016-05-08T09:32:07.000Z</time>
      </trkpt>
      <trkpt lat="47.48796" lon="6.69239">
        <ele>351</ele>
        <time>2016-05-08T09:32:08.000Z</time>
      </trkpt>
      <trkpt lat="47.48804" lon="6.69231">
        <ele>351</ele>
        <time>2016-05-08T09:32:09.000Z</time>
      </trkpt>
      <trkpt lat="47.48811" lon="6.69228">
        <ele>350</ele>
        <time>2016-05-08T09:32:10.000Z</time>
      </trkpt>
      <trkpt lat="47.48815" lon="6.69234">
        <ele>350</ele>
        <time>2016-05-08T09:32:11.000Z</time>
      </trkpt>
      <trkpt lat="47.48819" lon="6.69237">
        <ele>350</ele>
        <time>2016-05-08T09:32:12.000Z</time>
      </trkpt>
      <trkpt lat="47.48823" lon="6.69238">
        <ele>350</ele>
        <time>2016-05-08T09:32:13.000Z</time>
      </trkpt>
      <trkpt lat="47.48827" lon="6.69242">
        <ele>351</ele>
        <time>2016-05-08T09:32:14.000Z</time>
      </trkpt>
      <trkpt lat="47.48834" lon="6.69244">
        <ele>350</ele>
        <time>2016-05-08T09:32:15.000Z</time>
      </trkpt>
      <trkpt lat="47.48838" lon="6.69249">
        <ele>350</ele>
        <time>2016-05-08T09:32:16.000Z</time>
      </trkpt>
      <trkpt lat="47.48844" lon="6.69249">
        <ele>349</ele>
        <time>2016-05-08T09:32:17.000Z</time>
      </trkpt>
      <trkpt lat="47.48848" lon="6.69252">
        <ele>352</ele>
        <time>2016-05-08T09:32:18.000Z</time>
      </trkpt>
      <trkpt lat="47.48852" lon="6.69258">
        <ele>352</ele>
        <time>2016-05-08T09:32:19.000Z</time>
      </trkpt>
      <trkpt lat="47.48856" lon="6.69262">
        <ele>352</ele>
        <time>2016-05-08T09:32:20.000Z</time>
      </trkpt>
      <trkpt lat="47.48859" lon="6.69265">
        <ele>352</ele>
        <time>2016-05-08T09:32:21.000Z</time>
      </trkpt>
      <trkpt lat="47.48863" lon="6.69267">
        <ele>352</ele>
        <time>2016-05-08T09:32:22.000Z</time>
      </trkpt>
      <trkpt lat="47.48869" lon="6.6927">
        <ele>352</ele>
        <time>2016-05-08T09:32:23.000Z</time>
      </trkpt>
      <trkpt lat="47.48873" lon="6.69272">
        <ele>352</ele>
        <time>2016-05-08T09:32:24.000Z</time>
      </trkpt>
      <trkpt lat="47.48875" lon="6.69274">
        <ele>352</ele>
        <time>2016-05-08T09:32:25.000Z</time>
      </trkpt>
      <trkpt lat="47.4888" lon="6.69275">
        <ele>352</ele>
        <time>2016-05-08T09:32:26.000Z</time>
      </trkpt>
      <trkpt lat="47.48883" lon="6.69277">
        <ele>352</ele>
        <time>2016-05-08T09:32:27.000Z</time>
      </trkpt>
      <trkpt lat="47.48886" lon="6.69281">
        <ele>352</ele>
        <time>2016-05-08T09:32:28.000Z</time>
      </trkpt>
      <trkpt lat="47.48889" lon="6.69283">
        <ele>352</ele>
        <time>2016-05-08T09:32:29.000Z</time>
      </trkpt>
      <trkpt lat="47.48892" lon="6.69285">
        <ele>352</ele>
        <time>2016-05-08T09:32:30.000Z</time>
      </trkpt>
      <trkpt lat="47.48895" lon="6.69286">
        <ele>352</ele>
        <time>2016-05-08T09:32:31.000Z</time>
      </trkpt>
      <trkpt lat="47.48899" lon="6.69286">
        <ele>352</ele>
        <time>2016-05-08T09:32:32.000Z</time>
      </trkpt>
      <trkpt lat="47.48902" lon="6.69287">
        <ele>352</ele>
        <time>2016-05-08T09:32:33.000Z</time>
      </trkpt>
      <trkpt lat="47.48906" lon="6.69288">
        <ele>352</ele>
        <time>2016-05-08T09:32:34.000Z</time>
      </trkpt>
      <trkpt lat="47.48909" lon="6.69288">
        <ele>352</ele>
        <time>2016-05-08T09:32:35.000Z</time>
      </trkpt>
      <trkpt lat="47.48912" lon="6.69288">
        <ele>352</ele>
        <time>2016-05-08T09:32:36.000Z</time>
      </trkpt>
      <trkpt lat="47.48915" lon="6.69287">
        <ele>352</ele>
        <time>2016-05-08T09:32:37.000Z</time>
      </trkpt>
      <trkpt lat="47.48918" lon="6.69287">
        <ele>350</ele>
        <time>2016-05-08T09:32:38.000Z</time>
      </trkpt>
      <trkpt lat="47.48921" lon="6.69287">
        <ele>350</ele>
        <time>2016-05-08T09:32:39.000Z</time>
      </trkpt>
      <trkpt lat="47.48924" lon="6.69286">
        <ele>350</ele>
        <time>2016-05-08T09:32:40.000Z</time>
      </trkpt>
      <trkpt lat="47.48928" lon="6.69285">
        <ele>350</ele>
        <time>2016-05-08T09:32:41.000Z</time>
      </trkpt>
      <trkpt lat="47.48933" lon="6.69285">
        <ele>350</ele>
        <time>2016-05-08T09:32:42.000Z</time>
      </trkpt>
      <trkpt lat="47.48945" lon="6.69281">
        <ele>350</ele>
        <time>2016-05-08T09:32:43.000Z</time>
      </trkpt>
      <trkpt lat="47.48952" lon="6.69279">
        <ele>350</ele>
        <time>2016-05-08T09:32:44.000Z</time>
      </trkpt>
      <trkpt lat="47.48959" lon="6.69277">
        <ele>350</ele>
        <time>2016-05-08T09:32:45.000Z</time>
      </trkpt>
      <trkpt lat="47.48966" lon="6.69275">
        <ele>350</ele>
        <time>2016-05-08T09:32:46.000Z</time>
      </trkpt>
      <trkpt lat="47.48972" lon="6.69273">
        <ele>350</ele>
        <time>2016-05-08T09:32:47.000Z</time>
      </trkpt>
      <trkpt lat="47.48978" lon="6.69274">
        <ele>350</ele>
        <time>2016-05-08T09:32:48.000Z</time>
      </trkpt>
      <trkpt lat="47.48983" lon="6.69275">
        <ele>350</ele>
        <time>2016-05-08T09:32:49.000Z</time>
      </trkpt>
      <trkpt lat="47.48988" lon="6.69276">
        <ele>350</ele>
        <time>2016-05-08T09:32:50.000Z</time>
      </trkpt>
      <trkpt lat="47.48992" lon="6.69276">
        <ele>350</ele>
        <time>2016-05-08T09:32:51.000Z</time>
      </trkpt>
      <trkpt lat="47.48997" lon="6.69276">
        <ele>350</ele>
        <time>2016-05-08T09:32:52.000Z</time>
      </trkpt>
      <trkpt lat="47.49002" lon="6.69277">
        <ele>350</ele>
        <time>2016-05-08T09:32:53.000Z</time>
      </trkpt>
      <trkpt lat="47.49005" lon="6.69279">
        <ele>351</ele>
        <time>2016-05-08T09:32:54.000Z</time>
      </trkpt>
      <trkpt lat="47.49007" lon="6.69282">
        <ele>351</ele>
        <time>2016-05-08T09:32:55.000Z</time>
      </trkpt>
      <trkpt lat="47.49008" lon="6.69286">
        <ele>351</ele>
        <time>2016-05-08T09:32:56.000Z</time>
      </trkpt>
      <trkpt lat="47.49008" lon="6.69291">
        <ele>351</ele>
        <time>2016-05-08T09:32:57.000Z</time>
      </trkpt>
      <trkpt lat="47.49007" lon="6.69295">
        <ele>351</ele>
        <time>2016-05-08T09:32:58.000Z</time>
      </trkpt>
      <trkpt lat="47.49006" lon="6.69299">
        <ele>351</ele>
        <time>2016-05-08T09:32:59.000Z</time>
      </trkpt>
      <trkpt lat="47.49003" lon="6.69303">
        <ele>351</ele>
        <time>2016-05-08T09:33:01.000Z</time>
      </trkpt>
      <trkpt lat="47.49002" lon="6.69305">
        <ele>352</ele>
        <time>2016-05-08T09:33:02.000Z</time>
      </trkpt>
      <trkpt lat="47.49" lon="6.69307">
        <ele>351</ele>
        <time>2016-05-08T09:33:03.000Z</time>
      </trkpt>
      <trkpt lat="47.48998" lon="6.69309">
        <ele>352</ele>
        <time>2016-05-08T09:33:04.000Z</time>
      </trkpt>
      <trkpt lat="47.48996" lon="6.69311">
        <ele>352</ele>
        <time>2016-05-08T09:33:05.000Z</time>
      </trkpt>
      <trkpt lat="47.48994" lon="6.69314">
        <ele>352</ele>
        <time>2016-05-08T09:33:06.000Z</time>
      </trkpt>
      <trkpt lat="47.48993" lon="6.69317">
        <ele>352</ele>
        <time>2016-05-08T09:33:07.000Z</time>
      </trkpt>
      <trkpt lat="47.48992" lon="6.6932">
        <ele>352</ele>
        <time>2016-05-08T09:33:08.000Z</time>
      </trkpt>
      <trkpt lat="47.48991" lon="6.69324">
        <ele>352</ele>
        <time>2016-05-08T09:33:09.000Z</time>
      </trkpt>
      <trkpt lat="47.48991" lon="6.69327">
        <ele>352</ele>
        <time>2016-05-08T09:33:10.000Z</time>
      </trkpt>
      <trkpt lat="47.48991" lon="6.69331">
        <ele>352</ele>
        <time>2016-05-08T09:33:11.000Z</time>
      </trkpt>
      <trkpt lat="47.48992" lon="6.69335">
        <ele>354</ele>
        <time>2016-05-08T09:33:12.000Z</time>
      </trkpt>
      <trkpt lat="47.48993" lon="6.69338">
        <ele>354</ele>
        <time>2016-05-08T09:33:13.000Z</time>
      </trkpt>
      <trkpt lat="47.48994" lon="6.69342">
        <ele>354</ele>
        <time>2016-05-08T09:33:14.000Z</time>
      </trkpt>
      <trkpt lat="47.48995" lon="6.69346">
        <ele>354</ele>
        <time>2016-05-08T09:33:15.000Z</time>
      </trkpt>
      <trkpt lat="47.48997" lon="6.6935">
        <ele>355</ele>
        <time>2016-05-08T09:33:16.000Z</time>
      </trkpt>
      <trkpt lat="47.48998" lon="6.69354">
        <ele>355</ele>
        <time>2016-05-08T09:33:17.000Z</time>
      </trkpt>
      <trkpt lat="47.49" lon="6.69357">
        <ele>354</ele>
        <time>2016-05-08T09:33:18.000Z</time>
      </trkpt>
      <trkpt lat="47.49002" lon="6.69361">
        <ele>355</ele>
        <time>2016-05-08T09:33:19.000Z</time>
      </trkpt>
      <trkpt lat="47.49004" lon="6.69364">
        <ele>355</ele>
        <time>2016-05-08T09:33:20.000Z</time>
      </trkpt>
      <trkpt lat="47.49007" lon="6.69366">
        <ele>355</ele>
        <time>2016-05-08T09:33:21.000Z</time>
      </trkpt>
      <trkpt lat="47.4901" lon="6.69369">
        <ele>355</ele>
        <time>2016-05-08T09:33:22.000Z</time>
      </trkpt>
      <trkpt lat="47.49013" lon="6.69371">
        <ele>355</ele>
        <time>2016-05-08T09:33:23.000Z</time>
      </trkpt>
      <trkpt lat="47.49016" lon="6.69374">
        <ele>355</ele>
        <time>2016-05-08T09:33:24.000Z</time>
      </trkpt>
      <trkpt lat="47.49018" lon="6.69377">
        <ele>355</ele>
        <time>2016-05-08T09:33:25.000Z</time>
      </trkpt>
      <trkpt lat="47.49021" lon="6.69381">
        <ele>355</ele>
        <time>2016-05-08T09:33:26.000Z</time>
      </trkpt>
      <trkpt lat="47.49024" lon="6.69384">
        <ele>355</ele>
        <time>2016-05-08T09:33:27.000Z</time>
      </trkpt>
      <trkpt lat="47.49026" lon="6.69388">
        <ele>356</ele>
        <time>2016-05-08T09:33:28.000Z</time>
      </trkpt>
      <trkpt lat="47.49029" lon="6.69392">
        <ele>356</ele>
        <time>2016-05-08T09:33:29.000Z</time>
      </trkpt>
      <trkpt lat="47.49031" lon="6.69395">
        <ele>356</ele>
        <time>2016-05-08T09:33:30.000Z</time>
      </trkpt>
      <trkpt lat="47.49033" lon="6.69399">
        <ele>356</ele>
        <time>2016-05-08T09:33:31.000Z</time>
      </trkpt>
      <trkpt lat="47.49036" lon="6.69402">
        <ele>356</ele>
        <time>2016-05-08T09:33:32.000Z</time>
      </trkpt>
      <trkpt lat="47.49038" lon="6.69406">
        <ele>356</ele>
        <time>2016-05-08T09:33:33.000Z</time>
      </trkpt>
      <trkpt lat="47.4904" lon="6.69409">
        <ele>356</ele>
        <time>2016-05-08T09:33:34.000Z</time>
      </trkpt>
      <trkpt lat="47.49042" lon="6.69413">
        <ele>356</ele>
        <time>2016-05-08T09:33:35.000Z</time>
      </trkpt>
      <trkpt lat="47.49044" lon="6.69416">
        <ele>356</ele>
        <time>2016-05-08T09:33:36.000Z</time>
      </trkpt>
      <trkpt lat="47.49046" lon="6.6942">
        <ele>359</ele>
        <time>2016-05-08T09:33:37.000Z</time>
      </trkpt>
      <trkpt lat="47.49048" lon="6.69423">
        <ele>359</ele>
        <time>2016-05-08T09:33:38.000Z</time>
      </trkpt>
      <trkpt lat="47.4905" lon="6.69427">
        <ele>359</ele>
        <time>2016-05-08T09:33:39.000Z</time>
      </trkpt>
      <trkpt lat="47.49052" lon="6.69429">
        <ele>359</ele>
        <time>2016-05-08T09:33:40.000Z</time>
      </trkpt>
      <trkpt lat="47.49054" lon="6.69431">
        <ele>359</ele>
        <time>2016-05-08T09:33:41.000Z</time>
      </trkpt>
      <trkpt lat="47.49056" lon="6.69433">
        <ele>359</ele>
        <time>2016-05-08T09:33:42.000Z</time>
      </trkpt>
      <trkpt lat="47.49059" lon="6.69436">
        <ele>359</ele>
        <time>2016-05-08T09:33:44.000Z</time>
      </trkpt>
      <trkpt lat="47.49061" lon="6.69437">
        <ele>359</ele>
        <time>2016-05-08T09:33:45.000Z</time>
      </trkpt>
      <trkpt lat="47.49064" lon="6.69441">
        <ele>359</ele>
        <time>2016-05-08T09:33:48.000Z</time>
      </trkpt>
      <trkpt lat="47.49065" lon="6.69443">
        <ele>359</ele>
        <time>2016-05-08T09:33:49.000Z</time>
      </trkpt>
      <trkpt lat="47.49069" lon="6.69447">
        <ele>359</ele>
        <time>2016-05-08T09:33:51.000Z</time>
      </trkpt>
      <trkpt lat="47.49071" lon="6.69448">
        <ele>359</ele>
        <time>2016-05-08T09:33:52.000Z</time>
      </trkpt>
      <trkpt lat="47.49072" lon="6.6945">
        <ele>359</ele>
        <time>2016-05-08T09:33:53.000Z</time>
      </trkpt>
      <trkpt lat="47.49074" lon="6.69452">
        <ele>359</ele>
        <time>2016-05-08T09:33:54.000Z</time>
      </trkpt>
      <trkpt lat="47.49076" lon="6.69454">
        <ele>359</ele>
        <time>2016-05-08T09:33:55.000Z</time>
      </trkpt>
      <trkpt lat="47.49078" lon="6.69456">
        <ele>359</ele>
        <time>2016-05-08T09:33:56.000Z</time>
      </trkpt>
      <trkpt lat="47.4908" lon="6.69459">
        <ele>359</ele>
        <time>2016-05-08T09:33:57.000Z</time>
      </trkpt>
      <trkpt lat="47.49082" lon="6.69461">
        <ele>359</ele>
        <time>2016-05-08T09:33:58.000Z</time>
      </trkpt>
      <trkpt lat="47.49083" lon="6.69464">
        <ele>359</ele>
        <time>2016-05-08T09:33:59.000Z</time>
      </trkpt>
      <trkpt lat="47.49085" lon="6.69467">
        <ele>357</ele>
        <time>2016-05-08T09:34:00.000Z</time>
      </trkpt>
      <trkpt lat="47.49087" lon="6.69469">
        <ele>357</ele>
        <time>2016-05-08T09:34:01.000Z</time>
      </trkpt>
      <trkpt lat="47.49088" lon="6.69473">
        <ele>357</ele>
        <time>2016-05-08T09:34:02.000Z</time>
      </trkpt>
      <trkpt lat="47.4909" lon="6.69476">
        <ele>357</ele>
        <time>2016-05-08T09:34:03.000Z</time>
      </trkpt>
      <trkpt lat="47.49091" lon="6.69479">
        <ele>357</ele>
        <time>2016-05-08T09:34:04.000Z</time>
      </trkpt>
      <trkpt lat="47.49093" lon="6.69482">
        <ele>358</ele>
        <time>2016-05-08T09:34:05.000Z</time>
      </trkpt>
      <trkpt lat="47.49095" lon="6.69486">
        <ele>358</ele>
        <time>2016-05-08T09:34:06.000Z</time>
      </trkpt>
      <trkpt lat="47.49097" lon="6.6949">
        <ele>358</ele>
        <time>2016-05-08T09:34:07.000Z</time>
      </trkpt>
      <trkpt lat="47.49099" lon="6.69495">
        <ele>358</ele>
        <time>2016-05-08T09:34:08.000Z</time>
      </trkpt>
      <trkpt lat="47.49102" lon="6.695">
        <ele>358</ele>
        <time>2016-05-08T09:34:09.000Z</time>
      </trkpt>
      <trkpt lat="47.49104" lon="6.69504">
        <ele>359</ele>
        <time>2016-05-08T09:34:10.000Z</time>
      </trkpt>
      <trkpt lat="47.49107" lon="6.69508">
        <ele>359</ele>
        <time>2016-05-08T09:34:11.000Z</time>
      </trkpt>
      <trkpt lat="47.49109" lon="6.69511">
        <ele>359</ele>
        <time>2016-05-08T09:34:12.000Z</time>
      </trkpt>
      <trkpt lat="47.49112" lon="6.69515">
        <ele>359</ele>
        <time>2016-05-08T09:34:13.000Z</time>
      </trkpt>
      <trkpt lat="47.49115" lon="6.69518">
        <ele>359</ele>
        <time>2016-05-08T09:34:14.000Z</time>
      </trkpt>
      <trkpt lat="47.49118" lon="6.69522">
        <ele>359</ele>
        <time>2016-05-08T09:34:15.000Z</time>
      </trkpt>
      <trkpt lat="47.49121" lon="6.69525">
        <ele>358</ele>
        <time>2016-05-08T09:34:16.000Z</time>
      </trkpt>
      <trkpt lat="47.49124" lon="6.69528">
        <ele>358</ele>
        <time>2016-05-08T09:34:17.000Z</time>
      </trkpt>
      <trkpt lat="47.49127" lon="6.6953">
        <ele>358</ele>
        <time>2016-05-08T09:34:18.000Z</time>
      </trkpt>
      <trkpt lat="47.49131" lon="6.69531">
        <ele>358</ele>
        <time>2016-05-08T09:34:19.000Z</time>
      </trkpt>
      <trkpt lat="47.49134" lon="6.69533">
        <ele>358</ele>
        <time>2016-05-08T09:34:20.000Z</time>
      </trkpt>
      <trkpt lat="47.49137" lon="6.69536">
        <ele>358</ele>
        <time>2016-05-08T09:34:21.000Z</time>
      </trkpt>
      <trkpt lat="47.4914" lon="6.69538">
        <ele>358</ele>
        <time>2016-05-08T09:34:22.000Z</time>
      </trkpt>
      <trkpt lat="47.49143" lon="6.69541">
        <ele>358</ele>
        <time>2016-05-08T09:34:23.000Z</time>
      </trkpt>
      <trkpt lat="47.49147" lon="6.69545">
        <ele>358</ele>
        <time>2016-05-08T09:34:24.000Z</time>
      </trkpt>
      <trkpt lat="47.49151" lon="6.69549">
        <ele>358</ele>
        <time>2016-05-08T09:34:25.000Z</time>
      </trkpt>
      <trkpt lat="47.49155" lon="6.69553">
        <ele>358</ele>
        <time>2016-05-08T09:34:26.000Z</time>
      </trkpt>
      <trkpt lat="47.49159" lon="6.69557">
        <ele>358</ele>
        <time>2016-05-08T09:34:27.000Z</time>
      </trkpt>
      <trkpt lat="47.49162" lon="6.69562">
        <ele>358</ele>
        <time>2016-05-08T09:34:28.000Z</time>
      </trkpt>
      <trkpt lat="47.49165" lon="6.69567">
        <ele>358</ele>
        <time>2016-05-08T09:34:29.000Z</time>
      </trkpt>
      <trkpt lat="47.49168" lon="6.69574">
        <ele>358</ele>
        <time>2016-05-08T09:34:30.000Z</time>
      </trkpt>
      <trkpt lat="47.49172" lon="6.6958">
        <ele>358</ele>
        <time>2016-05-08T09:34:31.000Z</time>
      </trkpt>
      <trkpt lat="47.49175" lon="6.69586">
        <ele>360</ele>
        <time>2016-05-08T09:34:32.000Z</time>
      </trkpt>
      <trkpt lat="47.49178" lon="6.69592">
        <ele>360</ele>
        <time>2016-05-08T09:34:33.000Z</time>
      </trkpt>
      <trkpt lat="47.4918" lon="6.69597">
        <ele>361</ele>
        <time>2016-05-08T09:34:34.000Z</time>
      </trkpt>
      <trkpt lat="47.49183" lon="6.69601">
        <ele>361</ele>
        <time>2016-05-08T09:34:35.000Z</time>
      </trkpt>
      <trkpt lat="47.49185" lon="6.69605">
        <ele>362</ele>
        <time>2016-05-08T09:34:36.000Z</time>
      </trkpt>
      <trkpt lat="47.49187" lon="6.69608">
        <ele>362</ele>
        <time>2016-05-08T09:34:37.000Z</time>
      </trkpt>
      <trkpt lat="47.49189" lon="6.69611">
        <ele>362</ele>
        <time>2016-05-08T09:34:38.000Z</time>
      </trkpt>
      <trkpt lat="47.4919" lon="6.69614">
        <ele>362</ele>
        <time>2016-05-08T09:34:39.000Z</time>
      </trkpt>
      <trkpt lat="47.49192" lon="6.69617">
        <ele>362</ele>
        <time>2016-05-08T09:34:40.000Z</time>
      </trkpt>
      <trkpt lat="47.49193" lon="6.69619">
        <ele>363</ele>
        <time>2016-05-08T09:34:41.000Z</time>
      </trkpt>
      <trkpt lat="47.49197" lon="6.69623">
        <ele>363</ele>
        <time>2016-05-08T09:34:43.000Z</time>
      </trkpt>
      <trkpt lat="47.49199" lon="6.69625">
        <ele>363</ele>
        <time>2016-05-08T09:34:44.000Z</time>
      </trkpt>
      <trkpt lat="47.49202" lon="6.69629">
        <ele>363</ele>
        <time>2016-05-08T09:34:46.000Z</time>
      </trkpt>
      <trkpt lat="47.49203" lon="6.69631">
        <ele>363</ele>
        <time>2016-05-08T09:34:47.000Z</time>
      </trkpt>
      <trkpt lat="47.49204" lon="6.69634">
        <ele>363</ele>
        <time>2016-05-08T09:34:48.000Z</time>
      </trkpt>
      <trkpt lat="47.49206" lon="6.69637">
        <ele>363</ele>
        <time>2016-05-08T09:34:49.000Z</time>
      </trkpt>
      <trkpt lat="47.49207" lon="6.6964">
        <ele>363</ele>
        <time>2016-05-08T09:34:50.000Z</time>
      </trkpt>
      <trkpt lat="47.49209" lon="6.69642">
        <ele>363</ele>
        <time>2016-05-08T09:34:51.000Z</time>
      </trkpt>
      <trkpt lat="47.49211" lon="6.69647">
        <ele>363</ele>
        <time>2016-05-08T09:34:53.000Z</time>
      </trkpt>
      <trkpt lat="47.49213" lon="6.6965">
        <ele>364</ele>
        <time>2016-05-08T09:34:54.000Z</time>
      </trkpt>
      <trkpt lat="47.49214" lon="6.69654">
        <ele>364</ele>
        <time>2016-05-08T09:34:57.000Z</time>
      </trkpt>
      <trkpt lat="47.49216" lon="6.69656">
        <ele>364</ele>
        <time>2016-05-08T09:34:58.000Z</time>
      </trkpt>
      <trkpt lat="47.49219" lon="6.69659">
        <ele>364</ele>
        <time>2016-05-08T09:35:00.000Z</time>
      </trkpt>
      <trkpt lat="47.49221" lon="6.69662">
        <ele>364</ele>
        <time>2016-05-08T09:35:01.000Z</time>
      </trkpt>
      <trkpt lat="47.49223" lon="6.69666">
        <ele>364</ele>
        <time>2016-05-08T09:35:02.000Z</time>
      </trkpt>
      <trkpt lat="47.49225" lon="6.6967">
        <ele>367</ele>
        <time>2016-05-08T09:35:03.000Z</time>
      </trkpt>
      <trkpt lat="47.49226" lon="6.69673">
        <ele>367</ele>
        <time>2016-05-08T09:35:04.000Z</time>
      </trkpt>
      <trkpt lat="47.49228" lon="6.69677">
        <ele>367</ele>
        <time>2016-05-08T09:35:05.000Z</time>
      </trkpt>
      <trkpt lat="47.4923" lon="6.6968">
        <ele>367</ele>
        <time>2016-05-08T09:35:06.000Z</time>
      </trkpt>
      <trkpt lat="47.49232" lon="6.69683">
        <ele>367</ele>
        <time>2016-05-08T09:35:07.000Z</time>
      </trkpt>
      <trkpt lat="47.49233" lon="6.69686">
        <ele>367</ele>
        <time>2016-05-08T09:35:08.000Z</time>
      </trkpt>
      <trkpt lat="47.49235" lon="6.69688">
        <ele>367</ele>
        <time>2016-05-08T09:35:09.000Z</time>
      </trkpt>
      <trkpt lat="47.49236" lon="6.69691">
        <ele>367</ele>
        <time>2016-05-08T09:35:10.000Z</time>
      </trkpt>
      <trkpt lat="47.49238" lon="6.69694">
        <ele>367</ele>
        <time>2016-05-08T09:35:11.000Z</time>
      </trkpt>
      <trkpt lat="47.49241" lon="6.69699">
        <ele>368</ele>
        <time>2016-05-08T09:35:13.000Z</time>
      </trkpt>
      <trkpt lat="47.49242" lon="6.69701">
        <ele>368</ele>
        <time>2016-05-08T09:35:14.000Z</time>
      </trkpt>
      <trkpt lat="47.49244" lon="6.69703">
        <ele>368</ele>
        <time>2016-05-08T09:35:15.000Z</time>
      </trkpt>
      <trkpt lat="47.49245" lon="6.69706">
        <ele>368</ele>
        <time>2016-05-08T09:35:16.000Z</time>
      </trkpt>
      <trkpt lat="47.49247" lon="6.69708">
        <ele>368</ele>
        <time>2016-05-08T09:35:17.000Z</time>
      </trkpt>
      <trkpt lat="47.49248" lon="6.69711">
        <ele>368</ele>
        <time>2016-05-08T09:35:18.000Z</time>
      </trkpt>
      <trkpt lat="47.4925" lon="6.69714">
        <ele>368</ele>
        <time>2016-05-08T09:35:19.000Z</time>
      </trkpt>
      <trkpt lat="47.49252" lon="6.69716">
        <ele>368</ele>
        <time>2016-05-08T09:35:20.000Z</time>
      </trkpt>
      <trkpt lat="47.49255" lon="6.6972">
        <ele>368</ele>
        <time>2016-05-08T09:35:22.000Z</time>
      </trkpt>
      <trkpt lat="47.49257" lon="6.69721">
        <ele>368</ele>
        <time>2016-05-08T09:35:23.000Z</time>
      </trkpt>
      <trkpt lat="47.49261" lon="6.69725">
        <ele>369</ele>
        <time>2016-05-08T09:35:25.000Z</time>
      </trkpt>
      <trkpt lat="47.49263" lon="6.69726">
        <ele>369</ele>
        <time>2016-05-08T09:35:26.000Z</time>
      </trkpt>
      <trkpt lat="47.49264" lon="6.69729">
        <ele>369</ele>
        <time>2016-05-08T09:35:27.000Z</time>
      </trkpt>
      <trkpt lat="47.49266" lon="6.69731">
        <ele>369</ele>
        <time>2016-05-08T09:35:28.000Z</time>
      </trkpt>
      <trkpt lat="47.49268" lon="6.69734">
        <ele>369</ele>
        <time>2016-05-08T09:35:29.000Z</time>
      </trkpt>
      <trkpt lat="47.49269" lon="6.69737">
        <ele>369</ele>
        <time>2016-05-08T09:35:30.000Z</time>
      </trkpt>
      <trkpt lat="47.4927" lon="6.6974">
        <ele>369</ele>
        <time>2016-05-08T09:35:31.000Z</time>
      </trkpt>
      <trkpt lat="47.49271" lon="6.69743">
        <ele>369</ele>
        <time>2016-05-08T09:35:32.000Z</time>
      </trkpt>
      <trkpt lat="47.49273" lon="6.69748">
        <ele>369</ele>
        <time>2016-05-08T09:35:34.001Z</time>
      </trkpt>
      <trkpt lat="47.49273" lon="6.69751">
        <ele>373</ele>
        <time>2016-05-08T09:35:35.000Z</time>
      </trkpt>
      <trkpt lat="47.49274" lon="6.69755">
        <ele>374</ele>
        <time>2016-05-08T09:35:37.000Z</time>
      </trkpt>
      <trkpt lat="47.49275" lon="6.69757">
        <ele>374</ele>
        <time>2016-05-08T09:35:38.000Z</time>
      </trkpt>
      <trkpt lat="47.49277" lon="6.69762">
        <ele>374</ele>
        <time>2016-05-08T09:35:40.000Z</time>
      </trkpt>
      <trkpt lat="47.49278" lon="6.69764">
        <ele>374</ele>
        <time>2016-05-08T09:35:41.003Z</time>
      </trkpt>
      <trkpt lat="47.49279" lon="6.69769">
        <ele>375</ele>
        <time>2016-05-08T09:35:43.000Z</time>
      </trkpt>
      <trkpt lat="47.49279" lon="6.69771">
        <ele>375</ele>
        <time>2016-05-08T09:35:44.000Z</time>
      </trkpt>
      <trkpt lat="47.4928" lon="6.69776">
        <ele>375</ele>
        <time>2016-05-08T09:35:46.000Z</time>
      </trkpt>
      <trkpt lat="47.4928" lon="6.69779">
        <ele>375</ele>
        <time>2016-05-08T09:35:47.000Z</time>
      </trkpt>
      <trkpt lat="47.4928" lon="6.69784">
        <ele>376</ele>
        <time>2016-05-08T09:35:50.000Z</time>
      </trkpt>
      <trkpt lat="47.4928" lon="6.69786">
        <ele>376</ele>
        <time>2016-05-08T09:35:51.000Z</time>
      </trkpt>
      <trkpt lat="47.49281" lon="6.69792">
        <ele>376</ele>
        <time>2016-05-08T09:35:54.000Z</time>
      </trkpt>
      <trkpt lat="47.49281" lon="6.69794">
        <ele>376</ele>
        <time>2016-05-08T09:35:55.000Z</time>
      </trkpt>
      <trkpt lat="47.4928" lon="6.69799">
        <ele>377</ele>
        <time>2016-05-08T09:35:57.000Z</time>
      </trkpt>
      <trkpt lat="47.4928" lon="6.69802">
        <ele>377</ele>
        <time>2016-05-08T09:35:58.000Z</time>
      </trkpt>
      <trkpt lat="47.49279" lon="6.69807">
        <ele>377</ele>
        <time>2016-05-08T09:36:00.000Z</time>
      </trkpt>
      <trkpt lat="47.49279" lon="6.6981">
        <ele>377</ele>
        <time>2016-05-08T09:36:01.000Z</time>
      </trkpt>
      <trkpt lat="47.49279" lon="6.69816">
        <ele>378</ele>
        <time>2016-05-08T09:36:03.000Z</time>
      </trkpt>
      <trkpt lat="47.49279" lon="6.69819">
        <ele>378</ele>
        <time>2016-05-08T09:36:04.000Z</time>
      </trkpt>
      <trkpt lat="47.49279" lon="6.69824">
        <ele>378</ele>
        <time>2016-05-08T09:36:06.000Z</time>
      </trkpt>
      <trkpt lat="47.49279" lon="6.69827">
        <ele>378</ele>
        <time>2016-05-08T09:36:07.000Z</time>
      </trkpt>
      <trkpt lat="47.4928" lon="6.69832">
        <ele>379</ele>
        <time>2016-05-08T09:36:10.000Z</time>
      </trkpt>
      <trkpt lat="47.4928" lon="6.69834">
        <ele>384</ele>
        <time>2016-05-08T09:36:11.000Z</time>
      </trkpt>
      <trkpt lat="47.4928" lon="6.69837">
        <ele>384</ele>
        <time>2016-05-08T09:36:12.997Z</time>
      </trkpt>
      <trkpt lat="47.4928" lon="6.69841">
        <ele>385</ele>
        <time>2016-05-08T09:36:14.000Z</time>
      </trkpt>
      <trkpt lat="47.49281" lon="6.69845">
        <ele>385</ele>
        <time>2016-05-08T09:36:16.000Z</time>
      </trkpt>
      <trkpt lat="47.49281" lon="6.69847">
        <ele>385</ele>
        <time>2016-05-08T09:36:17.000Z</time>
      </trkpt>
      <trkpt lat="47.49281" lon="6.69852">
        <ele>385</ele>
        <time>2016-05-08T09:36:19.000Z</time>
      </trkpt>
      <trkpt lat="47.49282" lon="6.69854">
        <ele>385</ele>
        <time>2016-05-08T09:36:20.000Z</time>
      </trkpt>
      <trkpt lat="47.49283" lon="6.69859">
        <ele>385</ele>
        <time>2016-05-08T09:36:22.000Z</time>
      </trkpt>
      <trkpt lat="47.49284" lon="6.69862">
        <ele>386</ele>
        <time>2016-05-08T09:36:23.000Z</time>
      </trkpt>
      <trkpt lat="47.49285" lon="6.69868">
        <ele>386</ele>
        <time>2016-05-08T09:36:24.998Z</time>
      </trkpt>
      <trkpt lat="47.49285" lon="6.69873">
        <ele>386</ele>
        <time>2016-05-08T09:36:26.000Z</time>
      </trkpt>
      <trkpt lat="47.49286" lon="6.69876">
        <ele>386</ele>
        <time>2016-05-08T09:36:27.000Z</time>
      </trkpt>
      <trkpt lat="47.49286" lon="6.6988">
        <ele>387</ele>
        <time>2016-05-08T09:36:28.000Z</time>
      </trkpt>
      <trkpt lat="47.49287" lon="6.69885">
        <ele>387</ele>
        <time>2016-05-08T09:36:30.000Z</time>
      </trkpt>
      <trkpt lat="47.49288" lon="6.69886">
        <ele>387</ele>
        <time>2016-05-08T09:36:31.000Z</time>
      </trkpt>
      <trkpt lat="47.49288" lon="6.69892">
        <ele>387</ele>
        <time>2016-05-08T09:36:34.000Z</time>
      </trkpt>
      <trkpt lat="47.49288" lon="6.69894">
        <ele>387</ele>
        <time>2016-05-08T09:36:35.000Z</time>
      </trkpt>
      <trkpt lat="47.4929" lon="6.69897">
        <ele>387</ele>
        <time>2016-05-08T09:36:37.000Z</time>
      </trkpt>
      <trkpt lat="47.4929" lon="6.69899">
        <ele>388</ele>
        <time>2016-05-08T09:36:38.000Z</time>
      </trkpt>
      <trkpt lat="47.49293" lon="6.69903">
        <ele>388</ele>
        <time>2016-05-08T09:36:40.000Z</time>
      </trkpt>
      <trkpt lat="47.49294" lon="6.69905">
        <ele>388</ele>
        <time>2016-05-08T09:36:41.000Z</time>
      </trkpt>
      <trkpt lat="47.49297" lon="6.69909">
        <ele>388</ele>
        <time>2016-05-08T09:36:43.000Z</time>
      </trkpt>
      <trkpt lat="47.49298" lon="6.69911">
        <ele>388</ele>
        <time>2016-05-08T09:36:44.000Z</time>
      </trkpt>
      <trkpt lat="47.49301" lon="6.69914">
        <ele>388</ele>
        <time>2016-05-08T09:36:46.000Z</time>
      </trkpt>
      <trkpt lat="47.49302" lon="6.69915">
        <ele>388</ele>
        <time>2016-05-08T09:36:47.000Z</time>
      </trkpt>
      <trkpt lat="47.49305" lon="6.69919">
        <ele>394</ele>
        <time>2016-05-08T09:36:49.000Z</time>
      </trkpt>
      <trkpt lat="47.49307" lon="6.69922">
        <ele>394</ele>
        <time>2016-05-08T09:36:50.000Z</time>
      </trkpt>
      <trkpt lat="47.49309" lon="6.69924">
        <ele>394</ele>
        <time>2016-05-08T09:36:51.000Z</time>
      </trkpt>
      <trkpt lat="47.49311" lon="6.69927">
        <ele>394</ele>
        <time>2016-05-08T09:36:52.000Z</time>
      </trkpt>
      <trkpt lat="47.49313" lon="6.6993">
        <ele>394</ele>
        <time>2016-05-08T09:36:53.000Z</time>
      </trkpt>
      <trkpt lat="47.49315" lon="6.69933">
        <ele>394</ele>
        <time>2016-05-08T09:36:54.000Z</time>
      </trkpt>
      <trkpt lat="47.49318" lon="6.69936">
        <ele>394</ele>
        <time>2016-05-08T09:36:56.000Z</time>
      </trkpt>
      <trkpt lat="47.4932" lon="6.69938">
        <ele>394</ele>
        <time>2016-05-08T09:36:57.000Z</time>
      </trkpt>
      <trkpt lat="47.49322" lon="6.69941">
        <ele>394</ele>
        <time>2016-05-08T09:36:58.000Z</time>
      </trkpt>
      <trkpt lat="47.49324" lon="6.69944">
        <ele>394</ele>
        <time>2016-05-08T09:36:59.000Z</time>
      </trkpt>
      <trkpt lat="47.49326" lon="6.69946">
        <ele>394</ele>
        <time>2016-05-08T09:37:00.000Z</time>
      </trkpt>
      <trkpt lat="47.49328" lon="6.69949">
        <ele>395</ele>
        <time>2016-05-08T09:37:01.000Z</time>
      </trkpt>
      <trkpt lat="47.49329" lon="6.69952">
        <ele>395</ele>
        <time>2016-05-08T09:37:02.000Z</time>
      </trkpt>
      <trkpt lat="47.49331" lon="6.69955">
        <ele>395</ele>
        <time>2016-05-08T09:37:03.000Z</time>
      </trkpt>
      <trkpt lat="47.49332" lon="6.69959">
        <ele>395</ele>
        <time>2016-05-08T09:37:04.000Z</time>
      </trkpt>
      <trkpt lat="47.49334" lon="6.69962">
        <ele>390</ele>
        <time>2016-05-08T09:37:05.000Z</time>
      </trkpt>
      <trkpt lat="47.49336" lon="6.69965">
        <ele>391</ele>
        <time>2016-05-08T09:37:06.000Z</time>
      </trkpt>
      <trkpt lat="47.49338" lon="6.69968">
        <ele>391</ele>
        <time>2016-05-08T09:37:07.000Z</time>
      </trkpt>
      <trkpt lat="47.49341" lon="6.69971">
        <ele>391</ele>
        <time>2016-05-08T09:37:08.000Z</time>
      </trkpt>
      <trkpt lat="47.49344" lon="6.69975">
        <ele>391</ele>
        <time>2016-05-08T09:37:09.000Z</time>
      </trkpt>
      <trkpt lat="47.49347" lon="6.69979">
        <ele>392</ele>
        <time>2016-05-08T09:37:10.000Z</time>
      </trkpt>
      <trkpt lat="47.4935" lon="6.69984">
        <ele>392</ele>
        <time>2016-05-08T09:37:11.000Z</time>
      </trkpt>
      <trkpt lat="47.49352" lon="6.69989">
        <ele>392</ele>
        <time>2016-05-08T09:37:12.000Z</time>
      </trkpt>
      <trkpt lat="47.49355" lon="6.69993">
        <ele>392</ele>
        <time>2016-05-08T09:37:13.000Z</time>
      </trkpt>
      <trkpt lat="47.49358" lon="6.69996">
        <ele>392</ele>
        <time>2016-05-08T09:37:14.000Z</time>
      </trkpt>
      <trkpt lat="47.49361" lon="6.69998">
        <ele>391</ele>
        <time>2016-05-08T09:37:15.000Z</time>
      </trkpt>
      <trkpt lat="47.49364" lon="6.70001">
        <ele>396</ele>
        <time>2016-05-08T09:37:16.000Z</time>
      </trkpt>
      <trkpt lat="47.49367" lon="6.70004">
        <ele>396</ele>
        <time>2016-05-08T09:37:17.000Z</time>
      </trkpt>
      <trkpt lat="47.4937" lon="6.70007">
        <ele>395</ele>
        <time>2016-05-08T09:37:18.000Z</time>
      </trkpt>
      <trkpt lat="47.49373" lon="6.7001">
        <ele>395</ele>
        <time>2016-05-08T09:37:19.000Z</time>
      </trkpt>
      <trkpt lat="47.49376" lon="6.70014">
        <ele>395</ele>
        <time>2016-05-08T09:37:20.000Z</time>
      </trkpt>
      <trkpt lat="47.49378" lon="6.70018">
        <ele>395</ele>
        <time>2016-05-08T09:37:21.000Z</time>
      </trkpt>
      <trkpt lat="47.49381" lon="6.70022">
        <ele>395</ele>
        <time>2016-05-08T09:37:22.000Z</time>
      </trkpt>
      <trkpt lat="47.49383" lon="6.70026">
        <ele>395</ele>
        <time>2016-05-08T09:37:23.000Z</time>
      </trkpt>
      <trkpt lat="47.49385" lon="6.70031">
        <ele>395</ele>
        <time>2016-05-08T09:37:24.000Z</time>
      </trkpt>
      <trkpt lat="47.49387" lon="6.70035">
        <ele>395</ele>
        <time>2016-05-08T09:37:25.000Z</time>
      </trkpt>
      <trkpt lat="47.49389" lon="6.70039">
        <ele>395</ele>
        <time>2016-05-08T09:37:26.000Z</time>
      </trkpt>
      <trkpt lat="47.49391" lon="6.70044">
        <ele>395</ele>
        <time>2016-05-08T09:37:27.000Z</time>
      </trkpt>
      <trkpt lat="47.49393" lon="6.70048">
        <ele>395</ele>
        <time>2016-05-08T09:37:28.000Z</time>
      </trkpt>
      <trkpt lat="47.49396" lon="6.70052">
        <ele>395</ele>
        <time>2016-05-08T09:37:29.000Z</time>
      </trkpt>
      <trkpt lat="47.49399" lon="6.70056">
        <ele>395</ele>
        <time>2016-05-08T09:37:30.000Z</time>
      </trkpt>
      <trkpt lat="47.49402" lon="6.70059">
        <ele>394</ele>
        <time>2016-05-08T09:37:31.000Z</time>
      </trkpt>
      <trkpt lat="47.49406" lon="6.70063">
        <ele>394</ele>
        <time>2016-05-08T09:37:32.000Z</time>
      </trkpt>
      <trkpt lat="47.49409" lon="6.70067">
        <ele>394</ele>
        <time>2016-05-08T09:37:33.000Z</time>
      </trkpt>
      <trkpt lat="47.49412" lon="6.7007">
        <ele>394</ele>
        <time>2016-05-08T09:37:34.000Z</time>
      </trkpt>
      <trkpt lat="47.49414" lon="6.70074">
        <ele>393</ele>
        <time>2016-05-08T09:37:35.000Z</time>
      </trkpt>
      <trkpt lat="47.49416" lon="6.70078">
        <ele>393</ele>
        <time>2016-05-08T09:37:36.000Z</time>
      </trkpt>
      <trkpt lat="47.49418" lon="6.70082">
        <ele>391</ele>
        <time>2016-05-08T09:37:37.000Z</time>
      </trkpt>
      <trkpt lat="47.4942" lon="6.70087">
        <ele>391</ele>
        <time>2016-05-08T09:37:38.000Z</time>
      </trkpt>
      <trkpt lat="47.49422" lon="6.70092">
        <ele>390</ele>
        <time>2016-05-08T09:37:39.000Z</time>
      </trkpt>
      <trkpt lat="47.49423" lon="6.70098">
        <ele>390</ele>
        <time>2016-05-08T09:37:40.000Z</time>
      </trkpt>
      <trkpt lat="47.49426" lon="6.70103">
        <ele>389</ele>
        <time>2016-05-08T09:37:41.000Z</time>
      </trkpt>
      <trkpt lat="47.49428" lon="6.70108">
        <ele>389</ele>
        <time>2016-05-08T09:37:42.000Z</time>
      </trkpt>
      <trkpt lat="47.4943" lon="6.70113">
        <ele>389</ele>
        <time>2016-05-08T09:37:43.000Z</time>
      </trkpt>
      <trkpt lat="47.49432" lon="6.70117">
        <ele>389</ele>
        <time>2016-05-08T09:37:44.000Z</time>
      </trkpt>
      <trkpt lat="47.49434" lon="6.7012">
        <ele>389</ele>
        <time>2016-05-08T09:37:45.000Z</time>
      </trkpt>
      <trkpt lat="47.49436" lon="6.70122">
        <ele>389</ele>
        <time>2016-05-08T09:37:46.000Z</time>
      </trkpt>
      <trkpt lat="47.49438" lon="6.70125">
        <ele>389</ele>
        <time>2016-05-08T09:37:47.000Z</time>
      </trkpt>
      <trkpt lat="47.4944" lon="6.70127">
        <ele>389</ele>
        <time>2016-05-08T09:37:48.000Z</time>
      </trkpt>
      <trkpt lat="47.49442" lon="6.70129">
        <ele>389</ele>
        <time>2016-05-08T09:37:49.000Z</time>
      </trkpt>
      <trkpt lat="47.49444" lon="6.70132">
        <ele>389</ele>
        <time>2016-05-08T09:37:50.000Z</time>
      </trkpt>
      <trkpt lat="47.49446" lon="6.70135">
        <ele>389</ele>
        <time>2016-05-08T09:37:51.000Z</time>
      </trkpt>
      <trkpt lat="47.49448" lon="6.70139">
        <ele>389</ele>
        <time>2016-05-08T09:37:52.000Z</time>
      </trkpt>
      <trkpt lat="47.49449" lon="6.70142">
        <ele>389</ele>
        <time>2016-05-08T09:37:53.000Z</time>
      </trkpt>
      <trkpt lat="47.49451" lon="6.70145">
        <ele>389</ele>
        <time>2016-05-08T09:37:54.000Z</time>
      </trkpt>
      <trkpt lat="47.49452" lon="6.70149">
        <ele>389</ele>
        <time>2016-05-08T09:37:55.000Z</time>
      </trkpt>
      <trkpt lat="47.49454" lon="6.70151">
        <ele>389</ele>
        <time>2016-05-08T09:37:56.000Z</time>
      </trkpt>
      <trkpt lat="47.49455" lon="6.70154">
        <ele>389</ele>
        <time>2016-05-08T09:37:57.000Z</time>
      </trkpt>
      <trkpt lat="47.49457" lon="6.70158">
        <ele>389</ele>
        <time>2016-05-08T09:37:59.000Z</time>
      </trkpt>
      <trkpt lat="47.49458" lon="6.7016">
        <ele>389</ele>
        <time>2016-05-08T09:38:00.000Z</time>
      </trkpt>
      <trkpt lat="47.49461" lon="6.70164">
        <ele>389</ele>
        <time>2016-05-08T09:38:02.000Z</time>
      </trkpt>
      <trkpt lat="47.49463" lon="6.70166">
        <ele>388</ele>
        <time>2016-05-08T09:38:03.000Z</time>
      </trkpt>
      <trkpt lat="47.49465" lon="6.70168">
        <ele>395</ele>
        <time>2016-05-08T09:38:04.000Z</time>
      </trkpt>
      <trkpt lat="47.49467" lon="6.70169">
        <ele>394</ele>
        <time>2016-05-08T09:38:05.000Z</time>
      </trkpt>
      <trkpt lat="47.4947" lon="6.70174">
        <ele>394</ele>
        <time>2016-05-08T09:38:07.000Z</time>
      </trkpt>
      <trkpt lat="47.49471" lon="6.70176">
        <ele>394</ele>
        <time>2016-05-08T09:38:08.000Z</time>
      </trkpt>
      <trkpt lat="47.49474" lon="6.70182">
        <ele>394</ele>
        <time>2016-05-08T09:38:10.000Z</time>
      </trkpt>
      <trkpt lat="47.49475" lon="6.70185">
        <ele>394</ele>
        <time>2016-05-08T09:38:11.000Z</time>
      </trkpt>
      <trkpt lat="47.49476" lon="6.70188">
        <ele>394</ele>
        <time>2016-05-08T09:38:12.000Z</time>
      </trkpt>
      <trkpt lat="47.49477" lon="6.70191">
        <ele>394</ele>
        <time>2016-05-08T09:38:13.000Z</time>
      </trkpt>
      <trkpt lat="47.49478" lon="6.70195">
        <ele>394</ele>
        <time>2016-05-08T09:38:14.000Z</time>
      </trkpt>
      <trkpt lat="47.49479" lon="6.70198">
        <ele>395</ele>
        <time>2016-05-08T09:38:15.000Z</time>
      </trkpt>
      <trkpt lat="47.4948" lon="6.70204">
        <ele>395</ele>
        <time>2016-05-08T09:38:17.000Z</time>
      </trkpt>
      <trkpt lat="47.4948" lon="6.70207">
        <ele>396</ele>
        <time>2016-05-08T09:38:18.000Z</time>
      </trkpt>
      <trkpt lat="47.4948" lon="6.70213">
        <ele>396</ele>
        <time>2016-05-08T09:38:20.000Z</time>
      </trkpt>
      <trkpt lat="47.4948" lon="6.70216">
        <ele>396</ele>
        <time>2016-05-08T09:38:21.000Z</time>
      </trkpt>
      <trkpt lat="47.49481" lon="6.7022">
        <ele>396</ele>
        <time>2016-05-08T09:38:22.000Z</time>
      </trkpt>
      <trkpt lat="47.49482" lon="6.70223">
        <ele>396</ele>
        <time>2016-05-08T09:38:23.000Z</time>
      </trkpt>
      <trkpt lat="47.49482" lon="6.70227">
        <ele>396</ele>
        <time>2016-05-08T09:38:24.000Z</time>
      </trkpt>
      <trkpt lat="47.49483" lon="6.7023">
        <ele>396</ele>
        <time>2016-05-08T09:38:25.000Z</time>
      </trkpt>
      <trkpt lat="47.49484" lon="6.70234">
        <ele>396</ele>
        <time>2016-05-08T09:38:26.000Z</time>
      </trkpt>
      <trkpt lat="47.49485" lon="6.70237">
        <ele>396</ele>
        <time>2016-05-08T09:38:27.000Z</time>
      </trkpt>
      <trkpt lat="47.49487" lon="6.70241">
        <ele>396</ele>
        <time>2016-05-08T09:38:28.000Z</time>
      </trkpt>
      <trkpt lat="47.49488" lon="6.70245">
        <ele>396</ele>
        <time>2016-05-08T09:38:29.000Z</time>
      </trkpt>
      <trkpt lat="47.4949" lon="6.70249">
        <ele>396</ele>
        <time>2016-05-08T09:38:30.000Z</time>
      </trkpt>
      <trkpt lat="47.49492" lon="6.70254">
        <ele>398</ele>
        <time>2016-05-08T09:38:31.000Z</time>
      </trkpt>
      <trkpt lat="47.49494" lon="6.70258">
        <ele>399</ele>
        <time>2016-05-08T09:38:32.000Z</time>
      </trkpt>
      <trkpt lat="47.49495" lon="6.70263">
        <ele>400</ele>
        <time>2016-05-08T09:38:33.000Z</time>
      </trkpt>
      <trkpt lat="47.49496" lon="6.70268">
        <ele>401</ele>
        <time>2016-05-08T09:38:34.000Z</time>
      </trkpt>
      <trkpt lat="47.49497" lon="6.70273">
        <ele>401</ele>
        <time>2016-05-08T09:38:35.000Z</time>
      </trkpt>
      <trkpt lat="47.49498" lon="6.70278">
        <ele>402</ele>
        <time>2016-05-08T09:38:36.000Z</time>
      </trkpt>
      <trkpt lat="47.49499" lon="6.70282">
        <ele>403</ele>
        <time>2016-05-08T09:38:37.000Z</time>
      </trkpt>
      <trkpt lat="47.49501" lon="6.70286">
        <ele>392</ele>
        <time>2016-05-08T09:38:38.000Z</time>
      </trkpt>
      <trkpt lat="47.49502" lon="6.7029">
        <ele>392</ele>
        <time>2016-05-08T09:38:39.000Z</time>
      </trkpt>
      <trkpt lat="47.49504" lon="6.70294">
        <ele>392</ele>
        <time>2016-05-08T09:38:40.000Z</time>
      </trkpt>
      <trkpt lat="47.49506" lon="6.70297">
        <ele>392</ele>
        <time>2016-05-08T09:38:41.000Z</time>
      </trkpt>
      <trkpt lat="47.49507" lon="6.70299">
        <ele>392</ele>
        <time>2016-05-08T09:38:42.000Z</time>
      </trkpt>
      <trkpt lat="47.49508" lon="6.70302">
        <ele>392</ele>
        <time>2016-05-08T09:38:43.000Z</time>
      </trkpt>
      <trkpt lat="47.49509" lon="6.70306">
        <ele>393</ele>
        <time>2016-05-08T09:38:44.000Z</time>
      </trkpt>
      <trkpt lat="47.4951" lon="6.70309">
        <ele>393</ele>
        <time>2016-05-08T09:38:45.000Z</time>
      </trkpt>
      <trkpt lat="47.49511" lon="6.70313">
        <ele>394</ele>
        <time>2016-05-08T09:38:46.000Z</time>
      </trkpt>
      <trkpt lat="47.49511" lon="6.70316">
        <ele>394</ele>
        <time>2016-05-08T09:38:47.000Z</time>
      </trkpt>
      <trkpt lat="47.49513" lon="6.70321">
        <ele>395</ele>
        <time>2016-05-08T09:38:49.000Z</time>
      </trkpt>
      <trkpt lat="47.49515" lon="6.70323">
        <ele>395</ele>
        <time>2016-05-08T09:38:50.000Z</time>
      </trkpt>
      <trkpt lat="47.49516" lon="6.70326">
        <ele>395</ele>
        <time>2016-05-08T09:38:51.000Z</time>
      </trkpt>
      <trkpt lat="47.49518" lon="6.70329">
        <ele>395</ele>
        <time>2016-05-08T09:38:52.000Z</time>
      </trkpt>
      <trkpt lat="47.49519" lon="6.70333">
        <ele>395</ele>
        <time>2016-05-08T09:38:53.000Z</time>
      </trkpt>
      <trkpt lat="47.4952" lon="6.70337">
        <ele>399</ele>
        <time>2016-05-08T09:38:54.000Z</time>
      </trkpt>
      <trkpt lat="47.4952" lon="6.70341">
        <ele>399</ele>
        <time>2016-05-08T09:38:55.000Z</time>
      </trkpt>
      <trkpt lat="47.4952" lon="6.70344">
        <ele>399</ele>
        <time>2016-05-08T09:38:56.000Z</time>
      </trkpt>
      <trkpt lat="47.49522" lon="6.70347">
        <ele>398</ele>
        <time>2016-05-08T09:38:57.000Z</time>
      </trkpt>
      <trkpt lat="47.49523" lon="6.7035">
        <ele>398</ele>
        <time>2016-05-08T09:38:58.000Z</time>
      </trkpt>
      <trkpt lat="47.49525" lon="6.70353">
        <ele>398</ele>
        <time>2016-05-08T09:38:59.000Z</time>
      </trkpt>
      <trkpt lat="47.49526" lon="6.70356">
        <ele>398</ele>
        <time>2016-05-08T09:39:00.000Z</time>
      </trkpt>
      <trkpt lat="47.49528" lon="6.70359">
        <ele>398</ele>
        <time>2016-05-08T09:39:01.000Z</time>
      </trkpt>
      <trkpt lat="47.49529" lon="6.70362">
        <ele>397</ele>
        <time>2016-05-08T09:39:02.000Z</time>
      </trkpt>
      <trkpt lat="47.4953" lon="6.70365">
        <ele>397</ele>
        <time>2016-05-08T09:39:03.000Z</time>
      </trkpt>
      <trkpt lat="47.49531" lon="6.70368">
        <ele>397</ele>
        <time>2016-05-08T09:39:04.000Z</time>
      </trkpt>
      <trkpt lat="47.49532" lon="6.70371">
        <ele>398</ele>
        <time>2016-05-08T09:39:05.000Z</time>
      </trkpt>
      <trkpt lat="47.49532" lon="6.70375">
        <ele>398</ele>
        <time>2016-05-08T09:39:06.000Z</time>
      </trkpt>
      <trkpt lat="47.49532" lon="6.70378">
        <ele>398</ele>
        <time>2016-05-08T09:39:07.000Z</time>
      </trkpt>
      <trkpt lat="47.49533" lon="6.70381">
        <ele>398</ele>
        <time>2016-05-08T09:39:08.000Z</time>
      </trkpt>
      <trkpt lat="47.49533" lon="6.70384">
        <ele>398</ele>
        <time>2016-05-08T09:39:09.000Z</time>
      </trkpt>
      <trkpt lat="47.49534" lon="6.70388">
        <ele>398</ele>
        <time>2016-05-08T09:39:10.000Z</time>
      </trkpt>
      <trkpt lat="47.49536" lon="6.70391">
        <ele>398</ele>
        <time>2016-05-08T09:39:11.000Z</time>
      </trkpt>
      <trkpt lat="47.49538" lon="6.70394">
        <ele>398</ele>
        <time>2016-05-08T09:39:12.000Z</time>
      </trkpt>
      <trkpt lat="47.4954" lon="6.70397">
        <ele>398</ele>
        <time>2016-05-08T09:39:13.000Z</time>
      </trkpt>
      <trkpt lat="47.49542" lon="6.704">
        <ele>398</ele>
        <time>2016-05-08T09:39:14.000Z</time>
      </trkpt>
      <trkpt lat="47.49544" lon="6.70402">
        <ele>397</ele>
        <time>2016-05-08T09:39:15.000Z</time>
      </trkpt>
      <trkpt lat="47.49545" lon="6.70404">
        <ele>397</ele>
        <time>2016-05-08T09:39:16.000Z</time>
      </trkpt>
      <trkpt lat="47.49547" lon="6.70406">
        <ele>397</ele>
        <time>2016-05-08T09:39:17.000Z</time>
      </trkpt>
      <trkpt lat="47.49549" lon="6.70408">
        <ele>397</ele>
        <time>2016-05-08T09:39:18.000Z</time>
      </trkpt>
      <trkpt lat="47.49551" lon="6.7041">
        <ele>396</ele>
        <time>2016-05-08T09:39:19.000Z</time>
      </trkpt>
      <trkpt lat="47.49553" lon="6.70412">
        <ele>396</ele>
        <time>2016-05-08T09:39:20.000Z</time>
      </trkpt>
      <trkpt lat="47.49555" lon="6.70414">
        <ele>396</ele>
        <time>2016-05-08T09:39:21.000Z</time>
      </trkpt>
      <trkpt lat="47.49556" lon="6.70417">
        <ele>400</ele>
        <time>2016-05-08T09:39:22.000Z</time>
      </trkpt>
      <trkpt lat="47.49558" lon="6.7042">
        <ele>400</ele>
        <time>2016-05-08T09:39:23.000Z</time>
      </trkpt>
      <trkpt lat="47.49559" lon="6.70424">
        <ele>400</ele>
        <time>2016-05-08T09:39:24.000Z</time>
      </trkpt>
      <trkpt lat="47.4956" lon="6.70428">
        <ele>400</ele>
        <time>2016-05-08T09:39:25.000Z</time>
      </trkpt>
      <trkpt lat="47.49561" lon="6.70431">
        <ele>400</ele>
        <time>2016-05-08T09:39:26.000Z</time>
      </trkpt>
      <trkpt lat="47.49563" lon="6.70435">
        <ele>400</ele>
        <time>2016-05-08T09:39:27.000Z</time>
      </trkpt>
      <trkpt lat="47.49564" lon="6.70438">
        <ele>400</ele>
        <time>2016-05-08T09:39:28.000Z</time>
      </trkpt>
      <trkpt lat="47.49566" lon="6.70441">
        <ele>400</ele>
        <time>2016-05-08T09:39:29.000Z</time>
      </trkpt>
      <trkpt lat="47.49568" lon="6.70444">
        <ele>400</ele>
        <time>2016-05-08T09:39:30.000Z</time>
      </trkpt>
      <trkpt lat="47.49569" lon="6.70446">
        <ele>401</ele>
        <time>2016-05-08T09:39:31.000Z</time>
      </trkpt>
      <trkpt lat="47.49571" lon="6.7045">
        <ele>401</ele>
        <time>2016-05-08T09:39:32.000Z</time>
      </trkpt>
      <trkpt lat="47.49573" lon="6.70454">
        <ele>401</ele>
        <time>2016-05-08T09:39:33.000Z</time>
      </trkpt>
      <trkpt lat="47.49574" lon="6.70458">
        <ele>401</ele>
        <time>2016-05-08T09:39:34.000Z</time>
      </trkpt>
      <trkpt lat="47.49575" lon="6.70462">
        <ele>401</ele>
        <time>2016-05-08T09:39:35.000Z</time>
      </trkpt>
      <trkpt lat="47.49576" lon="6.70466">
        <ele>401</ele>
        <time>2016-05-08T09:39:36.000Z</time>
      </trkpt>
      <trkpt lat="47.49577" lon="6.7047">
        <ele>401</ele>
        <time>2016-05-08T09:39:37.000Z</time>
      </trkpt>
      <trkpt lat="47.49579" lon="6.70474">
        <ele>401</ele>
        <time>2016-05-08T09:39:38.000Z</time>
      </trkpt>
      <trkpt lat="47.4958" lon="6.70477">
        <ele>401</ele>
        <time>2016-05-08T09:39:39.000Z</time>
      </trkpt>
      <trkpt lat="47.49582" lon="6.7048">
        <ele>401</ele>
        <time>2016-05-08T09:39:40.000Z</time>
      </trkpt>
      <trkpt lat="47.49585" lon="6.70481">
        <ele>391</ele>
        <time>2016-05-08T09:39:41.000Z</time>
      </trkpt>
      <trkpt lat="47.49588" lon="6.70483">
        <ele>391</ele>
        <time>2016-05-08T09:39:42.000Z</time>
      </trkpt>
      <trkpt lat="47.49591" lon="6.70485">
        <ele>391</ele>
        <time>2016-05-08T09:39:43.000Z</time>
      </trkpt>
      <trkpt lat="47.49594" lon="6.70487">
        <ele>391</ele>
        <time>2016-05-08T09:39:44.000Z</time>
      </trkpt>
      <trkpt lat="47.49597" lon="6.70489">
        <ele>391</ele>
        <time>2016-05-08T09:39:45.000Z</time>
      </trkpt>
      <trkpt lat="47.49598" lon="6.70492">
        <ele>391</ele>
        <time>2016-05-08T09:39:46.000Z</time>
      </trkpt>
      <trkpt lat="47.49599" lon="6.70498">
        <ele>391</ele>
        <time>2016-05-08T09:39:48.000Z</time>
      </trkpt>
      <trkpt lat="47.496" lon="6.70501">
        <ele>394</ele>
        <time>2016-05-08T09:39:49.000Z</time>
      </trkpt>
      <trkpt lat="47.496" lon="6.70505">
        <ele>394</ele>
        <time>2016-05-08T09:39:50.000Z</time>
      </trkpt>
      <trkpt lat="47.496" lon="6.70508">
        <ele>394</ele>
        <time>2016-05-08T09:39:51.000Z</time>
      </trkpt>
      <trkpt lat="47.49601" lon="6.70512">
        <ele>394</ele>
        <time>2016-05-08T09:39:52.000Z</time>
      </trkpt>
      <trkpt lat="47.49601" lon="6.70516">
        <ele>394</ele>
        <time>2016-05-08T09:39:53.000Z</time>
      </trkpt>
      <trkpt lat="47.49602" lon="6.70519">
        <ele>394</ele>
        <time>2016-05-08T09:39:54.000Z</time>
      </trkpt>
      <trkpt lat="47.49603" lon="6.70522">
        <ele>394</ele>
        <time>2016-05-08T09:39:55.000Z</time>
      </trkpt>
      <trkpt lat="47.49604" lon="6.70526">
        <ele>394</ele>
        <time>2016-05-08T09:39:56.000Z</time>
      </trkpt>
      <trkpt lat="47.49604" lon="6.70529">
        <ele>394</ele>
        <time>2016-05-08T09:39:57.000Z</time>
      </trkpt>
      <trkpt lat="47.49605" lon="6.70532">
        <ele>394</ele>
        <time>2016-05-08T09:39:58.000Z</time>
      </trkpt>
      <trkpt lat="47.49605" lon="6.70536">
        <ele>394</ele>
        <time>2016-05-08T09:39:59.000Z</time>
      </trkpt>
      <trkpt lat="47.49605" lon="6.70539">
        <ele>394</ele>
        <time>2016-05-08T09:40:00.000Z</time>
      </trkpt>
      <trkpt lat="47.49605" lon="6.70543">
        <ele>394</ele>
        <time>2016-05-08T09:40:01.000Z</time>
      </trkpt>
      <trkpt lat="47.49606" lon="6.70547">
        <ele>394</ele>
        <time>2016-05-08T09:40:02.000Z</time>
      </trkpt>
      <trkpt lat="47.49606" lon="6.70551">
        <ele>395</ele>
        <time>2016-05-08T09:40:03.000Z</time>
      </trkpt>
      <trkpt lat="47.49606" lon="6.70555">
        <ele>395</ele>
        <time>2016-05-08T09:40:04.000Z</time>
      </trkpt>
      <trkpt lat="47.49606" lon="6.70559">
        <ele>396</ele>
        <time>2016-05-08T09:40:05.000Z</time>
      </trkpt>
      <trkpt lat="47.49608" lon="6.70565">
        <ele>396</ele>
        <time>2016-05-08T09:40:07.000Z</time>
      </trkpt>
      <trkpt lat="47.49608" lon="6.70567">
        <ele>396</ele>
        <time>2016-05-08T09:40:08.000Z</time>
      </trkpt>
      <trkpt lat="47.49609" lon="6.70573">
        <ele>397</ele>
        <time>2016-05-08T09:40:10.000Z</time>
      </trkpt>
      <trkpt lat="47.4961" lon="6.70576">
        <ele>397</ele>
        <time>2016-05-08T09:40:11.000Z</time>
      </trkpt>
      <trkpt lat="47.4961" lon="6.7058">
        <ele>397</ele>
        <time>2016-05-08T09:40:12.000Z</time>
      </trkpt>
      <trkpt lat="47.49612" lon="6.70583">
        <ele>396</ele>
        <time>2016-05-08T09:40:13.000Z</time>
      </trkpt>
      <trkpt lat="47.49613" lon="6.70587">
        <ele>401</ele>
        <time>2016-05-08T09:40:14.000Z</time>
      </trkpt>
      <trkpt lat="47.49615" lon="6.7059">
        <ele>401</ele>
        <time>2016-05-08T09:40:15.000Z</time>
      </trkpt>
      <trkpt lat="47.49616" lon="6.70593">
        <ele>401</ele>
        <time>2016-05-08T09:40:16.000Z</time>
      </trkpt>
      <trkpt lat="47.49617" lon="6.70597">
        <ele>401</ele>
        <time>2016-05-08T09:40:17.000Z</time>
      </trkpt>
      <trkpt lat="47.49618" lon="6.706">
        <ele>400</ele>
        <time>2016-05-08T09:40:18.000Z</time>
      </trkpt>
      <trkpt lat="47.49619" lon="6.70603">
        <ele>400</ele>
        <time>2016-05-08T09:40:19.000Z</time>
      </trkpt>
      <trkpt lat="47.4962" lon="6.70607">
        <ele>400</ele>
        <time>2016-05-08T09:40:20.000Z</time>
      </trkpt>
      <trkpt lat="47.4962" lon="6.70611">
        <ele>400</ele>
        <time>2016-05-08T09:40:21.000Z</time>
      </trkpt>
      <trkpt lat="47.49621" lon="6.70616">
        <ele>400</ele>
        <time>2016-05-08T09:40:22.000Z</time>
      </trkpt>
      <trkpt lat="47.49622" lon="6.70621">
        <ele>400</ele>
        <time>2016-05-08T09:40:23.000Z</time>
      </trkpt>
      <trkpt lat="47.49624" lon="6.70625">
        <ele>400</ele>
        <time>2016-05-08T09:40:24.000Z</time>
      </trkpt>
      <trkpt lat="47.49626" lon="6.7063">
        <ele>400</ele>
        <time>2016-05-08T09:40:25.000Z</time>
      </trkpt>
      <trkpt lat="47.49628" lon="6.70634">
        <ele>400</ele>
        <time>2016-05-08T09:40:26.000Z</time>
      </trkpt>
      <trkpt lat="47.4963" lon="6.70637">
        <ele>400</ele>
        <time>2016-05-08T09:40:27.000Z</time>
      </trkpt>
      <trkpt lat="47.49631" lon="6.7064">
        <ele>400</ele>
        <time>2016-05-08T09:40:28.000Z</time>
      </trkpt>
      <trkpt lat="47.49632" lon="6.70643">
        <ele>400</ele>
        <time>2016-05-08T09:40:29.000Z</time>
      </trkpt>
      <trkpt lat="47.49634" lon="6.70649">
        <ele>400</ele>
        <time>2016-05-08T09:40:31.000Z</time>
      </trkpt>
      <trkpt lat="47.49634" lon="6.70652">
        <ele>400</ele>
        <time>2016-05-08T09:40:32.000Z</time>
      </trkpt>
      <trkpt lat="47.49633" lon="6.70658">
        <ele>400</ele>
        <time>2016-05-08T09:40:37.000Z</time>
      </trkpt>
      <trkpt lat="47.49633" lon="6.70658">
        <ele>400</ele>
        <time>2016-05-08T09:40:38.000Z</time>
      </trkpt>
      <trkpt lat="47.4963" lon="6.70664">
        <ele>401</ele>
        <time>2016-05-08T09:43:33.000Z</time>
      </trkpt>
      <trkpt lat="47.4963" lon="6.70664">
        <ele>401</ele>
        <time>2016-05-08T09:43:34.000Z</time>
      </trkpt>
      <trkpt lat="47.49627" lon="6.7067">
        <ele>406</ele>
        <time>2016-05-08T09:44:39.000Z</time>
      </trkpt>
      <trkpt lat="47.49627" lon="6.7067">
        <ele>406</ele>
        <time>2016-05-08T09:44:40.000Z</time>
      </trkpt>
      <trkpt lat="47.4963" lon="6.70675">
        <ele>405</ele>
        <time>2016-05-08T09:45:47.000Z</time>
      </trkpt>
      <trkpt lat="47.49631" lon="6.70678">
        <ele>405</ele>
        <time>2016-05-08T09:45:48.000Z</time>
      </trkpt>
      <trkpt lat="47.49632" lon="6.70682">
        <ele>405</ele>
        <time>2016-05-08T09:45:49.000Z</time>
      </trkpt>
      <trkpt lat="47.49634" lon="6.70685">
        <ele>405</ele>
        <time>2016-05-08T09:45:50.000Z</time>
      </trkpt>
      <trkpt lat="47.49637" lon="6.7069">
        <ele>405</ele>
        <time>2016-05-08T09:45:51.000Z</time>
      </trkpt>
      <trkpt lat="47.49639" lon="6.70696">
        <ele>404</ele>
        <time>2016-05-08T09:45:52.000Z</time>
      </trkpt>
      <trkpt lat="47.49642" lon="6.70701">
        <ele>404</ele>
        <time>2016-05-08T09:45:53.000Z</time>
      </trkpt>
      <trkpt lat="47.49646" lon="6.70707">
        <ele>404</ele>
        <time>2016-05-08T09:45:54.000Z</time>
      </trkpt>
      <trkpt lat="47.49649" lon="6.70713">
        <ele>404</ele>
        <time>2016-05-08T09:45:55.000Z</time>
      </trkpt>
      <trkpt lat="47.49652" lon="6.70719">
        <ele>404</ele>
        <time>2016-05-08T09:45:56.000Z</time>
      </trkpt>
      <trkpt lat="47.49657" lon="6.7073">
        <ele>403</ele>
        <time>2016-05-08T09:45:57.000Z</time>
      </trkpt>
      <trkpt lat="47.49659" lon="6.70736">
        <ele>402</ele>
        <time>2016-05-08T09:45:58.000Z</time>
      </trkpt>
      <trkpt lat="47.49663" lon="6.70742">
        <ele>401</ele>
        <time>2016-05-08T09:45:59.000Z</time>
      </trkpt>
      <trkpt lat="47.49665" lon="6.70749">
        <ele>399</ele>
        <time>2016-05-08T09:46:00.000Z</time>
      </trkpt>
      <trkpt lat="47.49672" lon="6.70753">
        <ele>397</ele>
        <time>2016-05-08T09:46:01.000Z</time>
      </trkpt>
      <trkpt lat="47.49676" lon="6.70759">
        <ele>396</ele>
        <time>2016-05-08T09:46:02.000Z</time>
      </trkpt>
      <trkpt lat="47.49677" lon="6.70763">
        <ele>395</ele>
        <time>2016-05-08T09:46:03.000Z</time>
      </trkpt>
      <trkpt lat="47.4968" lon="6.70767">
        <ele>395</ele>
        <time>2016-05-08T09:46:04.000Z</time>
      </trkpt>
      <trkpt lat="47.49681" lon="6.70774">
        <ele>394</ele>
        <time>2016-05-08T09:46:05.000Z</time>
      </trkpt>
      <trkpt lat="47.49684" lon="6.70778">
        <ele>394</ele>
        <time>2016-05-08T09:46:06.000Z</time>
      </trkpt>
      <trkpt lat="47.49686" lon="6.70782">
        <ele>394</ele>
        <time>2016-05-08T09:46:07.000Z</time>
      </trkpt>
      <trkpt lat="47.49686" lon="6.70788">
        <ele>394</ele>
        <time>2016-05-08T09:46:09.000Z</time>
      </trkpt>
      <trkpt lat="47.49686" lon="6.70793">
        <ele>394</ele>
        <time>2016-05-08T09:46:10.000Z</time>
      </trkpt>
      <trkpt lat="47.49686" lon="6.70801">
        <ele>395</ele>
        <time>2016-05-08T09:46:11.000Z</time>
      </trkpt>
      <trkpt lat="47.49686" lon="6.70806">
        <ele>395</ele>
        <time>2016-05-08T09:46:12.000Z</time>
      </trkpt>
      <trkpt lat="47.49686" lon="6.70812">
        <ele>396</ele>
        <time>2016-05-08T09:46:13.000Z</time>
      </trkpt>
      <trkpt lat="47.49687" lon="6.70818">
        <ele>396</ele>
        <time>2016-05-08T09:46:14.000Z</time>
      </trkpt>
      <trkpt lat="47.49688" lon="6.70824">
        <ele>397</ele>
        <time>2016-05-08T09:46:15.000Z</time>
      </trkpt>
      <trkpt lat="47.49689" lon="6.7083">
        <ele>397</ele>
        <time>2016-05-08T09:46:16.000Z</time>
      </trkpt>
      <trkpt lat="47.49691" lon="6.70836">
        <ele>398</ele>
        <time>2016-05-08T09:46:17.000Z</time>
      </trkpt>
      <trkpt lat="47.49693" lon="6.70841">
        <ele>398</ele>
        <time>2016-05-08T09:46:18.000Z</time>
      </trkpt>
      <trkpt lat="47.49695" lon="6.70845">
        <ele>397</ele>
        <time>2016-05-08T09:46:19.000Z</time>
      </trkpt>
      <trkpt lat="47.49698" lon="6.70849">
        <ele>397</ele>
        <time>2016-05-08T09:46:20.000Z</time>
      </trkpt>
      <trkpt lat="47.497" lon="6.70854">
        <ele>396</ele>
        <time>2016-05-08T09:46:21.000Z</time>
      </trkpt>
      <trkpt lat="47.49702" lon="6.7086">
        <ele>396</ele>
        <time>2016-05-08T09:46:22.000Z</time>
      </trkpt>
      <trkpt lat="47.49703" lon="6.70873">
        <ele>396</ele>
        <time>2016-05-08T09:46:23.000Z</time>
      </trkpt>
      <trkpt lat="47.49704" lon="6.7088">
        <ele>396</ele>
        <time>2016-05-08T09:46:24.000Z</time>
      </trkpt>
      <trkpt lat="47.49709" lon="6.70885">
        <ele>396</ele>
        <time>2016-05-08T09:46:25.000Z</time>
      </trkpt>
      <trkpt lat="47.49712" lon="6.70891">
        <ele>395</ele>
        <time>2016-05-08T09:46:26.000Z</time>
      </trkpt>
      <trkpt lat="47.49714" lon="6.70897">
        <ele>395</ele>
        <time>2016-05-08T09:46:27.000Z</time>
      </trkpt>
      <trkpt lat="47.49717" lon="6.70905">
        <ele>394</ele>
        <time>2016-05-08T09:46:28.000Z</time>
      </trkpt>
      <trkpt lat="47.4972" lon="6.70912">
        <ele>394</ele>
        <time>2016-05-08T09:46:29.000Z</time>
      </trkpt>
      <trkpt lat="47.4972" lon="6.7092">
        <ele>397</ele>
        <time>2016-05-08T09:46:30.000Z</time>
      </trkpt>
      <trkpt lat="47.49721" lon="6.70929">
        <ele>397</ele>
        <time>2016-05-08T09:46:31.000Z</time>
      </trkpt>
      <trkpt lat="47.49723" lon="6.70935">
        <ele>397</ele>
        <time>2016-05-08T09:46:32.000Z</time>
      </trkpt>
      <trkpt lat="47.49722" lon="6.70948">
        <ele>398</ele>
        <time>2016-05-08T09:46:33.000Z</time>
      </trkpt>
      <trkpt lat="47.49723" lon="6.70957">
        <ele>398</ele>
        <time>2016-05-08T09:46:34.000Z</time>
      </trkpt>
      <trkpt lat="47.49726" lon="6.70967">
        <ele>398</ele>
        <time>2016-05-08T09:46:35.000Z</time>
      </trkpt>
      <trkpt lat="47.49729" lon="6.70978">
        <ele>398</ele>
        <time>2016-05-08T09:46:36.000Z</time>
      </trkpt>
      <trkpt lat="47.4973" lon="6.70985">
        <ele>397</ele>
        <time>2016-05-08T09:46:37.000Z</time>
      </trkpt>
      <trkpt lat="47.4973" lon="6.70991">
        <ele>396</ele>
        <time>2016-05-08T09:46:38.000Z</time>
      </trkpt>
      <trkpt lat="47.49731" lon="6.70998">
        <ele>396</ele>
        <time>2016-05-08T09:46:39.000Z</time>
      </trkpt>
      <trkpt lat="47.49732" lon="6.71006">
        <ele>399</ele>
        <time>2016-05-08T09:46:40.000Z</time>
      </trkpt>
      <trkpt lat="47.49732" lon="6.71015">
        <ele>400</ele>
        <time>2016-05-08T09:46:41.000Z</time>
      </trkpt>
      <trkpt lat="47.49733" lon="6.71021">
        <ele>401</ele>
        <time>2016-05-08T09:46:42.000Z</time>
      </trkpt>
      <trkpt lat="47.49733" lon="6.71027">
        <ele>402</ele>
        <time>2016-05-08T09:46:43.000Z</time>
      </trkpt>
      <trkpt lat="47.49732" lon="6.71034">
        <ele>402</ele>
        <time>2016-05-08T09:46:44.000Z</time>
      </trkpt>
      <trkpt lat="47.49733" lon="6.71039">
        <ele>402</ele>
        <time>2016-05-08T09:46:46.000Z</time>
      </trkpt>
      <trkpt lat="47.49733" lon="6.71041">
        <ele>403</ele>
        <time>2016-05-08T09:46:47.000Z</time>
      </trkpt>
      <trkpt lat="47.49734" lon="6.71046">
        <ele>403</ele>
        <time>2016-05-08T09:46:48.000Z</time>
      </trkpt>
      <trkpt lat="47.49734" lon="6.7105">
        <ele>402</ele>
        <time>2016-05-08T09:46:49.000Z</time>
      </trkpt>
      <trkpt lat="47.49735" lon="6.71056">
        <ele>402</ele>
        <time>2016-05-08T09:46:51.000Z</time>
      </trkpt>
      <trkpt lat="47.49736" lon="6.71058">
        <ele>402</ele>
        <time>2016-05-08T09:46:52.000Z</time>
      </trkpt>
      <trkpt lat="47.49738" lon="6.71063">
        <ele>401</ele>
        <time>2016-05-08T09:46:55.000Z</time>
      </trkpt>
      <trkpt lat="47.49738" lon="6.71064">
        <ele>401</ele>
        <time>2016-05-08T09:46:56.000Z</time>
      </trkpt>
      <trkpt lat="47.49739" lon="6.71068">
        <ele>400</ele>
        <time>2016-05-08T09:46:58.000Z</time>
      </trkpt>
      <trkpt lat="47.49739" lon="6.71071">
        <ele>399</ele>
        <time>2016-05-08T09:46:59.000Z</time>
      </trkpt>
      <trkpt lat="47.4974" lon="6.71077">
        <ele>398</ele>
        <time>2016-05-08T09:47:01.000Z</time>
      </trkpt>
      <trkpt lat="47.49741" lon="6.71078">
        <ele>397</ele>
        <time>2016-05-08T09:47:02.000Z</time>
      </trkpt>
      <trkpt lat="47.49743" lon="6.71082">
        <ele>396</ele>
        <time>2016-05-08T09:47:04.000Z</time>
      </trkpt>
      <trkpt lat="47.49743" lon="6.71085">
        <ele>397</ele>
        <time>2016-05-08T09:47:05.000Z</time>
      </trkpt>
      <trkpt lat="47.49744" lon="6.71089">
        <ele>397</ele>
        <time>2016-05-08T09:47:07.000Z</time>
      </trkpt>
      <trkpt lat="47.49745" lon="6.71092">
        <ele>398</ele>
        <time>2016-05-08T09:47:08.000Z</time>
      </trkpt>
      <trkpt lat="47.49745" lon="6.71095">
        <ele>399</ele>
        <time>2016-05-08T09:47:09.000Z</time>
      </trkpt>
      <trkpt lat="47.49745" lon="6.71099">
        <ele>401</ele>
        <time>2016-05-08T09:47:10.000Z</time>
      </trkpt>
      <trkpt lat="47.49745" lon="6.71104">
        <ele>402</ele>
        <time>2016-05-08T09:47:11.000Z</time>
      </trkpt>
      <trkpt lat="47.49745" lon="6.71108">
        <ele>403</ele>
        <time>2016-05-08T09:47:12.000Z</time>
      </trkpt>
      <trkpt lat="47.49746" lon="6.71112">
        <ele>404</ele>
        <time>2016-05-08T09:47:13.000Z</time>
      </trkpt>
      <trkpt lat="47.49747" lon="6.71117">
        <ele>404</ele>
        <time>2016-05-08T09:47:14.000Z</time>
      </trkpt>
      <trkpt lat="47.49748" lon="6.71121">
        <ele>404</ele>
        <time>2016-05-08T09:47:15.000Z</time>
      </trkpt>
      <trkpt lat="47.49749" lon="6.71126">
        <ele>404</ele>
        <time>2016-05-08T09:47:16.000Z</time>
      </trkpt>
      <trkpt lat="47.4975" lon="6.7113">
        <ele>404</ele>
        <time>2016-05-08T09:47:17.000Z</time>
      </trkpt>
      <trkpt lat="47.4975" lon="6.71136">
        <ele>388</ele>
        <time>2016-05-08T09:47:18.000Z</time>
      </trkpt>
      <trkpt lat="47.49751" lon="6.71141">
        <ele>389</ele>
        <time>2016-05-08T09:47:19.000Z</time>
      </trkpt>
      <trkpt lat="47.49751" lon="6.71147">
        <ele>389</ele>
        <time>2016-05-08T09:47:20.000Z</time>
      </trkpt>
      <trkpt lat="47.49751" lon="6.71153">
        <ele>391</ele>
        <time>2016-05-08T09:47:21.000Z</time>
      </trkpt>
      <trkpt lat="47.49751" lon="6.71159">
        <ele>392</ele>
        <time>2016-05-08T09:47:22.000Z</time>
      </trkpt>
      <trkpt lat="47.49751" lon="6.71165">
        <ele>394</ele>
        <time>2016-05-08T09:47:23.000Z</time>
      </trkpt>
      <trkpt lat="47.4975" lon="6.7117">
        <ele>397</ele>
        <time>2016-05-08T09:47:24.000Z</time>
      </trkpt>
      <trkpt lat="47.49749" lon="6.71175">
        <ele>401</ele>
        <time>2016-05-08T09:47:25.000Z</time>
      </trkpt>
      <trkpt lat="47.49747" lon="6.71181">
        <ele>403</ele>
        <time>2016-05-08T09:47:26.000Z</time>
      </trkpt>
      <trkpt lat="47.49744" lon="6.71186">
        <ele>406</ele>
        <time>2016-05-08T09:47:27.000Z</time>
      </trkpt>
      <trkpt lat="47.49741" lon="6.71191">
        <ele>407</ele>
        <time>2016-05-08T09:47:28.000Z</time>
      </trkpt>
      <trkpt lat="47.49738" lon="6.71196">
        <ele>409</ele>
        <time>2016-05-08T09:47:29.000Z</time>
      </trkpt>
      <trkpt lat="47.49736" lon="6.712">
        <ele>410</ele>
        <time>2016-05-08T09:47:30.000Z</time>
      </trkpt>
      <trkpt lat="47.49734" lon="6.71206">
        <ele>410</ele>
        <time>2016-05-08T09:47:31.000Z</time>
      </trkpt>
      <trkpt lat="47.49733" lon="6.71212">
        <ele>411</ele>
        <time>2016-05-08T09:47:32.000Z</time>
      </trkpt>
      <trkpt lat="47.49733" lon="6.71218">
        <ele>411</ele>
        <time>2016-05-08T09:47:33.000Z</time>
      </trkpt>
      <trkpt lat="47.49735" lon="6.71224">
        <ele>410</ele>
        <time>2016-05-08T09:47:34.000Z</time>
      </trkpt>
      <trkpt lat="47.49736" lon="6.7123">
        <ele>409</ele>
        <time>2016-05-08T09:47:35.000Z</time>
      </trkpt>
      <trkpt lat="47.49738" lon="6.71236">
        <ele>408</ele>
        <time>2016-05-08T09:47:36.000Z</time>
      </trkpt>
      <trkpt lat="47.49741" lon="6.71252">
        <ele>407</ele>
        <time>2016-05-08T09:47:37.000Z</time>
      </trkpt>
      <trkpt lat="47.4974" lon="6.71259">
        <ele>409</ele>
        <time>2016-05-08T09:47:38.000Z</time>
      </trkpt>
      <trkpt lat="47.49739" lon="6.71267">
        <ele>412</ele>
        <time>2016-05-08T09:47:39.000Z</time>
      </trkpt>
      <trkpt lat="47.4974" lon="6.71274">
        <ele>413</ele>
        <time>2016-05-08T09:47:40.000Z</time>
      </trkpt>
      <trkpt lat="47.4974" lon="6.71279">
        <ele>414</ele>
        <time>2016-05-08T09:47:41.000Z</time>
      </trkpt>
      <trkpt lat="47.49742" lon="6.71285">
        <ele>415</ele>
        <time>2016-05-08T09:47:42.000Z</time>
      </trkpt>
      <trkpt lat="47.49745" lon="6.71292">
        <ele>415</ele>
        <time>2016-05-08T09:47:43.000Z</time>
      </trkpt>
      <trkpt lat="47.49746" lon="6.71298">
        <ele>415</ele>
        <time>2016-05-08T09:47:44.000Z</time>
      </trkpt>
      <trkpt lat="47.49748" lon="6.71302">
        <ele>415</ele>
        <time>2016-05-08T09:47:45.000Z</time>
      </trkpt>
      <trkpt lat="47.49749" lon="6.71308">
        <ele>415</ele>
        <time>2016-05-08T09:47:46.000Z</time>
      </trkpt>
      <trkpt lat="47.4975" lon="6.71313">
        <ele>399</ele>
        <time>2016-05-08T09:47:47.000Z</time>
      </trkpt>
      <trkpt lat="47.49751" lon="6.71319">
        <ele>401</ele>
        <time>2016-05-08T09:47:48.000Z</time>
      </trkpt>
      <trkpt lat="47.49752" lon="6.71325">
        <ele>403</ele>
        <time>2016-05-08T09:47:49.000Z</time>
      </trkpt>
      <trkpt lat="47.49752" lon="6.71331">
        <ele>406</ele>
        <time>2016-05-08T09:47:50.000Z</time>
      </trkpt>
      <trkpt lat="47.4975" lon="6.71343">
        <ele>403</ele>
        <time>2016-05-08T09:47:51.000Z</time>
      </trkpt>
      <trkpt lat="47.4975" lon="6.7135">
        <ele>401</ele>
        <time>2016-05-08T09:47:52.000Z</time>
      </trkpt>
      <trkpt lat="47.49751" lon="6.71354">
        <ele>400</ele>
        <time>2016-05-08T09:47:53.000Z</time>
      </trkpt>
      <trkpt lat="47.49752" lon="6.71359">
        <ele>399</ele>
        <time>2016-05-08T09:47:54.000Z</time>
      </trkpt>
      <trkpt lat="47.49753" lon="6.71365">
        <ele>398</ele>
        <time>2016-05-08T09:47:55.000Z</time>
      </trkpt>
      <trkpt lat="47.49754" lon="6.7137">
        <ele>398</ele>
        <time>2016-05-08T09:47:56.000Z</time>
      </trkpt>
      <trkpt lat="47.49756" lon="6.71377">
        <ele>397</ele>
        <time>2016-05-08T09:47:57.000Z</time>
      </trkpt>
      <trkpt lat="47.49756" lon="6.71383">
        <ele>397</ele>
        <time>2016-05-08T09:47:58.000Z</time>
      </trkpt>
      <trkpt lat="47.49757" lon="6.71389">
        <ele>398</ele>
        <time>2016-05-08T09:47:59.000Z</time>
      </trkpt>
      <trkpt lat="47.49757" lon="6.71396">
        <ele>399</ele>
        <time>2016-05-08T09:48:00.000Z</time>
      </trkpt>
      <trkpt lat="47.49757" lon="6.71403">
        <ele>400</ele>
        <time>2016-05-08T09:48:01.000Z</time>
      </trkpt>
      <trkpt lat="47.49757" lon="6.71409">
        <ele>402</ele>
        <time>2016-05-08T09:48:02.000Z</time>
      </trkpt>
      <trkpt lat="47.49758" lon="6.71416">
        <ele>403</ele>
        <time>2016-05-08T09:48:03.000Z</time>
      </trkpt>
      <trkpt lat="47.49759" lon="6.71422">
        <ele>401</ele>
        <time>2016-05-08T09:48:04.000Z</time>
      </trkpt>
      <trkpt lat="47.4976" lon="6.71427">
        <ele>399</ele>
        <time>2016-05-08T09:48:05.000Z</time>
      </trkpt>
      <trkpt lat="47.49761" lon="6.71432">
        <ele>398</ele>
        <time>2016-05-08T09:48:06.000Z</time>
      </trkpt>
      <trkpt lat="47.49762" lon="6.71436">
        <ele>396</ele>
        <time>2016-05-08T09:48:07.000Z</time>
      </trkpt>
      <trkpt lat="47.49761" lon="6.71441">
        <ele>396</ele>
        <time>2016-05-08T09:48:08.000Z</time>
      </trkpt>
      <trkpt lat="47.49761" lon="6.71446">
        <ele>395</ele>
        <time>2016-05-08T09:48:09.000Z</time>
      </trkpt>
      <trkpt lat="47.49761" lon="6.7145">
        <ele>394</ele>
        <time>2016-05-08T09:48:10.000Z</time>
      </trkpt>
      <trkpt lat="47.49761" lon="6.71455">
        <ele>394</ele>
        <time>2016-05-08T09:48:11.000Z</time>
      </trkpt>
      <trkpt lat="47.4976" lon="6.7146">
        <ele>394</ele>
        <time>2016-05-08T09:48:12.000Z</time>
      </trkpt>
      <trkpt lat="47.4976" lon="6.71465">
        <ele>394</ele>
        <time>2016-05-08T09:48:13.000Z</time>
      </trkpt>
      <trkpt lat="47.4976" lon="6.7147">
        <ele>394</ele>
        <time>2016-05-08T09:48:14.000Z</time>
      </trkpt>
      <trkpt lat="47.49759" lon="6.71477">
        <ele>394</ele>
        <time>2016-05-08T09:48:15.000Z</time>
      </trkpt>
      <trkpt lat="47.49759" lon="6.71484">
        <ele>395</ele>
        <time>2016-05-08T09:48:16.000Z</time>
      </trkpt>
      <trkpt lat="47.49757" lon="6.71504">
        <ele>396</ele>
        <time>2016-05-08T09:48:17.000Z</time>
      </trkpt>
      <trkpt lat="47.49756" lon="6.71513">
        <ele>393</ele>
        <time>2016-05-08T09:48:18.000Z</time>
      </trkpt>
      <trkpt lat="47.49754" lon="6.71521">
        <ele>391</ele>
        <time>2016-05-08T09:48:19.000Z</time>
      </trkpt>
      <trkpt lat="47.4975" lon="6.71529">
        <ele>390</ele>
        <time>2016-05-08T09:48:20.000Z</time>
      </trkpt>
      <trkpt lat="47.49748" lon="6.71537">
        <ele>406</ele>
        <time>2016-05-08T09:48:21.000Z</time>
      </trkpt>
      <trkpt lat="47.49745" lon="6.71546">
        <ele>406</ele>
        <time>2016-05-08T09:48:22.000Z</time>
      </trkpt>
      <trkpt lat="47.49744" lon="6.71554">
        <ele>404</ele>
        <time>2016-05-08T09:48:23.000Z</time>
      </trkpt>
      <trkpt lat="47.49745" lon="6.7156">
        <ele>403</ele>
        <time>2016-05-08T09:48:24.000Z</time>
      </trkpt>
      <trkpt lat="47.49745" lon="6.71569">
        <ele>400</ele>
        <time>2016-05-08T09:48:25.000Z</time>
      </trkpt>
      <trkpt lat="47.49744" lon="6.71576">
        <ele>397</ele>
        <time>2016-05-08T09:48:26.000Z</time>
      </trkpt>
      <trkpt lat="47.49744" lon="6.71583">
        <ele>395</ele>
        <time>2016-05-08T09:48:27.000Z</time>
      </trkpt>
      <trkpt lat="47.49744" lon="6.71589">
        <ele>394</ele>
        <time>2016-05-08T09:48:28.000Z</time>
      </trkpt>
      <trkpt lat="47.49744" lon="6.71596">
        <ele>396</ele>
        <time>2016-05-08T09:48:29.000Z</time>
      </trkpt>
      <trkpt lat="47.49744" lon="6.71602">
        <ele>397</ele>
        <time>2016-05-08T09:48:30.000Z</time>
      </trkpt>
      <trkpt lat="47.49744" lon="6.71608">
        <ele>398</ele>
        <time>2016-05-08T09:48:31.000Z</time>
      </trkpt>
      <trkpt lat="47.49743" lon="6.71614">
        <ele>399</ele>
        <time>2016-05-08T09:48:32.000Z</time>
      </trkpt>
      <trkpt lat="47.49742" lon="6.71621">
        <ele>399</ele>
        <time>2016-05-08T09:48:33.000Z</time>
      </trkpt>
      <trkpt lat="47.4974" lon="6.71628">
        <ele>399</ele>
        <time>2016-05-08T09:48:34.000Z</time>
      </trkpt>
      <trkpt lat="47.49737" lon="6.71635">
        <ele>399</ele>
        <time>2016-05-08T09:48:35.000Z</time>
      </trkpt>
      <trkpt lat="47.49735" lon="6.71642">
        <ele>399</ele>
        <time>2016-05-08T09:48:36.000Z</time>
      </trkpt>
      <trkpt lat="47.49732" lon="6.71648">
        <ele>398</ele>
        <time>2016-05-08T09:48:37.000Z</time>
      </trkpt>
      <trkpt lat="47.4973" lon="6.71654">
        <ele>398</ele>
        <time>2016-05-08T09:48:38.000Z</time>
      </trkpt>
      <trkpt lat="47.49727" lon="6.7166">
        <ele>398</ele>
        <time>2016-05-08T09:48:39.000Z</time>
      </trkpt>
      <trkpt lat="47.49725" lon="6.71666">
        <ele>399</ele>
        <time>2016-05-08T09:48:40.000Z</time>
      </trkpt>
      <trkpt lat="47.49723" lon="6.71672">
        <ele>396</ele>
        <time>2016-05-08T09:48:41.000Z</time>
      </trkpt>
      <trkpt lat="47.49721" lon="6.71678">
        <ele>397</ele>
        <time>2016-05-08T09:48:42.000Z</time>
      </trkpt>
      <trkpt lat="47.49719" lon="6.71684">
        <ele>397</ele>
        <time>2016-05-08T09:48:43.000Z</time>
      </trkpt>
      <trkpt lat="47.49718" lon="6.71689">
        <ele>397</ele>
        <time>2016-05-08T09:48:44.000Z</time>
      </trkpt>
      <trkpt lat="47.49717" lon="6.71694">
        <ele>398</ele>
        <time>2016-05-08T09:48:45.000Z</time>
      </trkpt>
      <trkpt lat="47.49716" lon="6.71699">
        <ele>398</ele>
        <time>2016-05-08T09:48:46.000Z</time>
      </trkpt>
      <trkpt lat="47.49716" lon="6.71703">
        <ele>398</ele>
        <time>2016-05-08T09:48:47.000Z</time>
      </trkpt>
      <trkpt lat="47.49716" lon="6.71706">
        <ele>397</ele>
        <time>2016-05-08T09:48:48.000Z</time>
      </trkpt>
      <trkpt lat="47.49716" lon="6.7171">
        <ele>397</ele>
        <time>2016-05-08T09:48:49.000Z</time>
      </trkpt>
      <trkpt lat="47.49716" lon="6.71717">
        <ele>397</ele>
        <time>2016-05-08T09:48:51.000Z</time>
      </trkpt>
      <trkpt lat="47.49716" lon="6.71719">
        <ele>397</ele>
        <time>2016-05-08T09:48:52.000Z</time>
      </trkpt>
      <trkpt lat="47.49715" lon="6.71725">
        <ele>397</ele>
        <time>2016-05-08T09:48:54.000Z</time>
      </trkpt>
      <trkpt lat="47.49715" lon="6.71728">
        <ele>397</ele>
        <time>2016-05-08T09:48:55.000Z</time>
      </trkpt>
      <trkpt lat="47.49715" lon="6.71732">
        <ele>396</ele>
        <time>2016-05-08T09:48:56.000Z</time>
      </trkpt>
      <trkpt lat="47.49715" lon="6.71737">
        <ele>396</ele>
        <time>2016-05-08T09:48:57.000Z</time>
      </trkpt>
      <trkpt lat="47.49715" lon="6.71741">
        <ele>396</ele>
        <time>2016-05-08T09:48:58.000Z</time>
      </trkpt>
      <trkpt lat="47.49715" lon="6.71744">
        <ele>396</ele>
        <time>2016-05-08T09:48:59.000Z</time>
      </trkpt>
      <trkpt lat="47.49714" lon="6.7175">
        <ele>396</ele>
        <time>2016-05-08T09:49:01.000Z</time>
      </trkpt>
      <trkpt lat="47.49713" lon="6.71753">
        <ele>393</ele>
        <time>2016-05-08T09:49:02.000Z</time>
      </trkpt>
      <trkpt lat="47.49711" lon="6.71758">
        <ele>394</ele>
        <time>2016-05-08T09:49:04.000Z</time>
      </trkpt>
      <trkpt lat="47.4971" lon="6.71761">
        <ele>394</ele>
        <time>2016-05-08T09:49:05.000Z</time>
      </trkpt>
      <trkpt lat="47.49709" lon="6.71764">
        <ele>394</ele>
        <time>2016-05-08T09:49:06.000Z</time>
      </trkpt>
      <trkpt lat="47.49707" lon="6.71768">
        <ele>394</ele>
        <time>2016-05-08T09:49:07.000Z</time>
      </trkpt>
      <trkpt lat="47.49706" lon="6.71773">
        <ele>394</ele>
        <time>2016-05-08T09:49:08.000Z</time>
      </trkpt>
      <trkpt lat="47.49705" lon="6.71777">
        <ele>395</ele>
        <time>2016-05-08T09:49:09.000Z</time>
      </trkpt>
      <trkpt lat="47.49705" lon="6.71782">
        <ele>394</ele>
        <time>2016-05-08T09:49:10.000Z</time>
      </trkpt>
      <trkpt lat="47.49704" lon="6.71786">
        <ele>394</ele>
        <time>2016-05-08T09:49:11.000Z</time>
      </trkpt>
      <trkpt lat="47.49703" lon="6.7179">
        <ele>394</ele>
        <time>2016-05-08T09:49:12.000Z</time>
      </trkpt>
      <trkpt lat="47.49702" lon="6.71793">
        <ele>394</ele>
        <time>2016-05-08T09:49:13.000Z</time>
      </trkpt>
      <trkpt lat="47.49701" lon="6.71797">
        <ele>395</ele>
        <time>2016-05-08T09:49:14.000Z</time>
      </trkpt>
      <trkpt lat="47.497" lon="6.718">
        <ele>395</ele>
        <time>2016-05-08T09:49:15.000Z</time>
      </trkpt>
      <trkpt lat="47.49699" lon="6.71804">
        <ele>395</ele>
        <time>2016-05-08T09:49:16.000Z</time>
      </trkpt>
      <trkpt lat="47.49697" lon="6.71808">
        <ele>395</ele>
        <time>2016-05-08T09:49:17.000Z</time>
      </trkpt>
      <trkpt lat="47.49697" lon="6.71811">
        <ele>395</ele>
        <time>2016-05-08T09:49:18.000Z</time>
      </trkpt>
      <trkpt lat="47.49696" lon="6.71814">
        <ele>395</ele>
        <time>2016-05-08T09:49:19.000Z</time>
      </trkpt>
      <trkpt lat="47.49696" lon="6.71818">
        <ele>395</ele>
        <time>2016-05-08T09:49:20.000Z</time>
      </trkpt>
      <trkpt lat="47.49696" lon="6.71821">
        <ele>395</ele>
        <time>2016-05-08T09:49:21.000Z</time>
      </trkpt>
      <trkpt lat="47.49696" lon="6.71828">
        <ele>395</ele>
        <time>2016-05-08T09:49:23.000Z</time>
      </trkpt>
      <trkpt lat="47.49696" lon="6.71831">
        <ele>395</ele>
        <time>2016-05-08T09:49:24.000Z</time>
      </trkpt>
      <trkpt lat="47.49696" lon="6.71834">
        <ele>393</ele>
        <time>2016-05-08T09:49:25.000Z</time>
      </trkpt>
      <trkpt lat="47.49695" lon="6.71838">
        <ele>393</ele>
        <time>2016-05-08T09:49:26.000Z</time>
      </trkpt>
      <trkpt lat="47.49695" lon="6.71842">
        <ele>393</ele>
        <time>2016-05-08T09:49:27.000Z</time>
      </trkpt>
      <trkpt lat="47.49695" lon="6.71847">
        <ele>393</ele>
        <time>2016-05-08T09:49:28.000Z</time>
      </trkpt>
      <trkpt lat="47.49695" lon="6.71852">
        <ele>393</ele>
        <time>2016-05-08T09:49:29.000Z</time>
      </trkpt>
      <trkpt lat="47.49694" lon="6.71857">
        <ele>393</ele>
        <time>2016-05-08T09:49:30.000Z</time>
      </trkpt>
      <trkpt lat="47.49695" lon="6.71863">
        <ele>392</ele>
        <time>2016-05-08T09:49:31.000Z</time>
      </trkpt>
      <trkpt lat="47.49695" lon="6.71869">
        <ele>392</ele>
        <time>2016-05-08T09:49:32.000Z</time>
      </trkpt>
      <trkpt lat="47.49695" lon="6.71875">
        <ele>392</ele>
        <time>2016-05-08T09:49:33.000Z</time>
      </trkpt>
      <trkpt lat="47.49694" lon="6.71881">
        <ele>392</ele>
        <time>2016-05-08T09:49:34.000Z</time>
      </trkpt>
      <trkpt lat="47.49694" lon="6.71888">
        <ele>392</ele>
        <time>2016-05-08T09:49:35.000Z</time>
      </trkpt>
      <trkpt lat="47.49693" lon="6.71895">
        <ele>392</ele>
        <time>2016-05-08T09:49:36.000Z</time>
      </trkpt>
      <trkpt lat="47.49692" lon="6.71902">
        <ele>392</ele>
        <time>2016-05-08T09:49:37.000Z</time>
      </trkpt>
      <trkpt lat="47.49693" lon="6.7191">
        <ele>392</ele>
        <time>2016-05-08T09:49:38.000Z</time>
      </trkpt>
      <trkpt lat="47.49694" lon="6.71918">
        <ele>390</ele>
        <time>2016-05-08T09:49:39.000Z</time>
      </trkpt>
      <trkpt lat="47.49695" lon="6.71927">
        <ele>390</ele>
        <time>2016-05-08T09:49:40.000Z</time>
      </trkpt>
      <trkpt lat="47.49696" lon="6.71936">
        <ele>389</ele>
        <time>2016-05-08T09:49:41.000Z</time>
      </trkpt>
      <trkpt lat="47.49697" lon="6.71945">
        <ele>389</ele>
        <time>2016-05-08T09:49:42.000Z</time>
      </trkpt>
      <trkpt lat="47.49691" lon="6.71971">
        <ele>389</ele>
        <time>2016-05-08T09:49:43.000Z</time>
      </trkpt>
      <trkpt lat="47.49689" lon="6.71981">
        <ele>389</ele>
        <time>2016-05-08T09:49:44.000Z</time>
      </trkpt>
      <trkpt lat="47.49686" lon="6.71992">
        <ele>390</ele>
        <time>2016-05-08T09:49:45.000Z</time>
      </trkpt>
      <trkpt lat="47.49685" lon="6.72001">
        <ele>388</ele>
        <time>2016-05-08T09:49:46.000Z</time>
      </trkpt>
      <trkpt lat="47.49683" lon="6.7201">
        <ele>388</ele>
        <time>2016-05-08T09:49:47.000Z</time>
      </trkpt>
      <trkpt lat="47.49683" lon="6.72019">
        <ele>387</ele>
        <time>2016-05-08T09:49:48.000Z</time>
      </trkpt>
      <trkpt lat="47.49683" lon="6.72026">
        <ele>386</ele>
        <time>2016-05-08T09:49:49.000Z</time>
      </trkpt>
      <trkpt lat="47.49683" lon="6.72033">
        <ele>386</ele>
        <time>2016-05-08T09:49:50.000Z</time>
      </trkpt>
      <trkpt lat="47.49682" lon="6.7204">
        <ele>385</ele>
        <time>2016-05-08T09:49:51.000Z</time>
      </trkpt>
      <trkpt lat="47.49683" lon="6.72049">
        <ele>385</ele>
        <time>2016-05-08T09:49:52.000Z</time>
      </trkpt>
      <trkpt lat="47.49683" lon="6.72058">
        <ele>385</ele>
        <time>2016-05-08T09:49:53.000Z</time>
      </trkpt>
      <trkpt lat="47.49682" lon="6.72065">
        <ele>385</ele>
        <time>2016-05-08T09:49:54.000Z</time>
      </trkpt>
      <trkpt lat="47.4968" lon="6.7208">
        <ele>386</ele>
        <time>2016-05-08T09:49:55.000Z</time>
      </trkpt>
      <trkpt lat="47.4968" lon="6.72095">
        <ele>382</ele>
        <time>2016-05-08T09:49:56.000Z</time>
      </trkpt>
      <trkpt lat="47.49679" lon="6.7211">
        <ele>380</ele>
        <time>2016-05-08T09:49:57.000Z</time>
      </trkpt>
      <trkpt lat="47.49677" lon="6.72124">
        <ele>379</ele>
        <time>2016-05-08T09:49:58.000Z</time>
      </trkpt>
      <trkpt lat="47.49675" lon="6.72137">
        <ele>378</ele>
        <time>2016-05-08T09:49:59.000Z</time>
      </trkpt>
      <trkpt lat="47.49672" lon="6.7215">
        <ele>378</ele>
        <time>2016-05-08T09:50:00.000Z</time>
      </trkpt>
      <trkpt lat="47.49667" lon="6.72163">
        <ele>379</ele>
        <time>2016-05-08T09:50:01.000Z</time>
      </trkpt>
      <trkpt lat="47.49664" lon="6.72174">
        <ele>382</ele>
        <time>2016-05-08T09:50:02.000Z</time>
      </trkpt>
      <trkpt lat="47.49663" lon="6.72183">
        <ele>384</ele>
        <time>2016-05-08T09:50:03.000Z</time>
      </trkpt>
      <trkpt lat="47.4966" lon="6.72192">
        <ele>386</ele>
        <time>2016-05-08T09:50:04.000Z</time>
      </trkpt>
      <trkpt lat="47.49659" lon="6.72199">
        <ele>386</ele>
        <time>2016-05-08T09:50:05.000Z</time>
      </trkpt>
      <trkpt lat="47.49657" lon="6.72203">
        <ele>386</ele>
        <time>2016-05-08T09:50:06.000Z</time>
      </trkpt>
      <trkpt lat="47.49656" lon="6.72209">
        <ele>386</ele>
        <time>2016-05-08T09:50:07.000Z</time>
      </trkpt>
      <trkpt lat="47.49655" lon="6.72212">
        <ele>386</ele>
        <time>2016-05-08T09:50:08.000Z</time>
      </trkpt>
      <trkpt lat="47.49653" lon="6.72216">
        <ele>386</ele>
        <time>2016-05-08T09:50:09.000Z</time>
      </trkpt>
      <trkpt lat="47.49652" lon="6.72219">
        <ele>386</ele>
        <time>2016-05-08T09:50:10.000Z</time>
      </trkpt>
      <trkpt lat="47.49649" lon="6.72224">
        <ele>386</ele>
        <time>2016-05-08T09:50:11.000Z</time>
      </trkpt>
      <trkpt lat="47.49649" lon="6.72228">
        <ele>385</ele>
        <time>2016-05-08T09:50:12.000Z</time>
      </trkpt>
      <trkpt lat="47.49649" lon="6.72233">
        <ele>384</ele>
        <time>2016-05-08T09:50:13.000Z</time>
      </trkpt>
      <trkpt lat="47.49648" lon="6.72236">
        <ele>384</ele>
        <time>2016-05-08T09:50:14.000Z</time>
      </trkpt>
      <trkpt lat="47.49647" lon="6.7224">
        <ele>384</ele>
        <time>2016-05-08T09:50:15.000Z</time>
      </trkpt>
      <trkpt lat="47.49646" lon="6.72245">
        <ele>384</ele>
        <time>2016-05-08T09:50:16.000Z</time>
      </trkpt>
      <trkpt lat="47.49645" lon="6.7225">
        <ele>381</ele>
        <time>2016-05-08T09:50:17.000Z</time>
      </trkpt>
      <trkpt lat="47.49644" lon="6.72256">
        <ele>382</ele>
        <time>2016-05-08T09:50:18.000Z</time>
      </trkpt>
      <trkpt lat="47.49643" lon="6.72263">
        <ele>382</ele>
        <time>2016-05-08T09:50:19.000Z</time>
      </trkpt>
      <trkpt lat="47.49643" lon="6.7227">
        <ele>383</ele>
        <time>2016-05-08T09:50:20.000Z</time>
      </trkpt>
      <trkpt lat="47.49647" lon="6.7229">
        <ele>382</ele>
        <time>2016-05-08T09:50:21.000Z</time>
      </trkpt>
      <trkpt lat="47.49646" lon="6.72301">
        <ele>382</ele>
        <time>2016-05-08T09:50:22.000Z</time>
      </trkpt>
      <trkpt lat="47.49646" lon="6.72309">
        <ele>382</ele>
        <time>2016-05-08T09:50:23.000Z</time>
      </trkpt>
      <trkpt lat="47.49647" lon="6.7232">
        <ele>380</ele>
        <time>2016-05-08T09:50:24.000Z</time>
      </trkpt>
      <trkpt lat="47.49652" lon="6.72334">
        <ele>376</ele>
        <time>2016-05-08T09:50:25.000Z</time>
      </trkpt>
      <trkpt lat="47.49654" lon="6.72347">
        <ele>376</ele>
        <time>2016-05-08T09:50:26.000Z</time>
      </trkpt>
      <trkpt lat="47.49652" lon="6.72361">
        <ele>377</ele>
        <time>2016-05-08T09:50:27.000Z</time>
      </trkpt>
      <trkpt lat="47.49652" lon="6.72373">
        <ele>377</ele>
        <time>2016-05-08T09:50:28.000Z</time>
      </trkpt>
      <trkpt lat="47.49649" lon="6.72388">
        <ele>377</ele>
        <time>2016-05-08T09:50:29.000Z</time>
      </trkpt>
      <trkpt lat="47.49648" lon="6.72402">
        <ele>375</ele>
        <time>2016-05-08T09:50:30.000Z</time>
      </trkpt>
      <trkpt lat="47.49644" lon="6.72415">
        <ele>375</ele>
        <time>2016-05-08T09:50:31.000Z</time>
      </trkpt>
      <trkpt lat="47.4964" lon="6.72428">
        <ele>372</ele>
        <time>2016-05-08T09:50:32.000Z</time>
      </trkpt>
      <trkpt lat="47.49633" lon="6.72439">
        <ele>373</ele>
        <time>2016-05-08T09:50:33.000Z</time>
      </trkpt>
      <trkpt lat="47.49626" lon="6.72448">
        <ele>374</ele>
        <time>2016-05-08T09:50:34.000Z</time>
      </trkpt>
      <trkpt lat="47.49618" lon="6.72451">
        <ele>375</ele>
        <time>2016-05-08T09:50:35.000Z</time>
      </trkpt>
      <trkpt lat="47.49612" lon="6.72455">
        <ele>375</ele>
        <time>2016-05-08T09:50:36.000Z</time>
      </trkpt>
      <trkpt lat="47.49603" lon="6.72459">
        <ele>376</ele>
        <time>2016-05-08T09:50:37.000Z</time>
      </trkpt>
      <trkpt lat="47.49597" lon="6.72463">
        <ele>376</ele>
        <time>2016-05-08T09:50:38.000Z</time>
      </trkpt>
      <trkpt lat="47.49593" lon="6.72466">
        <ele>376</ele>
        <time>2016-05-08T09:50:39.000Z</time>
      </trkpt>
      <trkpt lat="47.4959" lon="6.72471">
        <ele>376</ele>
        <time>2016-05-08T09:50:40.000Z</time>
      </trkpt>
      <trkpt lat="47.49586" lon="6.72476">
        <ele>376</ele>
        <time>2016-05-08T09:50:41.000Z</time>
      </trkpt>
      <trkpt lat="47.49583" lon="6.72482">
        <ele>383</ele>
        <time>2016-05-08T09:50:42.000Z</time>
      </trkpt>
      <trkpt lat="47.49579" lon="6.72489">
        <ele>382</ele>
        <time>2016-05-08T09:50:43.000Z</time>
      </trkpt>
      <trkpt lat="47.49577" lon="6.72494">
        <ele>381</ele>
        <time>2016-05-08T09:50:43.998Z</time>
      </trkpt>
      <trkpt lat="47.4957" lon="6.72499">
        <ele>382</ele>
        <time>2016-05-08T09:50:45.000Z</time>
      </trkpt>
      <trkpt lat="47.49568" lon="6.72505">
        <ele>379</ele>
        <time>2016-05-08T09:50:46.000Z</time>
      </trkpt>
      <trkpt lat="47.49566" lon="6.72509">
        <ele>379</ele>
        <time>2016-05-08T09:50:47.000Z</time>
      </trkpt>
      <trkpt lat="47.49564" lon="6.72512">
        <ele>380</ele>
        <time>2016-05-08T09:50:48.000Z</time>
      </trkpt>
      <trkpt lat="47.49563" lon="6.72517">
        <ele>380</ele>
        <time>2016-05-08T09:50:49.000Z</time>
      </trkpt>
      <trkpt lat="47.49563" lon="6.72521">
        <ele>380</ele>
        <time>2016-05-08T09:50:50.000Z</time>
      </trkpt>
      <trkpt lat="47.49562" lon="6.72526">
        <ele>380</ele>
        <time>2016-05-08T09:50:51.000Z</time>
      </trkpt>
      <trkpt lat="47.49563" lon="6.72532">
        <ele>379</ele>
        <time>2016-05-08T09:50:52.000Z</time>
      </trkpt>
      <trkpt lat="47.49564" lon="6.72539">
        <ele>379</ele>
        <time>2016-05-08T09:50:53.000Z</time>
      </trkpt>
      <trkpt lat="47.49565" lon="6.72547">
        <ele>379</ele>
        <time>2016-05-08T09:50:54.000Z</time>
      </trkpt>
      <trkpt lat="47.49566" lon="6.72554">
        <ele>378</ele>
        <time>2016-05-08T09:50:55.000Z</time>
      </trkpt>
      <trkpt lat="47.49567" lon="6.72561">
        <ele>377</ele>
        <time>2016-05-08T09:50:56.000Z</time>
      </trkpt>
      <trkpt lat="47.49568" lon="6.72568">
        <ele>376</ele>
        <time>2016-05-08T09:50:57.000Z</time>
      </trkpt>
      <trkpt lat="47.49568" lon="6.72575">
        <ele>375</ele>
        <time>2016-05-08T09:50:58.000Z</time>
      </trkpt>
      <trkpt lat="47.49568" lon="6.72581">
        <ele>375</ele>
        <time>2016-05-08T09:50:59.000Z</time>
      </trkpt>
      <trkpt lat="47.49568" lon="6.72587">
        <ele>373</ele>
        <time>2016-05-08T09:51:00.000Z</time>
      </trkpt>
      <trkpt lat="47.49567" lon="6.72594">
        <ele>374</ele>
        <time>2016-05-08T09:51:01.000Z</time>
      </trkpt>
      <trkpt lat="47.49566" lon="6.726">
        <ele>374</ele>
        <time>2016-05-08T09:51:02.000Z</time>
      </trkpt>
      <trkpt lat="47.49564" lon="6.72606">
        <ele>375</ele>
        <time>2016-05-08T09:51:03.000Z</time>
      </trkpt>
      <trkpt lat="47.49562" lon="6.72613">
        <ele>375</ele>
        <time>2016-05-08T09:51:04.000Z</time>
      </trkpt>
      <trkpt lat="47.49561" lon="6.7262">
        <ele>375</ele>
        <time>2016-05-08T09:51:05.000Z</time>
      </trkpt>
      <trkpt lat="47.49559" lon="6.72626">
        <ele>375</ele>
        <time>2016-05-08T09:51:06.000Z</time>
      </trkpt>
      <trkpt lat="47.49557" lon="6.72632">
        <ele>375</ele>
        <time>2016-05-08T09:51:07.000Z</time>
      </trkpt>
      <trkpt lat="47.49555" lon="6.72638">
        <ele>375</ele>
        <time>2016-05-08T09:51:08.000Z</time>
      </trkpt>
      <trkpt lat="47.49554" lon="6.72644">
        <ele>375</ele>
        <time>2016-05-08T09:51:09.000Z</time>
      </trkpt>
      <trkpt lat="47.49553" lon="6.7265">
        <ele>375</ele>
        <time>2016-05-08T09:51:10.000Z</time>
      </trkpt>
      <trkpt lat="47.49552" lon="6.72656">
        <ele>375</ele>
        <time>2016-05-08T09:51:11.000Z</time>
      </trkpt>
      <trkpt lat="47.49552" lon="6.72661">
        <ele>375</ele>
        <time>2016-05-08T09:51:12.000Z</time>
      </trkpt>
      <trkpt lat="47.49551" lon="6.72665">
        <ele>375</ele>
        <time>2016-05-08T09:51:13.000Z</time>
      </trkpt>
      <trkpt lat="47.49551" lon="6.7267">
        <ele>374</ele>
        <time>2016-05-08T09:51:14.000Z</time>
      </trkpt>
      <trkpt lat="47.4955" lon="6.72676">
        <ele>374</ele>
        <time>2016-05-08T09:51:15.000Z</time>
      </trkpt>
      <trkpt lat="47.4955" lon="6.72681">
        <ele>374</ele>
        <time>2016-05-08T09:51:16.000Z</time>
      </trkpt>
      <trkpt lat="47.49549" lon="6.72686">
        <ele>374</ele>
        <time>2016-05-08T09:51:17.000Z</time>
      </trkpt>
      <trkpt lat="47.49549" lon="6.72691">
        <ele>374</ele>
        <time>2016-05-08T09:51:18.000Z</time>
      </trkpt>
      <trkpt lat="47.49549" lon="6.72696">
        <ele>374</ele>
        <time>2016-05-08T09:51:19.000Z</time>
      </trkpt>
      <trkpt lat="47.49548" lon="6.72701">
        <ele>374</ele>
        <time>2016-05-08T09:51:20.000Z</time>
      </trkpt>
      <trkpt lat="47.49547" lon="6.72706">
        <ele>374</ele>
        <time>2016-05-08T09:51:21.000Z</time>
      </trkpt>
      <trkpt lat="47.49545" lon="6.7271">
        <ele>375</ele>
        <time>2016-05-08T09:51:22.000Z</time>
      </trkpt>
      <trkpt lat="47.49544" lon="6.72715">
        <ele>375</ele>
        <time>2016-05-08T09:51:23.000Z</time>
      </trkpt>
      <trkpt lat="47.49542" lon="6.7272">
        <ele>375</ele>
        <time>2016-05-08T09:51:24.000Z</time>
      </trkpt>
      <trkpt lat="47.49541" lon="6.72725">
        <ele>375</ele>
        <time>2016-05-08T09:51:25.000Z</time>
      </trkpt>
      <trkpt lat="47.49539" lon="6.72731">
        <ele>375</ele>
        <time>2016-05-08T09:51:26.000Z</time>
      </trkpt>
      <trkpt lat="47.49537" lon="6.72737">
        <ele>375</ele>
        <time>2016-05-08T09:51:27.000Z</time>
      </trkpt>
      <trkpt lat="47.49535" lon="6.72744">
        <ele>376</ele>
        <time>2016-05-08T09:51:28.000Z</time>
      </trkpt>
      <trkpt lat="47.49534" lon="6.7275">
        <ele>372</ele>
        <time>2016-05-08T09:51:29.000Z</time>
      </trkpt>
      <trkpt lat="47.49532" lon="6.72757">
        <ele>372</ele>
        <time>2016-05-08T09:51:30.000Z</time>
      </trkpt>
      <trkpt lat="47.4953" lon="6.72763">
        <ele>372</ele>
        <time>2016-05-08T09:51:31.000Z</time>
      </trkpt>
      <trkpt lat="47.49527" lon="6.72773">
        <ele>372</ele>
        <time>2016-05-08T09:51:32.000Z</time>
      </trkpt>
      <trkpt lat="47.49525" lon="6.7278">
        <ele>372</ele>
        <time>2016-05-08T09:51:33.000Z</time>
      </trkpt>
      <trkpt lat="47.49524" lon="6.72787">
        <ele>371</ele>
        <time>2016-05-08T09:51:34.000Z</time>
      </trkpt>
      <trkpt lat="47.49524" lon="6.72794">
        <ele>371</ele>
        <time>2016-05-08T09:51:35.000Z</time>
      </trkpt>
      <trkpt lat="47.49521" lon="6.72801">
        <ele>371</ele>
        <time>2016-05-08T09:51:36.000Z</time>
      </trkpt>
      <trkpt lat="47.49519" lon="6.72808">
        <ele>371</ele>
        <time>2016-05-08T09:51:37.000Z</time>
      </trkpt>
      <trkpt lat="47.49518" lon="6.72813">
        <ele>371</ele>
        <time>2016-05-08T09:51:38.000Z</time>
      </trkpt>
      <trkpt lat="47.49517" lon="6.72819">
        <ele>372</ele>
        <time>2016-05-08T09:51:39.000Z</time>
      </trkpt>
      <trkpt lat="47.49517" lon="6.72826">
        <ele>372</ele>
        <time>2016-05-08T09:51:40.000Z</time>
      </trkpt>
      <trkpt lat="47.49516" lon="6.72832">
        <ele>372</ele>
        <time>2016-05-08T09:51:41.000Z</time>
      </trkpt>
      <trkpt lat="47.49516" lon="6.72839">
        <ele>368</ele>
        <time>2016-05-08T09:51:42.000Z</time>
      </trkpt>
      <trkpt lat="47.49516" lon="6.72848">
        <ele>367</ele>
        <time>2016-05-08T09:51:43.000Z</time>
      </trkpt>
      <trkpt lat="47.49515" lon="6.72856">
        <ele>366</ele>
        <time>2016-05-08T09:51:44.000Z</time>
      </trkpt>
      <trkpt lat="47.49515" lon="6.72865">
        <ele>365</ele>
        <time>2016-05-08T09:51:45.000Z</time>
      </trkpt>
      <trkpt lat="47.49512" lon="6.72877">
        <ele>364</ele>
        <time>2016-05-08T09:51:46.000Z</time>
      </trkpt>
      <trkpt lat="47.49511" lon="6.72888">
        <ele>364</ele>
        <time>2016-05-08T09:51:47.000Z</time>
      </trkpt>
      <trkpt lat="47.49511" lon="6.72898">
        <ele>365</ele>
        <time>2016-05-08T09:51:48.000Z</time>
      </trkpt>
      <trkpt lat="47.49516" lon="6.72911">
        <ele>365</ele>
        <time>2016-05-08T09:51:49.000Z</time>
      </trkpt>
      <trkpt lat="47.49518" lon="6.72923">
        <ele>362</ele>
        <time>2016-05-08T09:51:50.000Z</time>
      </trkpt>
      <trkpt lat="47.49522" lon="6.72937">
        <ele>360</ele>
        <time>2016-05-08T09:51:51.000Z</time>
      </trkpt>
      <trkpt lat="47.49525" lon="6.72951">
        <ele>359</ele>
        <time>2016-05-08T09:51:52.000Z</time>
      </trkpt>
      <trkpt lat="47.49528" lon="6.72959">
        <ele>359</ele>
        <time>2016-05-08T09:51:53.000Z</time>
      </trkpt>
      <trkpt lat="47.49531" lon="6.72965">
        <ele>358</ele>
        <time>2016-05-08T09:51:54.000Z</time>
      </trkpt>
      <trkpt lat="47.49534" lon="6.72971">
        <ele>358</ele>
        <time>2016-05-08T09:51:55.000Z</time>
      </trkpt>
      <trkpt lat="47.49534" lon="6.72976">
        <ele>358</ele>
        <time>2016-05-08T09:51:56.000Z</time>
      </trkpt>
      <trkpt lat="47.49533" lon="6.72979">
        <ele>358</ele>
        <time>2016-05-08T09:51:57.000Z</time>
      </trkpt>
      <trkpt lat="47.49533" lon="6.72984">
        <ele>358</ele>
        <time>2016-05-08T09:51:58.000Z</time>
      </trkpt>
      <trkpt lat="47.49532" lon="6.72988">
        <ele>358</ele>
        <time>2016-05-08T09:51:59.000Z</time>
      </trkpt>
      <trkpt lat="47.49534" lon="6.72991">
        <ele>358</ele>
        <time>2016-05-08T09:52:01.000Z</time>
      </trkpt>
      <trkpt lat="47.49534" lon="6.72994">
        <ele>358</ele>
        <time>2016-05-08T09:52:02.000Z</time>
      </trkpt>
      <trkpt lat="47.49537" lon="6.72997">
        <ele>358</ele>
        <time>2016-05-08T09:52:08.000Z</time>
      </trkpt>
      <trkpt lat="47.49539" lon="6.72997">
        <ele>357</ele>
        <time>2016-05-08T09:52:09.000Z</time>
      </trkpt>
      <trkpt lat="47.49541" lon="6.73002">
        <ele>357</ele>
        <time>2016-05-08T09:52:35.000Z</time>
      </trkpt>
      <trkpt lat="47.49542" lon="6.73003">
        <ele>357</ele>
        <time>2016-05-08T09:52:36.000Z</time>
      </trkpt>
      <trkpt lat="47.49543" lon="6.73008">
        <ele>356</ele>
        <time>2016-05-08T09:53:32.000Z</time>
      </trkpt>
      <trkpt lat="47.49542" lon="6.7301">
        <ele>356</ele>
        <time>2016-05-08T09:53:33.000Z</time>
      </trkpt>
      <trkpt lat="47.4954" lon="6.73013">
        <ele>357</ele>
        <time>2016-05-08T09:53:34.000Z</time>
      </trkpt>
      <trkpt lat="47.49537" lon="6.73015">
        <ele>357</ele>
        <time>2016-05-08T09:53:35.000Z</time>
      </trkpt>
      <trkpt lat="47.49535" lon="6.73017">
        <ele>357</ele>
        <time>2016-05-08T09:53:36.000Z</time>
      </trkpt>
      <trkpt lat="47.49532" lon="6.73019">
        <ele>358</ele>
        <time>2016-05-08T09:53:37.000Z</time>
      </trkpt>
      <trkpt lat="47.49529" lon="6.73021">
        <ele>358</ele>
        <time>2016-05-08T09:53:38.000Z</time>
      </trkpt>
      <trkpt lat="47.49527" lon="6.73024">
        <ele>358</ele>
        <time>2016-05-08T09:53:39.000Z</time>
      </trkpt>
      <trkpt lat="47.49524" lon="6.73027">
        <ele>358</ele>
        <time>2016-05-08T09:53:40.000Z</time>
      </trkpt>
      <trkpt lat="47.49522" lon="6.73029">
        <ele>359</ele>
        <time>2016-05-08T09:53:41.000Z</time>
      </trkpt>
      <trkpt lat="47.49518" lon="6.73033">
        <ele>359</ele>
        <time>2016-05-08T09:53:42.000Z</time>
      </trkpt>
      <trkpt lat="47.49515" lon="6.73036">
        <ele>359</ele>
        <time>2016-05-08T09:53:43.000Z</time>
      </trkpt>
      <trkpt lat="47.49513" lon="6.73039">
        <ele>359</ele>
        <time>2016-05-08T09:53:44.000Z</time>
      </trkpt>
      <trkpt lat="47.49511" lon="6.73042">
        <ele>359</ele>
        <time>2016-05-08T09:53:45.000Z</time>
      </trkpt>
      <trkpt lat="47.4951" lon="6.73044">
        <ele>359</ele>
        <time>2016-05-08T09:53:46.000Z</time>
      </trkpt>
      <trkpt lat="47.49508" lon="6.73047">
        <ele>359</ele>
        <time>2016-05-08T09:53:47.000Z</time>
      </trkpt>
      <trkpt lat="47.49507" lon="6.7305">
        <ele>360</ele>
        <time>2016-05-08T09:53:48.000Z</time>
      </trkpt>
      <trkpt lat="47.49504" lon="6.73055">
        <ele>360</ele>
        <time>2016-05-08T09:53:50.000Z</time>
      </trkpt>
      <trkpt lat="47.49502" lon="6.73058">
        <ele>360</ele>
        <time>2016-05-08T09:53:51.000Z</time>
      </trkpt>
      <trkpt lat="47.49501" lon="6.7306">
        <ele>361</ele>
        <time>2016-05-08T09:53:52.000Z</time>
      </trkpt>
      <trkpt lat="47.49498" lon="6.73063">
        <ele>369</ele>
        <time>2016-05-08T09:53:53.000Z</time>
      </trkpt>
      <trkpt lat="47.49496" lon="6.73065">
        <ele>369</ele>
        <time>2016-05-08T09:53:54.000Z</time>
      </trkpt>
      <trkpt lat="47.49494" lon="6.73067">
        <ele>369</ele>
        <time>2016-05-08T09:53:55.000Z</time>
      </trkpt>
      <trkpt lat="47.49491" lon="6.73069">
        <ele>369</ele>
        <time>2016-05-08T09:53:56.000Z</time>
      </trkpt>
      <trkpt lat="47.49489" lon="6.73071">
        <ele>369</ele>
        <time>2016-05-08T09:53:57.000Z</time>
      </trkpt>
      <trkpt lat="47.49488" lon="6.73074">
        <ele>368</ele>
        <time>2016-05-08T09:53:58.000Z</time>
      </trkpt>
      <trkpt lat="47.49486" lon="6.73077">
        <ele>368</ele>
        <time>2016-05-08T09:53:59.000Z</time>
      </trkpt>
      <trkpt lat="47.49484" lon="6.73082">
        <ele>369</ele>
        <time>2016-05-08T09:54:01.000Z</time>
      </trkpt>
      <trkpt lat="47.49483" lon="6.73085">
        <ele>368</ele>
        <time>2016-05-08T09:54:02.000Z</time>
      </trkpt>
      <trkpt lat="47.49481" lon="6.73091">
        <ele>369</ele>
        <time>2016-05-08T09:54:04.000Z</time>
      </trkpt>
      <trkpt lat="47.49481" lon="6.73094">
        <ele>369</ele>
        <time>2016-05-08T09:54:05.000Z</time>
      </trkpt>
      <trkpt lat="47.49481" lon="6.73098">
        <ele>369</ele>
        <time>2016-05-08T09:54:06.000Z</time>
      </trkpt>
      <trkpt lat="47.49481" lon="6.73102">
        <ele>369</ele>
        <time>2016-05-08T09:54:07.000Z</time>
      </trkpt>
      <trkpt lat="47.49481" lon="6.73107">
        <ele>369</ele>
        <time>2016-05-08T09:54:08.000Z</time>
      </trkpt>
      <trkpt lat="47.49481" lon="6.73112">
        <ele>369</ele>
        <time>2016-05-08T09:54:09.000Z</time>
      </trkpt>
      <trkpt lat="47.49482" lon="6.73117">
        <ele>369</ele>
        <time>2016-05-08T09:54:10.000Z</time>
      </trkpt>
      <trkpt lat="47.49482" lon="6.73122">
        <ele>369</ele>
        <time>2016-05-08T09:54:11.000Z</time>
      </trkpt>
      <trkpt lat="47.49483" lon="6.73127">
        <ele>369</ele>
        <time>2016-05-08T09:54:12.000Z</time>
      </trkpt>
      <trkpt lat="47.49484" lon="6.73132">
        <ele>368</ele>
        <time>2016-05-08T09:54:13.000Z</time>
      </trkpt>
      <trkpt lat="47.49485" lon="6.73137">
        <ele>368</ele>
        <time>2016-05-08T09:54:14.000Z</time>
      </trkpt>
      <trkpt lat="47.49486" lon="6.73142">
        <ele>368</ele>
        <time>2016-05-08T09:54:15.000Z</time>
      </trkpt>
      <trkpt lat="47.49487" lon="6.73146">
        <ele>367</ele>
        <time>2016-05-08T09:54:16.000Z</time>
      </trkpt>
      <trkpt lat="47.49488" lon="6.7315">
        <ele>367</ele>
        <time>2016-05-08T09:54:17.000Z</time>
      </trkpt>
      <trkpt lat="47.49489" lon="6.73155">
        <ele>366</ele>
        <time>2016-05-08T09:54:18.000Z</time>
      </trkpt>
      <trkpt lat="47.49489" lon="6.7316">
        <ele>365</ele>
        <time>2016-05-08T09:54:19.000Z</time>
      </trkpt>
      <trkpt lat="47.49491" lon="6.73167">
        <ele>364</ele>
        <time>2016-05-08T09:54:20.000Z</time>
      </trkpt>
      <trkpt lat="47.49492" lon="6.73173">
        <ele>362</ele>
        <time>2016-05-08T09:54:21.000Z</time>
      </trkpt>
      <trkpt lat="47.49497" lon="6.73186">
        <ele>362</ele>
        <time>2016-05-08T09:54:22.000Z</time>
      </trkpt>
      <trkpt lat="47.495" lon="6.73192">
        <ele>362</ele>
        <time>2016-05-08T09:54:23.000Z</time>
      </trkpt>
      <trkpt lat="47.49501" lon="6.73199">
        <ele>353</ele>
        <time>2016-05-08T09:54:24.000Z</time>
      </trkpt>
      <trkpt lat="47.49501" lon="6.73204">
        <ele>353</ele>
        <time>2016-05-08T09:54:25.000Z</time>
      </trkpt>
      <trkpt lat="47.49499" lon="6.73211">
        <ele>361</ele>
        <time>2016-05-08T09:54:26.000Z</time>
      </trkpt>
      <trkpt lat="47.49498" lon="6.73218">
        <ele>360</ele>
        <time>2016-05-08T09:54:27.000Z</time>
      </trkpt>
      <trkpt lat="47.49495" lon="6.73226">
        <ele>359</ele>
        <time>2016-05-08T09:54:28.000Z</time>
      </trkpt>
      <trkpt lat="47.49493" lon="6.73234">
        <ele>358</ele>
        <time>2016-05-08T09:54:29.000Z</time>
      </trkpt>
      <trkpt lat="47.49492" lon="6.7324">
        <ele>356</ele>
        <time>2016-05-08T09:54:30.000Z</time>
      </trkpt>
      <trkpt lat="47.49491" lon="6.73246">
        <ele>356</ele>
        <time>2016-05-08T09:54:31.000Z</time>
      </trkpt>
      <trkpt lat="47.49488" lon="6.73252">
        <ele>353</ele>
        <time>2016-05-08T09:54:32.000Z</time>
      </trkpt>
      <trkpt lat="47.49486" lon="6.73259">
        <ele>353</ele>
        <time>2016-05-08T09:54:33.000Z</time>
      </trkpt>
      <trkpt lat="47.49484" lon="6.73268">
        <ele>353</ele>
        <time>2016-05-08T09:54:34.000Z</time>
      </trkpt>
      <trkpt lat="47.49482" lon="6.73277">
        <ele>354</ele>
        <time>2016-05-08T09:54:35.000Z</time>
      </trkpt>
      <trkpt lat="47.49477" lon="6.73289">
        <ele>353</ele>
        <time>2016-05-08T09:54:36.000Z</time>
      </trkpt>
      <trkpt lat="47.49473" lon="6.733">
        <ele>353</ele>
        <time>2016-05-08T09:54:37.000Z</time>
      </trkpt>
      <trkpt lat="47.49469" lon="6.73308">
        <ele>353</ele>
        <time>2016-05-08T09:54:38.000Z</time>
      </trkpt>
      <trkpt lat="47.49466" lon="6.73317">
        <ele>353</ele>
        <time>2016-05-08T09:54:39.000Z</time>
      </trkpt>
      <trkpt lat="47.49462" lon="6.73324">
        <ele>353</ele>
        <time>2016-05-08T09:54:40.000Z</time>
      </trkpt>
      <trkpt lat="47.4946" lon="6.7333">
        <ele>353</ele>
        <time>2016-05-08T09:54:41.000Z</time>
      </trkpt>
      <trkpt lat="47.49459" lon="6.73336">
        <ele>349</ele>
        <time>2016-05-08T09:54:42.000Z</time>
      </trkpt>
      <trkpt lat="47.49458" lon="6.73341">
        <ele>349</ele>
        <time>2016-05-08T09:54:43.000Z</time>
      </trkpt>
      <trkpt lat="47.49456" lon="6.73348">
        <ele>349</ele>
        <time>2016-05-08T09:54:44.000Z</time>
      </trkpt>
      <trkpt lat="47.49455" lon="6.73353">
        <ele>349</ele>
        <time>2016-05-08T09:54:45.000Z</time>
      </trkpt>
      <trkpt lat="47.49454" lon="6.73359">
        <ele>349</ele>
        <time>2016-05-08T09:54:46.000Z</time>
      </trkpt>
      <trkpt lat="47.49453" lon="6.73365">
        <ele>349</ele>
        <time>2016-05-08T09:54:47.000Z</time>
      </trkpt>
      <trkpt lat="47.49452" lon="6.73372">
        <ele>349</ele>
        <time>2016-05-08T09:54:48.000Z</time>
      </trkpt>
      <trkpt lat="47.49449" lon="6.73378">
        <ele>349</ele>
        <time>2016-05-08T09:54:49.000Z</time>
      </trkpt>
      <trkpt lat="47.49448" lon="6.73383">
        <ele>349</ele>
        <time>2016-05-08T09:54:50.000Z</time>
      </trkpt>
      <trkpt lat="47.49446" lon="6.73389">
        <ele>349</ele>
        <time>2016-05-08T09:54:51.000Z</time>
      </trkpt>
      <trkpt lat="47.49444" lon="6.73394">
        <ele>349</ele>
        <time>2016-05-08T09:54:52.000Z</time>
      </trkpt>
      <trkpt lat="47.49435" lon="6.73407">
        <ele>349</ele>
        <time>2016-05-08T09:54:53.000Z</time>
      </trkpt>
      <trkpt lat="47.49432" lon="6.73414">
        <ele>349</ele>
        <time>2016-05-08T09:54:54.000Z</time>
      </trkpt>
      <trkpt lat="47.4943" lon="6.7342">
        <ele>348</ele>
        <time>2016-05-08T09:54:55.000Z</time>
      </trkpt>
      <trkpt lat="47.49429" lon="6.73426">
        <ele>347</ele>
        <time>2016-05-08T09:54:56.000Z</time>
      </trkpt>
      <trkpt lat="47.49427" lon="6.73433">
        <ele>347</ele>
        <time>2016-05-08T09:54:57.000Z</time>
      </trkpt>
      <trkpt lat="47.49426" lon="6.73439">
        <ele>347</ele>
        <time>2016-05-08T09:54:58.000Z</time>
      </trkpt>
      <trkpt lat="47.49426" lon="6.73447">
        <ele>346</ele>
        <time>2016-05-08T09:54:59.000Z</time>
      </trkpt>
      <trkpt lat="47.49423" lon="6.73458">
        <ele>346</ele>
        <time>2016-05-08T09:55:00.000Z</time>
      </trkpt>
      <trkpt lat="47.49422" lon="6.73466">
        <ele>345</ele>
        <time>2016-05-08T09:55:01.000Z</time>
      </trkpt>
      <trkpt lat="47.49422" lon="6.73478">
        <ele>345</ele>
        <time>2016-05-08T09:55:02.000Z</time>
      </trkpt>
      <trkpt lat="47.4942" lon="6.73489">
        <ele>345</ele>
        <time>2016-05-08T09:55:03.000Z</time>
      </trkpt>
      <trkpt lat="47.49417" lon="6.73498">
        <ele>345</ele>
        <time>2016-05-08T09:55:04.000Z</time>
      </trkpt>
      <trkpt lat="47.49415" lon="6.73506">
        <ele>346</ele>
        <time>2016-05-08T09:55:05.000Z</time>
      </trkpt>
      <trkpt lat="47.49414" lon="6.73513">
        <ele>347</ele>
        <time>2016-05-08T09:55:06.000Z</time>
      </trkpt>
      <trkpt lat="47.49414" lon="6.73521">
        <ele>348</ele>
        <time>2016-05-08T09:55:07.000Z</time>
      </trkpt>
      <trkpt lat="47.49414" lon="6.73527">
        <ele>349</ele>
        <time>2016-05-08T09:55:08.000Z</time>
      </trkpt>
      <trkpt lat="47.49411" lon="6.73534">
        <ele>349</ele>
        <time>2016-05-08T09:55:09.000Z</time>
      </trkpt>
      <trkpt lat="47.4941" lon="6.7354">
        <ele>349</ele>
        <time>2016-05-08T09:55:10.000Z</time>
      </trkpt>
      <trkpt lat="47.49408" lon="6.73546">
        <ele>349</ele>
        <time>2016-05-08T09:55:11.000Z</time>
      </trkpt>
      <trkpt lat="47.49409" lon="6.73552">
        <ele>349</ele>
        <time>2016-05-08T09:55:12.000Z</time>
      </trkpt>
      <trkpt lat="47.49409" lon="6.73559">
        <ele>349</ele>
        <time>2016-05-08T09:55:13.000Z</time>
      </trkpt>
      <trkpt lat="47.49407" lon="6.73569">
        <ele>348</ele>
        <time>2016-05-08T09:55:14.000Z</time>
      </trkpt>
      <trkpt lat="47.49405" lon="6.73576">
        <ele>348</ele>
        <time>2016-05-08T09:55:15.000Z</time>
      </trkpt>
      <trkpt lat="47.49405" lon="6.73582">
        <ele>347</ele>
        <time>2016-05-08T09:55:16.000Z</time>
      </trkpt>
      <trkpt lat="47.49405" lon="6.73589">
        <ele>348</ele>
        <time>2016-05-08T09:55:17.000Z</time>
      </trkpt>
      <trkpt lat="47.49407" lon="6.73594">
        <ele>348</ele>
        <time>2016-05-08T09:55:18.000Z</time>
      </trkpt>
      <trkpt lat="47.49408" lon="6.73599">
        <ele>348</ele>
        <time>2016-05-08T09:55:19.000Z</time>
      </trkpt>
      <trkpt lat="47.4941" lon="6.73604">
        <ele>349</ele>
        <time>2016-05-08T09:55:20.000Z</time>
      </trkpt>
      <trkpt lat="47.49413" lon="6.73607">
        <ele>349</ele>
        <time>2016-05-08T09:55:21.000Z</time>
      </trkpt>
      <trkpt lat="47.49417" lon="6.73609">
        <ele>342</ele>
        <time>2016-05-08T09:55:22.000Z</time>
      </trkpt>
      <trkpt lat="47.49421" lon="6.73612">
        <ele>342</ele>
        <time>2016-05-08T09:55:23.000Z</time>
      </trkpt>
      <trkpt lat="47.49424" lon="6.73615">
        <ele>342</ele>
        <time>2016-05-08T09:55:24.000Z</time>
      </trkpt>
      <trkpt lat="47.49427" lon="6.73618">
        <ele>341</ele>
        <time>2016-05-08T09:55:25.000Z</time>
      </trkpt>
      <trkpt lat="47.49431" lon="6.73621">
        <ele>341</ele>
        <time>2016-05-08T09:55:26.000Z</time>
      </trkpt>
      <trkpt lat="47.49438" lon="6.73641">
        <ele>341</ele>
        <time>2016-05-08T09:55:27.000Z</time>
      </trkpt>
      <trkpt lat="47.49438" lon="6.73652">
        <ele>342</ele>
        <time>2016-05-08T09:55:28.000Z</time>
      </trkpt>
      <trkpt lat="47.49439" lon="6.73662">
        <ele>342</ele>
        <time>2016-05-08T09:55:29.000Z</time>
      </trkpt>
      <trkpt lat="47.49439" lon="6.7367">
        <ele>342</ele>
        <time>2016-05-08T09:55:30.000Z</time>
      </trkpt>
      <trkpt lat="47.49439" lon="6.73679">
        <ele>341</ele>
        <time>2016-05-08T09:55:31.000Z</time>
      </trkpt>
      <trkpt lat="47.49436" lon="6.73688">
        <ele>341</ele>
        <time>2016-05-08T09:55:32.000Z</time>
      </trkpt>
      <trkpt lat="47.49437" lon="6.73694">
        <ele>341</ele>
        <time>2016-05-08T09:55:33.000Z</time>
      </trkpt>
      <trkpt lat="47.49438" lon="6.73701">
        <ele>340</ele>
        <time>2016-05-08T09:55:34.000Z</time>
      </trkpt>
      <trkpt lat="47.4944" lon="6.73707">
        <ele>340</ele>
        <time>2016-05-08T09:55:35.000Z</time>
      </trkpt>
      <trkpt lat="47.49441" lon="6.73714">
        <ele>340</ele>
        <time>2016-05-08T09:55:36.000Z</time>
      </trkpt>
      <trkpt lat="47.49442" lon="6.73723">
        <ele>340</ele>
        <time>2016-05-08T09:55:37.000Z</time>
      </trkpt>
      <trkpt lat="47.49443" lon="6.73731">
        <ele>340</ele>
        <time>2016-05-08T09:55:38.000Z</time>
      </trkpt>
      <trkpt lat="47.49442" lon="6.73742">
        <ele>340</ele>
        <time>2016-05-08T09:55:39.000Z</time>
      </trkpt>
      <trkpt lat="47.49441" lon="6.73749">
        <ele>341</ele>
        <time>2016-05-08T09:55:40.000Z</time>
      </trkpt>
      <trkpt lat="47.4944" lon="6.73756">
        <ele>341</ele>
        <time>2016-05-08T09:55:41.000Z</time>
      </trkpt>
      <trkpt lat="47.49439" lon="6.73762">
        <ele>340</ele>
        <time>2016-05-08T09:55:42.000Z</time>
      </trkpt>
      <trkpt lat="47.49438" lon="6.73768">
        <ele>340</ele>
        <time>2016-05-08T09:55:43.000Z</time>
      </trkpt>
      <trkpt lat="47.49437" lon="6.73773">
        <ele>340</ele>
        <time>2016-05-08T09:55:44.000Z</time>
      </trkpt>
      <trkpt lat="47.49436" lon="6.73778">
        <ele>340</ele>
        <time>2016-05-08T09:55:45.000Z</time>
      </trkpt>
      <trkpt lat="47.49436" lon="6.73783">
        <ele>340</ele>
        <time>2016-05-08T09:55:46.000Z</time>
      </trkpt>
      <trkpt lat="47.49436" lon="6.73789">
        <ele>340</ele>
        <time>2016-05-08T09:55:47.000Z</time>
      </trkpt>
      <trkpt lat="47.49436" lon="6.73795">
        <ele>340</ele>
        <time>2016-05-08T09:55:48.000Z</time>
      </trkpt>
      <trkpt lat="47.49436" lon="6.73801">
        <ele>340</ele>
        <time>2016-05-08T09:55:49.000Z</time>
      </trkpt>
      <trkpt lat="47.49436" lon="6.73807">
        <ele>340</ele>
        <time>2016-05-08T09:55:50.000Z</time>
      </trkpt>
      <trkpt lat="47.49436" lon="6.73813">
        <ele>340</ele>
        <time>2016-05-08T09:55:51.000Z</time>
      </trkpt>
      <trkpt lat="47.49436" lon="6.73819">
        <ele>340</ele>
        <time>2016-05-08T09:55:52.000Z</time>
      </trkpt>
      <trkpt lat="47.49436" lon="6.73825">
        <ele>341</ele>
        <time>2016-05-08T09:55:53.000Z</time>
      </trkpt>
      <trkpt lat="47.49436" lon="6.73831">
        <ele>341</ele>
        <time>2016-05-08T09:55:54.000Z</time>
      </trkpt>
      <trkpt lat="47.49437" lon="6.73836">
        <ele>342</ele>
        <time>2016-05-08T09:55:55.000Z</time>
      </trkpt>
      <trkpt lat="47.49438" lon="6.73842">
        <ele>342</ele>
        <time>2016-05-08T09:55:56.000Z</time>
      </trkpt>
      <trkpt lat="47.49439" lon="6.73849">
        <ele>342</ele>
        <time>2016-05-08T09:55:57.000Z</time>
      </trkpt>
      <trkpt lat="47.4944" lon="6.73855">
        <ele>342</ele>
        <time>2016-05-08T09:55:58.000Z</time>
      </trkpt>
      <trkpt lat="47.49441" lon="6.73862">
        <ele>342</ele>
        <time>2016-05-08T09:55:59.000Z</time>
      </trkpt>
      <trkpt lat="47.49442" lon="6.73868">
        <ele>342</ele>
        <time>2016-05-08T09:56:00.000Z</time>
      </trkpt>
      <trkpt lat="47.49443" lon="6.73875">
        <ele>342</ele>
        <time>2016-05-08T09:56:01.000Z</time>
      </trkpt>
      <trkpt lat="47.49444" lon="6.7388">
        <ele>342</ele>
        <time>2016-05-08T09:56:02.000Z</time>
      </trkpt>
      <trkpt lat="47.49445" lon="6.73886">
        <ele>342</ele>
        <time>2016-05-08T09:56:03.000Z</time>
      </trkpt>
      <trkpt lat="47.49446" lon="6.73892">
        <ele>342</ele>
        <time>2016-05-08T09:56:04.000Z</time>
      </trkpt>
      <trkpt lat="47.49448" lon="6.73899">
        <ele>342</ele>
        <time>2016-05-08T09:56:05.000Z</time>
      </trkpt>
      <trkpt lat="47.49449" lon="6.73905">
        <ele>343</ele>
        <time>2016-05-08T09:56:06.000Z</time>
      </trkpt>
      <trkpt lat="47.4945" lon="6.73911">
        <ele>343</ele>
        <time>2016-05-08T09:56:07.000Z</time>
      </trkpt>
      <trkpt lat="47.4945" lon="6.73916">
        <ele>343</ele>
        <time>2016-05-08T09:56:08.000Z</time>
      </trkpt>
      <trkpt lat="47.4945" lon="6.73921">
        <ele>346</ele>
        <time>2016-05-08T09:56:09.000Z</time>
      </trkpt>
      <trkpt lat="47.4945" lon="6.73926">
        <ele>346</ele>
        <time>2016-05-08T09:56:10.000Z</time>
      </trkpt>
      <trkpt lat="47.4945" lon="6.73931">
        <ele>346</ele>
        <time>2016-05-08T09:56:11.000Z</time>
      </trkpt>
      <trkpt lat="47.4945" lon="6.73936">
        <ele>346</ele>
        <time>2016-05-08T09:56:12.000Z</time>
      </trkpt>
      <trkpt lat="47.49449" lon="6.7394">
        <ele>347</ele>
        <time>2016-05-08T09:56:13.000Z</time>
      </trkpt>
      <trkpt lat="47.49448" lon="6.73945">
        <ele>347</ele>
        <time>2016-05-08T09:56:14.000Z</time>
      </trkpt>
      <trkpt lat="47.49447" lon="6.7395">
        <ele>347</ele>
        <time>2016-05-08T09:56:15.000Z</time>
      </trkpt>
      <trkpt lat="47.49447" lon="6.73955">
        <ele>347</ele>
        <time>2016-05-08T09:56:16.000Z</time>
      </trkpt>
      <trkpt lat="47.49446" lon="6.73961">
        <ele>347</ele>
        <time>2016-05-08T09:56:17.000Z</time>
      </trkpt>
      <trkpt lat="47.49446" lon="6.73966">
        <ele>347</ele>
        <time>2016-05-08T09:56:18.000Z</time>
      </trkpt>
      <trkpt lat="47.49445" lon="6.73971">
        <ele>347</ele>
        <time>2016-05-08T09:56:19.000Z</time>
      </trkpt>
      <trkpt lat="47.49445" lon="6.73976">
        <ele>348</ele>
        <time>2016-05-08T09:56:20.000Z</time>
      </trkpt>
      <trkpt lat="47.49444" lon="6.73982">
        <ele>348</ele>
        <time>2016-05-08T09:56:21.000Z</time>
      </trkpt>
      <trkpt lat="47.49444" lon="6.73987">
        <ele>348</ele>
        <time>2016-05-08T09:56:22.000Z</time>
      </trkpt>
      <trkpt lat="47.49444" lon="6.73992">
        <ele>348</ele>
        <time>2016-05-08T09:56:23.000Z</time>
      </trkpt>
      <trkpt lat="47.49443" lon="6.73997">
        <ele>348</ele>
        <time>2016-05-08T09:56:24.000Z</time>
      </trkpt>
      <trkpt lat="47.49442" lon="6.74001">
        <ele>350</ele>
        <time>2016-05-08T09:56:25.000Z</time>
      </trkpt>
      <trkpt lat="47.4944" lon="6.74005">
        <ele>350</ele>
        <time>2016-05-08T09:56:26.000Z</time>
      </trkpt>
      <trkpt lat="47.49439" lon="6.74009">
        <ele>350</ele>
        <time>2016-05-08T09:56:27.000Z</time>
      </trkpt>
      <trkpt lat="47.49437" lon="6.74012">
        <ele>350</ele>
        <time>2016-05-08T09:56:28.000Z</time>
      </trkpt>
      <trkpt lat="47.49436" lon="6.74016">
        <ele>350</ele>
        <time>2016-05-08T09:56:29.000Z</time>
      </trkpt>
      <trkpt lat="47.49434" lon="6.74019">
        <ele>350</ele>
        <time>2016-05-08T09:56:30.000Z</time>
      </trkpt>
      <trkpt lat="47.49432" lon="6.74021">
        <ele>350</ele>
        <time>2016-05-08T09:56:31.000Z</time>
      </trkpt>
      <trkpt lat="47.49431" lon="6.74024">
        <ele>350</ele>
        <time>2016-05-08T09:56:32.000Z</time>
      </trkpt>
      <trkpt lat="47.49429" lon="6.74029">
        <ele>350</ele>
        <time>2016-05-08T09:56:34.000Z</time>
      </trkpt>
      <trkpt lat="47.49429" lon="6.74031">
        <ele>350</ele>
        <time>2016-05-08T09:56:35.000Z</time>
      </trkpt>
      <trkpt lat="47.49428" lon="6.74036">
        <ele>350</ele>
        <time>2016-05-08T09:56:37.000Z</time>
      </trkpt>
      <trkpt lat="47.49428" lon="6.74039">
        <ele>350</ele>
        <time>2016-05-08T09:56:38.000Z</time>
      </trkpt>
      <trkpt lat="47.49429" lon="6.74043">
        <ele>350</ele>
        <time>2016-05-08T09:56:39.000Z</time>
      </trkpt>
      <trkpt lat="47.49429" lon="6.74047">
        <ele>350</ele>
        <time>2016-05-08T09:56:40.000Z</time>
      </trkpt>
      <trkpt lat="47.4943" lon="6.74052">
        <ele>350</ele>
        <time>2016-05-08T09:56:41.000Z</time>
      </trkpt>
      <trkpt lat="47.49431" lon="6.74057">
        <ele>350</ele>
        <time>2016-05-08T09:56:42.000Z</time>
      </trkpt>
      <trkpt lat="47.49432" lon="6.74064">
        <ele>350</ele>
        <time>2016-05-08T09:56:43.000Z</time>
      </trkpt>
      <trkpt lat="47.49437" lon="6.74085">
        <ele>350</ele>
        <time>2016-05-08T09:56:44.000Z</time>
      </trkpt>
      <trkpt lat="47.4944" lon="6.74096">
        <ele>350</ele>
        <time>2016-05-08T09:56:45.000Z</time>
      </trkpt>
      <trkpt lat="47.49443" lon="6.74106">
        <ele>351</ele>
        <time>2016-05-08T09:56:46.000Z</time>
      </trkpt>
      <trkpt lat="47.49446" lon="6.74115">
        <ele>351</ele>
        <time>2016-05-08T09:56:47.000Z</time>
      </trkpt>
      <trkpt lat="47.49448" lon="6.74123">
        <ele>351</ele>
        <time>2016-05-08T09:56:48.000Z</time>
      </trkpt>
      <trkpt lat="47.49449" lon="6.74131">
        <ele>351</ele>
        <time>2016-05-08T09:56:49.000Z</time>
      </trkpt>
      <trkpt lat="47.49449" lon="6.74138">
        <ele>351</ele>
        <time>2016-05-08T09:56:50.000Z</time>
      </trkpt>
      <trkpt lat="47.4945" lon="6.74147">
        <ele>351</ele>
        <time>2016-05-08T09:56:51.000Z</time>
      </trkpt>
      <trkpt lat="47.49449" lon="6.74156">
        <ele>351</ele>
        <time>2016-05-08T09:56:52.000Z</time>
      </trkpt>
      <trkpt lat="47.49448" lon="6.74165">
        <ele>351</ele>
        <time>2016-05-08T09:56:53.000Z</time>
      </trkpt>
      <trkpt lat="47.49447" lon="6.74172">
        <ele>351</ele>
        <time>2016-05-08T09:56:54.000Z</time>
      </trkpt>
      <trkpt lat="47.49447" lon="6.7418">
        <ele>351</ele>
        <time>2016-05-08T09:56:55.000Z</time>
      </trkpt>
      <trkpt lat="47.49447" lon="6.74186">
        <ele>351</ele>
        <time>2016-05-08T09:56:56.000Z</time>
      </trkpt>
      <trkpt lat="47.49447" lon="6.74193">
        <ele>351</ele>
        <time>2016-05-08T09:56:57.000Z</time>
      </trkpt>
      <trkpt lat="47.49446" lon="6.74198">
        <ele>351</ele>
        <time>2016-05-08T09:56:58.000Z</time>
      </trkpt>
      <trkpt lat="47.49442" lon="6.74208">
        <ele>351</ele>
        <time>2016-05-08T09:56:59.000Z</time>
      </trkpt>
      <trkpt lat="47.49439" lon="6.74216">
        <ele>351</ele>
        <time>2016-05-08T09:57:00.000Z</time>
      </trkpt>
      <trkpt lat="47.49436" lon="6.74223">
        <ele>350</ele>
        <time>2016-05-08T09:57:01.000Z</time>
      </trkpt>
      <trkpt lat="47.49434" lon="6.74229">
        <ele>350</ele>
        <time>2016-05-08T09:57:02.000Z</time>
      </trkpt>
      <trkpt lat="47.49433" lon="6.74235">
        <ele>349</ele>
        <time>2016-05-08T09:57:03.000Z</time>
      </trkpt>
      <trkpt lat="47.49432" lon="6.7424">
        <ele>349</ele>
        <time>2016-05-08T09:57:04.000Z</time>
      </trkpt>
      <trkpt lat="47.49431" lon="6.74245">
        <ele>348</ele>
        <time>2016-05-08T09:57:05.000Z</time>
      </trkpt>
      <trkpt lat="47.49431" lon="6.7425">
        <ele>348</ele>
        <time>2016-05-08T09:57:06.000Z</time>
      </trkpt>
      <trkpt lat="47.4943" lon="6.74255">
        <ele>348</ele>
        <time>2016-05-08T09:57:07.000Z</time>
      </trkpt>
      <trkpt lat="47.49429" lon="6.74259">
        <ele>348</ele>
        <time>2016-05-08T09:57:08.000Z</time>
      </trkpt>
      <trkpt lat="47.49428" lon="6.74262">
        <ele>348</ele>
        <time>2016-05-08T09:57:09.000Z</time>
      </trkpt>
      <trkpt lat="47.49427" lon="6.74265">
        <ele>349</ele>
        <time>2016-05-08T09:57:10.000Z</time>
      </trkpt>
      <trkpt lat="47.49427" lon="6.74268">
        <ele>349</ele>
        <time>2016-05-08T09:57:11.000Z</time>
      </trkpt>
      <trkpt lat="47.49426" lon="6.74272">
        <ele>349</ele>
        <time>2016-05-08T09:57:12.000Z</time>
      </trkpt>
      <trkpt lat="47.49425" lon="6.74275">
        <ele>349</ele>
        <time>2016-05-08T09:57:13.000Z</time>
      </trkpt>
      <trkpt lat="47.49425" lon="6.74279">
        <ele>350</ele>
        <time>2016-05-08T09:57:14.000Z</time>
      </trkpt>
      <trkpt lat="47.49426" lon="6.74285">
        <ele>350</ele>
        <time>2016-05-08T09:57:15.000Z</time>
      </trkpt>
      <trkpt lat="47.49427" lon="6.7429">
        <ele>350</ele>
        <time>2016-05-08T09:57:16.000Z</time>
      </trkpt>
      <trkpt lat="47.49427" lon="6.74295">
        <ele>350</ele>
        <time>2016-05-08T09:57:17.000Z</time>
      </trkpt>
      <trkpt lat="47.49428" lon="6.743">
        <ele>350</ele>
        <time>2016-05-08T09:57:18.000Z</time>
      </trkpt>
      <trkpt lat="47.49428" lon="6.74306">
        <ele>350</ele>
        <time>2016-05-08T09:57:19.000Z</time>
      </trkpt>
      <trkpt lat="47.49428" lon="6.74312">
        <ele>350</ele>
        <time>2016-05-08T09:57:20.000Z</time>
      </trkpt>
      <trkpt lat="47.49429" lon="6.74318">
        <ele>349</ele>
        <time>2016-05-08T09:57:21.000Z</time>
      </trkpt>
      <trkpt lat="47.4943" lon="6.74325">
        <ele>349</ele>
        <time>2016-05-08T09:57:22.000Z</time>
      </trkpt>
      <trkpt lat="47.4943" lon="6.74331">
        <ele>348</ele>
        <time>2016-05-08T09:57:23.000Z</time>
      </trkpt>
      <trkpt lat="47.49431" lon="6.74337">
        <ele>349</ele>
        <time>2016-05-08T09:57:24.000Z</time>
      </trkpt>
      <trkpt lat="47.49431" lon="6.74342">
        <ele>349</ele>
        <time>2016-05-08T09:57:25.000Z</time>
      </trkpt>
      <trkpt lat="47.49432" lon="6.74347">
        <ele>350</ele>
        <time>2016-05-08T09:57:26.000Z</time>
      </trkpt>
      <trkpt lat="47.49433" lon="6.74353">
        <ele>351</ele>
        <time>2016-05-08T09:57:27.000Z</time>
      </trkpt>
      <trkpt lat="47.49433" lon="6.74359">
        <ele>351</ele>
        <time>2016-05-08T09:57:28.000Z</time>
      </trkpt>
      <trkpt lat="47.49434" lon="6.74365">
        <ele>351</ele>
        <time>2016-05-08T09:57:29.000Z</time>
      </trkpt>
      <trkpt lat="47.49435" lon="6.74372">
        <ele>352</ele>
        <time>2016-05-08T09:57:30.000Z</time>
      </trkpt>
      <trkpt lat="47.49436" lon="6.74378">
        <ele>352</ele>
        <time>2016-05-08T09:57:31.000Z</time>
      </trkpt>
      <trkpt lat="47.49437" lon="6.74384">
        <ele>352</ele>
        <time>2016-05-08T09:57:32.000Z</time>
      </trkpt>
      <trkpt lat="47.49438" lon="6.7439">
        <ele>352</ele>
        <time>2016-05-08T09:57:32.999Z</time>
      </trkpt>
      <trkpt lat="47.49438" lon="6.74397">
        <ele>352</ele>
        <time>2016-05-08T09:57:34.000Z</time>
      </trkpt>
      <trkpt lat="47.49438" lon="6.74403">
        <ele>351</ele>
        <time>2016-05-08T09:57:35.000Z</time>
      </trkpt>
      <trkpt lat="47.49438" lon="6.7441">
        <ele>351</ele>
        <time>2016-05-08T09:57:36.000Z</time>
      </trkpt>
      <trkpt lat="47.49438" lon="6.74416">
        <ele>351</ele>
        <time>2016-05-08T09:57:37.000Z</time>
      </trkpt>
      <trkpt lat="47.49438" lon="6.74422">
        <ele>351</ele>
        <time>2016-05-08T09:57:38.000Z</time>
      </trkpt>
      <trkpt lat="47.49439" lon="6.74428">
        <ele>352</ele>
        <time>2016-05-08T09:57:39.000Z</time>
      </trkpt>
      <trkpt lat="47.49439" lon="6.74434">
        <ele>352</ele>
        <time>2016-05-08T09:57:40.000Z</time>
      </trkpt>
      <trkpt lat="47.4944" lon="6.7444">
        <ele>352</ele>
        <time>2016-05-08T09:57:41.000Z</time>
      </trkpt>
      <trkpt lat="47.4944" lon="6.74446">
        <ele>353</ele>
        <time>2016-05-08T09:57:42.000Z</time>
      </trkpt>
      <trkpt lat="47.49441" lon="6.74452">
        <ele>353</ele>
        <time>2016-05-08T09:57:43.000Z</time>
      </trkpt>
      <trkpt lat="47.49442" lon="6.74459">
        <ele>353</ele>
        <time>2016-05-08T09:57:44.000Z</time>
      </trkpt>
      <trkpt lat="47.49442" lon="6.74465">
        <ele>353</ele>
        <time>2016-05-08T09:57:45.000Z</time>
      </trkpt>
      <trkpt lat="47.4944" lon="6.74482">
        <ele>352</ele>
        <time>2016-05-08T09:57:46.000Z</time>
      </trkpt>
      <trkpt lat="47.4944" lon="6.74491">
        <ele>352</ele>
        <time>2016-05-08T09:57:47.000Z</time>
      </trkpt>
      <trkpt lat="47.4944" lon="6.74498">
        <ele>352</ele>
        <time>2016-05-08T09:57:48.000Z</time>
      </trkpt>
      <trkpt lat="47.49438" lon="6.74504">
        <ele>349</ele>
        <time>2016-05-08T09:57:49.000Z</time>
      </trkpt>
      <trkpt lat="47.49436" lon="6.74511">
        <ele>349</ele>
        <time>2016-05-08T09:57:50.000Z</time>
      </trkpt>
      <trkpt lat="47.49435" lon="6.74517">
        <ele>349</ele>
        <time>2016-05-08T09:57:51.000Z</time>
      </trkpt>
      <trkpt lat="47.49434" lon="6.74522">
        <ele>349</ele>
        <time>2016-05-08T09:57:52.000Z</time>
      </trkpt>
      <trkpt lat="47.49432" lon="6.74527">
        <ele>348</ele>
        <time>2016-05-08T09:57:53.000Z</time>
      </trkpt>
      <trkpt lat="47.49433" lon="6.74532">
        <ele>348</ele>
        <time>2016-05-08T09:57:54.000Z</time>
      </trkpt>
      <trkpt lat="47.49434" lon="6.74536">
        <ele>348</ele>
        <time>2016-05-08T09:57:55.000Z</time>
      </trkpt>
      <trkpt lat="47.49433" lon="6.7454">
        <ele>348</ele>
        <time>2016-05-08T09:57:56.000Z</time>
      </trkpt>
      <trkpt lat="47.49435" lon="6.74544">
        <ele>348</ele>
        <time>2016-05-08T09:57:57.000Z</time>
      </trkpt>
      <trkpt lat="47.49436" lon="6.74548">
        <ele>348</ele>
        <time>2016-05-08T09:57:58.000Z</time>
      </trkpt>
      <trkpt lat="47.49436" lon="6.74553">
        <ele>347</ele>
        <time>2016-05-08T09:57:59.000Z</time>
      </trkpt>
      <trkpt lat="47.49437" lon="6.74559">
        <ele>347</ele>
        <time>2016-05-08T09:58:00.000Z</time>
      </trkpt>
      <trkpt lat="47.49437" lon="6.74565">
        <ele>347</ele>
        <time>2016-05-08T09:58:01.000Z</time>
      </trkpt>
      <trkpt lat="47.49438" lon="6.7457">
        <ele>346</ele>
        <time>2016-05-08T09:58:02.000Z</time>
      </trkpt>
      <trkpt lat="47.49438" lon="6.74576">
        <ele>346</ele>
        <time>2016-05-08T09:58:03.000Z</time>
      </trkpt>
      <trkpt lat="47.49438" lon="6.74581">
        <ele>346</ele>
        <time>2016-05-08T09:58:04.000Z</time>
      </trkpt>
      <trkpt lat="47.49437" lon="6.74587">
        <ele>342</ele>
        <time>2016-05-08T09:58:05.000Z</time>
      </trkpt>
      <trkpt lat="47.49436" lon="6.74593">
        <ele>342</ele>
        <time>2016-05-08T09:58:06.000Z</time>
      </trkpt>
      <trkpt lat="47.49434" lon="6.746">
        <ele>342</ele>
        <time>2016-05-08T09:58:07.000Z</time>
      </trkpt>
      <trkpt lat="47.49432" lon="6.74605">
        <ele>342</ele>
        <time>2016-05-08T09:58:08.000Z</time>
      </trkpt>
      <trkpt lat="47.49431" lon="6.74612">
        <ele>342</ele>
        <time>2016-05-08T09:58:09.000Z</time>
      </trkpt>
      <trkpt lat="47.4943" lon="6.74618">
        <ele>341</ele>
        <time>2016-05-08T09:58:10.000Z</time>
      </trkpt>
      <trkpt lat="47.4943" lon="6.74624">
        <ele>341</ele>
        <time>2016-05-08T09:58:11.000Z</time>
      </trkpt>
      <trkpt lat="47.4943" lon="6.74629">
        <ele>341</ele>
        <time>2016-05-08T09:58:12.000Z</time>
      </trkpt>
      <trkpt lat="47.4943" lon="6.74635">
        <ele>341</ele>
        <time>2016-05-08T09:58:13.000Z</time>
      </trkpt>
      <trkpt lat="47.49429" lon="6.7464">
        <ele>341</ele>
        <time>2016-05-08T09:58:14.000Z</time>
      </trkpt>
      <trkpt lat="47.49429" lon="6.74646">
        <ele>341</ele>
        <time>2016-05-08T09:58:15.000Z</time>
      </trkpt>
      <trkpt lat="47.49428" lon="6.74652">
        <ele>340</ele>
        <time>2016-05-08T09:58:16.000Z</time>
      </trkpt>
      <trkpt lat="47.49427" lon="6.74658">
        <ele>340</ele>
        <time>2016-05-08T09:58:17.000Z</time>
      </trkpt>
      <trkpt lat="47.49426" lon="6.74665">
        <ele>340</ele>
        <time>2016-05-08T09:58:18.000Z</time>
      </trkpt>
      <trkpt lat="47.49425" lon="6.74671">
        <ele>339</ele>
        <time>2016-05-08T09:58:19.000Z</time>
      </trkpt>
      <trkpt lat="47.49424" lon="6.74678">
        <ele>339</ele>
        <time>2016-05-08T09:58:20.000Z</time>
      </trkpt>
      <trkpt lat="47.49424" lon="6.74685">
        <ele>339</ele>
        <time>2016-05-08T09:58:21.000Z</time>
      </trkpt>
      <trkpt lat="47.49424" lon="6.74691">
        <ele>339</ele>
        <time>2016-05-08T09:58:22.000Z</time>
      </trkpt>
      <trkpt lat="47.49425" lon="6.74698">
        <ele>339</ele>
        <time>2016-05-08T09:58:23.000Z</time>
      </trkpt>
      <trkpt lat="47.49426" lon="6.74704">
        <ele>339</ele>
        <time>2016-05-08T09:58:24.000Z</time>
      </trkpt>
      <trkpt lat="47.49427" lon="6.7471">
        <ele>339</ele>
        <time>2016-05-08T09:58:25.000Z</time>
      </trkpt>
      <trkpt lat="47.49427" lon="6.74716">
        <ele>339</ele>
        <time>2016-05-08T09:58:26.000Z</time>
      </trkpt>
      <trkpt lat="47.49427" lon="6.74722">
        <ele>339</ele>
        <time>2016-05-08T09:58:27.000Z</time>
      </trkpt>
      <trkpt lat="47.49427" lon="6.74729">
        <ele>339</ele>
        <time>2016-05-08T09:58:28.000Z</time>
      </trkpt>
      <trkpt lat="47.49425" lon="6.74735">
        <ele>339</ele>
        <time>2016-05-08T09:58:29.000Z</time>
      </trkpt>
      <trkpt lat="47.49424" lon="6.74741">
        <ele>339</ele>
        <time>2016-05-08T09:58:30.000Z</time>
      </trkpt>
      <trkpt lat="47.49422" lon="6.74748">
        <ele>340</ele>
        <time>2016-05-08T09:58:31.000Z</time>
      </trkpt>
      <trkpt lat="47.49421" lon="6.74754">
        <ele>339</ele>
        <time>2016-05-08T09:58:32.000Z</time>
      </trkpt>
      <trkpt lat="47.4942" lon="6.7476">
        <ele>339</ele>
        <time>2016-05-08T09:58:33.000Z</time>
      </trkpt>
      <trkpt lat="47.49419" lon="6.74766">
        <ele>338</ele>
        <time>2016-05-08T09:58:34.000Z</time>
      </trkpt>
      <trkpt lat="47.49419" lon="6.74771">
        <ele>338</ele>
        <time>2016-05-08T09:58:35.000Z</time>
      </trkpt>
      <trkpt lat="47.49418" lon="6.74776">
        <ele>337</ele>
        <time>2016-05-08T09:58:36.000Z</time>
      </trkpt>
      <trkpt lat="47.49418" lon="6.74781">
        <ele>337</ele>
        <time>2016-05-08T09:58:37.000Z</time>
      </trkpt>
      <trkpt lat="47.49417" lon="6.74785">
        <ele>337</ele>
        <time>2016-05-08T09:58:38.000Z</time>
      </trkpt>
      <trkpt lat="47.49416" lon="6.74789">
        <ele>342</ele>
        <time>2016-05-08T09:58:39.000Z</time>
      </trkpt>
      <trkpt lat="47.49415" lon="6.74793">
        <ele>341</ele>
        <time>2016-05-08T09:58:40.000Z</time>
      </trkpt>
      <trkpt lat="47.49414" lon="6.74796">
        <ele>341</ele>
        <time>2016-05-08T09:58:41.000Z</time>
      </trkpt>
      <trkpt lat="47.49413" lon="6.74799">
        <ele>341</ele>
        <time>2016-05-08T09:58:42.000Z</time>
      </trkpt>
      <trkpt lat="47.49412" lon="6.74803">
        <ele>341</ele>
        <time>2016-05-08T09:58:43.000Z</time>
      </trkpt>
      <trkpt lat="47.49411" lon="6.74806">
        <ele>340</ele>
        <time>2016-05-08T09:58:44.000Z</time>
      </trkpt>
      <trkpt lat="47.4941" lon="6.7481">
        <ele>340</ele>
        <time>2016-05-08T09:58:45.000Z</time>
      </trkpt>
      <trkpt lat="47.49409" lon="6.74813">
        <ele>340</ele>
        <time>2016-05-08T09:58:46.000Z</time>
      </trkpt>
      <trkpt lat="47.49406" lon="6.74818">
        <ele>339</ele>
        <time>2016-05-08T09:58:47.000Z</time>
      </trkpt>
      <trkpt lat="47.49403" lon="6.74823">
        <ele>339</ele>
        <time>2016-05-08T09:58:48.000Z</time>
      </trkpt>
      <trkpt lat="47.494" lon="6.74828">
        <ele>339</ele>
        <time>2016-05-08T09:58:49.000Z</time>
      </trkpt>
      <trkpt lat="47.49396" lon="6.74833">
        <ele>340</ele>
        <time>2016-05-08T09:58:50.000Z</time>
      </trkpt>
      <trkpt lat="47.49393" lon="6.74837">
        <ele>339</ele>
        <time>2016-05-08T09:58:51.000Z</time>
      </trkpt>
      <trkpt lat="47.49391" lon="6.7484">
        <ele>339</ele>
        <time>2016-05-08T09:58:52.000Z</time>
      </trkpt>
      <trkpt lat="47.49389" lon="6.74843">
        <ele>339</ele>
        <time>2016-05-08T09:58:53.000Z</time>
      </trkpt>
      <trkpt lat="47.49388" lon="6.74845">
        <ele>340</ele>
        <time>2016-05-08T09:58:54.000Z</time>
      </trkpt>
      <trkpt lat="47.49386" lon="6.74851">
        <ele>340</ele>
        <time>2016-05-08T09:58:56.000Z</time>
      </trkpt>
      <trkpt lat="47.49386" lon="6.74854">
        <ele>340</ele>
        <time>2016-05-08T09:58:57.000Z</time>
      </trkpt>
      <trkpt lat="47.49385" lon="6.74858">
        <ele>340</ele>
        <time>2016-05-08T09:58:59.000Z</time>
      </trkpt>
      <trkpt lat="47.49384" lon="6.7486">
        <ele>340</ele>
        <time>2016-05-08T09:59:00.000Z</time>
      </trkpt>
      <trkpt lat="47.49382" lon="6.74863">
        <ele>340</ele>
        <time>2016-05-08T09:59:01.000Z</time>
      </trkpt>
      <trkpt lat="47.4938" lon="6.74865">
        <ele>341</ele>
        <time>2016-05-08T09:59:02.000Z</time>
      </trkpt>
      <trkpt lat="47.49377" lon="6.74867">
        <ele>341</ele>
        <time>2016-05-08T09:59:03.000Z</time>
      </trkpt>
      <trkpt lat="47.49375" lon="6.74868">
        <ele>341</ele>
        <time>2016-05-08T09:59:04.000Z</time>
      </trkpt>
      <trkpt lat="47.49372" lon="6.7487">
        <ele>341</ele>
        <time>2016-05-08T09:59:05.000Z</time>
      </trkpt>
      <trkpt lat="47.4937" lon="6.74872">
        <ele>341</ele>
        <time>2016-05-08T09:59:06.000Z</time>
      </trkpt>
      <trkpt lat="47.49368" lon="6.74875">
        <ele>342</ele>
        <time>2016-05-08T09:59:07.000Z</time>
      </trkpt>
      <trkpt lat="47.49365" lon="6.74878">
        <ele>342</ele>
        <time>2016-05-08T09:59:08.000Z</time>
      </trkpt>
      <trkpt lat="47.49362" lon="6.74881">
        <ele>342</ele>
        <time>2016-05-08T09:59:09.000Z</time>
      </trkpt>
      <trkpt lat="47.4936" lon="6.74883">
        <ele>342</ele>
        <time>2016-05-08T09:59:10.000Z</time>
      </trkpt>
      <trkpt lat="47.49358" lon="6.74885">
        <ele>343</ele>
        <time>2016-05-08T09:59:11.000Z</time>
      </trkpt>
      <trkpt lat="47.49355" lon="6.74887">
        <ele>343</ele>
        <time>2016-05-08T09:59:12.000Z</time>
      </trkpt>
      <trkpt lat="47.49353" lon="6.74888">
        <ele>343</ele>
        <time>2016-05-08T09:59:13.000Z</time>
      </trkpt>
      <trkpt lat="47.49351" lon="6.7489">
        <ele>343</ele>
        <time>2016-05-08T09:59:14.000Z</time>
      </trkpt>
      <trkpt lat="47.49348" lon="6.74894">
        <ele>344</ele>
        <time>2016-05-08T09:59:16.000Z</time>
      </trkpt>
      <trkpt lat="47.49348" lon="6.74896">
        <ele>344</ele>
        <time>2016-05-08T09:59:17.000Z</time>
      </trkpt>
      <trkpt lat="47.49347" lon="6.74901">
        <ele>344</ele>
        <time>2016-05-08T09:59:19.000Z</time>
      </trkpt>
      <trkpt lat="47.49347" lon="6.74903">
        <ele>344</ele>
        <time>2016-05-08T09:59:20.000Z</time>
      </trkpt>
      <trkpt lat="47.49344" lon="6.74908">
        <ele>345</ele>
        <time>2016-05-08T09:59:22.000Z</time>
      </trkpt>
      <trkpt lat="47.49343" lon="6.74909">
        <ele>345</ele>
        <time>2016-05-08T09:59:23.000Z</time>
      </trkpt>
      <trkpt lat="47.49339" lon="6.74912">
        <ele>346</ele>
        <time>2016-05-08T09:59:26.000Z</time>
      </trkpt>
      <trkpt lat="47.49338" lon="6.74914">
        <ele>347</ele>
        <time>2016-05-08T09:59:27.000Z</time>
      </trkpt>
      <trkpt lat="47.4934" lon="6.74919">
        <ele>346</ele>
        <time>2016-05-08T09:59:30.000Z</time>
      </trkpt>
      <trkpt lat="47.49341" lon="6.74921">
        <ele>346</ele>
        <time>2016-05-08T09:59:31.000Z</time>
      </trkpt>
      <trkpt lat="47.49342" lon="6.74925">
        <ele>345</ele>
        <time>2016-05-08T09:59:32.000Z</time>
      </trkpt>
      <trkpt lat="47.49343" lon="6.74929">
        <ele>344</ele>
        <time>2016-05-08T09:59:33.000Z</time>
      </trkpt>
      <trkpt lat="47.49344" lon="6.74934">
        <ele>343</ele>
        <time>2016-05-08T09:59:34.000Z</time>
      </trkpt>
      <trkpt lat="47.49344" lon="6.7494">
        <ele>343</ele>
        <time>2016-05-08T09:59:35.000Z</time>
      </trkpt>
      <trkpt lat="47.49344" lon="6.74955">
        <ele>342</ele>
        <time>2016-05-08T09:59:36.000Z</time>
      </trkpt>
      <trkpt lat="47.49345" lon="6.74962">
        <ele>342</ele>
        <time>2016-05-08T09:59:37.000Z</time>
      </trkpt>
      <trkpt lat="47.49346" lon="6.74971">
        <ele>341</ele>
        <time>2016-05-08T09:59:38.000Z</time>
      </trkpt>
      <trkpt lat="47.49348" lon="6.74979">
        <ele>341</ele>
        <time>2016-05-08T09:59:39.000Z</time>
      </trkpt>
      <trkpt lat="47.49348" lon="6.74986">
        <ele>342</ele>
        <time>2016-05-08T09:59:40.000Z</time>
      </trkpt>
      <trkpt lat="47.49349" lon="6.74993">
        <ele>342</ele>
        <time>2016-05-08T09:59:41.000Z</time>
      </trkpt>
      <trkpt lat="47.49348" lon="6.75001">
        <ele>341</ele>
        <time>2016-05-08T09:59:42.000Z</time>
      </trkpt>
      <trkpt lat="47.49347" lon="6.75011">
        <ele>340</ele>
        <time>2016-05-08T09:59:43.000Z</time>
      </trkpt>
      <trkpt lat="47.4934" lon="6.75023">
        <ele>340</ele>
        <time>2016-05-08T09:59:44.000Z</time>
      </trkpt>
      <trkpt lat="47.49334" lon="6.75033">
        <ele>339</ele>
        <time>2016-05-08T09:59:45.000Z</time>
      </trkpt>
      <trkpt lat="47.49326" lon="6.75042">
        <ele>347</ele>
        <time>2016-05-08T09:59:46.000Z</time>
      </trkpt>
      <trkpt lat="47.49318" lon="6.7505">
        <ele>347</ele>
        <time>2016-05-08T09:59:47.000Z</time>
      </trkpt>
      <trkpt lat="47.49312" lon="6.75056">
        <ele>348</ele>
        <time>2016-05-08T09:59:48.000Z</time>
      </trkpt>
      <trkpt lat="47.49309" lon="6.75061">
        <ele>348</ele>
        <time>2016-05-08T09:59:49.000Z</time>
      </trkpt>
      <trkpt lat="47.49306" lon="6.75067">
        <ele>348</ele>
        <time>2016-05-08T09:59:50.000Z</time>
      </trkpt>
      <trkpt lat="47.49309" lon="6.75071">
        <ele>347</ele>
        <time>2016-05-08T09:59:51.000Z</time>
      </trkpt>
      <trkpt lat="47.49307" lon="6.75075">
        <ele>347</ele>
        <time>2016-05-08T09:59:52.000Z</time>
      </trkpt>
      <trkpt lat="47.49306" lon="6.7508">
        <ele>347</ele>
        <time>2016-05-08T09:59:53.000Z</time>
      </trkpt>
      <trkpt lat="47.49304" lon="6.75085">
        <ele>345</ele>
        <time>2016-05-08T09:59:54.000Z</time>
      </trkpt>
      <trkpt lat="47.49303" lon="6.7509">
        <ele>345</ele>
        <time>2016-05-08T09:59:55.000Z</time>
      </trkpt>
      <trkpt lat="47.49304" lon="6.75096">
        <ele>345</ele>
        <time>2016-05-08T09:59:56.000Z</time>
      </trkpt>
      <trkpt lat="47.49305" lon="6.75102">
        <ele>345</ele>
        <time>2016-05-08T09:59:57.000Z</time>
      </trkpt>
      <trkpt lat="47.49305" lon="6.75106">
        <ele>345</ele>
        <time>2016-05-08T09:59:58.000Z</time>
      </trkpt>
      <trkpt lat="47.49305" lon="6.75111">
        <ele>346</ele>
        <time>2016-05-08T09:59:59.000Z</time>
      </trkpt>
      <trkpt lat="47.49305" lon="6.75116">
        <ele>346</ele>
        <time>2016-05-08T10:00:00.000Z</time>
      </trkpt>
      <trkpt lat="47.49305" lon="6.75121">
        <ele>346</ele>
        <time>2016-05-08T10:00:01.000Z</time>
      </trkpt>
      <trkpt lat="47.49305" lon="6.75126">
        <ele>345</ele>
        <time>2016-05-08T10:00:02.000Z</time>
      </trkpt>
      <trkpt lat="47.49305" lon="6.75131">
        <ele>345</ele>
        <time>2016-05-08T10:00:03.000Z</time>
      </trkpt>
      <trkpt lat="47.49305" lon="6.75136">
        <ele>345</ele>
        <time>2016-05-08T10:00:04.000Z</time>
      </trkpt>
      <trkpt lat="47.49308" lon="6.75148">
        <ele>344</ele>
        <time>2016-05-08T10:00:05.000Z</time>
      </trkpt>
      <trkpt lat="47.4931" lon="6.75156">
        <ele>344</ele>
        <time>2016-05-08T10:00:06.000Z</time>
      </trkpt>
      <trkpt lat="47.49309" lon="6.75165">
        <ele>343</ele>
        <time>2016-05-08T10:00:07.000Z</time>
      </trkpt>
      <trkpt lat="47.49308" lon="6.75176">
        <ele>342</ele>
        <time>2016-05-08T10:00:08.000Z</time>
      </trkpt>
      <trkpt lat="47.49308" lon="6.75184">
        <ele>342</ele>
        <time>2016-05-08T10:00:09.000Z</time>
      </trkpt>
      <trkpt lat="47.49307" lon="6.7519">
        <ele>342</ele>
        <time>2016-05-08T10:00:10.000Z</time>
      </trkpt>
      <trkpt lat="47.49308" lon="6.75197">
        <ele>342</ele>
        <time>2016-05-08T10:00:11.000Z</time>
      </trkpt>
      <trkpt lat="47.49309" lon="6.75205">
        <ele>341</ele>
        <time>2016-05-08T10:00:12.000Z</time>
      </trkpt>
      <trkpt lat="47.49308" lon="6.75217">
        <ele>341</ele>
        <time>2016-05-08T10:00:13.000Z</time>
      </trkpt>
      <trkpt lat="47.49308" lon="6.75226">
        <ele>341</ele>
        <time>2016-05-08T10:00:14.000Z</time>
      </trkpt>
      <trkpt lat="47.49309" lon="6.75234">
        <ele>340</ele>
        <time>2016-05-08T10:00:15.000Z</time>
      </trkpt>
      <trkpt lat="47.4931" lon="6.75243">
        <ele>339</ele>
        <time>2016-05-08T10:00:16.000Z</time>
      </trkpt>
      <trkpt lat="47.4931" lon="6.75251">
        <ele>337</ele>
        <time>2016-05-08T10:00:17.000Z</time>
      </trkpt>
      <trkpt lat="47.49313" lon="6.75262">
        <ele>337</ele>
        <time>2016-05-08T10:00:18.000Z</time>
      </trkpt>
      <trkpt lat="47.49314" lon="6.75271">
        <ele>337</ele>
        <time>2016-05-08T10:00:19.000Z</time>
      </trkpt>
      <trkpt lat="47.49314" lon="6.75281">
        <ele>338</ele>
        <time>2016-05-08T10:00:20.000Z</time>
      </trkpt>
      <trkpt lat="47.49314" lon="6.7529">
        <ele>338</ele>
        <time>2016-05-08T10:00:21.000Z</time>
      </trkpt>
      <trkpt lat="47.49312" lon="6.75299">
        <ele>338</ele>
        <time>2016-05-08T10:00:22.000Z</time>
      </trkpt>
      <trkpt lat="47.49311" lon="6.75309">
        <ele>337</ele>
        <time>2016-05-08T10:00:23.000Z</time>
      </trkpt>
      <trkpt lat="47.49309" lon="6.75317">
        <ele>337</ele>
        <time>2016-05-08T10:00:24.000Z</time>
      </trkpt>
      <trkpt lat="47.49308" lon="6.75327">
        <ele>337</ele>
        <time>2016-05-08T10:00:25.000Z</time>
      </trkpt>
      <trkpt lat="47.49305" lon="6.75337">
        <ele>336</ele>
        <time>2016-05-08T10:00:26.000Z</time>
      </trkpt>
      <trkpt lat="47.49303" lon="6.75346">
        <ele>337</ele>
        <time>2016-05-08T10:00:27.000Z</time>
      </trkpt>
      <trkpt lat="47.49303" lon="6.75356">
        <ele>337</ele>
        <time>2016-05-08T10:00:28.000Z</time>
      </trkpt>
      <trkpt lat="47.493" lon="6.75366">
        <ele>337</ele>
        <time>2016-05-08T10:00:29.000Z</time>
      </trkpt>
      <trkpt lat="47.49298" lon="6.75376">
        <ele>338</ele>
        <time>2016-05-08T10:00:30.000Z</time>
      </trkpt>
      <trkpt lat="47.49298" lon="6.75385">
        <ele>338</ele>
        <time>2016-05-08T10:00:31.000Z</time>
      </trkpt>
      <trkpt lat="47.49297" lon="6.75393">
        <ele>338</ele>
        <time>2016-05-08T10:00:32.000Z</time>
      </trkpt>
      <trkpt lat="47.49292" lon="6.75405">
        <ele>338</ele>
        <time>2016-05-08T10:00:33.000Z</time>
      </trkpt>
      <trkpt lat="47.49289" lon="6.75417">
        <ele>336</ele>
        <time>2016-05-08T10:00:34.000Z</time>
      </trkpt>
      <trkpt lat="47.49288" lon="6.75428">
        <ele>336</ele>
        <time>2016-05-08T10:00:35.000Z</time>
      </trkpt>
      <trkpt lat="47.49286" lon="6.75435">
        <ele>336</ele>
        <time>2016-05-08T10:00:36.000Z</time>
      </trkpt>
      <trkpt lat="47.49287" lon="6.75442">
        <ele>336</ele>
        <time>2016-05-08T10:00:37.000Z</time>
      </trkpt>
      <trkpt lat="47.49287" lon="6.75449">
        <ele>335</ele>
        <time>2016-05-08T10:00:38.000Z</time>
      </trkpt>
      <trkpt lat="47.49287" lon="6.75455">
        <ele>335</ele>
        <time>2016-05-08T10:00:39.000Z</time>
      </trkpt>
      <trkpt lat="47.49287" lon="6.75465">
        <ele>335</ele>
        <time>2016-05-08T10:00:40.000Z</time>
      </trkpt>
      <trkpt lat="47.49287" lon="6.75473">
        <ele>335</ele>
        <time>2016-05-08T10:00:41.000Z</time>
      </trkpt>
      <trkpt lat="47.49283" lon="6.75481">
        <ele>335</ele>
        <time>2016-05-08T10:00:42.000Z</time>
      </trkpt>
      <trkpt lat="47.4928" lon="6.75491">
        <ele>335</ele>
        <time>2016-05-08T10:00:43.000Z</time>
      </trkpt>
      <trkpt lat="47.49279" lon="6.75498">
        <ele>335</ele>
        <time>2016-05-08T10:00:44.000Z</time>
      </trkpt>
      <trkpt lat="47.49279" lon="6.75505">
        <ele>332</ele>
        <time>2016-05-08T10:00:45.000Z</time>
      </trkpt>
      <trkpt lat="47.49278" lon="6.7551">
        <ele>332</ele>
        <time>2016-05-08T10:00:46.000Z</time>
      </trkpt>
      <trkpt lat="47.49277" lon="6.75515">
        <ele>332</ele>
        <time>2016-05-08T10:00:47.000Z</time>
      </trkpt>
      <trkpt lat="47.49275" lon="6.7552">
        <ele>332</ele>
        <time>2016-05-08T10:00:48.000Z</time>
      </trkpt>
      <trkpt lat="47.49274" lon="6.75524">
        <ele>331</ele>
        <time>2016-05-08T10:00:49.000Z</time>
      </trkpt>
      <trkpt lat="47.49272" lon="6.75527">
        <ele>331</ele>
        <time>2016-05-08T10:00:50.000Z</time>
      </trkpt>
      <trkpt lat="47.49271" lon="6.7553">
        <ele>331</ele>
        <time>2016-05-08T10:00:51.000Z</time>
      </trkpt>
      <trkpt lat="47.49269" lon="6.75536">
        <ele>331</ele>
        <time>2016-05-08T10:00:53.000Z</time>
      </trkpt>
      <trkpt lat="47.49269" lon="6.75538">
        <ele>331</ele>
        <time>2016-05-08T10:00:54.000Z</time>
      </trkpt>
      <trkpt lat="47.49268" lon="6.75544">
        <ele>331</ele>
        <time>2016-05-08T10:01:00.000Z</time>
      </trkpt>
      <trkpt lat="47.49268" lon="6.75546">
        <ele>331</ele>
        <time>2016-05-08T10:01:01.000Z</time>
      </trkpt>
      <trkpt lat="47.49266" lon="6.7555">
        <ele>331</ele>
        <time>2016-05-08T10:01:06.000Z</time>
      </trkpt>
      <trkpt lat="47.49264" lon="6.75552">
        <ele>331</ele>
        <time>2016-05-08T10:01:07.000Z</time>
      </trkpt>
      <trkpt lat="47.4926" lon="6.75556">
        <ele>331</ele>
        <time>2016-05-08T10:01:10.000Z</time>
      </trkpt>
      <trkpt lat="47.49259" lon="6.75558">
        <ele>331</ele>
        <time>2016-05-08T10:01:11.000Z</time>
      </trkpt>
      <trkpt lat="47.49263" lon="6.75554">
        <ele>331</ele>
        <time>2016-05-08T10:01:59.000Z</time>
      </trkpt>
      <trkpt lat="47.49265" lon="6.75551">
        <ele>331</ele>
        <time>2016-05-08T10:02:00.000Z</time>
      </trkpt>
      <trkpt lat="47.49267" lon="6.75546">
        <ele>331</ele>
        <time>2016-05-08T10:02:01.000Z</time>
      </trkpt>
      <trkpt lat="47.49271" lon="6.75542">
        <ele>331</ele>
        <time>2016-05-08T10:02:02.000Z</time>
      </trkpt>
      <trkpt lat="47.49274" lon="6.75536">
        <ele>331</ele>
        <time>2016-05-08T10:02:03.000Z</time>
      </trkpt>
      <trkpt lat="47.49278" lon="6.75531">
        <ele>331</ele>
        <time>2016-05-08T10:02:04.000Z</time>
      </trkpt>
      <trkpt lat="47.49282" lon="6.75527">
        <ele>330</ele>
        <time>2016-05-08T10:02:05.000Z</time>
      </trkpt>
      <trkpt lat="47.49286" lon="6.75523">
        <ele>330</ele>
        <time>2016-05-08T10:02:06.000Z</time>
      </trkpt>
      <trkpt lat="47.49289" lon="6.7552">
        <ele>330</ele>
        <time>2016-05-08T10:02:07.000Z</time>
      </trkpt>
      <trkpt lat="47.49293" lon="6.75518">
        <ele>330</ele>
        <time>2016-05-08T10:02:08.000Z</time>
      </trkpt>
      <trkpt lat="47.49297" lon="6.75516">
        <ele>329</ele>
        <time>2016-05-08T10:02:09.000Z</time>
      </trkpt>
      <trkpt lat="47.493" lon="6.75514">
        <ele>329</ele>
        <time>2016-05-08T10:02:10.000Z</time>
      </trkpt>
      <trkpt lat="47.49302" lon="6.75511">
        <ele>329</ele>
        <time>2016-05-08T10:02:11.000Z</time>
      </trkpt>
      <trkpt lat="47.49304" lon="6.75509">
        <ele>329</ele>
        <time>2016-05-08T10:02:12.000Z</time>
      </trkpt>
      <trkpt lat="47.49308" lon="6.75506">
        <ele>328</ele>
        <time>2016-05-08T10:02:14.000Z</time>
      </trkpt>
      <trkpt lat="47.49309" lon="6.75507">
        <ele>328</ele>
        <time>2016-05-08T10:02:15.000Z</time>
      </trkpt>
      <trkpt lat="47.4931" lon="6.7551">
        <ele>328</ele>
        <time>2016-05-08T10:02:16.000Z</time>
      </trkpt>
      <trkpt lat="47.49311" lon="6.75514">
        <ele>328</ele>
        <time>2016-05-08T10:02:17.000Z</time>
      </trkpt>
      <trkpt lat="47.49311" lon="6.75519">
        <ele>328</ele>
        <time>2016-05-08T10:02:18.001Z</time>
      </trkpt>
      <trkpt lat="47.49312" lon="6.75523">
        <ele>328</ele>
        <time>2016-05-08T10:02:19.000Z</time>
      </trkpt>
      <trkpt lat="47.49311" lon="6.75529">
        <ele>328</ele>
        <time>2016-05-08T10:02:20.000Z</time>
      </trkpt>
      <trkpt lat="47.49312" lon="6.75536">
        <ele>328</ele>
        <time>2016-05-08T10:02:21.000Z</time>
      </trkpt>
      <trkpt lat="47.49312" lon="6.75542">
        <ele>327</ele>
        <time>2016-05-08T10:02:22.000Z</time>
      </trkpt>
      <trkpt lat="47.49313" lon="6.75548">
        <ele>327</ele>
        <time>2016-05-08T10:02:22.999Z</time>
      </trkpt>
      <trkpt lat="47.49314" lon="6.75555">
        <ele>326</ele>
        <time>2016-05-08T10:02:24.000Z</time>
      </trkpt>
      <trkpt lat="47.49315" lon="6.75562">
        <ele>326</ele>
        <time>2016-05-08T10:02:25.000Z</time>
      </trkpt>
      <trkpt lat="47.49316" lon="6.75571">
        <ele>325</ele>
        <time>2016-05-08T10:02:26.000Z</time>
      </trkpt>
      <trkpt lat="47.49318" lon="6.75578">
        <ele>324</ele>
        <time>2016-05-08T10:02:27.000Z</time>
      </trkpt>
      <trkpt lat="47.49321" lon="6.75585">
        <ele>321</ele>
        <time>2016-05-08T10:02:28.000Z</time>
      </trkpt>
      <trkpt lat="47.49323" lon="6.75592">
        <ele>321</ele>
        <time>2016-05-08T10:02:29.000Z</time>
      </trkpt>
      <trkpt lat="47.49325" lon="6.75599">
        <ele>321</ele>
        <time>2016-05-08T10:02:30.000Z</time>
      </trkpt>
      <trkpt lat="47.49326" lon="6.75606">
        <ele>321</ele>
        <time>2016-05-08T10:02:31.000Z</time>
      </trkpt>
      <trkpt lat="47.49327" lon="6.75613">
        <ele>322</ele>
        <time>2016-05-08T10:02:32.000Z</time>
      </trkpt>
      <trkpt lat="47.49328" lon="6.75619">
        <ele>322</ele>
        <time>2016-05-08T10:02:33.000Z</time>
      </trkpt>
      <trkpt lat="47.49329" lon="6.75626">
        <ele>322</ele>
        <time>2016-05-08T10:02:34.000Z</time>
      </trkpt>
      <trkpt lat="47.49332" lon="6.75633">
        <ele>321</ele>
        <time>2016-05-08T10:02:35.000Z</time>
      </trkpt>
      <trkpt lat="47.49333" lon="6.7564">
        <ele>321</ele>
        <time>2016-05-08T10:02:36.000Z</time>
      </trkpt>
      <trkpt lat="47.49335" lon="6.75647">
        <ele>319</ele>
        <time>2016-05-08T10:02:37.000Z</time>
      </trkpt>
      <trkpt lat="47.49336" lon="6.75654">
        <ele>318</ele>
        <time>2016-05-08T10:02:38.000Z</time>
      </trkpt>
      <trkpt lat="47.49339" lon="6.7566">
        <ele>318</ele>
        <time>2016-05-08T10:02:39.000Z</time>
      </trkpt>
      <trkpt lat="47.49341" lon="6.75666">
        <ele>318</ele>
        <time>2016-05-08T10:02:40.000Z</time>
      </trkpt>
      <trkpt lat="47.49342" lon="6.75672">
        <ele>318</ele>
        <time>2016-05-08T10:02:41.000Z</time>
      </trkpt>
      <trkpt lat="47.49345" lon="6.75678">
        <ele>318</ele>
        <time>2016-05-08T10:02:42.000Z</time>
      </trkpt>
      <trkpt lat="47.49346" lon="6.75684">
        <ele>318</ele>
        <time>2016-05-08T10:02:43.000Z</time>
      </trkpt>
      <trkpt lat="47.49346" lon="6.75691">
        <ele>318</ele>
        <time>2016-05-08T10:02:44.000Z</time>
      </trkpt>
      <trkpt lat="47.49348" lon="6.75698">
        <ele>319</ele>
        <time>2016-05-08T10:02:45.000Z</time>
      </trkpt>
      <trkpt lat="47.4935" lon="6.75704">
        <ele>319</ele>
        <time>2016-05-08T10:02:46.000Z</time>
      </trkpt>
      <trkpt lat="47.49351" lon="6.75709">
        <ele>319</ele>
        <time>2016-05-08T10:02:47.000Z</time>
      </trkpt>
      <trkpt lat="47.4935" lon="6.75715">
        <ele>319</ele>
        <time>2016-05-08T10:02:48.000Z</time>
      </trkpt>
      <trkpt lat="47.49351" lon="6.7572">
        <ele>319</ele>
        <time>2016-05-08T10:02:49.000Z</time>
      </trkpt>
      <trkpt lat="47.49352" lon="6.75726">
        <ele>319</ele>
        <time>2016-05-08T10:02:53.000Z</time>
      </trkpt>
      <trkpt lat="47.49352" lon="6.75726">
        <ele>319</ele>
        <time>2016-05-08T10:02:54.000Z</time>
      </trkpt>
      <trkpt lat="47.49355" lon="6.75727">
        <ele>319</ele>
        <time>2016-05-08T10:02:56.000Z</time>
      </trkpt>
      <trkpt lat="47.49357" lon="6.75726">
        <ele>319</ele>
        <time>2016-05-08T10:02:57.000Z</time>
      </trkpt>
      <trkpt lat="47.49359" lon="6.75727">
        <ele>319</ele>
        <time>2016-05-08T10:02:58.000Z</time>
      </trkpt>
      <trkpt lat="47.49363" lon="6.75723">
        <ele>319</ele>
        <time>2016-05-08T10:02:59.000Z</time>
      </trkpt>
      <trkpt lat="47.49366" lon="6.7572">
        <ele>319</ele>
        <time>2016-05-08T10:03:00.000Z</time>
      </trkpt>
      <trkpt lat="47.49369" lon="6.75718">
        <ele>319</ele>
        <time>2016-05-08T10:03:00.999Z</time>
      </trkpt>
      <trkpt lat="47.49372" lon="6.75715">
        <ele>319</ele>
        <time>2016-05-08T10:03:02.000Z</time>
      </trkpt>
      <trkpt lat="47.49375" lon="6.75712">
        <ele>319</ele>
        <time>2016-05-08T10:03:03.000Z</time>
      </trkpt>
      <trkpt lat="47.49382" lon="6.75705">
        <ele>319</ele>
        <time>2016-05-08T10:03:04.000Z</time>
      </trkpt>
      <trkpt lat="47.49386" lon="6.75702">
        <ele>319</ele>
        <time>2016-05-08T10:03:05.001Z</time>
      </trkpt>
      <trkpt lat="47.4939" lon="6.75697">
        <ele>319</ele>
        <time>2016-05-08T10:03:06.000Z</time>
      </trkpt>
      <trkpt lat="47.49394" lon="6.75694">
        <ele>319</ele>
        <time>2016-05-08T10:03:07.000Z</time>
      </trkpt>
      <trkpt lat="47.494" lon="6.75691">
        <ele>319</ele>
        <time>2016-05-08T10:03:08.000Z</time>
      </trkpt>
      <trkpt lat="47.49405" lon="6.75689">
        <ele>319</ele>
        <time>2016-05-08T10:03:09.000Z</time>
      </trkpt>
      <trkpt lat="47.49409" lon="6.75685">
        <ele>319</ele>
        <time>2016-05-08T10:03:10.000Z</time>
      </trkpt>
      <trkpt lat="47.49413" lon="6.75682">
        <ele>319</ele>
        <time>2016-05-08T10:03:10.999Z</time>
      </trkpt>
      <trkpt lat="47.49417" lon="6.7568">
        <ele>320</ele>
        <time>2016-05-08T10:03:12.000Z</time>
      </trkpt>
      <trkpt lat="47.49421" lon="6.75677">
        <ele>320</ele>
        <time>2016-05-08T10:03:13.001Z</time>
      </trkpt>
      <trkpt lat="47.49424" lon="6.75676">
        <ele>320</ele>
        <time>2016-05-08T10:03:14.000Z</time>
      </trkpt>
      <trkpt lat="47.49428" lon="6.75678">
        <ele>320</ele>
        <time>2016-05-08T10:03:15.000Z</time>
      </trkpt>
      <trkpt lat="47.49431" lon="6.75681">
        <ele>320</ele>
        <time>2016-05-08T10:03:16.000Z</time>
      </trkpt>
      <trkpt lat="47.49431" lon="6.75685">
        <ele>320</ele>
        <time>2016-05-08T10:03:17.000Z</time>
      </trkpt>
      <trkpt lat="47.49433" lon="6.7569">
        <ele>320</ele>
        <time>2016-05-08T10:03:18.000Z</time>
      </trkpt>
      <trkpt lat="47.49435" lon="6.75695">
        <ele>320</ele>
        <time>2016-05-08T10:03:19.000Z</time>
      </trkpt>
      <trkpt lat="47.49436" lon="6.757">
        <ele>321</ele>
        <time>2016-05-08T10:03:20.000Z</time>
      </trkpt>
      <trkpt lat="47.49437" lon="6.75704">
        <ele>321</ele>
        <time>2016-05-08T10:03:21.000Z</time>
      </trkpt>
      <trkpt lat="47.4944" lon="6.75707">
        <ele>321</ele>
        <time>2016-05-08T10:03:22.000Z</time>
      </trkpt>
      <trkpt lat="47.49443" lon="6.75708">
        <ele>321</ele>
        <time>2016-05-08T10:03:23.001Z</time>
      </trkpt>
      <trkpt lat="47.49447" lon="6.75707">
        <ele>321</ele>
        <time>2016-05-08T10:03:24.000Z</time>
      </trkpt>
      <trkpt lat="47.49451" lon="6.75706">
        <ele>321</ele>
        <time>2016-05-08T10:03:25.000Z</time>
      </trkpt>
      <trkpt lat="47.49456" lon="6.75704">
        <ele>321</ele>
        <time>2016-05-08T10:03:26.000Z</time>
      </trkpt>
      <trkpt lat="47.49461" lon="6.75704">
        <ele>321</ele>
        <time>2016-05-08T10:03:27.000Z</time>
      </trkpt>
      <trkpt lat="47.49464" lon="6.75706">
        <ele>321</ele>
        <time>2016-05-08T10:03:28.000Z</time>
      </trkpt>
      <trkpt lat="47.49468" lon="6.7571">
        <ele>321</ele>
        <time>2016-05-08T10:03:29.000Z</time>
      </trkpt>
      <trkpt lat="47.4947" lon="6.75715">
        <ele>321</ele>
        <time>2016-05-08T10:03:30.000Z</time>
      </trkpt>
      <trkpt lat="47.49472" lon="6.75721">
        <ele>321</ele>
        <time>2016-05-08T10:03:31.000Z</time>
      </trkpt>
      <trkpt lat="47.49475" lon="6.75728">
        <ele>322</ele>
        <time>2016-05-08T10:03:32.000Z</time>
      </trkpt>
      <trkpt lat="47.49477" lon="6.75735">
        <ele>322</ele>
        <time>2016-05-08T10:03:33.000Z</time>
      </trkpt>
      <trkpt lat="47.4948" lon="6.75739">
        <ele>322</ele>
        <time>2016-05-08T10:03:34.000Z</time>
      </trkpt>
      <trkpt lat="47.49483" lon="6.75741">
        <ele>322</ele>
        <time>2016-05-08T10:03:35.000Z</time>
      </trkpt>
      <trkpt lat="47.49487" lon="6.75742">
        <ele>323</ele>
        <time>2016-05-08T10:03:36.000Z</time>
      </trkpt>
      <trkpt lat="47.4949" lon="6.75742">
        <ele>323</ele>
        <time>2016-05-08T10:03:37.000Z</time>
      </trkpt>
      <trkpt lat="47.49495" lon="6.7574">
        <ele>323</ele>
        <time>2016-05-08T10:03:38.000Z</time>
      </trkpt>
      <trkpt lat="47.49499" lon="6.7574">
        <ele>323</ele>
        <time>2016-05-08T10:03:39.000Z</time>
      </trkpt>
      <trkpt lat="47.49502" lon="6.75737">
        <ele>324</ele>
        <time>2016-05-08T10:03:40.000Z</time>
      </trkpt>
      <trkpt lat="47.49507" lon="6.75735">
        <ele>325</ele>
        <time>2016-05-08T10:03:41.000Z</time>
      </trkpt>
      <trkpt lat="47.4951" lon="6.75732">
        <ele>325</ele>
        <time>2016-05-08T10:03:42.000Z</time>
      </trkpt>
      <trkpt lat="47.49514" lon="6.75729">
        <ele>325</ele>
        <time>2016-05-08T10:03:43.000Z</time>
      </trkpt>
      <trkpt lat="47.49518" lon="6.75727">
        <ele>325</ele>
        <time>2016-05-08T10:03:44.000Z</time>
      </trkpt>
      <trkpt lat="47.49522" lon="6.75725">
        <ele>325</ele>
        <time>2016-05-08T10:03:45.000Z</time>
      </trkpt>
      <trkpt lat="47.49525" lon="6.75723">
        <ele>325</ele>
        <time>2016-05-08T10:03:46.000Z</time>
      </trkpt>
      <trkpt lat="47.49529" lon="6.75719">
        <ele>325</ele>
        <time>2016-05-08T10:03:47.000Z</time>
      </trkpt>
      <trkpt lat="47.49533" lon="6.75716">
        <ele>325</ele>
        <time>2016-05-08T10:03:48.000Z</time>
      </trkpt>
      <trkpt lat="47.49536" lon="6.7571">
        <ele>325</ele>
        <time>2016-05-08T10:03:49.000Z</time>
      </trkpt>
      <trkpt lat="47.49539" lon="6.75707">
        <ele>325</ele>
        <time>2016-05-08T10:03:50.000Z</time>
      </trkpt>
      <trkpt lat="47.49543" lon="6.75704">
        <ele>325</ele>
        <time>2016-05-08T10:03:51.000Z</time>
      </trkpt>
      <trkpt lat="47.49547" lon="6.75701">
        <ele>325</ele>
        <time>2016-05-08T10:03:52.000Z</time>
      </trkpt>
      <trkpt lat="47.49551" lon="6.75698">
        <ele>325</ele>
        <time>2016-05-08T10:03:53.000Z</time>
      </trkpt>
      <trkpt lat="47.49554" lon="6.75694">
        <ele>324</ele>
        <time>2016-05-08T10:03:54.000Z</time>
      </trkpt>
      <trkpt lat="47.49557" lon="6.7569">
        <ele>324</ele>
        <time>2016-05-08T10:03:55.000Z</time>
      </trkpt>
      <trkpt lat="47.4956" lon="6.75685">
        <ele>324</ele>
        <time>2016-05-08T10:03:56.000Z</time>
      </trkpt>
      <trkpt lat="47.49563" lon="6.7568">
        <ele>324</ele>
        <time>2016-05-08T10:03:57.000Z</time>
      </trkpt>
      <trkpt lat="47.49566" lon="6.75675">
        <ele>323</ele>
        <time>2016-05-08T10:03:58.000Z</time>
      </trkpt>
      <trkpt lat="47.49569" lon="6.7567">
        <ele>323</ele>
        <time>2016-05-08T10:03:59.000Z</time>
      </trkpt>
      <trkpt lat="47.49574" lon="6.7567">
        <ele>322</ele>
        <time>2016-05-08T10:04:00.000Z</time>
      </trkpt>
      <trkpt lat="47.49578" lon="6.75671">
        <ele>322</ele>
        <time>2016-05-08T10:04:01.001Z</time>
      </trkpt>
      <trkpt lat="47.49581" lon="6.75677">
        <ele>323</ele>
        <time>2016-05-08T10:04:02.000Z</time>
      </trkpt>
      <trkpt lat="47.49584" lon="6.75682">
        <ele>326</ele>
        <time>2016-05-08T10:04:03.000Z</time>
      </trkpt>
      <trkpt lat="47.49587" lon="6.75685">
        <ele>326</ele>
        <time>2016-05-08T10:04:04.000Z</time>
      </trkpt>
      <trkpt lat="47.49591" lon="6.7569">
        <ele>328</ele>
        <time>2016-05-08T10:04:05.000Z</time>
      </trkpt>
      <trkpt lat="47.49594" lon="6.75694">
        <ele>328</ele>
        <time>2016-05-08T10:04:06.000Z</time>
      </trkpt>
      <trkpt lat="47.49595" lon="6.757">
        <ele>329</ele>
        <time>2016-05-08T10:04:07.000Z</time>
      </trkpt>
      <trkpt lat="47.49593" lon="6.75705">
        <ele>330</ele>
        <time>2016-05-08T10:04:08.000Z</time>
      </trkpt>
      <trkpt lat="47.49591" lon="6.75709">
        <ele>330</ele>
        <time>2016-05-08T10:04:09.000Z</time>
      </trkpt>
      <trkpt lat="47.49589" lon="6.75713">
        <ele>331</ele>
        <time>2016-05-08T10:04:10.000Z</time>
      </trkpt>
      <trkpt lat="47.49588" lon="6.75717">
        <ele>331</ele>
        <time>2016-05-08T10:04:11.001Z</time>
      </trkpt>
      <trkpt lat="47.49584" lon="6.75719">
        <ele>331</ele>
        <time>2016-05-08T10:04:12.000Z</time>
      </trkpt>
      <trkpt lat="47.49581" lon="6.75723">
        <ele>328</ele>
        <time>2016-05-08T10:04:13.000Z</time>
      </trkpt>
      <trkpt lat="47.49578" lon="6.75726">
        <ele>328</ele>
        <time>2016-05-08T10:04:14.000Z</time>
      </trkpt>
      <trkpt lat="47.49576" lon="6.75729">
        <ele>328</ele>
        <time>2016-05-08T10:04:15.000Z</time>
      </trkpt>
      <trkpt lat="47.49574" lon="6.75732">
        <ele>329</ele>
        <time>2016-05-08T10:04:16.000Z</time>
      </trkpt>
      <trkpt lat="47.49571" lon="6.75736">
        <ele>329</ele>
        <time>2016-05-08T10:04:17.000Z</time>
      </trkpt>
      <trkpt lat="47.49569" lon="6.7574">
        <ele>329</ele>
        <time>2016-05-08T10:04:18.000Z</time>
      </trkpt>
      <trkpt lat="47.49567" lon="6.75744">
        <ele>329</ele>
        <time>2016-05-08T10:04:19.000Z</time>
      </trkpt>
      <trkpt lat="47.49565" lon="6.75747">
        <ele>329</ele>
        <time>2016-05-08T10:04:20.000Z</time>
      </trkpt>
      <trkpt lat="47.49563" lon="6.75751">
        <ele>335</ele>
        <time>2016-05-08T10:04:21.000Z</time>
      </trkpt>
      <trkpt lat="47.4956" lon="6.75753">
        <ele>335</ele>
        <time>2016-05-08T10:04:22.000Z</time>
      </trkpt>
      <trkpt lat="47.49559" lon="6.75757">
        <ele>335</ele>
        <time>2016-05-08T10:04:23.000Z</time>
      </trkpt>
      <trkpt lat="47.49557" lon="6.7576">
        <ele>335</ele>
        <time>2016-05-08T10:04:24.000Z</time>
      </trkpt>
      <trkpt lat="47.49557" lon="6.75764">
        <ele>335</ele>
        <time>2016-05-08T10:04:25.000Z</time>
      </trkpt>
      <trkpt lat="47.49558" lon="6.7577">
        <ele>335</ele>
        <time>2016-05-08T10:04:27.000Z</time>
      </trkpt>
      <trkpt lat="47.49559" lon="6.75772">
        <ele>336</ele>
        <time>2016-05-08T10:04:28.000Z</time>
      </trkpt>
      <trkpt lat="47.49562" lon="6.75774">
        <ele>336</ele>
        <time>2016-05-08T10:04:30.000Z</time>
      </trkpt>
      <trkpt lat="47.49563" lon="6.75776">
        <ele>336</ele>
        <time>2016-05-08T10:04:31.000Z</time>
      </trkpt>
      <trkpt lat="47.49566" lon="6.75778">
        <ele>336</ele>
        <time>2016-05-08T10:04:34.000Z</time>
      </trkpt>
      <trkpt lat="47.49567" lon="6.75778">
        <ele>336</ele>
        <time>2016-05-08T10:04:35.000Z</time>
      </trkpt>
      <trkpt lat="47.49571" lon="6.75779">
        <ele>336</ele>
        <time>2016-05-08T10:04:41.000Z</time>
      </trkpt>
      <trkpt lat="47.49572" lon="6.75779">
        <ele>337</ele>
        <time>2016-05-08T10:04:42.000Z</time>
      </trkpt>
      <trkpt lat="47.49576" lon="6.75779">
        <ele>337</ele>
        <time>2016-05-08T10:04:46.000Z</time>
      </trkpt>
      <trkpt lat="47.49576" lon="6.75779">
        <ele>337</ele>
        <time>2016-05-08T10:04:47.000Z</time>
      </trkpt>
      <trkpt lat="47.4958" lon="6.75776">
        <ele>336</ele>
        <time>2016-05-08T10:04:52.000Z</time>
      </trkpt>
      <trkpt lat="47.49581" lon="6.75776">
        <ele>336</ele>
        <time>2016-05-08T10:04:53.000Z</time>
      </trkpt>
      <trkpt lat="47.49584" lon="6.75774">
        <ele>341</ele>
        <time>2016-05-08T10:04:57.000Z</time>
      </trkpt>
      <trkpt lat="47.49585" lon="6.75773">
        <ele>341</ele>
        <time>2016-05-08T10:04:58.000Z</time>
      </trkpt>
      <trkpt lat="47.49589" lon="6.75774">
        <ele>342</ele>
        <time>2016-05-08T10:05:02.000Z</time>
      </trkpt>
      <trkpt lat="47.4959" lon="6.75774">
        <ele>342</ele>
        <time>2016-05-08T10:05:03.000Z</time>
      </trkpt>
      <trkpt lat="47.49594" lon="6.75772">
        <ele>342</ele>
        <time>2016-05-08T10:05:07.000Z</time>
      </trkpt>
      <trkpt lat="47.49595" lon="6.75772">
        <ele>342</ele>
        <time>2016-05-08T10:05:08.000Z</time>
      </trkpt>
      <trkpt lat="47.49599" lon="6.75771">
        <ele>342</ele>
        <time>2016-05-08T10:05:11.000Z</time>
      </trkpt>
      <trkpt lat="47.49601" lon="6.75771">
        <ele>342</ele>
        <time>2016-05-08T10:05:12.000Z</time>
      </trkpt>
      <trkpt lat="47.49604" lon="6.7577">
        <ele>342</ele>
        <time>2016-05-08T10:05:14.000Z</time>
      </trkpt>
      <trkpt lat="47.49606" lon="6.75769">
        <ele>343</ele>
        <time>2016-05-08T10:05:15.000Z</time>
      </trkpt>
      <trkpt lat="47.49609" lon="6.75769">
        <ele>343</ele>
        <time>2016-05-08T10:05:17.000Z</time>
      </trkpt>
      <trkpt lat="47.49611" lon="6.7577">
        <ele>343</ele>
        <time>2016-05-08T10:05:18.000Z</time>
      </trkpt>
      <trkpt lat="47.49614" lon="6.75771">
        <ele>344</ele>
        <time>2016-05-08T10:05:20.000Z</time>
      </trkpt>
      <trkpt lat="47.49616" lon="6.75772">
        <ele>344</ele>
        <time>2016-05-08T10:05:21.000Z</time>
      </trkpt>
      <trkpt lat="47.4962" lon="6.75773">
        <ele>344</ele>
        <time>2016-05-08T10:05:24.000Z</time>
      </trkpt>
      <trkpt lat="47.49621" lon="6.75773">
        <ele>344</ele>
        <time>2016-05-08T10:05:25.000Z</time>
      </trkpt>
      <trkpt lat="47.49625" lon="6.75773">
        <ele>345</ele>
        <time>2016-05-08T10:05:28.000Z</time>
      </trkpt>
      <trkpt lat="47.49626" lon="6.75774">
        <ele>345</ele>
        <time>2016-05-08T10:05:29.000Z</time>
      </trkpt>
      <trkpt lat="47.4963" lon="6.75774">
        <ele>345</ele>
        <time>2016-05-08T10:05:32.000Z</time>
      </trkpt>
      <trkpt lat="47.49631" lon="6.75773">
        <ele>345</ele>
        <time>2016-05-08T10:05:33.000Z</time>
      </trkpt>
      <trkpt lat="47.49635" lon="6.75773">
        <ele>345</ele>
        <time>2016-05-08T10:05:37.000Z</time>
      </trkpt>
      <trkpt lat="47.49636" lon="6.75773">
        <ele>345</ele>
        <time>2016-05-08T10:05:38.000Z</time>
      </trkpt>
      <trkpt lat="47.4964" lon="6.75773">
        <ele>345</ele>
        <time>2016-05-08T10:05:40.000Z</time>
      </trkpt>
      <trkpt lat="47.49642" lon="6.75773">
        <ele>346</ele>
        <time>2016-05-08T10:05:41.000Z</time>
      </trkpt>
      <trkpt lat="47.49646" lon="6.75773">
        <ele>346</ele>
        <time>2016-05-08T10:05:43.000Z</time>
      </trkpt>
      <trkpt lat="47.49648" lon="6.75773">
        <ele>346</ele>
        <time>2016-05-08T10:05:44.000Z</time>
      </trkpt>
      <trkpt lat="47.49652" lon="6.75772">
        <ele>346</ele>
        <time>2016-05-08T10:05:46.000Z</time>
      </trkpt>
      <trkpt lat="47.49654" lon="6.75772">
        <ele>346</ele>
        <time>2016-05-08T10:05:47.000Z</time>
      </trkpt>
      <trkpt lat="47.49658" lon="6.75772">
        <ele>346</ele>
        <time>2016-05-08T10:05:49.000Z</time>
      </trkpt>
      <trkpt lat="47.4966" lon="6.75771">
        <ele>346</ele>
        <time>2016-05-08T10:05:50.000Z</time>
      </trkpt>
      <trkpt lat="47.49664" lon="6.7577">
        <ele>346</ele>
        <time>2016-05-08T10:05:52.000Z</time>
      </trkpt>
      <trkpt lat="47.49667" lon="6.75768">
        <ele>350</ele>
        <time>2016-05-08T10:05:53.000Z</time>
      </trkpt>
      <trkpt lat="47.49669" lon="6.75766">
        <ele>349</ele>
        <time>2016-05-08T10:05:54.000Z</time>
      </trkpt>
      <trkpt lat="47.49672" lon="6.75765">
        <ele>349</ele>
        <time>2016-05-08T10:05:55.000Z</time>
      </trkpt>
      <trkpt lat="47.49675" lon="6.75763">
        <ele>349</ele>
        <time>2016-05-08T10:05:56.000Z</time>
      </trkpt>
      <trkpt lat="47.49677" lon="6.75762">
        <ele>349</ele>
        <time>2016-05-08T10:05:57.000Z</time>
      </trkpt>
      <trkpt lat="47.4968" lon="6.75761">
        <ele>349</ele>
        <time>2016-05-08T10:05:58.000Z</time>
      </trkpt>
      <trkpt lat="47.49683" lon="6.75761">
        <ele>350</ele>
        <time>2016-05-08T10:05:59.000Z</time>
      </trkpt>
      <trkpt lat="47.49685" lon="6.75761">
        <ele>350</ele>
        <time>2016-05-08T10:06:00.000Z</time>
      </trkpt>
      <trkpt lat="47.49688" lon="6.75761">
        <ele>350</ele>
        <time>2016-05-08T10:06:01.000Z</time>
      </trkpt>
      <trkpt lat="47.49692" lon="6.7576">
        <ele>351</ele>
        <time>2016-05-08T10:06:03.000Z</time>
      </trkpt>
      <trkpt lat="47.49694" lon="6.7576">
        <ele>351</ele>
        <time>2016-05-08T10:06:04.000Z</time>
      </trkpt>
      <trkpt lat="47.49696" lon="6.75759">
        <ele>351</ele>
        <time>2016-05-08T10:06:05.000Z</time>
      </trkpt>
      <trkpt lat="47.49699" lon="6.75758">
        <ele>352</ele>
        <time>2016-05-08T10:06:06.000Z</time>
      </trkpt>
      <trkpt lat="47.49702" lon="6.75757">
        <ele>352</ele>
        <time>2016-05-08T10:06:07.000Z</time>
      </trkpt>
      <trkpt lat="47.49705" lon="6.75757">
        <ele>352</ele>
        <time>2016-05-08T10:06:08.000Z</time>
      </trkpt>
      <trkpt lat="47.49708" lon="6.75756">
        <ele>352</ele>
        <time>2016-05-08T10:06:09.000Z</time>
      </trkpt>
      <trkpt lat="47.49711" lon="6.75755">
        <ele>352</ele>
        <time>2016-05-08T10:06:10.000Z</time>
      </trkpt>
      <trkpt lat="47.49714" lon="6.75754">
        <ele>352</ele>
        <time>2016-05-08T10:06:11.000Z</time>
      </trkpt>
      <trkpt lat="47.49717" lon="6.75753">
        <ele>352</ele>
        <time>2016-05-08T10:06:12.000Z</time>
      </trkpt>
      <trkpt lat="47.4972" lon="6.75752">
        <ele>353</ele>
        <time>2016-05-08T10:06:13.000Z</time>
      </trkpt>
      <trkpt lat="47.49723" lon="6.75752">
        <ele>353</ele>
        <time>2016-05-08T10:06:14.000Z</time>
      </trkpt>
      <trkpt lat="47.49725" lon="6.75751">
        <ele>353</ele>
        <time>2016-05-08T10:06:15.001Z</time>
      </trkpt>
      <trkpt lat="47.49729" lon="6.75751">
        <ele>353</ele>
        <time>2016-05-08T10:06:16.000Z</time>
      </trkpt>
      <trkpt lat="47.49732" lon="6.7575">
        <ele>352</ele>
        <time>2016-05-08T10:06:17.000Z</time>
      </trkpt>
      <trkpt lat="47.49736" lon="6.75749">
        <ele>346</ele>
        <time>2016-05-08T10:06:18.000Z</time>
      </trkpt>
      <trkpt lat="47.49739" lon="6.75749">
        <ele>347</ele>
        <time>2016-05-08T10:06:19.000Z</time>
      </trkpt>
      <trkpt lat="47.49742" lon="6.75747">
        <ele>348</ele>
        <time>2016-05-08T10:06:20.000Z</time>
      </trkpt>
      <trkpt lat="47.49745" lon="6.75746">
        <ele>349</ele>
        <time>2016-05-08T10:06:21.000Z</time>
      </trkpt>
      <trkpt lat="47.49748" lon="6.75745">
        <ele>349</ele>
        <time>2016-05-08T10:06:22.000Z</time>
      </trkpt>
      <trkpt lat="47.4975" lon="6.75744">
        <ele>349</ele>
        <time>2016-05-08T10:06:23.000Z</time>
      </trkpt>
      <trkpt lat="47.49752" lon="6.75742">
        <ele>351</ele>
        <time>2016-05-08T10:06:24.001Z</time>
      </trkpt>
      <trkpt lat="47.49754" lon="6.7574">
        <ele>351</ele>
        <time>2016-05-08T10:06:25.000Z</time>
      </trkpt>
      <trkpt lat="47.49757" lon="6.75739">
        <ele>351</ele>
        <time>2016-05-08T10:06:26.000Z</time>
      </trkpt>
      <trkpt lat="47.49759" lon="6.75738">
        <ele>351</ele>
        <time>2016-05-08T10:06:27.001Z</time>
      </trkpt>
      <trkpt lat="47.49762" lon="6.75737">
        <ele>351</ele>
        <time>2016-05-08T10:06:28.000Z</time>
      </trkpt>
      <trkpt lat="47.49765" lon="6.75736">
        <ele>351</ele>
        <time>2016-05-08T10:06:28.999Z</time>
      </trkpt>
      <trkpt lat="47.49767" lon="6.75735">
        <ele>351</ele>
        <time>2016-05-08T10:06:30.000Z</time>
      </trkpt>
      <trkpt lat="47.49771" lon="6.75733">
        <ele>351</ele>
        <time>2016-05-08T10:06:32.000Z</time>
      </trkpt>
      <trkpt lat="47.49772" lon="6.75733">
        <ele>351</ele>
        <time>2016-05-08T10:06:33.000Z</time>
      </trkpt>
      <trkpt lat="47.49775" lon="6.75737">
        <ele>351</ele>
        <time>2016-05-08T10:06:45.000Z</time>
      </trkpt>
      <trkpt lat="47.49776" lon="6.75737">
        <ele>351</ele>
        <time>2016-05-08T10:06:46.000Z</time>
      </trkpt>
      <trkpt lat="47.49778" lon="6.75739">
        <ele>351</ele>
        <time>2016-05-08T10:06:47.000Z</time>
      </trkpt>
      <trkpt lat="47.49781" lon="6.75743">
        <ele>351</ele>
        <time>2016-05-08T10:06:48.000Z</time>
      </trkpt>
      <trkpt lat="47.49784" lon="6.75744">
        <ele>352</ele>
        <time>2016-05-08T10:07:39.000Z</time>
      </trkpt>
      <trkpt lat="47.49785" lon="6.75743">
        <ele>352</ele>
        <time>2016-05-08T10:07:40.000Z</time>
      </trkpt>
      <trkpt lat="47.49788" lon="6.75742">
        <ele>352</ele>
        <time>2016-05-08T10:07:42.000Z</time>
      </trkpt>
      <trkpt lat="47.4979" lon="6.75742">
        <ele>352</ele>
        <time>2016-05-08T10:07:43.000Z</time>
      </trkpt>
      <trkpt lat="47.49793" lon="6.75742">
        <ele>352</ele>
        <time>2016-05-08T10:07:45.000Z</time>
      </trkpt>
      <trkpt lat="47.49795" lon="6.75742">
        <ele>352</ele>
        <time>2016-05-08T10:07:46.000Z</time>
      </trkpt>
      <trkpt lat="47.49798" lon="6.75741">
        <ele>353</ele>
        <time>2016-05-08T10:07:49.000Z</time>
      </trkpt>
      <trkpt lat="47.498" lon="6.75741">
        <ele>353</ele>
        <time>2016-05-08T10:07:50.000Z</time>
      </trkpt>
      <trkpt lat="47.49803" lon="6.7574">
        <ele>353</ele>
        <time>2016-05-08T10:07:53.000Z</time>
      </trkpt>
      <trkpt lat="47.49804" lon="6.75739">
        <ele>353</ele>
        <time>2016-05-08T10:07:54.000Z</time>
      </trkpt>
      <trkpt lat="47.49808" lon="6.75737">
        <ele>353</ele>
        <time>2016-05-08T10:07:57.000Z</time>
      </trkpt>
      <trkpt lat="47.49809" lon="6.75736">
        <ele>353</ele>
        <time>2016-05-08T10:07:58.000Z</time>
      </trkpt>
      <trkpt lat="47.49813" lon="6.75734">
        <ele>354</ele>
        <time>2016-05-08T10:08:00.000Z</time>
      </trkpt>
      <trkpt lat="47.49815" lon="6.75734">
        <ele>354</ele>
        <time>2016-05-08T10:08:01.000Z</time>
      </trkpt>
      <trkpt lat="47.49817" lon="6.75734">
        <ele>354</ele>
        <time>2016-05-08T10:08:02.000Z</time>
      </trkpt>
      <trkpt lat="47.49819" lon="6.75734">
        <ele>354</ele>
        <time>2016-05-08T10:08:03.000Z</time>
      </trkpt>
      <trkpt lat="47.49822" lon="6.75734">
        <ele>355</ele>
        <time>2016-05-08T10:08:04.000Z</time>
      </trkpt>
      <trkpt lat="47.49824" lon="6.75734">
        <ele>355</ele>
        <time>2016-05-08T10:08:05.000Z</time>
      </trkpt>
      <trkpt lat="47.49827" lon="6.75733">
        <ele>355</ele>
        <time>2016-05-08T10:08:06.000Z</time>
      </trkpt>
      <trkpt lat="47.49829" lon="6.75732">
        <ele>355</ele>
        <time>2016-05-08T10:08:07.000Z</time>
      </trkpt>
      <trkpt lat="47.49832" lon="6.75728">
        <ele>354</ele>
        <time>2016-05-08T10:08:09.000Z</time>
      </trkpt>
      <trkpt lat="47.49834" lon="6.75727">
        <ele>360</ele>
        <time>2016-05-08T10:08:10.000Z</time>
      </trkpt>
      <trkpt lat="47.49837" lon="6.75725">
        <ele>361</ele>
        <time>2016-05-08T10:08:11.999Z</time>
      </trkpt>
      <trkpt lat="47.49839" lon="6.75725">
        <ele>361</ele>
        <time>2016-05-08T10:08:13.000Z</time>
      </trkpt>
      <trkpt lat="47.49844" lon="6.75725">
        <ele>361</ele>
        <time>2016-05-08T10:08:15.000Z</time>
      </trkpt>
      <trkpt lat="47.49846" lon="6.75725">
        <ele>361</ele>
        <time>2016-05-08T10:08:16.000Z</time>
      </trkpt>
      <trkpt lat="47.4985" lon="6.75724">
        <ele>361</ele>
        <time>2016-05-08T10:08:18.000Z</time>
      </trkpt>
      <trkpt lat="47.49852" lon="6.75724">
        <ele>361</ele>
        <time>2016-05-08T10:08:19.000Z</time>
      </trkpt>
      <trkpt lat="47.49856" lon="6.75725">
        <ele>361</ele>
        <time>2016-05-08T10:08:21.000Z</time>
      </trkpt>
      <trkpt lat="47.49859" lon="6.75726">
        <ele>362</ele>
        <time>2016-05-08T10:08:22.000Z</time>
      </trkpt>
      <trkpt lat="47.49863" lon="6.75727">
        <ele>362</ele>
        <time>2016-05-08T10:08:24.002Z</time>
      </trkpt>
      <trkpt lat="47.49864" lon="6.75727">
        <ele>362</ele>
        <time>2016-05-08T10:08:25.000Z</time>
      </trkpt>
      <trkpt lat="47.49868" lon="6.75723">
        <ele>362</ele>
        <time>2016-05-08T10:08:30.000Z</time>
      </trkpt>
      <trkpt lat="47.49869" lon="6.75723">
        <ele>362</ele>
        <time>2016-05-08T10:08:31.000Z</time>
      </trkpt>
      <trkpt lat="47.49872" lon="6.7572">
        <ele>362</ele>
        <time>2016-05-08T10:08:33.000Z</time>
      </trkpt>
      <trkpt lat="47.49873" lon="6.7572">
        <ele>363</ele>
        <time>2016-05-08T10:08:34.000Z</time>
      </trkpt>
      <trkpt lat="47.49877" lon="6.75718">
        <ele>363</ele>
        <time>2016-05-08T10:08:36.000Z</time>
      </trkpt>
      <trkpt lat="47.49879" lon="6.75718">
        <ele>363</ele>
        <time>2016-05-08T10:08:37.000Z</time>
      </trkpt>
      <trkpt lat="47.49882" lon="6.75715">
        <ele>363</ele>
        <time>2016-05-08T10:08:39.000Z</time>
      </trkpt>
      <trkpt lat="47.49884" lon="6.75714">
        <ele>363</ele>
        <time>2016-05-08T10:08:40.000Z</time>
      </trkpt>
      <trkpt lat="47.49887" lon="6.75711">
        <ele>363</ele>
        <time>2016-05-08T10:08:42.000Z</time>
      </trkpt>
      <trkpt lat="47.49889" lon="6.7571">
        <ele>364</ele>
        <time>2016-05-08T10:08:43.000Z</time>
      </trkpt>
      <trkpt lat="47.49894" lon="6.75709">
        <ele>364</ele>
        <time>2016-05-08T10:08:45.000Z</time>
      </trkpt>
      <trkpt lat="47.49896" lon="6.75709">
        <ele>364</ele>
        <time>2016-05-08T10:08:46.000Z</time>
      </trkpt>
      <trkpt lat="47.49899" lon="6.75709">
        <ele>364</ele>
        <time>2016-05-08T10:08:48.000Z</time>
      </trkpt>
      <trkpt lat="47.49901" lon="6.75708">
        <ele>364</ele>
        <time>2016-05-08T10:08:49.000Z</time>
      </trkpt>
      <trkpt lat="47.49904" lon="6.75707">
        <ele>364</ele>
        <time>2016-05-08T10:08:51.000Z</time>
      </trkpt>
      <trkpt lat="47.49905" lon="6.75706">
        <ele>364</ele>
        <time>2016-05-08T10:08:52.000Z</time>
      </trkpt>
      <trkpt lat="47.49908" lon="6.75708">
        <ele>365</ele>
        <time>2016-05-08T10:08:54.000Z</time>
      </trkpt>
      <trkpt lat="47.49911" lon="6.7571">
        <ele>365</ele>
        <time>2016-05-08T10:08:55.000Z</time>
      </trkpt>
      <trkpt lat="47.49914" lon="6.75712">
        <ele>365</ele>
        <time>2016-05-08T10:08:57.000Z</time>
      </trkpt>
      <trkpt lat="47.49916" lon="6.75713">
        <ele>365</ele>
        <time>2016-05-08T10:08:58.000Z</time>
      </trkpt>
      <trkpt lat="47.49919" lon="6.75716">
        <ele>370</ele>
        <time>2016-05-08T10:09:01.000Z</time>
      </trkpt>
      <trkpt lat="47.4992" lon="6.75718">
        <ele>370</ele>
        <time>2016-05-08T10:09:02.000Z</time>
      </trkpt>
      <trkpt lat="47.4992" lon="6.75724">
        <ele>370</ele>
        <time>2016-05-08T10:09:05.000Z</time>
      </trkpt>
      <trkpt lat="47.49921" lon="6.75725">
        <ele>370</ele>
        <time>2016-05-08T10:09:06.000Z</time>
      </trkpt>
      <trkpt lat="47.49923" lon="6.75729">
        <ele>370</ele>
        <time>2016-05-08T10:09:08.000Z</time>
      </trkpt>
      <trkpt lat="47.49925" lon="6.75729">
        <ele>370</ele>
        <time>2016-05-08T10:09:09.000Z</time>
      </trkpt>
      <trkpt lat="47.49929" lon="6.7573">
        <ele>370</ele>
        <time>2016-05-08T10:09:14.000Z</time>
      </trkpt>
      <trkpt lat="47.4993" lon="6.7573">
        <ele>370</ele>
        <time>2016-05-08T10:09:15.000Z</time>
      </trkpt>
      <trkpt lat="47.49933" lon="6.75734">
        <ele>370</ele>
        <time>2016-05-08T10:09:18.000Z</time>
      </trkpt>
      <trkpt lat="47.49934" lon="6.75735">
        <ele>370</ele>
        <time>2016-05-08T10:09:19.000Z</time>
      </trkpt>
      <trkpt lat="47.49936" lon="6.75738">
        <ele>370</ele>
        <time>2016-05-08T10:09:20.999Z</time>
      </trkpt>
      <trkpt lat="47.49937" lon="6.75741">
        <ele>370</ele>
        <time>2016-05-08T10:09:22.000Z</time>
      </trkpt>
      <trkpt lat="47.49939" lon="6.75747">
        <ele>370</ele>
        <time>2016-05-08T10:09:25.000Z</time>
      </trkpt>
      <trkpt lat="47.4994" lon="6.75749">
        <ele>370</ele>
        <time>2016-05-08T10:09:26.000Z</time>
      </trkpt>
      <trkpt lat="47.49942" lon="6.75752">
        <ele>372</ele>
        <time>2016-05-08T10:09:28.000Z</time>
      </trkpt>
      <trkpt lat="47.49943" lon="6.75754">
        <ele>372</ele>
        <time>2016-05-08T10:09:29.000Z</time>
      </trkpt>
      <trkpt lat="47.49946" lon="6.75757">
        <ele>373</ele>
        <time>2016-05-08T10:09:31.000Z</time>
      </trkpt>
      <trkpt lat="47.49948" lon="6.75758">
        <ele>373</ele>
        <time>2016-05-08T10:09:32.000Z</time>
      </trkpt>
      <trkpt lat="47.49951" lon="6.7576">
        <ele>373</ele>
        <time>2016-05-08T10:09:34.000Z</time>
      </trkpt>
      <trkpt lat="47.49952" lon="6.75761">
        <ele>373</ele>
        <time>2016-05-08T10:09:34.999Z</time>
      </trkpt>
      <trkpt lat="47.49956" lon="6.75761">
        <ele>373</ele>
        <time>2016-05-08T10:09:36.000Z</time>
      </trkpt>
      <trkpt lat="47.49959" lon="6.75762">
        <ele>374</ele>
        <time>2016-05-08T10:09:37.000Z</time>
      </trkpt>
      <trkpt lat="47.49963" lon="6.75765">
        <ele>374</ele>
        <time>2016-05-08T10:09:39.000Z</time>
      </trkpt>
      <trkpt lat="47.49964" lon="6.7577">
        <ele>374</ele>
        <time>2016-05-08T10:09:40.000Z</time>
      </trkpt>
      <trkpt lat="47.49965" lon="6.75774">
        <ele>374</ele>
        <time>2016-05-08T10:09:41.000Z</time>
      </trkpt>
      <trkpt lat="47.49967" lon="6.75777">
        <ele>374</ele>
        <time>2016-05-08T10:09:42.000Z</time>
      </trkpt>
      <trkpt lat="47.49968" lon="6.7578">
        <ele>374</ele>
        <time>2016-05-08T10:09:43.000Z</time>
      </trkpt>
      <trkpt lat="47.49971" lon="6.75784">
        <ele>374</ele>
        <time>2016-05-08T10:09:45.000Z</time>
      </trkpt>
      <trkpt lat="47.49972" lon="6.75785">
        <ele>374</ele>
        <time>2016-05-08T10:09:46.000Z</time>
      </trkpt>
      <trkpt lat="47.49974" lon="6.7579">
        <ele>375</ele>
        <time>2016-05-08T10:09:49.000Z</time>
      </trkpt>
      <trkpt lat="47.49975" lon="6.75791">
        <ele>375</ele>
        <time>2016-05-08T10:09:49.999Z</time>
      </trkpt>
      <trkpt lat="47.49978" lon="6.75796">
        <ele>375</ele>
        <time>2016-05-08T10:09:53.000Z</time>
      </trkpt>
      <trkpt lat="47.49978" lon="6.75797">
        <ele>375</ele>
        <time>2016-05-08T10:09:54.000Z</time>
      </trkpt>
      <trkpt lat="47.49979" lon="6.758">
        <ele>375</ele>
        <time>2016-05-08T10:09:57.000Z</time>
      </trkpt>
      <trkpt lat="47.49981" lon="6.75802">
        <ele>375</ele>
        <time>2016-05-08T10:09:58.000Z</time>
      </trkpt>
      <trkpt lat="47.49985" lon="6.75804">
        <ele>375</ele>
        <time>2016-05-08T10:10:00.000Z</time>
      </trkpt>
      <trkpt lat="47.49987" lon="6.75806">
        <ele>375</ele>
        <time>2016-05-08T10:10:01.000Z</time>
      </trkpt>
      <trkpt lat="47.49989" lon="6.75807">
        <ele>376</ele>
        <time>2016-05-08T10:10:02.000Z</time>
      </trkpt>
      <trkpt lat="47.49993" lon="6.75808">
        <ele>376</ele>
        <time>2016-05-08T10:10:03.000Z</time>
      </trkpt>
      <trkpt lat="47.49997" lon="6.7581">
        <ele>376</ele>
        <time>2016-05-08T10:10:04.999Z</time>
      </trkpt>
      <trkpt lat="47.49998" lon="6.75811">
        <ele>376</ele>
        <time>2016-05-08T10:10:06.000Z</time>
      </trkpt>
      <trkpt lat="47.50001" lon="6.75816">
        <ele>377</ele>
        <time>2016-05-08T10:10:08.000Z</time>
      </trkpt>
      <trkpt lat="47.50002" lon="6.75819">
        <ele>377</ele>
        <time>2016-05-08T10:10:09.000Z</time>
      </trkpt>
      <trkpt lat="47.50004" lon="6.75824">
        <ele>377</ele>
        <time>2016-05-08T10:10:10.000Z</time>
      </trkpt>
      <trkpt lat="47.50006" lon="6.75828">
        <ele>378</ele>
        <time>2016-05-08T10:10:11.000Z</time>
      </trkpt>
      <trkpt lat="47.50008" lon="6.75832">
        <ele>378</ele>
        <time>2016-05-08T10:10:12.000Z</time>
      </trkpt>
      <trkpt lat="47.5001" lon="6.75835">
        <ele>378</ele>
        <time>2016-05-08T10:10:13.000Z</time>
      </trkpt>
      <trkpt lat="47.50011" lon="6.75838">
        <ele>378</ele>
        <time>2016-05-08T10:10:14.000Z</time>
      </trkpt>
      <trkpt lat="47.50013" lon="6.75842">
        <ele>378</ele>
        <time>2016-05-08T10:10:15.000Z</time>
      </trkpt>
      <trkpt lat="47.50014" lon="6.75845">
        <ele>377</ele>
        <time>2016-05-08T10:10:16.000Z</time>
      </trkpt>
      <trkpt lat="47.50016" lon="6.75849">
        <ele>377</ele>
        <time>2016-05-08T10:10:17.000Z</time>
      </trkpt>
      <trkpt lat="47.50017" lon="6.75852">
        <ele>377</ele>
        <time>2016-05-08T10:10:18.000Z</time>
      </trkpt>
      <trkpt lat="47.50019" lon="6.75855">
        <ele>377</ele>
        <time>2016-05-08T10:10:19.000Z</time>
      </trkpt>
      <trkpt lat="47.5002" lon="6.75858">
        <ele>377</ele>
        <time>2016-05-08T10:10:20.000Z</time>
      </trkpt>
      <trkpt lat="47.50021" lon="6.7586">
        <ele>377</ele>
        <time>2016-05-08T10:10:21.000Z</time>
      </trkpt>
      <trkpt lat="47.50024" lon="6.75865">
        <ele>377</ele>
        <time>2016-05-08T10:10:23.001Z</time>
      </trkpt>
      <trkpt lat="47.50026" lon="6.75868">
        <ele>376</ele>
        <time>2016-05-08T10:10:24.000Z</time>
      </trkpt>
      <trkpt lat="47.50027" lon="6.7587">
        <ele>376</ele>
        <time>2016-05-08T10:10:24.999Z</time>
      </trkpt>
      <trkpt lat="47.5003" lon="6.75873">
        <ele>376</ele>
        <time>2016-05-08T10:10:26.000Z</time>
      </trkpt>
      <trkpt lat="47.50032" lon="6.75874">
        <ele>376</ele>
        <time>2016-05-08T10:10:27.000Z</time>
      </trkpt>
      <trkpt lat="47.50035" lon="6.75877">
        <ele>376</ele>
        <time>2016-05-08T10:10:28.000Z</time>
      </trkpt>
      <trkpt lat="47.50037" lon="6.75882">
        <ele>376</ele>
        <time>2016-05-08T10:10:29.000Z</time>
      </trkpt>
      <trkpt lat="47.50038" lon="6.75885">
        <ele>376</ele>
        <time>2016-05-08T10:10:30.000Z</time>
      </trkpt>
      <trkpt lat="47.5004" lon="6.75889">
        <ele>376</ele>
        <time>2016-05-08T10:10:31.000Z</time>
      </trkpt>
      <trkpt lat="47.50041" lon="6.75892">
        <ele>376</ele>
        <time>2016-05-08T10:10:32.000Z</time>
      </trkpt>
      <trkpt lat="47.50043" lon="6.75896">
        <ele>376</ele>
        <time>2016-05-08T10:10:33.000Z</time>
      </trkpt>
      <trkpt lat="47.50044" lon="6.75899">
        <ele>376</ele>
        <time>2016-05-08T10:10:34.000Z</time>
      </trkpt>
      <trkpt lat="47.50046" lon="6.75902">
        <ele>376</ele>
        <time>2016-05-08T10:10:35.000Z</time>
      </trkpt>
      <trkpt lat="47.50048" lon="6.75905">
        <ele>376</ele>
        <time>2016-05-08T10:10:36.000Z</time>
      </trkpt>
      <trkpt lat="47.50049" lon="6.75908">
        <ele>376</ele>
        <time>2016-05-08T10:10:37.000Z</time>
      </trkpt>
      <trkpt lat="47.50051" lon="6.7591">
        <ele>376</ele>
        <time>2016-05-08T10:10:38.000Z</time>
      </trkpt>
      <trkpt lat="47.50053" lon="6.75914">
        <ele>376</ele>
        <time>2016-05-08T10:10:40.000Z</time>
      </trkpt>
      <trkpt lat="47.50054" lon="6.75916">
        <ele>376</ele>
        <time>2016-05-08T10:10:41.000Z</time>
      </trkpt>
      <trkpt lat="47.50055" lon="6.75919">
        <ele>377</ele>
        <time>2016-05-08T10:10:42.000Z</time>
      </trkpt>
      <trkpt lat="47.50057" lon="6.75922">
        <ele>377</ele>
        <time>2016-05-08T10:10:43.000Z</time>
      </trkpt>
      <trkpt lat="47.50058" lon="6.75924">
        <ele>377</ele>
        <time>2016-05-08T10:10:44.000Z</time>
      </trkpt>
      <trkpt lat="47.5006" lon="6.75927">
        <ele>377</ele>
        <time>2016-05-08T10:10:45.000Z</time>
      </trkpt>
      <trkpt lat="47.50062" lon="6.75931">
        <ele>377</ele>
        <time>2016-05-08T10:10:46.000Z</time>
      </trkpt>
      <trkpt lat="47.50064" lon="6.75934">
        <ele>377</ele>
        <time>2016-05-08T10:10:47.000Z</time>
      </trkpt>
      <trkpt lat="47.50066" lon="6.75938">
        <ele>377</ele>
        <time>2016-05-08T10:10:48.000Z</time>
      </trkpt>
      <trkpt lat="47.50069" lon="6.75942">
        <ele>377</ele>
        <time>2016-05-08T10:10:49.000Z</time>
      </trkpt>
      <trkpt lat="47.5007" lon="6.75944">
        <ele>377</ele>
        <time>2016-05-08T10:10:50.001Z</time>
      </trkpt>
      <trkpt lat="47.50073" lon="6.75949">
        <ele>378</ele>
        <time>2016-05-08T10:10:51.000Z</time>
      </trkpt>
      <trkpt lat="47.50073" lon="6.75955">
        <ele>378</ele>
        <time>2016-05-08T10:10:53.000Z</time>
      </trkpt>
      <trkpt lat="47.50072" lon="6.75959">
        <ele>378</ele>
        <time>2016-05-08T10:10:54.000Z</time>
      </trkpt>
      <trkpt lat="47.50073" lon="6.75962">
        <ele>378</ele>
        <time>2016-05-08T10:10:55.000Z</time>
      </trkpt>
      <trkpt lat="47.50074" lon="6.75966">
        <ele>379</ele>
        <time>2016-05-08T10:10:56.000Z</time>
      </trkpt>
      <trkpt lat="47.50076" lon="6.75969">
        <ele>379</ele>
        <time>2016-05-08T10:10:57.000Z</time>
      </trkpt>
      <trkpt lat="47.50078" lon="6.75973">
        <ele>379</ele>
        <time>2016-05-08T10:10:58.000Z</time>
      </trkpt>
      <trkpt lat="47.50082" lon="6.75977">
        <ele>379</ele>
        <time>2016-05-08T10:10:59.000Z</time>
      </trkpt>
      <trkpt lat="47.50084" lon="6.75979">
        <ele>376</ele>
        <time>2016-05-08T10:11:00.000Z</time>
      </trkpt>
      <trkpt lat="47.50086" lon="6.75981">
        <ele>376</ele>
        <time>2016-05-08T10:11:01.000Z</time>
      </trkpt>
      <trkpt lat="47.50088" lon="6.75985">
        <ele>376</ele>
        <time>2016-05-08T10:11:03.000Z</time>
      </trkpt>
      <trkpt lat="47.50089" lon="6.75987">
        <ele>377</ele>
        <time>2016-05-08T10:11:04.001Z</time>
      </trkpt>
      <trkpt lat="47.50092" lon="6.75992">
        <ele>377</ele>
        <time>2016-05-08T10:11:06.000Z</time>
      </trkpt>
      <trkpt lat="47.50093" lon="6.75995">
        <ele>377</ele>
        <time>2016-05-08T10:11:07.000Z</time>
      </trkpt>
      <trkpt lat="47.50095" lon="6.76">
        <ele>379</ele>
        <time>2016-05-08T10:11:09.000Z</time>
      </trkpt>
      <trkpt lat="47.50096" lon="6.76003">
        <ele>379</ele>
        <time>2016-05-08T10:11:10.000Z</time>
      </trkpt>
      <trkpt lat="47.50099" lon="6.76008">
        <ele>379</ele>
        <time>2016-05-08T10:11:12.000Z</time>
      </trkpt>
      <trkpt lat="47.501" lon="6.76012">
        <ele>379</ele>
        <time>2016-05-08T10:11:13.000Z</time>
      </trkpt>
      <trkpt lat="47.50102" lon="6.76017">
        <ele>379</ele>
        <time>2016-05-08T10:11:14.000Z</time>
      </trkpt>
      <trkpt lat="47.50103" lon="6.76021">
        <ele>379</ele>
        <time>2016-05-08T10:11:15.000Z</time>
      </trkpt>
      <trkpt lat="47.50104" lon="6.76026">
        <ele>379</ele>
        <time>2016-05-08T10:11:16.000Z</time>
      </trkpt>
      <trkpt lat="47.50104" lon="6.7603">
        <ele>379</ele>
        <time>2016-05-08T10:11:17.000Z</time>
      </trkpt>
      <trkpt lat="47.50105" lon="6.76033">
        <ele>379</ele>
        <time>2016-05-08T10:11:18.000Z</time>
      </trkpt>
      <trkpt lat="47.50105" lon="6.76037">
        <ele>380</ele>
        <time>2016-05-08T10:11:19.000Z</time>
      </trkpt>
      <trkpt lat="47.50106" lon="6.7604">
        <ele>380</ele>
        <time>2016-05-08T10:11:20.000Z</time>
      </trkpt>
      <trkpt lat="47.50106" lon="6.76044">
        <ele>380</ele>
        <time>2016-05-08T10:11:21.000Z</time>
      </trkpt>
      <trkpt lat="47.50107" lon="6.76047">
        <ele>380</ele>
        <time>2016-05-08T10:11:22.000Z</time>
      </trkpt>
      <trkpt lat="47.50107" lon="6.76051">
        <ele>380</ele>
        <time>2016-05-08T10:11:23.000Z</time>
      </trkpt>
      <trkpt lat="47.50108" lon="6.76054">
        <ele>380</ele>
        <time>2016-05-08T10:11:24.000Z</time>
      </trkpt>
      <trkpt lat="47.50109" lon="6.76058">
        <ele>381</ele>
        <time>2016-05-08T10:11:25.000Z</time>
      </trkpt>
      <trkpt lat="47.5011" lon="6.76061">
        <ele>381</ele>
        <time>2016-05-08T10:11:26.000Z</time>
      </trkpt>
      <trkpt lat="47.50111" lon="6.76064">
        <ele>381</ele>
        <time>2016-05-08T10:11:27.000Z</time>
      </trkpt>
      <trkpt lat="47.50112" lon="6.76068">
        <ele>381</ele>
        <time>2016-05-08T10:11:28.000Z</time>
      </trkpt>
      <trkpt lat="47.50112" lon="6.76071">
        <ele>381</ele>
        <time>2016-05-08T10:11:29.000Z</time>
      </trkpt>
      <trkpt lat="47.50113" lon="6.76075">
        <ele>381</ele>
        <time>2016-05-08T10:11:30.000Z</time>
      </trkpt>
      <trkpt lat="47.50114" lon="6.76078">
        <ele>381</ele>
        <time>2016-05-08T10:11:31.000Z</time>
      </trkpt>
      <trkpt lat="47.50115" lon="6.76081">
        <ele>381</ele>
        <time>2016-05-08T10:11:32.000Z</time>
      </trkpt>
      <trkpt lat="47.50116" lon="6.76085">
        <ele>384</ele>
        <time>2016-05-08T10:11:33.000Z</time>
      </trkpt>
      <trkpt lat="47.50116" lon="6.76088">
        <ele>384</ele>
        <time>2016-05-08T10:11:34.000Z</time>
      </trkpt>
      <trkpt lat="47.50117" lon="6.76092">
        <ele>384</ele>
        <time>2016-05-08T10:11:35.000Z</time>
      </trkpt>
      <trkpt lat="47.50118" lon="6.76095">
        <ele>384</ele>
        <time>2016-05-08T10:11:36.000Z</time>
      </trkpt>
      <trkpt lat="47.50119" lon="6.76099">
        <ele>384</ele>
        <time>2016-05-08T10:11:37.000Z</time>
      </trkpt>
      <trkpt lat="47.5012" lon="6.76102">
        <ele>384</ele>
        <time>2016-05-08T10:11:38.000Z</time>
      </trkpt>
      <trkpt lat="47.50121" lon="6.76106">
        <ele>384</ele>
        <time>2016-05-08T10:11:39.000Z</time>
      </trkpt>
      <trkpt lat="47.50122" lon="6.76111">
        <ele>384</ele>
        <time>2016-05-08T10:11:40.000Z</time>
      </trkpt>
      <trkpt lat="47.50123" lon="6.76116">
        <ele>384</ele>
        <time>2016-05-08T10:11:41.000Z</time>
      </trkpt>
      <trkpt lat="47.50124" lon="6.76121">
        <ele>384</ele>
        <time>2016-05-08T10:11:42.000Z</time>
      </trkpt>
      <trkpt lat="47.50125" lon="6.76125">
        <ele>384</ele>
        <time>2016-05-08T10:11:43.000Z</time>
      </trkpt>
      <trkpt lat="47.50126" lon="6.76131">
        <ele>384</ele>
        <time>2016-05-08T10:11:44.000Z</time>
      </trkpt>
      <trkpt lat="47.50128" lon="6.76136">
        <ele>384</ele>
        <time>2016-05-08T10:11:45.000Z</time>
      </trkpt>
      <trkpt lat="47.50129" lon="6.7614">
        <ele>384</ele>
        <time>2016-05-08T10:11:46.000Z</time>
      </trkpt>
      <trkpt lat="47.50129" lon="6.76144">
        <ele>384</ele>
        <time>2016-05-08T10:11:47.000Z</time>
      </trkpt>
      <trkpt lat="47.5013" lon="6.7615">
        <ele>384</ele>
        <time>2016-05-08T10:11:49.000Z</time>
      </trkpt>
      <trkpt lat="47.50131" lon="6.76153">
        <ele>384</ele>
        <time>2016-05-08T10:11:50.000Z</time>
      </trkpt>
      <trkpt lat="47.50131" lon="6.76156">
        <ele>384</ele>
        <time>2016-05-08T10:11:51.000Z</time>
      </trkpt>
      <trkpt lat="47.50132" lon="6.7616">
        <ele>384</ele>
        <time>2016-05-08T10:11:52.000Z</time>
      </trkpt>
      <trkpt lat="47.50133" lon="6.76163">
        <ele>384</ele>
        <time>2016-05-08T10:11:53.000Z</time>
      </trkpt>
      <trkpt lat="47.50134" lon="6.76167">
        <ele>387</ele>
        <time>2016-05-08T10:11:54.000Z</time>
      </trkpt>
      <trkpt lat="47.50135" lon="6.7617">
        <ele>387</ele>
        <time>2016-05-08T10:11:55.000Z</time>
      </trkpt>
      <trkpt lat="47.50137" lon="6.76173">
        <ele>387</ele>
        <time>2016-05-08T10:11:56.000Z</time>
      </trkpt>
      <trkpt lat="47.50138" lon="6.76176">
        <ele>387</ele>
        <time>2016-05-08T10:11:57.000Z</time>
      </trkpt>
      <trkpt lat="47.50139" lon="6.7618">
        <ele>387</ele>
        <time>2016-05-08T10:11:58.000Z</time>
      </trkpt>
      <trkpt lat="47.5014" lon="6.76183">
        <ele>387</ele>
        <time>2016-05-08T10:11:59.000Z</time>
      </trkpt>
      <trkpt lat="47.50141" lon="6.76187">
        <ele>387</ele>
        <time>2016-05-08T10:12:00.000Z</time>
      </trkpt>
      <trkpt lat="47.50142" lon="6.76191">
        <ele>387</ele>
        <time>2016-05-08T10:12:01.000Z</time>
      </trkpt>
      <trkpt lat="47.50142" lon="6.76195">
        <ele>388</ele>
        <time>2016-05-08T10:12:02.000Z</time>
      </trkpt>
      <trkpt lat="47.50143" lon="6.76198">
        <ele>388</ele>
        <time>2016-05-08T10:12:03.000Z</time>
      </trkpt>
      <trkpt lat="47.50144" lon="6.76202">
        <ele>388</ele>
        <time>2016-05-08T10:12:04.000Z</time>
      </trkpt>
      <trkpt lat="47.50145" lon="6.76205">
        <ele>388</ele>
        <time>2016-05-08T10:12:05.000Z</time>
      </trkpt>
      <trkpt lat="47.50145" lon="6.76208">
        <ele>388</ele>
        <time>2016-05-08T10:12:06.000Z</time>
      </trkpt>
      <trkpt lat="47.50146" lon="6.76211">
        <ele>389</ele>
        <time>2016-05-08T10:12:07.000Z</time>
      </trkpt>
      <trkpt lat="47.50146" lon="6.76215">
        <ele>389</ele>
        <time>2016-05-08T10:12:08.000Z</time>
      </trkpt>
      <trkpt lat="47.50147" lon="6.76219">
        <ele>389</ele>
        <time>2016-05-08T10:12:09.000Z</time>
      </trkpt>
      <trkpt lat="47.50148" lon="6.76223">
        <ele>389</ele>
        <time>2016-05-08T10:12:10.000Z</time>
      </trkpt>
      <trkpt lat="47.50149" lon="6.76227">
        <ele>389</ele>
        <time>2016-05-08T10:12:11.000Z</time>
      </trkpt>
      <trkpt lat="47.50149" lon="6.76231">
        <ele>389</ele>
        <time>2016-05-08T10:12:12.000Z</time>
      </trkpt>
      <trkpt lat="47.5015" lon="6.76235">
        <ele>389</ele>
        <time>2016-05-08T10:12:13.000Z</time>
      </trkpt>
      <trkpt lat="47.5015" lon="6.76239">
        <ele>389</ele>
        <time>2016-05-08T10:12:14.000Z</time>
      </trkpt>
      <trkpt lat="47.50151" lon="6.76243">
        <ele>388</ele>
        <time>2016-05-08T10:12:15.000Z</time>
      </trkpt>
      <trkpt lat="47.50152" lon="6.76248">
        <ele>388</ele>
        <time>2016-05-08T10:12:16.000Z</time>
      </trkpt>
      <trkpt lat="47.50152" lon="6.76252">
        <ele>391</ele>
        <time>2016-05-08T10:12:17.000Z</time>
      </trkpt>
      <trkpt lat="47.50153" lon="6.76256">
        <ele>391</ele>
        <time>2016-05-08T10:12:18.000Z</time>
      </trkpt>
      <trkpt lat="47.50153" lon="6.76259">
        <ele>391</ele>
        <time>2016-05-08T10:12:19.000Z</time>
      </trkpt>
      <trkpt lat="47.50154" lon="6.76263">
        <ele>392</ele>
        <time>2016-05-08T10:12:20.000Z</time>
      </trkpt>
      <trkpt lat="47.50154" lon="6.76267">
        <ele>392</ele>
        <time>2016-05-08T10:12:21.000Z</time>
      </trkpt>
      <trkpt lat="47.50155" lon="6.76271">
        <ele>393</ele>
        <time>2016-05-08T10:12:22.000Z</time>
      </trkpt>
      <trkpt lat="47.50156" lon="6.76275">
        <ele>393</ele>
        <time>2016-05-08T10:12:23.000Z</time>
      </trkpt>
      <trkpt lat="47.50157" lon="6.7628">
        <ele>394</ele>
        <time>2016-05-08T10:12:24.000Z</time>
      </trkpt>
      <trkpt lat="47.50159" lon="6.76285">
        <ele>394</ele>
        <time>2016-05-08T10:12:25.000Z</time>
      </trkpt>
      <trkpt lat="47.50159" lon="6.76289">
        <ele>394</ele>
        <time>2016-05-08T10:12:26.000Z</time>
      </trkpt>
      <trkpt lat="47.50161" lon="6.76293">
        <ele>394</ele>
        <time>2016-05-08T10:12:27.000Z</time>
      </trkpt>
      <trkpt lat="47.50162" lon="6.76297">
        <ele>394</ele>
        <time>2016-05-08T10:12:28.000Z</time>
      </trkpt>
      <trkpt lat="47.50163" lon="6.76303">
        <ele>394</ele>
        <time>2016-05-08T10:12:29.000Z</time>
      </trkpt>
      <trkpt lat="47.50163" lon="6.76308">
        <ele>394</ele>
        <time>2016-05-08T10:12:30.000Z</time>
      </trkpt>
      <trkpt lat="47.50164" lon="6.76314">
        <ele>394</ele>
        <time>2016-05-08T10:12:31.000Z</time>
      </trkpt>
      <trkpt lat="47.50164" lon="6.76319">
        <ele>393</ele>
        <time>2016-05-08T10:12:32.000Z</time>
      </trkpt>
      <trkpt lat="47.50165" lon="6.76323">
        <ele>393</ele>
        <time>2016-05-08T10:12:33.000Z</time>
      </trkpt>
      <trkpt lat="47.50166" lon="6.76327">
        <ele>392</ele>
        <time>2016-05-08T10:12:34.000Z</time>
      </trkpt>
      <trkpt lat="47.50167" lon="6.76331">
        <ele>390</ele>
        <time>2016-05-08T10:12:35.000Z</time>
      </trkpt>
      <trkpt lat="47.50168" lon="6.76335">
        <ele>391</ele>
        <time>2016-05-08T10:12:36.000Z</time>
      </trkpt>
      <trkpt lat="47.5017" lon="6.76339">
        <ele>391</ele>
        <time>2016-05-08T10:12:37.000Z</time>
      </trkpt>
      <trkpt lat="47.50171" lon="6.76343">
        <ele>390</ele>
        <time>2016-05-08T10:12:38.000Z</time>
      </trkpt>
      <trkpt lat="47.50173" lon="6.76347">
        <ele>390</ele>
        <time>2016-05-08T10:12:39.000Z</time>
      </trkpt>
      <trkpt lat="47.50174" lon="6.7635">
        <ele>390</ele>
        <time>2016-05-08T10:12:40.000Z</time>
      </trkpt>
      <trkpt lat="47.50176" lon="6.76354">
        <ele>390</ele>
        <time>2016-05-08T10:12:41.000Z</time>
      </trkpt>
      <trkpt lat="47.50177" lon="6.76358">
        <ele>390</ele>
        <time>2016-05-08T10:12:42.000Z</time>
      </trkpt>
      <trkpt lat="47.50178" lon="6.76361">
        <ele>390</ele>
        <time>2016-05-08T10:12:43.000Z</time>
      </trkpt>
      <trkpt lat="47.50179" lon="6.76365">
        <ele>390</ele>
        <time>2016-05-08T10:12:44.000Z</time>
      </trkpt>
      <trkpt lat="47.5018" lon="6.76369">
        <ele>390</ele>
        <time>2016-05-08T10:12:45.000Z</time>
      </trkpt>
      <trkpt lat="47.50181" lon="6.76372">
        <ele>391</ele>
        <time>2016-05-08T10:12:46.000Z</time>
      </trkpt>
      <trkpt lat="47.50182" lon="6.76376">
        <ele>391</ele>
        <time>2016-05-08T10:12:47.000Z</time>
      </trkpt>
      <trkpt lat="47.50183" lon="6.7638">
        <ele>391</ele>
        <time>2016-05-08T10:12:48.000Z</time>
      </trkpt>
      <trkpt lat="47.50185" lon="6.76384">
        <ele>391</ele>
        <time>2016-05-08T10:12:49.000Z</time>
      </trkpt>
      <trkpt lat="47.50186" lon="6.76388">
        <ele>391</ele>
        <time>2016-05-08T10:12:50.000Z</time>
      </trkpt>
      <trkpt lat="47.50187" lon="6.76392">
        <ele>392</ele>
        <time>2016-05-08T10:12:51.000Z</time>
      </trkpt>
      <trkpt lat="47.50188" lon="6.76397">
        <ele>392</ele>
        <time>2016-05-08T10:12:52.000Z</time>
      </trkpt>
      <trkpt lat="47.5019" lon="6.76401">
        <ele>392</ele>
        <time>2016-05-08T10:12:53.000Z</time>
      </trkpt>
      <trkpt lat="47.50191" lon="6.76404">
        <ele>392</ele>
        <time>2016-05-08T10:12:54.000Z</time>
      </trkpt>
      <trkpt lat="47.50192" lon="6.76407">
        <ele>392</ele>
        <time>2016-05-08T10:12:55.000Z</time>
      </trkpt>
      <trkpt lat="47.50193" lon="6.76411">
        <ele>392</ele>
        <time>2016-05-08T10:12:56.000Z</time>
      </trkpt>
      <trkpt lat="47.50193" lon="6.76415">
        <ele>392</ele>
        <time>2016-05-08T10:12:57.000Z</time>
      </trkpt>
      <trkpt lat="47.50194" lon="6.76418">
        <ele>396</ele>
        <time>2016-05-08T10:12:58.000Z</time>
      </trkpt>
      <trkpt lat="47.50195" lon="6.76422">
        <ele>395</ele>
        <time>2016-05-08T10:12:59.000Z</time>
      </trkpt>
      <trkpt lat="47.50197" lon="6.76426">
        <ele>395</ele>
        <time>2016-05-08T10:13:00.000Z</time>
      </trkpt>
      <trkpt lat="47.50198" lon="6.76429">
        <ele>395</ele>
        <time>2016-05-08T10:13:01.000Z</time>
      </trkpt>
      <trkpt lat="47.50199" lon="6.76432">
        <ele>395</ele>
        <time>2016-05-08T10:13:02.000Z</time>
      </trkpt>
      <trkpt lat="47.502" lon="6.76438">
        <ele>395</ele>
        <time>2016-05-08T10:13:04.000Z</time>
      </trkpt>
      <trkpt lat="47.502" lon="6.7644">
        <ele>395</ele>
        <time>2016-05-08T10:13:05.000Z</time>
      </trkpt>
      <trkpt lat="47.50201" lon="6.76447">
        <ele>395</ele>
        <time>2016-05-08T10:13:07.000Z</time>
      </trkpt>
      <trkpt lat="47.50202" lon="6.7645">
        <ele>395</ele>
        <time>2016-05-08T10:13:08.000Z</time>
      </trkpt>
      <trkpt lat="47.50202" lon="6.76454">
        <ele>396</ele>
        <time>2016-05-08T10:13:09.000Z</time>
      </trkpt>
      <trkpt lat="47.50203" lon="6.76458">
        <ele>396</ele>
        <time>2016-05-08T10:13:10.000Z</time>
      </trkpt>
      <trkpt lat="47.50203" lon="6.76463">
        <ele>396</ele>
        <time>2016-05-08T10:13:11.000Z</time>
      </trkpt>
      <trkpt lat="47.50204" lon="6.76467">
        <ele>396</ele>
        <time>2016-05-08T10:13:12.000Z</time>
      </trkpt>
      <trkpt lat="47.50205" lon="6.76471">
        <ele>396</ele>
        <time>2016-05-08T10:13:13.000Z</time>
      </trkpt>
      <trkpt lat="47.50206" lon="6.76474">
        <ele>396</ele>
        <time>2016-05-08T10:13:14.000Z</time>
      </trkpt>
      <trkpt lat="47.50207" lon="6.76477">
        <ele>396</ele>
        <time>2016-05-08T10:13:15.000Z</time>
      </trkpt>
      <trkpt lat="47.50208" lon="6.7648">
        <ele>396</ele>
        <time>2016-05-08T10:13:16.000Z</time>
      </trkpt>
      <trkpt lat="47.50209" lon="6.76483">
        <ele>396</ele>
        <time>2016-05-08T10:13:17.000Z</time>
      </trkpt>
      <trkpt lat="47.5021" lon="6.76486">
        <ele>396</ele>
        <time>2016-05-08T10:13:18.000Z</time>
      </trkpt>
      <trkpt lat="47.50212" lon="6.76489">
        <ele>396</ele>
        <time>2016-05-08T10:13:19.000Z</time>
      </trkpt>
      <trkpt lat="47.50213" lon="6.76492">
        <ele>396</ele>
        <time>2016-05-08T10:13:20.000Z</time>
      </trkpt>
      <trkpt lat="47.50214" lon="6.76495">
        <ele>396</ele>
        <time>2016-05-08T10:13:21.000Z</time>
      </trkpt>
      <trkpt lat="47.50215" lon="6.76499">
        <ele>396</ele>
        <time>2016-05-08T10:13:22.000Z</time>
      </trkpt>
      <trkpt lat="47.50216" lon="6.76502">
        <ele>399</ele>
        <time>2016-05-08T10:13:23.000Z</time>
      </trkpt>
      <trkpt lat="47.50217" lon="6.76505">
        <ele>399</ele>
        <time>2016-05-08T10:13:24.000Z</time>
      </trkpt>
      <trkpt lat="47.50218" lon="6.76509">
        <ele>399</ele>
        <time>2016-05-08T10:13:25.000Z</time>
      </trkpt>
      <trkpt lat="47.50219" lon="6.76513">
        <ele>399</ele>
        <time>2016-05-08T10:13:26.000Z</time>
      </trkpt>
      <trkpt lat="47.5022" lon="6.76517">
        <ele>399</ele>
        <time>2016-05-08T10:13:27.000Z</time>
      </trkpt>
      <trkpt lat="47.50221" lon="6.7652">
        <ele>399</ele>
        <time>2016-05-08T10:13:28.000Z</time>
      </trkpt>
      <trkpt lat="47.50222" lon="6.76525">
        <ele>399</ele>
        <time>2016-05-08T10:13:30.000Z</time>
      </trkpt>
      <trkpt lat="47.50224" lon="6.76528">
        <ele>399</ele>
        <time>2016-05-08T10:13:31.000Z</time>
      </trkpt>
      <trkpt lat="47.50226" lon="6.76533">
        <ele>399</ele>
        <time>2016-05-08T10:13:33.000Z</time>
      </trkpt>
      <trkpt lat="47.50226" lon="6.76537">
        <ele>399</ele>
        <time>2016-05-08T10:13:34.000Z</time>
      </trkpt>
      <trkpt lat="47.50227" lon="6.76542">
        <ele>400</ele>
        <time>2016-05-08T10:13:35.000Z</time>
      </trkpt>
      <trkpt lat="47.50227" lon="6.76546">
        <ele>400</ele>
        <time>2016-05-08T10:13:36.000Z</time>
      </trkpt>
      <trkpt lat="47.50227" lon="6.76551">
        <ele>400</ele>
        <time>2016-05-08T10:13:37.000Z</time>
      </trkpt>
      <trkpt lat="47.50226" lon="6.76554">
        <ele>400</ele>
        <time>2016-05-08T10:13:38.000Z</time>
      </trkpt>
      <trkpt lat="47.50224" lon="6.76557">
        <ele>400</ele>
        <time>2016-05-08T10:13:39.000Z</time>
      </trkpt>
      <trkpt lat="47.50222" lon="6.76559">
        <ele>400</ele>
        <time>2016-05-08T10:13:40.000Z</time>
      </trkpt>
      <trkpt lat="47.5022" lon="6.76561">
        <ele>400</ele>
        <time>2016-05-08T10:13:41.000Z</time>
      </trkpt>
      <trkpt lat="47.50218" lon="6.76562">
        <ele>401</ele>
        <time>2016-05-08T10:13:42.000Z</time>
      </trkpt>
      <trkpt lat="47.50215" lon="6.76563">
        <ele>401</ele>
        <time>2016-05-08T10:13:43.000Z</time>
      </trkpt>
      <trkpt lat="47.50213" lon="6.76564">
        <ele>401</ele>
        <time>2016-05-08T10:13:44.000Z</time>
      </trkpt>
      <trkpt lat="47.50208" lon="6.76566">
        <ele>401</ele>
        <time>2016-05-08T10:13:46.000Z</time>
      </trkpt>
      <trkpt lat="47.50206" lon="6.76566">
        <ele>401</ele>
        <time>2016-05-08T10:13:47.000Z</time>
      </trkpt>
      <trkpt lat="47.50202" lon="6.76568">
        <ele>402</ele>
        <time>2016-05-08T10:13:49.000Z</time>
      </trkpt>
      <trkpt lat="47.50201" lon="6.76569">
        <ele>402</ele>
        <time>2016-05-08T10:13:50.000Z</time>
      </trkpt>
      <trkpt lat="47.50197" lon="6.7657">
        <ele>402</ele>
        <time>2016-05-08T10:13:52.000Z</time>
      </trkpt>
      <trkpt lat="47.50196" lon="6.76573">
        <ele>402</ele>
        <time>2016-05-08T10:13:53.000Z</time>
      </trkpt>
      <trkpt lat="47.50196" lon="6.76578">
        <ele>403</ele>
        <time>2016-05-08T10:13:55.000Z</time>
      </trkpt>
      <trkpt lat="47.50196" lon="6.76581">
        <ele>403</ele>
        <time>2016-05-08T10:13:56.000Z</time>
      </trkpt>
      <trkpt lat="47.50197" lon="6.76588">
        <ele>403</ele>
        <time>2016-05-08T10:13:58.000Z</time>
      </trkpt>
      <trkpt lat="47.50198" lon="6.76591">
        <ele>403</ele>
        <time>2016-05-08T10:13:59.000Z</time>
      </trkpt>
      <trkpt lat="47.50199" lon="6.76597">
        <ele>403</ele>
        <time>2016-05-08T10:14:01.000Z</time>
      </trkpt>
      <trkpt lat="47.502" lon="6.766">
        <ele>403</ele>
        <time>2016-05-08T10:14:02.000Z</time>
      </trkpt>
      <trkpt lat="47.502" lon="6.76604">
        <ele>403</ele>
        <time>2016-05-08T10:14:03.000Z</time>
      </trkpt>
      <trkpt lat="47.50201" lon="6.76608">
        <ele>402</ele>
        <time>2016-05-08T10:14:04.000Z</time>
      </trkpt>
      <trkpt lat="47.50202" lon="6.76612">
        <ele>402</ele>
        <time>2016-05-08T10:14:05.000Z</time>
      </trkpt>
      <trkpt lat="47.50203" lon="6.76616">
        <ele>402</ele>
        <time>2016-05-08T10:14:06.000Z</time>
      </trkpt>
      <trkpt lat="47.50204" lon="6.7662">
        <ele>402</ele>
        <time>2016-05-08T10:14:07.000Z</time>
      </trkpt>
      <trkpt lat="47.50206" lon="6.76623">
        <ele>402</ele>
        <time>2016-05-08T10:14:08.000Z</time>
      </trkpt>
      <trkpt lat="47.50207" lon="6.76626">
        <ele>402</ele>
        <time>2016-05-08T10:14:09.000Z</time>
      </trkpt>
      <trkpt lat="47.50209" lon="6.76629">
        <ele>402</ele>
        <time>2016-05-08T10:14:09.999Z</time>
      </trkpt>
      <trkpt lat="47.50211" lon="6.76633">
        <ele>402</ele>
        <time>2016-05-08T10:14:11.000Z</time>
      </trkpt>
      <trkpt lat="47.50212" lon="6.76637">
        <ele>402</ele>
        <time>2016-05-08T10:14:12.000Z</time>
      </trkpt>
      <trkpt lat="47.50214" lon="6.7664">
        <ele>402</ele>
        <time>2016-05-08T10:14:13.000Z</time>
      </trkpt>
      <trkpt lat="47.50215" lon="6.76644">
        <ele>402</ele>
        <time>2016-05-08T10:14:14.000Z</time>
      </trkpt>
      <trkpt lat="47.50216" lon="6.76648">
        <ele>402</ele>
        <time>2016-05-08T10:14:15.000Z</time>
      </trkpt>
      <trkpt lat="47.50217" lon="6.76652">
        <ele>401</ele>
        <time>2016-05-08T10:14:16.000Z</time>
      </trkpt>
      <trkpt lat="47.50218" lon="6.76656">
        <ele>401</ele>
        <time>2016-05-08T10:14:17.000Z</time>
      </trkpt>
      <trkpt lat="47.50219" lon="6.7666">
        <ele>401</ele>
        <time>2016-05-08T10:14:18.000Z</time>
      </trkpt>
      <trkpt lat="47.5022" lon="6.76664">
        <ele>401</ele>
        <time>2016-05-08T10:14:19.000Z</time>
      </trkpt>
      <trkpt lat="47.50221" lon="6.76668">
        <ele>401</ele>
        <time>2016-05-08T10:14:20.000Z</time>
      </trkpt>
      <trkpt lat="47.50222" lon="6.76672">
        <ele>401</ele>
        <time>2016-05-08T10:14:21.000Z</time>
      </trkpt>
      <trkpt lat="47.50223" lon="6.76677">
        <ele>401</ele>
        <time>2016-05-08T10:14:22.000Z</time>
      </trkpt>
      <trkpt lat="47.50224" lon="6.76681">
        <ele>401</ele>
        <time>2016-05-08T10:14:23.000Z</time>
      </trkpt>
      <trkpt lat="47.50225" lon="6.76686">
        <ele>401</ele>
        <time>2016-05-08T10:14:24.000Z</time>
      </trkpt>
      <trkpt lat="47.50225" lon="6.76691">
        <ele>401</ele>
        <time>2016-05-08T10:14:25.000Z</time>
      </trkpt>
      <trkpt lat="47.50226" lon="6.76695">
        <ele>402</ele>
        <time>2016-05-08T10:14:26.000Z</time>
      </trkpt>
      <trkpt lat="47.50227" lon="6.76699">
        <ele>402</ele>
        <time>2016-05-08T10:14:27.001Z</time>
      </trkpt>
      <trkpt lat="47.50228" lon="6.76704">
        <ele>402</ele>
        <time>2016-05-08T10:14:28.000Z</time>
      </trkpt>
      <trkpt lat="47.5023" lon="6.76709">
        <ele>402</ele>
        <time>2016-05-08T10:14:29.000Z</time>
      </trkpt>
      <trkpt lat="47.50232" lon="6.76713">
        <ele>402</ele>
        <time>2016-05-08T10:14:30.000Z</time>
      </trkpt>
      <trkpt lat="47.50234" lon="6.76717">
        <ele>402</ele>
        <time>2016-05-08T10:14:31.000Z</time>
      </trkpt>
      <trkpt lat="47.50236" lon="6.76721">
        <ele>401</ele>
        <time>2016-05-08T10:14:32.000Z</time>
      </trkpt>
      <trkpt lat="47.50238" lon="6.76725">
        <ele>401</ele>
        <time>2016-05-08T10:14:33.000Z</time>
      </trkpt>
      <trkpt lat="47.5024" lon="6.7673">
        <ele>401</ele>
        <time>2016-05-08T10:14:34.000Z</time>
      </trkpt>
      <trkpt lat="47.50242" lon="6.76734">
        <ele>401</ele>
        <time>2016-05-08T10:14:35.000Z</time>
      </trkpt>
      <trkpt lat="47.50244" lon="6.76738">
        <ele>401</ele>
        <time>2016-05-08T10:14:36.000Z</time>
      </trkpt>
      <trkpt lat="47.50246" lon="6.76742">
        <ele>401</ele>
        <time>2016-05-08T10:14:37.000Z</time>
      </trkpt>
      <trkpt lat="47.50248" lon="6.76746">
        <ele>400</ele>
        <time>2016-05-08T10:14:38.000Z</time>
      </trkpt>
      <trkpt lat="47.5025" lon="6.76749">
        <ele>400</ele>
        <time>2016-05-08T10:14:39.000Z</time>
      </trkpt>
      <trkpt lat="47.50253" lon="6.76752">
        <ele>399</ele>
        <time>2016-05-08T10:14:40.000Z</time>
      </trkpt>
      <trkpt lat="47.50257" lon="6.76753">
        <ele>399</ele>
        <time>2016-05-08T10:14:41.000Z</time>
      </trkpt>
      <trkpt lat="47.50261" lon="6.76753">
        <ele>399</ele>
        <time>2016-05-08T10:14:42.000Z</time>
      </trkpt>
      <trkpt lat="47.50265" lon="6.76752">
        <ele>398</ele>
        <time>2016-05-08T10:14:43.000Z</time>
      </trkpt>
      <trkpt lat="47.50269" lon="6.7675">
        <ele>398</ele>
        <time>2016-05-08T10:14:44.000Z</time>
      </trkpt>
      <trkpt lat="47.50273" lon="6.76748">
        <ele>399</ele>
        <time>2016-05-08T10:14:45.000Z</time>
      </trkpt>
      <trkpt lat="47.50279" lon="6.76744">
        <ele>399</ele>
        <time>2016-05-08T10:14:46.000Z</time>
      </trkpt>
      <trkpt lat="47.50283" lon="6.76743">
        <ele>399</ele>
        <time>2016-05-08T10:14:47.000Z</time>
      </trkpt>
      <trkpt lat="47.50287" lon="6.76742">
        <ele>399</ele>
        <time>2016-05-08T10:14:48.000Z</time>
      </trkpt>
      <trkpt lat="47.50292" lon="6.76741">
        <ele>399</ele>
        <time>2016-05-08T10:14:49.000Z</time>
      </trkpt>
      <trkpt lat="47.50297" lon="6.7674">
        <ele>399</ele>
        <time>2016-05-08T10:14:50.000Z</time>
      </trkpt>
      <trkpt lat="47.50301" lon="6.76738">
        <ele>399</ele>
        <time>2016-05-08T10:14:51.000Z</time>
      </trkpt>
      <trkpt lat="47.50306" lon="6.76738">
        <ele>398</ele>
        <time>2016-05-08T10:14:52.000Z</time>
      </trkpt>
      <trkpt lat="47.5031" lon="6.76738">
        <ele>398</ele>
        <time>2016-05-08T10:14:53.000Z</time>
      </trkpt>
      <trkpt lat="47.50315" lon="6.76737">
        <ele>398</ele>
        <time>2016-05-08T10:14:54.000Z</time>
      </trkpt>
      <trkpt lat="47.50319" lon="6.76735">
        <ele>398</ele>
        <time>2016-05-08T10:14:55.000Z</time>
      </trkpt>
      <trkpt lat="47.50323" lon="6.76733">
        <ele>398</ele>
        <time>2016-05-08T10:14:56.000Z</time>
      </trkpt>
      <trkpt lat="47.50328" lon="6.76731">
        <ele>398</ele>
        <time>2016-05-08T10:14:57.000Z</time>
      </trkpt>
      <trkpt lat="47.50333" lon="6.76728">
        <ele>398</ele>
        <time>2016-05-08T10:14:58.000Z</time>
      </trkpt>
      <trkpt lat="47.50337" lon="6.76726">
        <ele>398</ele>
        <time>2016-05-08T10:14:59.000Z</time>
      </trkpt>
      <trkpt lat="47.50341" lon="6.76725">
        <ele>398</ele>
        <time>2016-05-08T10:15:00.000Z</time>
      </trkpt>
      <trkpt lat="47.50347" lon="6.76721">
        <ele>398</ele>
        <time>2016-05-08T10:15:01.000Z</time>
      </trkpt>
      <trkpt lat="47.50351" lon="6.76719">
        <ele>398</ele>
        <time>2016-05-08T10:15:02.000Z</time>
      </trkpt>
      <trkpt lat="47.50355" lon="6.76717">
        <ele>398</ele>
        <time>2016-05-08T10:15:03.000Z</time>
      </trkpt>
      <trkpt lat="47.5036" lon="6.76716">
        <ele>398</ele>
        <time>2016-05-08T10:15:04.000Z</time>
      </trkpt>
      <trkpt lat="47.50365" lon="6.76713">
        <ele>398</ele>
        <time>2016-05-08T10:15:05.000Z</time>
      </trkpt>
      <trkpt lat="47.5037" lon="6.76713">
        <ele>398</ele>
        <time>2016-05-08T10:15:06.000Z</time>
      </trkpt>
      <trkpt lat="47.50374" lon="6.76711">
        <ele>398</ele>
        <time>2016-05-08T10:15:07.000Z</time>
      </trkpt>
      <trkpt lat="47.50379" lon="6.76707">
        <ele>397</ele>
        <time>2016-05-08T10:15:08.000Z</time>
      </trkpt>
      <trkpt lat="47.50384" lon="6.76707">
        <ele>397</ele>
        <time>2016-05-08T10:15:09.000Z</time>
      </trkpt>
      <trkpt lat="47.50389" lon="6.76705">
        <ele>397</ele>
        <time>2016-05-08T10:15:10.000Z</time>
      </trkpt>
      <trkpt lat="47.50393" lon="6.76701">
        <ele>397</ele>
        <time>2016-05-08T10:15:11.000Z</time>
      </trkpt>
      <trkpt lat="47.50397" lon="6.76701">
        <ele>397</ele>
        <time>2016-05-08T10:15:12.000Z</time>
      </trkpt>
      <trkpt lat="47.50401" lon="6.76701">
        <ele>397</ele>
        <time>2016-05-08T10:15:13.000Z</time>
      </trkpt>
      <trkpt lat="47.50405" lon="6.76699">
        <ele>397</ele>
        <time>2016-05-08T10:15:14.000Z</time>
      </trkpt>
      <trkpt lat="47.50409" lon="6.76697">
        <ele>397</ele>
        <time>2016-05-08T10:15:15.000Z</time>
      </trkpt>
      <trkpt lat="47.50414" lon="6.76694">
        <ele>397</ele>
        <time>2016-05-08T10:15:16.000Z</time>
      </trkpt>
      <trkpt lat="47.50419" lon="6.76693">
        <ele>397</ele>
        <time>2016-05-08T10:15:17.000Z</time>
      </trkpt>
      <trkpt lat="47.50424" lon="6.76691">
        <ele>397</ele>
        <time>2016-05-08T10:15:18.000Z</time>
      </trkpt>
      <trkpt lat="47.50429" lon="6.7669">
        <ele>397</ele>
        <time>2016-05-08T10:15:19.000Z</time>
      </trkpt>
      <trkpt lat="47.50434" lon="6.76689">
        <ele>397</ele>
        <time>2016-05-08T10:15:20.000Z</time>
      </trkpt>
      <trkpt lat="47.50438" lon="6.76687">
        <ele>397</ele>
        <time>2016-05-08T10:15:21.000Z</time>
      </trkpt>
      <trkpt lat="47.50442" lon="6.76685">
        <ele>397</ele>
        <time>2016-05-08T10:15:22.000Z</time>
      </trkpt>
      <trkpt lat="47.50447" lon="6.76683">
        <ele>397</ele>
        <time>2016-05-08T10:15:23.000Z</time>
      </trkpt>
      <trkpt lat="47.50451" lon="6.7668">
        <ele>397</ele>
        <time>2016-05-08T10:15:24.000Z</time>
      </trkpt>
      <trkpt lat="47.50456" lon="6.76677">
        <ele>397</ele>
        <time>2016-05-08T10:15:25.000Z</time>
      </trkpt>
      <trkpt lat="47.50459" lon="6.76675">
        <ele>397</ele>
        <time>2016-05-08T10:15:26.000Z</time>
      </trkpt>
      <trkpt lat="47.50463" lon="6.76673">
        <ele>397</ele>
        <time>2016-05-08T10:15:27.000Z</time>
      </trkpt>
      <trkpt lat="47.50467" lon="6.7667">
        <ele>397</ele>
        <time>2016-05-08T10:15:28.000Z</time>
      </trkpt>
      <trkpt lat="47.50471" lon="6.76669">
        <ele>397</ele>
        <time>2016-05-08T10:15:29.000Z</time>
      </trkpt>
      <trkpt lat="47.50476" lon="6.76668">
        <ele>397</ele>
        <time>2016-05-08T10:15:30.000Z</time>
      </trkpt>
      <trkpt lat="47.5048" lon="6.76666">
        <ele>399</ele>
        <time>2016-05-08T10:15:31.000Z</time>
      </trkpt>
      <trkpt lat="47.50484" lon="6.76664">
        <ele>399</ele>
        <time>2016-05-08T10:15:32.000Z</time>
      </trkpt>
      <trkpt lat="47.50488" lon="6.76662">
        <ele>399</ele>
        <time>2016-05-08T10:15:33.000Z</time>
      </trkpt>
      <trkpt lat="47.50492" lon="6.7666">
        <ele>399</ele>
        <time>2016-05-08T10:15:34.000Z</time>
      </trkpt>
      <trkpt lat="47.50496" lon="6.76659">
        <ele>399</ele>
        <time>2016-05-08T10:15:35.000Z</time>
      </trkpt>
      <trkpt lat="47.505" lon="6.76658">
        <ele>399</ele>
        <time>2016-05-08T10:15:36.000Z</time>
      </trkpt>
      <trkpt lat="47.50504" lon="6.76656">
        <ele>399</ele>
        <time>2016-05-08T10:15:37.000Z</time>
      </trkpt>
      <trkpt lat="47.50508" lon="6.76656">
        <ele>399</ele>
        <time>2016-05-08T10:15:38.000Z</time>
      </trkpt>
      <trkpt lat="47.50513" lon="6.76654">
        <ele>399</ele>
        <time>2016-05-08T10:15:39.000Z</time>
      </trkpt>
      <trkpt lat="47.50517" lon="6.76653">
        <ele>399</ele>
        <time>2016-05-08T10:15:40.000Z</time>
      </trkpt>
      <trkpt lat="47.50521" lon="6.76653">
        <ele>399</ele>
        <time>2016-05-08T10:15:41.000Z</time>
      </trkpt>
      <trkpt lat="47.50525" lon="6.76652">
        <ele>399</ele>
        <time>2016-05-08T10:15:42.000Z</time>
      </trkpt>
      <trkpt lat="47.50529" lon="6.76651">
        <ele>399</ele>
        <time>2016-05-08T10:15:43.000Z</time>
      </trkpt>
      <trkpt lat="47.50533" lon="6.7665">
        <ele>399</ele>
        <time>2016-05-08T10:15:44.000Z</time>
      </trkpt>
      <trkpt lat="47.50537" lon="6.76648">
        <ele>399</ele>
        <time>2016-05-08T10:15:45.000Z</time>
      </trkpt>
      <trkpt lat="47.5054" lon="6.76647">
        <ele>399</ele>
        <time>2016-05-08T10:15:46.000Z</time>
      </trkpt>
      <trkpt lat="47.50544" lon="6.76645">
        <ele>399</ele>
        <time>2016-05-08T10:15:47.000Z</time>
      </trkpt>
      <trkpt lat="47.50548" lon="6.76644">
        <ele>399</ele>
        <time>2016-05-08T10:15:48.000Z</time>
      </trkpt>
      <trkpt lat="47.50552" lon="6.76642">
        <ele>399</ele>
        <time>2016-05-08T10:15:49.000Z</time>
      </trkpt>
      <trkpt lat="47.50556" lon="6.76641">
        <ele>399</ele>
        <time>2016-05-08T10:15:50.000Z</time>
      </trkpt>
      <trkpt lat="47.50561" lon="6.76638">
        <ele>399</ele>
        <time>2016-05-08T10:15:51.000Z</time>
      </trkpt>
      <trkpt lat="47.50565" lon="6.76637">
        <ele>399</ele>
        <time>2016-05-08T10:15:52.000Z</time>
      </trkpt>
      <trkpt lat="47.50569" lon="6.76635">
        <ele>399</ele>
        <time>2016-05-08T10:15:53.000Z</time>
      </trkpt>
      <trkpt lat="47.50574" lon="6.76633">
        <ele>399</ele>
        <time>2016-05-08T10:15:54.000Z</time>
      </trkpt>
      <trkpt lat="47.50578" lon="6.76632">
        <ele>399</ele>
        <time>2016-05-08T10:15:55.000Z</time>
      </trkpt>
      <trkpt lat="47.50583" lon="6.7663">
        <ele>399</ele>
        <time>2016-05-08T10:15:56.000Z</time>
      </trkpt>
      <trkpt lat="47.50587" lon="6.76629">
        <ele>398</ele>
        <time>2016-05-08T10:15:57.000Z</time>
      </trkpt>
      <trkpt lat="47.50593" lon="6.76628">
        <ele>398</ele>
        <time>2016-05-08T10:15:58.000Z</time>
      </trkpt>
      <trkpt lat="47.50597" lon="6.76627">
        <ele>398</ele>
        <time>2016-05-08T10:15:59.000Z</time>
      </trkpt>
      <trkpt lat="47.50602" lon="6.76625">
        <ele>398</ele>
        <time>2016-05-08T10:16:00.000Z</time>
      </trkpt>
      <trkpt lat="47.50607" lon="6.76623">
        <ele>398</ele>
        <time>2016-05-08T10:16:01.000Z</time>
      </trkpt>
      <trkpt lat="47.50612" lon="6.7662">
        <ele>397</ele>
        <time>2016-05-08T10:16:02.000Z</time>
      </trkpt>
      <trkpt lat="47.50616" lon="6.76617">
        <ele>397</ele>
        <time>2016-05-08T10:16:03.000Z</time>
      </trkpt>
      <trkpt lat="47.50621" lon="6.76615">
        <ele>397</ele>
        <time>2016-05-08T10:16:04.000Z</time>
      </trkpt>
      <trkpt lat="47.50625" lon="6.76613">
        <ele>397</ele>
        <time>2016-05-08T10:16:05.000Z</time>
      </trkpt>
      <trkpt lat="47.50629" lon="6.7661">
        <ele>397</ele>
        <time>2016-05-08T10:16:06.000Z</time>
      </trkpt>
      <trkpt lat="47.50633" lon="6.76607">
        <ele>397</ele>
        <time>2016-05-08T10:16:07.000Z</time>
      </trkpt>
      <trkpt lat="47.50637" lon="6.76604">
        <ele>397</ele>
        <time>2016-05-08T10:16:08.000Z</time>
      </trkpt>
      <trkpt lat="47.50641" lon="6.76601">
        <ele>397</ele>
        <time>2016-05-08T10:16:09.000Z</time>
      </trkpt>
      <trkpt lat="47.50646" lon="6.76598">
        <ele>397</ele>
        <time>2016-05-08T10:16:10.000Z</time>
      </trkpt>
      <trkpt lat="47.50651" lon="6.76597">
        <ele>397</ele>
        <time>2016-05-08T10:16:11.000Z</time>
      </trkpt>
      <trkpt lat="47.50656" lon="6.76596">
        <ele>397</ele>
        <time>2016-05-08T10:16:12.000Z</time>
      </trkpt>
      <trkpt lat="47.50662" lon="6.76596">
        <ele>397</ele>
        <time>2016-05-08T10:16:13.000Z</time>
      </trkpt>
      <trkpt lat="47.50667" lon="6.76594">
        <ele>396</ele>
        <time>2016-05-08T10:16:14.000Z</time>
      </trkpt>
      <trkpt lat="47.50672" lon="6.76596">
        <ele>396</ele>
        <time>2016-05-08T10:16:15.000Z</time>
      </trkpt>
      <trkpt lat="47.50678" lon="6.76595">
        <ele>396</ele>
        <time>2016-05-08T10:16:16.000Z</time>
      </trkpt>
      <trkpt lat="47.50683" lon="6.76595">
        <ele>396</ele>
        <time>2016-05-08T10:16:17.000Z</time>
      </trkpt>
      <trkpt lat="47.50688" lon="6.76595">
        <ele>395</ele>
        <time>2016-05-08T10:16:18.000Z</time>
      </trkpt>
      <trkpt lat="47.50694" lon="6.76593">
        <ele>395</ele>
        <time>2016-05-08T10:16:19.000Z</time>
      </trkpt>
      <trkpt lat="47.507" lon="6.76593">
        <ele>395</ele>
        <time>2016-05-08T10:16:20.000Z</time>
      </trkpt>
      <trkpt lat="47.50705" lon="6.76593">
        <ele>395</ele>
        <time>2016-05-08T10:16:21.000Z</time>
      </trkpt>
      <trkpt lat="47.5071" lon="6.76595">
        <ele>395</ele>
        <time>2016-05-08T10:16:22.000Z</time>
      </trkpt>
      <trkpt lat="47.50715" lon="6.76595">
        <ele>394</ele>
        <time>2016-05-08T10:16:23.000Z</time>
      </trkpt>
      <trkpt lat="47.5072" lon="6.76594">
        <ele>394</ele>
        <time>2016-05-08T10:16:24.000Z</time>
      </trkpt>
      <trkpt lat="47.50725" lon="6.76595">
        <ele>394</ele>
        <time>2016-05-08T10:16:25.000Z</time>
      </trkpt>
      <trkpt lat="47.50731" lon="6.76595">
        <ele>394</ele>
        <time>2016-05-08T10:16:26.000Z</time>
      </trkpt>
      <trkpt lat="47.50736" lon="6.76595">
        <ele>394</ele>
        <time>2016-05-08T10:16:27.000Z</time>
      </trkpt>
      <trkpt lat="47.50741" lon="6.76595">
        <ele>394</ele>
        <time>2016-05-08T10:16:28.000Z</time>
      </trkpt>
      <trkpt lat="47.50746" lon="6.76595">
        <ele>394</ele>
        <time>2016-05-08T10:16:29.000Z</time>
      </trkpt>
      <trkpt lat="47.50752" lon="6.76594">
        <ele>393</ele>
        <time>2016-05-08T10:16:30.000Z</time>
      </trkpt>
      <trkpt lat="47.50757" lon="6.76593">
        <ele>393</ele>
        <time>2016-05-08T10:16:31.000Z</time>
      </trkpt>
      <trkpt lat="47.50762" lon="6.76592">
        <ele>392</ele>
        <time>2016-05-08T10:16:32.000Z</time>
      </trkpt>
      <trkpt lat="47.50767" lon="6.76591">
        <ele>392</ele>
        <time>2016-05-08T10:16:33.000Z</time>
      </trkpt>
      <trkpt lat="47.50773" lon="6.7659">
        <ele>392</ele>
        <time>2016-05-08T10:16:34.000Z</time>
      </trkpt>
      <trkpt lat="47.50778" lon="6.76589">
        <ele>392</ele>
        <time>2016-05-08T10:16:35.000Z</time>
      </trkpt>
      <trkpt lat="47.50782" lon="6.76588">
        <ele>391</ele>
        <time>2016-05-08T10:16:36.000Z</time>
      </trkpt>
      <trkpt lat="47.50786" lon="6.76588">
        <ele>391</ele>
        <time>2016-05-08T10:16:37.000Z</time>
      </trkpt>
      <trkpt lat="47.5079" lon="6.76589">
        <ele>391</ele>
        <time>2016-05-08T10:16:38.000Z</time>
      </trkpt>
      <trkpt lat="47.50792" lon="6.76589">
        <ele>391</ele>
        <time>2016-05-08T10:16:52.000Z</time>
      </trkpt>
      <trkpt lat="47.50795" lon="6.76588">
        <ele>391</ele>
        <time>2016-05-08T10:16:53.000Z</time>
      </trkpt>
      <trkpt lat="47.50798" lon="6.7659">
        <ele>391</ele>
        <time>2016-05-08T10:16:54.000Z</time>
      </trkpt>
      <trkpt lat="47.50801" lon="6.76588">
        <ele>391</ele>
        <time>2016-05-08T10:16:55.000Z</time>
      </trkpt>
      <trkpt lat="47.50805" lon="6.76588">
        <ele>390</ele>
        <time>2016-05-08T10:16:57.000Z</time>
      </trkpt>
      <trkpt lat="47.50807" lon="6.7659">
        <ele>390</ele>
        <time>2016-05-08T10:16:58.000Z</time>
      </trkpt>
      <trkpt lat="47.50809" lon="6.76592">
        <ele>390</ele>
        <time>2016-05-08T10:16:59.000Z</time>
      </trkpt>
      <trkpt lat="47.5081" lon="6.76595">
        <ele>390</ele>
        <time>2016-05-08T10:17:00.000Z</time>
      </trkpt>
      <trkpt lat="47.50811" lon="6.766">
        <ele>390</ele>
        <time>2016-05-08T10:17:02.000Z</time>
      </trkpt>
      <trkpt lat="47.50813" lon="6.76602">
        <ele>390</ele>
        <time>2016-05-08T10:17:03.000Z</time>
      </trkpt>
      <trkpt lat="47.50815" lon="6.76602">
        <ele>390</ele>
        <time>2016-05-08T10:17:04.000Z</time>
      </trkpt>
      <trkpt lat="47.50818" lon="6.76601">
        <ele>390</ele>
        <time>2016-05-08T10:17:05.000Z</time>
      </trkpt>
      <trkpt lat="47.50821" lon="6.76599">
        <ele>390</ele>
        <time>2016-05-08T10:17:06.000Z</time>
      </trkpt>
      <trkpt lat="47.50824" lon="6.766">
        <ele>390</ele>
        <time>2016-05-08T10:17:07.001Z</time>
      </trkpt>
      <trkpt lat="47.50827" lon="6.76603">
        <ele>390</ele>
        <time>2016-05-08T10:17:08.000Z</time>
      </trkpt>
      <trkpt lat="47.50831" lon="6.76618">
        <ele>390</ele>
        <time>2016-05-08T10:17:09.000Z</time>
      </trkpt>
      <trkpt lat="47.50833" lon="6.76625">
        <ele>390</ele>
        <time>2016-05-08T10:17:10.000Z</time>
      </trkpt>
      <trkpt lat="47.50837" lon="6.76633">
        <ele>387</ele>
        <time>2016-05-08T10:17:11.000Z</time>
      </trkpt>
      <trkpt lat="47.50841" lon="6.7664">
        <ele>387</ele>
        <time>2016-05-08T10:17:12.000Z</time>
      </trkpt>
      <trkpt lat="47.50845" lon="6.76646">
        <ele>387</ele>
        <time>2016-05-08T10:17:13.000Z</time>
      </trkpt>
      <trkpt lat="47.50849" lon="6.76655">
        <ele>387</ele>
        <time>2016-05-08T10:17:14.000Z</time>
      </trkpt>
      <trkpt lat="47.50853" lon="6.76664">
        <ele>387</ele>
        <time>2016-05-08T10:17:15.000Z</time>
      </trkpt>
      <trkpt lat="47.50855" lon="6.76674">
        <ele>385</ele>
        <time>2016-05-08T10:17:16.000Z</time>
      </trkpt>
      <trkpt lat="47.5086" lon="6.76684">
        <ele>385</ele>
        <time>2016-05-08T10:17:17.000Z</time>
      </trkpt>
      <trkpt lat="47.50863" lon="6.76693">
        <ele>384</ele>
        <time>2016-05-08T10:17:18.000Z</time>
      </trkpt>
      <trkpt lat="47.50867" lon="6.76704">
        <ele>384</ele>
        <time>2016-05-08T10:17:19.000Z</time>
      </trkpt>
      <trkpt lat="47.50871" lon="6.76715">
        <ele>383</ele>
        <time>2016-05-08T10:17:20.000Z</time>
      </trkpt>
      <trkpt lat="47.50875" lon="6.76724">
        <ele>383</ele>
        <time>2016-05-08T10:17:21.000Z</time>
      </trkpt>
      <trkpt lat="47.50878" lon="6.76735">
        <ele>383</ele>
        <time>2016-05-08T10:17:22.000Z</time>
      </trkpt>
      <trkpt lat="47.50881" lon="6.76746">
        <ele>382</ele>
        <time>2016-05-08T10:17:23.000Z</time>
      </trkpt>
      <trkpt lat="47.50885" lon="6.76757">
        <ele>381</ele>
        <time>2016-05-08T10:17:24.000Z</time>
      </trkpt>
      <trkpt lat="47.50888" lon="6.76766">
        <ele>381</ele>
        <time>2016-05-08T10:17:25.000Z</time>
      </trkpt>
      <trkpt lat="47.50892" lon="6.76776">
        <ele>381</ele>
        <time>2016-05-08T10:17:26.000Z</time>
      </trkpt>
      <trkpt lat="47.50896" lon="6.76786">
        <ele>381</ele>
        <time>2016-05-08T10:17:27.000Z</time>
      </trkpt>
      <trkpt lat="47.50899" lon="6.76796">
        <ele>381</ele>
        <time>2016-05-08T10:17:27.999Z</time>
      </trkpt>
      <trkpt lat="47.50903" lon="6.76806">
        <ele>381</ele>
        <time>2016-05-08T10:17:29.000Z</time>
      </trkpt>
      <trkpt lat="47.50907" lon="6.76815">
        <ele>381</ele>
        <time>2016-05-08T10:17:30.000Z</time>
      </trkpt>
      <trkpt lat="47.50911" lon="6.76825">
        <ele>381</ele>
        <time>2016-05-08T10:17:31.000Z</time>
      </trkpt>
      <trkpt lat="47.50915" lon="6.76834">
        <ele>380</ele>
        <time>2016-05-08T10:17:32.000Z</time>
      </trkpt>
      <trkpt lat="47.50918" lon="6.76842">
        <ele>379</ele>
        <time>2016-05-08T10:17:33.000Z</time>
      </trkpt>
      <trkpt lat="47.50924" lon="6.7685">
        <ele>379</ele>
        <time>2016-05-08T10:17:34.000Z</time>
      </trkpt>
      <trkpt lat="47.50928" lon="6.76861">
        <ele>378</ele>
        <time>2016-05-08T10:17:35.000Z</time>
      </trkpt>
      <trkpt lat="47.50933" lon="6.76869">
        <ele>378</ele>
        <time>2016-05-08T10:17:36.000Z</time>
      </trkpt>
      <trkpt lat="47.50938" lon="6.76876">
        <ele>378</ele>
        <time>2016-05-08T10:17:37.000Z</time>
      </trkpt>
      <trkpt lat="47.50944" lon="6.76882">
        <ele>378</ele>
        <time>2016-05-08T10:17:38.000Z</time>
      </trkpt>
      <trkpt lat="47.5095" lon="6.76889">
        <ele>378</ele>
        <time>2016-05-08T10:17:39.000Z</time>
      </trkpt>
      <trkpt lat="47.50956" lon="6.76893">
        <ele>377</ele>
        <time>2016-05-08T10:17:40.000Z</time>
      </trkpt>
      <trkpt lat="47.50962" lon="6.76898">
        <ele>377</ele>
        <time>2016-05-08T10:17:41.000Z</time>
      </trkpt>
      <trkpt lat="47.50969" lon="6.769">
        <ele>377</ele>
        <time>2016-05-08T10:17:42.000Z</time>
      </trkpt>
      <trkpt lat="47.50976" lon="6.76901">
        <ele>377</ele>
        <time>2016-05-08T10:17:43.000Z</time>
      </trkpt>
      <trkpt lat="47.50983" lon="6.76902">
        <ele>377</ele>
        <time>2016-05-08T10:17:44.000Z</time>
      </trkpt>
      <trkpt lat="47.50989" lon="6.76904">
        <ele>377</ele>
        <time>2016-05-08T10:17:45.000Z</time>
      </trkpt>
      <trkpt lat="47.50994" lon="6.76912">
        <ele>376</ele>
        <time>2016-05-08T10:17:46.000Z</time>
      </trkpt>
      <trkpt lat="47.50999" lon="6.7692">
        <ele>376</ele>
        <time>2016-05-08T10:17:47.000Z</time>
      </trkpt>
      <trkpt lat="47.51003" lon="6.76925">
        <ele>376</ele>
        <time>2016-05-08T10:17:48.000Z</time>
      </trkpt>
      <trkpt lat="47.51008" lon="6.7693">
        <ele>375</ele>
        <time>2016-05-08T10:17:49.000Z</time>
      </trkpt>
      <trkpt lat="47.51014" lon="6.76934">
        <ele>375</ele>
        <time>2016-05-08T10:17:50.000Z</time>
      </trkpt>
      <trkpt lat="47.51019" lon="6.76937">
        <ele>375</ele>
        <time>2016-05-08T10:17:51.000Z</time>
      </trkpt>
      <trkpt lat="47.51024" lon="6.76941">
        <ele>375</ele>
        <time>2016-05-08T10:17:52.000Z</time>
      </trkpt>
      <trkpt lat="47.51029" lon="6.76946">
        <ele>375</ele>
        <time>2016-05-08T10:17:53.000Z</time>
      </trkpt>
      <trkpt lat="47.51035" lon="6.7695">
        <ele>375</ele>
        <time>2016-05-08T10:17:54.000Z</time>
      </trkpt>
      <trkpt lat="47.5104" lon="6.76955">
        <ele>375</ele>
        <time>2016-05-08T10:17:55.000Z</time>
      </trkpt>
      <trkpt lat="47.51045" lon="6.7696">
        <ele>375</ele>
        <time>2016-05-08T10:17:56.000Z</time>
      </trkpt>
      <trkpt lat="47.5105" lon="6.76964">
        <ele>375</ele>
        <time>2016-05-08T10:17:57.000Z</time>
      </trkpt>
      <trkpt lat="47.51055" lon="6.76969">
        <ele>375</ele>
        <time>2016-05-08T10:17:58.000Z</time>
      </trkpt>
      <trkpt lat="47.5106" lon="6.76973">
        <ele>375</ele>
        <time>2016-05-08T10:17:59.000Z</time>
      </trkpt>
      <trkpt lat="47.51065" lon="6.76978">
        <ele>375</ele>
        <time>2016-05-08T10:18:00.000Z</time>
      </trkpt>
      <trkpt lat="47.51069" lon="6.76984">
        <ele>375</ele>
        <time>2016-05-08T10:18:01.000Z</time>
      </trkpt>
      <trkpt lat="47.51072" lon="6.7699">
        <ele>375</ele>
        <time>2016-05-08T10:18:02.000Z</time>
      </trkpt>
      <trkpt lat="47.51076" lon="6.76996">
        <ele>375</ele>
        <time>2016-05-08T10:18:03.000Z</time>
      </trkpt>
      <trkpt lat="47.51081" lon="6.77001">
        <ele>375</ele>
        <time>2016-05-08T10:18:04.000Z</time>
      </trkpt>
      <trkpt lat="47.51086" lon="6.77006">
        <ele>375</ele>
        <time>2016-05-08T10:18:05.000Z</time>
      </trkpt>
      <trkpt lat="47.51091" lon="6.77011">
        <ele>375</ele>
        <time>2016-05-08T10:18:06.000Z</time>
      </trkpt>
      <trkpt lat="47.51096" lon="6.77015">
        <ele>375</ele>
        <time>2016-05-08T10:18:07.000Z</time>
      </trkpt>
      <trkpt lat="47.51102" lon="6.7702">
        <ele>375</ele>
        <time>2016-05-08T10:18:08.000Z</time>
      </trkpt>
      <trkpt lat="47.51106" lon="6.77024">
        <ele>375</ele>
        <time>2016-05-08T10:18:09.000Z</time>
      </trkpt>
      <trkpt lat="47.51111" lon="6.77028">
        <ele>375</ele>
        <time>2016-05-08T10:18:10.000Z</time>
      </trkpt>
      <trkpt lat="47.51115" lon="6.77033">
        <ele>375</ele>
        <time>2016-05-08T10:18:11.000Z</time>
      </trkpt>
      <trkpt lat="47.51121" lon="6.77038">
        <ele>375</ele>
        <time>2016-05-08T10:18:12.000Z</time>
      </trkpt>
      <trkpt lat="47.51127" lon="6.77042">
        <ele>375</ele>
        <time>2016-05-08T10:18:13.000Z</time>
      </trkpt>
      <trkpt lat="47.51132" lon="6.77046">
        <ele>375</ele>
        <time>2016-05-08T10:18:14.000Z</time>
      </trkpt>
      <trkpt lat="47.51136" lon="6.7705">
        <ele>375</ele>
        <time>2016-05-08T10:18:15.000Z</time>
      </trkpt>
      <trkpt lat="47.51138" lon="6.77055">
        <ele>376</ele>
        <time>2016-05-08T10:18:16.001Z</time>
      </trkpt>
      <trkpt lat="47.51142" lon="6.7706">
        <ele>376</ele>
        <time>2016-05-08T10:18:17.001Z</time>
      </trkpt>
      <trkpt lat="47.51149" lon="6.77065">
        <ele>376</ele>
        <time>2016-05-08T10:18:18.000Z</time>
      </trkpt>
      <trkpt lat="47.51154" lon="6.77069">
        <ele>376</ele>
        <time>2016-05-08T10:18:18.999Z</time>
      </trkpt>
      <trkpt lat="47.51159" lon="6.77074">
        <ele>377</ele>
        <time>2016-05-08T10:18:20.002Z</time>
      </trkpt>
      <trkpt lat="47.51163" lon="6.77078">
        <ele>377</ele>
        <time>2016-05-08T10:18:21.000Z</time>
      </trkpt>
      <trkpt lat="47.51167" lon="6.77085">
        <ele>378</ele>
        <time>2016-05-08T10:18:22.000Z</time>
      </trkpt>
      <trkpt lat="47.51169" lon="6.77089">
        <ele>378</ele>
        <time>2016-05-08T10:18:23.000Z</time>
      </trkpt>
      <trkpt lat="47.51172" lon="6.77094">
        <ele>378</ele>
        <time>2016-05-08T10:18:24.000Z</time>
      </trkpt>
      <trkpt lat="47.51175" lon="6.77101">
        <ele>378</ele>
        <time>2016-05-08T10:18:25.000Z</time>
      </trkpt>
      <trkpt lat="47.51178" lon="6.77106">
        <ele>378</ele>
        <time>2016-05-08T10:18:26.000Z</time>
      </trkpt>
      <trkpt lat="47.51181" lon="6.77111">
        <ele>378</ele>
        <time>2016-05-08T10:18:27.000Z</time>
      </trkpt>
      <trkpt lat="47.51184" lon="6.77118">
        <ele>378</ele>
        <time>2016-05-08T10:18:28.000Z</time>
      </trkpt>
      <trkpt lat="47.51187" lon="6.77123">
        <ele>378</ele>
        <time>2016-05-08T10:18:29.000Z</time>
      </trkpt>
      <trkpt lat="47.51189" lon="6.77129">
        <ele>378</ele>
        <time>2016-05-08T10:18:30.000Z</time>
      </trkpt>
      <trkpt lat="47.51191" lon="6.77134">
        <ele>378</ele>
        <time>2016-05-08T10:18:31.000Z</time>
      </trkpt>
      <trkpt lat="47.51195" lon="6.77139">
        <ele>378</ele>
        <time>2016-05-08T10:18:32.000Z</time>
      </trkpt>
      <trkpt lat="47.51197" lon="6.77144">
        <ele>378</ele>
        <time>2016-05-08T10:18:33.000Z</time>
      </trkpt>
      <trkpt lat="47.512" lon="6.7715">
        <ele>378</ele>
        <time>2016-05-08T10:18:34.000Z</time>
      </trkpt>
      <trkpt lat="47.51204" lon="6.77156">
        <ele>378</ele>
        <time>2016-05-08T10:18:35.000Z</time>
      </trkpt>
      <trkpt lat="47.51206" lon="6.7716">
        <ele>378</ele>
        <time>2016-05-08T10:18:36.000Z</time>
      </trkpt>
      <trkpt lat="47.51208" lon="6.77164">
        <ele>378</ele>
        <time>2016-05-08T10:18:37.000Z</time>
      </trkpt>
      <trkpt lat="47.5121" lon="6.77171">
        <ele>376</ele>
        <time>2016-05-08T10:18:38.000Z</time>
      </trkpt>
      <trkpt lat="47.51212" lon="6.77177">
        <ele>376</ele>
        <time>2016-05-08T10:18:39.000Z</time>
      </trkpt>
      <trkpt lat="47.51215" lon="6.77181">
        <ele>376</ele>
        <time>2016-05-08T10:18:40.000Z</time>
      </trkpt>
      <trkpt lat="47.51217" lon="6.77186">
        <ele>376</ele>
        <time>2016-05-08T10:18:41.000Z</time>
      </trkpt>
      <trkpt lat="47.5122" lon="6.77189">
        <ele>376</ele>
        <time>2016-05-08T10:18:42.000Z</time>
      </trkpt>
      <trkpt lat="47.51222" lon="6.77193">
        <ele>376</ele>
        <time>2016-05-08T10:18:43.000Z</time>
      </trkpt>
      <trkpt lat="47.51225" lon="6.77198">
        <ele>376</ele>
        <time>2016-05-08T10:18:44.000Z</time>
      </trkpt>
      <trkpt lat="47.51228" lon="6.77203">
        <ele>376</ele>
        <time>2016-05-08T10:18:45.000Z</time>
      </trkpt>
      <trkpt lat="47.5123" lon="6.77208">
        <ele>376</ele>
        <time>2016-05-08T10:18:46.000Z</time>
      </trkpt>
      <trkpt lat="47.51233" lon="6.77213">
        <ele>376</ele>
        <time>2016-05-08T10:18:47.000Z</time>
      </trkpt>
      <trkpt lat="47.51235" lon="6.77218">
        <ele>376</ele>
        <time>2016-05-08T10:18:48.000Z</time>
      </trkpt>
      <trkpt lat="47.51236" lon="6.77225">
        <ele>376</ele>
        <time>2016-05-08T10:18:49.000Z</time>
      </trkpt>
      <trkpt lat="47.51239" lon="6.7723">
        <ele>376</ele>
        <time>2016-05-08T10:18:50.000Z</time>
      </trkpt>
      <trkpt lat="47.51243" lon="6.77234">
        <ele>377</ele>
        <time>2016-05-08T10:18:51.000Z</time>
      </trkpt>
      <trkpt lat="47.51245" lon="6.77238">
        <ele>377</ele>
        <time>2016-05-08T10:18:52.000Z</time>
      </trkpt>
      <trkpt lat="47.51247" lon="6.77242">
        <ele>378</ele>
        <time>2016-05-08T10:18:53.000Z</time>
      </trkpt>
      <trkpt lat="47.5125" lon="6.77246">
        <ele>379</ele>
        <time>2016-05-08T10:18:54.000Z</time>
      </trkpt>
      <trkpt lat="47.51254" lon="6.7725">
        <ele>379</ele>
        <time>2016-05-08T10:18:55.000Z</time>
      </trkpt>
      <trkpt lat="47.51257" lon="6.77254">
        <ele>378</ele>
        <time>2016-05-08T10:18:56.000Z</time>
      </trkpt>
      <trkpt lat="47.5126" lon="6.77258">
        <ele>378</ele>
        <time>2016-05-08T10:18:57.000Z</time>
      </trkpt>
      <trkpt lat="47.51264" lon="6.77262">
        <ele>378</ele>
        <time>2016-05-08T10:18:58.000Z</time>
      </trkpt>
      <trkpt lat="47.51267" lon="6.77265">
        <ele>377</ele>
        <time>2016-05-08T10:18:59.000Z</time>
      </trkpt>
      <trkpt lat="47.51271" lon="6.77268">
        <ele>377</ele>
        <time>2016-05-08T10:19:00.000Z</time>
      </trkpt>
      <trkpt lat="47.51276" lon="6.7727">
        <ele>377</ele>
        <time>2016-05-08T10:19:01.000Z</time>
      </trkpt>
      <trkpt lat="47.51281" lon="6.77274">
        <ele>377</ele>
        <time>2016-05-08T10:19:02.000Z</time>
      </trkpt>
      <trkpt lat="47.51285" lon="6.77275">
        <ele>377</ele>
        <time>2016-05-08T10:19:03.000Z</time>
      </trkpt>
      <trkpt lat="47.5129" lon="6.77278">
        <ele>377</ele>
        <time>2016-05-08T10:19:04.000Z</time>
      </trkpt>
      <trkpt lat="47.51293" lon="6.7728">
        <ele>377</ele>
        <time>2016-05-08T10:19:05.000Z</time>
      </trkpt>
      <trkpt lat="47.51298" lon="6.77284">
        <ele>377</ele>
        <time>2016-05-08T10:19:06.000Z</time>
      </trkpt>
      <trkpt lat="47.51303" lon="6.77287">
        <ele>377</ele>
        <time>2016-05-08T10:19:07.000Z</time>
      </trkpt>
      <trkpt lat="47.51309" lon="6.77289">
        <ele>377</ele>
        <time>2016-05-08T10:19:08.000Z</time>
      </trkpt>
      <trkpt lat="47.51314" lon="6.77291">
        <ele>377</ele>
        <time>2016-05-08T10:19:09.000Z</time>
      </trkpt>
      <trkpt lat="47.51319" lon="6.77293">
        <ele>378</ele>
        <time>2016-05-08T10:19:10.000Z</time>
      </trkpt>
      <trkpt lat="47.51324" lon="6.77292">
        <ele>378</ele>
        <time>2016-05-08T10:19:11.000Z</time>
      </trkpt>
      <trkpt lat="47.5133" lon="6.77292">
        <ele>378</ele>
        <time>2016-05-08T10:19:12.000Z</time>
      </trkpt>
      <trkpt lat="47.51336" lon="6.7729">
        <ele>378</ele>
        <time>2016-05-08T10:19:13.000Z</time>
      </trkpt>
      <trkpt lat="47.51342" lon="6.77286">
        <ele>378</ele>
        <time>2016-05-08T10:19:14.000Z</time>
      </trkpt>
      <trkpt lat="47.51349" lon="6.77281">
        <ele>378</ele>
        <time>2016-05-08T10:19:15.000Z</time>
      </trkpt>
      <trkpt lat="47.51355" lon="6.77276">
        <ele>378</ele>
        <time>2016-05-08T10:19:16.000Z</time>
      </trkpt>
      <trkpt lat="47.51362" lon="6.77269">
        <ele>378</ele>
        <time>2016-05-08T10:19:17.000Z</time>
      </trkpt>
      <trkpt lat="47.5137" lon="6.77265">
        <ele>378</ele>
        <time>2016-05-08T10:19:18.000Z</time>
      </trkpt>
      <trkpt lat="47.51378" lon="6.7726">
        <ele>377</ele>
        <time>2016-05-08T10:19:19.000Z</time>
      </trkpt>
      <trkpt lat="47.51385" lon="6.77254">
        <ele>377</ele>
        <time>2016-05-08T10:19:20.000Z</time>
      </trkpt>
      <trkpt lat="47.51394" lon="6.77249">
        <ele>376</ele>
        <time>2016-05-08T10:19:21.000Z</time>
      </trkpt>
      <trkpt lat="47.51402" lon="6.77245">
        <ele>376</ele>
        <time>2016-05-08T10:19:22.000Z</time>
      </trkpt>
      <trkpt lat="47.51409" lon="6.77241">
        <ele>376</ele>
        <time>2016-05-08T10:19:23.000Z</time>
      </trkpt>
      <trkpt lat="47.51418" lon="6.77236">
        <ele>376</ele>
        <time>2016-05-08T10:19:24.000Z</time>
      </trkpt>
      <trkpt lat="47.51425" lon="6.77232">
        <ele>375</ele>
        <time>2016-05-08T10:19:25.000Z</time>
      </trkpt>
      <trkpt lat="47.51433" lon="6.77227">
        <ele>375</ele>
        <time>2016-05-08T10:19:26.000Z</time>
      </trkpt>
      <trkpt lat="47.5144" lon="6.77224">
        <ele>375</ele>
        <time>2016-05-08T10:19:27.000Z</time>
      </trkpt>
      <trkpt lat="47.51448" lon="6.77221">
        <ele>375</ele>
        <time>2016-05-08T10:19:28.000Z</time>
      </trkpt>
      <trkpt lat="47.51455" lon="6.77216">
        <ele>375</ele>
        <time>2016-05-08T10:19:29.000Z</time>
      </trkpt>
      <trkpt lat="47.51462" lon="6.77213">
        <ele>375</ele>
        <time>2016-05-08T10:19:30.000Z</time>
      </trkpt>
      <trkpt lat="47.51468" lon="6.77211">
        <ele>375</ele>
        <time>2016-05-08T10:19:31.000Z</time>
      </trkpt>
      <trkpt lat="47.51472" lon="6.7721">
        <ele>375</ele>
        <time>2016-05-08T10:19:32.000Z</time>
      </trkpt>
      <trkpt lat="47.51478" lon="6.7721">
        <ele>375</ele>
        <time>2016-05-08T10:19:33.000Z</time>
      </trkpt>
      <trkpt lat="47.5148" lon="6.77216">
        <ele>375</ele>
        <time>2016-05-08T10:19:34.000Z</time>
      </trkpt>
      <trkpt lat="47.51482" lon="6.77221">
        <ele>375</ele>
        <time>2016-05-08T10:19:35.000Z</time>
      </trkpt>
      <trkpt lat="47.51483" lon="6.77229">
        <ele>375</ele>
        <time>2016-05-08T10:19:36.000Z</time>
      </trkpt>
      <trkpt lat="47.51483" lon="6.77236">
        <ele>375</ele>
        <time>2016-05-08T10:19:37.000Z</time>
      </trkpt>
      <trkpt lat="47.51483" lon="6.77243">
        <ele>376</ele>
        <time>2016-05-08T10:19:38.000Z</time>
      </trkpt>
      <trkpt lat="47.51484" lon="6.77251">
        <ele>376</ele>
        <time>2016-05-08T10:19:39.000Z</time>
      </trkpt>
      <trkpt lat="47.51484" lon="6.77258">
        <ele>376</ele>
        <time>2016-05-08T10:19:40.000Z</time>
      </trkpt>
      <trkpt lat="47.51484" lon="6.77265">
        <ele>376</ele>
        <time>2016-05-08T10:19:41.000Z</time>
      </trkpt>
      <trkpt lat="47.51485" lon="6.77272">
        <ele>377</ele>
        <time>2016-05-08T10:19:42.000Z</time>
      </trkpt>
      <trkpt lat="47.51486" lon="6.77279">
        <ele>377</ele>
        <time>2016-05-08T10:19:43.000Z</time>
      </trkpt>
      <trkpt lat="47.51485" lon="6.77286">
        <ele>377</ele>
        <time>2016-05-08T10:19:44.000Z</time>
      </trkpt>
      <trkpt lat="47.51485" lon="6.77293">
        <ele>377</ele>
        <time>2016-05-08T10:19:45.000Z</time>
      </trkpt>
      <trkpt lat="47.51485" lon="6.77299">
        <ele>377</ele>
        <time>2016-05-08T10:19:46.000Z</time>
      </trkpt>
      <trkpt lat="47.51484" lon="6.77306">
        <ele>377</ele>
        <time>2016-05-08T10:19:47.000Z</time>
      </trkpt>
      <trkpt lat="47.51485" lon="6.77312">
        <ele>377</ele>
        <time>2016-05-08T10:19:48.000Z</time>
      </trkpt>
      <trkpt lat="47.51487" lon="6.77317">
        <ele>377</ele>
        <time>2016-05-08T10:19:49.000Z</time>
      </trkpt>
      <trkpt lat="47.51492" lon="6.77321">
        <ele>377</ele>
        <time>2016-05-08T10:19:50.000Z</time>
      </trkpt>
      <trkpt lat="47.51496" lon="6.77324">
        <ele>378</ele>
        <time>2016-05-08T10:19:51.000Z</time>
      </trkpt>
      <trkpt lat="47.515" lon="6.77327">
        <ele>378</ele>
        <time>2016-05-08T10:19:52.000Z</time>
      </trkpt>
      <trkpt lat="47.51504" lon="6.7733">
        <ele>378</ele>
        <time>2016-05-08T10:19:53.000Z</time>
      </trkpt>
      <trkpt lat="47.51508" lon="6.77334">
        <ele>379</ele>
        <time>2016-05-08T10:19:54.000Z</time>
      </trkpt>
      <trkpt lat="47.5151" lon="6.77336">
        <ele>379</ele>
        <time>2016-05-08T10:19:55.000Z</time>
      </trkpt>
      <trkpt lat="47.51513" lon="6.77338">
        <ele>379</ele>
        <time>2016-05-08T10:19:56.000Z</time>
      </trkpt>
      <trkpt lat="47.51516" lon="6.77342">
        <ele>379</ele>
        <time>2016-05-08T10:19:57.000Z</time>
      </trkpt>
      <trkpt lat="47.51519" lon="6.77345">
        <ele>379</ele>
        <time>2016-05-08T10:19:58.000Z</time>
      </trkpt>
      <trkpt lat="47.51521" lon="6.77349">
        <ele>380</ele>
        <time>2016-05-08T10:19:59.000Z</time>
      </trkpt>
      <trkpt lat="47.51524" lon="6.77351">
        <ele>380</ele>
        <time>2016-05-08T10:20:00.000Z</time>
      </trkpt>
      <trkpt lat="47.51526" lon="6.77354">
        <ele>380</ele>
        <time>2016-05-08T10:20:01.000Z</time>
      </trkpt>
      <trkpt lat="47.51528" lon="6.77357">
        <ele>380</ele>
        <time>2016-05-08T10:20:02.000Z</time>
      </trkpt>
      <trkpt lat="47.5153" lon="6.7736">
        <ele>380</ele>
        <time>2016-05-08T10:20:03.000Z</time>
      </trkpt>
      <trkpt lat="47.51532" lon="6.77363">
        <ele>380</ele>
        <time>2016-05-08T10:20:04.000Z</time>
      </trkpt>
      <trkpt lat="47.51535" lon="6.77366">
        <ele>380</ele>
        <time>2016-05-08T10:20:05.000Z</time>
      </trkpt>
      <trkpt lat="47.51537" lon="6.77369">
        <ele>380</ele>
        <time>2016-05-08T10:20:05.999Z</time>
      </trkpt>
      <trkpt lat="47.5154" lon="6.77371">
        <ele>380</ele>
        <time>2016-05-08T10:20:07.000Z</time>
      </trkpt>
      <trkpt lat="47.51543" lon="6.77373">
        <ele>380</ele>
        <time>2016-05-08T10:20:08.000Z</time>
      </trkpt>
      <trkpt lat="47.51545" lon="6.77376">
        <ele>381</ele>
        <time>2016-05-08T10:20:09.000Z</time>
      </trkpt>
      <trkpt lat="47.51547" lon="6.77378">
        <ele>381</ele>
        <time>2016-05-08T10:20:10.000Z</time>
      </trkpt>
      <trkpt lat="47.5155" lon="6.77381">
        <ele>381</ele>
        <time>2016-05-08T10:20:11.000Z</time>
      </trkpt>
      <trkpt lat="47.51552" lon="6.77384">
        <ele>381</ele>
        <time>2016-05-08T10:20:12.000Z</time>
      </trkpt>
      <trkpt lat="47.51555" lon="6.77386">
        <ele>381</ele>
        <time>2016-05-08T10:20:13.000Z</time>
      </trkpt>
      <trkpt lat="47.51557" lon="6.77389">
        <ele>381</ele>
        <time>2016-05-08T10:20:14.000Z</time>
      </trkpt>
      <trkpt lat="47.5156" lon="6.77391">
        <ele>381</ele>
        <time>2016-05-08T10:20:15.000Z</time>
      </trkpt>
      <trkpt lat="47.51562" lon="6.77393">
        <ele>381</ele>
        <time>2016-05-08T10:20:16.000Z</time>
      </trkpt>
      <trkpt lat="47.51564" lon="6.77396">
        <ele>381</ele>
        <time>2016-05-08T10:20:17.000Z</time>
      </trkpt>
      <trkpt lat="47.51566" lon="6.77398">
        <ele>381</ele>
        <time>2016-05-08T10:20:18.000Z</time>
      </trkpt>
      <trkpt lat="47.51567" lon="6.77401">
        <ele>382</ele>
        <time>2016-05-08T10:20:19.000Z</time>
      </trkpt>
      <trkpt lat="47.51569" lon="6.77404">
        <ele>382</ele>
        <time>2016-05-08T10:20:20.000Z</time>
      </trkpt>
      <trkpt lat="47.51571" lon="6.77407">
        <ele>382</ele>
        <time>2016-05-08T10:20:21.000Z</time>
      </trkpt>
      <trkpt lat="47.51573" lon="6.77409">
        <ele>382</ele>
        <time>2016-05-08T10:20:22.000Z</time>
      </trkpt>
      <trkpt lat="47.51575" lon="6.77412">
        <ele>382</ele>
        <time>2016-05-08T10:20:23.000Z</time>
      </trkpt>
      <trkpt lat="47.51578" lon="6.77415">
        <ele>382</ele>
        <time>2016-05-08T10:20:24.000Z</time>
      </trkpt>
      <trkpt lat="47.5158" lon="6.77418">
        <ele>383</ele>
        <time>2016-05-08T10:20:25.000Z</time>
      </trkpt>
      <trkpt lat="47.51583" lon="6.77421">
        <ele>383</ele>
        <time>2016-05-08T10:20:26.000Z</time>
      </trkpt>
      <trkpt lat="47.51585" lon="6.77424">
        <ele>384</ele>
        <time>2016-05-08T10:20:27.000Z</time>
      </trkpt>
      <trkpt lat="47.51587" lon="6.77427">
        <ele>384</ele>
        <time>2016-05-08T10:20:28.000Z</time>
      </trkpt>
      <trkpt lat="47.5159" lon="6.7743">
        <ele>384</ele>
        <time>2016-05-08T10:20:29.000Z</time>
      </trkpt>
      <trkpt lat="47.51592" lon="6.77433">
        <ele>384</ele>
        <time>2016-05-08T10:20:29.999Z</time>
      </trkpt>
      <trkpt lat="47.51594" lon="6.77435">
        <ele>385</ele>
        <time>2016-05-08T10:20:31.000Z</time>
      </trkpt>
      <trkpt lat="47.51596" lon="6.77437">
        <ele>385</ele>
        <time>2016-05-08T10:20:32.000Z</time>
      </trkpt>
      <trkpt lat="47.51598" lon="6.77438">
        <ele>385</ele>
        <time>2016-05-08T10:20:33.000Z</time>
      </trkpt>
      <trkpt lat="47.51601" lon="6.7744">
        <ele>385</ele>
        <time>2016-05-08T10:20:34.000Z</time>
      </trkpt>
      <trkpt lat="47.51604" lon="6.77443">
        <ele>385</ele>
        <time>2016-05-08T10:20:35.000Z</time>
      </trkpt>
      <trkpt lat="47.51605" lon="6.77445">
        <ele>385</ele>
        <time>2016-05-08T10:20:36.000Z</time>
      </trkpt>
      <trkpt lat="47.51607" lon="6.77449">
        <ele>385</ele>
        <time>2016-05-08T10:20:37.000Z</time>
      </trkpt>
      <trkpt lat="47.51609" lon="6.77453">
        <ele>385</ele>
        <time>2016-05-08T10:20:38.000Z</time>
      </trkpt>
      <trkpt lat="47.51611" lon="6.77457">
        <ele>385</ele>
        <time>2016-05-08T10:20:39.000Z</time>
      </trkpt>
      <trkpt lat="47.51613" lon="6.7746">
        <ele>386</ele>
        <time>2016-05-08T10:20:40.000Z</time>
      </trkpt>
      <trkpt lat="47.51615" lon="6.77464">
        <ele>386</ele>
        <time>2016-05-08T10:20:41.000Z</time>
      </trkpt>
      <trkpt lat="47.51617" lon="6.77467">
        <ele>386</ele>
        <time>2016-05-08T10:20:42.000Z</time>
      </trkpt>
      <trkpt lat="47.51619" lon="6.7747">
        <ele>386</ele>
        <time>2016-05-08T10:20:43.000Z</time>
      </trkpt>
      <trkpt lat="47.51622" lon="6.77473">
        <ele>386</ele>
        <time>2016-05-08T10:20:44.000Z</time>
      </trkpt>
      <trkpt lat="47.51624" lon="6.77476">
        <ele>386</ele>
        <time>2016-05-08T10:20:45.000Z</time>
      </trkpt>
      <trkpt lat="47.51627" lon="6.77479">
        <ele>386</ele>
        <time>2016-05-08T10:20:46.000Z</time>
      </trkpt>
      <trkpt lat="47.51629" lon="6.77482">
        <ele>386</ele>
        <time>2016-05-08T10:20:47.000Z</time>
      </trkpt>
      <trkpt lat="47.51632" lon="6.77485">
        <ele>386</ele>
        <time>2016-05-08T10:20:48.000Z</time>
      </trkpt>
      <trkpt lat="47.51635" lon="6.77488">
        <ele>386</ele>
        <time>2016-05-08T10:20:49.000Z</time>
      </trkpt>
      <trkpt lat="47.51638" lon="6.7749">
        <ele>387</ele>
        <time>2016-05-08T10:20:50.000Z</time>
      </trkpt>
      <trkpt lat="47.51641" lon="6.77493">
        <ele>387</ele>
        <time>2016-05-08T10:20:51.000Z</time>
      </trkpt>
      <trkpt lat="47.51643" lon="6.77495">
        <ele>387</ele>
        <time>2016-05-08T10:20:52.000Z</time>
      </trkpt>
      <trkpt lat="47.51646" lon="6.77497">
        <ele>387</ele>
        <time>2016-05-08T10:20:53.000Z</time>
      </trkpt>
      <trkpt lat="47.51649" lon="6.775">
        <ele>387</ele>
        <time>2016-05-08T10:20:54.000Z</time>
      </trkpt>
      <trkpt lat="47.51651" lon="6.77503">
        <ele>388</ele>
        <time>2016-05-08T10:20:55.000Z</time>
      </trkpt>
      <trkpt lat="47.51654" lon="6.77506">
        <ele>388</ele>
        <time>2016-05-08T10:20:56.000Z</time>
      </trkpt>
      <trkpt lat="47.51656" lon="6.77509">
        <ele>388</ele>
        <time>2016-05-08T10:20:57.000Z</time>
      </trkpt>
      <trkpt lat="47.51659" lon="6.77513">
        <ele>388</ele>
        <time>2016-05-08T10:20:58.000Z</time>
      </trkpt>
      <trkpt lat="47.51662" lon="6.77516">
        <ele>388</ele>
        <time>2016-05-08T10:20:59.000Z</time>
      </trkpt>
      <trkpt lat="47.51664" lon="6.77519">
        <ele>388</ele>
        <time>2016-05-08T10:21:00.000Z</time>
      </trkpt>
      <trkpt lat="47.51667" lon="6.77522">
        <ele>389</ele>
        <time>2016-05-08T10:21:01.000Z</time>
      </trkpt>
      <trkpt lat="47.5167" lon="6.77524">
        <ele>390</ele>
        <time>2016-05-08T10:21:02.000Z</time>
      </trkpt>
      <trkpt lat="47.51672" lon="6.77527">
        <ele>390</ele>
        <time>2016-05-08T10:21:03.000Z</time>
      </trkpt>
      <trkpt lat="47.51674" lon="6.7753">
        <ele>390</ele>
        <time>2016-05-08T10:21:04.000Z</time>
      </trkpt>
      <trkpt lat="47.51677" lon="6.77533">
        <ele>390</ele>
        <time>2016-05-08T10:21:05.000Z</time>
      </trkpt>
      <trkpt lat="47.51679" lon="6.77536">
        <ele>390</ele>
        <time>2016-05-08T10:21:06.000Z</time>
      </trkpt>
      <trkpt lat="47.51682" lon="6.77539">
        <ele>390</ele>
        <time>2016-05-08T10:21:07.000Z</time>
      </trkpt>
      <trkpt lat="47.51684" lon="6.77542">
        <ele>390</ele>
        <time>2016-05-08T10:21:08.000Z</time>
      </trkpt>
      <trkpt lat="47.51686" lon="6.77545">
        <ele>390</ele>
        <time>2016-05-08T10:21:09.000Z</time>
      </trkpt>
      <trkpt lat="47.51688" lon="6.77548">
        <ele>390</ele>
        <time>2016-05-08T10:21:10.000Z</time>
      </trkpt>
      <trkpt lat="47.5169" lon="6.77552">
        <ele>390</ele>
        <time>2016-05-08T10:21:11.000Z</time>
      </trkpt>
      <trkpt lat="47.51692" lon="6.77555">
        <ele>390</ele>
        <time>2016-05-08T10:21:12.000Z</time>
      </trkpt>
      <trkpt lat="47.51694" lon="6.77557">
        <ele>390</ele>
        <time>2016-05-08T10:21:13.000Z</time>
      </trkpt>
      <trkpt lat="47.51696" lon="6.7756">
        <ele>390</ele>
        <time>2016-05-08T10:21:14.000Z</time>
      </trkpt>
      <trkpt lat="47.51698" lon="6.77563">
        <ele>390</ele>
        <time>2016-05-08T10:21:15.001Z</time>
      </trkpt>
      <trkpt lat="47.51701" lon="6.77565">
        <ele>390</ele>
        <time>2016-05-08T10:21:17.000Z</time>
      </trkpt>
      <trkpt lat="47.51703" lon="6.77565">
        <ele>390</ele>
        <time>2016-05-08T10:21:18.000Z</time>
      </trkpt>
      <trkpt lat="47.51704" lon="6.77562">
        <ele>390</ele>
        <time>2016-05-08T10:21:19.000Z</time>
      </trkpt>
      <trkpt lat="47.51706" lon="6.77559">
        <ele>390</ele>
        <time>2016-05-08T10:21:20.000Z</time>
      </trkpt>
      <trkpt lat="47.51708" lon="6.77555">
        <ele>390</ele>
        <time>2016-05-08T10:21:21.000Z</time>
      </trkpt>
      <trkpt lat="47.51709" lon="6.77552">
        <ele>390</ele>
        <time>2016-05-08T10:21:22.000Z</time>
      </trkpt>
      <trkpt lat="47.51711" lon="6.77549">
        <ele>390</ele>
        <time>2016-05-08T10:21:23.000Z</time>
      </trkpt>
      <trkpt lat="47.51713" lon="6.77546">
        <ele>390</ele>
        <time>2016-05-08T10:21:24.000Z</time>
      </trkpt>
      <trkpt lat="47.51715" lon="6.77542">
        <ele>390</ele>
        <time>2016-05-08T10:21:25.000Z</time>
      </trkpt>
      <trkpt lat="47.51716" lon="6.77537">
        <ele>390</ele>
        <time>2016-05-08T10:21:26.000Z</time>
      </trkpt>
      <trkpt lat="47.51718" lon="6.77532">
        <ele>390</ele>
        <time>2016-05-08T10:21:27.000Z</time>
      </trkpt>
      <trkpt lat="47.51719" lon="6.77527">
        <ele>390</ele>
        <time>2016-05-08T10:21:28.000Z</time>
      </trkpt>
      <trkpt lat="47.5172" lon="6.77522">
        <ele>390</ele>
        <time>2016-05-08T10:21:29.000Z</time>
      </trkpt>
      <trkpt lat="47.51721" lon="6.77517">
        <ele>390</ele>
        <time>2016-05-08T10:21:30.000Z</time>
      </trkpt>
      <trkpt lat="47.51723" lon="6.77512">
        <ele>390</ele>
        <time>2016-05-08T10:21:31.000Z</time>
      </trkpt>
      <trkpt lat="47.51724" lon="6.77508">
        <ele>390</ele>
        <time>2016-05-08T10:21:32.000Z</time>
      </trkpt>
      <trkpt lat="47.51725" lon="6.77503">
        <ele>390</ele>
        <time>2016-05-08T10:21:33.000Z</time>
      </trkpt>
      <trkpt lat="47.51726" lon="6.77498">
        <ele>389</ele>
        <time>2016-05-08T10:21:34.000Z</time>
      </trkpt>
      <trkpt lat="47.51728" lon="6.77492">
        <ele>389</ele>
        <time>2016-05-08T10:21:35.000Z</time>
      </trkpt>
      <trkpt lat="47.51729" lon="6.77487">
        <ele>389</ele>
        <time>2016-05-08T10:21:36.000Z</time>
      </trkpt>
      <trkpt lat="47.51732" lon="6.77482">
        <ele>389</ele>
        <time>2016-05-08T10:21:37.000Z</time>
      </trkpt>
      <trkpt lat="47.51735" lon="6.77479">
        <ele>389</ele>
        <time>2016-05-08T10:21:38.000Z</time>
      </trkpt>
      <trkpt lat="47.51739" lon="6.77478">
        <ele>389</ele>
        <time>2016-05-08T10:21:39.000Z</time>
      </trkpt>
      <trkpt lat="47.51744" lon="6.77478">
        <ele>389</ele>
        <time>2016-05-08T10:21:40.000Z</time>
      </trkpt>
      <trkpt lat="47.51749" lon="6.77479">
        <ele>389</ele>
        <time>2016-05-08T10:21:41.000Z</time>
      </trkpt>
      <trkpt lat="47.51753" lon="6.77481">
        <ele>389</ele>
        <time>2016-05-08T10:21:42.000Z</time>
      </trkpt>
      <trkpt lat="47.51758" lon="6.77482">
        <ele>389</ele>
        <time>2016-05-08T10:21:43.000Z</time>
      </trkpt>
      <trkpt lat="47.51762" lon="6.77483">
        <ele>389</ele>
        <time>2016-05-08T10:21:44.000Z</time>
      </trkpt>
      <trkpt lat="47.51768" lon="6.77486">
        <ele>389</ele>
        <time>2016-05-08T10:21:45.000Z</time>
      </trkpt>
      <trkpt lat="47.51773" lon="6.77488">
        <ele>388</ele>
        <time>2016-05-08T10:21:46.000Z</time>
      </trkpt>
      <trkpt lat="47.51778" lon="6.77489">
        <ele>388</ele>
        <time>2016-05-08T10:21:47.000Z</time>
      </trkpt>
      <trkpt lat="47.51783" lon="6.77491">
        <ele>388</ele>
        <time>2016-05-08T10:21:48.000Z</time>
      </trkpt>
      <trkpt lat="47.51787" lon="6.77493">
        <ele>388</ele>
        <time>2016-05-08T10:21:49.000Z</time>
      </trkpt>
      <trkpt lat="47.51791" lon="6.77495">
        <ele>388</ele>
        <time>2016-05-08T10:21:50.000Z</time>
      </trkpt>
      <trkpt lat="47.51795" lon="6.77497">
        <ele>388</ele>
        <time>2016-05-08T10:21:51.000Z</time>
      </trkpt>
      <trkpt lat="47.518" lon="6.77497">
        <ele>388</ele>
        <time>2016-05-08T10:21:52.000Z</time>
      </trkpt>
      <trkpt lat="47.51804" lon="6.77496">
        <ele>388</ele>
        <time>2016-05-08T10:21:53.000Z</time>
      </trkpt>
      <trkpt lat="47.51807" lon="6.77493">
        <ele>388</ele>
        <time>2016-05-08T10:21:54.000Z</time>
      </trkpt>
      <trkpt lat="47.51804" lon="6.77498">
        <ele>388</ele>
        <time>2016-05-08T10:22:00.000Z</time>
      </trkpt>
      <trkpt lat="47.51803" lon="6.77499">
        <ele>388</ele>
        <time>2016-05-08T10:22:01.000Z</time>
      </trkpt>
      <trkpt lat="47.51799" lon="6.77499">
        <ele>388</ele>
        <time>2016-05-08T10:22:03.000Z</time>
      </trkpt>
      <trkpt lat="47.51798" lon="6.77501">
        <ele>389</ele>
        <time>2016-05-08T10:22:04.000Z</time>
      </trkpt>
      <trkpt lat="47.51797" lon="6.77505">
        <ele>389</ele>
        <time>2016-05-08T10:22:08.000Z</time>
      </trkpt>
      <trkpt lat="47.518" lon="6.77506">
        <ele>389</ele>
        <time>2016-05-08T10:22:09.000Z</time>
      </trkpt>
      <trkpt lat="47.51804" lon="6.77506">
        <ele>389</ele>
        <time>2016-05-08T10:22:10.000Z</time>
      </trkpt>
      <trkpt lat="47.51807" lon="6.77494">
        <ele>388</ele>
        <time>2016-05-08T10:22:11.000Z</time>
      </trkpt>
      <trkpt lat="47.51808" lon="6.77487">
        <ele>388</ele>
        <time>2016-05-08T10:22:12.000Z</time>
      </trkpt>
      <trkpt lat="47.51807" lon="6.7748">
        <ele>388</ele>
        <time>2016-05-08T10:22:13.000Z</time>
      </trkpt>
      <trkpt lat="47.51806" lon="6.77474">
        <ele>388</ele>
        <time>2016-05-08T10:22:14.000Z</time>
      </trkpt>
      <trkpt lat="47.51805" lon="6.7747">
        <ele>388</ele>
        <time>2016-05-08T10:22:15.000Z</time>
      </trkpt>
      <trkpt lat="47.51805" lon="6.77467">
        <ele>388</ele>
        <time>2016-05-08T10:22:16.000Z</time>
      </trkpt>
      <trkpt lat="47.518" lon="6.77465">
        <ele>388</ele>
        <time>2016-05-08T10:23:21.000Z</time>
      </trkpt>
      <trkpt lat="47.51799" lon="6.77465">
        <ele>388</ele>
        <time>2016-05-08T10:23:22.000Z</time>
      </trkpt>
      <trkpt lat="47.51802" lon="6.77469">
        <ele>388</ele>
        <time>2016-05-08T10:24:00.000Z</time>
      </trkpt>
    </trkseg>
  </trk>
</gpx>